<?xml version="1.0" encoding="UTF-8" standalone="no" ?>
<gpx xmlns="http://www.topografix.com/GPX/1/1" xmlns:xsi="http://www.w3.org/2001/XMLSchema-instance" xsi:schemaLocation="http://www.topografix.com/GPX/1/1 http://www.topografix.com/GPX/1/1/gpx.xsd" version="1.1" creator="VisuGPX - https://www.visugpx.com">
  <metadata>
    <name>Deésertines-Epineuil Le Fleuriel</name>
  </metadata>
  <trk>
    <name><![CDATA[Deésertines-Epineuil Le Fleuriel_1]]></name>
    <trkseg>
      <trkpt lat="46.35824" lon="2.62372">
        <ele>250.971405</ele>
        <time>2020-07-12T05:33:48Z</time>
      </trkpt>
      <trkpt lat="46.35824" lon="2.62372">
        <ele>250.928543</ele>
        <time>2020-07-12T05:33:49Z</time>
      </trkpt>
      <trkpt lat="46.35836" lon="2.62357">
        <ele>261.7</ele>
        <time>2020-07-12T05:34:36Z</time>
      </trkpt>
      <trkpt lat="46.35844" lon="2.6236">
        <ele>261.6</ele>
        <time>2020-07-12T05:34:40Z</time>
      </trkpt>
      <trkpt lat="46.3585" lon="2.62363">
        <ele>261.9</ele>
        <time>2020-07-12T05:34:43Z</time>
      </trkpt>
      <trkpt lat="46.35856" lon="2.62363">
        <ele>262.2</ele>
        <time>2020-07-12T05:34:45Z</time>
      </trkpt>
      <trkpt lat="46.35863" lon="2.62358">
        <ele>262.4</ele>
        <time>2020-07-12T05:34:47Z</time>
      </trkpt>
      <trkpt lat="46.35869" lon="2.6235">
        <ele>262.4</ele>
        <time>2020-07-12T05:34:49Z</time>
      </trkpt>
      <trkpt lat="46.35872" lon="2.62345">
        <ele>262.3</ele>
        <time>2020-07-12T05:34:50Z</time>
      </trkpt>
      <trkpt lat="46.35875" lon="2.62339">
        <ele>262.2</ele>
        <time>2020-07-12T05:34:51Z</time>
      </trkpt>
      <trkpt lat="46.35879" lon="2.62335">
        <ele>262.1</ele>
        <time>2020-07-12T05:34:52Z</time>
      </trkpt>
      <trkpt lat="46.35884" lon="2.62332">
        <ele>261.9</ele>
        <time>2020-07-12T05:34:53Z</time>
      </trkpt>
      <trkpt lat="46.35889" lon="2.62332">
        <ele>261.7</ele>
        <time>2020-07-12T05:34:54Z</time>
      </trkpt>
      <trkpt lat="46.35894" lon="2.62333">
        <ele>261.6</ele>
        <time>2020-07-12T05:34:55Z</time>
      </trkpt>
      <trkpt lat="46.35898" lon="2.62335">
        <ele>261.5</ele>
        <time>2020-07-12T05:34:56Z</time>
      </trkpt>
      <trkpt lat="46.35903" lon="2.62338">
        <ele>261.3</ele>
        <time>2020-07-12T05:34:57Z</time>
      </trkpt>
      <trkpt lat="46.35908" lon="2.6234">
        <ele>261.1</ele>
        <time>2020-07-12T05:34:58Z</time>
      </trkpt>
      <trkpt lat="46.35912" lon="2.62343">
        <ele>260.9</ele>
        <time>2020-07-12T05:34:59Z</time>
      </trkpt>
      <trkpt lat="46.35917" lon="2.62343">
        <ele>260.8</ele>
        <time>2020-07-12T05:35:00Z</time>
      </trkpt>
      <trkpt lat="46.35921" lon="2.62339">
        <ele>260.6</ele>
        <time>2020-07-12T05:35:01Z</time>
      </trkpt>
      <trkpt lat="46.35924" lon="2.62334">
        <ele>260.4</ele>
        <time>2020-07-12T05:35:02Z</time>
      </trkpt>
      <trkpt lat="46.35927" lon="2.62328">
        <ele>260.1</ele>
        <time>2020-07-12T05:35:03Z</time>
      </trkpt>
      <trkpt lat="46.35929" lon="2.62322">
        <ele>259.9</ele>
        <time>2020-07-12T05:35:04Z</time>
      </trkpt>
      <trkpt lat="46.3593" lon="2.62315">
        <ele>259.6</ele>
        <time>2020-07-12T05:35:05Z</time>
      </trkpt>
      <trkpt lat="46.35932" lon="2.62308">
        <ele>259.4</ele>
        <time>2020-07-12T05:35:06Z</time>
      </trkpt>
      <trkpt lat="46.35934" lon="2.62301">
        <ele>259.1</ele>
        <time>2020-07-12T05:35:07Z</time>
      </trkpt>
      <trkpt lat="46.35936" lon="2.62294">
        <ele>258.9</ele>
        <time>2020-07-12T05:35:08Z</time>
      </trkpt>
      <trkpt lat="46.35937" lon="2.62286">
        <ele>258.6</ele>
        <time>2020-07-12T05:35:09Z</time>
      </trkpt>
      <trkpt lat="46.35939" lon="2.62279">
        <ele>258.4</ele>
        <time>2020-07-12T05:35:10Z</time>
      </trkpt>
      <trkpt lat="46.35941" lon="2.62271">
        <ele>258.2</ele>
        <time>2020-07-12T05:35:11Z</time>
      </trkpt>
      <trkpt lat="46.35942" lon="2.62263">
        <ele>258</ele>
        <time>2020-07-12T05:35:12Z</time>
      </trkpt>
      <trkpt lat="46.35945" lon="2.62255">
        <ele>257.8</ele>
        <time>2020-07-12T05:35:13Z</time>
      </trkpt>
      <trkpt lat="46.35947" lon="2.62247">
        <ele>257.6</ele>
        <time>2020-07-12T05:35:14Z</time>
      </trkpt>
      <trkpt lat="46.3595" lon="2.62239">
        <ele>257.5</ele>
        <time>2020-07-12T05:35:15Z</time>
      </trkpt>
      <trkpt lat="46.35953" lon="2.62231">
        <ele>257.3</ele>
        <time>2020-07-12T05:35:16Z</time>
      </trkpt>
      <trkpt lat="46.35955" lon="2.62223">
        <ele>257.1</ele>
        <time>2020-07-12T05:35:17Z</time>
      </trkpt>
      <trkpt lat="46.35959" lon="2.62215">
        <ele>256.8</ele>
        <time>2020-07-12T05:35:18Z</time>
      </trkpt>
      <trkpt lat="46.35962" lon="2.62208">
        <ele>256.6</ele>
        <time>2020-07-12T05:35:19Z</time>
      </trkpt>
      <trkpt lat="46.35966" lon="2.622">
        <ele>256.3</ele>
        <time>2020-07-12T05:35:20Z</time>
      </trkpt>
      <trkpt lat="46.35969" lon="2.62192">
        <ele>256.1</ele>
        <time>2020-07-12T05:35:21Z</time>
      </trkpt>
      <trkpt lat="46.35972" lon="2.62183">
        <ele>255.8</ele>
        <time>2020-07-12T05:35:22Z</time>
      </trkpt>
      <trkpt lat="46.35975" lon="2.62174">
        <ele>255.5</ele>
        <time>2020-07-12T05:35:23Z</time>
      </trkpt>
      <trkpt lat="46.35977" lon="2.62165">
        <ele>255.3</ele>
        <time>2020-07-12T05:35:24Z</time>
      </trkpt>
      <trkpt lat="46.35979" lon="2.62155">
        <ele>255</ele>
        <time>2020-07-12T05:35:25Z</time>
      </trkpt>
      <trkpt lat="46.3598" lon="2.62145">
        <ele>254.7</ele>
        <time>2020-07-12T05:35:26Z</time>
      </trkpt>
      <trkpt lat="46.35981" lon="2.62134">
        <ele>254.5</ele>
        <time>2020-07-12T05:35:27Z</time>
      </trkpt>
      <trkpt lat="46.35981" lon="2.62123">
        <ele>254.2</ele>
        <time>2020-07-12T05:35:28Z</time>
      </trkpt>
      <trkpt lat="46.35981" lon="2.62112">
        <ele>254</ele>
        <time>2020-07-12T05:35:29Z</time>
      </trkpt>
      <trkpt lat="46.35979" lon="2.62101">
        <ele>253.7</ele>
        <time>2020-07-12T05:35:30Z</time>
      </trkpt>
      <trkpt lat="46.35978" lon="2.62091">
        <ele>253.5</ele>
        <time>2020-07-12T05:35:31Z</time>
      </trkpt>
      <trkpt lat="46.35977" lon="2.62083">
        <ele>253.2</ele>
        <time>2020-07-12T05:35:32Z</time>
      </trkpt>
      <trkpt lat="46.35979" lon="2.62074">
        <ele>252.6</ele>
        <time>2020-07-12T05:35:34Z</time>
      </trkpt>
      <trkpt lat="46.35986" lon="2.62071">
        <ele>251.9</ele>
        <time>2020-07-12T05:35:36Z</time>
      </trkpt>
      <trkpt lat="46.3599" lon="2.62067">
        <ele>251.4</ele>
        <time>2020-07-12T05:35:37Z</time>
      </trkpt>
      <trkpt lat="46.35994" lon="2.62064">
        <ele>250.6</ele>
        <time>2020-07-12T05:35:38Z</time>
      </trkpt>
      <trkpt lat="46.36" lon="2.62062">
        <ele>249.8</ele>
        <time>2020-07-12T05:35:39Z</time>
      </trkpt>
      <trkpt lat="46.36006" lon="2.6206">
        <ele>248.9</ele>
        <time>2020-07-12T05:35:40Z</time>
      </trkpt>
      <trkpt lat="46.36012" lon="2.62059">
        <ele>248</ele>
        <time>2020-07-12T05:35:41Z</time>
      </trkpt>
      <trkpt lat="46.36021" lon="2.62058">
        <ele>246.2</ele>
        <time>2020-07-12T05:35:43Z</time>
      </trkpt>
      <trkpt lat="46.36028" lon="2.62055">
        <ele>242</ele>
        <time>2020-07-12T05:35:48Z</time>
      </trkpt>
      <trkpt lat="46.36031" lon="2.62048">
        <ele>239.9</ele>
        <time>2020-07-12T05:35:50Z</time>
      </trkpt>
      <trkpt lat="46.36031" lon="2.62043">
        <ele>238.9</ele>
        <time>2020-07-12T05:35:51Z</time>
      </trkpt>
      <trkpt lat="46.36037" lon="2.62026">
        <ele>236.9</ele>
        <time>2020-07-12T05:35:54Z</time>
      </trkpt>
      <trkpt lat="46.36045" lon="2.62019">
        <ele>236.1</ele>
        <time>2020-07-12T05:35:56Z</time>
      </trkpt>
      <trkpt lat="46.3605" lon="2.62018">
        <ele>235.9</ele>
        <time>2020-07-12T05:35:57Z</time>
      </trkpt>
      <trkpt lat="46.36055" lon="2.62018">
        <ele>235.9</ele>
        <time>2020-07-12T05:35:58Z</time>
      </trkpt>
      <trkpt lat="46.3606" lon="2.6202">
        <ele>236.1</ele>
        <time>2020-07-12T05:35:59Z</time>
      </trkpt>
      <trkpt lat="46.36064" lon="2.62023">
        <ele>236.3</ele>
        <time>2020-07-12T05:36:00Z</time>
      </trkpt>
      <trkpt lat="46.3607" lon="2.62025">
        <ele>236.6</ele>
        <time>2020-07-12T05:36:01Z</time>
      </trkpt>
      <trkpt lat="46.36078" lon="2.62025">
        <ele>238.8</ele>
        <time>2020-07-12T05:36:05Z</time>
      </trkpt>
      <trkpt lat="46.36086" lon="2.62024">
        <ele>242.2</ele>
        <time>2020-07-12T05:36:11Z</time>
      </trkpt>
      <trkpt lat="46.36094" lon="2.62024">
        <ele>245.1</ele>
        <time>2020-07-12T05:36:17Z</time>
      </trkpt>
      <trkpt lat="46.36102" lon="2.62022">
        <ele>247.8</ele>
        <time>2020-07-12T05:36:25Z</time>
      </trkpt>
      <trkpt lat="46.3611" lon="2.62024">
        <ele>248.7</ele>
        <time>2020-07-12T05:36:30Z</time>
      </trkpt>
      <trkpt lat="46.36116" lon="2.62029">
        <ele>249.7</ele>
        <time>2020-07-12T05:36:33Z</time>
      </trkpt>
      <trkpt lat="46.36123" lon="2.62036">
        <ele>250.9</ele>
        <time>2020-07-12T05:36:36Z</time>
      </trkpt>
      <trkpt lat="46.36129" lon="2.6204">
        <ele>252</ele>
        <time>2020-07-12T05:36:39Z</time>
      </trkpt>
      <trkpt lat="46.36136" lon="2.62045">
        <ele>253.3</ele>
        <time>2020-07-12T05:36:43Z</time>
      </trkpt>
      <trkpt lat="46.36143" lon="2.62046">
        <ele>254.7</ele>
        <time>2020-07-12T05:36:48Z</time>
      </trkpt>
      <trkpt lat="46.36152" lon="2.62048">
        <ele>255.5</ele>
        <time>2020-07-12T05:36:52Z</time>
      </trkpt>
      <trkpt lat="46.36154" lon="2.62049">
        <ele>255.7</ele>
        <time>2020-07-12T05:36:53Z</time>
      </trkpt>
      <trkpt lat="46.36166" lon="2.62053">
        <ele>256.2</ele>
        <time>2020-07-12T05:36:57Z</time>
      </trkpt>
      <trkpt lat="46.36173" lon="2.62056">
        <ele>256.3</ele>
        <time>2020-07-12T05:36:59Z</time>
      </trkpt>
      <trkpt lat="46.36179" lon="2.62059">
        <ele>256.4</ele>
        <time>2020-07-12T05:37:01Z</time>
      </trkpt>
      <trkpt lat="46.36184" lon="2.62052">
        <ele>256.4</ele>
        <time>2020-07-12T05:37:03Z</time>
      </trkpt>
      <trkpt lat="46.36189" lon="2.62042">
        <ele>256.4</ele>
        <time>2020-07-12T05:37:05Z</time>
      </trkpt>
      <trkpt lat="46.36191" lon="2.62037">
        <ele>256.4</ele>
        <time>2020-07-12T05:37:06Z</time>
      </trkpt>
      <trkpt lat="46.36194" lon="2.62032">
        <ele>256.3</ele>
        <time>2020-07-12T05:37:07Z</time>
      </trkpt>
      <trkpt lat="46.36197" lon="2.62026">
        <ele>256.2</ele>
        <time>2020-07-12T05:37:08Z</time>
      </trkpt>
      <trkpt lat="46.36199" lon="2.62021">
        <ele>256.1</ele>
        <time>2020-07-12T05:37:09Z</time>
      </trkpt>
      <trkpt lat="46.36202" lon="2.62015">
        <ele>256</ele>
        <time>2020-07-12T05:37:10Z</time>
      </trkpt>
      <trkpt lat="46.36204" lon="2.62009">
        <ele>255.9</ele>
        <time>2020-07-12T05:37:11Z</time>
      </trkpt>
      <trkpt lat="46.36207" lon="2.62003">
        <ele>255.8</ele>
        <time>2020-07-12T05:37:12Z</time>
      </trkpt>
      <trkpt lat="46.3621" lon="2.61997">
        <ele>255.7</ele>
        <time>2020-07-12T05:37:13Z</time>
      </trkpt>
      <trkpt lat="46.36212" lon="2.61992">
        <ele>255.6</ele>
        <time>2020-07-12T05:37:14Z</time>
      </trkpt>
      <trkpt lat="46.36215" lon="2.61987">
        <ele>255.6</ele>
        <time>2020-07-12T05:37:15Z</time>
      </trkpt>
      <trkpt lat="46.36222" lon="2.61979">
        <ele>255.5</ele>
        <time>2020-07-12T05:37:17Z</time>
      </trkpt>
      <trkpt lat="46.3623" lon="2.61977">
        <ele>255.7</ele>
        <time>2020-07-12T05:37:19Z</time>
      </trkpt>
      <trkpt lat="46.36238" lon="2.61978">
        <ele>256.2</ele>
        <time>2020-07-12T05:37:21Z</time>
      </trkpt>
      <trkpt lat="46.36246" lon="2.61982">
        <ele>256.7</ele>
        <time>2020-07-12T05:37:23Z</time>
      </trkpt>
      <trkpt lat="46.36254" lon="2.61986">
        <ele>257.3</ele>
        <time>2020-07-12T05:37:25Z</time>
      </trkpt>
      <trkpt lat="46.36263" lon="2.61991">
        <ele>257.8</ele>
        <time>2020-07-12T05:37:27Z</time>
      </trkpt>
      <trkpt lat="46.36271" lon="2.61995">
        <ele>258.3</ele>
        <time>2020-07-12T05:37:29Z</time>
      </trkpt>
      <trkpt lat="46.36278" lon="2.62001">
        <ele>258.9</ele>
        <time>2020-07-12T05:37:31Z</time>
      </trkpt>
      <trkpt lat="46.36286" lon="2.62007">
        <ele>259.6</ele>
        <time>2020-07-12T05:37:33Z</time>
      </trkpt>
      <trkpt lat="46.36291" lon="2.62009">
        <ele>259.9</ele>
        <time>2020-07-12T05:37:34Z</time>
      </trkpt>
      <trkpt lat="46.36295" lon="2.62012">
        <ele>260.3</ele>
        <time>2020-07-12T05:37:35Z</time>
      </trkpt>
      <trkpt lat="46.36299" lon="2.62015">
        <ele>260.6</ele>
        <time>2020-07-12T05:37:36Z</time>
      </trkpt>
      <trkpt lat="46.36307" lon="2.62021">
        <ele>261.2</ele>
        <time>2020-07-12T05:37:38Z</time>
      </trkpt>
      <trkpt lat="46.36314" lon="2.62027">
        <ele>261.7</ele>
        <time>2020-07-12T05:37:40Z</time>
      </trkpt>
      <trkpt lat="46.36318" lon="2.62029">
        <ele>262</ele>
        <time>2020-07-12T05:37:41Z</time>
      </trkpt>
      <trkpt lat="46.36323" lon="2.62032">
        <ele>262.2</ele>
        <time>2020-07-12T05:37:42Z</time>
      </trkpt>
      <trkpt lat="46.36328" lon="2.62035">
        <ele>262.4</ele>
        <time>2020-07-12T05:37:43Z</time>
      </trkpt>
      <trkpt lat="46.36332" lon="2.62038">
        <ele>262.5</ele>
        <time>2020-07-12T05:37:44Z</time>
      </trkpt>
      <trkpt lat="46.36336" lon="2.62041">
        <ele>262.6</ele>
        <time>2020-07-12T05:37:45Z</time>
      </trkpt>
      <trkpt lat="46.36341" lon="2.62044">
        <ele>262.7</ele>
        <time>2020-07-12T05:37:46Z</time>
      </trkpt>
      <trkpt lat="46.36346" lon="2.62047">
        <ele>262.7</ele>
        <time>2020-07-12T05:37:47Z</time>
      </trkpt>
      <trkpt lat="46.36351" lon="2.6205">
        <ele>262.8</ele>
        <time>2020-07-12T05:37:48Z</time>
      </trkpt>
      <trkpt lat="46.36355" lon="2.62053">
        <ele>262.9</ele>
        <time>2020-07-12T05:37:49Z</time>
      </trkpt>
      <trkpt lat="46.36359" lon="2.62056">
        <ele>263</ele>
        <time>2020-07-12T05:37:50Z</time>
      </trkpt>
      <trkpt lat="46.36364" lon="2.62059">
        <ele>263</ele>
        <time>2020-07-12T05:37:51Z</time>
      </trkpt>
      <trkpt lat="46.36369" lon="2.62062">
        <ele>263.1</ele>
        <time>2020-07-12T05:37:52Z</time>
      </trkpt>
      <trkpt lat="46.36374" lon="2.62065">
        <ele>263.2</ele>
        <time>2020-07-12T05:37:53Z</time>
      </trkpt>
      <trkpt lat="46.36378" lon="2.62069">
        <ele>263.3</ele>
        <time>2020-07-12T05:37:54Z</time>
      </trkpt>
      <trkpt lat="46.36383" lon="2.62072">
        <ele>263.3</ele>
        <time>2020-07-12T05:37:55Z</time>
      </trkpt>
      <trkpt lat="46.36388" lon="2.62075">
        <ele>263.4</ele>
        <time>2020-07-12T05:37:56Z</time>
      </trkpt>
      <trkpt lat="46.36393" lon="2.62078">
        <ele>263.4</ele>
        <time>2020-07-12T05:37:57Z</time>
      </trkpt>
      <trkpt lat="46.36398" lon="2.62082">
        <ele>263.5</ele>
        <time>2020-07-12T05:37:58Z</time>
      </trkpt>
      <trkpt lat="46.36402" lon="2.62085">
        <ele>263.7</ele>
        <time>2020-07-12T05:37:59Z</time>
      </trkpt>
      <trkpt lat="46.36407" lon="2.62088">
        <ele>263.9</ele>
        <time>2020-07-12T05:38:00Z</time>
      </trkpt>
      <trkpt lat="46.36412" lon="2.62091">
        <ele>264.2</ele>
        <time>2020-07-12T05:38:01Z</time>
      </trkpt>
      <trkpt lat="46.36418" lon="2.62095">
        <ele>264.6</ele>
        <time>2020-07-12T05:38:02Z</time>
      </trkpt>
      <trkpt lat="46.36423" lon="2.62098">
        <ele>264.9</ele>
        <time>2020-07-12T05:38:03Z</time>
      </trkpt>
      <trkpt lat="46.36428" lon="2.62101">
        <ele>265.3</ele>
        <time>2020-07-12T05:38:04Z</time>
      </trkpt>
      <trkpt lat="46.36433" lon="2.62104">
        <ele>265.7</ele>
        <time>2020-07-12T05:38:05Z</time>
      </trkpt>
      <trkpt lat="46.36437" lon="2.62107">
        <ele>266.1</ele>
        <time>2020-07-12T05:38:06Z</time>
      </trkpt>
      <trkpt lat="46.36442" lon="2.62109">
        <ele>266.4</ele>
        <time>2020-07-12T05:38:07Z</time>
      </trkpt>
      <trkpt lat="46.36446" lon="2.62113">
        <ele>266.8</ele>
        <time>2020-07-12T05:38:08Z</time>
      </trkpt>
      <trkpt lat="46.36451" lon="2.62116">
        <ele>267.2</ele>
        <time>2020-07-12T05:38:09Z</time>
      </trkpt>
      <trkpt lat="46.36456" lon="2.62119">
        <ele>267.5</ele>
        <time>2020-07-12T05:38:10Z</time>
      </trkpt>
      <trkpt lat="46.36461" lon="2.62122">
        <ele>267.8</ele>
        <time>2020-07-12T05:38:11Z</time>
      </trkpt>
      <trkpt lat="46.36466" lon="2.62125">
        <ele>268</ele>
        <time>2020-07-12T05:38:12Z</time>
      </trkpt>
      <trkpt lat="46.3647" lon="2.62128">
        <ele>268.2</ele>
        <time>2020-07-12T05:38:13Z</time>
      </trkpt>
      <trkpt lat="46.36475" lon="2.62131">
        <ele>268.3</ele>
        <time>2020-07-12T05:38:14Z</time>
      </trkpt>
      <trkpt lat="46.3648" lon="2.62134">
        <ele>268.4</ele>
        <time>2020-07-12T05:38:15Z</time>
      </trkpt>
      <trkpt lat="46.36485" lon="2.62137">
        <ele>268.4</ele>
        <time>2020-07-12T05:38:16Z</time>
      </trkpt>
      <trkpt lat="46.3649" lon="2.6214">
        <ele>268.3</ele>
        <time>2020-07-12T05:38:17Z</time>
      </trkpt>
      <trkpt lat="46.36495" lon="2.62142">
        <ele>268.2</ele>
        <time>2020-07-12T05:38:18Z</time>
      </trkpt>
      <trkpt lat="46.365" lon="2.62146">
        <ele>268.1</ele>
        <time>2020-07-12T05:38:19Z</time>
      </trkpt>
      <trkpt lat="46.36504" lon="2.62149">
        <ele>268</ele>
        <time>2020-07-12T05:38:20Z</time>
      </trkpt>
      <trkpt lat="46.36509" lon="2.62152">
        <ele>267.8</ele>
        <time>2020-07-12T05:38:21Z</time>
      </trkpt>
      <trkpt lat="46.36514" lon="2.62155">
        <ele>267.7</ele>
        <time>2020-07-12T05:38:22Z</time>
      </trkpt>
      <trkpt lat="46.36519" lon="2.62159">
        <ele>267.6</ele>
        <time>2020-07-12T05:38:23Z</time>
      </trkpt>
      <trkpt lat="46.36525" lon="2.62162">
        <ele>267.5</ele>
        <time>2020-07-12T05:38:24Z</time>
      </trkpt>
      <trkpt lat="46.3653" lon="2.62165">
        <ele>267.3</ele>
        <time>2020-07-12T05:38:25Z</time>
      </trkpt>
      <trkpt lat="46.36535" lon="2.62169">
        <ele>267.2</ele>
        <time>2020-07-12T05:38:26Z</time>
      </trkpt>
      <trkpt lat="46.3654" lon="2.62172">
        <ele>267</ele>
        <time>2020-07-12T05:38:27Z</time>
      </trkpt>
      <trkpt lat="46.36545" lon="2.62175">
        <ele>266.9</ele>
        <time>2020-07-12T05:38:28Z</time>
      </trkpt>
      <trkpt lat="46.3655" lon="2.62178">
        <ele>266.8</ele>
        <time>2020-07-12T05:38:29Z</time>
      </trkpt>
      <trkpt lat="46.36555" lon="2.62182">
        <ele>266.6</ele>
        <time>2020-07-12T05:38:30Z</time>
      </trkpt>
      <trkpt lat="46.3656" lon="2.62185">
        <ele>266.4</ele>
        <time>2020-07-12T05:38:31Z</time>
      </trkpt>
      <trkpt lat="46.36565" lon="2.62189">
        <ele>266.2</ele>
        <time>2020-07-12T05:38:32Z</time>
      </trkpt>
      <trkpt lat="46.3657" lon="2.62192">
        <ele>266</ele>
        <time>2020-07-12T05:38:33Z</time>
      </trkpt>
      <trkpt lat="46.36576" lon="2.62196">
        <ele>265.8</ele>
        <time>2020-07-12T05:38:34Z</time>
      </trkpt>
      <trkpt lat="46.36581" lon="2.622">
        <ele>265.6</ele>
        <time>2020-07-12T05:38:35Z</time>
      </trkpt>
      <trkpt lat="46.36587" lon="2.62203">
        <ele>265.4</ele>
        <time>2020-07-12T05:38:36Z</time>
      </trkpt>
      <trkpt lat="46.36592" lon="2.62207">
        <ele>265.2</ele>
        <time>2020-07-12T05:38:37Z</time>
      </trkpt>
      <trkpt lat="46.36597" lon="2.6221">
        <ele>265</ele>
        <time>2020-07-12T05:38:38Z</time>
      </trkpt>
      <trkpt lat="46.36603" lon="2.62214">
        <ele>264.8</ele>
        <time>2020-07-12T05:38:39Z</time>
      </trkpt>
      <trkpt lat="46.36608" lon="2.62217">
        <ele>264.5</ele>
        <time>2020-07-12T05:38:40Z</time>
      </trkpt>
      <trkpt lat="46.36613" lon="2.62221">
        <ele>264.3</ele>
        <time>2020-07-12T05:38:41Z</time>
      </trkpt>
      <trkpt lat="46.36618" lon="2.62224">
        <ele>264.1</ele>
        <time>2020-07-12T05:38:42Z</time>
      </trkpt>
      <trkpt lat="46.36623" lon="2.62228">
        <ele>263.9</ele>
        <time>2020-07-12T05:38:43Z</time>
      </trkpt>
      <trkpt lat="46.36629" lon="2.62231">
        <ele>263.8</ele>
        <time>2020-07-12T05:38:44Z</time>
      </trkpt>
      <trkpt lat="46.36634" lon="2.62234">
        <ele>263.7</ele>
        <time>2020-07-12T05:38:45Z</time>
      </trkpt>
      <trkpt lat="46.3664" lon="2.62238">
        <ele>263.6</ele>
        <time>2020-07-12T05:38:46Z</time>
      </trkpt>
      <trkpt lat="46.36646" lon="2.62242">
        <ele>263.4</ele>
        <time>2020-07-12T05:38:47Z</time>
      </trkpt>
      <trkpt lat="46.36651" lon="2.62246">
        <ele>263.3</ele>
        <time>2020-07-12T05:38:48Z</time>
      </trkpt>
      <trkpt lat="46.36657" lon="2.62249">
        <ele>263.2</ele>
        <time>2020-07-12T05:38:49Z</time>
      </trkpt>
      <trkpt lat="46.36662" lon="2.62253">
        <ele>263.1</ele>
        <time>2020-07-12T05:38:50Z</time>
      </trkpt>
      <trkpt lat="46.36667" lon="2.62257">
        <ele>262.9</ele>
        <time>2020-07-12T05:38:51Z</time>
      </trkpt>
      <trkpt lat="46.36672" lon="2.6226">
        <ele>262.8</ele>
        <time>2020-07-12T05:38:52Z</time>
      </trkpt>
      <trkpt lat="46.36678" lon="2.62264">
        <ele>262.7</ele>
        <time>2020-07-12T05:38:53Z</time>
      </trkpt>
      <trkpt lat="46.36683" lon="2.62267">
        <ele>262.5</ele>
        <time>2020-07-12T05:38:54Z</time>
      </trkpt>
      <trkpt lat="46.36688" lon="2.62271">
        <ele>262.4</ele>
        <time>2020-07-12T05:38:55Z</time>
      </trkpt>
      <trkpt lat="46.36693" lon="2.62274">
        <ele>262.2</ele>
        <time>2020-07-12T05:38:56Z</time>
      </trkpt>
      <trkpt lat="46.36698" lon="2.62278">
        <ele>262</ele>
        <time>2020-07-12T05:38:57Z</time>
      </trkpt>
      <trkpt lat="46.36704" lon="2.62281">
        <ele>261.9</ele>
        <time>2020-07-12T05:38:58Z</time>
      </trkpt>
      <trkpt lat="46.36709" lon="2.62285">
        <ele>261.7</ele>
        <time>2020-07-12T05:38:59Z</time>
      </trkpt>
      <trkpt lat="46.36714" lon="2.62288">
        <ele>261.5</ele>
        <time>2020-07-12T05:39:00Z</time>
      </trkpt>
      <trkpt lat="46.36719" lon="2.62292">
        <ele>261.3</ele>
        <time>2020-07-12T05:39:01Z</time>
      </trkpt>
      <trkpt lat="46.36725" lon="2.62295">
        <ele>261.1</ele>
        <time>2020-07-12T05:39:02Z</time>
      </trkpt>
      <trkpt lat="46.3673" lon="2.62299">
        <ele>260.9</ele>
        <time>2020-07-12T05:39:03Z</time>
      </trkpt>
      <trkpt lat="46.36736" lon="2.62302">
        <ele>260.7</ele>
        <time>2020-07-12T05:39:04Z</time>
      </trkpt>
      <trkpt lat="46.36741" lon="2.62305">
        <ele>260.5</ele>
        <time>2020-07-12T05:39:05Z</time>
      </trkpt>
      <trkpt lat="46.36747" lon="2.62309">
        <ele>260.3</ele>
        <time>2020-07-12T05:39:06Z</time>
      </trkpt>
      <trkpt lat="46.36752" lon="2.62313">
        <ele>260.1</ele>
        <time>2020-07-12T05:39:07Z</time>
      </trkpt>
      <trkpt lat="46.36758" lon="2.62316">
        <ele>259.9</ele>
        <time>2020-07-12T05:39:08Z</time>
      </trkpt>
      <trkpt lat="46.36763" lon="2.62319">
        <ele>259.7</ele>
        <time>2020-07-12T05:39:09Z</time>
      </trkpt>
      <trkpt lat="46.36768" lon="2.62323">
        <ele>259.6</ele>
        <time>2020-07-12T05:39:10Z</time>
      </trkpt>
      <trkpt lat="46.36774" lon="2.62326">
        <ele>259.4</ele>
        <time>2020-07-12T05:39:11Z</time>
      </trkpt>
      <trkpt lat="46.36779" lon="2.6233">
        <ele>259.2</ele>
        <time>2020-07-12T05:39:12Z</time>
      </trkpt>
      <trkpt lat="46.36784" lon="2.62333">
        <ele>259</ele>
        <time>2020-07-12T05:39:13Z</time>
      </trkpt>
      <trkpt lat="46.36789" lon="2.62336">
        <ele>258.8</ele>
        <time>2020-07-12T05:39:14Z</time>
      </trkpt>
      <trkpt lat="46.36794" lon="2.6234">
        <ele>258.6</ele>
        <time>2020-07-12T05:39:15Z</time>
      </trkpt>
      <trkpt lat="46.36799" lon="2.62343">
        <ele>258.5</ele>
        <time>2020-07-12T05:39:16Z</time>
      </trkpt>
      <trkpt lat="46.36805" lon="2.62347">
        <ele>258.3</ele>
        <time>2020-07-12T05:39:17Z</time>
      </trkpt>
      <trkpt lat="46.3681" lon="2.6235">
        <ele>258.1</ele>
        <time>2020-07-12T05:39:18Z</time>
      </trkpt>
      <trkpt lat="46.36815" lon="2.62354">
        <ele>258</ele>
        <time>2020-07-12T05:39:19Z</time>
      </trkpt>
      <trkpt lat="46.3682" lon="2.62357">
        <ele>257.8</ele>
        <time>2020-07-12T05:39:20Z</time>
      </trkpt>
      <trkpt lat="46.36825" lon="2.6236">
        <ele>257.7</ele>
        <time>2020-07-12T05:39:21Z</time>
      </trkpt>
      <trkpt lat="46.3683" lon="2.62364">
        <ele>257.5</ele>
        <time>2020-07-12T05:39:22Z</time>
      </trkpt>
      <trkpt lat="46.36836" lon="2.62367">
        <ele>257.4</ele>
        <time>2020-07-12T05:39:23Z</time>
      </trkpt>
      <trkpt lat="46.36841" lon="2.62368">
        <ele>257.4</ele>
        <time>2020-07-12T05:39:24Z</time>
      </trkpt>
      <trkpt lat="46.36847" lon="2.62368">
        <ele>257.3</ele>
        <time>2020-07-12T05:39:25Z</time>
      </trkpt>
      <trkpt lat="46.36852" lon="2.62367">
        <ele>257.2</ele>
        <time>2020-07-12T05:39:26Z</time>
      </trkpt>
      <trkpt lat="46.36858" lon="2.62365">
        <ele>257.2</ele>
        <time>2020-07-12T05:39:27Z</time>
      </trkpt>
      <trkpt lat="46.36863" lon="2.62362">
        <ele>257.1</ele>
        <time>2020-07-12T05:39:28Z</time>
      </trkpt>
      <trkpt lat="46.36869" lon="2.62361">
        <ele>257</ele>
        <time>2020-07-12T05:39:29Z</time>
      </trkpt>
      <trkpt lat="46.36875" lon="2.62361">
        <ele>256.9</ele>
        <time>2020-07-12T05:39:30Z</time>
      </trkpt>
      <trkpt lat="46.36881" lon="2.62361">
        <ele>256.8</ele>
        <time>2020-07-12T05:39:31Z</time>
      </trkpt>
      <trkpt lat="46.36887" lon="2.6236">
        <ele>256.7</ele>
        <time>2020-07-12T05:39:32Z</time>
      </trkpt>
      <trkpt lat="46.36893" lon="2.62359">
        <ele>256.6</ele>
        <time>2020-07-12T05:39:33Z</time>
      </trkpt>
      <trkpt lat="46.36899" lon="2.62357">
        <ele>256.6</ele>
        <time>2020-07-12T05:39:34Z</time>
      </trkpt>
      <trkpt lat="46.36904" lon="2.62354">
        <ele>256.5</ele>
        <time>2020-07-12T05:39:35Z</time>
      </trkpt>
      <trkpt lat="46.3691" lon="2.62351">
        <ele>256.4</ele>
        <time>2020-07-12T05:39:36Z</time>
      </trkpt>
      <trkpt lat="46.36916" lon="2.62347">
        <ele>256.3</ele>
        <time>2020-07-12T05:39:37Z</time>
      </trkpt>
      <trkpt lat="46.36921" lon="2.62344">
        <ele>256.2</ele>
        <time>2020-07-12T05:39:38Z</time>
      </trkpt>
      <trkpt lat="46.36927" lon="2.62341">
        <ele>256.1</ele>
        <time>2020-07-12T05:39:39Z</time>
      </trkpt>
      <trkpt lat="46.36933" lon="2.62338">
        <ele>255.9</ele>
        <time>2020-07-12T05:39:40Z</time>
      </trkpt>
      <trkpt lat="46.36938" lon="2.62335">
        <ele>255.8</ele>
        <time>2020-07-12T05:39:41Z</time>
      </trkpt>
      <trkpt lat="46.36944" lon="2.62332">
        <ele>255.6</ele>
        <time>2020-07-12T05:39:42Z</time>
      </trkpt>
      <trkpt lat="46.3695" lon="2.62329">
        <ele>255.5</ele>
        <time>2020-07-12T05:39:43Z</time>
      </trkpt>
      <trkpt lat="46.36956" lon="2.62326">
        <ele>255.3</ele>
        <time>2020-07-12T05:39:44Z</time>
      </trkpt>
      <trkpt lat="46.36962" lon="2.62325">
        <ele>255.1</ele>
        <time>2020-07-12T05:39:45Z</time>
      </trkpt>
      <trkpt lat="46.36968" lon="2.62322">
        <ele>254.9</ele>
        <time>2020-07-12T05:39:46Z</time>
      </trkpt>
      <trkpt lat="46.36973" lon="2.62318">
        <ele>254.7</ele>
        <time>2020-07-12T05:39:47Z</time>
      </trkpt>
      <trkpt lat="46.36979" lon="2.62314">
        <ele>254.4</ele>
        <time>2020-07-12T05:39:48Z</time>
      </trkpt>
      <trkpt lat="46.36985" lon="2.6231">
        <ele>254.2</ele>
        <time>2020-07-12T05:39:49Z</time>
      </trkpt>
      <trkpt lat="46.36991" lon="2.62308">
        <ele>254</ele>
        <time>2020-07-12T05:39:50Z</time>
      </trkpt>
      <trkpt lat="46.36997" lon="2.62305">
        <ele>253.9</ele>
        <time>2020-07-12T05:39:51Z</time>
      </trkpt>
      <trkpt lat="46.37003" lon="2.62301">
        <ele>253.7</ele>
        <time>2020-07-12T05:39:52Z</time>
      </trkpt>
      <trkpt lat="46.37009" lon="2.62298">
        <ele>253.5</ele>
        <time>2020-07-12T05:39:53Z</time>
      </trkpt>
      <trkpt lat="46.37016" lon="2.62296">
        <ele>253.3</ele>
        <time>2020-07-12T05:39:54Z</time>
      </trkpt>
      <trkpt lat="46.37022" lon="2.62293">
        <ele>253.2</ele>
        <time>2020-07-12T05:39:55Z</time>
      </trkpt>
      <trkpt lat="46.37028" lon="2.6229">
        <ele>253</ele>
        <time>2020-07-12T05:39:56Z</time>
      </trkpt>
      <trkpt lat="46.37034" lon="2.62286">
        <ele>252.9</ele>
        <time>2020-07-12T05:39:57Z</time>
      </trkpt>
      <trkpt lat="46.37039" lon="2.62283">
        <ele>252.7</ele>
        <time>2020-07-12T05:39:58Z</time>
      </trkpt>
      <trkpt lat="46.37045" lon="2.6228">
        <ele>252.6</ele>
        <time>2020-07-12T05:39:59Z</time>
      </trkpt>
      <trkpt lat="46.3705" lon="2.62277">
        <ele>252.5</ele>
        <time>2020-07-12T05:40:00Z</time>
      </trkpt>
      <trkpt lat="46.37056" lon="2.62274">
        <ele>252.4</ele>
        <time>2020-07-12T05:40:01Z</time>
      </trkpt>
      <trkpt lat="46.37061" lon="2.62271">
        <ele>252.3</ele>
        <time>2020-07-12T05:40:02Z</time>
      </trkpt>
      <trkpt lat="46.37066" lon="2.62268">
        <ele>252.2</ele>
        <time>2020-07-12T05:40:03Z</time>
      </trkpt>
      <trkpt lat="46.37071" lon="2.62265">
        <ele>252.1</ele>
        <time>2020-07-12T05:40:04Z</time>
      </trkpt>
      <trkpt lat="46.37077" lon="2.62262">
        <ele>252</ele>
        <time>2020-07-12T05:40:05Z</time>
      </trkpt>
      <trkpt lat="46.37082" lon="2.62259">
        <ele>252</ele>
        <time>2020-07-12T05:40:06Z</time>
      </trkpt>
      <trkpt lat="46.37087" lon="2.62257">
        <ele>252</ele>
        <time>2020-07-12T05:40:07Z</time>
      </trkpt>
      <trkpt lat="46.37092" lon="2.62254">
        <ele>251.9</ele>
        <time>2020-07-12T05:40:08Z</time>
      </trkpt>
      <trkpt lat="46.37098" lon="2.62251">
        <ele>251.8</ele>
        <time>2020-07-12T05:40:09Z</time>
      </trkpt>
      <trkpt lat="46.37103" lon="2.62248">
        <ele>251.8</ele>
        <time>2020-07-12T05:40:10Z</time>
      </trkpt>
      <trkpt lat="46.37109" lon="2.62245">
        <ele>251.8</ele>
        <time>2020-07-12T05:40:11Z</time>
      </trkpt>
      <trkpt lat="46.37114" lon="2.62242">
        <ele>251.7</ele>
        <time>2020-07-12T05:40:12Z</time>
      </trkpt>
      <trkpt lat="46.3712" lon="2.62239">
        <ele>251.7</ele>
        <time>2020-07-12T05:40:13Z</time>
      </trkpt>
      <trkpt lat="46.37125" lon="2.62236">
        <ele>251.7</ele>
        <time>2020-07-12T05:40:14Z</time>
      </trkpt>
      <trkpt lat="46.3713" lon="2.62233">
        <ele>251.8</ele>
        <time>2020-07-12T05:40:15Z</time>
      </trkpt>
      <trkpt lat="46.37135" lon="2.6223">
        <ele>251.8</ele>
        <time>2020-07-12T05:40:16Z</time>
      </trkpt>
      <trkpt lat="46.37141" lon="2.62227">
        <ele>251.9</ele>
        <time>2020-07-12T05:40:17Z</time>
      </trkpt>
      <trkpt lat="46.37147" lon="2.62224">
        <ele>251.9</ele>
        <time>2020-07-12T05:40:18Z</time>
      </trkpt>
      <trkpt lat="46.37153" lon="2.62221">
        <ele>252</ele>
        <time>2020-07-12T05:40:19Z</time>
      </trkpt>
      <trkpt lat="46.37158" lon="2.62219">
        <ele>252</ele>
        <time>2020-07-12T05:40:20Z</time>
      </trkpt>
      <trkpt lat="46.37164" lon="2.62215">
        <ele>252.1</ele>
        <time>2020-07-12T05:40:21Z</time>
      </trkpt>
      <trkpt lat="46.3717" lon="2.62212">
        <ele>252.1</ele>
        <time>2020-07-12T05:40:22Z</time>
      </trkpt>
      <trkpt lat="46.37176" lon="2.62209">
        <ele>252.1</ele>
        <time>2020-07-12T05:40:23Z</time>
      </trkpt>
      <trkpt lat="46.37181" lon="2.62205">
        <ele>252.1</ele>
        <time>2020-07-12T05:40:24Z</time>
      </trkpt>
      <trkpt lat="46.37188" lon="2.62202">
        <ele>252.1</ele>
        <time>2020-07-12T05:40:25Z</time>
      </trkpt>
      <trkpt lat="46.37194" lon="2.62198">
        <ele>252.1</ele>
        <time>2020-07-12T05:40:26Z</time>
      </trkpt>
      <trkpt lat="46.372" lon="2.62195">
        <ele>252.1</ele>
        <time>2020-07-12T05:40:27Z</time>
      </trkpt>
      <trkpt lat="46.37206" lon="2.62191">
        <ele>252.2</ele>
        <time>2020-07-12T05:40:28Z</time>
      </trkpt>
      <trkpt lat="46.37211" lon="2.62188">
        <ele>252.3</ele>
        <time>2020-07-12T05:40:29Z</time>
      </trkpt>
      <trkpt lat="46.37217" lon="2.62184">
        <ele>252.4</ele>
        <time>2020-07-12T05:40:30Z</time>
      </trkpt>
      <trkpt lat="46.37223" lon="2.62181">
        <ele>252.5</ele>
        <time>2020-07-12T05:40:31Z</time>
      </trkpt>
      <trkpt lat="46.37229" lon="2.62178">
        <ele>252.6</ele>
        <time>2020-07-12T05:40:32Z</time>
      </trkpt>
      <trkpt lat="46.37235" lon="2.62174">
        <ele>252.7</ele>
        <time>2020-07-12T05:40:33Z</time>
      </trkpt>
      <trkpt lat="46.37241" lon="2.62171">
        <ele>252.8</ele>
        <time>2020-07-12T05:40:34Z</time>
      </trkpt>
      <trkpt lat="46.37247" lon="2.62169">
        <ele>252.9</ele>
        <time>2020-07-12T05:40:35Z</time>
      </trkpt>
      <trkpt lat="46.37252" lon="2.62166">
        <ele>253</ele>
        <time>2020-07-12T05:40:36Z</time>
      </trkpt>
      <trkpt lat="46.37258" lon="2.62163">
        <ele>253.1</ele>
        <time>2020-07-12T05:40:37Z</time>
      </trkpt>
      <trkpt lat="46.37263" lon="2.6216">
        <ele>253.1</ele>
        <time>2020-07-12T05:40:38Z</time>
      </trkpt>
      <trkpt lat="46.37268" lon="2.62158">
        <ele>253.2</ele>
        <time>2020-07-12T05:40:39Z</time>
      </trkpt>
      <trkpt lat="46.37273" lon="2.62155">
        <ele>253.4</ele>
        <time>2020-07-12T05:40:40Z</time>
      </trkpt>
      <trkpt lat="46.37278" lon="2.62152">
        <ele>253.5</ele>
        <time>2020-07-12T05:40:41Z</time>
      </trkpt>
      <trkpt lat="46.37283" lon="2.6215">
        <ele>253.6</ele>
        <time>2020-07-12T05:40:42Z</time>
      </trkpt>
      <trkpt lat="46.37289" lon="2.62147">
        <ele>253.8</ele>
        <time>2020-07-12T05:40:43Z</time>
      </trkpt>
      <trkpt lat="46.37294" lon="2.62144">
        <ele>254</ele>
        <time>2020-07-12T05:40:44Z</time>
      </trkpt>
      <trkpt lat="46.37299" lon="2.62142">
        <ele>254.1</ele>
        <time>2020-07-12T05:40:45Z</time>
      </trkpt>
      <trkpt lat="46.37304" lon="2.62139">
        <ele>254.2</ele>
        <time>2020-07-12T05:40:46Z</time>
      </trkpt>
      <trkpt lat="46.37309" lon="2.62136">
        <ele>254.3</ele>
        <time>2020-07-12T05:40:47Z</time>
      </trkpt>
      <trkpt lat="46.37314" lon="2.62133">
        <ele>254.4</ele>
        <time>2020-07-12T05:40:48Z</time>
      </trkpt>
      <trkpt lat="46.37319" lon="2.6213">
        <ele>254.5</ele>
        <time>2020-07-12T05:40:49Z</time>
      </trkpt>
      <trkpt lat="46.37324" lon="2.62128">
        <ele>254.5</ele>
        <time>2020-07-12T05:40:50Z</time>
      </trkpt>
      <trkpt lat="46.3733" lon="2.62125">
        <ele>254.6</ele>
        <time>2020-07-12T05:40:51Z</time>
      </trkpt>
      <trkpt lat="46.37335" lon="2.62122">
        <ele>254.6</ele>
        <time>2020-07-12T05:40:52Z</time>
      </trkpt>
      <trkpt lat="46.3734" lon="2.62119">
        <ele>254.6</ele>
        <time>2020-07-12T05:40:53Z</time>
      </trkpt>
      <trkpt lat="46.37345" lon="2.62116">
        <ele>254.6</ele>
        <time>2020-07-12T05:40:54Z</time>
      </trkpt>
      <trkpt lat="46.37351" lon="2.62113">
        <ele>254.6</ele>
        <time>2020-07-12T05:40:55Z</time>
      </trkpt>
      <trkpt lat="46.37356" lon="2.6211">
        <ele>254.6</ele>
        <time>2020-07-12T05:40:56Z</time>
      </trkpt>
      <trkpt lat="46.37361" lon="2.62107">
        <ele>254.6</ele>
        <time>2020-07-12T05:40:57Z</time>
      </trkpt>
      <trkpt lat="46.37367" lon="2.62104">
        <ele>254.6</ele>
        <time>2020-07-12T05:40:58Z</time>
      </trkpt>
      <trkpt lat="46.37372" lon="2.62101">
        <ele>254.6</ele>
        <time>2020-07-12T05:40:59Z</time>
      </trkpt>
      <trkpt lat="46.37378" lon="2.62098">
        <ele>254.6</ele>
        <time>2020-07-12T05:41:00Z</time>
      </trkpt>
      <trkpt lat="46.37383" lon="2.62094">
        <ele>254.6</ele>
        <time>2020-07-12T05:41:01Z</time>
      </trkpt>
      <trkpt lat="46.37388" lon="2.62091">
        <ele>254.6</ele>
        <time>2020-07-12T05:41:02Z</time>
      </trkpt>
      <trkpt lat="46.37393" lon="2.62088">
        <ele>254.6</ele>
        <time>2020-07-12T05:41:03Z</time>
      </trkpt>
      <trkpt lat="46.37398" lon="2.62085">
        <ele>254.6</ele>
        <time>2020-07-12T05:41:04Z</time>
      </trkpt>
      <trkpt lat="46.37403" lon="2.62082">
        <ele>254.5</ele>
        <time>2020-07-12T05:41:05Z</time>
      </trkpt>
      <trkpt lat="46.37408" lon="2.62079">
        <ele>254.5</ele>
        <time>2020-07-12T05:41:06Z</time>
      </trkpt>
      <trkpt lat="46.37414" lon="2.62076">
        <ele>254.4</ele>
        <time>2020-07-12T05:41:07Z</time>
      </trkpt>
      <trkpt lat="46.37419" lon="2.62073">
        <ele>254.4</ele>
        <time>2020-07-12T05:41:08Z</time>
      </trkpt>
      <trkpt lat="46.37425" lon="2.6207">
        <ele>254.3</ele>
        <time>2020-07-12T05:41:09Z</time>
      </trkpt>
      <trkpt lat="46.37431" lon="2.62067">
        <ele>254.3</ele>
        <time>2020-07-12T05:41:10Z</time>
      </trkpt>
      <trkpt lat="46.37436" lon="2.62063">
        <ele>254.2</ele>
        <time>2020-07-12T05:41:11Z</time>
      </trkpt>
      <trkpt lat="46.37441" lon="2.62058">
        <ele>254.1</ele>
        <time>2020-07-12T05:41:12Z</time>
      </trkpt>
      <trkpt lat="46.37445" lon="2.62053">
        <ele>253.9</ele>
        <time>2020-07-12T05:41:13Z</time>
      </trkpt>
      <trkpt lat="46.3745" lon="2.62048">
        <ele>253.8</ele>
        <time>2020-07-12T05:41:14Z</time>
      </trkpt>
      <trkpt lat="46.37455" lon="2.62045">
        <ele>253.6</ele>
        <time>2020-07-12T05:41:15Z</time>
      </trkpt>
      <trkpt lat="46.3746" lon="2.62041">
        <ele>253.4</ele>
        <time>2020-07-12T05:41:16Z</time>
      </trkpt>
      <trkpt lat="46.37466" lon="2.6204">
        <ele>253.2</ele>
        <time>2020-07-12T05:41:17Z</time>
      </trkpt>
      <trkpt lat="46.37471" lon="2.6204">
        <ele>253</ele>
        <time>2020-07-12T05:41:18Z</time>
      </trkpt>
      <trkpt lat="46.37477" lon="2.62038">
        <ele>252.9</ele>
        <time>2020-07-12T05:41:19Z</time>
      </trkpt>
      <trkpt lat="46.37482" lon="2.62036">
        <ele>252.7</ele>
        <time>2020-07-12T05:41:20Z</time>
      </trkpt>
      <trkpt lat="46.37487" lon="2.62033">
        <ele>252.5</ele>
        <time>2020-07-12T05:41:21Z</time>
      </trkpt>
      <trkpt lat="46.37493" lon="2.62031">
        <ele>252.3</ele>
        <time>2020-07-12T05:41:22Z</time>
      </trkpt>
      <trkpt lat="46.37498" lon="2.62029">
        <ele>252.1</ele>
        <time>2020-07-12T05:41:23Z</time>
      </trkpt>
      <trkpt lat="46.37503" lon="2.62027">
        <ele>252</ele>
        <time>2020-07-12T05:41:24Z</time>
      </trkpt>
      <trkpt lat="46.37508" lon="2.62024">
        <ele>251.8</ele>
        <time>2020-07-12T05:41:25Z</time>
      </trkpt>
      <trkpt lat="46.37514" lon="2.62021">
        <ele>251.7</ele>
        <time>2020-07-12T05:41:26Z</time>
      </trkpt>
      <trkpt lat="46.37519" lon="2.62018">
        <ele>251.6</ele>
        <time>2020-07-12T05:41:27Z</time>
      </trkpt>
      <trkpt lat="46.37525" lon="2.62015">
        <ele>251.5</ele>
        <time>2020-07-12T05:41:28Z</time>
      </trkpt>
      <trkpt lat="46.37531" lon="2.62011">
        <ele>251.4</ele>
        <time>2020-07-12T05:41:29Z</time>
      </trkpt>
      <trkpt lat="46.37536" lon="2.62008">
        <ele>251.2</ele>
        <time>2020-07-12T05:41:30Z</time>
      </trkpt>
      <trkpt lat="46.37542" lon="2.62005">
        <ele>251.1</ele>
        <time>2020-07-12T05:41:31Z</time>
      </trkpt>
      <trkpt lat="46.37548" lon="2.62002">
        <ele>251</ele>
        <time>2020-07-12T05:41:32Z</time>
      </trkpt>
      <trkpt lat="46.37554" lon="2.62">
        <ele>250.8</ele>
        <time>2020-07-12T05:41:33Z</time>
      </trkpt>
      <trkpt lat="46.3756" lon="2.61996">
        <ele>250.6</ele>
        <time>2020-07-12T05:41:34Z</time>
      </trkpt>
      <trkpt lat="46.37566" lon="2.61993">
        <ele>250.5</ele>
        <time>2020-07-12T05:41:35Z</time>
      </trkpt>
      <trkpt lat="46.37572" lon="2.61989">
        <ele>250.3</ele>
        <time>2020-07-12T05:41:36Z</time>
      </trkpt>
      <trkpt lat="46.37579" lon="2.61986">
        <ele>250.2</ele>
        <time>2020-07-12T05:41:37Z</time>
      </trkpt>
      <trkpt lat="46.37585" lon="2.61983">
        <ele>250</ele>
        <time>2020-07-12T05:41:38Z</time>
      </trkpt>
      <trkpt lat="46.37591" lon="2.61979">
        <ele>249.9</ele>
        <time>2020-07-12T05:41:39Z</time>
      </trkpt>
      <trkpt lat="46.37597" lon="2.61976">
        <ele>249.7</ele>
        <time>2020-07-12T05:41:40Z</time>
      </trkpt>
      <trkpt lat="46.37604" lon="2.61972">
        <ele>249.5</ele>
        <time>2020-07-12T05:41:41Z</time>
      </trkpt>
      <trkpt lat="46.3761" lon="2.61969">
        <ele>249.4</ele>
        <time>2020-07-12T05:41:42Z</time>
      </trkpt>
      <trkpt lat="46.37616" lon="2.61965">
        <ele>249.2</ele>
        <time>2020-07-12T05:41:43Z</time>
      </trkpt>
      <trkpt lat="46.37622" lon="2.61962">
        <ele>249</ele>
        <time>2020-07-12T05:41:44Z</time>
      </trkpt>
      <trkpt lat="46.37627" lon="2.61959">
        <ele>248.9</ele>
        <time>2020-07-12T05:41:45Z</time>
      </trkpt>
      <trkpt lat="46.37633" lon="2.61956">
        <ele>248.8</ele>
        <time>2020-07-12T05:41:46Z</time>
      </trkpt>
      <trkpt lat="46.37639" lon="2.61953">
        <ele>248.6</ele>
        <time>2020-07-12T05:41:47Z</time>
      </trkpt>
      <trkpt lat="46.37645" lon="2.61949">
        <ele>248.5</ele>
        <time>2020-07-12T05:41:48Z</time>
      </trkpt>
      <trkpt lat="46.37651" lon="2.61946">
        <ele>248.3</ele>
        <time>2020-07-12T05:41:49Z</time>
      </trkpt>
      <trkpt lat="46.37657" lon="2.61943">
        <ele>248.1</ele>
        <time>2020-07-12T05:41:50Z</time>
      </trkpt>
      <trkpt lat="46.37662" lon="2.6194">
        <ele>248.8</ele>
        <time>2020-07-12T05:41:51Z</time>
      </trkpt>
      <trkpt lat="46.37668" lon="2.61937">
        <ele>248.7</ele>
        <time>2020-07-12T05:41:52Z</time>
      </trkpt>
      <trkpt lat="46.37674" lon="2.61934">
        <ele>248.7</ele>
        <time>2020-07-12T05:41:53Z</time>
      </trkpt>
      <trkpt lat="46.37679" lon="2.61931">
        <ele>249</ele>
        <time>2020-07-12T05:41:54Z</time>
      </trkpt>
      <trkpt lat="46.37685" lon="2.61928">
        <ele>249.3</ele>
        <time>2020-07-12T05:41:55Z</time>
      </trkpt>
      <trkpt lat="46.37691" lon="2.61924">
        <ele>249.3</ele>
        <time>2020-07-12T05:41:56Z</time>
      </trkpt>
      <trkpt lat="46.37697" lon="2.61921">
        <ele>249.3</ele>
        <time>2020-07-12T05:41:57Z</time>
      </trkpt>
      <trkpt lat="46.37703" lon="2.61918">
        <ele>249.3</ele>
        <time>2020-07-12T05:41:58Z</time>
      </trkpt>
      <trkpt lat="46.37709" lon="2.61915">
        <ele>249.2</ele>
        <time>2020-07-12T05:41:59Z</time>
      </trkpt>
      <trkpt lat="46.37715" lon="2.61912">
        <ele>249.1</ele>
        <time>2020-07-12T05:42:00Z</time>
      </trkpt>
      <trkpt lat="46.37721" lon="2.61908">
        <ele>248.7</ele>
        <time>2020-07-12T05:42:01Z</time>
      </trkpt>
      <trkpt lat="46.37727" lon="2.61904">
        <ele>248.5</ele>
        <time>2020-07-12T05:42:02Z</time>
      </trkpt>
      <trkpt lat="46.37734" lon="2.61901">
        <ele>247.9</ele>
        <time>2020-07-12T05:42:03Z</time>
      </trkpt>
      <trkpt lat="46.3774" lon="2.61897">
        <ele>247.5</ele>
        <time>2020-07-12T05:42:04Z</time>
      </trkpt>
      <trkpt lat="46.37747" lon="2.61894">
        <ele>247.2</ele>
        <time>2020-07-12T05:42:05Z</time>
      </trkpt>
      <trkpt lat="46.37753" lon="2.6189">
        <ele>247</ele>
        <time>2020-07-12T05:42:06Z</time>
      </trkpt>
      <trkpt lat="46.3776" lon="2.61887">
        <ele>247</ele>
        <time>2020-07-12T05:42:07Z</time>
      </trkpt>
      <trkpt lat="46.37766" lon="2.61883">
        <ele>246.8</ele>
        <time>2020-07-12T05:42:08Z</time>
      </trkpt>
      <trkpt lat="46.37772" lon="2.6188">
        <ele>246.6</ele>
        <time>2020-07-12T05:42:09Z</time>
      </trkpt>
      <trkpt lat="46.37778" lon="2.61876">
        <ele>246.5</ele>
        <time>2020-07-12T05:42:10Z</time>
      </trkpt>
      <trkpt lat="46.37784" lon="2.61873">
        <ele>245.9</ele>
        <time>2020-07-12T05:42:11Z</time>
      </trkpt>
      <trkpt lat="46.37788" lon="2.61871">
        <ele>245.4</ele>
        <time>2020-07-12T05:42:12Z</time>
      </trkpt>
      <trkpt lat="46.37796" lon="2.61866">
        <ele>244.6</ele>
        <time>2020-07-12T05:42:14Z</time>
      </trkpt>
      <trkpt lat="46.37804" lon="2.6186">
        <ele>243.7</ele>
        <time>2020-07-12T05:42:16Z</time>
      </trkpt>
      <trkpt lat="46.37808" lon="2.61858">
        <ele>243.4</ele>
        <time>2020-07-12T05:42:17Z</time>
      </trkpt>
      <trkpt lat="46.37812" lon="2.61856">
        <ele>242.9</ele>
        <time>2020-07-12T05:42:18Z</time>
      </trkpt>
      <trkpt lat="46.37817" lon="2.61853">
        <ele>242.6</ele>
        <time>2020-07-12T05:42:19Z</time>
      </trkpt>
      <trkpt lat="46.37822" lon="2.6185">
        <ele>242.5</ele>
        <time>2020-07-12T05:42:20Z</time>
      </trkpt>
      <trkpt lat="46.37828" lon="2.61848">
        <ele>242.5</ele>
        <time>2020-07-12T05:42:21Z</time>
      </trkpt>
      <trkpt lat="46.37834" lon="2.61845">
        <ele>242.5</ele>
        <time>2020-07-12T05:42:22Z</time>
      </trkpt>
      <trkpt lat="46.3784" lon="2.61842">
        <ele>242.2</ele>
        <time>2020-07-12T05:42:23Z</time>
      </trkpt>
      <trkpt lat="46.37846" lon="2.61838">
        <ele>242.1</ele>
        <time>2020-07-12T05:42:24Z</time>
      </trkpt>
      <trkpt lat="46.37852" lon="2.61835">
        <ele>241.7</ele>
        <time>2020-07-12T05:42:25Z</time>
      </trkpt>
      <trkpt lat="46.37859" lon="2.61831">
        <ele>241.5</ele>
        <time>2020-07-12T05:42:26Z</time>
      </trkpt>
      <trkpt lat="46.37866" lon="2.61827">
        <ele>240.7</ele>
        <time>2020-07-12T05:42:27Z</time>
      </trkpt>
      <trkpt lat="46.37873" lon="2.61823">
        <ele>240.2</ele>
        <time>2020-07-12T05:42:28Z</time>
      </trkpt>
      <trkpt lat="46.3788" lon="2.61819">
        <ele>239.8</ele>
        <time>2020-07-12T05:42:29Z</time>
      </trkpt>
      <trkpt lat="46.37887" lon="2.61815">
        <ele>239.6</ele>
        <time>2020-07-12T05:42:30Z</time>
      </trkpt>
      <trkpt lat="46.37894" lon="2.61812">
        <ele>239.5</ele>
        <time>2020-07-12T05:42:31Z</time>
      </trkpt>
      <trkpt lat="46.379" lon="2.61808">
        <ele>238.9</ele>
        <time>2020-07-12T05:42:32Z</time>
      </trkpt>
      <trkpt lat="46.37906" lon="2.61805">
        <ele>238.4</ele>
        <time>2020-07-12T05:42:33Z</time>
      </trkpt>
      <trkpt lat="46.37913" lon="2.61802">
        <ele>237.7</ele>
        <time>2020-07-12T05:42:34Z</time>
      </trkpt>
      <trkpt lat="46.37919" lon="2.61799">
        <ele>237.2</ele>
        <time>2020-07-12T05:42:35Z</time>
      </trkpt>
      <trkpt lat="46.37926" lon="2.61795">
        <ele>236.8</ele>
        <time>2020-07-12T05:42:36Z</time>
      </trkpt>
      <trkpt lat="46.37933" lon="2.61791">
        <ele>236.1</ele>
        <time>2020-07-12T05:42:37Z</time>
      </trkpt>
      <trkpt lat="46.3794" lon="2.61788">
        <ele>235.6</ele>
        <time>2020-07-12T05:42:38Z</time>
      </trkpt>
      <trkpt lat="46.37947" lon="2.61784">
        <ele>235.5</ele>
        <time>2020-07-12T05:42:39Z</time>
      </trkpt>
      <trkpt lat="46.37954" lon="2.6178">
        <ele>235.4</ele>
        <time>2020-07-12T05:42:40Z</time>
      </trkpt>
      <trkpt lat="46.3796" lon="2.61776">
        <ele>235.4</ele>
        <time>2020-07-12T05:42:41Z</time>
      </trkpt>
      <trkpt lat="46.37967" lon="2.61772">
        <ele>234.8</ele>
        <time>2020-07-12T05:42:42Z</time>
      </trkpt>
      <trkpt lat="46.37974" lon="2.61768">
        <ele>234.4</ele>
        <time>2020-07-12T05:42:43Z</time>
      </trkpt>
      <trkpt lat="46.37981" lon="2.61765">
        <ele>234.3</ele>
        <time>2020-07-12T05:42:44Z</time>
      </trkpt>
      <trkpt lat="46.37987" lon="2.61761">
        <ele>234.3</ele>
        <time>2020-07-12T05:42:45Z</time>
      </trkpt>
      <trkpt lat="46.37993" lon="2.61758">
        <ele>233.8</ele>
        <time>2020-07-12T05:42:46Z</time>
      </trkpt>
      <trkpt lat="46.37999" lon="2.61756">
        <ele>233.4</ele>
        <time>2020-07-12T05:42:47Z</time>
      </trkpt>
      <trkpt lat="46.38005" lon="2.61753">
        <ele>233.1</ele>
        <time>2020-07-12T05:42:48Z</time>
      </trkpt>
      <trkpt lat="46.3801" lon="2.6175">
        <ele>233.5</ele>
        <time>2020-07-12T05:42:49Z</time>
      </trkpt>
      <trkpt lat="46.38015" lon="2.61748">
        <ele>233.8</ele>
        <time>2020-07-12T05:42:50Z</time>
      </trkpt>
      <trkpt lat="46.3802" lon="2.61745">
        <ele>234.3</ele>
        <time>2020-07-12T05:42:51Z</time>
      </trkpt>
      <trkpt lat="46.38025" lon="2.61743">
        <ele>234.6</ele>
        <time>2020-07-12T05:42:52Z</time>
      </trkpt>
      <trkpt lat="46.38029" lon="2.6174">
        <ele>235.1</ele>
        <time>2020-07-12T05:42:53Z</time>
      </trkpt>
      <trkpt lat="46.38033" lon="2.61738">
        <ele>235.4</ele>
        <time>2020-07-12T05:42:54Z</time>
      </trkpt>
      <trkpt lat="46.38042" lon="2.61733">
        <ele>235.7</ele>
        <time>2020-07-12T05:42:56Z</time>
      </trkpt>
      <trkpt lat="46.3805" lon="2.61729">
        <ele>235.9</ele>
        <time>2020-07-12T05:42:58Z</time>
      </trkpt>
      <trkpt lat="46.38058" lon="2.61725">
        <ele>236.1</ele>
        <time>2020-07-12T05:43:00Z</time>
      </trkpt>
      <trkpt lat="46.38062" lon="2.61722">
        <ele>236.1</ele>
        <time>2020-07-12T05:43:01Z</time>
      </trkpt>
      <trkpt lat="46.38074" lon="2.61715">
        <ele>236.5</ele>
        <time>2020-07-12T05:43:04Z</time>
      </trkpt>
      <trkpt lat="46.38078" lon="2.61713">
        <ele>236.9</ele>
        <time>2020-07-12T05:43:05Z</time>
      </trkpt>
      <trkpt lat="46.38083" lon="2.6171">
        <ele>237.1</ele>
        <time>2020-07-12T05:43:06Z</time>
      </trkpt>
      <trkpt lat="46.38087" lon="2.61708">
        <ele>237.3</ele>
        <time>2020-07-12T05:43:07Z</time>
      </trkpt>
      <trkpt lat="46.38091" lon="2.61705">
        <ele>237.3</ele>
        <time>2020-07-12T05:43:08Z</time>
      </trkpt>
      <trkpt lat="46.38096" lon="2.61702">
        <ele>237.4</ele>
        <time>2020-07-12T05:43:09Z</time>
      </trkpt>
      <trkpt lat="46.38099" lon="2.61698">
        <ele>238</ele>
        <time>2020-07-12T05:43:10Z</time>
      </trkpt>
      <trkpt lat="46.38103" lon="2.61694">
        <ele>238.5</ele>
        <time>2020-07-12T05:43:11Z</time>
      </trkpt>
      <trkpt lat="46.38106" lon="2.61688">
        <ele>238.8</ele>
        <time>2020-07-12T05:43:12Z</time>
      </trkpt>
      <trkpt lat="46.38109" lon="2.61683">
        <ele>239</ele>
        <time>2020-07-12T05:43:13Z</time>
      </trkpt>
      <trkpt lat="46.38117" lon="2.61677">
        <ele>239.2</ele>
        <time>2020-07-12T05:43:15Z</time>
      </trkpt>
      <trkpt lat="46.38124" lon="2.61683">
        <ele>239.6</ele>
        <time>2020-07-12T05:43:17Z</time>
      </trkpt>
      <trkpt lat="46.38132" lon="2.61682">
        <ele>240.2</ele>
        <time>2020-07-12T05:43:19Z</time>
      </trkpt>
      <trkpt lat="46.38137" lon="2.6168">
        <ele>240.5</ele>
        <time>2020-07-12T05:43:20Z</time>
      </trkpt>
      <trkpt lat="46.38141" lon="2.61678">
        <ele>240.7</ele>
        <time>2020-07-12T05:43:21Z</time>
      </trkpt>
      <trkpt lat="46.38146" lon="2.61676">
        <ele>240.9</ele>
        <time>2020-07-12T05:43:22Z</time>
      </trkpt>
      <trkpt lat="46.3815" lon="2.61674">
        <ele>241</ele>
        <time>2020-07-12T05:43:23Z</time>
      </trkpt>
      <trkpt lat="46.38158" lon="2.61669">
        <ele>241.3</ele>
        <time>2020-07-12T05:43:25Z</time>
      </trkpt>
      <trkpt lat="46.38166" lon="2.61665">
        <ele>241.6</ele>
        <time>2020-07-12T05:43:27Z</time>
      </trkpt>
      <trkpt lat="46.38175" lon="2.6166">
        <ele>241.9</ele>
        <time>2020-07-12T05:43:29Z</time>
      </trkpt>
      <trkpt lat="46.38179" lon="2.61657">
        <ele>242.1</ele>
        <time>2020-07-12T05:43:30Z</time>
      </trkpt>
      <trkpt lat="46.38184" lon="2.61655">
        <ele>242.2</ele>
        <time>2020-07-12T05:43:31Z</time>
      </trkpt>
      <trkpt lat="46.38188" lon="2.61652">
        <ele>242</ele>
        <time>2020-07-12T05:43:32Z</time>
      </trkpt>
      <trkpt lat="46.38192" lon="2.61649">
        <ele>241.9</ele>
        <time>2020-07-12T05:43:33Z</time>
      </trkpt>
      <trkpt lat="46.38197" lon="2.61647">
        <ele>242</ele>
        <time>2020-07-12T05:43:34Z</time>
      </trkpt>
      <trkpt lat="46.38201" lon="2.61645">
        <ele>242</ele>
        <time>2020-07-12T05:43:35Z</time>
      </trkpt>
      <trkpt lat="46.38206" lon="2.61642">
        <ele>241.9</ele>
        <time>2020-07-12T05:43:36Z</time>
      </trkpt>
      <trkpt lat="46.3821" lon="2.6164">
        <ele>241.9</ele>
        <time>2020-07-12T05:43:37Z</time>
      </trkpt>
      <trkpt lat="46.38215" lon="2.61637">
        <ele>241.8</ele>
        <time>2020-07-12T05:43:38Z</time>
      </trkpt>
      <trkpt lat="46.38219" lon="2.61635">
        <ele>242.1</ele>
        <time>2020-07-12T05:43:39Z</time>
      </trkpt>
      <trkpt lat="46.38224" lon="2.61633">
        <ele>242.3</ele>
        <time>2020-07-12T05:43:40Z</time>
      </trkpt>
      <trkpt lat="46.38228" lon="2.6163">
        <ele>242.7</ele>
        <time>2020-07-12T05:43:41Z</time>
      </trkpt>
      <trkpt lat="46.38233" lon="2.61627">
        <ele>243</ele>
        <time>2020-07-12T05:43:42Z</time>
      </trkpt>
      <trkpt lat="46.38237" lon="2.61625">
        <ele>243.3</ele>
        <time>2020-07-12T05:43:43Z</time>
      </trkpt>
      <trkpt lat="46.38242" lon="2.61622">
        <ele>242.8</ele>
        <time>2020-07-12T05:43:44Z</time>
      </trkpt>
      <trkpt lat="46.38246" lon="2.61619">
        <ele>242.5</ele>
        <time>2020-07-12T05:43:45Z</time>
      </trkpt>
      <trkpt lat="46.38251" lon="2.61616">
        <ele>242</ele>
        <time>2020-07-12T05:43:46Z</time>
      </trkpt>
      <trkpt lat="46.38256" lon="2.61613">
        <ele>241.5</ele>
        <time>2020-07-12T05:43:47Z</time>
      </trkpt>
      <trkpt lat="46.3826" lon="2.6161">
        <ele>242.1</ele>
        <time>2020-07-12T05:43:48Z</time>
      </trkpt>
      <trkpt lat="46.38265" lon="2.61607">
        <ele>242.6</ele>
        <time>2020-07-12T05:43:49Z</time>
      </trkpt>
      <trkpt lat="46.3827" lon="2.61604">
        <ele>242.9</ele>
        <time>2020-07-12T05:43:50Z</time>
      </trkpt>
      <trkpt lat="46.38275" lon="2.61601">
        <ele>242.7</ele>
        <time>2020-07-12T05:43:51Z</time>
      </trkpt>
      <trkpt lat="46.38279" lon="2.61596">
        <ele>242.5</ele>
        <time>2020-07-12T05:43:52Z</time>
      </trkpt>
      <trkpt lat="46.38283" lon="2.6159">
        <ele>242.3</ele>
        <time>2020-07-12T05:43:53Z</time>
      </trkpt>
      <trkpt lat="46.38286" lon="2.61583">
        <ele>242.2</ele>
        <time>2020-07-12T05:43:54Z</time>
      </trkpt>
      <trkpt lat="46.38289" lon="2.61576">
        <ele>242.9</ele>
        <time>2020-07-12T05:43:55Z</time>
      </trkpt>
      <trkpt lat="46.38292" lon="2.61569">
        <ele>243.4</ele>
        <time>2020-07-12T05:43:56Z</time>
      </trkpt>
      <trkpt lat="46.38293" lon="2.61562">
        <ele>243.8</ele>
        <time>2020-07-12T05:43:57Z</time>
      </trkpt>
      <trkpt lat="46.38294" lon="2.61554">
        <ele>243.5</ele>
        <time>2020-07-12T05:43:58Z</time>
      </trkpt>
      <trkpt lat="46.38293" lon="2.61546">
        <ele>243.3</ele>
        <time>2020-07-12T05:43:59Z</time>
      </trkpt>
      <trkpt lat="46.38293" lon="2.61539">
        <ele>243</ele>
        <time>2020-07-12T05:44:00Z</time>
      </trkpt>
      <trkpt lat="46.38293" lon="2.61531">
        <ele>242.9</ele>
        <time>2020-07-12T05:44:01Z</time>
      </trkpt>
      <trkpt lat="46.38292" lon="2.61523">
        <ele>242.7</ele>
        <time>2020-07-12T05:44:02Z</time>
      </trkpt>
      <trkpt lat="46.38292" lon="2.61515">
        <ele>242.5</ele>
        <time>2020-07-12T05:44:03Z</time>
      </trkpt>
      <trkpt lat="46.38293" lon="2.61508">
        <ele>242.4</ele>
        <time>2020-07-12T05:44:04Z</time>
      </trkpt>
      <trkpt lat="46.38293" lon="2.615">
        <ele>242</ele>
        <time>2020-07-12T05:44:05Z</time>
      </trkpt>
      <trkpt lat="46.38294" lon="2.61491">
        <ele>241.7</ele>
        <time>2020-07-12T05:44:06Z</time>
      </trkpt>
      <trkpt lat="46.38293" lon="2.61483">
        <ele>241.5</ele>
        <time>2020-07-12T05:44:07Z</time>
      </trkpt>
      <trkpt lat="46.38293" lon="2.61474">
        <ele>241.3</ele>
        <time>2020-07-12T05:44:08Z</time>
      </trkpt>
      <trkpt lat="46.38292" lon="2.61466">
        <ele>241.2</ele>
        <time>2020-07-12T05:44:09Z</time>
      </trkpt>
      <trkpt lat="46.38292" lon="2.61458">
        <ele>241.3</ele>
        <time>2020-07-12T05:44:10Z</time>
      </trkpt>
      <trkpt lat="46.38291" lon="2.6145">
        <ele>241.4</ele>
        <time>2020-07-12T05:44:11Z</time>
      </trkpt>
      <trkpt lat="46.3829" lon="2.61442">
        <ele>241.3</ele>
        <time>2020-07-12T05:44:12Z</time>
      </trkpt>
      <trkpt lat="46.38289" lon="2.61434">
        <ele>241.2</ele>
        <time>2020-07-12T05:44:13Z</time>
      </trkpt>
      <trkpt lat="46.38288" lon="2.61426">
        <ele>241.1</ele>
        <time>2020-07-12T05:44:14Z</time>
      </trkpt>
      <trkpt lat="46.38289" lon="2.61418">
        <ele>241</ele>
        <time>2020-07-12T05:44:15Z</time>
      </trkpt>
      <trkpt lat="46.38291" lon="2.6141">
        <ele>241</ele>
        <time>2020-07-12T05:44:16Z</time>
      </trkpt>
      <trkpt lat="46.38295" lon="2.61404">
        <ele>240.7</ele>
        <time>2020-07-12T05:44:17Z</time>
      </trkpt>
      <trkpt lat="46.38299" lon="2.61398">
        <ele>240.5</ele>
        <time>2020-07-12T05:44:18Z</time>
      </trkpt>
      <trkpt lat="46.38305" lon="2.61397">
        <ele>240.4</ele>
        <time>2020-07-12T05:44:19Z</time>
      </trkpt>
      <trkpt lat="46.38311" lon="2.61397">
        <ele>240.4</ele>
        <time>2020-07-12T05:44:20Z</time>
      </trkpt>
      <trkpt lat="46.38316" lon="2.61399">
        <ele>240.3</ele>
        <time>2020-07-12T05:44:21Z</time>
      </trkpt>
      <trkpt lat="46.38322" lon="2.61401">
        <ele>240</ele>
        <time>2020-07-12T05:44:22Z</time>
      </trkpt>
      <trkpt lat="46.38328" lon="2.61403">
        <ele>239.7</ele>
        <time>2020-07-12T05:44:23Z</time>
      </trkpt>
      <trkpt lat="46.38333" lon="2.61405">
        <ele>239.2</ele>
        <time>2020-07-12T05:44:24Z</time>
      </trkpt>
      <trkpt lat="46.38339" lon="2.61407">
        <ele>238.9</ele>
        <time>2020-07-12T05:44:25Z</time>
      </trkpt>
      <trkpt lat="46.38345" lon="2.61409">
        <ele>239.2</ele>
        <time>2020-07-12T05:44:26Z</time>
      </trkpt>
      <trkpt lat="46.3835" lon="2.61409">
        <ele>239.4</ele>
        <time>2020-07-12T05:44:27Z</time>
      </trkpt>
      <trkpt lat="46.38356" lon="2.61409">
        <ele>239.5</ele>
        <time>2020-07-12T05:44:28Z</time>
      </trkpt>
      <trkpt lat="46.38362" lon="2.61407">
        <ele>239.1</ele>
        <time>2020-07-12T05:44:29Z</time>
      </trkpt>
      <trkpt lat="46.38368" lon="2.61405">
        <ele>238.9</ele>
        <time>2020-07-12T05:44:30Z</time>
      </trkpt>
      <trkpt lat="46.38375" lon="2.61402">
        <ele>238.7</ele>
        <time>2020-07-12T05:44:31Z</time>
      </trkpt>
      <trkpt lat="46.38381" lon="2.61399">
        <ele>238.6</ele>
        <time>2020-07-12T05:44:32Z</time>
      </trkpt>
      <trkpt lat="46.38388" lon="2.61395">
        <ele>238.2</ele>
        <time>2020-07-12T05:44:33Z</time>
      </trkpt>
      <trkpt lat="46.38395" lon="2.61391">
        <ele>238</ele>
        <time>2020-07-12T05:44:34Z</time>
      </trkpt>
      <trkpt lat="46.38402" lon="2.61386">
        <ele>237.8</ele>
        <time>2020-07-12T05:44:35Z</time>
      </trkpt>
      <trkpt lat="46.38409" lon="2.61382">
        <ele>237.6</ele>
        <time>2020-07-12T05:44:36Z</time>
      </trkpt>
      <trkpt lat="46.38417" lon="2.61377">
        <ele>237.5</ele>
        <time>2020-07-12T05:44:37Z</time>
      </trkpt>
      <trkpt lat="46.38425" lon="2.61371">
        <ele>237.2</ele>
        <time>2020-07-12T05:44:38Z</time>
      </trkpt>
      <trkpt lat="46.38434" lon="2.61366">
        <ele>237</ele>
        <time>2020-07-12T05:44:39Z</time>
      </trkpt>
      <trkpt lat="46.38443" lon="2.6136">
        <ele>236.8</ele>
        <time>2020-07-12T05:44:40Z</time>
      </trkpt>
      <trkpt lat="46.38452" lon="2.61354">
        <ele>235.8</ele>
        <time>2020-07-12T05:44:41Z</time>
      </trkpt>
      <trkpt lat="46.38461" lon="2.61348">
        <ele>235</ele>
        <time>2020-07-12T05:44:42Z</time>
      </trkpt>
      <trkpt lat="46.3847" lon="2.61341">
        <ele>234.6</ele>
        <time>2020-07-12T05:44:43Z</time>
      </trkpt>
      <trkpt lat="46.38479" lon="2.61334">
        <ele>234.3</ele>
        <time>2020-07-12T05:44:44Z</time>
      </trkpt>
      <trkpt lat="46.38489" lon="2.61327">
        <ele>233.4</ele>
        <time>2020-07-12T05:44:45Z</time>
      </trkpt>
      <trkpt lat="46.38498" lon="2.6132">
        <ele>232.6</ele>
        <time>2020-07-12T05:44:46Z</time>
      </trkpt>
      <trkpt lat="46.38508" lon="2.61312">
        <ele>232.1</ele>
        <time>2020-07-12T05:44:47Z</time>
      </trkpt>
      <trkpt lat="46.38517" lon="2.61305">
        <ele>231.2</ele>
        <time>2020-07-12T05:44:48Z</time>
      </trkpt>
      <trkpt lat="46.38527" lon="2.61296">
        <ele>230.5</ele>
        <time>2020-07-12T05:44:49Z</time>
      </trkpt>
      <trkpt lat="46.38536" lon="2.61288">
        <ele>229.2</ele>
        <time>2020-07-12T05:44:50Z</time>
      </trkpt>
      <trkpt lat="46.38546" lon="2.61279">
        <ele>228.2</ele>
        <time>2020-07-12T05:44:51Z</time>
      </trkpt>
      <trkpt lat="46.38555" lon="2.61271">
        <ele>227.4</ele>
        <time>2020-07-12T05:44:52Z</time>
      </trkpt>
      <trkpt lat="46.38565" lon="2.61262">
        <ele>227.2</ele>
        <time>2020-07-12T05:44:53Z</time>
      </trkpt>
      <trkpt lat="46.38574" lon="2.61253">
        <ele>227</ele>
        <time>2020-07-12T05:44:54Z</time>
      </trkpt>
      <trkpt lat="46.38584" lon="2.61245">
        <ele>226.3</ele>
        <time>2020-07-12T05:44:55Z</time>
      </trkpt>
      <trkpt lat="46.38594" lon="2.61236">
        <ele>225.7</ele>
        <time>2020-07-12T05:44:56Z</time>
      </trkpt>
      <trkpt lat="46.38603" lon="2.61227">
        <ele>225</ele>
        <time>2020-07-12T05:44:57Z</time>
      </trkpt>
      <trkpt lat="46.38613" lon="2.61219">
        <ele>224.4</ele>
        <time>2020-07-12T05:44:58Z</time>
      </trkpt>
      <trkpt lat="46.38623" lon="2.61211">
        <ele>224</ele>
        <time>2020-07-12T05:44:59Z</time>
      </trkpt>
      <trkpt lat="46.38632" lon="2.61204">
        <ele>223.7</ele>
        <time>2020-07-12T05:45:00Z</time>
      </trkpt>
      <trkpt lat="46.38641" lon="2.61197">
        <ele>223.5</ele>
        <time>2020-07-12T05:45:01Z</time>
      </trkpt>
      <trkpt lat="46.3865" lon="2.61191">
        <ele>223.1</ele>
        <time>2020-07-12T05:45:02Z</time>
      </trkpt>
      <trkpt lat="46.3866" lon="2.61184">
        <ele>222.8</ele>
        <time>2020-07-12T05:45:03Z</time>
      </trkpt>
      <trkpt lat="46.38669" lon="2.61177">
        <ele>222.2</ele>
        <time>2020-07-12T05:45:04Z</time>
      </trkpt>
      <trkpt lat="46.38677" lon="2.6117">
        <ele>221.7</ele>
        <time>2020-07-12T05:45:05Z</time>
      </trkpt>
      <trkpt lat="46.38686" lon="2.61163">
        <ele>221.4</ele>
        <time>2020-07-12T05:45:06Z</time>
      </trkpt>
      <trkpt lat="46.38694" lon="2.61154">
        <ele>220.7</ele>
        <time>2020-07-12T05:45:07Z</time>
      </trkpt>
      <trkpt lat="46.38701" lon="2.61145">
        <ele>220.2</ele>
        <time>2020-07-12T05:45:08Z</time>
      </trkpt>
      <trkpt lat="46.38708" lon="2.61135">
        <ele>220.1</ele>
        <time>2020-07-12T05:45:09Z</time>
      </trkpt>
      <trkpt lat="46.38713" lon="2.61124">
        <ele>219.9</ele>
        <time>2020-07-12T05:45:10Z</time>
      </trkpt>
      <trkpt lat="46.38719" lon="2.61112">
        <ele>219.8</ele>
        <time>2020-07-12T05:45:11Z</time>
      </trkpt>
      <trkpt lat="46.38723" lon="2.61101">
        <ele>219.4</ele>
        <time>2020-07-12T05:45:12Z</time>
      </trkpt>
      <trkpt lat="46.38727" lon="2.61088">
        <ele>219</ele>
        <time>2020-07-12T05:45:13Z</time>
      </trkpt>
      <trkpt lat="46.3873" lon="2.61076">
        <ele>218.5</ele>
        <time>2020-07-12T05:45:14Z</time>
      </trkpt>
      <trkpt lat="46.38733" lon="2.61063">
        <ele>218.1</ele>
        <time>2020-07-12T05:45:15Z</time>
      </trkpt>
      <trkpt lat="46.38736" lon="2.61051">
        <ele>217.7</ele>
        <time>2020-07-12T05:45:16Z</time>
      </trkpt>
      <trkpt lat="46.38738" lon="2.61038">
        <ele>217.3</ele>
        <time>2020-07-12T05:45:17Z</time>
      </trkpt>
      <trkpt lat="46.38741" lon="2.61024">
        <ele>217.1</ele>
        <time>2020-07-12T05:45:18Z</time>
      </trkpt>
      <trkpt lat="46.38743" lon="2.6101">
        <ele>216.9</ele>
        <time>2020-07-12T05:45:19Z</time>
      </trkpt>
      <trkpt lat="46.38746" lon="2.60996">
        <ele>216.8</ele>
        <time>2020-07-12T05:45:20Z</time>
      </trkpt>
      <trkpt lat="46.38749" lon="2.60981">
        <ele>215.8</ele>
        <time>2020-07-12T05:45:21Z</time>
      </trkpt>
      <trkpt lat="46.38752" lon="2.60966">
        <ele>215</ele>
        <time>2020-07-12T05:45:22Z</time>
      </trkpt>
      <trkpt lat="46.38757" lon="2.60951">
        <ele>213.9</ele>
        <time>2020-07-12T05:45:23Z</time>
      </trkpt>
      <trkpt lat="46.38763" lon="2.60938">
        <ele>213.1</ele>
        <time>2020-07-12T05:45:24Z</time>
      </trkpt>
      <trkpt lat="46.38771" lon="2.60927">
        <ele>212.5</ele>
        <time>2020-07-12T05:45:25Z</time>
      </trkpt>
      <trkpt lat="46.38781" lon="2.60918">
        <ele>211.9</ele>
        <time>2020-07-12T05:45:26Z</time>
      </trkpt>
      <trkpt lat="46.38792" lon="2.60911">
        <ele>211.5</ele>
        <time>2020-07-12T05:45:27Z</time>
      </trkpt>
      <trkpt lat="46.38802" lon="2.60903">
        <ele>210.4</ele>
        <time>2020-07-12T05:45:28Z</time>
      </trkpt>
      <trkpt lat="46.38813" lon="2.60897">
        <ele>209.7</ele>
        <time>2020-07-12T05:45:29Z</time>
      </trkpt>
      <trkpt lat="46.38824" lon="2.6089">
        <ele>208.9</ele>
        <time>2020-07-12T05:45:30Z</time>
      </trkpt>
      <trkpt lat="46.38835" lon="2.60884">
        <ele>208.3</ele>
        <time>2020-07-12T05:45:31Z</time>
      </trkpt>
      <trkpt lat="46.38845" lon="2.60877">
        <ele>207.8</ele>
        <time>2020-07-12T05:45:32Z</time>
      </trkpt>
      <trkpt lat="46.38856" lon="2.6087">
        <ele>207</ele>
        <time>2020-07-12T05:45:33Z</time>
      </trkpt>
      <trkpt lat="46.38865" lon="2.60864">
        <ele>206.4</ele>
        <time>2020-07-12T05:45:34Z</time>
      </trkpt>
      <trkpt lat="46.38874" lon="2.60857">
        <ele>205.8</ele>
        <time>2020-07-12T05:45:35Z</time>
      </trkpt>
      <trkpt lat="46.38883" lon="2.6085">
        <ele>205.4</ele>
        <time>2020-07-12T05:45:36Z</time>
      </trkpt>
      <trkpt lat="46.38891" lon="2.60843">
        <ele>205</ele>
        <time>2020-07-12T05:45:37Z</time>
      </trkpt>
      <trkpt lat="46.38898" lon="2.60837">
        <ele>204.9</ele>
        <time>2020-07-12T05:45:38Z</time>
      </trkpt>
      <trkpt lat="46.38906" lon="2.60832">
        <ele>204.7</ele>
        <time>2020-07-12T05:45:39Z</time>
      </trkpt>
      <trkpt lat="46.38912" lon="2.60826">
        <ele>204.4</ele>
        <time>2020-07-12T05:45:40Z</time>
      </trkpt>
      <trkpt lat="46.38919" lon="2.60821">
        <ele>204.2</ele>
        <time>2020-07-12T05:45:41Z</time>
      </trkpt>
      <trkpt lat="46.38926" lon="2.60816">
        <ele>204.3</ele>
        <time>2020-07-12T05:45:42Z</time>
      </trkpt>
      <trkpt lat="46.38933" lon="2.60812">
        <ele>204.4</ele>
        <time>2020-07-12T05:45:43Z</time>
      </trkpt>
      <trkpt lat="46.38939" lon="2.60807">
        <ele>204.5</ele>
        <time>2020-07-12T05:45:44Z</time>
      </trkpt>
      <trkpt lat="46.38946" lon="2.60803">
        <ele>204.8</ele>
        <time>2020-07-12T05:45:45Z</time>
      </trkpt>
      <trkpt lat="46.38952" lon="2.60799">
        <ele>205.1</ele>
        <time>2020-07-12T05:45:46Z</time>
      </trkpt>
      <trkpt lat="46.38959" lon="2.60795">
        <ele>205.2</ele>
        <time>2020-07-12T05:45:47Z</time>
      </trkpt>
      <trkpt lat="46.38965" lon="2.60791">
        <ele>205.3</ele>
        <time>2020-07-12T05:45:48Z</time>
      </trkpt>
      <trkpt lat="46.38972" lon="2.60787">
        <ele>205.3</ele>
        <time>2020-07-12T05:45:49Z</time>
      </trkpt>
      <trkpt lat="46.38978" lon="2.60782">
        <ele>205</ele>
        <time>2020-07-12T05:45:50Z</time>
      </trkpt>
      <trkpt lat="46.38984" lon="2.60779">
        <ele>204.8</ele>
        <time>2020-07-12T05:45:51Z</time>
      </trkpt>
      <trkpt lat="46.38989" lon="2.60775">
        <ele>204.8</ele>
        <time>2020-07-12T05:45:52Z</time>
      </trkpt>
      <trkpt lat="46.38995" lon="2.60771">
        <ele>204.8</ele>
        <time>2020-07-12T05:45:53Z</time>
      </trkpt>
      <trkpt lat="46.39001" lon="2.60767">
        <ele>203.9</ele>
        <time>2020-07-12T05:45:54Z</time>
      </trkpt>
      <trkpt lat="46.39006" lon="2.60764">
        <ele>203.3</ele>
        <time>2020-07-12T05:45:55Z</time>
      </trkpt>
      <trkpt lat="46.39012" lon="2.6076">
        <ele>202.8</ele>
        <time>2020-07-12T05:45:56Z</time>
      </trkpt>
      <trkpt lat="46.39017" lon="2.60756">
        <ele>202.6</ele>
        <time>2020-07-12T05:45:57Z</time>
      </trkpt>
      <trkpt lat="46.39022" lon="2.60753">
        <ele>202.4</ele>
        <time>2020-07-12T05:45:58Z</time>
      </trkpt>
      <trkpt lat="46.39028" lon="2.60749">
        <ele>202.2</ele>
        <time>2020-07-12T05:45:59Z</time>
      </trkpt>
      <trkpt lat="46.39033" lon="2.60745">
        <ele>202</ele>
        <time>2020-07-12T05:46:00Z</time>
      </trkpt>
      <trkpt lat="46.39038" lon="2.60742">
        <ele>202.5</ele>
        <time>2020-07-12T05:46:01Z</time>
      </trkpt>
      <trkpt lat="46.39044" lon="2.60738">
        <ele>202.8</ele>
        <time>2020-07-12T05:46:02Z</time>
      </trkpt>
      <trkpt lat="46.39049" lon="2.60734">
        <ele>203</ele>
        <time>2020-07-12T05:46:03Z</time>
      </trkpt>
      <trkpt lat="46.39055" lon="2.60731">
        <ele>202.9</ele>
        <time>2020-07-12T05:46:04Z</time>
      </trkpt>
      <trkpt lat="46.3906" lon="2.60727">
        <ele>202.7</ele>
        <time>2020-07-12T05:46:05Z</time>
      </trkpt>
      <trkpt lat="46.39065" lon="2.60723">
        <ele>202.5</ele>
        <time>2020-07-12T05:46:06Z</time>
      </trkpt>
      <trkpt lat="46.39071" lon="2.6072">
        <ele>202.4</ele>
        <time>2020-07-12T05:46:07Z</time>
      </trkpt>
      <trkpt lat="46.39076" lon="2.60717">
        <ele>202.3</ele>
        <time>2020-07-12T05:46:08Z</time>
      </trkpt>
      <trkpt lat="46.39081" lon="2.60714">
        <ele>202.3</ele>
        <time>2020-07-12T05:46:09Z</time>
      </trkpt>
      <trkpt lat="46.39085" lon="2.6071">
        <ele>202.3</ele>
        <time>2020-07-12T05:46:10Z</time>
      </trkpt>
      <trkpt lat="46.3909" lon="2.60707">
        <ele>202.5</ele>
        <time>2020-07-12T05:46:11Z</time>
      </trkpt>
      <trkpt lat="46.39095" lon="2.60704">
        <ele>202.7</ele>
        <time>2020-07-12T05:46:12Z</time>
      </trkpt>
      <trkpt lat="46.391" lon="2.60701">
        <ele>203</ele>
        <time>2020-07-12T05:46:13Z</time>
      </trkpt>
      <trkpt lat="46.39104" lon="2.60697">
        <ele>203.2</ele>
        <time>2020-07-12T05:46:14Z</time>
      </trkpt>
      <trkpt lat="46.39108" lon="2.60694">
        <ele>203.4</ele>
        <time>2020-07-12T05:46:15Z</time>
      </trkpt>
      <trkpt lat="46.39113" lon="2.60691">
        <ele>203.7</ele>
        <time>2020-07-12T05:46:16Z</time>
      </trkpt>
      <trkpt lat="46.39117" lon="2.60688">
        <ele>204</ele>
        <time>2020-07-12T05:46:17Z</time>
      </trkpt>
      <trkpt lat="46.39122" lon="2.60684">
        <ele>204.2</ele>
        <time>2020-07-12T05:46:18Z</time>
      </trkpt>
      <trkpt lat="46.39126" lon="2.60681">
        <ele>204.3</ele>
        <time>2020-07-12T05:46:19Z</time>
      </trkpt>
      <trkpt lat="46.39131" lon="2.60677">
        <ele>204.4</ele>
        <time>2020-07-12T05:46:20Z</time>
      </trkpt>
      <trkpt lat="46.39135" lon="2.60673">
        <ele>204.3</ele>
        <time>2020-07-12T05:46:21Z</time>
      </trkpt>
      <trkpt lat="46.3914" lon="2.60669">
        <ele>204.2</ele>
        <time>2020-07-12T05:46:22Z</time>
      </trkpt>
      <trkpt lat="46.39145" lon="2.60665">
        <ele>204.2</ele>
        <time>2020-07-12T05:46:23Z</time>
      </trkpt>
      <trkpt lat="46.3915" lon="2.60661">
        <ele>204.2</ele>
        <time>2020-07-12T05:46:24Z</time>
      </trkpt>
      <trkpt lat="46.39155" lon="2.60657">
        <ele>204.1</ele>
        <time>2020-07-12T05:46:25Z</time>
      </trkpt>
      <trkpt lat="46.3916" lon="2.60653">
        <ele>204.1</ele>
        <time>2020-07-12T05:46:26Z</time>
      </trkpt>
      <trkpt lat="46.39165" lon="2.60649">
        <ele>204</ele>
        <time>2020-07-12T05:46:27Z</time>
      </trkpt>
      <trkpt lat="46.3917" lon="2.60644">
        <ele>204.2</ele>
        <time>2020-07-12T05:46:28Z</time>
      </trkpt>
      <trkpt lat="46.39175" lon="2.6064">
        <ele>204.4</ele>
        <time>2020-07-12T05:46:29Z</time>
      </trkpt>
      <trkpt lat="46.3918" lon="2.60636">
        <ele>204</ele>
        <time>2020-07-12T05:46:30Z</time>
      </trkpt>
      <trkpt lat="46.39186" lon="2.60631">
        <ele>203.7</ele>
        <time>2020-07-12T05:46:31Z</time>
      </trkpt>
      <trkpt lat="46.39192" lon="2.60627">
        <ele>203.4</ele>
        <time>2020-07-12T05:46:32Z</time>
      </trkpt>
      <trkpt lat="46.39197" lon="2.60624">
        <ele>203.2</ele>
        <time>2020-07-12T05:46:33Z</time>
      </trkpt>
      <trkpt lat="46.39202" lon="2.6062">
        <ele>203.1</ele>
        <time>2020-07-12T05:46:34Z</time>
      </trkpt>
      <trkpt lat="46.39208" lon="2.60617">
        <ele>202.9</ele>
        <time>2020-07-12T05:46:35Z</time>
      </trkpt>
      <trkpt lat="46.39213" lon="2.60615">
        <ele>202.8</ele>
        <time>2020-07-12T05:46:36Z</time>
      </trkpt>
      <trkpt lat="46.39219" lon="2.60612">
        <ele>202.8</ele>
        <time>2020-07-12T05:46:37Z</time>
      </trkpt>
      <trkpt lat="46.39225" lon="2.6061">
        <ele>202.8</ele>
        <time>2020-07-12T05:46:38Z</time>
      </trkpt>
      <trkpt lat="46.39231" lon="2.60608">
        <ele>202.8</ele>
        <time>2020-07-12T05:46:39Z</time>
      </trkpt>
      <trkpt lat="46.39238" lon="2.60605">
        <ele>202.8</ele>
        <time>2020-07-12T05:46:40Z</time>
      </trkpt>
      <trkpt lat="46.39244" lon="2.60603">
        <ele>202.8</ele>
        <time>2020-07-12T05:46:41Z</time>
      </trkpt>
      <trkpt lat="46.3925" lon="2.60601">
        <ele>203</ele>
        <time>2020-07-12T05:46:42Z</time>
      </trkpt>
      <trkpt lat="46.39257" lon="2.60599">
        <ele>203.1</ele>
        <time>2020-07-12T05:46:43Z</time>
      </trkpt>
      <trkpt lat="46.39264" lon="2.60598">
        <ele>203</ele>
        <time>2020-07-12T05:46:44Z</time>
      </trkpt>
      <trkpt lat="46.3927" lon="2.60597">
        <ele>202.9</ele>
        <time>2020-07-12T05:46:45Z</time>
      </trkpt>
      <trkpt lat="46.39276" lon="2.60597">
        <ele>202.9</ele>
        <time>2020-07-12T05:46:46Z</time>
      </trkpt>
      <trkpt lat="46.39283" lon="2.60597">
        <ele>202.8</ele>
        <time>2020-07-12T05:46:47Z</time>
      </trkpt>
      <trkpt lat="46.39289" lon="2.60598">
        <ele>202.7</ele>
        <time>2020-07-12T05:46:48Z</time>
      </trkpt>
      <trkpt lat="46.39296" lon="2.60599">
        <ele>202.9</ele>
        <time>2020-07-12T05:46:49Z</time>
      </trkpt>
      <trkpt lat="46.39302" lon="2.606">
        <ele>203.1</ele>
        <time>2020-07-12T05:46:50Z</time>
      </trkpt>
      <trkpt lat="46.39309" lon="2.60602">
        <ele>203.2</ele>
        <time>2020-07-12T05:46:51Z</time>
      </trkpt>
      <trkpt lat="46.39315" lon="2.60603">
        <ele>203.1</ele>
        <time>2020-07-12T05:46:52Z</time>
      </trkpt>
      <trkpt lat="46.39322" lon="2.60605">
        <ele>203.1</ele>
        <time>2020-07-12T05:46:53Z</time>
      </trkpt>
      <trkpt lat="46.39328" lon="2.60606">
        <ele>203.3</ele>
        <time>2020-07-12T05:46:54Z</time>
      </trkpt>
      <trkpt lat="46.39335" lon="2.60608">
        <ele>203.4</ele>
        <time>2020-07-12T05:46:55Z</time>
      </trkpt>
      <trkpt lat="46.39341" lon="2.6061">
        <ele>203.7</ele>
        <time>2020-07-12T05:46:56Z</time>
      </trkpt>
      <trkpt lat="46.39348" lon="2.60612">
        <ele>203.9</ele>
        <time>2020-07-12T05:46:57Z</time>
      </trkpt>
      <trkpt lat="46.39353" lon="2.60614">
        <ele>204</ele>
        <time>2020-07-12T05:46:58Z</time>
      </trkpt>
      <trkpt lat="46.39359" lon="2.60616">
        <ele>204</ele>
        <time>2020-07-12T05:46:59Z</time>
      </trkpt>
      <trkpt lat="46.39365" lon="2.60618">
        <ele>203.9</ele>
        <time>2020-07-12T05:47:00Z</time>
      </trkpt>
      <trkpt lat="46.39372" lon="2.60619">
        <ele>203.7</ele>
        <time>2020-07-12T05:47:01Z</time>
      </trkpt>
      <trkpt lat="46.39377" lon="2.60621">
        <ele>203.5</ele>
        <time>2020-07-12T05:47:02Z</time>
      </trkpt>
      <trkpt lat="46.39383" lon="2.60623">
        <ele>203.3</ele>
        <time>2020-07-12T05:47:03Z</time>
      </trkpt>
      <trkpt lat="46.39389" lon="2.60625">
        <ele>203.5</ele>
        <time>2020-07-12T05:47:04Z</time>
      </trkpt>
      <trkpt lat="46.39395" lon="2.60627">
        <ele>203.7</ele>
        <time>2020-07-12T05:47:05Z</time>
      </trkpt>
      <trkpt lat="46.39401" lon="2.6063">
        <ele>203.9</ele>
        <time>2020-07-12T05:47:06Z</time>
      </trkpt>
      <trkpt lat="46.39407" lon="2.60633">
        <ele>204.1</ele>
        <time>2020-07-12T05:47:07Z</time>
      </trkpt>
      <trkpt lat="46.39413" lon="2.60636">
        <ele>204.1</ele>
        <time>2020-07-12T05:47:08Z</time>
      </trkpt>
      <trkpt lat="46.39419" lon="2.6064">
        <ele>204.1</ele>
        <time>2020-07-12T05:47:09Z</time>
      </trkpt>
      <trkpt lat="46.39426" lon="2.60643">
        <ele>204.1</ele>
        <time>2020-07-12T05:47:10Z</time>
      </trkpt>
      <trkpt lat="46.39432" lon="2.60645">
        <ele>203.8</ele>
        <time>2020-07-12T05:47:11Z</time>
      </trkpt>
      <trkpt lat="46.39439" lon="2.60649">
        <ele>203.7</ele>
        <time>2020-07-12T05:47:12Z</time>
      </trkpt>
      <trkpt lat="46.39446" lon="2.60651">
        <ele>203.1</ele>
        <time>2020-07-12T05:47:13Z</time>
      </trkpt>
      <trkpt lat="46.39453" lon="2.60654">
        <ele>202.7</ele>
        <time>2020-07-12T05:47:14Z</time>
      </trkpt>
      <trkpt lat="46.3946" lon="2.60655">
        <ele>202.3</ele>
        <time>2020-07-12T05:47:15Z</time>
      </trkpt>
      <trkpt lat="46.39467" lon="2.60656">
        <ele>202.1</ele>
        <time>2020-07-12T05:47:16Z</time>
      </trkpt>
      <trkpt lat="46.39475" lon="2.60657">
        <ele>201.8</ele>
        <time>2020-07-12T05:47:17Z</time>
      </trkpt>
      <trkpt lat="46.39481" lon="2.60658">
        <ele>201.7</ele>
        <time>2020-07-12T05:47:18Z</time>
      </trkpt>
      <trkpt lat="46.39488" lon="2.60658">
        <ele>201.5</ele>
        <time>2020-07-12T05:47:19Z</time>
      </trkpt>
      <trkpt lat="46.39493" lon="2.60656">
        <ele>200.9</ele>
        <time>2020-07-12T05:47:20Z</time>
      </trkpt>
      <trkpt lat="46.39495" lon="2.6065">
        <ele>200.5</ele>
        <time>2020-07-12T05:47:21Z</time>
      </trkpt>
      <trkpt lat="46.39495" lon="2.60643">
        <ele>200.2</ele>
        <time>2020-07-12T05:47:22Z</time>
      </trkpt>
      <trkpt lat="46.39495" lon="2.60635">
        <ele>200</ele>
        <time>2020-07-12T05:47:23Z</time>
      </trkpt>
      <trkpt lat="46.39493" lon="2.60628">
        <ele>199.9</ele>
        <time>2020-07-12T05:47:24Z</time>
      </trkpt>
      <trkpt lat="46.39491" lon="2.60621">
        <ele>199.7</ele>
        <time>2020-07-12T05:47:25Z</time>
      </trkpt>
      <trkpt lat="46.3949" lon="2.60613">
        <ele>199.6</ele>
        <time>2020-07-12T05:47:26Z</time>
      </trkpt>
      <trkpt lat="46.39488" lon="2.60606">
        <ele>199.6</ele>
        <time>2020-07-12T05:47:27Z</time>
      </trkpt>
      <trkpt lat="46.39488" lon="2.60598">
        <ele>199.6</ele>
        <time>2020-07-12T05:47:28Z</time>
      </trkpt>
      <trkpt lat="46.39489" lon="2.60587">
        <ele>199.5</ele>
        <time>2020-07-12T05:47:30Z</time>
      </trkpt>
      <trkpt lat="46.39487" lon="2.60578">
        <ele>199</ele>
        <time>2020-07-12T05:47:34Z</time>
      </trkpt>
      <trkpt lat="46.39484" lon="2.60567">
        <ele>198.6</ele>
        <time>2020-07-12T05:47:36Z</time>
      </trkpt>
      <trkpt lat="46.39481" lon="2.60562">
        <ele>198.3</ele>
        <time>2020-07-12T05:47:37Z</time>
      </trkpt>
      <trkpt lat="46.39477" lon="2.60558">
        <ele>198</ele>
        <time>2020-07-12T05:47:38Z</time>
      </trkpt>
      <trkpt lat="46.39474" lon="2.60553">
        <ele>197.8</ele>
        <time>2020-07-12T05:47:39Z</time>
      </trkpt>
      <trkpt lat="46.3947" lon="2.60548">
        <ele>197.7</ele>
        <time>2020-07-12T05:47:40Z</time>
      </trkpt>
      <trkpt lat="46.39467" lon="2.60543">
        <ele>198</ele>
        <time>2020-07-12T05:47:41Z</time>
      </trkpt>
      <trkpt lat="46.39463" lon="2.60537">
        <ele>198.2</ele>
        <time>2020-07-12T05:47:42Z</time>
      </trkpt>
      <trkpt lat="46.3946" lon="2.60531">
        <ele>198.3</ele>
        <time>2020-07-12T05:47:43Z</time>
      </trkpt>
      <trkpt lat="46.39457" lon="2.60525">
        <ele>198.7</ele>
        <time>2020-07-12T05:47:44Z</time>
      </trkpt>
      <trkpt lat="46.39454" lon="2.60518">
        <ele>199</ele>
        <time>2020-07-12T05:47:45Z</time>
      </trkpt>
      <trkpt lat="46.39451" lon="2.60512">
        <ele>199.2</ele>
        <time>2020-07-12T05:47:46Z</time>
      </trkpt>
      <trkpt lat="46.39448" lon="2.60505">
        <ele>199.2</ele>
        <time>2020-07-12T05:47:47Z</time>
      </trkpt>
      <trkpt lat="46.39445" lon="2.60499">
        <ele>199.3</ele>
        <time>2020-07-12T05:47:48Z</time>
      </trkpt>
      <trkpt lat="46.39442" lon="2.60492">
        <ele>198.9</ele>
        <time>2020-07-12T05:47:49Z</time>
      </trkpt>
      <trkpt lat="46.39439" lon="2.60485">
        <ele>198.6</ele>
        <time>2020-07-12T05:47:50Z</time>
      </trkpt>
      <trkpt lat="46.39437" lon="2.60478">
        <ele>199</ele>
        <time>2020-07-12T05:47:51Z</time>
      </trkpt>
      <trkpt lat="46.39434" lon="2.60471">
        <ele>199.4</ele>
        <time>2020-07-12T05:47:52Z</time>
      </trkpt>
      <trkpt lat="46.39431" lon="2.60465">
        <ele>199.2</ele>
        <time>2020-07-12T05:47:53Z</time>
      </trkpt>
      <trkpt lat="46.39428" lon="2.60458">
        <ele>199.1</ele>
        <time>2020-07-12T05:47:54Z</time>
      </trkpt>
      <trkpt lat="46.39426" lon="2.60451">
        <ele>199</ele>
        <time>2020-07-12T05:47:55Z</time>
      </trkpt>
      <trkpt lat="46.39423" lon="2.60444">
        <ele>199</ele>
        <time>2020-07-12T05:47:56Z</time>
      </trkpt>
      <trkpt lat="46.3942" lon="2.60437">
        <ele>199</ele>
        <time>2020-07-12T05:47:57Z</time>
      </trkpt>
      <trkpt lat="46.39417" lon="2.60431">
        <ele>199.4</ele>
        <time>2020-07-12T05:47:58Z</time>
      </trkpt>
      <trkpt lat="46.39414" lon="2.60424">
        <ele>199.8</ele>
        <time>2020-07-12T05:47:59Z</time>
      </trkpt>
      <trkpt lat="46.39412" lon="2.60417">
        <ele>200.1</ele>
        <time>2020-07-12T05:48:00Z</time>
      </trkpt>
      <trkpt lat="46.39409" lon="2.60411">
        <ele>200.4</ele>
        <time>2020-07-12T05:48:01Z</time>
      </trkpt>
      <trkpt lat="46.39406" lon="2.60404">
        <ele>200.6</ele>
        <time>2020-07-12T05:48:02Z</time>
      </trkpt>
      <trkpt lat="46.39404" lon="2.60398">
        <ele>200.4</ele>
        <time>2020-07-12T05:48:03Z</time>
      </trkpt>
      <trkpt lat="46.39401" lon="2.60392">
        <ele>200.2</ele>
        <time>2020-07-12T05:48:04Z</time>
      </trkpt>
      <trkpt lat="46.39398" lon="2.60385">
        <ele>200.7</ele>
        <time>2020-07-12T05:48:05Z</time>
      </trkpt>
      <trkpt lat="46.39395" lon="2.60379">
        <ele>201.1</ele>
        <time>2020-07-12T05:48:06Z</time>
      </trkpt>
      <trkpt lat="46.39393" lon="2.60372">
        <ele>201.4</ele>
        <time>2020-07-12T05:48:07Z</time>
      </trkpt>
      <trkpt lat="46.3939" lon="2.60365">
        <ele>201.4</ele>
        <time>2020-07-12T05:48:08Z</time>
      </trkpt>
      <trkpt lat="46.39387" lon="2.60359">
        <ele>201.5</ele>
        <time>2020-07-12T05:48:09Z</time>
      </trkpt>
      <trkpt lat="46.39385" lon="2.60352">
        <ele>201.5</ele>
        <time>2020-07-12T05:48:10Z</time>
      </trkpt>
      <trkpt lat="46.39382" lon="2.60345">
        <ele>201.6</ele>
        <time>2020-07-12T05:48:11Z</time>
      </trkpt>
      <trkpt lat="46.39379" lon="2.60339">
        <ele>201.7</ele>
        <time>2020-07-12T05:48:12Z</time>
      </trkpt>
      <trkpt lat="46.39376" lon="2.60332">
        <ele>201.8</ele>
        <time>2020-07-12T05:48:13Z</time>
      </trkpt>
      <trkpt lat="46.39373" lon="2.60325">
        <ele>201.8</ele>
        <time>2020-07-12T05:48:14Z</time>
      </trkpt>
      <trkpt lat="46.39371" lon="2.60318">
        <ele>201.3</ele>
        <time>2020-07-12T05:48:15Z</time>
      </trkpt>
      <trkpt lat="46.39368" lon="2.60311">
        <ele>200.9</ele>
        <time>2020-07-12T05:48:16Z</time>
      </trkpt>
      <trkpt lat="46.39365" lon="2.60304">
        <ele>201.6</ele>
        <time>2020-07-12T05:48:17Z</time>
      </trkpt>
      <trkpt lat="46.39362" lon="2.60296">
        <ele>202.1</ele>
        <time>2020-07-12T05:48:18Z</time>
      </trkpt>
      <trkpt lat="46.39359" lon="2.60289">
        <ele>202.5</ele>
        <time>2020-07-12T05:48:19Z</time>
      </trkpt>
      <trkpt lat="46.39356" lon="2.60282">
        <ele>201.6</ele>
        <time>2020-07-12T05:48:20Z</time>
      </trkpt>
      <trkpt lat="46.39353" lon="2.60275">
        <ele>201</ele>
        <time>2020-07-12T05:48:21Z</time>
      </trkpt>
      <trkpt lat="46.3935" lon="2.60268">
        <ele>200.9</ele>
        <time>2020-07-12T05:48:22Z</time>
      </trkpt>
      <trkpt lat="46.39347" lon="2.60261">
        <ele>200.8</ele>
        <time>2020-07-12T05:48:23Z</time>
      </trkpt>
      <trkpt lat="46.39344" lon="2.60254">
        <ele>200.9</ele>
        <time>2020-07-12T05:48:24Z</time>
      </trkpt>
      <trkpt lat="46.39341" lon="2.60246">
        <ele>200.9</ele>
        <time>2020-07-12T05:48:25Z</time>
      </trkpt>
      <trkpt lat="46.39338" lon="2.60239">
        <ele>200.9</ele>
        <time>2020-07-12T05:48:26Z</time>
      </trkpt>
      <trkpt lat="46.39335" lon="2.60232">
        <ele>201</ele>
        <time>2020-07-12T05:48:27Z</time>
      </trkpt>
      <trkpt lat="46.39332" lon="2.60224">
        <ele>201.1</ele>
        <time>2020-07-12T05:48:28Z</time>
      </trkpt>
      <trkpt lat="46.39329" lon="2.60217">
        <ele>200.8</ele>
        <time>2020-07-12T05:48:29Z</time>
      </trkpt>
      <trkpt lat="46.39326" lon="2.60209">
        <ele>200.6</ele>
        <time>2020-07-12T05:48:30Z</time>
      </trkpt>
      <trkpt lat="46.39323" lon="2.60202">
        <ele>200.3</ele>
        <time>2020-07-12T05:48:31Z</time>
      </trkpt>
      <trkpt lat="46.3932" lon="2.60195">
        <ele>200</ele>
        <time>2020-07-12T05:48:32Z</time>
      </trkpt>
      <trkpt lat="46.39317" lon="2.60188">
        <ele>199.8</ele>
        <time>2020-07-12T05:48:33Z</time>
      </trkpt>
      <trkpt lat="46.39314" lon="2.6018">
        <ele>199.7</ele>
        <time>2020-07-12T05:48:34Z</time>
      </trkpt>
      <trkpt lat="46.39311" lon="2.60172">
        <ele>199.5</ele>
        <time>2020-07-12T05:48:35Z</time>
      </trkpt>
      <trkpt lat="46.39307" lon="2.60165">
        <ele>199.5</ele>
        <time>2020-07-12T05:48:36Z</time>
      </trkpt>
      <trkpt lat="46.39304" lon="2.60157">
        <ele>199.4</ele>
        <time>2020-07-12T05:48:37Z</time>
      </trkpt>
      <trkpt lat="46.39301" lon="2.6015">
        <ele>199.4</ele>
        <time>2020-07-12T05:48:38Z</time>
      </trkpt>
      <trkpt lat="46.39298" lon="2.60143">
        <ele>199.4</ele>
        <time>2020-07-12T05:48:39Z</time>
      </trkpt>
      <trkpt lat="46.39295" lon="2.60135">
        <ele>199.5</ele>
        <time>2020-07-12T05:48:40Z</time>
      </trkpt>
      <trkpt lat="46.39292" lon="2.60128">
        <ele>199.2</ele>
        <time>2020-07-12T05:48:41Z</time>
      </trkpt>
      <trkpt lat="46.3929" lon="2.60121">
        <ele>198.9</ele>
        <time>2020-07-12T05:48:42Z</time>
      </trkpt>
      <trkpt lat="46.39287" lon="2.60114">
        <ele>199.2</ele>
        <time>2020-07-12T05:48:43Z</time>
      </trkpt>
      <trkpt lat="46.39284" lon="2.60107">
        <ele>199.4</ele>
        <time>2020-07-12T05:48:44Z</time>
      </trkpt>
      <trkpt lat="46.39281" lon="2.601">
        <ele>199.5</ele>
        <time>2020-07-12T05:48:45Z</time>
      </trkpt>
      <trkpt lat="46.39278" lon="2.60093">
        <ele>199.2</ele>
        <time>2020-07-12T05:48:46Z</time>
      </trkpt>
      <trkpt lat="46.39275" lon="2.60086">
        <ele>198.9</ele>
        <time>2020-07-12T05:48:47Z</time>
      </trkpt>
      <trkpt lat="46.39272" lon="2.60079">
        <ele>199</ele>
        <time>2020-07-12T05:48:48Z</time>
      </trkpt>
      <trkpt lat="46.39269" lon="2.60073">
        <ele>199.1</ele>
        <time>2020-07-12T05:48:49Z</time>
      </trkpt>
      <trkpt lat="46.39266" lon="2.60066">
        <ele>198.8</ele>
        <time>2020-07-12T05:48:50Z</time>
      </trkpt>
      <trkpt lat="46.39263" lon="2.60059">
        <ele>198.6</ele>
        <time>2020-07-12T05:48:51Z</time>
      </trkpt>
      <trkpt lat="46.3926" lon="2.60052">
        <ele>198.4</ele>
        <time>2020-07-12T05:48:52Z</time>
      </trkpt>
      <trkpt lat="46.39258" lon="2.60045">
        <ele>198</ele>
        <time>2020-07-12T05:48:53Z</time>
      </trkpt>
      <trkpt lat="46.39255" lon="2.60039">
        <ele>197.7</ele>
        <time>2020-07-12T05:48:54Z</time>
      </trkpt>
      <trkpt lat="46.39252" lon="2.6003">
        <ele>198.1</ele>
        <time>2020-07-12T05:48:55Z</time>
      </trkpt>
      <trkpt lat="46.39249" lon="2.60022">
        <ele>198.4</ele>
        <time>2020-07-12T05:48:56Z</time>
      </trkpt>
      <trkpt lat="46.39247" lon="2.60013">
        <ele>198.6</ele>
        <time>2020-07-12T05:48:57Z</time>
      </trkpt>
      <trkpt lat="46.39244" lon="2.60005">
        <ele>198.7</ele>
        <time>2020-07-12T05:48:58Z</time>
      </trkpt>
      <trkpt lat="46.39242" lon="2.59996">
        <ele>198.8</ele>
        <time>2020-07-12T05:48:59Z</time>
      </trkpt>
      <trkpt lat="46.39239" lon="2.59988">
        <ele>198.6</ele>
        <time>2020-07-12T05:49:00Z</time>
      </trkpt>
      <trkpt lat="46.39236" lon="2.59979">
        <ele>198.5</ele>
        <time>2020-07-12T05:49:01Z</time>
      </trkpt>
      <trkpt lat="46.39234" lon="2.59971">
        <ele>198.3</ele>
        <time>2020-07-12T05:49:02Z</time>
      </trkpt>
      <trkpt lat="46.39231" lon="2.59962">
        <ele>198.2</ele>
        <time>2020-07-12T05:49:03Z</time>
      </trkpt>
      <trkpt lat="46.39229" lon="2.59953">
        <ele>198.1</ele>
        <time>2020-07-12T05:49:04Z</time>
      </trkpt>
      <trkpt lat="46.39225" lon="2.59944">
        <ele>198.3</ele>
        <time>2020-07-12T05:49:05Z</time>
      </trkpt>
      <trkpt lat="46.39222" lon="2.59935">
        <ele>198.4</ele>
        <time>2020-07-12T05:49:06Z</time>
      </trkpt>
      <trkpt lat="46.39219" lon="2.59926">
        <ele>198.3</ele>
        <time>2020-07-12T05:49:07Z</time>
      </trkpt>
      <trkpt lat="46.39215" lon="2.59918">
        <ele>198.2</ele>
        <time>2020-07-12T05:49:08Z</time>
      </trkpt>
      <trkpt lat="46.39211" lon="2.59911">
        <ele>198.2</ele>
        <time>2020-07-12T05:49:09Z</time>
      </trkpt>
      <trkpt lat="46.39208" lon="2.59904">
        <ele>198.2</ele>
        <time>2020-07-12T05:49:10Z</time>
      </trkpt>
      <trkpt lat="46.39204" lon="2.59897">
        <ele>198.1</ele>
        <time>2020-07-12T05:49:11Z</time>
      </trkpt>
      <trkpt lat="46.39201" lon="2.5989">
        <ele>198.1</ele>
        <time>2020-07-12T05:49:12Z</time>
      </trkpt>
      <trkpt lat="46.39197" lon="2.59883">
        <ele>198.1</ele>
        <time>2020-07-12T05:49:13Z</time>
      </trkpt>
      <trkpt lat="46.39194" lon="2.59876">
        <ele>198.1</ele>
        <time>2020-07-12T05:49:14Z</time>
      </trkpt>
      <trkpt lat="46.3919" lon="2.59869">
        <ele>198</ele>
        <time>2020-07-12T05:49:15Z</time>
      </trkpt>
      <trkpt lat="46.39187" lon="2.59863">
        <ele>198</ele>
        <time>2020-07-12T05:49:16Z</time>
      </trkpt>
      <trkpt lat="46.39184" lon="2.59856">
        <ele>198</ele>
        <time>2020-07-12T05:49:17Z</time>
      </trkpt>
      <trkpt lat="46.39181" lon="2.5985">
        <ele>197.9</ele>
        <time>2020-07-12T05:49:18Z</time>
      </trkpt>
      <trkpt lat="46.39178" lon="2.59843">
        <ele>198.2</ele>
        <time>2020-07-12T05:49:19Z</time>
      </trkpt>
      <trkpt lat="46.39175" lon="2.59837">
        <ele>198.5</ele>
        <time>2020-07-12T05:49:20Z</time>
      </trkpt>
      <trkpt lat="46.39171" lon="2.5983">
        <ele>198.2</ele>
        <time>2020-07-12T05:49:21Z</time>
      </trkpt>
      <trkpt lat="46.39168" lon="2.59824">
        <ele>197.9</ele>
        <time>2020-07-12T05:49:22Z</time>
      </trkpt>
      <trkpt lat="46.39165" lon="2.59818">
        <ele>197.7</ele>
        <time>2020-07-12T05:49:23Z</time>
      </trkpt>
      <trkpt lat="46.39162" lon="2.59812">
        <ele>197.9</ele>
        <time>2020-07-12T05:49:24Z</time>
      </trkpt>
      <trkpt lat="46.39159" lon="2.59806">
        <ele>198</ele>
        <time>2020-07-12T05:49:25Z</time>
      </trkpt>
      <trkpt lat="46.39156" lon="2.59799">
        <ele>198.1</ele>
        <time>2020-07-12T05:49:26Z</time>
      </trkpt>
      <trkpt lat="46.39152" lon="2.59793">
        <ele>198.2</ele>
        <time>2020-07-12T05:49:27Z</time>
      </trkpt>
      <trkpt lat="46.39149" lon="2.59788">
        <ele>198.3</ele>
        <time>2020-07-12T05:49:28Z</time>
      </trkpt>
      <trkpt lat="46.39146" lon="2.59782">
        <ele>198.3</ele>
        <time>2020-07-12T05:49:29Z</time>
      </trkpt>
      <trkpt lat="46.39142" lon="2.59776">
        <ele>198.4</ele>
        <time>2020-07-12T05:49:30Z</time>
      </trkpt>
      <trkpt lat="46.39139" lon="2.5977">
        <ele>198.7</ele>
        <time>2020-07-12T05:49:31Z</time>
      </trkpt>
      <trkpt lat="46.39136" lon="2.59764">
        <ele>198.9</ele>
        <time>2020-07-12T05:49:32Z</time>
      </trkpt>
      <trkpt lat="46.39134" lon="2.59757">
        <ele>199</ele>
        <time>2020-07-12T05:49:33Z</time>
      </trkpt>
      <trkpt lat="46.39133" lon="2.59751">
        <ele>199</ele>
        <time>2020-07-12T05:49:34Z</time>
      </trkpt>
      <trkpt lat="46.39133" lon="2.59744">
        <ele>198.8</ele>
        <time>2020-07-12T05:49:35Z</time>
      </trkpt>
      <trkpt lat="46.39132" lon="2.59737">
        <ele>198.7</ele>
        <time>2020-07-12T05:49:36Z</time>
      </trkpt>
      <trkpt lat="46.39132" lon="2.5973">
        <ele>198.7</ele>
        <time>2020-07-12T05:49:37Z</time>
      </trkpt>
      <trkpt lat="46.39132" lon="2.59723">
        <ele>198.6</ele>
        <time>2020-07-12T05:49:38Z</time>
      </trkpt>
      <trkpt lat="46.39131" lon="2.59716">
        <ele>198.6</ele>
        <time>2020-07-12T05:49:39Z</time>
      </trkpt>
      <trkpt lat="46.39131" lon="2.59708">
        <ele>199.1</ele>
        <time>2020-07-12T05:49:40Z</time>
      </trkpt>
      <trkpt lat="46.39131" lon="2.59701">
        <ele>199.5</ele>
        <time>2020-07-12T05:49:41Z</time>
      </trkpt>
      <trkpt lat="46.3913" lon="2.59694">
        <ele>199.8</ele>
        <time>2020-07-12T05:49:42Z</time>
      </trkpt>
      <trkpt lat="46.39131" lon="2.59687">
        <ele>199.5</ele>
        <time>2020-07-12T05:49:43Z</time>
      </trkpt>
      <trkpt lat="46.39131" lon="2.5968">
        <ele>199.3</ele>
        <time>2020-07-12T05:49:44Z</time>
      </trkpt>
      <trkpt lat="46.39131" lon="2.59667">
        <ele>199.9</ele>
        <time>2020-07-12T05:49:46Z</time>
      </trkpt>
      <trkpt lat="46.3913" lon="2.59655">
        <ele>200.5</ele>
        <time>2020-07-12T05:49:48Z</time>
      </trkpt>
      <trkpt lat="46.39129" lon="2.59644">
        <ele>201</ele>
        <time>2020-07-12T05:49:50Z</time>
      </trkpt>
      <trkpt lat="46.39126" lon="2.59631">
        <ele>201.2</ele>
        <time>2020-07-12T05:49:52Z</time>
      </trkpt>
      <trkpt lat="46.39124" lon="2.59619">
        <ele>201.2</ele>
        <time>2020-07-12T05:49:54Z</time>
      </trkpt>
      <trkpt lat="46.39123" lon="2.59612">
        <ele>201.2</ele>
        <time>2020-07-12T05:49:55Z</time>
      </trkpt>
      <trkpt lat="46.39123" lon="2.59604">
        <ele>201.2</ele>
        <time>2020-07-12T05:49:56Z</time>
      </trkpt>
      <trkpt lat="46.39134" lon="2.5957">
        <ele>200</ele>
        <time>2020-07-12T05:50:01Z</time>
      </trkpt>
      <trkpt lat="46.39146" lon="2.59564">
        <ele>200.6</ele>
        <time>2020-07-12T05:50:05Z</time>
      </trkpt>
      <trkpt lat="46.39155" lon="2.59564">
        <ele>201.1</ele>
        <time>2020-07-12T05:50:07Z</time>
      </trkpt>
      <trkpt lat="46.39159" lon="2.59563">
        <ele>201.2</ele>
        <time>2020-07-12T05:50:08Z</time>
      </trkpt>
      <trkpt lat="46.39164" lon="2.59562">
        <ele>201.3</ele>
        <time>2020-07-12T05:50:09Z</time>
      </trkpt>
      <trkpt lat="46.39168" lon="2.59561">
        <ele>201.3</ele>
        <time>2020-07-12T05:50:10Z</time>
      </trkpt>
      <trkpt lat="46.39173" lon="2.59559">
        <ele>201.2</ele>
        <time>2020-07-12T05:50:11Z</time>
      </trkpt>
      <trkpt lat="46.39181" lon="2.59553">
        <ele>201</ele>
        <time>2020-07-12T05:50:13Z</time>
      </trkpt>
      <trkpt lat="46.39188" lon="2.59546">
        <ele>200.7</ele>
        <time>2020-07-12T05:50:15Z</time>
      </trkpt>
      <trkpt lat="46.39193" lon="2.59536">
        <ele>201.8</ele>
        <time>2020-07-12T05:50:17Z</time>
      </trkpt>
      <trkpt lat="46.39198" lon="2.59526">
        <ele>202.4</ele>
        <time>2020-07-12T05:50:19Z</time>
      </trkpt>
      <trkpt lat="46.39202" lon="2.59515">
        <ele>202.8</ele>
        <time>2020-07-12T05:50:21Z</time>
      </trkpt>
      <trkpt lat="46.39206" lon="2.59503">
        <ele>202.8</ele>
        <time>2020-07-12T05:50:23Z</time>
      </trkpt>
      <trkpt lat="46.3921" lon="2.59492">
        <ele>202.8</ele>
        <time>2020-07-12T05:50:25Z</time>
      </trkpt>
      <trkpt lat="46.39214" lon="2.59481">
        <ele>202.9</ele>
        <time>2020-07-12T05:50:27Z</time>
      </trkpt>
      <trkpt lat="46.39218" lon="2.59471">
        <ele>203.6</ele>
        <time>2020-07-12T05:50:29Z</time>
      </trkpt>
      <trkpt lat="46.39221" lon="2.5946">
        <ele>204.2</ele>
        <time>2020-07-12T05:50:31Z</time>
      </trkpt>
      <trkpt lat="46.39225" lon="2.5945">
        <ele>204.2</ele>
        <time>2020-07-12T05:50:33Z</time>
      </trkpt>
      <trkpt lat="46.39229" lon="2.5944">
        <ele>204.6</ele>
        <time>2020-07-12T05:50:35Z</time>
      </trkpt>
      <trkpt lat="46.39233" lon="2.5943">
        <ele>205.2</ele>
        <time>2020-07-12T05:50:37Z</time>
      </trkpt>
      <trkpt lat="46.3924" lon="2.59423">
        <ele>205.6</ele>
        <time>2020-07-12T05:50:39Z</time>
      </trkpt>
      <trkpt lat="46.39246" lon="2.59416">
        <ele>205.8</ele>
        <time>2020-07-12T05:50:41Z</time>
      </trkpt>
      <trkpt lat="46.39253" lon="2.59408">
        <ele>206.4</ele>
        <time>2020-07-12T05:50:43Z</time>
      </trkpt>
      <trkpt lat="46.39258" lon="2.59401">
        <ele>207.2</ele>
        <time>2020-07-12T05:50:45Z</time>
      </trkpt>
      <trkpt lat="46.39264" lon="2.59394">
        <ele>207.7</ele>
        <time>2020-07-12T05:50:47Z</time>
      </trkpt>
      <trkpt lat="46.3927" lon="2.59387">
        <ele>208.6</ele>
        <time>2020-07-12T05:50:49Z</time>
      </trkpt>
      <trkpt lat="46.39276" lon="2.59382">
        <ele>208.7</ele>
        <time>2020-07-12T05:50:51Z</time>
      </trkpt>
      <trkpt lat="46.39283" lon="2.59379">
        <ele>208.2</ele>
        <time>2020-07-12T05:50:53Z</time>
      </trkpt>
      <trkpt lat="46.39291" lon="2.59379">
        <ele>209</ele>
        <time>2020-07-12T05:50:55Z</time>
      </trkpt>
      <trkpt lat="46.39298" lon="2.5938">
        <ele>209.6</ele>
        <time>2020-07-12T05:50:57Z</time>
      </trkpt>
      <trkpt lat="46.39305" lon="2.59381">
        <ele>210.3</ele>
        <time>2020-07-12T05:50:59Z</time>
      </trkpt>
      <trkpt lat="46.39312" lon="2.59381">
        <ele>210.7</ele>
        <time>2020-07-12T05:51:01Z</time>
      </trkpt>
      <trkpt lat="46.39321" lon="2.59381">
        <ele>211</ele>
        <time>2020-07-12T05:51:03Z</time>
      </trkpt>
      <trkpt lat="46.39329" lon="2.5938">
        <ele>211.3</ele>
        <time>2020-07-12T05:51:05Z</time>
      </trkpt>
      <trkpt lat="46.39337" lon="2.59377">
        <ele>211.4</ele>
        <time>2020-07-12T05:51:07Z</time>
      </trkpt>
      <trkpt lat="46.39345" lon="2.59373">
        <ele>211.4</ele>
        <time>2020-07-12T05:51:09Z</time>
      </trkpt>
      <trkpt lat="46.39349" lon="2.59372">
        <ele>211.4</ele>
        <time>2020-07-12T05:51:10Z</time>
      </trkpt>
      <trkpt lat="46.39361" lon="2.59365">
        <ele>211.8</ele>
        <time>2020-07-12T05:51:13Z</time>
      </trkpt>
      <trkpt lat="46.39369" lon="2.5936">
        <ele>212.4</ele>
        <time>2020-07-12T05:51:15Z</time>
      </trkpt>
      <trkpt lat="46.39377" lon="2.59356">
        <ele>212.7</ele>
        <time>2020-07-12T05:51:17Z</time>
      </trkpt>
      <trkpt lat="46.39385" lon="2.59351">
        <ele>212.8</ele>
        <time>2020-07-12T05:51:19Z</time>
      </trkpt>
      <trkpt lat="46.39393" lon="2.59346">
        <ele>212.5</ele>
        <time>2020-07-12T05:51:21Z</time>
      </trkpt>
      <trkpt lat="46.39402" lon="2.59343">
        <ele>213.3</ele>
        <time>2020-07-12T05:51:23Z</time>
      </trkpt>
      <trkpt lat="46.3941" lon="2.59341">
        <ele>213.7</ele>
        <time>2020-07-12T05:51:25Z</time>
      </trkpt>
      <trkpt lat="46.39419" lon="2.59342">
        <ele>214</ele>
        <time>2020-07-12T05:51:27Z</time>
      </trkpt>
      <trkpt lat="46.39423" lon="2.59342">
        <ele>214.1</ele>
        <time>2020-07-12T05:51:28Z</time>
      </trkpt>
      <trkpt lat="46.39428" lon="2.59343">
        <ele>213.8</ele>
        <time>2020-07-12T05:51:29Z</time>
      </trkpt>
      <trkpt lat="46.39433" lon="2.59343">
        <ele>213.7</ele>
        <time>2020-07-12T05:51:30Z</time>
      </trkpt>
      <trkpt lat="46.39437" lon="2.59344">
        <ele>213.6</ele>
        <time>2020-07-12T05:51:31Z</time>
      </trkpt>
      <trkpt lat="46.39442" lon="2.59344">
        <ele>214.1</ele>
        <time>2020-07-12T05:51:32Z</time>
      </trkpt>
      <trkpt lat="46.39451" lon="2.59343">
        <ele>214.5</ele>
        <time>2020-07-12T05:51:34Z</time>
      </trkpt>
      <trkpt lat="46.39455" lon="2.5934">
        <ele>214.4</ele>
        <time>2020-07-12T05:51:35Z</time>
      </trkpt>
      <trkpt lat="46.39463" lon="2.59334">
        <ele>214.4</ele>
        <time>2020-07-12T05:51:37Z</time>
      </trkpt>
      <trkpt lat="46.39466" lon="2.59329">
        <ele>214.3</ele>
        <time>2020-07-12T05:51:38Z</time>
      </trkpt>
      <trkpt lat="46.39472" lon="2.5932">
        <ele>215.2</ele>
        <time>2020-07-12T05:51:40Z</time>
      </trkpt>
      <trkpt lat="46.39477" lon="2.5931">
        <ele>215.1</ele>
        <time>2020-07-12T05:51:42Z</time>
      </trkpt>
      <trkpt lat="46.39481" lon="2.59298">
        <ele>214.9</ele>
        <time>2020-07-12T05:51:44Z</time>
      </trkpt>
      <trkpt lat="46.39486" lon="2.59287">
        <ele>214.6</ele>
        <time>2020-07-12T05:51:46Z</time>
      </trkpt>
      <trkpt lat="46.39489" lon="2.59276">
        <ele>214.6</ele>
        <time>2020-07-12T05:51:48Z</time>
      </trkpt>
      <trkpt lat="46.39493" lon="2.59264">
        <ele>214.7</ele>
        <time>2020-07-12T05:51:50Z</time>
      </trkpt>
      <trkpt lat="46.39495" lon="2.59258">
        <ele>214.8</ele>
        <time>2020-07-12T05:51:51Z</time>
      </trkpt>
      <trkpt lat="46.39497" lon="2.59252">
        <ele>214.9</ele>
        <time>2020-07-12T05:51:52Z</time>
      </trkpt>
      <trkpt lat="46.395" lon="2.59246">
        <ele>215</ele>
        <time>2020-07-12T05:51:53Z</time>
      </trkpt>
      <trkpt lat="46.39502" lon="2.5924">
        <ele>215</ele>
        <time>2020-07-12T05:51:54Z</time>
      </trkpt>
      <trkpt lat="46.39506" lon="2.59229">
        <ele>215.9</ele>
        <time>2020-07-12T05:51:56Z</time>
      </trkpt>
      <trkpt lat="46.39508" lon="2.59223">
        <ele>216.2</ele>
        <time>2020-07-12T05:51:57Z</time>
      </trkpt>
      <trkpt lat="46.39511" lon="2.59218">
        <ele>216.3</ele>
        <time>2020-07-12T05:51:58Z</time>
      </trkpt>
      <trkpt lat="46.39513" lon="2.59212">
        <ele>216.4</ele>
        <time>2020-07-12T05:51:59Z</time>
      </trkpt>
      <trkpt lat="46.39519" lon="2.59202">
        <ele>216.9</ele>
        <time>2020-07-12T05:52:01Z</time>
      </trkpt>
      <trkpt lat="46.39522" lon="2.59197">
        <ele>217.1</ele>
        <time>2020-07-12T05:52:02Z</time>
      </trkpt>
      <trkpt lat="46.39528" lon="2.59187">
        <ele>217.7</ele>
        <time>2020-07-12T05:52:04Z</time>
      </trkpt>
      <trkpt lat="46.39531" lon="2.59182">
        <ele>217.6</ele>
        <time>2020-07-12T05:52:05Z</time>
      </trkpt>
      <trkpt lat="46.39534" lon="2.59178">
        <ele>217.5</ele>
        <time>2020-07-12T05:52:06Z</time>
      </trkpt>
      <trkpt lat="46.39537" lon="2.59173">
        <ele>217.6</ele>
        <time>2020-07-12T05:52:07Z</time>
      </trkpt>
      <trkpt lat="46.3954" lon="2.59168">
        <ele>217.6</ele>
        <time>2020-07-12T05:52:08Z</time>
      </trkpt>
      <trkpt lat="46.39546" lon="2.59158">
        <ele>217.5</ele>
        <time>2020-07-12T05:52:10Z</time>
      </trkpt>
      <trkpt lat="46.39549" lon="2.59153">
        <ele>217.4</ele>
        <time>2020-07-12T05:52:11Z</time>
      </trkpt>
      <trkpt lat="46.39558" lon="2.59139">
        <ele>218.3</ele>
        <time>2020-07-12T05:52:14Z</time>
      </trkpt>
      <trkpt lat="46.39564" lon="2.5913">
        <ele>218.6</ele>
        <time>2020-07-12T05:52:16Z</time>
      </trkpt>
      <trkpt lat="46.39569" lon="2.59121">
        <ele>218.7</ele>
        <time>2020-07-12T05:52:18Z</time>
      </trkpt>
      <trkpt lat="46.39574" lon="2.59113">
        <ele>219.4</ele>
        <time>2020-07-12T05:52:20Z</time>
      </trkpt>
      <trkpt lat="46.39578" lon="2.59104">
        <ele>220.2</ele>
        <time>2020-07-12T05:52:22Z</time>
      </trkpt>
      <trkpt lat="46.39583" lon="2.59096">
        <ele>221</ele>
        <time>2020-07-12T05:52:24Z</time>
      </trkpt>
      <trkpt lat="46.39588" lon="2.59088">
        <ele>221.5</ele>
        <time>2020-07-12T05:52:26Z</time>
      </trkpt>
      <trkpt lat="46.39593" lon="2.59081">
        <ele>221.9</ele>
        <time>2020-07-12T05:52:28Z</time>
      </trkpt>
      <trkpt lat="46.39599" lon="2.59075">
        <ele>222.1</ele>
        <time>2020-07-12T05:52:30Z</time>
      </trkpt>
      <trkpt lat="46.39606" lon="2.59074">
        <ele>223.3</ele>
        <time>2020-07-12T05:52:32Z</time>
      </trkpt>
      <trkpt lat="46.39612" lon="2.59074">
        <ele>223.7</ele>
        <time>2020-07-12T05:52:34Z</time>
      </trkpt>
      <trkpt lat="46.39618" lon="2.59076">
        <ele>224.6</ele>
        <time>2020-07-12T05:52:36Z</time>
      </trkpt>
      <trkpt lat="46.39627" lon="2.59079">
        <ele>226.1</ele>
        <time>2020-07-12T05:52:39Z</time>
      </trkpt>
      <trkpt lat="46.39635" lon="2.59081">
        <ele>226.9</ele>
        <time>2020-07-12T05:52:42Z</time>
      </trkpt>
      <trkpt lat="46.39643" lon="2.59081">
        <ele>228.4</ele>
        <time>2020-07-12T05:52:45Z</time>
      </trkpt>
      <trkpt lat="46.39652" lon="2.59082">
        <ele>229.4</ele>
        <time>2020-07-12T05:52:48Z</time>
      </trkpt>
      <trkpt lat="46.39659" lon="2.59083">
        <ele>230</ele>
        <time>2020-07-12T05:52:50Z</time>
      </trkpt>
      <trkpt lat="46.39666" lon="2.59083">
        <ele>230.7</ele>
        <time>2020-07-12T05:52:52Z</time>
      </trkpt>
      <trkpt lat="46.39673" lon="2.59084">
        <ele>231.3</ele>
        <time>2020-07-12T05:52:54Z</time>
      </trkpt>
      <trkpt lat="46.3968" lon="2.59085">
        <ele>231.7</ele>
        <time>2020-07-12T05:52:56Z</time>
      </trkpt>
      <trkpt lat="46.39688" lon="2.59086">
        <ele>232</ele>
        <time>2020-07-12T05:52:58Z</time>
      </trkpt>
      <trkpt lat="46.39694" lon="2.59088">
        <ele>232.3</ele>
        <time>2020-07-12T05:53:00Z</time>
      </trkpt>
      <trkpt lat="46.39701" lon="2.5909">
        <ele>233</ele>
        <time>2020-07-12T05:53:02Z</time>
      </trkpt>
      <trkpt lat="46.39708" lon="2.59091">
        <ele>233.6</ele>
        <time>2020-07-12T05:53:04Z</time>
      </trkpt>
      <trkpt lat="46.39714" lon="2.59091">
        <ele>233.9</ele>
        <time>2020-07-12T05:53:06Z</time>
      </trkpt>
      <trkpt lat="46.39721" lon="2.59091">
        <ele>233.8</ele>
        <time>2020-07-12T05:53:08Z</time>
      </trkpt>
      <trkpt lat="46.39728" lon="2.59091">
        <ele>234.9</ele>
        <time>2020-07-12T05:53:10Z</time>
      </trkpt>
      <trkpt lat="46.39734" lon="2.59091">
        <ele>235.9</ele>
        <time>2020-07-12T05:53:12Z</time>
      </trkpt>
      <trkpt lat="46.39738" lon="2.59091">
        <ele>236.3</ele>
        <time>2020-07-12T05:53:13Z</time>
      </trkpt>
      <trkpt lat="46.3975" lon="2.59088">
        <ele>237.7</ele>
        <time>2020-07-12T05:53:17Z</time>
      </trkpt>
      <trkpt lat="46.39758" lon="2.59086">
        <ele>238.5</ele>
        <time>2020-07-12T05:53:20Z</time>
      </trkpt>
      <trkpt lat="46.39764" lon="2.59083">
        <ele>238.2</ele>
        <time>2020-07-12T05:53:22Z</time>
      </trkpt>
      <trkpt lat="46.3977" lon="2.59081">
        <ele>239.1</ele>
        <time>2020-07-12T05:53:24Z</time>
      </trkpt>
      <trkpt lat="46.39776" lon="2.59078">
        <ele>239.7</ele>
        <time>2020-07-12T05:53:26Z</time>
      </trkpt>
      <trkpt lat="46.39781" lon="2.59074">
        <ele>240.7</ele>
        <time>2020-07-12T05:53:28Z</time>
      </trkpt>
      <trkpt lat="46.39787" lon="2.5907">
        <ele>241.9</ele>
        <time>2020-07-12T05:53:30Z</time>
      </trkpt>
      <trkpt lat="46.39792" lon="2.59065">
        <ele>242.6</ele>
        <time>2020-07-12T05:53:32Z</time>
      </trkpt>
      <trkpt lat="46.39797" lon="2.5906">
        <ele>243.2</ele>
        <time>2020-07-12T05:53:34Z</time>
      </trkpt>
      <trkpt lat="46.39803" lon="2.59054">
        <ele>243.9</ele>
        <time>2020-07-12T05:53:36Z</time>
      </trkpt>
      <trkpt lat="46.39808" lon="2.59048">
        <ele>244</ele>
        <time>2020-07-12T05:53:38Z</time>
      </trkpt>
      <trkpt lat="46.39813" lon="2.59042">
        <ele>244.3</ele>
        <time>2020-07-12T05:53:40Z</time>
      </trkpt>
      <trkpt lat="46.39819" lon="2.59036">
        <ele>245.2</ele>
        <time>2020-07-12T05:53:42Z</time>
      </trkpt>
      <trkpt lat="46.39825" lon="2.59029">
        <ele>246</ele>
        <time>2020-07-12T05:53:44Z</time>
      </trkpt>
      <trkpt lat="46.3983" lon="2.59023">
        <ele>245.7</ele>
        <time>2020-07-12T05:53:46Z</time>
      </trkpt>
      <trkpt lat="46.39836" lon="2.59016">
        <ele>246.3</ele>
        <time>2020-07-12T05:53:48Z</time>
      </trkpt>
      <trkpt lat="46.39841" lon="2.59009">
        <ele>245.6</ele>
        <time>2020-07-12T05:53:50Z</time>
      </trkpt>
      <trkpt lat="46.39846" lon="2.59002">
        <ele>245.7</ele>
        <time>2020-07-12T05:53:52Z</time>
      </trkpt>
      <trkpt lat="46.39852" lon="2.58995">
        <ele>246.4</ele>
        <time>2020-07-12T05:53:54Z</time>
      </trkpt>
      <trkpt lat="46.39857" lon="2.58987">
        <ele>247</ele>
        <time>2020-07-12T05:53:56Z</time>
      </trkpt>
      <trkpt lat="46.39862" lon="2.58979">
        <ele>247.5</ele>
        <time>2020-07-12T05:53:58Z</time>
      </trkpt>
      <trkpt lat="46.39866" lon="2.58971">
        <ele>248.5</ele>
        <time>2020-07-12T05:54:00Z</time>
      </trkpt>
      <trkpt lat="46.3987" lon="2.58962">
        <ele>248.9</ele>
        <time>2020-07-12T05:54:02Z</time>
      </trkpt>
      <trkpt lat="46.39876" lon="2.58955">
        <ele>249.6</ele>
        <time>2020-07-12T05:54:04Z</time>
      </trkpt>
      <trkpt lat="46.39883" lon="2.58951">
        <ele>250.3</ele>
        <time>2020-07-12T05:54:06Z</time>
      </trkpt>
      <trkpt lat="46.39891" lon="2.58949">
        <ele>250.5</ele>
        <time>2020-07-12T05:54:08Z</time>
      </trkpt>
      <trkpt lat="46.39899" lon="2.58946">
        <ele>250.4</ele>
        <time>2020-07-12T05:54:10Z</time>
      </trkpt>
      <trkpt lat="46.39907" lon="2.58944">
        <ele>250.7</ele>
        <time>2020-07-12T05:54:12Z</time>
      </trkpt>
      <trkpt lat="46.39915" lon="2.58941">
        <ele>250.2</ele>
        <time>2020-07-12T05:54:14Z</time>
      </trkpt>
      <trkpt lat="46.39919" lon="2.58939">
        <ele>250.4</ele>
        <time>2020-07-12T05:54:15Z</time>
      </trkpt>
      <trkpt lat="46.39931" lon="2.58935">
        <ele>250.6</ele>
        <time>2020-07-12T05:54:18Z</time>
      </trkpt>
      <trkpt lat="46.3994" lon="2.58932">
        <ele>250.8</ele>
        <time>2020-07-12T05:54:20Z</time>
      </trkpt>
      <trkpt lat="46.39948" lon="2.5893">
        <ele>251</ele>
        <time>2020-07-12T05:54:22Z</time>
      </trkpt>
      <trkpt lat="46.39956" lon="2.58927">
        <ele>250.9</ele>
        <time>2020-07-12T05:54:24Z</time>
      </trkpt>
      <trkpt lat="46.39965" lon="2.58924">
        <ele>251.6</ele>
        <time>2020-07-12T05:54:26Z</time>
      </trkpt>
      <trkpt lat="46.39973" lon="2.58921">
        <ele>251.7</ele>
        <time>2020-07-12T05:54:28Z</time>
      </trkpt>
      <trkpt lat="46.39982" lon="2.58919">
        <ele>251.9</ele>
        <time>2020-07-12T05:54:30Z</time>
      </trkpt>
      <trkpt lat="46.3999" lon="2.58916">
        <ele>252.6</ele>
        <time>2020-07-12T05:54:32Z</time>
      </trkpt>
      <trkpt lat="46.39999" lon="2.58913">
        <ele>252.9</ele>
        <time>2020-07-12T05:54:34Z</time>
      </trkpt>
      <trkpt lat="46.40007" lon="2.5891">
        <ele>252.8</ele>
        <time>2020-07-12T05:54:36Z</time>
      </trkpt>
      <trkpt lat="46.40016" lon="2.58907">
        <ele>253.4</ele>
        <time>2020-07-12T05:54:38Z</time>
      </trkpt>
      <trkpt lat="46.40024" lon="2.58904">
        <ele>253</ele>
        <time>2020-07-12T05:54:40Z</time>
      </trkpt>
      <trkpt lat="46.40033" lon="2.58901">
        <ele>253</ele>
        <time>2020-07-12T05:54:42Z</time>
      </trkpt>
      <trkpt lat="46.40037" lon="2.589">
        <ele>253</ele>
        <time>2020-07-12T05:54:43Z</time>
      </trkpt>
      <trkpt lat="46.40042" lon="2.58898">
        <ele>253</ele>
        <time>2020-07-12T05:54:44Z</time>
      </trkpt>
      <trkpt lat="46.40046" lon="2.58897">
        <ele>253</ele>
        <time>2020-07-12T05:54:45Z</time>
      </trkpt>
      <trkpt lat="46.40051" lon="2.58895">
        <ele>253.6</ele>
        <time>2020-07-12T05:54:46Z</time>
      </trkpt>
      <trkpt lat="46.40055" lon="2.58894">
        <ele>254</ele>
        <time>2020-07-12T05:54:47Z</time>
      </trkpt>
      <trkpt lat="46.4006" lon="2.58893">
        <ele>254.3</ele>
        <time>2020-07-12T05:54:48Z</time>
      </trkpt>
      <trkpt lat="46.40065" lon="2.58891">
        <ele>254.4</ele>
        <time>2020-07-12T05:54:49Z</time>
      </trkpt>
      <trkpt lat="46.40069" lon="2.5889">
        <ele>254.4</ele>
        <time>2020-07-12T05:54:50Z</time>
      </trkpt>
      <trkpt lat="46.40074" lon="2.58888">
        <ele>254.5</ele>
        <time>2020-07-12T05:54:51Z</time>
      </trkpt>
      <trkpt lat="46.40078" lon="2.58887">
        <ele>254.5</ele>
        <time>2020-07-12T05:54:52Z</time>
      </trkpt>
      <trkpt lat="46.40083" lon="2.58885">
        <ele>254.6</ele>
        <time>2020-07-12T05:54:53Z</time>
      </trkpt>
      <trkpt lat="46.40088" lon="2.58884">
        <ele>254.8</ele>
        <time>2020-07-12T05:54:54Z</time>
      </trkpt>
      <trkpt lat="46.40093" lon="2.58882">
        <ele>254.9</ele>
        <time>2020-07-12T05:54:55Z</time>
      </trkpt>
      <trkpt lat="46.40098" lon="2.5888">
        <ele>254.8</ele>
        <time>2020-07-12T05:54:56Z</time>
      </trkpt>
      <trkpt lat="46.40103" lon="2.58879">
        <ele>254.8</ele>
        <time>2020-07-12T05:54:57Z</time>
      </trkpt>
      <trkpt lat="46.40108" lon="2.58877">
        <ele>254.5</ele>
        <time>2020-07-12T05:54:58Z</time>
      </trkpt>
      <trkpt lat="46.40113" lon="2.58875">
        <ele>254.3</ele>
        <time>2020-07-12T05:54:59Z</time>
      </trkpt>
      <trkpt lat="46.40119" lon="2.58873">
        <ele>254.2</ele>
        <time>2020-07-12T05:55:00Z</time>
      </trkpt>
      <trkpt lat="46.40124" lon="2.58871">
        <ele>254.1</ele>
        <time>2020-07-12T05:55:01Z</time>
      </trkpt>
      <trkpt lat="46.4013" lon="2.58869">
        <ele>254.1</ele>
        <time>2020-07-12T05:55:02Z</time>
      </trkpt>
      <trkpt lat="46.40136" lon="2.58868">
        <ele>254.3</ele>
        <time>2020-07-12T05:55:03Z</time>
      </trkpt>
      <trkpt lat="46.40141" lon="2.58866">
        <ele>254.6</ele>
        <time>2020-07-12T05:55:04Z</time>
      </trkpt>
      <trkpt lat="46.40147" lon="2.58864">
        <ele>254.5</ele>
        <time>2020-07-12T05:55:05Z</time>
      </trkpt>
      <trkpt lat="46.40153" lon="2.58862">
        <ele>254.5</ele>
        <time>2020-07-12T05:55:06Z</time>
      </trkpt>
      <trkpt lat="46.40159" lon="2.5886">
        <ele>254.4</ele>
        <time>2020-07-12T05:55:07Z</time>
      </trkpt>
      <trkpt lat="46.40165" lon="2.58858">
        <ele>253.7</ele>
        <time>2020-07-12T05:55:08Z</time>
      </trkpt>
      <trkpt lat="46.40171" lon="2.58856">
        <ele>253.2</ele>
        <time>2020-07-12T05:55:09Z</time>
      </trkpt>
      <trkpt lat="46.40177" lon="2.58854">
        <ele>252.9</ele>
        <time>2020-07-12T05:55:10Z</time>
      </trkpt>
      <trkpt lat="46.40183" lon="2.58852">
        <ele>252.8</ele>
        <time>2020-07-12T05:55:11Z</time>
      </trkpt>
      <trkpt lat="46.40189" lon="2.5885">
        <ele>252.7</ele>
        <time>2020-07-12T05:55:12Z</time>
      </trkpt>
      <trkpt lat="46.40194" lon="2.58848">
        <ele>252.6</ele>
        <time>2020-07-12T05:55:13Z</time>
      </trkpt>
      <trkpt lat="46.402" lon="2.58846">
        <ele>252.5</ele>
        <time>2020-07-12T05:55:14Z</time>
      </trkpt>
      <trkpt lat="46.40205" lon="2.58845">
        <ele>252.6</ele>
        <time>2020-07-12T05:55:15Z</time>
      </trkpt>
      <trkpt lat="46.40211" lon="2.58843">
        <ele>252.6</ele>
        <time>2020-07-12T05:55:16Z</time>
      </trkpt>
      <trkpt lat="46.40216" lon="2.58841">
        <ele>252.7</ele>
        <time>2020-07-12T05:55:17Z</time>
      </trkpt>
      <trkpt lat="46.40221" lon="2.58839">
        <ele>252.7</ele>
        <time>2020-07-12T05:55:18Z</time>
      </trkpt>
      <trkpt lat="46.40227" lon="2.58838">
        <ele>252.8</ele>
        <time>2020-07-12T05:55:19Z</time>
      </trkpt>
      <trkpt lat="46.40232" lon="2.58836">
        <ele>252.4</ele>
        <time>2020-07-12T05:55:20Z</time>
      </trkpt>
      <trkpt lat="46.40237" lon="2.58835">
        <ele>252.1</ele>
        <time>2020-07-12T05:55:21Z</time>
      </trkpt>
      <trkpt lat="46.40242" lon="2.58833">
        <ele>252.3</ele>
        <time>2020-07-12T05:55:22Z</time>
      </trkpt>
      <trkpt lat="46.40247" lon="2.58831">
        <ele>252.4</ele>
        <time>2020-07-12T05:55:23Z</time>
      </trkpt>
      <trkpt lat="46.40251" lon="2.5883">
        <ele>252.5</ele>
        <time>2020-07-12T05:55:24Z</time>
      </trkpt>
      <trkpt lat="46.40256" lon="2.58829">
        <ele>252.5</ele>
        <time>2020-07-12T05:55:25Z</time>
      </trkpt>
      <trkpt lat="46.40261" lon="2.58827">
        <ele>252.6</ele>
        <time>2020-07-12T05:55:26Z</time>
      </trkpt>
      <trkpt lat="46.40266" lon="2.58826">
        <ele>252.6</ele>
        <time>2020-07-12T05:55:27Z</time>
      </trkpt>
      <trkpt lat="46.40271" lon="2.58826">
        <ele>252.6</ele>
        <time>2020-07-12T05:55:28Z</time>
      </trkpt>
      <trkpt lat="46.40275" lon="2.58825">
        <ele>252.6</ele>
        <time>2020-07-12T05:55:29Z</time>
      </trkpt>
      <trkpt lat="46.4028" lon="2.58824">
        <ele>252.7</ele>
        <time>2020-07-12T05:55:30Z</time>
      </trkpt>
      <trkpt lat="46.40285" lon="2.58824">
        <ele>252.8</ele>
        <time>2020-07-12T05:55:31Z</time>
      </trkpt>
      <trkpt lat="46.4029" lon="2.58823">
        <ele>252.8</ele>
        <time>2020-07-12T05:55:32Z</time>
      </trkpt>
      <trkpt lat="46.40295" lon="2.58822">
        <ele>252.8</ele>
        <time>2020-07-12T05:55:33Z</time>
      </trkpt>
      <trkpt lat="46.403" lon="2.58822">
        <ele>253.1</ele>
        <time>2020-07-12T05:55:34Z</time>
      </trkpt>
      <trkpt lat="46.40305" lon="2.58821">
        <ele>253.2</ele>
        <time>2020-07-12T05:55:35Z</time>
      </trkpt>
      <trkpt lat="46.4031" lon="2.58821">
        <ele>253.1</ele>
        <time>2020-07-12T05:55:36Z</time>
      </trkpt>
      <trkpt lat="46.40315" lon="2.5882">
        <ele>253.1</ele>
        <time>2020-07-12T05:55:37Z</time>
      </trkpt>
      <trkpt lat="46.4032" lon="2.5882">
        <ele>253</ele>
        <time>2020-07-12T05:55:38Z</time>
      </trkpt>
      <trkpt lat="46.40325" lon="2.5882">
        <ele>253.2</ele>
        <time>2020-07-12T05:55:39Z</time>
      </trkpt>
      <trkpt lat="46.40331" lon="2.58819">
        <ele>253.4</ele>
        <time>2020-07-12T05:55:40Z</time>
      </trkpt>
      <trkpt lat="46.40336" lon="2.58819">
        <ele>253.1</ele>
        <time>2020-07-12T05:55:41Z</time>
      </trkpt>
      <trkpt lat="46.40342" lon="2.58818">
        <ele>252.9</ele>
        <time>2020-07-12T05:55:42Z</time>
      </trkpt>
      <trkpt lat="46.40347" lon="2.58818">
        <ele>253.4</ele>
        <time>2020-07-12T05:55:43Z</time>
      </trkpt>
      <trkpt lat="46.40352" lon="2.58817">
        <ele>253.8</ele>
        <time>2020-07-12T05:55:44Z</time>
      </trkpt>
      <trkpt lat="46.40357" lon="2.58817">
        <ele>254</ele>
        <time>2020-07-12T05:55:45Z</time>
      </trkpt>
      <trkpt lat="46.40363" lon="2.58817">
        <ele>253.9</ele>
        <time>2020-07-12T05:55:46Z</time>
      </trkpt>
      <trkpt lat="46.40368" lon="2.58817">
        <ele>253.7</ele>
        <time>2020-07-12T05:55:47Z</time>
      </trkpt>
      <trkpt lat="46.40374" lon="2.58816">
        <ele>253.5</ele>
        <time>2020-07-12T05:55:48Z</time>
      </trkpt>
      <trkpt lat="46.40379" lon="2.58816">
        <ele>253.4</ele>
        <time>2020-07-12T05:55:49Z</time>
      </trkpt>
      <trkpt lat="46.40385" lon="2.58815">
        <ele>252.9</ele>
        <time>2020-07-12T05:55:50Z</time>
      </trkpt>
      <trkpt lat="46.40391" lon="2.58815">
        <ele>252.6</ele>
        <time>2020-07-12T05:55:51Z</time>
      </trkpt>
      <trkpt lat="46.40396" lon="2.58815">
        <ele>252.3</ele>
        <time>2020-07-12T05:55:52Z</time>
      </trkpt>
      <trkpt lat="46.40401" lon="2.58815">
        <ele>252.4</ele>
        <time>2020-07-12T05:55:53Z</time>
      </trkpt>
      <trkpt lat="46.40407" lon="2.58814">
        <ele>252.5</ele>
        <time>2020-07-12T05:55:54Z</time>
      </trkpt>
      <trkpt lat="46.40412" lon="2.58814">
        <ele>252.2</ele>
        <time>2020-07-12T05:55:55Z</time>
      </trkpt>
      <trkpt lat="46.40418" lon="2.58814">
        <ele>251.9</ele>
        <time>2020-07-12T05:55:56Z</time>
      </trkpt>
      <trkpt lat="46.40423" lon="2.58814">
        <ele>251.7</ele>
        <time>2020-07-12T05:55:57Z</time>
      </trkpt>
      <trkpt lat="46.40429" lon="2.58813">
        <ele>251.5</ele>
        <time>2020-07-12T05:55:58Z</time>
      </trkpt>
      <trkpt lat="46.40434" lon="2.58813">
        <ele>251.4</ele>
        <time>2020-07-12T05:55:59Z</time>
      </trkpt>
      <trkpt lat="46.4044" lon="2.58813">
        <ele>251.8</ele>
        <time>2020-07-12T05:56:00Z</time>
      </trkpt>
      <trkpt lat="46.40445" lon="2.58813">
        <ele>252</ele>
        <time>2020-07-12T05:56:01Z</time>
      </trkpt>
      <trkpt lat="46.4045" lon="2.58812">
        <ele>252</ele>
        <time>2020-07-12T05:56:02Z</time>
      </trkpt>
      <trkpt lat="46.40455" lon="2.58812">
        <ele>252</ele>
        <time>2020-07-12T05:56:03Z</time>
      </trkpt>
      <trkpt lat="46.40461" lon="2.58812">
        <ele>252</ele>
        <time>2020-07-12T05:56:04Z</time>
      </trkpt>
      <trkpt lat="46.40466" lon="2.58812">
        <ele>251.7</ele>
        <time>2020-07-12T05:56:05Z</time>
      </trkpt>
      <trkpt lat="46.40471" lon="2.58811">
        <ele>251.5</ele>
        <time>2020-07-12T05:56:06Z</time>
      </trkpt>
      <trkpt lat="46.40476" lon="2.58811">
        <ele>251.6</ele>
        <time>2020-07-12T05:56:07Z</time>
      </trkpt>
      <trkpt lat="46.40481" lon="2.58811">
        <ele>251.6</ele>
        <time>2020-07-12T05:56:08Z</time>
      </trkpt>
      <trkpt lat="46.40486" lon="2.5881">
        <ele>251.4</ele>
        <time>2020-07-12T05:56:09Z</time>
      </trkpt>
      <trkpt lat="46.40491" lon="2.5881">
        <ele>251.2</ele>
        <time>2020-07-12T05:56:10Z</time>
      </trkpt>
      <trkpt lat="46.40496" lon="2.5881">
        <ele>251</ele>
        <time>2020-07-12T05:56:11Z</time>
      </trkpt>
      <trkpt lat="46.40501" lon="2.58809">
        <ele>250.9</ele>
        <time>2020-07-12T05:56:12Z</time>
      </trkpt>
      <trkpt lat="46.40506" lon="2.58809">
        <ele>250.7</ele>
        <time>2020-07-12T05:56:13Z</time>
      </trkpt>
      <trkpt lat="46.40511" lon="2.58809">
        <ele>250.6</ele>
        <time>2020-07-12T05:56:14Z</time>
      </trkpt>
      <trkpt lat="46.40516" lon="2.58808">
        <ele>250.5</ele>
        <time>2020-07-12T05:56:15Z</time>
      </trkpt>
      <trkpt lat="46.40521" lon="2.58808">
        <ele>250.4</ele>
        <time>2020-07-12T05:56:16Z</time>
      </trkpt>
      <trkpt lat="46.40526" lon="2.58808">
        <ele>250.6</ele>
        <time>2020-07-12T05:56:17Z</time>
      </trkpt>
      <trkpt lat="46.40532" lon="2.58808">
        <ele>250.7</ele>
        <time>2020-07-12T05:56:18Z</time>
      </trkpt>
      <trkpt lat="46.40537" lon="2.58808">
        <ele>250.7</ele>
        <time>2020-07-12T05:56:19Z</time>
      </trkpt>
      <trkpt lat="46.40543" lon="2.58807">
        <ele>250.7</ele>
        <time>2020-07-12T05:56:20Z</time>
      </trkpt>
      <trkpt lat="46.40548" lon="2.58807">
        <ele>250.4</ele>
        <time>2020-07-12T05:56:21Z</time>
      </trkpt>
      <trkpt lat="46.40554" lon="2.58807">
        <ele>250.2</ele>
        <time>2020-07-12T05:56:22Z</time>
      </trkpt>
      <trkpt lat="46.4056" lon="2.58807">
        <ele>250</ele>
        <time>2020-07-12T05:56:23Z</time>
      </trkpt>
      <trkpt lat="46.40566" lon="2.58807">
        <ele>250.2</ele>
        <time>2020-07-12T05:56:24Z</time>
      </trkpt>
      <trkpt lat="46.40571" lon="2.58807">
        <ele>250.3</ele>
        <time>2020-07-12T05:56:25Z</time>
      </trkpt>
      <trkpt lat="46.40579" lon="2.58812">
        <ele>249.7</ele>
        <time>2020-07-12T05:56:27Z</time>
      </trkpt>
      <trkpt lat="46.40584" lon="2.58818">
        <ele>248.6</ele>
        <time>2020-07-12T05:56:30Z</time>
      </trkpt>
      <trkpt lat="46.4059" lon="2.58825">
        <ele>248.3</ele>
        <time>2020-07-12T05:56:34Z</time>
      </trkpt>
      <trkpt lat="46.40597" lon="2.58834">
        <ele>248.9</ele>
        <time>2020-07-12T05:56:39Z</time>
      </trkpt>
      <trkpt lat="46.40591" lon="2.58825">
        <ele>247.7</ele>
        <time>2020-07-12T05:59:15Z</time>
      </trkpt>
      <trkpt lat="46.4059" lon="2.58823">
        <ele>247.8</ele>
        <time>2020-07-12T05:59:16Z</time>
      </trkpt>
      <trkpt lat="46.4058" lon="2.58808">
        <ele>247.7</ele>
        <time>2020-07-12T05:59:24Z</time>
      </trkpt>
      <trkpt lat="46.40588" lon="2.58806">
        <ele>247.3</ele>
        <time>2020-07-12T05:59:27Z</time>
      </trkpt>
      <trkpt lat="46.40596" lon="2.58807">
        <ele>247.1</ele>
        <time>2020-07-12T05:59:29Z</time>
      </trkpt>
      <trkpt lat="46.40604" lon="2.58807">
        <ele>246.8</ele>
        <time>2020-07-12T05:59:31Z</time>
      </trkpt>
      <trkpt lat="46.40608" lon="2.58807">
        <ele>246.6</ele>
        <time>2020-07-12T05:59:32Z</time>
      </trkpt>
      <trkpt lat="46.40613" lon="2.58808">
        <ele>246.2</ele>
        <time>2020-07-12T05:59:33Z</time>
      </trkpt>
      <trkpt lat="46.40617" lon="2.58808">
        <ele>245.8</ele>
        <time>2020-07-12T05:59:34Z</time>
      </trkpt>
      <trkpt lat="46.40622" lon="2.58808">
        <ele>245.6</ele>
        <time>2020-07-12T05:59:35Z</time>
      </trkpt>
      <trkpt lat="46.40627" lon="2.58809">
        <ele>245.3</ele>
        <time>2020-07-12T05:59:36Z</time>
      </trkpt>
      <trkpt lat="46.40632" lon="2.58809">
        <ele>245</ele>
        <time>2020-07-12T05:59:37Z</time>
      </trkpt>
      <trkpt lat="46.40637" lon="2.58809">
        <ele>245.2</ele>
        <time>2020-07-12T05:59:38Z</time>
      </trkpt>
      <trkpt lat="46.40642" lon="2.58809">
        <ele>245.2</ele>
        <time>2020-07-12T05:59:39Z</time>
      </trkpt>
      <trkpt lat="46.40648" lon="2.5881">
        <ele>245.3</ele>
        <time>2020-07-12T05:59:40Z</time>
      </trkpt>
      <trkpt lat="46.40653" lon="2.58811">
        <ele>245.2</ele>
        <time>2020-07-12T05:59:41Z</time>
      </trkpt>
      <trkpt lat="46.40659" lon="2.58811">
        <ele>245.1</ele>
        <time>2020-07-12T05:59:42Z</time>
      </trkpt>
      <trkpt lat="46.40664" lon="2.58812">
        <ele>244.8</ele>
        <time>2020-07-12T05:59:43Z</time>
      </trkpt>
      <trkpt lat="46.4067" lon="2.58812">
        <ele>244.6</ele>
        <time>2020-07-12T05:59:44Z</time>
      </trkpt>
      <trkpt lat="46.40675" lon="2.58813">
        <ele>244.5</ele>
        <time>2020-07-12T05:59:45Z</time>
      </trkpt>
      <trkpt lat="46.40681" lon="2.58814">
        <ele>244.4</ele>
        <time>2020-07-12T05:59:46Z</time>
      </trkpt>
      <trkpt lat="46.40686" lon="2.58814">
        <ele>244.4</ele>
        <time>2020-07-12T05:59:47Z</time>
      </trkpt>
      <trkpt lat="46.40692" lon="2.58815">
        <ele>244.1</ele>
        <time>2020-07-12T05:59:48Z</time>
      </trkpt>
      <trkpt lat="46.40698" lon="2.58816">
        <ele>243.9</ele>
        <time>2020-07-12T05:59:49Z</time>
      </trkpt>
      <trkpt lat="46.40702" lon="2.58819">
        <ele>243.8</ele>
        <time>2020-07-12T05:59:50Z</time>
      </trkpt>
      <trkpt lat="46.40706" lon="2.58825">
        <ele>243.7</ele>
        <time>2020-07-12T05:59:51Z</time>
      </trkpt>
      <trkpt lat="46.40709" lon="2.58832">
        <ele>242.9</ele>
        <time>2020-07-12T05:59:52Z</time>
      </trkpt>
      <trkpt lat="46.40711" lon="2.5884">
        <ele>242.4</ele>
        <time>2020-07-12T05:59:53Z</time>
      </trkpt>
      <trkpt lat="46.40713" lon="2.58847">
        <ele>242</ele>
        <time>2020-07-12T05:59:54Z</time>
      </trkpt>
      <trkpt lat="46.40715" lon="2.58854">
        <ele>242.4</ele>
        <time>2020-07-12T05:59:55Z</time>
      </trkpt>
      <trkpt lat="46.40717" lon="2.58861">
        <ele>242.8</ele>
        <time>2020-07-12T05:59:56Z</time>
      </trkpt>
      <trkpt lat="46.40718" lon="2.58868">
        <ele>242.7</ele>
        <time>2020-07-12T05:59:57Z</time>
      </trkpt>
      <trkpt lat="46.4072" lon="2.58875">
        <ele>242.7</ele>
        <time>2020-07-12T05:59:58Z</time>
      </trkpt>
      <trkpt lat="46.40722" lon="2.58882">
        <ele>242.6</ele>
        <time>2020-07-12T05:59:59Z</time>
      </trkpt>
      <trkpt lat="46.40724" lon="2.58889">
        <ele>242.6</ele>
        <time>2020-07-12T06:00:00Z</time>
      </trkpt>
      <trkpt lat="46.40726" lon="2.58896">
        <ele>242.6</ele>
        <time>2020-07-12T06:00:01Z</time>
      </trkpt>
      <trkpt lat="46.40727" lon="2.58903">
        <ele>242.5</ele>
        <time>2020-07-12T06:00:02Z</time>
      </trkpt>
      <trkpt lat="46.40728" lon="2.5891">
        <ele>242.5</ele>
        <time>2020-07-12T06:00:03Z</time>
      </trkpt>
      <trkpt lat="46.4073" lon="2.58916">
        <ele>242.3</ele>
        <time>2020-07-12T06:00:04Z</time>
      </trkpt>
      <trkpt lat="46.40732" lon="2.58922">
        <ele>242.1</ele>
        <time>2020-07-12T06:00:05Z</time>
      </trkpt>
      <trkpt lat="46.40735" lon="2.58928">
        <ele>241.9</ele>
        <time>2020-07-12T06:00:06Z</time>
      </trkpt>
      <trkpt lat="46.40736" lon="2.58935">
        <ele>241.5</ele>
        <time>2020-07-12T06:00:07Z</time>
      </trkpt>
      <trkpt lat="46.40738" lon="2.58941">
        <ele>241.3</ele>
        <time>2020-07-12T06:00:08Z</time>
      </trkpt>
      <trkpt lat="46.40741" lon="2.58953">
        <ele>240.9</ele>
        <time>2020-07-12T06:00:10Z</time>
      </trkpt>
      <trkpt lat="46.40744" lon="2.58965">
        <ele>241.9</ele>
        <time>2020-07-12T06:00:12Z</time>
      </trkpt>
      <trkpt lat="46.40747" lon="2.58977">
        <ele>241.6</ele>
        <time>2020-07-12T06:00:14Z</time>
      </trkpt>
      <trkpt lat="46.40749" lon="2.58983">
        <ele>241.2</ele>
        <time>2020-07-12T06:00:15Z</time>
      </trkpt>
      <trkpt lat="46.40751" lon="2.5899">
        <ele>241.2</ele>
        <time>2020-07-12T06:00:16Z</time>
      </trkpt>
      <trkpt lat="46.40752" lon="2.58996">
        <ele>241.2</ele>
        <time>2020-07-12T06:00:17Z</time>
      </trkpt>
      <trkpt lat="46.40754" lon="2.59003">
        <ele>241.2</ele>
        <time>2020-07-12T06:00:18Z</time>
      </trkpt>
      <trkpt lat="46.40756" lon="2.59009">
        <ele>241</ele>
        <time>2020-07-12T06:00:19Z</time>
      </trkpt>
      <trkpt lat="46.40758" lon="2.59016">
        <ele>240.9</ele>
        <time>2020-07-12T06:00:20Z</time>
      </trkpt>
      <trkpt lat="46.40759" lon="2.59023">
        <ele>240.9</ele>
        <time>2020-07-12T06:00:21Z</time>
      </trkpt>
      <trkpt lat="46.40761" lon="2.5903">
        <ele>240.8</ele>
        <time>2020-07-12T06:00:22Z</time>
      </trkpt>
      <trkpt lat="46.40763" lon="2.59037">
        <ele>240.5</ele>
        <time>2020-07-12T06:00:23Z</time>
      </trkpt>
      <trkpt lat="46.40765" lon="2.59044">
        <ele>240.3</ele>
        <time>2020-07-12T06:00:24Z</time>
      </trkpt>
      <trkpt lat="46.40767" lon="2.59052">
        <ele>240.1</ele>
        <time>2020-07-12T06:00:25Z</time>
      </trkpt>
      <trkpt lat="46.40769" lon="2.59059">
        <ele>240</ele>
        <time>2020-07-12T06:00:26Z</time>
      </trkpt>
      <trkpt lat="46.40771" lon="2.59067">
        <ele>240</ele>
        <time>2020-07-12T06:00:27Z</time>
      </trkpt>
      <trkpt lat="46.40773" lon="2.59075">
        <ele>239.4</ele>
        <time>2020-07-12T06:00:28Z</time>
      </trkpt>
      <trkpt lat="46.40775" lon="2.59082">
        <ele>239</ele>
        <time>2020-07-12T06:00:29Z</time>
      </trkpt>
      <trkpt lat="46.40777" lon="2.5909">
        <ele>239</ele>
        <time>2020-07-12T06:00:30Z</time>
      </trkpt>
      <trkpt lat="46.40778" lon="2.59098">
        <ele>238.9</ele>
        <time>2020-07-12T06:00:31Z</time>
      </trkpt>
      <trkpt lat="46.4078" lon="2.59106">
        <ele>238.9</ele>
        <time>2020-07-12T06:00:32Z</time>
      </trkpt>
      <trkpt lat="46.40781" lon="2.59114">
        <ele>239.2</ele>
        <time>2020-07-12T06:00:33Z</time>
      </trkpt>
      <trkpt lat="46.40781" lon="2.59121">
        <ele>239.4</ele>
        <time>2020-07-12T06:00:34Z</time>
      </trkpt>
      <trkpt lat="46.40781" lon="2.59129">
        <ele>239</ele>
        <time>2020-07-12T06:00:35Z</time>
      </trkpt>
      <trkpt lat="46.40782" lon="2.59136">
        <ele>238.6</ele>
        <time>2020-07-12T06:00:36Z</time>
      </trkpt>
      <trkpt lat="46.40782" lon="2.59142">
        <ele>238.4</ele>
        <time>2020-07-12T06:00:37Z</time>
      </trkpt>
      <trkpt lat="46.40782" lon="2.59149">
        <ele>238.2</ele>
        <time>2020-07-12T06:00:38Z</time>
      </trkpt>
      <trkpt lat="46.40781" lon="2.59156">
        <ele>238.1</ele>
        <time>2020-07-12T06:00:39Z</time>
      </trkpt>
      <trkpt lat="46.40781" lon="2.59163">
        <ele>238.2</ele>
        <time>2020-07-12T06:00:40Z</time>
      </trkpt>
      <trkpt lat="46.40781" lon="2.5917">
        <ele>238.3</ele>
        <time>2020-07-12T06:00:41Z</time>
      </trkpt>
      <trkpt lat="46.40781" lon="2.59176">
        <ele>238</ele>
        <time>2020-07-12T06:00:42Z</time>
      </trkpt>
      <trkpt lat="46.4078" lon="2.59183">
        <ele>237.9</ele>
        <time>2020-07-12T06:00:43Z</time>
      </trkpt>
      <trkpt lat="46.4078" lon="2.5919">
        <ele>237.7</ele>
        <time>2020-07-12T06:00:44Z</time>
      </trkpt>
      <trkpt lat="46.40779" lon="2.59197">
        <ele>237.8</ele>
        <time>2020-07-12T06:00:45Z</time>
      </trkpt>
      <trkpt lat="46.40779" lon="2.59204">
        <ele>237.9</ele>
        <time>2020-07-12T06:00:46Z</time>
      </trkpt>
      <trkpt lat="46.40779" lon="2.59211">
        <ele>238</ele>
        <time>2020-07-12T06:00:47Z</time>
      </trkpt>
      <trkpt lat="46.40779" lon="2.59218">
        <ele>238</ele>
        <time>2020-07-12T06:00:48Z</time>
      </trkpt>
      <trkpt lat="46.4078" lon="2.59225">
        <ele>238.2</ele>
        <time>2020-07-12T06:00:49Z</time>
      </trkpt>
      <trkpt lat="46.4078" lon="2.59233">
        <ele>238.4</ele>
        <time>2020-07-12T06:00:50Z</time>
      </trkpt>
      <trkpt lat="46.40781" lon="2.5924">
        <ele>238.5</ele>
        <time>2020-07-12T06:00:51Z</time>
      </trkpt>
      <trkpt lat="46.40782" lon="2.59248">
        <ele>237.9</ele>
        <time>2020-07-12T06:00:52Z</time>
      </trkpt>
      <trkpt lat="46.40783" lon="2.59255">
        <ele>237.5</ele>
        <time>2020-07-12T06:00:53Z</time>
      </trkpt>
      <trkpt lat="46.40784" lon="2.59263">
        <ele>237.5</ele>
        <time>2020-07-12T06:00:54Z</time>
      </trkpt>
      <trkpt lat="46.40786" lon="2.5927">
        <ele>237.6</ele>
        <time>2020-07-12T06:00:55Z</time>
      </trkpt>
      <trkpt lat="46.40789" lon="2.59277">
        <ele>237.6</ele>
        <time>2020-07-12T06:00:56Z</time>
      </trkpt>
      <trkpt lat="46.40793" lon="2.59282">
        <ele>237.3</ele>
        <time>2020-07-12T06:00:57Z</time>
      </trkpt>
      <trkpt lat="46.40798" lon="2.59286">
        <ele>237.2</ele>
        <time>2020-07-12T06:00:58Z</time>
      </trkpt>
      <trkpt lat="46.40804" lon="2.59292">
        <ele>237</ele>
        <time>2020-07-12T06:00:59Z</time>
      </trkpt>
      <trkpt lat="46.40808" lon="2.59298">
        <ele>236.9</ele>
        <time>2020-07-12T06:01:00Z</time>
      </trkpt>
      <trkpt lat="46.40812" lon="2.59304">
        <ele>236.7</ele>
        <time>2020-07-12T06:01:01Z</time>
      </trkpt>
      <trkpt lat="46.40817" lon="2.5931">
        <ele>236.6</ele>
        <time>2020-07-12T06:01:02Z</time>
      </trkpt>
      <trkpt lat="46.40823" lon="2.59313">
        <ele>236.6</ele>
        <time>2020-07-12T06:01:03Z</time>
      </trkpt>
      <trkpt lat="46.40831" lon="2.59314">
        <ele>235.8</ele>
        <time>2020-07-12T06:01:04Z</time>
      </trkpt>
      <trkpt lat="46.40838" lon="2.59314">
        <ele>235.2</ele>
        <time>2020-07-12T06:01:05Z</time>
      </trkpt>
      <trkpt lat="46.40845" lon="2.59315">
        <ele>234.7</ele>
        <time>2020-07-12T06:01:06Z</time>
      </trkpt>
      <trkpt lat="46.40853" lon="2.59316">
        <ele>234.4</ele>
        <time>2020-07-12T06:01:07Z</time>
      </trkpt>
      <trkpt lat="46.40861" lon="2.59317">
        <ele>234</ele>
        <time>2020-07-12T06:01:08Z</time>
      </trkpt>
      <trkpt lat="46.40869" lon="2.59317">
        <ele>233.7</ele>
        <time>2020-07-12T06:01:09Z</time>
      </trkpt>
      <trkpt lat="46.40877" lon="2.59318">
        <ele>233.5</ele>
        <time>2020-07-12T06:01:10Z</time>
      </trkpt>
      <trkpt lat="46.40885" lon="2.59318">
        <ele>233</ele>
        <time>2020-07-12T06:01:11Z</time>
      </trkpt>
      <trkpt lat="46.40893" lon="2.59318">
        <ele>232.7</ele>
        <time>2020-07-12T06:01:12Z</time>
      </trkpt>
      <trkpt lat="46.40901" lon="2.59319">
        <ele>231.8</ele>
        <time>2020-07-12T06:01:13Z</time>
      </trkpt>
      <trkpt lat="46.4091" lon="2.5932">
        <ele>231.1</ele>
        <time>2020-07-12T06:01:14Z</time>
      </trkpt>
      <trkpt lat="46.40919" lon="2.59321">
        <ele>230.9</ele>
        <time>2020-07-12T06:01:15Z</time>
      </trkpt>
      <trkpt lat="46.40927" lon="2.59321">
        <ele>230.7</ele>
        <time>2020-07-12T06:01:16Z</time>
      </trkpt>
      <trkpt lat="46.40936" lon="2.59322">
        <ele>230.6</ele>
        <time>2020-07-12T06:01:17Z</time>
      </trkpt>
      <trkpt lat="46.40946" lon="2.59322">
        <ele>230.4</ele>
        <time>2020-07-12T06:01:18Z</time>
      </trkpt>
      <trkpt lat="46.40955" lon="2.59322">
        <ele>230.2</ele>
        <time>2020-07-12T06:01:19Z</time>
      </trkpt>
      <trkpt lat="46.40964" lon="2.59323">
        <ele>229.6</ele>
        <time>2020-07-12T06:01:20Z</time>
      </trkpt>
      <trkpt lat="46.40974" lon="2.59323">
        <ele>229.1</ele>
        <time>2020-07-12T06:01:21Z</time>
      </trkpt>
      <trkpt lat="46.40983" lon="2.59323">
        <ele>228.8</ele>
        <time>2020-07-12T06:01:22Z</time>
      </trkpt>
      <trkpt lat="46.40993" lon="2.59322">
        <ele>227.9</ele>
        <time>2020-07-12T06:01:23Z</time>
      </trkpt>
      <trkpt lat="46.41003" lon="2.59322">
        <ele>227.3</ele>
        <time>2020-07-12T06:01:24Z</time>
      </trkpt>
      <trkpt lat="46.41013" lon="2.59322">
        <ele>226.1</ele>
        <time>2020-07-12T06:01:25Z</time>
      </trkpt>
      <trkpt lat="46.41022" lon="2.59321">
        <ele>225.2</ele>
        <time>2020-07-12T06:01:26Z</time>
      </trkpt>
      <trkpt lat="46.41032" lon="2.5932">
        <ele>224.9</ele>
        <time>2020-07-12T06:01:27Z</time>
      </trkpt>
      <trkpt lat="46.41042" lon="2.59317">
        <ele>224.7</ele>
        <time>2020-07-12T06:01:28Z</time>
      </trkpt>
      <trkpt lat="46.41051" lon="2.59314">
        <ele>224.6</ele>
        <time>2020-07-12T06:01:29Z</time>
      </trkpt>
      <trkpt lat="46.4106" lon="2.59311">
        <ele>223.9</ele>
        <time>2020-07-12T06:01:30Z</time>
      </trkpt>
      <trkpt lat="46.41069" lon="2.59308">
        <ele>223.3</ele>
        <time>2020-07-12T06:01:31Z</time>
      </trkpt>
      <trkpt lat="46.41078" lon="2.59306">
        <ele>222.6</ele>
        <time>2020-07-12T06:01:32Z</time>
      </trkpt>
      <trkpt lat="46.41087" lon="2.59304">
        <ele>222.1</ele>
        <time>2020-07-12T06:01:33Z</time>
      </trkpt>
      <trkpt lat="46.41096" lon="2.59304">
        <ele>221.2</ele>
        <time>2020-07-12T06:01:34Z</time>
      </trkpt>
      <trkpt lat="46.41105" lon="2.59305">
        <ele>220.6</ele>
        <time>2020-07-12T06:01:35Z</time>
      </trkpt>
      <trkpt lat="46.41114" lon="2.59308">
        <ele>220.1</ele>
        <time>2020-07-12T06:01:36Z</time>
      </trkpt>
      <trkpt lat="46.41122" lon="2.59313">
        <ele>219.8</ele>
        <time>2020-07-12T06:01:37Z</time>
      </trkpt>
      <trkpt lat="46.41129" lon="2.59317">
        <ele>219.6</ele>
        <time>2020-07-12T06:01:38Z</time>
      </trkpt>
      <trkpt lat="46.41137" lon="2.59322">
        <ele>219.2</ele>
        <time>2020-07-12T06:01:39Z</time>
      </trkpt>
      <trkpt lat="46.41144" lon="2.59328">
        <ele>219</ele>
        <time>2020-07-12T06:01:40Z</time>
      </trkpt>
      <trkpt lat="46.41152" lon="2.59332">
        <ele>218.8</ele>
        <time>2020-07-12T06:01:41Z</time>
      </trkpt>
      <trkpt lat="46.41158" lon="2.59337">
        <ele>218.5</ele>
        <time>2020-07-12T06:01:42Z</time>
      </trkpt>
      <trkpt lat="46.41165" lon="2.59342">
        <ele>218.3</ele>
        <time>2020-07-12T06:01:43Z</time>
      </trkpt>
      <trkpt lat="46.41172" lon="2.59347">
        <ele>218.1</ele>
        <time>2020-07-12T06:01:44Z</time>
      </trkpt>
      <trkpt lat="46.41179" lon="2.59351">
        <ele>217.9</ele>
        <time>2020-07-12T06:01:45Z</time>
      </trkpt>
      <trkpt lat="46.41185" lon="2.59356">
        <ele>217.7</ele>
        <time>2020-07-12T06:01:46Z</time>
      </trkpt>
      <trkpt lat="46.41191" lon="2.5936">
        <ele>217.5</ele>
        <time>2020-07-12T06:01:47Z</time>
      </trkpt>
      <trkpt lat="46.41197" lon="2.59365">
        <ele>217.4</ele>
        <time>2020-07-12T06:01:48Z</time>
      </trkpt>
      <trkpt lat="46.41203" lon="2.59369">
        <ele>216.8</ele>
        <time>2020-07-12T06:01:49Z</time>
      </trkpt>
      <trkpt lat="46.41209" lon="2.59373">
        <ele>216.4</ele>
        <time>2020-07-12T06:01:50Z</time>
      </trkpt>
      <trkpt lat="46.41214" lon="2.59377">
        <ele>215.9</ele>
        <time>2020-07-12T06:01:51Z</time>
      </trkpt>
      <trkpt lat="46.4122" lon="2.59381">
        <ele>215.5</ele>
        <time>2020-07-12T06:01:52Z</time>
      </trkpt>
      <trkpt lat="46.41225" lon="2.59385">
        <ele>215.3</ele>
        <time>2020-07-12T06:01:53Z</time>
      </trkpt>
      <trkpt lat="46.4123" lon="2.59388">
        <ele>215.1</ele>
        <time>2020-07-12T06:01:54Z</time>
      </trkpt>
      <trkpt lat="46.41236" lon="2.59391">
        <ele>214.9</ele>
        <time>2020-07-12T06:01:55Z</time>
      </trkpt>
      <trkpt lat="46.4124" lon="2.59394">
        <ele>214.9</ele>
        <time>2020-07-12T06:01:56Z</time>
      </trkpt>
      <trkpt lat="46.41245" lon="2.59396">
        <ele>214.9</ele>
        <time>2020-07-12T06:01:57Z</time>
      </trkpt>
      <trkpt lat="46.41249" lon="2.59398">
        <ele>215</ele>
        <time>2020-07-12T06:01:58Z</time>
      </trkpt>
      <trkpt lat="46.41258" lon="2.59401">
        <ele>215.1</ele>
        <time>2020-07-12T06:02:00Z</time>
      </trkpt>
      <trkpt lat="46.41266" lon="2.59403">
        <ele>214.5</ele>
        <time>2020-07-12T06:02:02Z</time>
      </trkpt>
      <trkpt lat="46.41274" lon="2.59405">
        <ele>213.9</ele>
        <time>2020-07-12T06:02:04Z</time>
      </trkpt>
      <trkpt lat="46.41282" lon="2.59409">
        <ele>214.1</ele>
        <time>2020-07-12T06:02:06Z</time>
      </trkpt>
      <trkpt lat="46.41285" lon="2.5942">
        <ele>214.4</ele>
        <time>2020-07-12T06:02:08Z</time>
      </trkpt>
      <trkpt lat="46.41284" lon="2.59432">
        <ele>215.3</ele>
        <time>2020-07-12T06:02:10Z</time>
      </trkpt>
      <trkpt lat="46.41283" lon="2.59439">
        <ele>215.9</ele>
        <time>2020-07-12T06:02:11Z</time>
      </trkpt>
      <trkpt lat="46.41282" lon="2.59446">
        <ele>215.4</ele>
        <time>2020-07-12T06:02:12Z</time>
      </trkpt>
      <trkpt lat="46.41282" lon="2.59454">
        <ele>215</ele>
        <time>2020-07-12T06:02:13Z</time>
      </trkpt>
      <trkpt lat="46.41281" lon="2.59461">
        <ele>214.7</ele>
        <time>2020-07-12T06:02:14Z</time>
      </trkpt>
      <trkpt lat="46.4128" lon="2.59468">
        <ele>214.6</ele>
        <time>2020-07-12T06:02:15Z</time>
      </trkpt>
      <trkpt lat="46.41279" lon="2.59476">
        <ele>214.6</ele>
        <time>2020-07-12T06:02:16Z</time>
      </trkpt>
      <trkpt lat="46.41278" lon="2.59484">
        <ele>214.3</ele>
        <time>2020-07-12T06:02:17Z</time>
      </trkpt>
      <trkpt lat="46.41278" lon="2.59492">
        <ele>214.1</ele>
        <time>2020-07-12T06:02:18Z</time>
      </trkpt>
      <trkpt lat="46.41277" lon="2.59499">
        <ele>213.9</ele>
        <time>2020-07-12T06:02:19Z</time>
      </trkpt>
      <trkpt lat="46.41276" lon="2.59507">
        <ele>213.8</ele>
        <time>2020-07-12T06:02:20Z</time>
      </trkpt>
      <trkpt lat="46.41275" lon="2.59515">
        <ele>213.7</ele>
        <time>2020-07-12T06:02:21Z</time>
      </trkpt>
      <trkpt lat="46.41274" lon="2.59522">
        <ele>214.1</ele>
        <time>2020-07-12T06:02:22Z</time>
      </trkpt>
      <trkpt lat="46.41274" lon="2.5953">
        <ele>214.4</ele>
        <time>2020-07-12T06:02:23Z</time>
      </trkpt>
      <trkpt lat="46.41273" lon="2.59538">
        <ele>214</ele>
        <time>2020-07-12T06:02:24Z</time>
      </trkpt>
      <trkpt lat="46.41272" lon="2.59545">
        <ele>213.7</ele>
        <time>2020-07-12T06:02:25Z</time>
      </trkpt>
      <trkpt lat="46.41271" lon="2.59553">
        <ele>213.5</ele>
        <time>2020-07-12T06:02:26Z</time>
      </trkpt>
      <trkpt lat="46.4127" lon="2.5956">
        <ele>213.2</ele>
        <time>2020-07-12T06:02:27Z</time>
      </trkpt>
      <trkpt lat="46.41269" lon="2.59568">
        <ele>213</ele>
        <time>2020-07-12T06:02:28Z</time>
      </trkpt>
      <trkpt lat="46.41269" lon="2.59576">
        <ele>212.8</ele>
        <time>2020-07-12T06:02:29Z</time>
      </trkpt>
      <trkpt lat="46.41268" lon="2.59583">
        <ele>212.7</ele>
        <time>2020-07-12T06:02:30Z</time>
      </trkpt>
      <trkpt lat="46.41268" lon="2.59591">
        <ele>212.6</ele>
        <time>2020-07-12T06:02:31Z</time>
      </trkpt>
      <trkpt lat="46.41268" lon="2.59599">
        <ele>212.5</ele>
        <time>2020-07-12T06:02:32Z</time>
      </trkpt>
      <trkpt lat="46.41267" lon="2.59607">
        <ele>212.5</ele>
        <time>2020-07-12T06:02:33Z</time>
      </trkpt>
      <trkpt lat="46.41267" lon="2.59614">
        <ele>212.2</ele>
        <time>2020-07-12T06:02:34Z</time>
      </trkpt>
      <trkpt lat="46.41267" lon="2.59622">
        <ele>212</ele>
        <time>2020-07-12T06:02:35Z</time>
      </trkpt>
      <trkpt lat="46.41268" lon="2.59629">
        <ele>212.2</ele>
        <time>2020-07-12T06:02:36Z</time>
      </trkpt>
      <trkpt lat="46.41269" lon="2.59637">
        <ele>212.3</ele>
        <time>2020-07-12T06:02:37Z</time>
      </trkpt>
      <trkpt lat="46.4127" lon="2.59644">
        <ele>212.4</ele>
        <time>2020-07-12T06:02:38Z</time>
      </trkpt>
      <trkpt lat="46.41271" lon="2.59652">
        <ele>212.3</ele>
        <time>2020-07-12T06:02:39Z</time>
      </trkpt>
      <trkpt lat="46.41272" lon="2.5966">
        <ele>212.2</ele>
        <time>2020-07-12T06:02:40Z</time>
      </trkpt>
      <trkpt lat="46.41273" lon="2.59668">
        <ele>212.5</ele>
        <time>2020-07-12T06:02:41Z</time>
      </trkpt>
      <trkpt lat="46.41275" lon="2.59675">
        <ele>212.7</ele>
        <time>2020-07-12T06:02:42Z</time>
      </trkpt>
      <trkpt lat="46.41276" lon="2.59683">
        <ele>212.4</ele>
        <time>2020-07-12T06:02:43Z</time>
      </trkpt>
      <trkpt lat="46.41278" lon="2.5969">
        <ele>212.3</ele>
        <time>2020-07-12T06:02:44Z</time>
      </trkpt>
      <trkpt lat="46.41281" lon="2.59697">
        <ele>212.1</ele>
        <time>2020-07-12T06:02:45Z</time>
      </trkpt>
      <trkpt lat="46.41283" lon="2.59704">
        <ele>212.4</ele>
        <time>2020-07-12T06:02:46Z</time>
      </trkpt>
      <trkpt lat="46.41286" lon="2.59711">
        <ele>212.6</ele>
        <time>2020-07-12T06:02:47Z</time>
      </trkpt>
      <trkpt lat="46.41288" lon="2.59718">
        <ele>212.5</ele>
        <time>2020-07-12T06:02:48Z</time>
      </trkpt>
      <trkpt lat="46.41291" lon="2.59725">
        <ele>212.5</ele>
        <time>2020-07-12T06:02:49Z</time>
      </trkpt>
      <trkpt lat="46.41294" lon="2.59731">
        <ele>212.1</ele>
        <time>2020-07-12T06:02:50Z</time>
      </trkpt>
      <trkpt lat="46.41298" lon="2.59738">
        <ele>211.9</ele>
        <time>2020-07-12T06:02:51Z</time>
      </trkpt>
      <trkpt lat="46.41301" lon="2.59744">
        <ele>211.7</ele>
        <time>2020-07-12T06:02:52Z</time>
      </trkpt>
      <trkpt lat="46.41304" lon="2.5975">
        <ele>211.6</ele>
        <time>2020-07-12T06:02:53Z</time>
      </trkpt>
      <trkpt lat="46.41307" lon="2.59756">
        <ele>211.6</ele>
        <time>2020-07-12T06:02:54Z</time>
      </trkpt>
      <trkpt lat="46.41311" lon="2.59762">
        <ele>211.6</ele>
        <time>2020-07-12T06:02:55Z</time>
      </trkpt>
      <trkpt lat="46.41314" lon="2.59768">
        <ele>211.5</ele>
        <time>2020-07-12T06:02:56Z</time>
      </trkpt>
      <trkpt lat="46.41317" lon="2.59774">
        <ele>211.7</ele>
        <time>2020-07-12T06:02:57Z</time>
      </trkpt>
      <trkpt lat="46.41321" lon="2.5978">
        <ele>211.8</ele>
        <time>2020-07-12T06:02:58Z</time>
      </trkpt>
      <trkpt lat="46.41324" lon="2.59786">
        <ele>211.9</ele>
        <time>2020-07-12T06:02:59Z</time>
      </trkpt>
      <trkpt lat="46.41327" lon="2.59792">
        <ele>211.7</ele>
        <time>2020-07-12T06:03:00Z</time>
      </trkpt>
      <trkpt lat="46.4133" lon="2.59798">
        <ele>211.6</ele>
        <time>2020-07-12T06:03:01Z</time>
      </trkpt>
      <trkpt lat="46.41334" lon="2.59805">
        <ele>211</ele>
        <time>2020-07-12T06:03:02Z</time>
      </trkpt>
      <trkpt lat="46.41337" lon="2.59811">
        <ele>210.6</ele>
        <time>2020-07-12T06:03:03Z</time>
      </trkpt>
      <trkpt lat="46.41341" lon="2.59817">
        <ele>210.2</ele>
        <time>2020-07-12T06:03:04Z</time>
      </trkpt>
      <trkpt lat="46.41344" lon="2.59823">
        <ele>210.1</ele>
        <time>2020-07-12T06:03:05Z</time>
      </trkpt>
      <trkpt lat="46.41347" lon="2.5983">
        <ele>210.1</ele>
        <time>2020-07-12T06:03:06Z</time>
      </trkpt>
      <trkpt lat="46.41351" lon="2.59836">
        <ele>210.1</ele>
        <time>2020-07-12T06:03:07Z</time>
      </trkpt>
      <trkpt lat="46.41354" lon="2.59842">
        <ele>210.1</ele>
        <time>2020-07-12T06:03:08Z</time>
      </trkpt>
      <trkpt lat="46.41358" lon="2.59849">
        <ele>209.9</ele>
        <time>2020-07-12T06:03:09Z</time>
      </trkpt>
      <trkpt lat="46.41361" lon="2.59855">
        <ele>209.7</ele>
        <time>2020-07-12T06:03:10Z</time>
      </trkpt>
      <trkpt lat="46.41364" lon="2.59861">
        <ele>209.5</ele>
        <time>2020-07-12T06:03:11Z</time>
      </trkpt>
      <trkpt lat="46.41368" lon="2.59868">
        <ele>209.5</ele>
        <time>2020-07-12T06:03:12Z</time>
      </trkpt>
      <trkpt lat="46.41372" lon="2.59874">
        <ele>209.4</ele>
        <time>2020-07-12T06:03:13Z</time>
      </trkpt>
      <trkpt lat="46.41375" lon="2.5988">
        <ele>209.3</ele>
        <time>2020-07-12T06:03:14Z</time>
      </trkpt>
      <trkpt lat="46.41379" lon="2.59887">
        <ele>209.1</ele>
        <time>2020-07-12T06:03:15Z</time>
      </trkpt>
      <trkpt lat="46.41383" lon="2.59893">
        <ele>209</ele>
        <time>2020-07-12T06:03:16Z</time>
      </trkpt>
      <trkpt lat="46.41387" lon="2.59898">
        <ele>208.9</ele>
        <time>2020-07-12T06:03:17Z</time>
      </trkpt>
      <trkpt lat="46.41391" lon="2.59903">
        <ele>208.8</ele>
        <time>2020-07-12T06:03:18Z</time>
      </trkpt>
      <trkpt lat="46.41395" lon="2.59908">
        <ele>208.9</ele>
        <time>2020-07-12T06:03:19Z</time>
      </trkpt>
      <trkpt lat="46.414" lon="2.59912">
        <ele>208.9</ele>
        <time>2020-07-12T06:03:20Z</time>
      </trkpt>
      <trkpt lat="46.41404" lon="2.59916">
        <ele>208.8</ele>
        <time>2020-07-12T06:03:21Z</time>
      </trkpt>
      <trkpt lat="46.41409" lon="2.5992">
        <ele>208.7</ele>
        <time>2020-07-12T06:03:22Z</time>
      </trkpt>
      <trkpt lat="46.41413" lon="2.59924">
        <ele>208.6</ele>
        <time>2020-07-12T06:03:23Z</time>
      </trkpt>
      <trkpt lat="46.41417" lon="2.59928">
        <ele>208.6</ele>
        <time>2020-07-12T06:03:24Z</time>
      </trkpt>
      <trkpt lat="46.41421" lon="2.59932">
        <ele>208.5</ele>
        <time>2020-07-12T06:03:25Z</time>
      </trkpt>
      <trkpt lat="46.41425" lon="2.59937">
        <ele>208.3</ele>
        <time>2020-07-12T06:03:26Z</time>
      </trkpt>
      <trkpt lat="46.41428" lon="2.59943">
        <ele>208.2</ele>
        <time>2020-07-12T06:03:27Z</time>
      </trkpt>
      <trkpt lat="46.41429" lon="2.59949">
        <ele>208</ele>
        <time>2020-07-12T06:03:28Z</time>
      </trkpt>
      <trkpt lat="46.4143" lon="2.59956">
        <ele>207.9</ele>
        <time>2020-07-12T06:03:29Z</time>
      </trkpt>
      <trkpt lat="46.41431" lon="2.59963">
        <ele>207.9</ele>
        <time>2020-07-12T06:03:30Z</time>
      </trkpt>
      <trkpt lat="46.41432" lon="2.5997">
        <ele>207.5</ele>
        <time>2020-07-12T06:03:31Z</time>
      </trkpt>
      <trkpt lat="46.41432" lon="2.59978">
        <ele>207.2</ele>
        <time>2020-07-12T06:03:32Z</time>
      </trkpt>
      <trkpt lat="46.41433" lon="2.59985">
        <ele>207.1</ele>
        <time>2020-07-12T06:03:33Z</time>
      </trkpt>
      <trkpt lat="46.41434" lon="2.59993">
        <ele>207.1</ele>
        <time>2020-07-12T06:03:34Z</time>
      </trkpt>
      <trkpt lat="46.41434" lon="2.60001">
        <ele>207.1</ele>
        <time>2020-07-12T06:03:35Z</time>
      </trkpt>
      <trkpt lat="46.41434" lon="2.60009">
        <ele>206.9</ele>
        <time>2020-07-12T06:03:36Z</time>
      </trkpt>
      <trkpt lat="46.41434" lon="2.60017">
        <ele>206.8</ele>
        <time>2020-07-12T06:03:37Z</time>
      </trkpt>
      <trkpt lat="46.41433" lon="2.60024">
        <ele>207</ele>
        <time>2020-07-12T06:03:38Z</time>
      </trkpt>
      <trkpt lat="46.41433" lon="2.60032">
        <ele>207.1</ele>
        <time>2020-07-12T06:03:39Z</time>
      </trkpt>
      <trkpt lat="46.41433" lon="2.6004">
        <ele>207</ele>
        <time>2020-07-12T06:03:40Z</time>
      </trkpt>
      <trkpt lat="46.41435" lon="2.60048">
        <ele>206.9</ele>
        <time>2020-07-12T06:03:41Z</time>
      </trkpt>
      <trkpt lat="46.41437" lon="2.60055">
        <ele>206.8</ele>
        <time>2020-07-12T06:03:42Z</time>
      </trkpt>
      <trkpt lat="46.4144" lon="2.60061">
        <ele>206.5</ele>
        <time>2020-07-12T06:03:43Z</time>
      </trkpt>
      <trkpt lat="46.41444" lon="2.60066">
        <ele>206.2</ele>
        <time>2020-07-12T06:03:44Z</time>
      </trkpt>
      <trkpt lat="46.41449" lon="2.6007">
        <ele>206.5</ele>
        <time>2020-07-12T06:03:45Z</time>
      </trkpt>
      <trkpt lat="46.41455" lon="2.60072">
        <ele>206.8</ele>
        <time>2020-07-12T06:03:46Z</time>
      </trkpt>
      <trkpt lat="46.4146" lon="2.60073">
        <ele>206.6</ele>
        <time>2020-07-12T06:03:47Z</time>
      </trkpt>
      <trkpt lat="46.41465" lon="2.60073">
        <ele>206.4</ele>
        <time>2020-07-12T06:03:48Z</time>
      </trkpt>
      <trkpt lat="46.4147" lon="2.60073">
        <ele>206.3</ele>
        <time>2020-07-12T06:03:49Z</time>
      </trkpt>
      <trkpt lat="46.41476" lon="2.60073">
        <ele>205.8</ele>
        <time>2020-07-12T06:03:50Z</time>
      </trkpt>
      <trkpt lat="46.41482" lon="2.60072">
        <ele>205.4</ele>
        <time>2020-07-12T06:03:51Z</time>
      </trkpt>
      <trkpt lat="46.41488" lon="2.60071">
        <ele>205.2</ele>
        <time>2020-07-12T06:03:52Z</time>
      </trkpt>
      <trkpt lat="46.41493" lon="2.60071">
        <ele>205.1</ele>
        <time>2020-07-12T06:03:53Z</time>
      </trkpt>
      <trkpt lat="46.41499" lon="2.6007">
        <ele>205</ele>
        <time>2020-07-12T06:03:54Z</time>
      </trkpt>
      <trkpt lat="46.41505" lon="2.6007">
        <ele>204.5</ele>
        <time>2020-07-12T06:03:55Z</time>
      </trkpt>
      <trkpt lat="46.41511" lon="2.60069">
        <ele>204</ele>
        <time>2020-07-12T06:03:56Z</time>
      </trkpt>
      <trkpt lat="46.41516" lon="2.60068">
        <ele>204</ele>
        <time>2020-07-12T06:03:57Z</time>
      </trkpt>
      <trkpt lat="46.41522" lon="2.60067">
        <ele>204</ele>
        <time>2020-07-12T06:03:58Z</time>
      </trkpt>
      <trkpt lat="46.41528" lon="2.60067">
        <ele>203.9</ele>
        <time>2020-07-12T06:03:59Z</time>
      </trkpt>
      <trkpt lat="46.41534" lon="2.60066">
        <ele>203.8</ele>
        <time>2020-07-12T06:04:00Z</time>
      </trkpt>
      <trkpt lat="46.4154" lon="2.60066">
        <ele>203.8</ele>
        <time>2020-07-12T06:04:01Z</time>
      </trkpt>
      <trkpt lat="46.41546" lon="2.60066">
        <ele>204.1</ele>
        <time>2020-07-12T06:04:02Z</time>
      </trkpt>
      <trkpt lat="46.41553" lon="2.60067">
        <ele>204.4</ele>
        <time>2020-07-12T06:04:03Z</time>
      </trkpt>
      <trkpt lat="46.41559" lon="2.60068">
        <ele>203.8</ele>
        <time>2020-07-12T06:04:04Z</time>
      </trkpt>
      <trkpt lat="46.41565" lon="2.6007">
        <ele>203.4</ele>
        <time>2020-07-12T06:04:05Z</time>
      </trkpt>
      <trkpt lat="46.41571" lon="2.60073">
        <ele>203</ele>
        <time>2020-07-12T06:04:06Z</time>
      </trkpt>
      <trkpt lat="46.41577" lon="2.60075">
        <ele>202.8</ele>
        <time>2020-07-12T06:04:07Z</time>
      </trkpt>
      <trkpt lat="46.41583" lon="2.60078">
        <ele>202.6</ele>
        <time>2020-07-12T06:04:08Z</time>
      </trkpt>
      <trkpt lat="46.4159" lon="2.60082">
        <ele>202.3</ele>
        <time>2020-07-12T06:04:09Z</time>
      </trkpt>
      <trkpt lat="46.41596" lon="2.60085">
        <ele>202.1</ele>
        <time>2020-07-12T06:04:10Z</time>
      </trkpt>
      <trkpt lat="46.41602" lon="2.60089">
        <ele>201.8</ele>
        <time>2020-07-12T06:04:11Z</time>
      </trkpt>
      <trkpt lat="46.41609" lon="2.60093">
        <ele>201.5</ele>
        <time>2020-07-12T06:04:12Z</time>
      </trkpt>
      <trkpt lat="46.41615" lon="2.60097">
        <ele>201</ele>
        <time>2020-07-12T06:04:13Z</time>
      </trkpt>
      <trkpt lat="46.41622" lon="2.60101">
        <ele>200.6</ele>
        <time>2020-07-12T06:04:14Z</time>
      </trkpt>
      <trkpt lat="46.41628" lon="2.60105">
        <ele>200.4</ele>
        <time>2020-07-12T06:04:15Z</time>
      </trkpt>
      <trkpt lat="46.41635" lon="2.60109">
        <ele>200.2</ele>
        <time>2020-07-12T06:04:16Z</time>
      </trkpt>
      <trkpt lat="46.41641" lon="2.60112">
        <ele>200.1</ele>
        <time>2020-07-12T06:04:17Z</time>
      </trkpt>
      <trkpt lat="46.41648" lon="2.60116">
        <ele>199.9</ele>
        <time>2020-07-12T06:04:18Z</time>
      </trkpt>
      <trkpt lat="46.41654" lon="2.60119">
        <ele>199.6</ele>
        <time>2020-07-12T06:04:19Z</time>
      </trkpt>
      <trkpt lat="46.41661" lon="2.6012">
        <ele>199.5</ele>
        <time>2020-07-12T06:04:20Z</time>
      </trkpt>
      <trkpt lat="46.41668" lon="2.60118">
        <ele>199.4</ele>
        <time>2020-07-12T06:04:21Z</time>
      </trkpt>
      <trkpt lat="46.41674" lon="2.60113">
        <ele>199.3</ele>
        <time>2020-07-12T06:04:22Z</time>
      </trkpt>
      <trkpt lat="46.41681" lon="2.6011">
        <ele>199.1</ele>
        <time>2020-07-12T06:04:23Z</time>
      </trkpt>
      <trkpt lat="46.41687" lon="2.60109">
        <ele>198.9</ele>
        <time>2020-07-12T06:04:24Z</time>
      </trkpt>
      <trkpt lat="46.41693" lon="2.60109">
        <ele>198.5</ele>
        <time>2020-07-12T06:04:25Z</time>
      </trkpt>
      <trkpt lat="46.41699" lon="2.6011">
        <ele>198.1</ele>
        <time>2020-07-12T06:04:26Z</time>
      </trkpt>
      <trkpt lat="46.41705" lon="2.60112">
        <ele>197.8</ele>
        <time>2020-07-12T06:04:27Z</time>
      </trkpt>
      <trkpt lat="46.4171" lon="2.60114">
        <ele>198.1</ele>
        <time>2020-07-12T06:04:28Z</time>
      </trkpt>
      <trkpt lat="46.41715" lon="2.60116">
        <ele>198.2</ele>
        <time>2020-07-12T06:04:29Z</time>
      </trkpt>
      <trkpt lat="46.4172" lon="2.60117">
        <ele>197.8</ele>
        <time>2020-07-12T06:04:30Z</time>
      </trkpt>
      <trkpt lat="46.41725" lon="2.60118">
        <ele>197.4</ele>
        <time>2020-07-12T06:04:31Z</time>
      </trkpt>
      <trkpt lat="46.4173" lon="2.60118">
        <ele>197.3</ele>
        <time>2020-07-12T06:04:32Z</time>
      </trkpt>
      <trkpt lat="46.41735" lon="2.60118">
        <ele>197.3</ele>
        <time>2020-07-12T06:04:33Z</time>
      </trkpt>
      <trkpt lat="46.41739" lon="2.60118">
        <ele>197.3</ele>
        <time>2020-07-12T06:04:34Z</time>
      </trkpt>
      <trkpt lat="46.41744" lon="2.60118">
        <ele>197.2</ele>
        <time>2020-07-12T06:04:35Z</time>
      </trkpt>
      <trkpt lat="46.41749" lon="2.60118">
        <ele>197.1</ele>
        <time>2020-07-12T06:04:36Z</time>
      </trkpt>
      <trkpt lat="46.41754" lon="2.60119">
        <ele>197.2</ele>
        <time>2020-07-12T06:04:37Z</time>
      </trkpt>
      <trkpt lat="46.41758" lon="2.60119">
        <ele>197.3</ele>
        <time>2020-07-12T06:04:38Z</time>
      </trkpt>
      <trkpt lat="46.41763" lon="2.6012">
        <ele>197.4</ele>
        <time>2020-07-12T06:04:39Z</time>
      </trkpt>
      <trkpt lat="46.41768" lon="2.60121">
        <ele>197</ele>
        <time>2020-07-12T06:04:40Z</time>
      </trkpt>
      <trkpt lat="46.41772" lon="2.60121">
        <ele>196.7</ele>
        <time>2020-07-12T06:04:41Z</time>
      </trkpt>
      <trkpt lat="46.41777" lon="2.60122">
        <ele>196.6</ele>
        <time>2020-07-12T06:04:42Z</time>
      </trkpt>
      <trkpt lat="46.41782" lon="2.60122">
        <ele>196.5</ele>
        <time>2020-07-12T06:04:43Z</time>
      </trkpt>
      <trkpt lat="46.41786" lon="2.60123">
        <ele>196.5</ele>
        <time>2020-07-12T06:04:44Z</time>
      </trkpt>
      <trkpt lat="46.41791" lon="2.60123">
        <ele>196.5</ele>
        <time>2020-07-12T06:04:45Z</time>
      </trkpt>
      <trkpt lat="46.41796" lon="2.60123">
        <ele>196.5</ele>
        <time>2020-07-12T06:04:46Z</time>
      </trkpt>
      <trkpt lat="46.418" lon="2.60124">
        <ele>196.1</ele>
        <time>2020-07-12T06:04:47Z</time>
      </trkpt>
      <trkpt lat="46.41805" lon="2.60124">
        <ele>195.8</ele>
        <time>2020-07-12T06:04:48Z</time>
      </trkpt>
      <trkpt lat="46.4181" lon="2.60124">
        <ele>195.8</ele>
        <time>2020-07-12T06:04:49Z</time>
      </trkpt>
      <trkpt lat="46.41814" lon="2.60123">
        <ele>195.8</ele>
        <time>2020-07-12T06:04:50Z</time>
      </trkpt>
      <trkpt lat="46.41819" lon="2.60123">
        <ele>196</ele>
        <time>2020-07-12T06:04:51Z</time>
      </trkpt>
      <trkpt lat="46.41823" lon="2.60123">
        <ele>196.1</ele>
        <time>2020-07-12T06:04:52Z</time>
      </trkpt>
      <trkpt lat="46.41828" lon="2.60123">
        <ele>196.2</ele>
        <time>2020-07-12T06:04:53Z</time>
      </trkpt>
      <trkpt lat="46.41833" lon="2.60122">
        <ele>196.5</ele>
        <time>2020-07-12T06:04:54Z</time>
      </trkpt>
      <trkpt lat="46.41837" lon="2.60121">
        <ele>196.7</ele>
        <time>2020-07-12T06:04:55Z</time>
      </trkpt>
      <trkpt lat="46.41842" lon="2.60121">
        <ele>196.9</ele>
        <time>2020-07-12T06:04:56Z</time>
      </trkpt>
      <trkpt lat="46.41847" lon="2.6012">
        <ele>197</ele>
        <time>2020-07-12T06:04:57Z</time>
      </trkpt>
      <trkpt lat="46.41851" lon="2.60119">
        <ele>197.2</ele>
        <time>2020-07-12T06:04:58Z</time>
      </trkpt>
      <trkpt lat="46.41856" lon="2.60118">
        <ele>196.7</ele>
        <time>2020-07-12T06:04:59Z</time>
      </trkpt>
      <trkpt lat="46.4186" lon="2.60117">
        <ele>196.4</ele>
        <time>2020-07-12T06:05:00Z</time>
      </trkpt>
      <trkpt lat="46.41865" lon="2.60115">
        <ele>196.7</ele>
        <time>2020-07-12T06:05:01Z</time>
      </trkpt>
      <trkpt lat="46.4187" lon="2.60114">
        <ele>196.8</ele>
        <time>2020-07-12T06:05:02Z</time>
      </trkpt>
      <trkpt lat="46.41874" lon="2.60112">
        <ele>196.4</ele>
        <time>2020-07-12T06:05:03Z</time>
      </trkpt>
      <trkpt lat="46.41879" lon="2.60111">
        <ele>196.2</ele>
        <time>2020-07-12T06:05:04Z</time>
      </trkpt>
      <trkpt lat="46.41883" lon="2.60109">
        <ele>195.9</ele>
        <time>2020-07-12T06:05:05Z</time>
      </trkpt>
      <trkpt lat="46.41888" lon="2.60107">
        <ele>195.8</ele>
        <time>2020-07-12T06:05:06Z</time>
      </trkpt>
      <trkpt lat="46.41892" lon="2.60105">
        <ele>195.8</ele>
        <time>2020-07-12T06:05:07Z</time>
      </trkpt>
      <trkpt lat="46.41896" lon="2.60103">
        <ele>196.1</ele>
        <time>2020-07-12T06:05:08Z</time>
      </trkpt>
      <trkpt lat="46.41901" lon="2.60101">
        <ele>196.3</ele>
        <time>2020-07-12T06:05:09Z</time>
      </trkpt>
      <trkpt lat="46.41905" lon="2.60099">
        <ele>196.1</ele>
        <time>2020-07-12T06:05:10Z</time>
      </trkpt>
      <trkpt lat="46.41909" lon="2.60096">
        <ele>196</ele>
        <time>2020-07-12T06:05:11Z</time>
      </trkpt>
      <trkpt lat="46.41914" lon="2.60094">
        <ele>195.9</ele>
        <time>2020-07-12T06:05:12Z</time>
      </trkpt>
      <trkpt lat="46.41918" lon="2.60091">
        <ele>195.8</ele>
        <time>2020-07-12T06:05:13Z</time>
      </trkpt>
      <trkpt lat="46.41923" lon="2.60089">
        <ele>195.7</ele>
        <time>2020-07-12T06:05:14Z</time>
      </trkpt>
      <trkpt lat="46.41927" lon="2.60086">
        <ele>195.7</ele>
        <time>2020-07-12T06:05:15Z</time>
      </trkpt>
      <trkpt lat="46.41931" lon="2.60083">
        <ele>195.7</ele>
        <time>2020-07-12T06:05:16Z</time>
      </trkpt>
      <trkpt lat="46.41935" lon="2.6008">
        <ele>195.7</ele>
        <time>2020-07-12T06:05:17Z</time>
      </trkpt>
      <trkpt lat="46.4194" lon="2.60077">
        <ele>196.1</ele>
        <time>2020-07-12T06:05:18Z</time>
      </trkpt>
      <trkpt lat="46.41944" lon="2.60073">
        <ele>196.3</ele>
        <time>2020-07-12T06:05:19Z</time>
      </trkpt>
      <trkpt lat="46.41948" lon="2.6007">
        <ele>196.3</ele>
        <time>2020-07-12T06:05:20Z</time>
      </trkpt>
      <trkpt lat="46.41952" lon="2.60067">
        <ele>196.3</ele>
        <time>2020-07-12T06:05:21Z</time>
      </trkpt>
      <trkpt lat="46.41956" lon="2.60064">
        <ele>196.3</ele>
        <time>2020-07-12T06:05:22Z</time>
      </trkpt>
      <trkpt lat="46.4196" lon="2.60062">
        <ele>196.3</ele>
        <time>2020-07-12T06:05:23Z</time>
      </trkpt>
      <trkpt lat="46.41969" lon="2.60057">
        <ele>196.3</ele>
        <time>2020-07-12T06:05:25Z</time>
      </trkpt>
      <trkpt lat="46.41973" lon="2.60054">
        <ele>196.2</ele>
        <time>2020-07-12T06:05:26Z</time>
      </trkpt>
      <trkpt lat="46.41977" lon="2.60051">
        <ele>196.1</ele>
        <time>2020-07-12T06:05:27Z</time>
      </trkpt>
      <trkpt lat="46.41984" lon="2.60043">
        <ele>196.1</ele>
        <time>2020-07-12T06:05:29Z</time>
      </trkpt>
      <trkpt lat="46.41991" lon="2.60035">
        <ele>196.2</ele>
        <time>2020-07-12T06:05:31Z</time>
      </trkpt>
      <trkpt lat="46.41997" lon="2.60028">
        <ele>195.9</ele>
        <time>2020-07-12T06:05:33Z</time>
      </trkpt>
      <trkpt lat="46.42003" lon="2.60019">
        <ele>195.5</ele>
        <time>2020-07-12T06:05:35Z</time>
      </trkpt>
      <trkpt lat="46.42009" lon="2.60011">
        <ele>195.6</ele>
        <time>2020-07-12T06:05:37Z</time>
      </trkpt>
      <trkpt lat="46.42015" lon="2.60002">
        <ele>196.2</ele>
        <time>2020-07-12T06:05:39Z</time>
      </trkpt>
      <trkpt lat="46.42018" lon="2.59997">
        <ele>196.4</ele>
        <time>2020-07-12T06:05:40Z</time>
      </trkpt>
      <trkpt lat="46.42022" lon="2.59992">
        <ele>196.4</ele>
        <time>2020-07-12T06:05:41Z</time>
      </trkpt>
      <trkpt lat="46.42025" lon="2.59988">
        <ele>196.5</ele>
        <time>2020-07-12T06:05:42Z</time>
      </trkpt>
      <trkpt lat="46.42028" lon="2.59983">
        <ele>196.5</ele>
        <time>2020-07-12T06:05:43Z</time>
      </trkpt>
      <trkpt lat="46.42034" lon="2.59973">
        <ele>196.4</ele>
        <time>2020-07-12T06:05:45Z</time>
      </trkpt>
      <trkpt lat="46.42037" lon="2.59968">
        <ele>196.5</ele>
        <time>2020-07-12T06:05:46Z</time>
      </trkpt>
      <trkpt lat="46.42041" lon="2.59964">
        <ele>196.7</ele>
        <time>2020-07-12T06:05:47Z</time>
      </trkpt>
      <trkpt lat="46.42047" lon="2.59956">
        <ele>196.8</ele>
        <time>2020-07-12T06:05:49Z</time>
      </trkpt>
      <trkpt lat="46.42054" lon="2.59949">
        <ele>196.7</ele>
        <time>2020-07-12T06:05:51Z</time>
      </trkpt>
      <trkpt lat="46.4206" lon="2.5994">
        <ele>196.2</ele>
        <time>2020-07-12T06:05:53Z</time>
      </trkpt>
      <trkpt lat="46.42064" lon="2.59936">
        <ele>195.9</ele>
        <time>2020-07-12T06:05:54Z</time>
      </trkpt>
      <trkpt lat="46.42067" lon="2.59931">
        <ele>195.6</ele>
        <time>2020-07-12T06:05:55Z</time>
      </trkpt>
      <trkpt lat="46.4207" lon="2.59926">
        <ele>195.9</ele>
        <time>2020-07-12T06:05:56Z</time>
      </trkpt>
      <trkpt lat="46.42073" lon="2.59922">
        <ele>196</ele>
        <time>2020-07-12T06:05:57Z</time>
      </trkpt>
      <trkpt lat="46.42077" lon="2.59918">
        <ele>196.3</ele>
        <time>2020-07-12T06:05:58Z</time>
      </trkpt>
      <trkpt lat="46.4208" lon="2.59913">
        <ele>196.5</ele>
        <time>2020-07-12T06:05:59Z</time>
      </trkpt>
      <trkpt lat="46.42084" lon="2.59909">
        <ele>196.6</ele>
        <time>2020-07-12T06:06:00Z</time>
      </trkpt>
      <trkpt lat="46.42088" lon="2.59905">
        <ele>196.7</ele>
        <time>2020-07-12T06:06:01Z</time>
      </trkpt>
      <trkpt lat="46.42091" lon="2.59901">
        <ele>196.8</ele>
        <time>2020-07-12T06:06:02Z</time>
      </trkpt>
      <trkpt lat="46.42099" lon="2.59893">
        <ele>197.3</ele>
        <time>2020-07-12T06:06:04Z</time>
      </trkpt>
      <trkpt lat="46.42106" lon="2.59887">
        <ele>197</ele>
        <time>2020-07-12T06:06:06Z</time>
      </trkpt>
      <trkpt lat="46.42114" lon="2.5988">
        <ele>196.9</ele>
        <time>2020-07-12T06:06:08Z</time>
      </trkpt>
      <trkpt lat="46.42118" lon="2.59877">
        <ele>196.9</ele>
        <time>2020-07-12T06:06:09Z</time>
      </trkpt>
      <trkpt lat="46.42122" lon="2.59875">
        <ele>197</ele>
        <time>2020-07-12T06:06:10Z</time>
      </trkpt>
      <trkpt lat="46.42126" lon="2.59872">
        <ele>197.1</ele>
        <time>2020-07-12T06:06:11Z</time>
      </trkpt>
      <trkpt lat="46.42131" lon="2.59869">
        <ele>197.1</ele>
        <time>2020-07-12T06:06:12Z</time>
      </trkpt>
      <trkpt lat="46.42135" lon="2.59866">
        <ele>197.1</ele>
        <time>2020-07-12T06:06:13Z</time>
      </trkpt>
      <trkpt lat="46.42139" lon="2.59864">
        <ele>196.8</ele>
        <time>2020-07-12T06:06:14Z</time>
      </trkpt>
      <trkpt lat="46.42143" lon="2.59862">
        <ele>196.5</ele>
        <time>2020-07-12T06:06:15Z</time>
      </trkpt>
      <trkpt lat="46.42148" lon="2.59859">
        <ele>196.4</ele>
        <time>2020-07-12T06:06:16Z</time>
      </trkpt>
      <trkpt lat="46.42152" lon="2.59857">
        <ele>196.6</ele>
        <time>2020-07-12T06:06:17Z</time>
      </trkpt>
      <trkpt lat="46.42156" lon="2.59855">
        <ele>196.7</ele>
        <time>2020-07-12T06:06:18Z</time>
      </trkpt>
      <trkpt lat="46.42161" lon="2.59853">
        <ele>196.9</ele>
        <time>2020-07-12T06:06:19Z</time>
      </trkpt>
      <trkpt lat="46.42165" lon="2.59851">
        <ele>197</ele>
        <time>2020-07-12T06:06:20Z</time>
      </trkpt>
      <trkpt lat="46.4217" lon="2.5985">
        <ele>197</ele>
        <time>2020-07-12T06:06:21Z</time>
      </trkpt>
      <trkpt lat="46.42174" lon="2.59849">
        <ele>197.4</ele>
        <time>2020-07-12T06:06:22Z</time>
      </trkpt>
      <trkpt lat="46.42179" lon="2.59847">
        <ele>197.6</ele>
        <time>2020-07-12T06:06:23Z</time>
      </trkpt>
      <trkpt lat="46.42183" lon="2.59845">
        <ele>197.6</ele>
        <time>2020-07-12T06:06:24Z</time>
      </trkpt>
      <trkpt lat="46.42188" lon="2.59844">
        <ele>197.5</ele>
        <time>2020-07-12T06:06:25Z</time>
      </trkpt>
      <trkpt lat="46.42192" lon="2.59842">
        <ele>197.5</ele>
        <time>2020-07-12T06:06:26Z</time>
      </trkpt>
      <trkpt lat="46.42197" lon="2.59841">
        <ele>197.5</ele>
        <time>2020-07-12T06:06:27Z</time>
      </trkpt>
      <trkpt lat="46.42206" lon="2.59838">
        <ele>197</ele>
        <time>2020-07-12T06:06:29Z</time>
      </trkpt>
      <trkpt lat="46.42214" lon="2.59836">
        <ele>196.7</ele>
        <time>2020-07-12T06:06:31Z</time>
      </trkpt>
      <trkpt lat="46.42223" lon="2.59833">
        <ele>196.7</ele>
        <time>2020-07-12T06:06:33Z</time>
      </trkpt>
      <trkpt lat="46.42232" lon="2.59831">
        <ele>196.5</ele>
        <time>2020-07-12T06:06:35Z</time>
      </trkpt>
      <trkpt lat="46.4224" lon="2.59829">
        <ele>197</ele>
        <time>2020-07-12T06:06:37Z</time>
      </trkpt>
      <trkpt lat="46.42249" lon="2.59826">
        <ele>196.6</ele>
        <time>2020-07-12T06:06:39Z</time>
      </trkpt>
      <trkpt lat="46.42257" lon="2.59824">
        <ele>196.2</ele>
        <time>2020-07-12T06:06:41Z</time>
      </trkpt>
      <trkpt lat="46.42266" lon="2.59822">
        <ele>195.9</ele>
        <time>2020-07-12T06:06:43Z</time>
      </trkpt>
      <trkpt lat="46.42274" lon="2.5982">
        <ele>196</ele>
        <time>2020-07-12T06:06:45Z</time>
      </trkpt>
      <trkpt lat="46.42283" lon="2.59818">
        <ele>196.3</ele>
        <time>2020-07-12T06:06:47Z</time>
      </trkpt>
      <trkpt lat="46.42287" lon="2.59818">
        <ele>196.4</ele>
        <time>2020-07-12T06:06:48Z</time>
      </trkpt>
      <trkpt lat="46.42292" lon="2.59816">
        <ele>196.5</ele>
        <time>2020-07-12T06:06:49Z</time>
      </trkpt>
      <trkpt lat="46.42296" lon="2.59815">
        <ele>196.2</ele>
        <time>2020-07-12T06:06:50Z</time>
      </trkpt>
      <trkpt lat="46.42301" lon="2.59814">
        <ele>196</ele>
        <time>2020-07-12T06:06:51Z</time>
      </trkpt>
      <trkpt lat="46.42305" lon="2.59812">
        <ele>195.8</ele>
        <time>2020-07-12T06:06:52Z</time>
      </trkpt>
      <trkpt lat="46.4231" lon="2.59811">
        <ele>195.8</ele>
        <time>2020-07-12T06:06:53Z</time>
      </trkpt>
      <trkpt lat="46.42319" lon="2.59809">
        <ele>195.5</ele>
        <time>2020-07-12T06:06:55Z</time>
      </trkpt>
      <trkpt lat="46.42323" lon="2.59807">
        <ele>195.3</ele>
        <time>2020-07-12T06:06:56Z</time>
      </trkpt>
      <trkpt lat="46.42328" lon="2.59806">
        <ele>195.8</ele>
        <time>2020-07-12T06:06:57Z</time>
      </trkpt>
      <trkpt lat="46.42332" lon="2.59804">
        <ele>196.2</ele>
        <time>2020-07-12T06:06:58Z</time>
      </trkpt>
      <trkpt lat="46.42341" lon="2.59802">
        <ele>196.5</ele>
        <time>2020-07-12T06:07:00Z</time>
      </trkpt>
      <trkpt lat="46.4235" lon="2.598">
        <ele>197</ele>
        <time>2020-07-12T06:07:02Z</time>
      </trkpt>
      <trkpt lat="46.42358" lon="2.59798">
        <ele>197.2</ele>
        <time>2020-07-12T06:07:04Z</time>
      </trkpt>
      <trkpt lat="46.42367" lon="2.59794">
        <ele>196.8</ele>
        <time>2020-07-12T06:07:06Z</time>
      </trkpt>
      <trkpt lat="46.42376" lon="2.59791">
        <ele>196.6</ele>
        <time>2020-07-12T06:07:08Z</time>
      </trkpt>
      <trkpt lat="46.42384" lon="2.59788">
        <ele>196.6</ele>
        <time>2020-07-12T06:07:10Z</time>
      </trkpt>
      <trkpt lat="46.42393" lon="2.59785">
        <ele>196.9</ele>
        <time>2020-07-12T06:07:12Z</time>
      </trkpt>
      <trkpt lat="46.42401" lon="2.59783">
        <ele>197.1</ele>
        <time>2020-07-12T06:07:14Z</time>
      </trkpt>
      <trkpt lat="46.4241" lon="2.5978">
        <ele>197.2</ele>
        <time>2020-07-12T06:07:16Z</time>
      </trkpt>
      <trkpt lat="46.42418" lon="2.59777">
        <ele>197.3</ele>
        <time>2020-07-12T06:07:18Z</time>
      </trkpt>
      <trkpt lat="46.42427" lon="2.59775">
        <ele>197.3</ele>
        <time>2020-07-12T06:07:20Z</time>
      </trkpt>
      <trkpt lat="46.42436" lon="2.59774">
        <ele>196.6</ele>
        <time>2020-07-12T06:07:22Z</time>
      </trkpt>
      <trkpt lat="46.42444" lon="2.59774">
        <ele>196.1</ele>
        <time>2020-07-12T06:07:24Z</time>
      </trkpt>
      <trkpt lat="46.42449" lon="2.59774">
        <ele>195.9</ele>
        <time>2020-07-12T06:07:25Z</time>
      </trkpt>
      <trkpt lat="46.42461" lon="2.59774">
        <ele>195.9</ele>
        <time>2020-07-12T06:07:28Z</time>
      </trkpt>
      <trkpt lat="46.4247" lon="2.59774">
        <ele>196.1</ele>
        <time>2020-07-12T06:07:30Z</time>
      </trkpt>
      <trkpt lat="46.42478" lon="2.59774">
        <ele>196.3</ele>
        <time>2020-07-12T06:07:32Z</time>
      </trkpt>
      <trkpt lat="46.42487" lon="2.59775">
        <ele>196</ele>
        <time>2020-07-12T06:07:34Z</time>
      </trkpt>
      <trkpt lat="46.42495" lon="2.59776">
        <ele>196.8</ele>
        <time>2020-07-12T06:07:36Z</time>
      </trkpt>
      <trkpt lat="46.42504" lon="2.59778">
        <ele>197</ele>
        <time>2020-07-12T06:07:38Z</time>
      </trkpt>
      <trkpt lat="46.42513" lon="2.59779">
        <ele>197</ele>
        <time>2020-07-12T06:07:40Z</time>
      </trkpt>
      <trkpt lat="46.42521" lon="2.59781">
        <ele>196.5</ele>
        <time>2020-07-12T06:07:42Z</time>
      </trkpt>
      <trkpt lat="46.4253" lon="2.59782">
        <ele>196</ele>
        <time>2020-07-12T06:07:44Z</time>
      </trkpt>
      <trkpt lat="46.42538" lon="2.59781">
        <ele>196.1</ele>
        <time>2020-07-12T06:07:46Z</time>
      </trkpt>
      <trkpt lat="46.42547" lon="2.59779">
        <ele>196.8</ele>
        <time>2020-07-12T06:07:48Z</time>
      </trkpt>
      <trkpt lat="46.42555" lon="2.59776">
        <ele>196.6</ele>
        <time>2020-07-12T06:07:50Z</time>
      </trkpt>
      <trkpt lat="46.42563" lon="2.59774">
        <ele>196.6</ele>
        <time>2020-07-12T06:07:52Z</time>
      </trkpt>
      <trkpt lat="46.42571" lon="2.59772">
        <ele>197.1</ele>
        <time>2020-07-12T06:07:54Z</time>
      </trkpt>
      <trkpt lat="46.42579" lon="2.59771">
        <ele>197.5</ele>
        <time>2020-07-12T06:07:56Z</time>
      </trkpt>
      <trkpt lat="46.42588" lon="2.5977">
        <ele>196.8</ele>
        <time>2020-07-12T06:07:58Z</time>
      </trkpt>
      <trkpt lat="46.42596" lon="2.5977">
        <ele>196.5</ele>
        <time>2020-07-12T06:08:00Z</time>
      </trkpt>
      <trkpt lat="46.42605" lon="2.59769">
        <ele>197</ele>
        <time>2020-07-12T06:08:02Z</time>
      </trkpt>
      <trkpt lat="46.42614" lon="2.59768">
        <ele>197</ele>
        <time>2020-07-12T06:08:04Z</time>
      </trkpt>
      <trkpt lat="46.42622" lon="2.59768">
        <ele>196.8</ele>
        <time>2020-07-12T06:08:06Z</time>
      </trkpt>
      <trkpt lat="46.42631" lon="2.59767">
        <ele>196.9</ele>
        <time>2020-07-12T06:08:08Z</time>
      </trkpt>
      <trkpt lat="46.42639" lon="2.59766">
        <ele>197.1</ele>
        <time>2020-07-12T06:08:10Z</time>
      </trkpt>
      <trkpt lat="46.42647" lon="2.59766">
        <ele>196.4</ele>
        <time>2020-07-12T06:08:12Z</time>
      </trkpt>
      <trkpt lat="46.42656" lon="2.59766">
        <ele>196.8</ele>
        <time>2020-07-12T06:08:14Z</time>
      </trkpt>
      <trkpt lat="46.42664" lon="2.59767">
        <ele>196.4</ele>
        <time>2020-07-12T06:08:16Z</time>
      </trkpt>
      <trkpt lat="46.42671" lon="2.59774">
        <ele>196</ele>
        <time>2020-07-12T06:08:18Z</time>
      </trkpt>
      <trkpt lat="46.42678" lon="2.59781">
        <ele>196.4</ele>
        <time>2020-07-12T06:08:20Z</time>
      </trkpt>
      <trkpt lat="46.42687" lon="2.59782">
        <ele>196.7</ele>
        <time>2020-07-12T06:08:22Z</time>
      </trkpt>
      <trkpt lat="46.42695" lon="2.59779">
        <ele>197</ele>
        <time>2020-07-12T06:08:24Z</time>
      </trkpt>
      <trkpt lat="46.42702" lon="2.59774">
        <ele>196.2</ele>
        <time>2020-07-12T06:08:26Z</time>
      </trkpt>
      <trkpt lat="46.42703" lon="2.5977">
        <ele>196.3</ele>
        <time>2020-07-12T06:08:27Z</time>
      </trkpt>
      <trkpt lat="46.42712" lon="2.59764">
        <ele>195.8</ele>
        <time>2020-07-12T06:08:31Z</time>
      </trkpt>
      <trkpt lat="46.4272" lon="2.59762">
        <ele>195.5</ele>
        <time>2020-07-12T06:08:34Z</time>
      </trkpt>
      <trkpt lat="46.42726" lon="2.59763">
        <ele>195.4</ele>
        <time>2020-07-12T06:08:36Z</time>
      </trkpt>
      <trkpt lat="46.42732" lon="2.59762">
        <ele>195.9</ele>
        <time>2020-07-12T06:08:38Z</time>
      </trkpt>
      <trkpt lat="46.42739" lon="2.59762">
        <ele>196</ele>
        <time>2020-07-12T06:08:40Z</time>
      </trkpt>
      <trkpt lat="46.42745" lon="2.59762">
        <ele>195.8</ele>
        <time>2020-07-12T06:08:42Z</time>
      </trkpt>
      <trkpt lat="46.42752" lon="2.59762">
        <ele>195.8</ele>
        <time>2020-07-12T06:08:44Z</time>
      </trkpt>
      <trkpt lat="46.42759" lon="2.59761">
        <ele>195.7</ele>
        <time>2020-07-12T06:08:46Z</time>
      </trkpt>
      <trkpt lat="46.42767" lon="2.59761">
        <ele>195.6</ele>
        <time>2020-07-12T06:08:48Z</time>
      </trkpt>
      <trkpt lat="46.42774" lon="2.59761">
        <ele>195.7</ele>
        <time>2020-07-12T06:08:50Z</time>
      </trkpt>
      <trkpt lat="46.42781" lon="2.59761">
        <ele>195.8</ele>
        <time>2020-07-12T06:08:52Z</time>
      </trkpt>
      <trkpt lat="46.42788" lon="2.59765">
        <ele>195.9</ele>
        <time>2020-07-12T06:08:54Z</time>
      </trkpt>
      <trkpt lat="46.42796" lon="2.59768">
        <ele>196</ele>
        <time>2020-07-12T06:08:56Z</time>
      </trkpt>
      <trkpt lat="46.42803" lon="2.59768">
        <ele>196.1</ele>
        <time>2020-07-12T06:08:58Z</time>
      </trkpt>
      <trkpt lat="46.4281" lon="2.59767">
        <ele>196</ele>
        <time>2020-07-12T06:09:00Z</time>
      </trkpt>
      <trkpt lat="46.42818" lon="2.59767">
        <ele>196</ele>
        <time>2020-07-12T06:09:02Z</time>
      </trkpt>
      <trkpt lat="46.42825" lon="2.59766">
        <ele>196.4</ele>
        <time>2020-07-12T06:09:04Z</time>
      </trkpt>
      <trkpt lat="46.42832" lon="2.59765">
        <ele>196.7</ele>
        <time>2020-07-12T06:09:06Z</time>
      </trkpt>
      <trkpt lat="46.42839" lon="2.59765">
        <ele>196.7</ele>
        <time>2020-07-12T06:09:08Z</time>
      </trkpt>
      <trkpt lat="46.42846" lon="2.59763">
        <ele>196.3</ele>
        <time>2020-07-12T06:09:10Z</time>
      </trkpt>
      <trkpt lat="46.42853" lon="2.5976">
        <ele>195.9</ele>
        <time>2020-07-12T06:09:12Z</time>
      </trkpt>
      <trkpt lat="46.4286" lon="2.59757">
        <ele>195.9</ele>
        <time>2020-07-12T06:09:14Z</time>
      </trkpt>
      <trkpt lat="46.42866" lon="2.59756">
        <ele>196.2</ele>
        <time>2020-07-12T06:09:16Z</time>
      </trkpt>
      <trkpt lat="46.42875" lon="2.59757">
        <ele>195.3</ele>
        <time>2020-07-12T06:09:19Z</time>
      </trkpt>
      <trkpt lat="46.42882" lon="2.59756">
        <ele>195.5</ele>
        <time>2020-07-12T06:09:21Z</time>
      </trkpt>
      <trkpt lat="46.42887" lon="2.59755">
        <ele>195.5</ele>
        <time>2020-07-12T06:09:22Z</time>
      </trkpt>
      <trkpt lat="46.42892" lon="2.59755">
        <ele>195.4</ele>
        <time>2020-07-12T06:09:23Z</time>
      </trkpt>
      <trkpt lat="46.42896" lon="2.59754">
        <ele>195.1</ele>
        <time>2020-07-12T06:09:24Z</time>
      </trkpt>
      <trkpt lat="46.42905" lon="2.59754">
        <ele>194.6</ele>
        <time>2020-07-12T06:09:26Z</time>
      </trkpt>
      <trkpt lat="46.42913" lon="2.59755">
        <ele>194</ele>
        <time>2020-07-12T06:09:28Z</time>
      </trkpt>
      <trkpt lat="46.42918" lon="2.59754">
        <ele>194.3</ele>
        <time>2020-07-12T06:09:29Z</time>
      </trkpt>
      <trkpt lat="46.42931" lon="2.59754">
        <ele>194.5</ele>
        <time>2020-07-12T06:09:32Z</time>
      </trkpt>
      <trkpt lat="46.4294" lon="2.59754">
        <ele>194.4</ele>
        <time>2020-07-12T06:09:34Z</time>
      </trkpt>
      <trkpt lat="46.42944" lon="2.59754">
        <ele>194.4</ele>
        <time>2020-07-12T06:09:35Z</time>
      </trkpt>
      <trkpt lat="46.42949" lon="2.59754">
        <ele>194</ele>
        <time>2020-07-12T06:09:36Z</time>
      </trkpt>
      <trkpt lat="46.42953" lon="2.59754">
        <ele>193.7</ele>
        <time>2020-07-12T06:09:37Z</time>
      </trkpt>
      <trkpt lat="46.42958" lon="2.59755">
        <ele>193.4</ele>
        <time>2020-07-12T06:09:38Z</time>
      </trkpt>
      <trkpt lat="46.42967" lon="2.59756">
        <ele>193.5</ele>
        <time>2020-07-12T06:09:40Z</time>
      </trkpt>
      <trkpt lat="46.42971" lon="2.59757">
        <ele>193.8</ele>
        <time>2020-07-12T06:09:41Z</time>
      </trkpt>
      <trkpt lat="46.42976" lon="2.59758">
        <ele>194.1</ele>
        <time>2020-07-12T06:09:42Z</time>
      </trkpt>
      <trkpt lat="46.42981" lon="2.59759">
        <ele>194</ele>
        <time>2020-07-12T06:09:43Z</time>
      </trkpt>
      <trkpt lat="46.42985" lon="2.5976">
        <ele>194</ele>
        <time>2020-07-12T06:09:44Z</time>
      </trkpt>
      <trkpt lat="46.4299" lon="2.5976">
        <ele>193.9</ele>
        <time>2020-07-12T06:09:45Z</time>
      </trkpt>
      <trkpt lat="46.42994" lon="2.59761">
        <ele>193.8</ele>
        <time>2020-07-12T06:09:46Z</time>
      </trkpt>
      <trkpt lat="46.42999" lon="2.59762">
        <ele>193.6</ele>
        <time>2020-07-12T06:09:47Z</time>
      </trkpt>
      <trkpt lat="46.43003" lon="2.59764">
        <ele>193.7</ele>
        <time>2020-07-12T06:09:48Z</time>
      </trkpt>
      <trkpt lat="46.43007" lon="2.59766">
        <ele>193.7</ele>
        <time>2020-07-12T06:09:49Z</time>
      </trkpt>
      <trkpt lat="46.43012" lon="2.59768">
        <ele>193.8</ele>
        <time>2020-07-12T06:09:50Z</time>
      </trkpt>
      <trkpt lat="46.43016" lon="2.5977">
        <ele>194.1</ele>
        <time>2020-07-12T06:09:51Z</time>
      </trkpt>
      <trkpt lat="46.43021" lon="2.59772">
        <ele>194.3</ele>
        <time>2020-07-12T06:09:52Z</time>
      </trkpt>
      <trkpt lat="46.43025" lon="2.59774">
        <ele>194.4</ele>
        <time>2020-07-12T06:09:53Z</time>
      </trkpt>
      <trkpt lat="46.4303" lon="2.59776">
        <ele>194.6</ele>
        <time>2020-07-12T06:09:54Z</time>
      </trkpt>
      <trkpt lat="46.43034" lon="2.59778">
        <ele>194.4</ele>
        <time>2020-07-12T06:09:55Z</time>
      </trkpt>
      <trkpt lat="46.43039" lon="2.5978">
        <ele>194.3</ele>
        <time>2020-07-12T06:09:56Z</time>
      </trkpt>
      <trkpt lat="46.43043" lon="2.59782">
        <ele>194.2</ele>
        <time>2020-07-12T06:09:57Z</time>
      </trkpt>
      <trkpt lat="46.43048" lon="2.59784">
        <ele>194.1</ele>
        <time>2020-07-12T06:09:58Z</time>
      </trkpt>
      <trkpt lat="46.43052" lon="2.59786">
        <ele>194</ele>
        <time>2020-07-12T06:09:59Z</time>
      </trkpt>
      <trkpt lat="46.43057" lon="2.59788">
        <ele>193.5</ele>
        <time>2020-07-12T06:10:00Z</time>
      </trkpt>
      <trkpt lat="46.43061" lon="2.5979">
        <ele>193.2</ele>
        <time>2020-07-12T06:10:01Z</time>
      </trkpt>
      <trkpt lat="46.43066" lon="2.59792">
        <ele>193.2</ele>
        <time>2020-07-12T06:10:02Z</time>
      </trkpt>
      <trkpt lat="46.4307" lon="2.59794">
        <ele>193.2</ele>
        <time>2020-07-12T06:10:03Z</time>
      </trkpt>
      <trkpt lat="46.43075" lon="2.59796">
        <ele>193.1</ele>
        <time>2020-07-12T06:10:04Z</time>
      </trkpt>
      <trkpt lat="46.43079" lon="2.59797">
        <ele>193.4</ele>
        <time>2020-07-12T06:10:05Z</time>
      </trkpt>
      <trkpt lat="46.43084" lon="2.59799">
        <ele>193.6</ele>
        <time>2020-07-12T06:10:06Z</time>
      </trkpt>
      <trkpt lat="46.43089" lon="2.598">
        <ele>193.2</ele>
        <time>2020-07-12T06:10:07Z</time>
      </trkpt>
      <trkpt lat="46.43094" lon="2.59801">
        <ele>193</ele>
        <time>2020-07-12T06:10:08Z</time>
      </trkpt>
      <trkpt lat="46.43099" lon="2.59803">
        <ele>193.3</ele>
        <time>2020-07-12T06:10:09Z</time>
      </trkpt>
      <trkpt lat="46.43104" lon="2.59804">
        <ele>193.6</ele>
        <time>2020-07-12T06:10:10Z</time>
      </trkpt>
      <trkpt lat="46.43109" lon="2.59805">
        <ele>193.8</ele>
        <time>2020-07-12T06:10:11Z</time>
      </trkpt>
      <trkpt lat="46.43113" lon="2.59806">
        <ele>193.7</ele>
        <time>2020-07-12T06:10:12Z</time>
      </trkpt>
      <trkpt lat="46.43118" lon="2.59807">
        <ele>193.7</ele>
        <time>2020-07-12T06:10:13Z</time>
      </trkpt>
      <trkpt lat="46.43127" lon="2.59808">
        <ele>194</ele>
        <time>2020-07-12T06:10:15Z</time>
      </trkpt>
      <trkpt lat="46.43131" lon="2.59809">
        <ele>194.2</ele>
        <time>2020-07-12T06:10:16Z</time>
      </trkpt>
      <trkpt lat="46.43136" lon="2.59809">
        <ele>194.2</ele>
        <time>2020-07-12T06:10:17Z</time>
      </trkpt>
      <trkpt lat="46.4314" lon="2.59809">
        <ele>194.3</ele>
        <time>2020-07-12T06:10:18Z</time>
      </trkpt>
      <trkpt lat="46.43145" lon="2.59809">
        <ele>194.3</ele>
        <time>2020-07-12T06:10:19Z</time>
      </trkpt>
      <trkpt lat="46.4315" lon="2.59808">
        <ele>194.4</ele>
        <time>2020-07-12T06:10:20Z</time>
      </trkpt>
      <trkpt lat="46.43155" lon="2.59807">
        <ele>194</ele>
        <time>2020-07-12T06:10:21Z</time>
      </trkpt>
      <trkpt lat="46.43159" lon="2.59807">
        <ele>193.7</ele>
        <time>2020-07-12T06:10:22Z</time>
      </trkpt>
      <trkpt lat="46.43164" lon="2.59806">
        <ele>193.5</ele>
        <time>2020-07-12T06:10:23Z</time>
      </trkpt>
      <trkpt lat="46.43169" lon="2.59805">
        <ele>193.5</ele>
        <time>2020-07-12T06:10:24Z</time>
      </trkpt>
      <trkpt lat="46.43173" lon="2.59804">
        <ele>193.5</ele>
        <time>2020-07-12T06:10:25Z</time>
      </trkpt>
      <trkpt lat="46.43178" lon="2.59803">
        <ele>193.6</ele>
        <time>2020-07-12T06:10:26Z</time>
      </trkpt>
      <trkpt lat="46.43182" lon="2.59802">
        <ele>193.8</ele>
        <time>2020-07-12T06:10:27Z</time>
      </trkpt>
      <trkpt lat="46.43187" lon="2.598">
        <ele>193.9</ele>
        <time>2020-07-12T06:10:28Z</time>
      </trkpt>
      <trkpt lat="46.43191" lon="2.59799">
        <ele>193.5</ele>
        <time>2020-07-12T06:10:29Z</time>
      </trkpt>
      <trkpt lat="46.43196" lon="2.59797">
        <ele>193.3</ele>
        <time>2020-07-12T06:10:30Z</time>
      </trkpt>
      <trkpt lat="46.432" lon="2.59796">
        <ele>193.5</ele>
        <time>2020-07-12T06:10:31Z</time>
      </trkpt>
      <trkpt lat="46.43209" lon="2.59793">
        <ele>193.6</ele>
        <time>2020-07-12T06:10:33Z</time>
      </trkpt>
      <trkpt lat="46.43218" lon="2.59791">
        <ele>193.6</ele>
        <time>2020-07-12T06:10:35Z</time>
      </trkpt>
      <trkpt lat="46.43226" lon="2.59788">
        <ele>193.3</ele>
        <time>2020-07-12T06:10:37Z</time>
      </trkpt>
      <trkpt lat="46.43231" lon="2.59786">
        <ele>193.2</ele>
        <time>2020-07-12T06:10:38Z</time>
      </trkpt>
      <trkpt lat="46.43235" lon="2.59785">
        <ele>193</ele>
        <time>2020-07-12T06:10:39Z</time>
      </trkpt>
      <trkpt lat="46.4324" lon="2.59784">
        <ele>193.1</ele>
        <time>2020-07-12T06:10:40Z</time>
      </trkpt>
      <trkpt lat="46.43244" lon="2.59783">
        <ele>193.1</ele>
        <time>2020-07-12T06:10:41Z</time>
      </trkpt>
      <trkpt lat="46.43249" lon="2.59781">
        <ele>193.1</ele>
        <time>2020-07-12T06:10:42Z</time>
      </trkpt>
      <trkpt lat="46.43254" lon="2.5978">
        <ele>193.2</ele>
        <time>2020-07-12T06:10:43Z</time>
      </trkpt>
      <trkpt lat="46.43258" lon="2.59779">
        <ele>193.3</ele>
        <time>2020-07-12T06:10:44Z</time>
      </trkpt>
      <trkpt lat="46.43263" lon="2.59777">
        <ele>193.6</ele>
        <time>2020-07-12T06:10:45Z</time>
      </trkpt>
      <trkpt lat="46.43267" lon="2.59776">
        <ele>193.8</ele>
        <time>2020-07-12T06:10:46Z</time>
      </trkpt>
      <trkpt lat="46.43272" lon="2.59775">
        <ele>193.8</ele>
        <time>2020-07-12T06:10:47Z</time>
      </trkpt>
      <trkpt lat="46.43276" lon="2.59773">
        <ele>193.9</ele>
        <time>2020-07-12T06:10:48Z</time>
      </trkpt>
      <trkpt lat="46.43281" lon="2.59772">
        <ele>193.9</ele>
        <time>2020-07-12T06:10:49Z</time>
      </trkpt>
      <trkpt lat="46.43285" lon="2.5977">
        <ele>193.3</ele>
        <time>2020-07-12T06:10:50Z</time>
      </trkpt>
      <trkpt lat="46.4329" lon="2.59769">
        <ele>192.8</ele>
        <time>2020-07-12T06:10:51Z</time>
      </trkpt>
      <trkpt lat="46.43295" lon="2.59767">
        <ele>193.2</ele>
        <time>2020-07-12T06:10:52Z</time>
      </trkpt>
      <trkpt lat="46.43299" lon="2.59766">
        <ele>193.4</ele>
        <time>2020-07-12T06:10:53Z</time>
      </trkpt>
      <trkpt lat="46.43304" lon="2.59764">
        <ele>193.6</ele>
        <time>2020-07-12T06:10:54Z</time>
      </trkpt>
      <trkpt lat="46.43313" lon="2.59762">
        <ele>193.1</ele>
        <time>2020-07-12T06:10:56Z</time>
      </trkpt>
      <trkpt lat="46.43317" lon="2.5976">
        <ele>193.2</ele>
        <time>2020-07-12T06:10:57Z</time>
      </trkpt>
      <trkpt lat="46.43322" lon="2.59759">
        <ele>193.2</ele>
        <time>2020-07-12T06:10:58Z</time>
      </trkpt>
      <trkpt lat="46.43327" lon="2.59758">
        <ele>193.2</ele>
        <time>2020-07-12T06:10:59Z</time>
      </trkpt>
      <trkpt lat="46.43331" lon="2.59756">
        <ele>193.1</ele>
        <time>2020-07-12T06:11:00Z</time>
      </trkpt>
      <trkpt lat="46.43336" lon="2.59755">
        <ele>193.1</ele>
        <time>2020-07-12T06:11:01Z</time>
      </trkpt>
      <trkpt lat="46.4334" lon="2.59754">
        <ele>193.2</ele>
        <time>2020-07-12T06:11:02Z</time>
      </trkpt>
      <trkpt lat="46.43344" lon="2.59752">
        <ele>193.3</ele>
        <time>2020-07-12T06:11:03Z</time>
      </trkpt>
      <trkpt lat="46.43353" lon="2.5975">
        <ele>192.9</ele>
        <time>2020-07-12T06:11:05Z</time>
      </trkpt>
      <trkpt lat="46.4336" lon="2.59748">
        <ele>193.1</ele>
        <time>2020-07-12T06:11:07Z</time>
      </trkpt>
      <trkpt lat="46.43368" lon="2.59747">
        <ele>192.2</ele>
        <time>2020-07-12T06:11:10Z</time>
      </trkpt>
      <trkpt lat="46.43374" lon="2.59744">
        <ele>192.2</ele>
        <time>2020-07-12T06:11:12Z</time>
      </trkpt>
      <trkpt lat="46.43381" lon="2.59742">
        <ele>192.4</ele>
        <time>2020-07-12T06:11:14Z</time>
      </trkpt>
      <trkpt lat="46.43388" lon="2.5974">
        <ele>192.3</ele>
        <time>2020-07-12T06:11:16Z</time>
      </trkpt>
      <trkpt lat="46.43395" lon="2.59738">
        <ele>192.1</ele>
        <time>2020-07-12T06:11:18Z</time>
      </trkpt>
      <trkpt lat="46.43402" lon="2.59737">
        <ele>192.1</ele>
        <time>2020-07-12T06:11:20Z</time>
      </trkpt>
      <trkpt lat="46.43409" lon="2.59737">
        <ele>191.9</ele>
        <time>2020-07-12T06:11:22Z</time>
      </trkpt>
      <trkpt lat="46.43417" lon="2.59735">
        <ele>192.8</ele>
        <time>2020-07-12T06:11:24Z</time>
      </trkpt>
      <trkpt lat="46.43425" lon="2.59732">
        <ele>192.4</ele>
        <time>2020-07-12T06:11:26Z</time>
      </trkpt>
      <trkpt lat="46.43432" lon="2.59727">
        <ele>192.4</ele>
        <time>2020-07-12T06:11:28Z</time>
      </trkpt>
      <trkpt lat="46.4344" lon="2.59722">
        <ele>192.5</ele>
        <time>2020-07-12T06:11:30Z</time>
      </trkpt>
      <trkpt lat="46.43444" lon="2.5972">
        <ele>192.4</ele>
        <time>2020-07-12T06:11:31Z</time>
      </trkpt>
      <trkpt lat="46.43456" lon="2.59719">
        <ele>192.5</ele>
        <time>2020-07-12T06:11:35Z</time>
      </trkpt>
      <trkpt lat="46.43464" lon="2.59716">
        <ele>191.8</ele>
        <time>2020-07-12T06:11:37Z</time>
      </trkpt>
      <trkpt lat="46.43468" lon="2.59715">
        <ele>191.5</ele>
        <time>2020-07-12T06:11:38Z</time>
      </trkpt>
      <trkpt lat="46.43473" lon="2.59713">
        <ele>191.3</ele>
        <time>2020-07-12T06:11:39Z</time>
      </trkpt>
      <trkpt lat="46.43478" lon="2.59711">
        <ele>191.1</ele>
        <time>2020-07-12T06:11:40Z</time>
      </trkpt>
      <trkpt lat="46.43483" lon="2.5971">
        <ele>191</ele>
        <time>2020-07-12T06:11:41Z</time>
      </trkpt>
      <trkpt lat="46.43487" lon="2.59708">
        <ele>191.3</ele>
        <time>2020-07-12T06:11:42Z</time>
      </trkpt>
      <trkpt lat="46.43492" lon="2.59707">
        <ele>191.5</ele>
        <time>2020-07-12T06:11:43Z</time>
      </trkpt>
      <trkpt lat="46.43497" lon="2.59705">
        <ele>191.1</ele>
        <time>2020-07-12T06:11:44Z</time>
      </trkpt>
      <trkpt lat="46.43502" lon="2.59704">
        <ele>190.7</ele>
        <time>2020-07-12T06:11:45Z</time>
      </trkpt>
      <trkpt lat="46.43507" lon="2.59702">
        <ele>190.5</ele>
        <time>2020-07-12T06:11:46Z</time>
      </trkpt>
      <trkpt lat="46.43511" lon="2.59701">
        <ele>190.7</ele>
        <time>2020-07-12T06:11:47Z</time>
      </trkpt>
      <trkpt lat="46.43516" lon="2.59699">
        <ele>190.9</ele>
        <time>2020-07-12T06:11:48Z</time>
      </trkpt>
      <trkpt lat="46.43521" lon="2.59698">
        <ele>190.8</ele>
        <time>2020-07-12T06:11:49Z</time>
      </trkpt>
      <trkpt lat="46.43526" lon="2.59696">
        <ele>190.8</ele>
        <time>2020-07-12T06:11:50Z</time>
      </trkpt>
      <trkpt lat="46.4353" lon="2.59695">
        <ele>190.8</ele>
        <time>2020-07-12T06:11:51Z</time>
      </trkpt>
      <trkpt lat="46.43535" lon="2.59693">
        <ele>191.4</ele>
        <time>2020-07-12T06:11:52Z</time>
      </trkpt>
      <trkpt lat="46.43539" lon="2.59692">
        <ele>191.9</ele>
        <time>2020-07-12T06:11:53Z</time>
      </trkpt>
      <trkpt lat="46.43544" lon="2.5969">
        <ele>191.6</ele>
        <time>2020-07-12T06:11:54Z</time>
      </trkpt>
      <trkpt lat="46.43549" lon="2.59689">
        <ele>191.4</ele>
        <time>2020-07-12T06:11:55Z</time>
      </trkpt>
      <trkpt lat="46.43553" lon="2.59688">
        <ele>191.4</ele>
        <time>2020-07-12T06:11:56Z</time>
      </trkpt>
      <trkpt lat="46.43558" lon="2.59686">
        <ele>191.4</ele>
        <time>2020-07-12T06:11:57Z</time>
      </trkpt>
      <trkpt lat="46.43563" lon="2.59685">
        <ele>191.3</ele>
        <time>2020-07-12T06:11:58Z</time>
      </trkpt>
      <trkpt lat="46.43567" lon="2.59683">
        <ele>191.1</ele>
        <time>2020-07-12T06:11:59Z</time>
      </trkpt>
      <trkpt lat="46.43572" lon="2.59682">
        <ele>190.9</ele>
        <time>2020-07-12T06:12:00Z</time>
      </trkpt>
      <trkpt lat="46.43576" lon="2.5968">
        <ele>191.2</ele>
        <time>2020-07-12T06:12:01Z</time>
      </trkpt>
      <trkpt lat="46.43581" lon="2.59679">
        <ele>191.4</ele>
        <time>2020-07-12T06:12:02Z</time>
      </trkpt>
      <trkpt lat="46.43585" lon="2.59677">
        <ele>191.4</ele>
        <time>2020-07-12T06:12:03Z</time>
      </trkpt>
      <trkpt lat="46.4359" lon="2.59676">
        <ele>191.4</ele>
        <time>2020-07-12T06:12:04Z</time>
      </trkpt>
      <trkpt lat="46.43595" lon="2.59675">
        <ele>191.4</ele>
        <time>2020-07-12T06:12:05Z</time>
      </trkpt>
      <trkpt lat="46.43599" lon="2.59673">
        <ele>191.1</ele>
        <time>2020-07-12T06:12:06Z</time>
      </trkpt>
      <trkpt lat="46.43604" lon="2.59672">
        <ele>190.9</ele>
        <time>2020-07-12T06:12:07Z</time>
      </trkpt>
      <trkpt lat="46.43608" lon="2.59671">
        <ele>191</ele>
        <time>2020-07-12T06:12:08Z</time>
      </trkpt>
      <trkpt lat="46.43613" lon="2.59669">
        <ele>191.1</ele>
        <time>2020-07-12T06:12:09Z</time>
      </trkpt>
      <trkpt lat="46.43618" lon="2.59668">
        <ele>191.2</ele>
        <time>2020-07-12T06:12:10Z</time>
      </trkpt>
      <trkpt lat="46.43623" lon="2.59666">
        <ele>191.3</ele>
        <time>2020-07-12T06:12:11Z</time>
      </trkpt>
      <trkpt lat="46.43628" lon="2.59665">
        <ele>191.4</ele>
        <time>2020-07-12T06:12:12Z</time>
      </trkpt>
      <trkpt lat="46.43633" lon="2.59664">
        <ele>190.9</ele>
        <time>2020-07-12T06:12:13Z</time>
      </trkpt>
      <trkpt lat="46.43638" lon="2.59662">
        <ele>190.6</ele>
        <time>2020-07-12T06:12:14Z</time>
      </trkpt>
      <trkpt lat="46.43643" lon="2.59661">
        <ele>190.2</ele>
        <time>2020-07-12T06:12:15Z</time>
      </trkpt>
      <trkpt lat="46.43648" lon="2.59659">
        <ele>189.9</ele>
        <time>2020-07-12T06:12:16Z</time>
      </trkpt>
      <trkpt lat="46.43653" lon="2.59658">
        <ele>189.7</ele>
        <time>2020-07-12T06:12:17Z</time>
      </trkpt>
      <trkpt lat="46.43658" lon="2.59656">
        <ele>189.6</ele>
        <time>2020-07-12T06:12:18Z</time>
      </trkpt>
      <trkpt lat="46.43663" lon="2.59655">
        <ele>189.5</ele>
        <time>2020-07-12T06:12:19Z</time>
      </trkpt>
      <trkpt lat="46.43667" lon="2.59654">
        <ele>189.2</ele>
        <time>2020-07-12T06:12:20Z</time>
      </trkpt>
      <trkpt lat="46.43672" lon="2.59653">
        <ele>189</ele>
        <time>2020-07-12T06:12:21Z</time>
      </trkpt>
      <trkpt lat="46.43677" lon="2.59651">
        <ele>189.3</ele>
        <time>2020-07-12T06:12:22Z</time>
      </trkpt>
      <trkpt lat="46.43681" lon="2.5965">
        <ele>189.6</ele>
        <time>2020-07-12T06:12:23Z</time>
      </trkpt>
      <trkpt lat="46.43686" lon="2.59648">
        <ele>189.8</ele>
        <time>2020-07-12T06:12:24Z</time>
      </trkpt>
      <trkpt lat="46.43691" lon="2.59647">
        <ele>189.9</ele>
        <time>2020-07-12T06:12:25Z</time>
      </trkpt>
      <trkpt lat="46.43695" lon="2.59646">
        <ele>190.1</ele>
        <time>2020-07-12T06:12:26Z</time>
      </trkpt>
      <trkpt lat="46.437" lon="2.59644">
        <ele>189.9</ele>
        <time>2020-07-12T06:12:27Z</time>
      </trkpt>
      <trkpt lat="46.43704" lon="2.59643">
        <ele>189.8</ele>
        <time>2020-07-12T06:12:28Z</time>
      </trkpt>
      <trkpt lat="46.43709" lon="2.59641">
        <ele>189.7</ele>
        <time>2020-07-12T06:12:29Z</time>
      </trkpt>
      <trkpt lat="46.43714" lon="2.5964">
        <ele>189.8</ele>
        <time>2020-07-12T06:12:30Z</time>
      </trkpt>
      <trkpt lat="46.43719" lon="2.59638">
        <ele>190</ele>
        <time>2020-07-12T06:12:31Z</time>
      </trkpt>
      <trkpt lat="46.43723" lon="2.59637">
        <ele>190</ele>
        <time>2020-07-12T06:12:32Z</time>
      </trkpt>
      <trkpt lat="46.43728" lon="2.59635">
        <ele>190</ele>
        <time>2020-07-12T06:12:33Z</time>
      </trkpt>
      <trkpt lat="46.43733" lon="2.59634">
        <ele>190</ele>
        <time>2020-07-12T06:12:34Z</time>
      </trkpt>
      <trkpt lat="46.43737" lon="2.59632">
        <ele>190.1</ele>
        <time>2020-07-12T06:12:35Z</time>
      </trkpt>
      <trkpt lat="46.43742" lon="2.59631">
        <ele>190.1</ele>
        <time>2020-07-12T06:12:36Z</time>
      </trkpt>
      <trkpt lat="46.43747" lon="2.5963">
        <ele>189.7</ele>
        <time>2020-07-12T06:12:37Z</time>
      </trkpt>
      <trkpt lat="46.43751" lon="2.59628">
        <ele>189.4</ele>
        <time>2020-07-12T06:12:38Z</time>
      </trkpt>
      <trkpt lat="46.43756" lon="2.59627">
        <ele>189.8</ele>
        <time>2020-07-12T06:12:39Z</time>
      </trkpt>
      <trkpt lat="46.4376" lon="2.59626">
        <ele>190</ele>
        <time>2020-07-12T06:12:40Z</time>
      </trkpt>
      <trkpt lat="46.43765" lon="2.59624">
        <ele>189.9</ele>
        <time>2020-07-12T06:12:41Z</time>
      </trkpt>
      <trkpt lat="46.43769" lon="2.59623">
        <ele>189.8</ele>
        <time>2020-07-12T06:12:42Z</time>
      </trkpt>
      <trkpt lat="46.43774" lon="2.59622">
        <ele>189.7</ele>
        <time>2020-07-12T06:12:43Z</time>
      </trkpt>
      <trkpt lat="46.43778" lon="2.5962">
        <ele>190.5</ele>
        <time>2020-07-12T06:12:44Z</time>
      </trkpt>
      <trkpt lat="46.43783" lon="2.59619">
        <ele>191.2</ele>
        <time>2020-07-12T06:12:45Z</time>
      </trkpt>
      <trkpt lat="46.43787" lon="2.59617">
        <ele>191.2</ele>
        <time>2020-07-12T06:12:46Z</time>
      </trkpt>
      <trkpt lat="46.43791" lon="2.59616">
        <ele>191.3</ele>
        <time>2020-07-12T06:12:47Z</time>
      </trkpt>
      <trkpt lat="46.43796" lon="2.59615">
        <ele>190.8</ele>
        <time>2020-07-12T06:12:48Z</time>
      </trkpt>
      <trkpt lat="46.43801" lon="2.59613">
        <ele>190.5</ele>
        <time>2020-07-12T06:12:49Z</time>
      </trkpt>
      <trkpt lat="46.43805" lon="2.59612">
        <ele>190.2</ele>
        <time>2020-07-12T06:12:50Z</time>
      </trkpt>
      <trkpt lat="46.43809" lon="2.5961">
        <ele>190.5</ele>
        <time>2020-07-12T06:12:51Z</time>
      </trkpt>
      <trkpt lat="46.43814" lon="2.59609">
        <ele>190.7</ele>
        <time>2020-07-12T06:12:52Z</time>
      </trkpt>
      <trkpt lat="46.43819" lon="2.59608">
        <ele>190.4</ele>
        <time>2020-07-12T06:12:53Z</time>
      </trkpt>
      <trkpt lat="46.43823" lon="2.59606">
        <ele>190.1</ele>
        <time>2020-07-12T06:12:54Z</time>
      </trkpt>
      <trkpt lat="46.43828" lon="2.59605">
        <ele>189.9</ele>
        <time>2020-07-12T06:12:55Z</time>
      </trkpt>
      <trkpt lat="46.43832" lon="2.59603">
        <ele>190.1</ele>
        <time>2020-07-12T06:12:56Z</time>
      </trkpt>
      <trkpt lat="46.43837" lon="2.59602">
        <ele>190.2</ele>
        <time>2020-07-12T06:12:57Z</time>
      </trkpt>
      <trkpt lat="46.43842" lon="2.596">
        <ele>190.1</ele>
        <time>2020-07-12T06:12:58Z</time>
      </trkpt>
      <trkpt lat="46.43846" lon="2.59599">
        <ele>190.1</ele>
        <time>2020-07-12T06:12:59Z</time>
      </trkpt>
      <trkpt lat="46.43851" lon="2.59598">
        <ele>190</ele>
        <time>2020-07-12T06:13:00Z</time>
      </trkpt>
      <trkpt lat="46.43855" lon="2.59596">
        <ele>189.9</ele>
        <time>2020-07-12T06:13:01Z</time>
      </trkpt>
      <trkpt lat="46.4386" lon="2.59595">
        <ele>189.8</ele>
        <time>2020-07-12T06:13:02Z</time>
      </trkpt>
      <trkpt lat="46.43864" lon="2.59594">
        <ele>190</ele>
        <time>2020-07-12T06:13:03Z</time>
      </trkpt>
      <trkpt lat="46.43869" lon="2.59592">
        <ele>190</ele>
        <time>2020-07-12T06:13:04Z</time>
      </trkpt>
      <trkpt lat="46.43874" lon="2.59591">
        <ele>190.1</ele>
        <time>2020-07-12T06:13:05Z</time>
      </trkpt>
      <trkpt lat="46.43878" lon="2.59589">
        <ele>190.2</ele>
        <time>2020-07-12T06:13:06Z</time>
      </trkpt>
      <trkpt lat="46.43887" lon="2.59587">
        <ele>190.6</ele>
        <time>2020-07-12T06:13:08Z</time>
      </trkpt>
      <trkpt lat="46.43891" lon="2.59585">
        <ele>190.7</ele>
        <time>2020-07-12T06:13:09Z</time>
      </trkpt>
      <trkpt lat="46.43896" lon="2.59584">
        <ele>190.7</ele>
        <time>2020-07-12T06:13:10Z</time>
      </trkpt>
      <trkpt lat="46.439" lon="2.59582">
        <ele>190.7</ele>
        <time>2020-07-12T06:13:11Z</time>
      </trkpt>
      <trkpt lat="46.43905" lon="2.59581">
        <ele>190.6</ele>
        <time>2020-07-12T06:13:12Z</time>
      </trkpt>
      <trkpt lat="46.43909" lon="2.5958">
        <ele>190.5</ele>
        <time>2020-07-12T06:13:13Z</time>
      </trkpt>
      <trkpt lat="46.43914" lon="2.59578">
        <ele>190.5</ele>
        <time>2020-07-12T06:13:14Z</time>
      </trkpt>
      <trkpt lat="46.43918" lon="2.59577">
        <ele>190.6</ele>
        <time>2020-07-12T06:13:15Z</time>
      </trkpt>
      <trkpt lat="46.43923" lon="2.59576">
        <ele>190.7</ele>
        <time>2020-07-12T06:13:16Z</time>
      </trkpt>
      <trkpt lat="46.43927" lon="2.59574">
        <ele>190.7</ele>
        <time>2020-07-12T06:13:17Z</time>
      </trkpt>
      <trkpt lat="46.43932" lon="2.59573">
        <ele>190.7</ele>
        <time>2020-07-12T06:13:18Z</time>
      </trkpt>
      <trkpt lat="46.43936" lon="2.59571">
        <ele>190.5</ele>
        <time>2020-07-12T06:13:19Z</time>
      </trkpt>
      <trkpt lat="46.43941" lon="2.5957">
        <ele>190.4</ele>
        <time>2020-07-12T06:13:20Z</time>
      </trkpt>
      <trkpt lat="46.43946" lon="2.59568">
        <ele>190.3</ele>
        <time>2020-07-12T06:13:21Z</time>
      </trkpt>
      <trkpt lat="46.4395" lon="2.59567">
        <ele>190.3</ele>
        <time>2020-07-12T06:13:22Z</time>
      </trkpt>
      <trkpt lat="46.43955" lon="2.59565">
        <ele>190.2</ele>
        <time>2020-07-12T06:13:23Z</time>
      </trkpt>
      <trkpt lat="46.43959" lon="2.59564">
        <ele>190.2</ele>
        <time>2020-07-12T06:13:24Z</time>
      </trkpt>
      <trkpt lat="46.43964" lon="2.59562">
        <ele>190.2</ele>
        <time>2020-07-12T06:13:25Z</time>
      </trkpt>
      <trkpt lat="46.43969" lon="2.59561">
        <ele>190.4</ele>
        <time>2020-07-12T06:13:26Z</time>
      </trkpt>
      <trkpt lat="46.43974" lon="2.59559">
        <ele>190.5</ele>
        <time>2020-07-12T06:13:27Z</time>
      </trkpt>
      <trkpt lat="46.43978" lon="2.59558">
        <ele>190.6</ele>
        <time>2020-07-12T06:13:28Z</time>
      </trkpt>
      <trkpt lat="46.43983" lon="2.59557">
        <ele>190.4</ele>
        <time>2020-07-12T06:13:29Z</time>
      </trkpt>
      <trkpt lat="46.43988" lon="2.59555">
        <ele>190.3</ele>
        <time>2020-07-12T06:13:30Z</time>
      </trkpt>
      <trkpt lat="46.43992" lon="2.59554">
        <ele>190.2</ele>
        <time>2020-07-12T06:13:31Z</time>
      </trkpt>
      <trkpt lat="46.43997" lon="2.59552">
        <ele>190.1</ele>
        <time>2020-07-12T06:13:32Z</time>
      </trkpt>
      <trkpt lat="46.44002" lon="2.59551">
        <ele>190</ele>
        <time>2020-07-12T06:13:33Z</time>
      </trkpt>
      <trkpt lat="46.44006" lon="2.59549">
        <ele>190.2</ele>
        <time>2020-07-12T06:13:34Z</time>
      </trkpt>
      <trkpt lat="46.44011" lon="2.59548">
        <ele>190.4</ele>
        <time>2020-07-12T06:13:35Z</time>
      </trkpt>
      <trkpt lat="46.44015" lon="2.59546">
        <ele>190.3</ele>
        <time>2020-07-12T06:13:36Z</time>
      </trkpt>
      <trkpt lat="46.4402" lon="2.59544">
        <ele>190.2</ele>
        <time>2020-07-12T06:13:37Z</time>
      </trkpt>
      <trkpt lat="46.44025" lon="2.59543">
        <ele>190.5</ele>
        <time>2020-07-12T06:13:38Z</time>
      </trkpt>
      <trkpt lat="46.44029" lon="2.59541">
        <ele>190.7</ele>
        <time>2020-07-12T06:13:39Z</time>
      </trkpt>
      <trkpt lat="46.44034" lon="2.5954">
        <ele>190.9</ele>
        <time>2020-07-12T06:13:40Z</time>
      </trkpt>
      <trkpt lat="46.44039" lon="2.59538">
        <ele>191</ele>
        <time>2020-07-12T06:13:41Z</time>
      </trkpt>
      <trkpt lat="46.44044" lon="2.59537">
        <ele>191.1</ele>
        <time>2020-07-12T06:13:42Z</time>
      </trkpt>
      <trkpt lat="46.44048" lon="2.59535">
        <ele>191</ele>
        <time>2020-07-12T06:13:43Z</time>
      </trkpt>
      <trkpt lat="46.44053" lon="2.59534">
        <ele>191</ele>
        <time>2020-07-12T06:13:44Z</time>
      </trkpt>
      <trkpt lat="46.44058" lon="2.59532">
        <ele>191.2</ele>
        <time>2020-07-12T06:13:45Z</time>
      </trkpt>
      <trkpt lat="46.44063" lon="2.59531">
        <ele>191.4</ele>
        <time>2020-07-12T06:13:46Z</time>
      </trkpt>
      <trkpt lat="46.44067" lon="2.5953">
        <ele>191.5</ele>
        <time>2020-07-12T06:13:47Z</time>
      </trkpt>
      <trkpt lat="46.44072" lon="2.59528">
        <ele>191.1</ele>
        <time>2020-07-12T06:13:48Z</time>
      </trkpt>
      <trkpt lat="46.44077" lon="2.59527">
        <ele>190.7</ele>
        <time>2020-07-12T06:13:49Z</time>
      </trkpt>
      <trkpt lat="46.44081" lon="2.59525">
        <ele>190.3</ele>
        <time>2020-07-12T06:13:50Z</time>
      </trkpt>
      <trkpt lat="46.44086" lon="2.59524">
        <ele>190</ele>
        <time>2020-07-12T06:13:51Z</time>
      </trkpt>
      <trkpt lat="46.4409" lon="2.59522">
        <ele>189.7</ele>
        <time>2020-07-12T06:13:52Z</time>
      </trkpt>
      <trkpt lat="46.44095" lon="2.59521">
        <ele>189.9</ele>
        <time>2020-07-12T06:13:53Z</time>
      </trkpt>
      <trkpt lat="46.441" lon="2.59519">
        <ele>190.1</ele>
        <time>2020-07-12T06:13:54Z</time>
      </trkpt>
      <trkpt lat="46.44104" lon="2.59518">
        <ele>190.1</ele>
        <time>2020-07-12T06:13:55Z</time>
      </trkpt>
      <trkpt lat="46.44109" lon="2.59517">
        <ele>190.1</ele>
        <time>2020-07-12T06:13:56Z</time>
      </trkpt>
      <trkpt lat="46.44113" lon="2.59515">
        <ele>189.9</ele>
        <time>2020-07-12T06:13:57Z</time>
      </trkpt>
      <trkpt lat="46.44118" lon="2.59514">
        <ele>189.8</ele>
        <time>2020-07-12T06:13:58Z</time>
      </trkpt>
      <trkpt lat="46.44122" lon="2.59513">
        <ele>189.7</ele>
        <time>2020-07-12T06:13:59Z</time>
      </trkpt>
      <trkpt lat="46.44127" lon="2.59511">
        <ele>189.9</ele>
        <time>2020-07-12T06:14:00Z</time>
      </trkpt>
      <trkpt lat="46.44131" lon="2.5951">
        <ele>190</ele>
        <time>2020-07-12T06:14:01Z</time>
      </trkpt>
      <trkpt lat="46.44136" lon="2.59509">
        <ele>190.5</ele>
        <time>2020-07-12T06:14:02Z</time>
      </trkpt>
      <trkpt lat="46.4414" lon="2.59507">
        <ele>190.8</ele>
        <time>2020-07-12T06:14:03Z</time>
      </trkpt>
      <trkpt lat="46.44145" lon="2.59506">
        <ele>191</ele>
        <time>2020-07-12T06:14:04Z</time>
      </trkpt>
      <trkpt lat="46.4415" lon="2.59505">
        <ele>191.1</ele>
        <time>2020-07-12T06:14:05Z</time>
      </trkpt>
      <trkpt lat="46.44154" lon="2.59503">
        <ele>191.2</ele>
        <time>2020-07-12T06:14:06Z</time>
      </trkpt>
      <trkpt lat="46.44159" lon="2.59502">
        <ele>190.6</ele>
        <time>2020-07-12T06:14:07Z</time>
      </trkpt>
      <trkpt lat="46.44164" lon="2.59501">
        <ele>190.2</ele>
        <time>2020-07-12T06:14:08Z</time>
      </trkpt>
      <trkpt lat="46.44169" lon="2.59499">
        <ele>190.2</ele>
        <time>2020-07-12T06:14:09Z</time>
      </trkpt>
      <trkpt lat="46.44173" lon="2.59497">
        <ele>190.2</ele>
        <time>2020-07-12T06:14:10Z</time>
      </trkpt>
      <trkpt lat="46.44178" lon="2.59496">
        <ele>190.1</ele>
        <time>2020-07-12T06:14:11Z</time>
      </trkpt>
      <trkpt lat="46.44183" lon="2.59495">
        <ele>190.4</ele>
        <time>2020-07-12T06:14:12Z</time>
      </trkpt>
      <trkpt lat="46.44187" lon="2.59493">
        <ele>190.6</ele>
        <time>2020-07-12T06:14:13Z</time>
      </trkpt>
      <trkpt lat="46.44192" lon="2.59492">
        <ele>190.5</ele>
        <time>2020-07-12T06:14:14Z</time>
      </trkpt>
      <trkpt lat="46.44197" lon="2.5949">
        <ele>190.3</ele>
        <time>2020-07-12T06:14:15Z</time>
      </trkpt>
      <trkpt lat="46.44202" lon="2.59489">
        <ele>190</ele>
        <time>2020-07-12T06:14:16Z</time>
      </trkpt>
      <trkpt lat="46.44207" lon="2.59487">
        <ele>189.7</ele>
        <time>2020-07-12T06:14:17Z</time>
      </trkpt>
      <trkpt lat="46.44211" lon="2.59486">
        <ele>189.5</ele>
        <time>2020-07-12T06:14:18Z</time>
      </trkpt>
      <trkpt lat="46.44216" lon="2.59484">
        <ele>189.9</ele>
        <time>2020-07-12T06:14:19Z</time>
      </trkpt>
      <trkpt lat="46.44221" lon="2.59483">
        <ele>190.2</ele>
        <time>2020-07-12T06:14:20Z</time>
      </trkpt>
      <trkpt lat="46.44225" lon="2.59481">
        <ele>190.2</ele>
        <time>2020-07-12T06:14:21Z</time>
      </trkpt>
      <trkpt lat="46.4423" lon="2.5948">
        <ele>190.2</ele>
        <time>2020-07-12T06:14:22Z</time>
      </trkpt>
      <trkpt lat="46.44239" lon="2.59478">
        <ele>190.3</ele>
        <time>2020-07-12T06:14:24Z</time>
      </trkpt>
      <trkpt lat="46.44243" lon="2.59476">
        <ele>190.4</ele>
        <time>2020-07-12T06:14:25Z</time>
      </trkpt>
      <trkpt lat="46.44248" lon="2.59475">
        <ele>190.4</ele>
        <time>2020-07-12T06:14:26Z</time>
      </trkpt>
      <trkpt lat="46.44252" lon="2.59473">
        <ele>190.4</ele>
        <time>2020-07-12T06:14:27Z</time>
      </trkpt>
      <trkpt lat="46.44257" lon="2.59472">
        <ele>190.3</ele>
        <time>2020-07-12T06:14:28Z</time>
      </trkpt>
      <trkpt lat="46.44261" lon="2.5947">
        <ele>190.2</ele>
        <time>2020-07-12T06:14:29Z</time>
      </trkpt>
      <trkpt lat="46.44266" lon="2.59469">
        <ele>190.7</ele>
        <time>2020-07-12T06:14:30Z</time>
      </trkpt>
      <trkpt lat="46.4427" lon="2.59468">
        <ele>191.1</ele>
        <time>2020-07-12T06:14:31Z</time>
      </trkpt>
      <trkpt lat="46.44275" lon="2.59466">
        <ele>191.4</ele>
        <time>2020-07-12T06:14:32Z</time>
      </trkpt>
      <trkpt lat="46.44279" lon="2.59465">
        <ele>191.1</ele>
        <time>2020-07-12T06:14:33Z</time>
      </trkpt>
      <trkpt lat="46.44284" lon="2.59464">
        <ele>190.9</ele>
        <time>2020-07-12T06:14:34Z</time>
      </trkpt>
      <trkpt lat="46.44288" lon="2.59462">
        <ele>190.6</ele>
        <time>2020-07-12T06:14:35Z</time>
      </trkpt>
      <trkpt lat="46.44293" lon="2.59461">
        <ele>190.4</ele>
        <time>2020-07-12T06:14:36Z</time>
      </trkpt>
      <trkpt lat="46.44298" lon="2.59459">
        <ele>190.3</ele>
        <time>2020-07-12T06:14:37Z</time>
      </trkpt>
      <trkpt lat="46.44302" lon="2.59458">
        <ele>190.2</ele>
        <time>2020-07-12T06:14:38Z</time>
      </trkpt>
      <trkpt lat="46.44307" lon="2.59456">
        <ele>190.2</ele>
        <time>2020-07-12T06:14:39Z</time>
      </trkpt>
      <trkpt lat="46.44311" lon="2.59455">
        <ele>190.1</ele>
        <time>2020-07-12T06:14:40Z</time>
      </trkpt>
      <trkpt lat="46.44316" lon="2.59453">
        <ele>190.1</ele>
        <time>2020-07-12T06:14:41Z</time>
      </trkpt>
      <trkpt lat="46.4432" lon="2.59452">
        <ele>190.2</ele>
        <time>2020-07-12T06:14:42Z</time>
      </trkpt>
      <trkpt lat="46.44325" lon="2.59451">
        <ele>190.2</ele>
        <time>2020-07-12T06:14:43Z</time>
      </trkpt>
      <trkpt lat="46.44329" lon="2.59449">
        <ele>190.3</ele>
        <time>2020-07-12T06:14:44Z</time>
      </trkpt>
      <trkpt lat="46.44337" lon="2.59446">
        <ele>190.6</ele>
        <time>2020-07-12T06:14:46Z</time>
      </trkpt>
      <trkpt lat="46.44346" lon="2.59444">
        <ele>190.9</ele>
        <time>2020-07-12T06:14:48Z</time>
      </trkpt>
      <trkpt lat="46.44355" lon="2.59441">
        <ele>191.1</ele>
        <time>2020-07-12T06:14:50Z</time>
      </trkpt>
      <trkpt lat="46.44363" lon="2.59438">
        <ele>191</ele>
        <time>2020-07-12T06:14:52Z</time>
      </trkpt>
      <trkpt lat="46.44371" lon="2.59436">
        <ele>190.4</ele>
        <time>2020-07-12T06:14:54Z</time>
      </trkpt>
      <trkpt lat="46.44376" lon="2.59435">
        <ele>190</ele>
        <time>2020-07-12T06:14:55Z</time>
      </trkpt>
      <trkpt lat="46.4438" lon="2.59433">
        <ele>189.7</ele>
        <time>2020-07-12T06:14:56Z</time>
      </trkpt>
      <trkpt lat="46.44385" lon="2.59432">
        <ele>190</ele>
        <time>2020-07-12T06:14:57Z</time>
      </trkpt>
      <trkpt lat="46.44389" lon="2.5943">
        <ele>190.3</ele>
        <time>2020-07-12T06:14:58Z</time>
      </trkpt>
      <trkpt lat="46.44394" lon="2.59429">
        <ele>189.9</ele>
        <time>2020-07-12T06:14:59Z</time>
      </trkpt>
      <trkpt lat="46.44398" lon="2.59428">
        <ele>189.6</ele>
        <time>2020-07-12T06:15:00Z</time>
      </trkpt>
      <trkpt lat="46.44403" lon="2.59426">
        <ele>189.6</ele>
        <time>2020-07-12T06:15:01Z</time>
      </trkpt>
      <trkpt lat="46.44408" lon="2.59425">
        <ele>189.5</ele>
        <time>2020-07-12T06:15:02Z</time>
      </trkpt>
      <trkpt lat="46.44412" lon="2.59423">
        <ele>189.5</ele>
        <time>2020-07-12T06:15:03Z</time>
      </trkpt>
      <trkpt lat="46.44417" lon="2.59422">
        <ele>189.9</ele>
        <time>2020-07-12T06:15:04Z</time>
      </trkpt>
      <trkpt lat="46.44422" lon="2.59421">
        <ele>190.2</ele>
        <time>2020-07-12T06:15:05Z</time>
      </trkpt>
      <trkpt lat="46.44426" lon="2.59419">
        <ele>190.5</ele>
        <time>2020-07-12T06:15:06Z</time>
      </trkpt>
      <trkpt lat="46.44431" lon="2.59418">
        <ele>190.8</ele>
        <time>2020-07-12T06:15:07Z</time>
      </trkpt>
      <trkpt lat="46.44435" lon="2.59416">
        <ele>191</ele>
        <time>2020-07-12T06:15:08Z</time>
      </trkpt>
      <trkpt lat="46.4444" lon="2.59415">
        <ele>190.6</ele>
        <time>2020-07-12T06:15:09Z</time>
      </trkpt>
      <trkpt lat="46.44444" lon="2.59413">
        <ele>190.2</ele>
        <time>2020-07-12T06:15:10Z</time>
      </trkpt>
      <trkpt lat="46.44449" lon="2.59412">
        <ele>190.6</ele>
        <time>2020-07-12T06:15:11Z</time>
      </trkpt>
      <trkpt lat="46.44453" lon="2.5941">
        <ele>190.9</ele>
        <time>2020-07-12T06:15:12Z</time>
      </trkpt>
      <trkpt lat="46.44458" lon="2.59409">
        <ele>191.1</ele>
        <time>2020-07-12T06:15:13Z</time>
      </trkpt>
      <trkpt lat="46.44462" lon="2.59407">
        <ele>191.2</ele>
        <time>2020-07-12T06:15:14Z</time>
      </trkpt>
      <trkpt lat="46.44467" lon="2.59406">
        <ele>191.3</ele>
        <time>2020-07-12T06:15:15Z</time>
      </trkpt>
      <trkpt lat="46.44471" lon="2.59405">
        <ele>191.1</ele>
        <time>2020-07-12T06:15:16Z</time>
      </trkpt>
      <trkpt lat="46.44476" lon="2.59403">
        <ele>190.9</ele>
        <time>2020-07-12T06:15:17Z</time>
      </trkpt>
      <trkpt lat="46.44481" lon="2.59402">
        <ele>190.7</ele>
        <time>2020-07-12T06:15:18Z</time>
      </trkpt>
      <trkpt lat="46.44485" lon="2.594">
        <ele>190.5</ele>
        <time>2020-07-12T06:15:19Z</time>
      </trkpt>
      <trkpt lat="46.44489" lon="2.59399">
        <ele>190.5</ele>
        <time>2020-07-12T06:15:20Z</time>
      </trkpt>
      <trkpt lat="46.44494" lon="2.59398">
        <ele>190.5</ele>
        <time>2020-07-12T06:15:21Z</time>
      </trkpt>
      <trkpt lat="46.44499" lon="2.59396">
        <ele>190.5</ele>
        <time>2020-07-12T06:15:22Z</time>
      </trkpt>
      <trkpt lat="46.44503" lon="2.59395">
        <ele>190.2</ele>
        <time>2020-07-12T06:15:23Z</time>
      </trkpt>
      <trkpt lat="46.44508" lon="2.59393">
        <ele>190.1</ele>
        <time>2020-07-12T06:15:24Z</time>
      </trkpt>
      <trkpt lat="46.44512" lon="2.59392">
        <ele>190.1</ele>
        <time>2020-07-12T06:15:25Z</time>
      </trkpt>
      <trkpt lat="46.44521" lon="2.5939">
        <ele>190.2</ele>
        <time>2020-07-12T06:15:27Z</time>
      </trkpt>
      <trkpt lat="46.44526" lon="2.59389">
        <ele>190</ele>
        <time>2020-07-12T06:15:28Z</time>
      </trkpt>
      <trkpt lat="46.4453" lon="2.59387">
        <ele>189.8</ele>
        <time>2020-07-12T06:15:29Z</time>
      </trkpt>
      <trkpt lat="46.44535" lon="2.59386">
        <ele>190</ele>
        <time>2020-07-12T06:15:30Z</time>
      </trkpt>
      <trkpt lat="46.44539" lon="2.59384">
        <ele>190.1</ele>
        <time>2020-07-12T06:15:31Z</time>
      </trkpt>
      <trkpt lat="46.44544" lon="2.59383">
        <ele>190.4</ele>
        <time>2020-07-12T06:15:32Z</time>
      </trkpt>
      <trkpt lat="46.44549" lon="2.59381">
        <ele>190.6</ele>
        <time>2020-07-12T06:15:33Z</time>
      </trkpt>
      <trkpt lat="46.44554" lon="2.5938">
        <ele>190.7</ele>
        <time>2020-07-12T06:15:34Z</time>
      </trkpt>
      <trkpt lat="46.44558" lon="2.59378">
        <ele>190.5</ele>
        <time>2020-07-12T06:15:35Z</time>
      </trkpt>
      <trkpt lat="46.44564" lon="2.59377">
        <ele>190.4</ele>
        <time>2020-07-12T06:15:36Z</time>
      </trkpt>
      <trkpt lat="46.44568" lon="2.59375">
        <ele>190.1</ele>
        <time>2020-07-12T06:15:37Z</time>
      </trkpt>
      <trkpt lat="46.44573" lon="2.59373">
        <ele>190</ele>
        <time>2020-07-12T06:15:38Z</time>
      </trkpt>
      <trkpt lat="46.44578" lon="2.59372">
        <ele>190.1</ele>
        <time>2020-07-12T06:15:39Z</time>
      </trkpt>
      <trkpt lat="46.44583" lon="2.5937">
        <ele>190.2</ele>
        <time>2020-07-12T06:15:40Z</time>
      </trkpt>
      <trkpt lat="46.44588" lon="2.59369">
        <ele>190.3</ele>
        <time>2020-07-12T06:15:41Z</time>
      </trkpt>
      <trkpt lat="46.44593" lon="2.59367">
        <ele>190.4</ele>
        <time>2020-07-12T06:15:42Z</time>
      </trkpt>
      <trkpt lat="46.44598" lon="2.59365">
        <ele>190.4</ele>
        <time>2020-07-12T06:15:43Z</time>
      </trkpt>
      <trkpt lat="46.44603" lon="2.59364">
        <ele>190.3</ele>
        <time>2020-07-12T06:15:44Z</time>
      </trkpt>
      <trkpt lat="46.44608" lon="2.59362">
        <ele>190.2</ele>
        <time>2020-07-12T06:15:45Z</time>
      </trkpt>
      <trkpt lat="46.44612" lon="2.59361">
        <ele>190.1</ele>
        <time>2020-07-12T06:15:46Z</time>
      </trkpt>
      <trkpt lat="46.44617" lon="2.59359">
        <ele>190.2</ele>
        <time>2020-07-12T06:15:47Z</time>
      </trkpt>
      <trkpt lat="46.44622" lon="2.59358">
        <ele>190.3</ele>
        <time>2020-07-12T06:15:48Z</time>
      </trkpt>
      <trkpt lat="46.44626" lon="2.59356">
        <ele>190.5</ele>
        <time>2020-07-12T06:15:49Z</time>
      </trkpt>
      <trkpt lat="46.44631" lon="2.59354">
        <ele>190.6</ele>
        <time>2020-07-12T06:15:50Z</time>
      </trkpt>
      <trkpt lat="46.44636" lon="2.59353">
        <ele>190.5</ele>
        <time>2020-07-12T06:15:51Z</time>
      </trkpt>
      <trkpt lat="46.4464" lon="2.59351">
        <ele>190.4</ele>
        <time>2020-07-12T06:15:52Z</time>
      </trkpt>
      <trkpt lat="46.44645" lon="2.5935">
        <ele>190.4</ele>
        <time>2020-07-12T06:15:53Z</time>
      </trkpt>
      <trkpt lat="46.44649" lon="2.59349">
        <ele>190.2</ele>
        <time>2020-07-12T06:15:54Z</time>
      </trkpt>
      <trkpt lat="46.44654" lon="2.59347">
        <ele>190</ele>
        <time>2020-07-12T06:15:55Z</time>
      </trkpt>
      <trkpt lat="46.44659" lon="2.59346">
        <ele>190</ele>
        <time>2020-07-12T06:15:56Z</time>
      </trkpt>
      <trkpt lat="46.44667" lon="2.59343">
        <ele>190.3</ele>
        <time>2020-07-12T06:15:58Z</time>
      </trkpt>
      <trkpt lat="46.44672" lon="2.59342">
        <ele>190.4</ele>
        <time>2020-07-12T06:15:59Z</time>
      </trkpt>
      <trkpt lat="46.44677" lon="2.5934">
        <ele>190.5</ele>
        <time>2020-07-12T06:16:00Z</time>
      </trkpt>
      <trkpt lat="46.44681" lon="2.59339">
        <ele>190.7</ele>
        <time>2020-07-12T06:16:01Z</time>
      </trkpt>
      <trkpt lat="46.44686" lon="2.59337">
        <ele>190.9</ele>
        <time>2020-07-12T06:16:02Z</time>
      </trkpt>
      <trkpt lat="46.4469" lon="2.59336">
        <ele>190.8</ele>
        <time>2020-07-12T06:16:03Z</time>
      </trkpt>
      <trkpt lat="46.44695" lon="2.59335">
        <ele>190.7</ele>
        <time>2020-07-12T06:16:04Z</time>
      </trkpt>
      <trkpt lat="46.44699" lon="2.59333">
        <ele>190.6</ele>
        <time>2020-07-12T06:16:05Z</time>
      </trkpt>
      <trkpt lat="46.44704" lon="2.59332">
        <ele>190.5</ele>
        <time>2020-07-12T06:16:06Z</time>
      </trkpt>
      <trkpt lat="46.44709" lon="2.5933">
        <ele>190.4</ele>
        <time>2020-07-12T06:16:07Z</time>
      </trkpt>
      <trkpt lat="46.44713" lon="2.59329">
        <ele>190.4</ele>
        <time>2020-07-12T06:16:08Z</time>
      </trkpt>
      <trkpt lat="46.44718" lon="2.59327">
        <ele>190.4</ele>
        <time>2020-07-12T06:16:09Z</time>
      </trkpt>
      <trkpt lat="46.44723" lon="2.59326">
        <ele>190.2</ele>
        <time>2020-07-12T06:16:10Z</time>
      </trkpt>
      <trkpt lat="46.44727" lon="2.59324">
        <ele>190</ele>
        <time>2020-07-12T06:16:11Z</time>
      </trkpt>
      <trkpt lat="46.44732" lon="2.59323">
        <ele>189.9</ele>
        <time>2020-07-12T06:16:12Z</time>
      </trkpt>
      <trkpt lat="46.44737" lon="2.59321">
        <ele>189.9</ele>
        <time>2020-07-12T06:16:13Z</time>
      </trkpt>
      <trkpt lat="46.44741" lon="2.5932">
        <ele>189.9</ele>
        <time>2020-07-12T06:16:14Z</time>
      </trkpt>
      <trkpt lat="46.44746" lon="2.59318">
        <ele>189.9</ele>
        <time>2020-07-12T06:16:15Z</time>
      </trkpt>
      <trkpt lat="46.44755" lon="2.59315">
        <ele>190.1</ele>
        <time>2020-07-12T06:16:17Z</time>
      </trkpt>
      <trkpt lat="46.44759" lon="2.59314">
        <ele>190.3</ele>
        <time>2020-07-12T06:16:18Z</time>
      </trkpt>
      <trkpt lat="46.44763" lon="2.59313">
        <ele>190.5</ele>
        <time>2020-07-12T06:16:19Z</time>
      </trkpt>
      <trkpt lat="46.44768" lon="2.59311">
        <ele>190.2</ele>
        <time>2020-07-12T06:16:20Z</time>
      </trkpt>
      <trkpt lat="46.44772" lon="2.59309">
        <ele>190.1</ele>
        <time>2020-07-12T06:16:21Z</time>
      </trkpt>
      <trkpt lat="46.44777" lon="2.59308">
        <ele>190.2</ele>
        <time>2020-07-12T06:16:22Z</time>
      </trkpt>
      <trkpt lat="46.44782" lon="2.59307">
        <ele>190.3</ele>
        <time>2020-07-12T06:16:23Z</time>
      </trkpt>
      <trkpt lat="46.44786" lon="2.59305">
        <ele>190.3</ele>
        <time>2020-07-12T06:16:24Z</time>
      </trkpt>
      <trkpt lat="46.44791" lon="2.59304">
        <ele>190.3</ele>
        <time>2020-07-12T06:16:25Z</time>
      </trkpt>
      <trkpt lat="46.44795" lon="2.59302">
        <ele>190.3</ele>
        <time>2020-07-12T06:16:26Z</time>
      </trkpt>
      <trkpt lat="46.448" lon="2.59301">
        <ele>190.4</ele>
        <time>2020-07-12T06:16:27Z</time>
      </trkpt>
      <trkpt lat="46.44805" lon="2.59299">
        <ele>190.5</ele>
        <time>2020-07-12T06:16:28Z</time>
      </trkpt>
      <trkpt lat="46.44809" lon="2.59297">
        <ele>190.7</ele>
        <time>2020-07-12T06:16:29Z</time>
      </trkpt>
      <trkpt lat="46.44814" lon="2.59296">
        <ele>190.8</ele>
        <time>2020-07-12T06:16:30Z</time>
      </trkpt>
      <trkpt lat="46.44819" lon="2.59294">
        <ele>190.9</ele>
        <time>2020-07-12T06:16:31Z</time>
      </trkpt>
      <trkpt lat="46.44824" lon="2.59293">
        <ele>190.4</ele>
        <time>2020-07-12T06:16:32Z</time>
      </trkpt>
      <trkpt lat="46.44829" lon="2.59291">
        <ele>190</ele>
        <time>2020-07-12T06:16:33Z</time>
      </trkpt>
      <trkpt lat="46.44834" lon="2.59289">
        <ele>189.9</ele>
        <time>2020-07-12T06:16:34Z</time>
      </trkpt>
      <trkpt lat="46.44839" lon="2.59287">
        <ele>189.8</ele>
        <time>2020-07-12T06:16:35Z</time>
      </trkpt>
      <trkpt lat="46.44843" lon="2.59285">
        <ele>189.9</ele>
        <time>2020-07-12T06:16:36Z</time>
      </trkpt>
      <trkpt lat="46.44851" lon="2.59282">
        <ele>190.1</ele>
        <time>2020-07-12T06:16:38Z</time>
      </trkpt>
      <trkpt lat="46.44857" lon="2.59283">
        <ele>190</ele>
        <time>2020-07-12T06:16:40Z</time>
      </trkpt>
      <trkpt lat="46.44864" lon="2.59282">
        <ele>189.4</ele>
        <time>2020-07-12T06:16:42Z</time>
      </trkpt>
      <trkpt lat="46.44871" lon="2.59281">
        <ele>189.5</ele>
        <time>2020-07-12T06:16:44Z</time>
      </trkpt>
      <trkpt lat="46.44878" lon="2.59278">
        <ele>189.5</ele>
        <time>2020-07-12T06:16:46Z</time>
      </trkpt>
      <trkpt lat="46.44885" lon="2.59275">
        <ele>189.8</ele>
        <time>2020-07-12T06:16:48Z</time>
      </trkpt>
      <trkpt lat="46.44892" lon="2.59271">
        <ele>190.2</ele>
        <time>2020-07-12T06:16:50Z</time>
      </trkpt>
      <trkpt lat="46.449" lon="2.59266">
        <ele>189.6</ele>
        <time>2020-07-12T06:16:52Z</time>
      </trkpt>
      <trkpt lat="46.44905" lon="2.59264">
        <ele>189.8</ele>
        <time>2020-07-12T06:16:53Z</time>
      </trkpt>
      <trkpt lat="46.4491" lon="2.59261">
        <ele>190.1</ele>
        <time>2020-07-12T06:16:54Z</time>
      </trkpt>
      <trkpt lat="46.44915" lon="2.59259">
        <ele>189.7</ele>
        <time>2020-07-12T06:16:55Z</time>
      </trkpt>
      <trkpt lat="46.44921" lon="2.59257">
        <ele>189.5</ele>
        <time>2020-07-12T06:16:56Z</time>
      </trkpt>
      <trkpt lat="46.44926" lon="2.59255">
        <ele>189.3</ele>
        <time>2020-07-12T06:16:57Z</time>
      </trkpt>
      <trkpt lat="46.44931" lon="2.59254">
        <ele>189.2</ele>
        <time>2020-07-12T06:16:58Z</time>
      </trkpt>
      <trkpt lat="46.44937" lon="2.59253">
        <ele>189.1</ele>
        <time>2020-07-12T06:16:59Z</time>
      </trkpt>
      <trkpt lat="46.44942" lon="2.59252">
        <ele>188.8</ele>
        <time>2020-07-12T06:17:00Z</time>
      </trkpt>
      <trkpt lat="46.44948" lon="2.59252">
        <ele>188.6</ele>
        <time>2020-07-12T06:17:01Z</time>
      </trkpt>
      <trkpt lat="46.44955" lon="2.59248">
        <ele>188.5</ele>
        <time>2020-07-12T06:17:03Z</time>
      </trkpt>
      <trkpt lat="46.44963" lon="2.59246">
        <ele>188</ele>
        <time>2020-07-12T06:17:06Z</time>
      </trkpt>
      <trkpt lat="46.4497" lon="2.59243">
        <ele>187.9</ele>
        <time>2020-07-12T06:17:08Z</time>
      </trkpt>
      <trkpt lat="46.44978" lon="2.59241">
        <ele>188.2</ele>
        <time>2020-07-12T06:17:10Z</time>
      </trkpt>
      <trkpt lat="46.44985" lon="2.59239">
        <ele>188.4</ele>
        <time>2020-07-12T06:17:12Z</time>
      </trkpt>
      <trkpt lat="46.44993" lon="2.59237">
        <ele>188.4</ele>
        <time>2020-07-12T06:17:14Z</time>
      </trkpt>
      <trkpt lat="46.45" lon="2.59235">
        <ele>188.4</ele>
        <time>2020-07-12T06:17:16Z</time>
      </trkpt>
      <trkpt lat="46.45008" lon="2.59233">
        <ele>188.3</ele>
        <time>2020-07-12T06:17:18Z</time>
      </trkpt>
      <trkpt lat="46.45016" lon="2.59231">
        <ele>187.7</ele>
        <time>2020-07-12T06:17:20Z</time>
      </trkpt>
      <trkpt lat="46.45025" lon="2.5923">
        <ele>187.9</ele>
        <time>2020-07-12T06:17:22Z</time>
      </trkpt>
      <trkpt lat="46.45034" lon="2.59229">
        <ele>187.9</ele>
        <time>2020-07-12T06:17:24Z</time>
      </trkpt>
      <trkpt lat="46.45039" lon="2.59228">
        <ele>187.9</ele>
        <time>2020-07-12T06:17:25Z</time>
      </trkpt>
      <trkpt lat="46.45043" lon="2.59228">
        <ele>187.8</ele>
        <time>2020-07-12T06:17:26Z</time>
      </trkpt>
      <trkpt lat="46.45048" lon="2.59228">
        <ele>187.7</ele>
        <time>2020-07-12T06:17:27Z</time>
      </trkpt>
      <trkpt lat="46.45052" lon="2.59228">
        <ele>187.6</ele>
        <time>2020-07-12T06:17:28Z</time>
      </trkpt>
      <trkpt lat="46.45057" lon="2.59228">
        <ele>187.7</ele>
        <time>2020-07-12T06:17:29Z</time>
      </trkpt>
      <trkpt lat="46.45061" lon="2.59229">
        <ele>187.7</ele>
        <time>2020-07-12T06:17:30Z</time>
      </trkpt>
      <trkpt lat="46.45066" lon="2.59229">
        <ele>187.4</ele>
        <time>2020-07-12T06:17:31Z</time>
      </trkpt>
      <trkpt lat="46.4507" lon="2.59229">
        <ele>187.2</ele>
        <time>2020-07-12T06:17:32Z</time>
      </trkpt>
      <trkpt lat="46.45075" lon="2.5923">
        <ele>187.1</ele>
        <time>2020-07-12T06:17:33Z</time>
      </trkpt>
      <trkpt lat="46.45079" lon="2.5923">
        <ele>187.1</ele>
        <time>2020-07-12T06:17:34Z</time>
      </trkpt>
      <trkpt lat="46.45084" lon="2.59231">
        <ele>187.1</ele>
        <time>2020-07-12T06:17:35Z</time>
      </trkpt>
      <trkpt lat="46.45088" lon="2.59232">
        <ele>187</ele>
        <time>2020-07-12T06:17:36Z</time>
      </trkpt>
      <trkpt lat="46.45093" lon="2.59232">
        <ele>187</ele>
        <time>2020-07-12T06:17:37Z</time>
      </trkpt>
      <trkpt lat="46.45097" lon="2.59233">
        <ele>187.2</ele>
        <time>2020-07-12T06:17:38Z</time>
      </trkpt>
      <trkpt lat="46.45106" lon="2.59235">
        <ele>187.6</ele>
        <time>2020-07-12T06:17:40Z</time>
      </trkpt>
      <trkpt lat="46.45111" lon="2.59236">
        <ele>187.8</ele>
        <time>2020-07-12T06:17:41Z</time>
      </trkpt>
      <trkpt lat="46.45115" lon="2.59237">
        <ele>187.9</ele>
        <time>2020-07-12T06:17:42Z</time>
      </trkpt>
      <trkpt lat="46.45124" lon="2.59239">
        <ele>188.1</ele>
        <time>2020-07-12T06:17:44Z</time>
      </trkpt>
      <trkpt lat="46.45132" lon="2.59242">
        <ele>188.4</ele>
        <time>2020-07-12T06:17:46Z</time>
      </trkpt>
      <trkpt lat="46.45141" lon="2.59245">
        <ele>188.3</ele>
        <time>2020-07-12T06:17:48Z</time>
      </trkpt>
      <trkpt lat="46.45146" lon="2.59246">
        <ele>188.1</ele>
        <time>2020-07-12T06:17:49Z</time>
      </trkpt>
      <trkpt lat="46.4515" lon="2.59248">
        <ele>187.9</ele>
        <time>2020-07-12T06:17:50Z</time>
      </trkpt>
      <trkpt lat="46.45154" lon="2.5925">
        <ele>187.7</ele>
        <time>2020-07-12T06:17:51Z</time>
      </trkpt>
      <trkpt lat="46.45159" lon="2.59252">
        <ele>187.5</ele>
        <time>2020-07-12T06:17:52Z</time>
      </trkpt>
      <trkpt lat="46.45163" lon="2.59253">
        <ele>187.4</ele>
        <time>2020-07-12T06:17:53Z</time>
      </trkpt>
      <trkpt lat="46.45168" lon="2.59256">
        <ele>187.3</ele>
        <time>2020-07-12T06:17:54Z</time>
      </trkpt>
      <trkpt lat="46.45172" lon="2.59258">
        <ele>187.1</ele>
        <time>2020-07-12T06:17:55Z</time>
      </trkpt>
      <trkpt lat="46.45176" lon="2.5926">
        <ele>186.9</ele>
        <time>2020-07-12T06:17:56Z</time>
      </trkpt>
      <trkpt lat="46.45185" lon="2.59265">
        <ele>187.2</ele>
        <time>2020-07-12T06:17:58Z</time>
      </trkpt>
      <trkpt lat="46.45193" lon="2.5927">
        <ele>187.6</ele>
        <time>2020-07-12T06:18:00Z</time>
      </trkpt>
      <trkpt lat="46.452" lon="2.59275">
        <ele>187.5</ele>
        <time>2020-07-12T06:18:02Z</time>
      </trkpt>
      <trkpt lat="46.45207" lon="2.5928">
        <ele>187.3</ele>
        <time>2020-07-12T06:18:04Z</time>
      </trkpt>
      <trkpt lat="46.45215" lon="2.59286">
        <ele>187.3</ele>
        <time>2020-07-12T06:18:06Z</time>
      </trkpt>
      <trkpt lat="46.45222" lon="2.59292">
        <ele>187.3</ele>
        <time>2020-07-12T06:18:08Z</time>
      </trkpt>
      <trkpt lat="46.4523" lon="2.59298">
        <ele>187.4</ele>
        <time>2020-07-12T06:18:10Z</time>
      </trkpt>
      <trkpt lat="46.45234" lon="2.59302">
        <ele>187.6</ele>
        <time>2020-07-12T06:18:11Z</time>
      </trkpt>
      <trkpt lat="46.45238" lon="2.59305">
        <ele>187.8</ele>
        <time>2020-07-12T06:18:12Z</time>
      </trkpt>
      <trkpt lat="46.45242" lon="2.59308">
        <ele>188</ele>
        <time>2020-07-12T06:18:13Z</time>
      </trkpt>
      <trkpt lat="46.45246" lon="2.59311">
        <ele>187.4</ele>
        <time>2020-07-12T06:18:14Z</time>
      </trkpt>
      <trkpt lat="46.4525" lon="2.59315">
        <ele>187</ele>
        <time>2020-07-12T06:18:15Z</time>
      </trkpt>
      <trkpt lat="46.45254" lon="2.59319">
        <ele>187.2</ele>
        <time>2020-07-12T06:18:16Z</time>
      </trkpt>
      <trkpt lat="46.45261" lon="2.59327">
        <ele>187.1</ele>
        <time>2020-07-12T06:18:18Z</time>
      </trkpt>
      <trkpt lat="46.45265" lon="2.59331">
        <ele>186.9</ele>
        <time>2020-07-12T06:18:19Z</time>
      </trkpt>
      <trkpt lat="46.45268" lon="2.59335">
        <ele>186.8</ele>
        <time>2020-07-12T06:18:20Z</time>
      </trkpt>
      <trkpt lat="46.45272" lon="2.59339">
        <ele>187</ele>
        <time>2020-07-12T06:18:21Z</time>
      </trkpt>
      <trkpt lat="46.45275" lon="2.59343">
        <ele>187.2</ele>
        <time>2020-07-12T06:18:22Z</time>
      </trkpt>
      <trkpt lat="46.45283" lon="2.59351">
        <ele>187</ele>
        <time>2020-07-12T06:18:24Z</time>
      </trkpt>
      <trkpt lat="46.45289" lon="2.59359">
        <ele>186.9</ele>
        <time>2020-07-12T06:18:26Z</time>
      </trkpt>
      <trkpt lat="46.45296" lon="2.59367">
        <ele>187.2</ele>
        <time>2020-07-12T06:18:28Z</time>
      </trkpt>
      <trkpt lat="46.453" lon="2.59371">
        <ele>187.3</ele>
        <time>2020-07-12T06:18:29Z</time>
      </trkpt>
      <trkpt lat="46.45304" lon="2.59375">
        <ele>187.7</ele>
        <time>2020-07-12T06:18:30Z</time>
      </trkpt>
      <trkpt lat="46.45307" lon="2.59379">
        <ele>188</ele>
        <time>2020-07-12T06:18:31Z</time>
      </trkpt>
      <trkpt lat="46.45314" lon="2.59388">
        <ele>187.9</ele>
        <time>2020-07-12T06:18:33Z</time>
      </trkpt>
      <trkpt lat="46.45321" lon="2.59396">
        <ele>188.1</ele>
        <time>2020-07-12T06:18:35Z</time>
      </trkpt>
      <trkpt lat="46.45328" lon="2.59404">
        <ele>187.9</ele>
        <time>2020-07-12T06:18:37Z</time>
      </trkpt>
      <trkpt lat="46.45331" lon="2.59408">
        <ele>187.5</ele>
        <time>2020-07-12T06:18:38Z</time>
      </trkpt>
      <trkpt lat="46.45341" lon="2.5942">
        <ele>187.3</ele>
        <time>2020-07-12T06:18:41Z</time>
      </trkpt>
      <trkpt lat="46.45347" lon="2.59428">
        <ele>188.2</ele>
        <time>2020-07-12T06:18:43Z</time>
      </trkpt>
      <trkpt lat="46.45353" lon="2.59436">
        <ele>188.2</ele>
        <time>2020-07-12T06:18:45Z</time>
      </trkpt>
      <trkpt lat="46.45359" lon="2.59444">
        <ele>187.9</ele>
        <time>2020-07-12T06:18:47Z</time>
      </trkpt>
      <trkpt lat="46.45365" lon="2.59452">
        <ele>187.9</ele>
        <time>2020-07-12T06:18:49Z</time>
      </trkpt>
      <trkpt lat="46.45371" lon="2.5946">
        <ele>188</ele>
        <time>2020-07-12T06:18:51Z</time>
      </trkpt>
      <trkpt lat="46.45378" lon="2.59468">
        <ele>187.6</ele>
        <time>2020-07-12T06:18:53Z</time>
      </trkpt>
      <trkpt lat="46.45385" lon="2.59476">
        <ele>186.8</ele>
        <time>2020-07-12T06:18:55Z</time>
      </trkpt>
      <trkpt lat="46.45388" lon="2.5948">
        <ele>186.9</ele>
        <time>2020-07-12T06:18:56Z</time>
      </trkpt>
      <trkpt lat="46.45395" lon="2.59488">
        <ele>187</ele>
        <time>2020-07-12T06:18:58Z</time>
      </trkpt>
      <trkpt lat="46.45402" lon="2.59496">
        <ele>187.5</ele>
        <time>2020-07-12T06:19:00Z</time>
      </trkpt>
      <trkpt lat="46.45409" lon="2.59504">
        <ele>187.2</ele>
        <time>2020-07-12T06:19:02Z</time>
      </trkpt>
      <trkpt lat="46.45416" lon="2.59512">
        <ele>187.6</ele>
        <time>2020-07-12T06:19:04Z</time>
      </trkpt>
      <trkpt lat="46.45423" lon="2.59519">
        <ele>187.5</ele>
        <time>2020-07-12T06:19:06Z</time>
      </trkpt>
      <trkpt lat="46.4543" lon="2.59527">
        <ele>187.4</ele>
        <time>2020-07-12T06:19:08Z</time>
      </trkpt>
      <trkpt lat="46.45434" lon="2.59531">
        <ele>187.4</ele>
        <time>2020-07-12T06:19:09Z</time>
      </trkpt>
      <trkpt lat="46.45438" lon="2.59535">
        <ele>187.4</ele>
        <time>2020-07-12T06:19:10Z</time>
      </trkpt>
      <trkpt lat="46.45445" lon="2.59543">
        <ele>187.3</ele>
        <time>2020-07-12T06:19:12Z</time>
      </trkpt>
      <trkpt lat="46.45448" lon="2.59547">
        <ele>187.6</ele>
        <time>2020-07-12T06:19:13Z</time>
      </trkpt>
      <trkpt lat="46.45452" lon="2.59551">
        <ele>187.7</ele>
        <time>2020-07-12T06:19:14Z</time>
      </trkpt>
      <trkpt lat="46.45456" lon="2.59555">
        <ele>187.9</ele>
        <time>2020-07-12T06:19:15Z</time>
      </trkpt>
      <trkpt lat="46.45459" lon="2.59559">
        <ele>188</ele>
        <time>2020-07-12T06:19:16Z</time>
      </trkpt>
      <trkpt lat="46.45463" lon="2.59563">
        <ele>188</ele>
        <time>2020-07-12T06:19:17Z</time>
      </trkpt>
      <trkpt lat="46.45467" lon="2.59567">
        <ele>187.9</ele>
        <time>2020-07-12T06:19:18Z</time>
      </trkpt>
      <trkpt lat="46.4547" lon="2.59571">
        <ele>187.8</ele>
        <time>2020-07-12T06:19:19Z</time>
      </trkpt>
      <trkpt lat="46.45474" lon="2.59575">
        <ele>187.7</ele>
        <time>2020-07-12T06:19:20Z</time>
      </trkpt>
      <trkpt lat="46.45478" lon="2.59579">
        <ele>187.6</ele>
        <time>2020-07-12T06:19:21Z</time>
      </trkpt>
      <trkpt lat="46.45481" lon="2.59583">
        <ele>187.6</ele>
        <time>2020-07-12T06:19:22Z</time>
      </trkpt>
      <trkpt lat="46.45485" lon="2.59587">
        <ele>187.6</ele>
        <time>2020-07-12T06:19:23Z</time>
      </trkpt>
      <trkpt lat="46.45489" lon="2.59592">
        <ele>187.6</ele>
        <time>2020-07-12T06:19:24Z</time>
      </trkpt>
      <trkpt lat="46.45492" lon="2.59596">
        <ele>187.9</ele>
        <time>2020-07-12T06:19:25Z</time>
      </trkpt>
      <trkpt lat="46.45499" lon="2.59603">
        <ele>187.9</ele>
        <time>2020-07-12T06:19:27Z</time>
      </trkpt>
      <trkpt lat="46.45506" lon="2.59611">
        <ele>187.5</ele>
        <time>2020-07-12T06:19:29Z</time>
      </trkpt>
      <trkpt lat="46.45513" lon="2.59619">
        <ele>187.3</ele>
        <time>2020-07-12T06:19:31Z</time>
      </trkpt>
      <trkpt lat="46.45517" lon="2.59623">
        <ele>187.2</ele>
        <time>2020-07-12T06:19:32Z</time>
      </trkpt>
      <trkpt lat="46.45521" lon="2.59627">
        <ele>187.2</ele>
        <time>2020-07-12T06:19:33Z</time>
      </trkpt>
      <trkpt lat="46.45524" lon="2.59631">
        <ele>187.2</ele>
        <time>2020-07-12T06:19:34Z</time>
      </trkpt>
      <trkpt lat="46.45528" lon="2.59635">
        <ele>187.2</ele>
        <time>2020-07-12T06:19:35Z</time>
      </trkpt>
      <trkpt lat="46.45532" lon="2.59639">
        <ele>187.2</ele>
        <time>2020-07-12T06:19:36Z</time>
      </trkpt>
      <trkpt lat="46.45536" lon="2.59643">
        <ele>187.4</ele>
        <time>2020-07-12T06:19:37Z</time>
      </trkpt>
      <trkpt lat="46.45539" lon="2.59647">
        <ele>187.6</ele>
        <time>2020-07-12T06:19:38Z</time>
      </trkpt>
      <trkpt lat="46.45543" lon="2.59651">
        <ele>187.5</ele>
        <time>2020-07-12T06:19:39Z</time>
      </trkpt>
      <trkpt lat="46.45546" lon="2.59655">
        <ele>187.5</ele>
        <time>2020-07-12T06:19:40Z</time>
      </trkpt>
      <trkpt lat="46.45551" lon="2.5966">
        <ele>187.7</ele>
        <time>2020-07-12T06:19:41Z</time>
      </trkpt>
      <trkpt lat="46.45554" lon="2.59664">
        <ele>187.8</ele>
        <time>2020-07-12T06:19:42Z</time>
      </trkpt>
      <trkpt lat="46.45558" lon="2.59667">
        <ele>187.9</ele>
        <time>2020-07-12T06:19:43Z</time>
      </trkpt>
      <trkpt lat="46.45562" lon="2.59672">
        <ele>187.9</ele>
        <time>2020-07-12T06:19:44Z</time>
      </trkpt>
      <trkpt lat="46.45566" lon="2.59676">
        <ele>187.9</ele>
        <time>2020-07-12T06:19:45Z</time>
      </trkpt>
      <trkpt lat="46.45569" lon="2.5968">
        <ele>187.6</ele>
        <time>2020-07-12T06:19:46Z</time>
      </trkpt>
      <trkpt lat="46.45573" lon="2.59685">
        <ele>187.4</ele>
        <time>2020-07-12T06:19:47Z</time>
      </trkpt>
      <trkpt lat="46.45577" lon="2.59689">
        <ele>187.3</ele>
        <time>2020-07-12T06:19:48Z</time>
      </trkpt>
      <trkpt lat="46.45581" lon="2.59693">
        <ele>187.7</ele>
        <time>2020-07-12T06:19:49Z</time>
      </trkpt>
      <trkpt lat="46.45585" lon="2.59697">
        <ele>188</ele>
        <time>2020-07-12T06:19:50Z</time>
      </trkpt>
      <trkpt lat="46.45589" lon="2.59701">
        <ele>187.8</ele>
        <time>2020-07-12T06:19:51Z</time>
      </trkpt>
      <trkpt lat="46.45592" lon="2.59705">
        <ele>187.7</ele>
        <time>2020-07-12T06:19:52Z</time>
      </trkpt>
      <trkpt lat="46.45596" lon="2.59709">
        <ele>187.5</ele>
        <time>2020-07-12T06:19:53Z</time>
      </trkpt>
      <trkpt lat="46.456" lon="2.59713">
        <ele>187.3</ele>
        <time>2020-07-12T06:19:54Z</time>
      </trkpt>
      <trkpt lat="46.45607" lon="2.59722">
        <ele>187.1</ele>
        <time>2020-07-12T06:19:56Z</time>
      </trkpt>
      <trkpt lat="46.45614" lon="2.5973">
        <ele>187.3</ele>
        <time>2020-07-12T06:19:58Z</time>
      </trkpt>
      <trkpt lat="46.45617" lon="2.59734">
        <ele>187.5</ele>
        <time>2020-07-12T06:19:59Z</time>
      </trkpt>
      <trkpt lat="46.45621" lon="2.59738">
        <ele>187.4</ele>
        <time>2020-07-12T06:20:00Z</time>
      </trkpt>
      <trkpt lat="46.45628" lon="2.59746">
        <ele>187.3</ele>
        <time>2020-07-12T06:20:02Z</time>
      </trkpt>
      <trkpt lat="46.45634" lon="2.59754">
        <ele>186.4</ele>
        <time>2020-07-12T06:20:04Z</time>
      </trkpt>
      <trkpt lat="46.45641" lon="2.59762">
        <ele>186.8</ele>
        <time>2020-07-12T06:20:06Z</time>
      </trkpt>
      <trkpt lat="46.45647" lon="2.59769">
        <ele>186.9</ele>
        <time>2020-07-12T06:20:08Z</time>
      </trkpt>
      <trkpt lat="46.45654" lon="2.59777">
        <ele>186.9</ele>
        <time>2020-07-12T06:20:10Z</time>
      </trkpt>
      <trkpt lat="46.4566" lon="2.59785">
        <ele>187</ele>
        <time>2020-07-12T06:20:12Z</time>
      </trkpt>
      <trkpt lat="46.45664" lon="2.59788">
        <ele>187.2</ele>
        <time>2020-07-12T06:20:13Z</time>
      </trkpt>
      <trkpt lat="46.45668" lon="2.59793">
        <ele>187.3</ele>
        <time>2020-07-12T06:20:14Z</time>
      </trkpt>
      <trkpt lat="46.45674" lon="2.59801">
        <ele>187.3</ele>
        <time>2020-07-12T06:20:16Z</time>
      </trkpt>
      <trkpt lat="46.45682" lon="2.59808">
        <ele>187.3</ele>
        <time>2020-07-12T06:20:18Z</time>
      </trkpt>
      <trkpt lat="46.45685" lon="2.59813">
        <ele>187.4</ele>
        <time>2020-07-12T06:20:19Z</time>
      </trkpt>
      <trkpt lat="46.45689" lon="2.59817">
        <ele>187.5</ele>
        <time>2020-07-12T06:20:20Z</time>
      </trkpt>
      <trkpt lat="46.45693" lon="2.59821">
        <ele>187.5</ele>
        <time>2020-07-12T06:20:21Z</time>
      </trkpt>
      <trkpt lat="46.45696" lon="2.59825">
        <ele>187.5</ele>
        <time>2020-07-12T06:20:22Z</time>
      </trkpt>
      <trkpt lat="46.457" lon="2.5983">
        <ele>187.5</ele>
        <time>2020-07-12T06:20:23Z</time>
      </trkpt>
      <trkpt lat="46.45704" lon="2.59834">
        <ele>187.6</ele>
        <time>2020-07-12T06:20:24Z</time>
      </trkpt>
      <trkpt lat="46.45707" lon="2.59838">
        <ele>187.7</ele>
        <time>2020-07-12T06:20:25Z</time>
      </trkpt>
      <trkpt lat="46.45711" lon="2.59842">
        <ele>187.8</ele>
        <time>2020-07-12T06:20:26Z</time>
      </trkpt>
      <trkpt lat="46.45715" lon="2.59846">
        <ele>187.6</ele>
        <time>2020-07-12T06:20:27Z</time>
      </trkpt>
      <trkpt lat="46.45719" lon="2.5985">
        <ele>187.4</ele>
        <time>2020-07-12T06:20:28Z</time>
      </trkpt>
      <trkpt lat="46.45722" lon="2.59854">
        <ele>187.4</ele>
        <time>2020-07-12T06:20:29Z</time>
      </trkpt>
      <trkpt lat="46.45726" lon="2.59858">
        <ele>187.3</ele>
        <time>2020-07-12T06:20:30Z</time>
      </trkpt>
      <trkpt lat="46.4573" lon="2.59862">
        <ele>187.4</ele>
        <time>2020-07-12T06:20:31Z</time>
      </trkpt>
      <trkpt lat="46.45734" lon="2.59866">
        <ele>187.4</ele>
        <time>2020-07-12T06:20:32Z</time>
      </trkpt>
      <trkpt lat="46.45738" lon="2.59871">
        <ele>187.4</ele>
        <time>2020-07-12T06:20:33Z</time>
      </trkpt>
      <trkpt lat="46.45742" lon="2.59875">
        <ele>187.4</ele>
        <time>2020-07-12T06:20:34Z</time>
      </trkpt>
      <trkpt lat="46.45746" lon="2.59879">
        <ele>187.5</ele>
        <time>2020-07-12T06:20:35Z</time>
      </trkpt>
      <trkpt lat="46.4575" lon="2.59884">
        <ele>187.4</ele>
        <time>2020-07-12T06:20:36Z</time>
      </trkpt>
      <trkpt lat="46.45754" lon="2.59888">
        <ele>187.4</ele>
        <time>2020-07-12T06:20:37Z</time>
      </trkpt>
      <trkpt lat="46.45758" lon="2.59892">
        <ele>187.2</ele>
        <time>2020-07-12T06:20:38Z</time>
      </trkpt>
      <trkpt lat="46.45762" lon="2.59897">
        <ele>187.2</ele>
        <time>2020-07-12T06:20:39Z</time>
      </trkpt>
      <trkpt lat="46.45766" lon="2.59901">
        <ele>187.1</ele>
        <time>2020-07-12T06:20:40Z</time>
      </trkpt>
      <trkpt lat="46.45769" lon="2.59905">
        <ele>186.9</ele>
        <time>2020-07-12T06:20:41Z</time>
      </trkpt>
      <trkpt lat="46.45773" lon="2.59909">
        <ele>186.8</ele>
        <time>2020-07-12T06:20:42Z</time>
      </trkpt>
      <trkpt lat="46.45777" lon="2.59913">
        <ele>186.8</ele>
        <time>2020-07-12T06:20:43Z</time>
      </trkpt>
      <trkpt lat="46.45781" lon="2.59917">
        <ele>186.9</ele>
        <time>2020-07-12T06:20:44Z</time>
      </trkpt>
      <trkpt lat="46.45785" lon="2.59921">
        <ele>186.5</ele>
        <time>2020-07-12T06:20:45Z</time>
      </trkpt>
      <trkpt lat="46.45789" lon="2.59926">
        <ele>186.3</ele>
        <time>2020-07-12T06:20:46Z</time>
      </trkpt>
      <trkpt lat="46.45793" lon="2.5993">
        <ele>186.1</ele>
        <time>2020-07-12T06:20:47Z</time>
      </trkpt>
      <trkpt lat="46.45797" lon="2.59934">
        <ele>186.7</ele>
        <time>2020-07-12T06:20:48Z</time>
      </trkpt>
      <trkpt lat="46.45801" lon="2.59938">
        <ele>187.1</ele>
        <time>2020-07-12T06:20:49Z</time>
      </trkpt>
      <trkpt lat="46.45805" lon="2.59942">
        <ele>187.1</ele>
        <time>2020-07-12T06:20:50Z</time>
      </trkpt>
      <trkpt lat="46.45809" lon="2.59946">
        <ele>187.1</ele>
        <time>2020-07-12T06:20:51Z</time>
      </trkpt>
      <trkpt lat="46.45813" lon="2.59951">
        <ele>187.2</ele>
        <time>2020-07-12T06:20:52Z</time>
      </trkpt>
      <trkpt lat="46.45817" lon="2.59955">
        <ele>187.3</ele>
        <time>2020-07-12T06:20:53Z</time>
      </trkpt>
      <trkpt lat="46.45821" lon="2.59959">
        <ele>187.4</ele>
        <time>2020-07-12T06:20:54Z</time>
      </trkpt>
      <trkpt lat="46.45825" lon="2.59963">
        <ele>187.3</ele>
        <time>2020-07-12T06:20:55Z</time>
      </trkpt>
      <trkpt lat="46.45828" lon="2.59967">
        <ele>187.3</ele>
        <time>2020-07-12T06:20:56Z</time>
      </trkpt>
      <trkpt lat="46.45832" lon="2.59972">
        <ele>187.1</ele>
        <time>2020-07-12T06:20:57Z</time>
      </trkpt>
      <trkpt lat="46.45836" lon="2.59976">
        <ele>187</ele>
        <time>2020-07-12T06:20:58Z</time>
      </trkpt>
      <trkpt lat="46.4584" lon="2.5998">
        <ele>186.9</ele>
        <time>2020-07-12T06:20:59Z</time>
      </trkpt>
      <trkpt lat="46.45844" lon="2.59984">
        <ele>187.1</ele>
        <time>2020-07-12T06:21:00Z</time>
      </trkpt>
      <trkpt lat="46.45848" lon="2.59989">
        <ele>187.2</ele>
        <time>2020-07-12T06:21:01Z</time>
      </trkpt>
      <trkpt lat="46.45852" lon="2.59993">
        <ele>187.1</ele>
        <time>2020-07-12T06:21:02Z</time>
      </trkpt>
      <trkpt lat="46.45856" lon="2.59997">
        <ele>187</ele>
        <time>2020-07-12T06:21:03Z</time>
      </trkpt>
      <trkpt lat="46.4586" lon="2.60001">
        <ele>187.3</ele>
        <time>2020-07-12T06:21:04Z</time>
      </trkpt>
      <trkpt lat="46.45864" lon="2.60005">
        <ele>187.5</ele>
        <time>2020-07-12T06:21:05Z</time>
      </trkpt>
      <trkpt lat="46.45868" lon="2.60009">
        <ele>187.7</ele>
        <time>2020-07-12T06:21:06Z</time>
      </trkpt>
      <trkpt lat="46.45871" lon="2.60013">
        <ele>187.7</ele>
        <time>2020-07-12T06:21:07Z</time>
      </trkpt>
      <trkpt lat="46.45878" lon="2.60021">
        <ele>187.4</ele>
        <time>2020-07-12T06:21:09Z</time>
      </trkpt>
      <trkpt lat="46.45882" lon="2.60025">
        <ele>187.2</ele>
        <time>2020-07-12T06:21:10Z</time>
      </trkpt>
      <trkpt lat="46.45886" lon="2.60029">
        <ele>187.1</ele>
        <time>2020-07-12T06:21:11Z</time>
      </trkpt>
      <trkpt lat="46.45889" lon="2.60033">
        <ele>187.2</ele>
        <time>2020-07-12T06:21:12Z</time>
      </trkpt>
      <trkpt lat="46.45893" lon="2.60037">
        <ele>187.2</ele>
        <time>2020-07-12T06:21:13Z</time>
      </trkpt>
      <trkpt lat="46.459" lon="2.60045">
        <ele>187.4</ele>
        <time>2020-07-12T06:21:15Z</time>
      </trkpt>
      <trkpt lat="46.45907" lon="2.60053">
        <ele>186.6</ele>
        <time>2020-07-12T06:21:17Z</time>
      </trkpt>
      <trkpt lat="46.45914" lon="2.60061">
        <ele>186.8</ele>
        <time>2020-07-12T06:21:19Z</time>
      </trkpt>
      <trkpt lat="46.4592" lon="2.60069">
        <ele>187</ele>
        <time>2020-07-12T06:21:21Z</time>
      </trkpt>
      <trkpt lat="46.45926" lon="2.60076">
        <ele>187</ele>
        <time>2020-07-12T06:21:23Z</time>
      </trkpt>
      <trkpt lat="46.45933" lon="2.60084">
        <ele>187</ele>
        <time>2020-07-12T06:21:25Z</time>
      </trkpt>
      <trkpt lat="46.4594" lon="2.60093">
        <ele>186.8</ele>
        <time>2020-07-12T06:21:27Z</time>
      </trkpt>
      <trkpt lat="46.45946" lon="2.60101">
        <ele>187</ele>
        <time>2020-07-12T06:21:29Z</time>
      </trkpt>
      <trkpt lat="46.45953" lon="2.60109">
        <ele>187.1</ele>
        <time>2020-07-12T06:21:31Z</time>
      </trkpt>
      <trkpt lat="46.45957" lon="2.60113">
        <ele>187.1</ele>
        <time>2020-07-12T06:21:32Z</time>
      </trkpt>
      <trkpt lat="46.4596" lon="2.60117">
        <ele>186.9</ele>
        <time>2020-07-12T06:21:33Z</time>
      </trkpt>
      <trkpt lat="46.45964" lon="2.60121">
        <ele>186.8</ele>
        <time>2020-07-12T06:21:34Z</time>
      </trkpt>
      <trkpt lat="46.45967" lon="2.60125">
        <ele>186.9</ele>
        <time>2020-07-12T06:21:35Z</time>
      </trkpt>
      <trkpt lat="46.45971" lon="2.6013">
        <ele>187</ele>
        <time>2020-07-12T06:21:36Z</time>
      </trkpt>
      <trkpt lat="46.45975" lon="2.60134">
        <ele>187</ele>
        <time>2020-07-12T06:21:37Z</time>
      </trkpt>
      <trkpt lat="46.45979" lon="2.60138">
        <ele>187.1</ele>
        <time>2020-07-12T06:21:38Z</time>
      </trkpt>
      <trkpt lat="46.45983" lon="2.60143">
        <ele>187.1</ele>
        <time>2020-07-12T06:21:39Z</time>
      </trkpt>
      <trkpt lat="46.45986" lon="2.60147">
        <ele>187</ele>
        <time>2020-07-12T06:21:40Z</time>
      </trkpt>
      <trkpt lat="46.4599" lon="2.60151">
        <ele>186.9</ele>
        <time>2020-07-12T06:21:41Z</time>
      </trkpt>
      <trkpt lat="46.45994" lon="2.60155">
        <ele>186.9</ele>
        <time>2020-07-12T06:21:42Z</time>
      </trkpt>
      <trkpt lat="46.46001" lon="2.60162">
        <ele>186.9</ele>
        <time>2020-07-12T06:21:44Z</time>
      </trkpt>
      <trkpt lat="46.46008" lon="2.60169">
        <ele>186.7</ele>
        <time>2020-07-12T06:21:46Z</time>
      </trkpt>
      <trkpt lat="46.46015" lon="2.60177">
        <ele>187.1</ele>
        <time>2020-07-12T06:21:48Z</time>
      </trkpt>
      <trkpt lat="46.4602" lon="2.6018">
        <ele>187.3</ele>
        <time>2020-07-12T06:21:49Z</time>
      </trkpt>
      <trkpt lat="46.46024" lon="2.60184">
        <ele>186.8</ele>
        <time>2020-07-12T06:21:50Z</time>
      </trkpt>
      <trkpt lat="46.46028" lon="2.60187">
        <ele>186.5</ele>
        <time>2020-07-12T06:21:51Z</time>
      </trkpt>
      <trkpt lat="46.46032" lon="2.6019">
        <ele>186.6</ele>
        <time>2020-07-12T06:21:52Z</time>
      </trkpt>
      <trkpt lat="46.46036" lon="2.60193">
        <ele>186.6</ele>
        <time>2020-07-12T06:21:53Z</time>
      </trkpt>
      <trkpt lat="46.46044" lon="2.602">
        <ele>186.6</ele>
        <time>2020-07-12T06:21:55Z</time>
      </trkpt>
      <trkpt lat="46.46051" lon="2.60206">
        <ele>186.5</ele>
        <time>2020-07-12T06:21:57Z</time>
      </trkpt>
      <trkpt lat="46.46059" lon="2.60211">
        <ele>186.2</ele>
        <time>2020-07-12T06:21:59Z</time>
      </trkpt>
      <trkpt lat="46.46064" lon="2.60213">
        <ele>186</ele>
        <time>2020-07-12T06:22:00Z</time>
      </trkpt>
      <trkpt lat="46.46068" lon="2.60216">
        <ele>185.8</ele>
        <time>2020-07-12T06:22:01Z</time>
      </trkpt>
      <trkpt lat="46.46072" lon="2.60218">
        <ele>185.6</ele>
        <time>2020-07-12T06:22:02Z</time>
      </trkpt>
      <trkpt lat="46.46077" lon="2.60221">
        <ele>185.5</ele>
        <time>2020-07-12T06:22:03Z</time>
      </trkpt>
      <trkpt lat="46.46081" lon="2.60224">
        <ele>185.6</ele>
        <time>2020-07-12T06:22:04Z</time>
      </trkpt>
      <trkpt lat="46.46086" lon="2.60226">
        <ele>185.7</ele>
        <time>2020-07-12T06:22:05Z</time>
      </trkpt>
      <trkpt lat="46.4609" lon="2.60229">
        <ele>186.1</ele>
        <time>2020-07-12T06:22:06Z</time>
      </trkpt>
      <trkpt lat="46.46094" lon="2.60232">
        <ele>186.4</ele>
        <time>2020-07-12T06:22:07Z</time>
      </trkpt>
      <trkpt lat="46.46099" lon="2.60234">
        <ele>186.6</ele>
        <time>2020-07-12T06:22:08Z</time>
      </trkpt>
      <trkpt lat="46.46103" lon="2.60237">
        <ele>186.7</ele>
        <time>2020-07-12T06:22:09Z</time>
      </trkpt>
      <trkpt lat="46.46111" lon="2.60242">
        <ele>186.4</ele>
        <time>2020-07-12T06:22:11Z</time>
      </trkpt>
      <trkpt lat="46.46116" lon="2.60244">
        <ele>186</ele>
        <time>2020-07-12T06:22:12Z</time>
      </trkpt>
      <trkpt lat="46.4612" lon="2.60246">
        <ele>185.9</ele>
        <time>2020-07-12T06:22:13Z</time>
      </trkpt>
      <trkpt lat="46.46125" lon="2.60248">
        <ele>185.8</ele>
        <time>2020-07-12T06:22:14Z</time>
      </trkpt>
      <trkpt lat="46.46129" lon="2.6025">
        <ele>185.8</ele>
        <time>2020-07-12T06:22:15Z</time>
      </trkpt>
      <trkpt lat="46.46137" lon="2.60254">
        <ele>185.8</ele>
        <time>2020-07-12T06:22:17Z</time>
      </trkpt>
      <trkpt lat="46.46146" lon="2.60258">
        <ele>186.4</ele>
        <time>2020-07-12T06:22:19Z</time>
      </trkpt>
      <trkpt lat="46.46154" lon="2.60262">
        <ele>186.9</ele>
        <time>2020-07-12T06:22:21Z</time>
      </trkpt>
      <trkpt lat="46.46158" lon="2.60264">
        <ele>187.1</ele>
        <time>2020-07-12T06:22:22Z</time>
      </trkpt>
      <trkpt lat="46.46163" lon="2.60265">
        <ele>187</ele>
        <time>2020-07-12T06:22:23Z</time>
      </trkpt>
      <trkpt lat="46.46168" lon="2.60267">
        <ele>187</ele>
        <time>2020-07-12T06:22:24Z</time>
      </trkpt>
      <trkpt lat="46.46172" lon="2.60269">
        <ele>186.8</ele>
        <time>2020-07-12T06:22:25Z</time>
      </trkpt>
      <trkpt lat="46.46176" lon="2.60271">
        <ele>186.6</ele>
        <time>2020-07-12T06:22:26Z</time>
      </trkpt>
      <trkpt lat="46.46181" lon="2.60273">
        <ele>186.5</ele>
        <time>2020-07-12T06:22:27Z</time>
      </trkpt>
      <trkpt lat="46.46185" lon="2.60275">
        <ele>186.3</ele>
        <time>2020-07-12T06:22:28Z</time>
      </trkpt>
      <trkpt lat="46.46189" lon="2.60276">
        <ele>186.2</ele>
        <time>2020-07-12T06:22:29Z</time>
      </trkpt>
      <trkpt lat="46.46194" lon="2.60278">
        <ele>186.4</ele>
        <time>2020-07-12T06:22:30Z</time>
      </trkpt>
      <trkpt lat="46.46198" lon="2.6028">
        <ele>186.5</ele>
        <time>2020-07-12T06:22:31Z</time>
      </trkpt>
      <trkpt lat="46.46203" lon="2.60282">
        <ele>186.5</ele>
        <time>2020-07-12T06:22:32Z</time>
      </trkpt>
      <trkpt lat="46.46207" lon="2.60284">
        <ele>186.6</ele>
        <time>2020-07-12T06:22:33Z</time>
      </trkpt>
      <trkpt lat="46.46211" lon="2.60286">
        <ele>186.6</ele>
        <time>2020-07-12T06:22:34Z</time>
      </trkpt>
      <trkpt lat="46.46216" lon="2.60288">
        <ele>186.8</ele>
        <time>2020-07-12T06:22:35Z</time>
      </trkpt>
      <trkpt lat="46.4622" lon="2.60289">
        <ele>186.9</ele>
        <time>2020-07-12T06:22:36Z</time>
      </trkpt>
      <trkpt lat="46.46225" lon="2.60291">
        <ele>186.9</ele>
        <time>2020-07-12T06:22:37Z</time>
      </trkpt>
      <trkpt lat="46.46229" lon="2.60293">
        <ele>186.8</ele>
        <time>2020-07-12T06:22:38Z</time>
      </trkpt>
      <trkpt lat="46.46234" lon="2.60295">
        <ele>186.9</ele>
        <time>2020-07-12T06:22:39Z</time>
      </trkpt>
      <trkpt lat="46.46238" lon="2.60297">
        <ele>187</ele>
        <time>2020-07-12T06:22:40Z</time>
      </trkpt>
      <trkpt lat="46.46247" lon="2.603">
        <ele>186.9</ele>
        <time>2020-07-12T06:22:42Z</time>
      </trkpt>
      <trkpt lat="46.46251" lon="2.60301">
        <ele>186.7</ele>
        <time>2020-07-12T06:22:43Z</time>
      </trkpt>
      <trkpt lat="46.46262" lon="2.60306">
        <ele>186.9</ele>
        <time>2020-07-12T06:22:46Z</time>
      </trkpt>
      <trkpt lat="46.46268" lon="2.60309">
        <ele>186.7</ele>
        <time>2020-07-12T06:22:48Z</time>
      </trkpt>
      <trkpt lat="46.46276" lon="2.60312">
        <ele>187.9</ele>
        <time>2020-07-12T06:22:51Z</time>
      </trkpt>
      <trkpt lat="46.46284" lon="2.60317">
        <ele>188.9</ele>
        <time>2020-07-12T06:22:55Z</time>
      </trkpt>
      <trkpt lat="46.46291" lon="2.60319">
        <ele>188.3</ele>
        <time>2020-07-12T06:22:57Z</time>
      </trkpt>
      <trkpt lat="46.46296" lon="2.60319">
        <ele>187.8</ele>
        <time>2020-07-12T06:22:59Z</time>
      </trkpt>
      <trkpt lat="46.46303" lon="2.60321">
        <ele>187.5</ele>
        <time>2020-07-12T06:23:01Z</time>
      </trkpt>
      <trkpt lat="46.46312" lon="2.60325">
        <ele>187.3</ele>
        <time>2020-07-12T06:23:03Z</time>
      </trkpt>
      <trkpt lat="46.4632" lon="2.60328">
        <ele>187.1</ele>
        <time>2020-07-12T06:23:05Z</time>
      </trkpt>
      <trkpt lat="46.46329" lon="2.60331">
        <ele>187.6</ele>
        <time>2020-07-12T06:23:07Z</time>
      </trkpt>
      <trkpt lat="46.46336" lon="2.60334">
        <ele>187.2</ele>
        <time>2020-07-12T06:23:09Z</time>
      </trkpt>
      <trkpt lat="46.46344" lon="2.60338">
        <ele>186.6</ele>
        <time>2020-07-12T06:23:11Z</time>
      </trkpt>
      <trkpt lat="46.46353" lon="2.60342">
        <ele>186.4</ele>
        <time>2020-07-12T06:23:13Z</time>
      </trkpt>
      <trkpt lat="46.46357" lon="2.60343">
        <ele>186.4</ele>
        <time>2020-07-12T06:23:14Z</time>
      </trkpt>
      <trkpt lat="46.46366" lon="2.60347">
        <ele>186.7</ele>
        <time>2020-07-12T06:23:16Z</time>
      </trkpt>
      <trkpt lat="46.4637" lon="2.60349">
        <ele>186.9</ele>
        <time>2020-07-12T06:23:17Z</time>
      </trkpt>
      <trkpt lat="46.46375" lon="2.60351">
        <ele>187</ele>
        <time>2020-07-12T06:23:18Z</time>
      </trkpt>
      <trkpt lat="46.46379" lon="2.60353">
        <ele>187.1</ele>
        <time>2020-07-12T06:23:19Z</time>
      </trkpt>
      <trkpt lat="46.46384" lon="2.60355">
        <ele>187.2</ele>
        <time>2020-07-12T06:23:20Z</time>
      </trkpt>
      <trkpt lat="46.46388" lon="2.60357">
        <ele>187.3</ele>
        <time>2020-07-12T06:23:21Z</time>
      </trkpt>
      <trkpt lat="46.46393" lon="2.60359">
        <ele>187</ele>
        <time>2020-07-12T06:23:22Z</time>
      </trkpt>
      <trkpt lat="46.46397" lon="2.6036">
        <ele>186.8</ele>
        <time>2020-07-12T06:23:23Z</time>
      </trkpt>
      <trkpt lat="46.46402" lon="2.60362">
        <ele>186.8</ele>
        <time>2020-07-12T06:23:24Z</time>
      </trkpt>
      <trkpt lat="46.46406" lon="2.60364">
        <ele>186.8</ele>
        <time>2020-07-12T06:23:25Z</time>
      </trkpt>
      <trkpt lat="46.46411" lon="2.60366">
        <ele>186.8</ele>
        <time>2020-07-12T06:23:26Z</time>
      </trkpt>
      <trkpt lat="46.46415" lon="2.60368">
        <ele>186.5</ele>
        <time>2020-07-12T06:23:27Z</time>
      </trkpt>
      <trkpt lat="46.4642" lon="2.6037">
        <ele>186.3</ele>
        <time>2020-07-12T06:23:28Z</time>
      </trkpt>
      <trkpt lat="46.46425" lon="2.60372">
        <ele>186.6</ele>
        <time>2020-07-12T06:23:29Z</time>
      </trkpt>
      <trkpt lat="46.46429" lon="2.60374">
        <ele>186.9</ele>
        <time>2020-07-12T06:23:30Z</time>
      </trkpt>
      <trkpt lat="46.46434" lon="2.60376">
        <ele>187.1</ele>
        <time>2020-07-12T06:23:31Z</time>
      </trkpt>
      <trkpt lat="46.46439" lon="2.60377">
        <ele>186.9</ele>
        <time>2020-07-12T06:23:32Z</time>
      </trkpt>
      <trkpt lat="46.46443" lon="2.60379">
        <ele>186.8</ele>
        <time>2020-07-12T06:23:33Z</time>
      </trkpt>
      <trkpt lat="46.46448" lon="2.60381">
        <ele>186.8</ele>
        <time>2020-07-12T06:23:34Z</time>
      </trkpt>
      <trkpt lat="46.46452" lon="2.60383">
        <ele>186.8</ele>
        <time>2020-07-12T06:23:35Z</time>
      </trkpt>
      <trkpt lat="46.46457" lon="2.60385">
        <ele>186.4</ele>
        <time>2020-07-12T06:23:36Z</time>
      </trkpt>
      <trkpt lat="46.46461" lon="2.60387">
        <ele>186</ele>
        <time>2020-07-12T06:23:37Z</time>
      </trkpt>
      <trkpt lat="46.46466" lon="2.60389">
        <ele>185.8</ele>
        <time>2020-07-12T06:23:38Z</time>
      </trkpt>
      <trkpt lat="46.4647" lon="2.60391">
        <ele>185.7</ele>
        <time>2020-07-12T06:23:39Z</time>
      </trkpt>
      <trkpt lat="46.46475" lon="2.60393">
        <ele>185.7</ele>
        <time>2020-07-12T06:23:40Z</time>
      </trkpt>
      <trkpt lat="46.4648" lon="2.60394">
        <ele>186</ele>
        <time>2020-07-12T06:23:41Z</time>
      </trkpt>
      <trkpt lat="46.46484" lon="2.60397">
        <ele>186.2</ele>
        <time>2020-07-12T06:23:42Z</time>
      </trkpt>
      <trkpt lat="46.46488" lon="2.60398">
        <ele>185.8</ele>
        <time>2020-07-12T06:23:43Z</time>
      </trkpt>
      <trkpt lat="46.46493" lon="2.604">
        <ele>185.6</ele>
        <time>2020-07-12T06:23:44Z</time>
      </trkpt>
      <trkpt lat="46.46497" lon="2.60403">
        <ele>185.4</ele>
        <time>2020-07-12T06:23:45Z</time>
      </trkpt>
      <trkpt lat="46.46501" lon="2.60404">
        <ele>185.6</ele>
        <time>2020-07-12T06:23:46Z</time>
      </trkpt>
      <trkpt lat="46.46509" lon="2.60408">
        <ele>186</ele>
        <time>2020-07-12T06:23:48Z</time>
      </trkpt>
      <trkpt lat="46.46518" lon="2.60412">
        <ele>186.3</ele>
        <time>2020-07-12T06:23:50Z</time>
      </trkpt>
      <trkpt lat="46.46526" lon="2.60416">
        <ele>186.3</ele>
        <time>2020-07-12T06:23:52Z</time>
      </trkpt>
      <trkpt lat="46.4653" lon="2.60417">
        <ele>186.5</ele>
        <time>2020-07-12T06:23:53Z</time>
      </trkpt>
      <trkpt lat="46.46535" lon="2.60419">
        <ele>186.7</ele>
        <time>2020-07-12T06:23:54Z</time>
      </trkpt>
      <trkpt lat="46.46539" lon="2.60421">
        <ele>186.6</ele>
        <time>2020-07-12T06:23:55Z</time>
      </trkpt>
      <trkpt lat="46.46548" lon="2.60425">
        <ele>186.4</ele>
        <time>2020-07-12T06:23:57Z</time>
      </trkpt>
      <trkpt lat="46.46556" lon="2.60428">
        <ele>186.1</ele>
        <time>2020-07-12T06:23:59Z</time>
      </trkpt>
      <trkpt lat="46.4656" lon="2.6043">
        <ele>186.1</ele>
        <time>2020-07-12T06:24:00Z</time>
      </trkpt>
      <trkpt lat="46.46565" lon="2.60432">
        <ele>186</ele>
        <time>2020-07-12T06:24:01Z</time>
      </trkpt>
      <trkpt lat="46.46573" lon="2.60436">
        <ele>186.9</ele>
        <time>2020-07-12T06:24:03Z</time>
      </trkpt>
      <trkpt lat="46.46581" lon="2.60439">
        <ele>186.9</ele>
        <time>2020-07-12T06:24:05Z</time>
      </trkpt>
      <trkpt lat="46.4659" lon="2.60442">
        <ele>186.4</ele>
        <time>2020-07-12T06:24:07Z</time>
      </trkpt>
      <trkpt lat="46.46598" lon="2.60446">
        <ele>186.1</ele>
        <time>2020-07-12T06:24:09Z</time>
      </trkpt>
      <trkpt lat="46.46606" lon="2.60449">
        <ele>186.1</ele>
        <time>2020-07-12T06:24:11Z</time>
      </trkpt>
      <trkpt lat="46.4661" lon="2.6045">
        <ele>186.4</ele>
        <time>2020-07-12T06:24:12Z</time>
      </trkpt>
      <trkpt lat="46.46615" lon="2.60452">
        <ele>186.7</ele>
        <time>2020-07-12T06:24:13Z</time>
      </trkpt>
      <trkpt lat="46.46619" lon="2.60454">
        <ele>186.2</ele>
        <time>2020-07-12T06:24:14Z</time>
      </trkpt>
      <trkpt lat="46.46624" lon="2.60456">
        <ele>185.9</ele>
        <time>2020-07-12T06:24:15Z</time>
      </trkpt>
      <trkpt lat="46.46628" lon="2.60457">
        <ele>185.6</ele>
        <time>2020-07-12T06:24:16Z</time>
      </trkpt>
      <trkpt lat="46.46633" lon="2.60459">
        <ele>185.9</ele>
        <time>2020-07-12T06:24:17Z</time>
      </trkpt>
      <trkpt lat="46.46637" lon="2.60461">
        <ele>186.2</ele>
        <time>2020-07-12T06:24:18Z</time>
      </trkpt>
      <trkpt lat="46.46642" lon="2.60463">
        <ele>185.7</ele>
        <time>2020-07-12T06:24:19Z</time>
      </trkpt>
      <trkpt lat="46.46646" lon="2.60465">
        <ele>185.3</ele>
        <time>2020-07-12T06:24:20Z</time>
      </trkpt>
      <trkpt lat="46.46651" lon="2.60467">
        <ele>185.3</ele>
        <time>2020-07-12T06:24:21Z</time>
      </trkpt>
      <trkpt lat="46.46655" lon="2.60468">
        <ele>185.3</ele>
        <time>2020-07-12T06:24:22Z</time>
      </trkpt>
      <trkpt lat="46.4666" lon="2.6047">
        <ele>185.3</ele>
        <time>2020-07-12T06:24:23Z</time>
      </trkpt>
      <trkpt lat="46.46668" lon="2.60474">
        <ele>185.9</ele>
        <time>2020-07-12T06:24:25Z</time>
      </trkpt>
      <trkpt lat="46.46676" lon="2.60477">
        <ele>185.7</ele>
        <time>2020-07-12T06:24:27Z</time>
      </trkpt>
      <trkpt lat="46.46685" lon="2.60481">
        <ele>185.5</ele>
        <time>2020-07-12T06:24:29Z</time>
      </trkpt>
      <trkpt lat="46.46693" lon="2.60485">
        <ele>185.6</ele>
        <time>2020-07-12T06:24:31Z</time>
      </trkpt>
      <trkpt lat="46.46702" lon="2.60489">
        <ele>186</ele>
        <time>2020-07-12T06:24:33Z</time>
      </trkpt>
      <trkpt lat="46.46707" lon="2.6049">
        <ele>186.1</ele>
        <time>2020-07-12T06:24:34Z</time>
      </trkpt>
      <trkpt lat="46.46711" lon="2.60492">
        <ele>186.2</ele>
        <time>2020-07-12T06:24:35Z</time>
      </trkpt>
      <trkpt lat="46.46716" lon="2.60494">
        <ele>186.2</ele>
        <time>2020-07-12T06:24:36Z</time>
      </trkpt>
      <trkpt lat="46.46721" lon="2.60496">
        <ele>186.2</ele>
        <time>2020-07-12T06:24:37Z</time>
      </trkpt>
      <trkpt lat="46.46726" lon="2.60497">
        <ele>186.5</ele>
        <time>2020-07-12T06:24:38Z</time>
      </trkpt>
      <trkpt lat="46.46731" lon="2.60499">
        <ele>186.7</ele>
        <time>2020-07-12T06:24:39Z</time>
      </trkpt>
      <trkpt lat="46.46736" lon="2.605">
        <ele>186.7</ele>
        <time>2020-07-12T06:24:40Z</time>
      </trkpt>
      <trkpt lat="46.46741" lon="2.60501">
        <ele>186.7</ele>
        <time>2020-07-12T06:24:41Z</time>
      </trkpt>
      <trkpt lat="46.46745" lon="2.60502">
        <ele>186.6</ele>
        <time>2020-07-12T06:24:42Z</time>
      </trkpt>
      <trkpt lat="46.4675" lon="2.60503">
        <ele>186.6</ele>
        <time>2020-07-12T06:24:43Z</time>
      </trkpt>
      <trkpt lat="46.46755" lon="2.60504">
        <ele>186.6</ele>
        <time>2020-07-12T06:24:44Z</time>
      </trkpt>
      <trkpt lat="46.4676" lon="2.60505">
        <ele>186.4</ele>
        <time>2020-07-12T06:24:45Z</time>
      </trkpt>
      <trkpt lat="46.46764" lon="2.60505">
        <ele>186.3</ele>
        <time>2020-07-12T06:24:46Z</time>
      </trkpt>
      <trkpt lat="46.46769" lon="2.60506">
        <ele>186.1</ele>
        <time>2020-07-12T06:24:47Z</time>
      </trkpt>
      <trkpt lat="46.46774" lon="2.60506">
        <ele>186.3</ele>
        <time>2020-07-12T06:24:48Z</time>
      </trkpt>
      <trkpt lat="46.46779" lon="2.60506">
        <ele>186.5</ele>
        <time>2020-07-12T06:24:49Z</time>
      </trkpt>
      <trkpt lat="46.46784" lon="2.60506">
        <ele>186.7</ele>
        <time>2020-07-12T06:24:50Z</time>
      </trkpt>
      <trkpt lat="46.46789" lon="2.60506">
        <ele>186.8</ele>
        <time>2020-07-12T06:24:51Z</time>
      </trkpt>
      <trkpt lat="46.46794" lon="2.60506">
        <ele>186.8</ele>
        <time>2020-07-12T06:24:52Z</time>
      </trkpt>
      <trkpt lat="46.46799" lon="2.60506">
        <ele>186.8</ele>
        <time>2020-07-12T06:24:53Z</time>
      </trkpt>
      <trkpt lat="46.46804" lon="2.60505">
        <ele>186.8</ele>
        <time>2020-07-12T06:24:54Z</time>
      </trkpt>
      <trkpt lat="46.46809" lon="2.60505">
        <ele>186.9</ele>
        <time>2020-07-12T06:24:55Z</time>
      </trkpt>
      <trkpt lat="46.46814" lon="2.60505">
        <ele>187</ele>
        <time>2020-07-12T06:24:56Z</time>
      </trkpt>
      <trkpt lat="46.46818" lon="2.60504">
        <ele>186.7</ele>
        <time>2020-07-12T06:24:57Z</time>
      </trkpt>
      <trkpt lat="46.46823" lon="2.60504">
        <ele>186.6</ele>
        <time>2020-07-12T06:24:58Z</time>
      </trkpt>
      <trkpt lat="46.46828" lon="2.60503">
        <ele>186.4</ele>
        <time>2020-07-12T06:24:59Z</time>
      </trkpt>
      <trkpt lat="46.46833" lon="2.60503">
        <ele>186.2</ele>
        <time>2020-07-12T06:25:00Z</time>
      </trkpt>
      <trkpt lat="46.46837" lon="2.60502">
        <ele>186.1</ele>
        <time>2020-07-12T06:25:01Z</time>
      </trkpt>
      <trkpt lat="46.46842" lon="2.60501">
        <ele>186.2</ele>
        <time>2020-07-12T06:25:02Z</time>
      </trkpt>
      <trkpt lat="46.46847" lon="2.605">
        <ele>186.3</ele>
        <time>2020-07-12T06:25:03Z</time>
      </trkpt>
      <trkpt lat="46.46852" lon="2.60499">
        <ele>186.4</ele>
        <time>2020-07-12T06:25:04Z</time>
      </trkpt>
      <trkpt lat="46.46856" lon="2.60498">
        <ele>186.4</ele>
        <time>2020-07-12T06:25:05Z</time>
      </trkpt>
      <trkpt lat="46.46861" lon="2.60497">
        <ele>186.4</ele>
        <time>2020-07-12T06:25:06Z</time>
      </trkpt>
      <trkpt lat="46.4687" lon="2.60494">
        <ele>186.4</ele>
        <time>2020-07-12T06:25:08Z</time>
      </trkpt>
      <trkpt lat="46.46874" lon="2.60493">
        <ele>186.6</ele>
        <time>2020-07-12T06:25:09Z</time>
      </trkpt>
      <trkpt lat="46.46879" lon="2.60491">
        <ele>186.7</ele>
        <time>2020-07-12T06:25:10Z</time>
      </trkpt>
      <trkpt lat="46.46883" lon="2.6049">
        <ele>186.6</ele>
        <time>2020-07-12T06:25:11Z</time>
      </trkpt>
      <trkpt lat="46.46888" lon="2.60488">
        <ele>186.6</ele>
        <time>2020-07-12T06:25:12Z</time>
      </trkpt>
      <trkpt lat="46.46892" lon="2.60486">
        <ele>186.6</ele>
        <time>2020-07-12T06:25:13Z</time>
      </trkpt>
      <trkpt lat="46.46897" lon="2.60484">
        <ele>186.8</ele>
        <time>2020-07-12T06:25:14Z</time>
      </trkpt>
      <trkpt lat="46.46901" lon="2.60481">
        <ele>187</ele>
        <time>2020-07-12T06:25:15Z</time>
      </trkpt>
      <trkpt lat="46.46905" lon="2.60479">
        <ele>187</ele>
        <time>2020-07-12T06:25:16Z</time>
      </trkpt>
      <trkpt lat="46.4691" lon="2.60477">
        <ele>187.1</ele>
        <time>2020-07-12T06:25:17Z</time>
      </trkpt>
      <trkpt lat="46.46914" lon="2.60475">
        <ele>186.8</ele>
        <time>2020-07-12T06:25:18Z</time>
      </trkpt>
      <trkpt lat="46.46918" lon="2.60472">
        <ele>186.6</ele>
        <time>2020-07-12T06:25:19Z</time>
      </trkpt>
      <trkpt lat="46.46923" lon="2.6047">
        <ele>186.4</ele>
        <time>2020-07-12T06:25:20Z</time>
      </trkpt>
      <trkpt lat="46.46927" lon="2.60467">
        <ele>186.6</ele>
        <time>2020-07-12T06:25:21Z</time>
      </trkpt>
      <trkpt lat="46.46931" lon="2.60465">
        <ele>186.7</ele>
        <time>2020-07-12T06:25:22Z</time>
      </trkpt>
      <trkpt lat="46.46936" lon="2.60462">
        <ele>186.5</ele>
        <time>2020-07-12T06:25:23Z</time>
      </trkpt>
      <trkpt lat="46.4694" lon="2.6046">
        <ele>186.4</ele>
        <time>2020-07-12T06:25:24Z</time>
      </trkpt>
      <trkpt lat="46.46945" lon="2.60457">
        <ele>186.3</ele>
        <time>2020-07-12T06:25:25Z</time>
      </trkpt>
      <trkpt lat="46.46949" lon="2.60454">
        <ele>186.2</ele>
        <time>2020-07-12T06:25:26Z</time>
      </trkpt>
      <trkpt lat="46.46953" lon="2.60451">
        <ele>186.2</ele>
        <time>2020-07-12T06:25:27Z</time>
      </trkpt>
      <trkpt lat="46.46957" lon="2.60448">
        <ele>186.2</ele>
        <time>2020-07-12T06:25:28Z</time>
      </trkpt>
      <trkpt lat="46.46962" lon="2.60445">
        <ele>186.1</ele>
        <time>2020-07-12T06:25:29Z</time>
      </trkpt>
      <trkpt lat="46.46966" lon="2.60442">
        <ele>186.4</ele>
        <time>2020-07-12T06:25:30Z</time>
      </trkpt>
      <trkpt lat="46.4697" lon="2.60438">
        <ele>186.5</ele>
        <time>2020-07-12T06:25:31Z</time>
      </trkpt>
      <trkpt lat="46.46974" lon="2.60435">
        <ele>186.6</ele>
        <time>2020-07-12T06:25:32Z</time>
      </trkpt>
      <trkpt lat="46.46978" lon="2.60431">
        <ele>186.4</ele>
        <time>2020-07-12T06:25:33Z</time>
      </trkpt>
      <trkpt lat="46.46982" lon="2.60428">
        <ele>186.2</ele>
        <time>2020-07-12T06:25:34Z</time>
      </trkpt>
      <trkpt lat="46.46986" lon="2.60424">
        <ele>186.5</ele>
        <time>2020-07-12T06:25:35Z</time>
      </trkpt>
      <trkpt lat="46.4699" lon="2.6042">
        <ele>186.7</ele>
        <time>2020-07-12T06:25:36Z</time>
      </trkpt>
      <trkpt lat="46.46994" lon="2.60416">
        <ele>186.8</ele>
        <time>2020-07-12T06:25:37Z</time>
      </trkpt>
      <trkpt lat="46.46998" lon="2.60413">
        <ele>186.8</ele>
        <time>2020-07-12T06:25:38Z</time>
      </trkpt>
      <trkpt lat="46.47002" lon="2.60409">
        <ele>186.8</ele>
        <time>2020-07-12T06:25:39Z</time>
      </trkpt>
      <trkpt lat="46.47006" lon="2.60405">
        <ele>186.7</ele>
        <time>2020-07-12T06:25:40Z</time>
      </trkpt>
      <trkpt lat="46.4701" lon="2.60401">
        <ele>186.6</ele>
        <time>2020-07-12T06:25:41Z</time>
      </trkpt>
      <trkpt lat="46.47014" lon="2.60397">
        <ele>186.6</ele>
        <time>2020-07-12T06:25:42Z</time>
      </trkpt>
      <trkpt lat="46.47017" lon="2.60393">
        <ele>186.6</ele>
        <time>2020-07-12T06:25:43Z</time>
      </trkpt>
      <trkpt lat="46.47021" lon="2.60389">
        <ele>186.8</ele>
        <time>2020-07-12T06:25:44Z</time>
      </trkpt>
      <trkpt lat="46.47025" lon="2.60386">
        <ele>186.9</ele>
        <time>2020-07-12T06:25:45Z</time>
      </trkpt>
      <trkpt lat="46.47029" lon="2.60382">
        <ele>187</ele>
        <time>2020-07-12T06:25:46Z</time>
      </trkpt>
      <trkpt lat="46.47033" lon="2.60378">
        <ele>186.9</ele>
        <time>2020-07-12T06:25:47Z</time>
      </trkpt>
      <trkpt lat="46.47036" lon="2.60374">
        <ele>186.9</ele>
        <time>2020-07-12T06:25:48Z</time>
      </trkpt>
      <trkpt lat="46.4704" lon="2.6037">
        <ele>186.6</ele>
        <time>2020-07-12T06:25:49Z</time>
      </trkpt>
      <trkpt lat="46.47044" lon="2.60366">
        <ele>186.4</ele>
        <time>2020-07-12T06:25:50Z</time>
      </trkpt>
      <trkpt lat="46.47048" lon="2.60362">
        <ele>186.3</ele>
        <time>2020-07-12T06:25:51Z</time>
      </trkpt>
      <trkpt lat="46.47052" lon="2.60358">
        <ele>186.1</ele>
        <time>2020-07-12T06:25:52Z</time>
      </trkpt>
      <trkpt lat="46.47056" lon="2.60354">
        <ele>186</ele>
        <time>2020-07-12T06:25:53Z</time>
      </trkpt>
      <trkpt lat="46.4706" lon="2.6035">
        <ele>185.6</ele>
        <time>2020-07-12T06:25:54Z</time>
      </trkpt>
      <trkpt lat="46.47063" lon="2.60346">
        <ele>185.4</ele>
        <time>2020-07-12T06:25:55Z</time>
      </trkpt>
      <trkpt lat="46.47067" lon="2.60342">
        <ele>185.6</ele>
        <time>2020-07-12T06:25:56Z</time>
      </trkpt>
      <trkpt lat="46.47071" lon="2.60338">
        <ele>185.7</ele>
        <time>2020-07-12T06:25:57Z</time>
      </trkpt>
      <trkpt lat="46.47075" lon="2.60334">
        <ele>185.9</ele>
        <time>2020-07-12T06:25:58Z</time>
      </trkpt>
      <trkpt lat="46.47079" lon="2.6033">
        <ele>185.9</ele>
        <time>2020-07-12T06:25:59Z</time>
      </trkpt>
      <trkpt lat="46.47082" lon="2.60326">
        <ele>186</ele>
        <time>2020-07-12T06:26:00Z</time>
      </trkpt>
      <trkpt lat="46.47086" lon="2.60322">
        <ele>185.8</ele>
        <time>2020-07-12T06:26:01Z</time>
      </trkpt>
      <trkpt lat="46.4709" lon="2.60318">
        <ele>185.6</ele>
        <time>2020-07-12T06:26:02Z</time>
      </trkpt>
      <trkpt lat="46.47094" lon="2.60314">
        <ele>185.6</ele>
        <time>2020-07-12T06:26:03Z</time>
      </trkpt>
      <trkpt lat="46.47097" lon="2.6031">
        <ele>185.5</ele>
        <time>2020-07-12T06:26:04Z</time>
      </trkpt>
      <trkpt lat="46.47101" lon="2.60306">
        <ele>185.5</ele>
        <time>2020-07-12T06:26:05Z</time>
      </trkpt>
      <trkpt lat="46.47105" lon="2.60302">
        <ele>185.8</ele>
        <time>2020-07-12T06:26:06Z</time>
      </trkpt>
      <trkpt lat="46.47109" lon="2.60298">
        <ele>186.1</ele>
        <time>2020-07-12T06:26:07Z</time>
      </trkpt>
      <trkpt lat="46.47113" lon="2.60294">
        <ele>186.5</ele>
        <time>2020-07-12T06:26:08Z</time>
      </trkpt>
      <trkpt lat="46.47117" lon="2.6029">
        <ele>186.7</ele>
        <time>2020-07-12T06:26:09Z</time>
      </trkpt>
      <trkpt lat="46.4712" lon="2.60286">
        <ele>187</ele>
        <time>2020-07-12T06:26:10Z</time>
      </trkpt>
      <trkpt lat="46.47124" lon="2.60282">
        <ele>186.8</ele>
        <time>2020-07-12T06:26:11Z</time>
      </trkpt>
      <trkpt lat="46.47128" lon="2.60278">
        <ele>186.7</ele>
        <time>2020-07-12T06:26:12Z</time>
      </trkpt>
      <trkpt lat="46.47132" lon="2.60274">
        <ele>186.5</ele>
        <time>2020-07-12T06:26:13Z</time>
      </trkpt>
      <trkpt lat="46.47136" lon="2.6027">
        <ele>186.3</ele>
        <time>2020-07-12T06:26:14Z</time>
      </trkpt>
      <trkpt lat="46.47143" lon="2.60263">
        <ele>185.5</ele>
        <time>2020-07-12T06:26:16Z</time>
      </trkpt>
      <trkpt lat="46.47147" lon="2.60259">
        <ele>185.2</ele>
        <time>2020-07-12T06:26:17Z</time>
      </trkpt>
      <trkpt lat="46.47151" lon="2.60255">
        <ele>185.6</ele>
        <time>2020-07-12T06:26:18Z</time>
      </trkpt>
      <trkpt lat="46.47154" lon="2.60251">
        <ele>185.9</ele>
        <time>2020-07-12T06:26:19Z</time>
      </trkpt>
      <trkpt lat="46.47158" lon="2.60247">
        <ele>186.1</ele>
        <time>2020-07-12T06:26:20Z</time>
      </trkpt>
      <trkpt lat="46.47162" lon="2.60242">
        <ele>186.3</ele>
        <time>2020-07-12T06:26:21Z</time>
      </trkpt>
      <trkpt lat="46.47166" lon="2.60238">
        <ele>186.5</ele>
        <time>2020-07-12T06:26:22Z</time>
      </trkpt>
      <trkpt lat="46.4717" lon="2.60234">
        <ele>186.7</ele>
        <time>2020-07-12T06:26:23Z</time>
      </trkpt>
      <trkpt lat="46.47174" lon="2.6023">
        <ele>186.9</ele>
        <time>2020-07-12T06:26:24Z</time>
      </trkpt>
      <trkpt lat="46.47178" lon="2.60226">
        <ele>186.7</ele>
        <time>2020-07-12T06:26:25Z</time>
      </trkpt>
      <trkpt lat="46.47182" lon="2.60221">
        <ele>186.6</ele>
        <time>2020-07-12T06:26:26Z</time>
      </trkpt>
      <trkpt lat="46.47186" lon="2.60217">
        <ele>186.5</ele>
        <time>2020-07-12T06:26:27Z</time>
      </trkpt>
      <trkpt lat="46.4719" lon="2.60213">
        <ele>186.5</ele>
        <time>2020-07-12T06:26:28Z</time>
      </trkpt>
      <trkpt lat="46.47194" lon="2.60209">
        <ele>186.5</ele>
        <time>2020-07-12T06:26:29Z</time>
      </trkpt>
      <trkpt lat="46.47198" lon="2.60205">
        <ele>186.4</ele>
        <time>2020-07-12T06:26:30Z</time>
      </trkpt>
      <trkpt lat="46.47202" lon="2.60201">
        <ele>186.3</ele>
        <time>2020-07-12T06:26:31Z</time>
      </trkpt>
      <trkpt lat="46.47206" lon="2.60197">
        <ele>186.6</ele>
        <time>2020-07-12T06:26:32Z</time>
      </trkpt>
      <trkpt lat="46.4721" lon="2.60193">
        <ele>186.7</ele>
        <time>2020-07-12T06:26:33Z</time>
      </trkpt>
      <trkpt lat="46.47213" lon="2.60189">
        <ele>186.6</ele>
        <time>2020-07-12T06:26:34Z</time>
      </trkpt>
      <trkpt lat="46.47217" lon="2.60185">
        <ele>186.5</ele>
        <time>2020-07-12T06:26:35Z</time>
      </trkpt>
      <trkpt lat="46.47221" lon="2.60181">
        <ele>186.5</ele>
        <time>2020-07-12T06:26:36Z</time>
      </trkpt>
      <trkpt lat="46.47225" lon="2.60177">
        <ele>186.7</ele>
        <time>2020-07-12T06:26:37Z</time>
      </trkpt>
      <trkpt lat="46.47229" lon="2.60173">
        <ele>186.8</ele>
        <time>2020-07-12T06:26:38Z</time>
      </trkpt>
      <trkpt lat="46.47233" lon="2.60169">
        <ele>186.7</ele>
        <time>2020-07-12T06:26:39Z</time>
      </trkpt>
      <trkpt lat="46.47237" lon="2.60165">
        <ele>186.7</ele>
        <time>2020-07-12T06:26:40Z</time>
      </trkpt>
      <trkpt lat="46.4724" lon="2.60162">
        <ele>186.3</ele>
        <time>2020-07-12T06:26:41Z</time>
      </trkpt>
      <trkpt lat="46.47244" lon="2.60158">
        <ele>186.1</ele>
        <time>2020-07-12T06:26:42Z</time>
      </trkpt>
      <trkpt lat="46.47248" lon="2.60154">
        <ele>185.9</ele>
        <time>2020-07-12T06:26:43Z</time>
      </trkpt>
      <trkpt lat="46.47252" lon="2.60151">
        <ele>186.1</ele>
        <time>2020-07-12T06:26:44Z</time>
      </trkpt>
      <trkpt lat="46.47256" lon="2.60147">
        <ele>186.2</ele>
        <time>2020-07-12T06:26:45Z</time>
      </trkpt>
      <trkpt lat="46.4726" lon="2.60143">
        <ele>186</ele>
        <time>2020-07-12T06:26:46Z</time>
      </trkpt>
      <trkpt lat="46.47264" lon="2.6014">
        <ele>185.9</ele>
        <time>2020-07-12T06:26:47Z</time>
      </trkpt>
      <trkpt lat="46.47268" lon="2.60136">
        <ele>185.8</ele>
        <time>2020-07-12T06:26:48Z</time>
      </trkpt>
      <trkpt lat="46.47273" lon="2.60132">
        <ele>185.8</ele>
        <time>2020-07-12T06:26:49Z</time>
      </trkpt>
      <trkpt lat="46.47277" lon="2.60129">
        <ele>185.8</ele>
        <time>2020-07-12T06:26:50Z</time>
      </trkpt>
      <trkpt lat="46.47281" lon="2.60125">
        <ele>186.2</ele>
        <time>2020-07-12T06:26:51Z</time>
      </trkpt>
      <trkpt lat="46.47286" lon="2.60121">
        <ele>186.5</ele>
        <time>2020-07-12T06:26:52Z</time>
      </trkpt>
      <trkpt lat="46.4729" lon="2.60118">
        <ele>186.6</ele>
        <time>2020-07-12T06:26:53Z</time>
      </trkpt>
      <trkpt lat="46.47295" lon="2.60115">
        <ele>186.6</ele>
        <time>2020-07-12T06:26:54Z</time>
      </trkpt>
      <trkpt lat="46.47299" lon="2.60112">
        <ele>186.7</ele>
        <time>2020-07-12T06:26:55Z</time>
      </trkpt>
      <trkpt lat="46.47303" lon="2.60109">
        <ele>186.7</ele>
        <time>2020-07-12T06:26:56Z</time>
      </trkpt>
      <trkpt lat="46.47308" lon="2.60106">
        <ele>186.7</ele>
        <time>2020-07-12T06:26:57Z</time>
      </trkpt>
      <trkpt lat="46.47312" lon="2.60102">
        <ele>186.7</ele>
        <time>2020-07-12T06:26:58Z</time>
      </trkpt>
      <trkpt lat="46.47316" lon="2.60099">
        <ele>186.7</ele>
        <time>2020-07-12T06:26:59Z</time>
      </trkpt>
      <trkpt lat="46.47321" lon="2.60096">
        <ele>186.6</ele>
        <time>2020-07-12T06:27:00Z</time>
      </trkpt>
      <trkpt lat="46.47325" lon="2.60093">
        <ele>186.5</ele>
        <time>2020-07-12T06:27:01Z</time>
      </trkpt>
      <trkpt lat="46.4733" lon="2.60089">
        <ele>186.4</ele>
        <time>2020-07-12T06:27:02Z</time>
      </trkpt>
      <trkpt lat="46.47334" lon="2.60087">
        <ele>186.4</ele>
        <time>2020-07-12T06:27:03Z</time>
      </trkpt>
      <trkpt lat="46.47339" lon="2.60084">
        <ele>186.4</ele>
        <time>2020-07-12T06:27:04Z</time>
      </trkpt>
      <trkpt lat="46.47344" lon="2.60081">
        <ele>186.5</ele>
        <time>2020-07-12T06:27:05Z</time>
      </trkpt>
      <trkpt lat="46.47348" lon="2.60078">
        <ele>186.5</ele>
        <time>2020-07-12T06:27:06Z</time>
      </trkpt>
      <trkpt lat="46.47353" lon="2.60076">
        <ele>186.8</ele>
        <time>2020-07-12T06:27:07Z</time>
      </trkpt>
      <trkpt lat="46.47357" lon="2.60073">
        <ele>187</ele>
        <time>2020-07-12T06:27:08Z</time>
      </trkpt>
      <trkpt lat="46.47362" lon="2.60071">
        <ele>187.1</ele>
        <time>2020-07-12T06:27:09Z</time>
      </trkpt>
      <trkpt lat="46.47366" lon="2.60068">
        <ele>186.8</ele>
        <time>2020-07-12T06:27:10Z</time>
      </trkpt>
      <trkpt lat="46.47371" lon="2.60066">
        <ele>186.5</ele>
        <time>2020-07-12T06:27:11Z</time>
      </trkpt>
      <trkpt lat="46.47375" lon="2.60064">
        <ele>186.7</ele>
        <time>2020-07-12T06:27:12Z</time>
      </trkpt>
      <trkpt lat="46.4738" lon="2.60061">
        <ele>186.8</ele>
        <time>2020-07-12T06:27:13Z</time>
      </trkpt>
      <trkpt lat="46.47385" lon="2.60059">
        <ele>186.8</ele>
        <time>2020-07-12T06:27:14Z</time>
      </trkpt>
      <trkpt lat="46.47389" lon="2.60057">
        <ele>186.5</ele>
        <time>2020-07-12T06:27:15Z</time>
      </trkpt>
      <trkpt lat="46.47393" lon="2.60055">
        <ele>186.3</ele>
        <time>2020-07-12T06:27:16Z</time>
      </trkpt>
      <trkpt lat="46.47402" lon="2.60051">
        <ele>186.5</ele>
        <time>2020-07-12T06:27:18Z</time>
      </trkpt>
      <trkpt lat="46.4741" lon="2.60047">
        <ele>186.9</ele>
        <time>2020-07-12T06:27:20Z</time>
      </trkpt>
      <trkpt lat="46.47416" lon="2.60044">
        <ele>186.8</ele>
        <time>2020-07-12T06:27:22Z</time>
      </trkpt>
      <trkpt lat="46.47424" lon="2.60044">
        <ele>186.3</ele>
        <time>2020-07-12T06:27:25Z</time>
      </trkpt>
      <trkpt lat="46.4743" lon="2.60042">
        <ele>185.9</ele>
        <time>2020-07-12T06:27:27Z</time>
      </trkpt>
      <trkpt lat="46.47436" lon="2.60039">
        <ele>186</ele>
        <time>2020-07-12T06:27:29Z</time>
      </trkpt>
      <trkpt lat="46.47443" lon="2.60037">
        <ele>186</ele>
        <time>2020-07-12T06:27:31Z</time>
      </trkpt>
      <trkpt lat="46.4745" lon="2.60034">
        <ele>185.8</ele>
        <time>2020-07-12T06:27:33Z</time>
      </trkpt>
      <trkpt lat="46.47457" lon="2.60032">
        <ele>186.4</ele>
        <time>2020-07-12T06:27:35Z</time>
      </trkpt>
      <trkpt lat="46.47464" lon="2.60028">
        <ele>186.2</ele>
        <time>2020-07-12T06:27:37Z</time>
      </trkpt>
      <trkpt lat="46.4747" lon="2.60023">
        <ele>186.4</ele>
        <time>2020-07-12T06:27:39Z</time>
      </trkpt>
      <trkpt lat="46.47478" lon="2.60019">
        <ele>186.1</ele>
        <time>2020-07-12T06:27:41Z</time>
      </trkpt>
      <trkpt lat="46.47485" lon="2.60016">
        <ele>186</ele>
        <time>2020-07-12T06:27:43Z</time>
      </trkpt>
      <trkpt lat="46.4749" lon="2.60011">
        <ele>185.6</ele>
        <time>2020-07-12T06:27:45Z</time>
      </trkpt>
      <trkpt lat="46.47498" lon="2.60009">
        <ele>185.1</ele>
        <time>2020-07-12T06:27:47Z</time>
      </trkpt>
      <trkpt lat="46.47503" lon="2.60006">
        <ele>185</ele>
        <time>2020-07-12T06:27:48Z</time>
      </trkpt>
      <trkpt lat="46.47507" lon="2.60004">
        <ele>185</ele>
        <time>2020-07-12T06:27:49Z</time>
      </trkpt>
      <trkpt lat="46.47512" lon="2.60002">
        <ele>184.8</ele>
        <time>2020-07-12T06:27:50Z</time>
      </trkpt>
      <trkpt lat="46.47516" lon="2.59999">
        <ele>184.6</ele>
        <time>2020-07-12T06:27:51Z</time>
      </trkpt>
      <trkpt lat="46.47521" lon="2.59997">
        <ele>184.5</ele>
        <time>2020-07-12T06:27:52Z</time>
      </trkpt>
      <trkpt lat="46.47526" lon="2.59995">
        <ele>184.3</ele>
        <time>2020-07-12T06:27:53Z</time>
      </trkpt>
      <trkpt lat="46.47531" lon="2.59993">
        <ele>184.1</ele>
        <time>2020-07-12T06:27:54Z</time>
      </trkpt>
      <trkpt lat="46.47535" lon="2.5999">
        <ele>184.1</ele>
        <time>2020-07-12T06:27:55Z</time>
      </trkpt>
      <trkpt lat="46.47539" lon="2.59988">
        <ele>184.1</ele>
        <time>2020-07-12T06:27:56Z</time>
      </trkpt>
      <trkpt lat="46.47544" lon="2.59986">
        <ele>184.1</ele>
        <time>2020-07-12T06:27:57Z</time>
      </trkpt>
      <trkpt lat="46.47548" lon="2.59984">
        <ele>184.2</ele>
        <time>2020-07-12T06:27:58Z</time>
      </trkpt>
      <trkpt lat="46.47553" lon="2.59982">
        <ele>184.2</ele>
        <time>2020-07-12T06:27:59Z</time>
      </trkpt>
      <trkpt lat="46.47557" lon="2.5998">
        <ele>184.1</ele>
        <time>2020-07-12T06:28:00Z</time>
      </trkpt>
      <trkpt lat="46.47562" lon="2.59978">
        <ele>184</ele>
        <time>2020-07-12T06:28:01Z</time>
      </trkpt>
      <trkpt lat="46.47566" lon="2.59975">
        <ele>184.5</ele>
        <time>2020-07-12T06:28:02Z</time>
      </trkpt>
      <trkpt lat="46.47571" lon="2.59973">
        <ele>184.8</ele>
        <time>2020-07-12T06:28:03Z</time>
      </trkpt>
      <trkpt lat="46.47575" lon="2.59971">
        <ele>184.6</ele>
        <time>2020-07-12T06:28:04Z</time>
      </trkpt>
      <trkpt lat="46.4758" lon="2.59969">
        <ele>184.4</ele>
        <time>2020-07-12T06:28:05Z</time>
      </trkpt>
      <trkpt lat="46.47584" lon="2.59967">
        <ele>184.3</ele>
        <time>2020-07-12T06:28:06Z</time>
      </trkpt>
      <trkpt lat="46.47589" lon="2.59965">
        <ele>184.1</ele>
        <time>2020-07-12T06:28:07Z</time>
      </trkpt>
      <trkpt lat="46.47594" lon="2.59963">
        <ele>183.9</ele>
        <time>2020-07-12T06:28:08Z</time>
      </trkpt>
      <trkpt lat="46.47598" lon="2.59962">
        <ele>183.9</ele>
        <time>2020-07-12T06:28:09Z</time>
      </trkpt>
      <trkpt lat="46.47602" lon="2.5996">
        <ele>183.8</ele>
        <time>2020-07-12T06:28:10Z</time>
      </trkpt>
      <trkpt lat="46.47607" lon="2.59958">
        <ele>183.8</ele>
        <time>2020-07-12T06:28:11Z</time>
      </trkpt>
      <trkpt lat="46.47615" lon="2.59955">
        <ele>184.2</ele>
        <time>2020-07-12T06:28:13Z</time>
      </trkpt>
      <trkpt lat="46.4762" lon="2.59953">
        <ele>184.5</ele>
        <time>2020-07-12T06:28:14Z</time>
      </trkpt>
      <trkpt lat="46.47624" lon="2.59952">
        <ele>184.7</ele>
        <time>2020-07-12T06:28:15Z</time>
      </trkpt>
      <trkpt lat="46.47629" lon="2.5995">
        <ele>184.9</ele>
        <time>2020-07-12T06:28:16Z</time>
      </trkpt>
      <trkpt lat="46.47633" lon="2.59948">
        <ele>185.1</ele>
        <time>2020-07-12T06:28:17Z</time>
      </trkpt>
      <trkpt lat="46.47638" lon="2.59947">
        <ele>185.2</ele>
        <time>2020-07-12T06:28:18Z</time>
      </trkpt>
      <trkpt lat="46.47643" lon="2.59945">
        <ele>185.2</ele>
        <time>2020-07-12T06:28:19Z</time>
      </trkpt>
      <trkpt lat="46.47647" lon="2.59944">
        <ele>185.2</ele>
        <time>2020-07-12T06:28:20Z</time>
      </trkpt>
      <trkpt lat="46.47652" lon="2.59942">
        <ele>185</ele>
        <time>2020-07-12T06:28:21Z</time>
      </trkpt>
      <trkpt lat="46.47657" lon="2.5994">
        <ele>184.9</ele>
        <time>2020-07-12T06:28:22Z</time>
      </trkpt>
      <trkpt lat="46.47661" lon="2.59939">
        <ele>184.9</ele>
        <time>2020-07-12T06:28:23Z</time>
      </trkpt>
      <trkpt lat="46.47666" lon="2.59938">
        <ele>184.9</ele>
        <time>2020-07-12T06:28:24Z</time>
      </trkpt>
      <trkpt lat="46.47671" lon="2.59936">
        <ele>184.9</ele>
        <time>2020-07-12T06:28:25Z</time>
      </trkpt>
      <trkpt lat="46.47675" lon="2.59935">
        <ele>184.8</ele>
        <time>2020-07-12T06:28:26Z</time>
      </trkpt>
      <trkpt lat="46.4768" lon="2.59934">
        <ele>184.7</ele>
        <time>2020-07-12T06:28:27Z</time>
      </trkpt>
      <trkpt lat="46.47684" lon="2.59932">
        <ele>184.2</ele>
        <time>2020-07-12T06:28:28Z</time>
      </trkpt>
      <trkpt lat="46.47693" lon="2.59931">
        <ele>183.6</ele>
        <time>2020-07-12T06:28:30Z</time>
      </trkpt>
      <trkpt lat="46.47701" lon="2.59929">
        <ele>183.7</ele>
        <time>2020-07-12T06:28:32Z</time>
      </trkpt>
      <trkpt lat="46.4771" lon="2.59927">
        <ele>183.1</ele>
        <time>2020-07-12T06:28:34Z</time>
      </trkpt>
      <trkpt lat="46.47718" lon="2.59925">
        <ele>183.7</ele>
        <time>2020-07-12T06:28:36Z</time>
      </trkpt>
      <trkpt lat="46.47727" lon="2.59923">
        <ele>183.8</ele>
        <time>2020-07-12T06:28:38Z</time>
      </trkpt>
      <trkpt lat="46.47736" lon="2.59921">
        <ele>183.9</ele>
        <time>2020-07-12T06:28:40Z</time>
      </trkpt>
      <trkpt lat="46.47744" lon="2.59919">
        <ele>184.2</ele>
        <time>2020-07-12T06:28:42Z</time>
      </trkpt>
      <trkpt lat="46.47753" lon="2.59918">
        <ele>184.4</ele>
        <time>2020-07-12T06:28:44Z</time>
      </trkpt>
      <trkpt lat="46.47758" lon="2.59917">
        <ele>184.3</ele>
        <time>2020-07-12T06:28:45Z</time>
      </trkpt>
      <trkpt lat="46.47762" lon="2.59916">
        <ele>184.3</ele>
        <time>2020-07-12T06:28:46Z</time>
      </trkpt>
      <trkpt lat="46.47767" lon="2.59915">
        <ele>184.2</ele>
        <time>2020-07-12T06:28:47Z</time>
      </trkpt>
      <trkpt lat="46.47772" lon="2.59913">
        <ele>184.1</ele>
        <time>2020-07-12T06:28:48Z</time>
      </trkpt>
      <trkpt lat="46.47776" lon="2.59912">
        <ele>183.9</ele>
        <time>2020-07-12T06:28:49Z</time>
      </trkpt>
      <trkpt lat="46.47781" lon="2.59911">
        <ele>183.8</ele>
        <time>2020-07-12T06:28:50Z</time>
      </trkpt>
      <trkpt lat="46.47786" lon="2.5991">
        <ele>183.8</ele>
        <time>2020-07-12T06:28:51Z</time>
      </trkpt>
      <trkpt lat="46.4779" lon="2.59909">
        <ele>183.5</ele>
        <time>2020-07-12T06:28:52Z</time>
      </trkpt>
      <trkpt lat="46.47795" lon="2.59908">
        <ele>183.3</ele>
        <time>2020-07-12T06:28:53Z</time>
      </trkpt>
      <trkpt lat="46.478" lon="2.59908">
        <ele>183.1</ele>
        <time>2020-07-12T06:28:54Z</time>
      </trkpt>
      <trkpt lat="46.47805" lon="2.59906">
        <ele>182.9</ele>
        <time>2020-07-12T06:28:55Z</time>
      </trkpt>
      <trkpt lat="46.4781" lon="2.59905">
        <ele>182.8</ele>
        <time>2020-07-12T06:28:56Z</time>
      </trkpt>
      <trkpt lat="46.47814" lon="2.59904">
        <ele>182.9</ele>
        <time>2020-07-12T06:28:57Z</time>
      </trkpt>
      <trkpt lat="46.47819" lon="2.59904">
        <ele>183</ele>
        <time>2020-07-12T06:28:58Z</time>
      </trkpt>
      <trkpt lat="46.47824" lon="2.59903">
        <ele>183.2</ele>
        <time>2020-07-12T06:28:59Z</time>
      </trkpt>
      <trkpt lat="46.47828" lon="2.59902">
        <ele>183.3</ele>
        <time>2020-07-12T06:29:00Z</time>
      </trkpt>
      <trkpt lat="46.47833" lon="2.59902">
        <ele>183.6</ele>
        <time>2020-07-12T06:29:01Z</time>
      </trkpt>
      <trkpt lat="46.47838" lon="2.59901">
        <ele>183.7</ele>
        <time>2020-07-12T06:29:02Z</time>
      </trkpt>
      <trkpt lat="46.47842" lon="2.599">
        <ele>183.9</ele>
        <time>2020-07-12T06:29:03Z</time>
      </trkpt>
      <trkpt lat="46.47847" lon="2.59899">
        <ele>183.7</ele>
        <time>2020-07-12T06:29:04Z</time>
      </trkpt>
      <trkpt lat="46.47852" lon="2.59898">
        <ele>183.6</ele>
        <time>2020-07-12T06:29:05Z</time>
      </trkpt>
      <trkpt lat="46.47857" lon="2.59897">
        <ele>183.6</ele>
        <time>2020-07-12T06:29:06Z</time>
      </trkpt>
      <trkpt lat="46.47862" lon="2.59897">
        <ele>183.6</ele>
        <time>2020-07-12T06:29:07Z</time>
      </trkpt>
      <trkpt lat="46.47866" lon="2.59896">
        <ele>183.6</ele>
        <time>2020-07-12T06:29:08Z</time>
      </trkpt>
      <trkpt lat="46.47871" lon="2.59895">
        <ele>183.8</ele>
        <time>2020-07-12T06:29:09Z</time>
      </trkpt>
      <trkpt lat="46.47876" lon="2.59895">
        <ele>183.9</ele>
        <time>2020-07-12T06:29:10Z</time>
      </trkpt>
      <trkpt lat="46.47881" lon="2.59894">
        <ele>183.8</ele>
        <time>2020-07-12T06:29:11Z</time>
      </trkpt>
      <trkpt lat="46.47886" lon="2.59894">
        <ele>183.6</ele>
        <time>2020-07-12T06:29:12Z</time>
      </trkpt>
      <trkpt lat="46.4789" lon="2.59893">
        <ele>183.9</ele>
        <time>2020-07-12T06:29:13Z</time>
      </trkpt>
      <trkpt lat="46.47895" lon="2.59893">
        <ele>184.2</ele>
        <time>2020-07-12T06:29:14Z</time>
      </trkpt>
      <trkpt lat="46.479" lon="2.59892">
        <ele>184.4</ele>
        <time>2020-07-12T06:29:15Z</time>
      </trkpt>
      <trkpt lat="46.47905" lon="2.59892">
        <ele>184.4</ele>
        <time>2020-07-12T06:29:16Z</time>
      </trkpt>
      <trkpt lat="46.4791" lon="2.59891">
        <ele>184.4</ele>
        <time>2020-07-12T06:29:17Z</time>
      </trkpt>
      <trkpt lat="46.47915" lon="2.59891">
        <ele>184.3</ele>
        <time>2020-07-12T06:29:18Z</time>
      </trkpt>
      <trkpt lat="46.4792" lon="2.59891">
        <ele>184.2</ele>
        <time>2020-07-12T06:29:19Z</time>
      </trkpt>
      <trkpt lat="46.47925" lon="2.59891">
        <ele>184.3</ele>
        <time>2020-07-12T06:29:20Z</time>
      </trkpt>
      <trkpt lat="46.4793" lon="2.59891">
        <ele>184.3</ele>
        <time>2020-07-12T06:29:21Z</time>
      </trkpt>
      <trkpt lat="46.47935" lon="2.59891">
        <ele>184.4</ele>
        <time>2020-07-12T06:29:22Z</time>
      </trkpt>
      <trkpt lat="46.4794" lon="2.59891">
        <ele>184.2</ele>
        <time>2020-07-12T06:29:23Z</time>
      </trkpt>
      <trkpt lat="46.47945" lon="2.5989">
        <ele>184.1</ele>
        <time>2020-07-12T06:29:24Z</time>
      </trkpt>
      <trkpt lat="46.47949" lon="2.5989">
        <ele>183.8</ele>
        <time>2020-07-12T06:29:25Z</time>
      </trkpt>
      <trkpt lat="46.47954" lon="2.5989">
        <ele>183.6</ele>
        <time>2020-07-12T06:29:26Z</time>
      </trkpt>
      <trkpt lat="46.47959" lon="2.5989">
        <ele>183.3</ele>
        <time>2020-07-12T06:29:27Z</time>
      </trkpt>
      <trkpt lat="46.47964" lon="2.5989">
        <ele>183</ele>
        <time>2020-07-12T06:29:28Z</time>
      </trkpt>
      <trkpt lat="46.47969" lon="2.5989">
        <ele>182.9</ele>
        <time>2020-07-12T06:29:29Z</time>
      </trkpt>
      <trkpt lat="46.47974" lon="2.5989">
        <ele>183.1</ele>
        <time>2020-07-12T06:29:30Z</time>
      </trkpt>
      <trkpt lat="46.47979" lon="2.5989">
        <ele>183.3</ele>
        <time>2020-07-12T06:29:31Z</time>
      </trkpt>
      <trkpt lat="46.47983" lon="2.59891">
        <ele>183.3</ele>
        <time>2020-07-12T06:29:32Z</time>
      </trkpt>
      <trkpt lat="46.47988" lon="2.59891">
        <ele>183.3</ele>
        <time>2020-07-12T06:29:33Z</time>
      </trkpt>
      <trkpt lat="46.47993" lon="2.59891">
        <ele>183.4</ele>
        <time>2020-07-12T06:29:34Z</time>
      </trkpt>
      <trkpt lat="46.47997" lon="2.59892">
        <ele>183.8</ele>
        <time>2020-07-12T06:29:35Z</time>
      </trkpt>
      <trkpt lat="46.48002" lon="2.59892">
        <ele>184.1</ele>
        <time>2020-07-12T06:29:36Z</time>
      </trkpt>
      <trkpt lat="46.48007" lon="2.59892">
        <ele>183.8</ele>
        <time>2020-07-12T06:29:37Z</time>
      </trkpt>
      <trkpt lat="46.48011" lon="2.59893">
        <ele>183.5</ele>
        <time>2020-07-12T06:29:38Z</time>
      </trkpt>
      <trkpt lat="46.48016" lon="2.59893">
        <ele>183.5</ele>
        <time>2020-07-12T06:29:39Z</time>
      </trkpt>
      <trkpt lat="46.48021" lon="2.59894">
        <ele>183.6</ele>
        <time>2020-07-12T06:29:40Z</time>
      </trkpt>
      <trkpt lat="46.48026" lon="2.59894">
        <ele>183.6</ele>
        <time>2020-07-12T06:29:41Z</time>
      </trkpt>
      <trkpt lat="46.4803" lon="2.59895">
        <ele>183.8</ele>
        <time>2020-07-12T06:29:42Z</time>
      </trkpt>
      <trkpt lat="46.48035" lon="2.59895">
        <ele>183.9</ele>
        <time>2020-07-12T06:29:43Z</time>
      </trkpt>
      <trkpt lat="46.4804" lon="2.59895">
        <ele>183.6</ele>
        <time>2020-07-12T06:29:44Z</time>
      </trkpt>
      <trkpt lat="46.48044" lon="2.59896">
        <ele>183.3</ele>
        <time>2020-07-12T06:29:45Z</time>
      </trkpt>
      <trkpt lat="46.48049" lon="2.59896">
        <ele>183.4</ele>
        <time>2020-07-12T06:29:46Z</time>
      </trkpt>
      <trkpt lat="46.48054" lon="2.59897">
        <ele>183.5</ele>
        <time>2020-07-12T06:29:47Z</time>
      </trkpt>
      <trkpt lat="46.48058" lon="2.59897">
        <ele>183.5</ele>
        <time>2020-07-12T06:29:48Z</time>
      </trkpt>
      <trkpt lat="46.48063" lon="2.59898">
        <ele>183.5</ele>
        <time>2020-07-12T06:29:49Z</time>
      </trkpt>
      <trkpt lat="46.48068" lon="2.59899">
        <ele>183.6</ele>
        <time>2020-07-12T06:29:50Z</time>
      </trkpt>
      <trkpt lat="46.48072" lon="2.59899">
        <ele>183.9</ele>
        <time>2020-07-12T06:29:51Z</time>
      </trkpt>
      <trkpt lat="46.48077" lon="2.599">
        <ele>184.1</ele>
        <time>2020-07-12T06:29:52Z</time>
      </trkpt>
      <trkpt lat="46.48082" lon="2.599">
        <ele>184.3</ele>
        <time>2020-07-12T06:29:53Z</time>
      </trkpt>
      <trkpt lat="46.48086" lon="2.59901">
        <ele>184.1</ele>
        <time>2020-07-12T06:29:54Z</time>
      </trkpt>
      <trkpt lat="46.48091" lon="2.59901">
        <ele>184</ele>
        <time>2020-07-12T06:29:55Z</time>
      </trkpt>
      <trkpt lat="46.48095" lon="2.59902">
        <ele>184.2</ele>
        <time>2020-07-12T06:29:56Z</time>
      </trkpt>
      <trkpt lat="46.481" lon="2.59902">
        <ele>184.3</ele>
        <time>2020-07-12T06:29:57Z</time>
      </trkpt>
      <trkpt lat="46.48109" lon="2.59904">
        <ele>184.3</ele>
        <time>2020-07-12T06:29:59Z</time>
      </trkpt>
      <trkpt lat="46.48113" lon="2.59904">
        <ele>184.3</ele>
        <time>2020-07-12T06:30:00Z</time>
      </trkpt>
      <trkpt lat="46.48122" lon="2.59906">
        <ele>184.1</ele>
        <time>2020-07-12T06:30:02Z</time>
      </trkpt>
      <trkpt lat="46.48127" lon="2.59906">
        <ele>183.8</ele>
        <time>2020-07-12T06:30:03Z</time>
      </trkpt>
      <trkpt lat="46.48131" lon="2.59907">
        <ele>183.6</ele>
        <time>2020-07-12T06:30:04Z</time>
      </trkpt>
      <trkpt lat="46.48136" lon="2.59908">
        <ele>183.7</ele>
        <time>2020-07-12T06:30:05Z</time>
      </trkpt>
      <trkpt lat="46.4814" lon="2.59908">
        <ele>183.9</ele>
        <time>2020-07-12T06:30:06Z</time>
      </trkpt>
      <trkpt lat="46.48145" lon="2.59909">
        <ele>184</ele>
        <time>2020-07-12T06:30:07Z</time>
      </trkpt>
      <trkpt lat="46.48149" lon="2.5991">
        <ele>184</ele>
        <time>2020-07-12T06:30:08Z</time>
      </trkpt>
      <trkpt lat="46.48154" lon="2.5991">
        <ele>184.1</ele>
        <time>2020-07-12T06:30:09Z</time>
      </trkpt>
      <trkpt lat="46.48158" lon="2.59911">
        <ele>184.3</ele>
        <time>2020-07-12T06:30:10Z</time>
      </trkpt>
      <trkpt lat="46.48163" lon="2.59912">
        <ele>184.5</ele>
        <time>2020-07-12T06:30:11Z</time>
      </trkpt>
      <trkpt lat="46.48167" lon="2.59913">
        <ele>184.7</ele>
        <time>2020-07-12T06:30:12Z</time>
      </trkpt>
      <trkpt lat="46.48172" lon="2.59913">
        <ele>184.5</ele>
        <time>2020-07-12T06:30:13Z</time>
      </trkpt>
      <trkpt lat="46.48176" lon="2.59914">
        <ele>184.3</ele>
        <time>2020-07-12T06:30:14Z</time>
      </trkpt>
      <trkpt lat="46.48185" lon="2.59915">
        <ele>183.4</ele>
        <time>2020-07-12T06:30:16Z</time>
      </trkpt>
      <trkpt lat="46.48194" lon="2.59917">
        <ele>183.3</ele>
        <time>2020-07-12T06:30:18Z</time>
      </trkpt>
      <trkpt lat="46.48202" lon="2.59919">
        <ele>183.5</ele>
        <time>2020-07-12T06:30:20Z</time>
      </trkpt>
      <trkpt lat="46.48211" lon="2.59921">
        <ele>183.6</ele>
        <time>2020-07-12T06:30:22Z</time>
      </trkpt>
      <trkpt lat="46.4822" lon="2.59923">
        <ele>183.6</ele>
        <time>2020-07-12T06:30:24Z</time>
      </trkpt>
      <trkpt lat="46.48224" lon="2.59924">
        <ele>183.7</ele>
        <time>2020-07-12T06:30:25Z</time>
      </trkpt>
      <trkpt lat="46.48229" lon="2.59925">
        <ele>183.7</ele>
        <time>2020-07-12T06:30:26Z</time>
      </trkpt>
      <trkpt lat="46.48233" lon="2.59926">
        <ele>183.9</ele>
        <time>2020-07-12T06:30:27Z</time>
      </trkpt>
      <trkpt lat="46.48238" lon="2.59928">
        <ele>184</ele>
        <time>2020-07-12T06:30:28Z</time>
      </trkpt>
      <trkpt lat="46.48243" lon="2.59929">
        <ele>183.9</ele>
        <time>2020-07-12T06:30:29Z</time>
      </trkpt>
      <trkpt lat="46.48247" lon="2.5993">
        <ele>183.9</ele>
        <time>2020-07-12T06:30:30Z</time>
      </trkpt>
      <trkpt lat="46.48252" lon="2.59931">
        <ele>183.8</ele>
        <time>2020-07-12T06:30:31Z</time>
      </trkpt>
      <trkpt lat="46.48256" lon="2.59932">
        <ele>183.4</ele>
        <time>2020-07-12T06:30:32Z</time>
      </trkpt>
      <trkpt lat="46.48261" lon="2.59934">
        <ele>183.2</ele>
        <time>2020-07-12T06:30:33Z</time>
      </trkpt>
      <trkpt lat="46.48266" lon="2.59935">
        <ele>183.2</ele>
        <time>2020-07-12T06:30:34Z</time>
      </trkpt>
      <trkpt lat="46.48274" lon="2.59938">
        <ele>183.3</ele>
        <time>2020-07-12T06:30:36Z</time>
      </trkpt>
      <trkpt lat="46.48279" lon="2.5994">
        <ele>183.3</ele>
        <time>2020-07-12T06:30:37Z</time>
      </trkpt>
      <trkpt lat="46.48283" lon="2.59941">
        <ele>183.4</ele>
        <time>2020-07-12T06:30:38Z</time>
      </trkpt>
      <trkpt lat="46.48288" lon="2.59943">
        <ele>183.5</ele>
        <time>2020-07-12T06:30:39Z</time>
      </trkpt>
      <trkpt lat="46.48292" lon="2.59945">
        <ele>183.6</ele>
        <time>2020-07-12T06:30:40Z</time>
      </trkpt>
      <trkpt lat="46.48297" lon="2.59947">
        <ele>183.5</ele>
        <time>2020-07-12T06:30:41Z</time>
      </trkpt>
      <trkpt lat="46.48301" lon="2.59949">
        <ele>183.5</ele>
        <time>2020-07-12T06:30:42Z</time>
      </trkpt>
      <trkpt lat="46.48306" lon="2.59951">
        <ele>183.7</ele>
        <time>2020-07-12T06:30:43Z</time>
      </trkpt>
      <trkpt lat="46.48311" lon="2.59952">
        <ele>183.9</ele>
        <time>2020-07-12T06:30:44Z</time>
      </trkpt>
      <trkpt lat="46.48315" lon="2.59954">
        <ele>184</ele>
        <time>2020-07-12T06:30:45Z</time>
      </trkpt>
      <trkpt lat="46.4832" lon="2.59956">
        <ele>183.9</ele>
        <time>2020-07-12T06:30:46Z</time>
      </trkpt>
      <trkpt lat="46.48324" lon="2.59958">
        <ele>183.9</ele>
        <time>2020-07-12T06:30:47Z</time>
      </trkpt>
      <trkpt lat="46.48329" lon="2.5996">
        <ele>183.4</ele>
        <time>2020-07-12T06:30:48Z</time>
      </trkpt>
      <trkpt lat="46.48333" lon="2.59963">
        <ele>183.1</ele>
        <time>2020-07-12T06:30:49Z</time>
      </trkpt>
      <trkpt lat="46.48338" lon="2.59965">
        <ele>182.9</ele>
        <time>2020-07-12T06:30:50Z</time>
      </trkpt>
      <trkpt lat="46.48342" lon="2.59967">
        <ele>182.9</ele>
        <time>2020-07-12T06:30:51Z</time>
      </trkpt>
      <trkpt lat="46.48347" lon="2.59969">
        <ele>182.9</ele>
        <time>2020-07-12T06:30:52Z</time>
      </trkpt>
      <trkpt lat="46.48351" lon="2.59971">
        <ele>182.6</ele>
        <time>2020-07-12T06:30:53Z</time>
      </trkpt>
      <trkpt lat="46.48356" lon="2.59973">
        <ele>182.4</ele>
        <time>2020-07-12T06:30:54Z</time>
      </trkpt>
      <trkpt lat="46.4836" lon="2.59975">
        <ele>182.4</ele>
        <time>2020-07-12T06:30:55Z</time>
      </trkpt>
      <trkpt lat="46.48364" lon="2.59977">
        <ele>182.5</ele>
        <time>2020-07-12T06:30:56Z</time>
      </trkpt>
      <trkpt lat="46.48369" lon="2.59979">
        <ele>182.5</ele>
        <time>2020-07-12T06:30:57Z</time>
      </trkpt>
      <trkpt lat="46.48373" lon="2.59981">
        <ele>182.7</ele>
        <time>2020-07-12T06:30:58Z</time>
      </trkpt>
      <trkpt lat="46.48378" lon="2.59983">
        <ele>182.7</ele>
        <time>2020-07-12T06:30:59Z</time>
      </trkpt>
      <trkpt lat="46.48382" lon="2.59985">
        <ele>182.6</ele>
        <time>2020-07-12T06:31:00Z</time>
      </trkpt>
      <trkpt lat="46.48387" lon="2.59988">
        <ele>182.5</ele>
        <time>2020-07-12T06:31:01Z</time>
      </trkpt>
      <trkpt lat="46.48391" lon="2.5999">
        <ele>182.8</ele>
        <time>2020-07-12T06:31:02Z</time>
      </trkpt>
      <trkpt lat="46.48396" lon="2.59992">
        <ele>183</ele>
        <time>2020-07-12T06:31:03Z</time>
      </trkpt>
      <trkpt lat="46.484" lon="2.59994">
        <ele>183.1</ele>
        <time>2020-07-12T06:31:04Z</time>
      </trkpt>
      <trkpt lat="46.48404" lon="2.59997">
        <ele>183.3</ele>
        <time>2020-07-12T06:31:05Z</time>
      </trkpt>
      <trkpt lat="46.48409" lon="2.59999">
        <ele>183.4</ele>
        <time>2020-07-12T06:31:06Z</time>
      </trkpt>
      <trkpt lat="46.48413" lon="2.60002">
        <ele>183.3</ele>
        <time>2020-07-12T06:31:07Z</time>
      </trkpt>
      <trkpt lat="46.48417" lon="2.60004">
        <ele>183.3</ele>
        <time>2020-07-12T06:31:08Z</time>
      </trkpt>
      <trkpt lat="46.48422" lon="2.60006">
        <ele>183.3</ele>
        <time>2020-07-12T06:31:09Z</time>
      </trkpt>
      <trkpt lat="46.48426" lon="2.60009">
        <ele>182.9</ele>
        <time>2020-07-12T06:31:10Z</time>
      </trkpt>
      <trkpt lat="46.4843" lon="2.60011">
        <ele>182.6</ele>
        <time>2020-07-12T06:31:11Z</time>
      </trkpt>
      <trkpt lat="46.48434" lon="2.60013">
        <ele>182.5</ele>
        <time>2020-07-12T06:31:12Z</time>
      </trkpt>
      <trkpt lat="46.48443" lon="2.60018">
        <ele>182.8</ele>
        <time>2020-07-12T06:31:14Z</time>
      </trkpt>
      <trkpt lat="46.48447" lon="2.60021">
        <ele>183.1</ele>
        <time>2020-07-12T06:31:15Z</time>
      </trkpt>
      <trkpt lat="46.48451" lon="2.60023">
        <ele>183.3</ele>
        <time>2020-07-12T06:31:16Z</time>
      </trkpt>
      <trkpt lat="46.48459" lon="2.60028">
        <ele>183.8</ele>
        <time>2020-07-12T06:31:18Z</time>
      </trkpt>
      <trkpt lat="46.48464" lon="2.60031">
        <ele>183.4</ele>
        <time>2020-07-12T06:31:19Z</time>
      </trkpt>
      <trkpt lat="46.48468" lon="2.60033">
        <ele>183.1</ele>
        <time>2020-07-12T06:31:20Z</time>
      </trkpt>
      <trkpt lat="46.48472" lon="2.60036">
        <ele>183.1</ele>
        <time>2020-07-12T06:31:21Z</time>
      </trkpt>
      <trkpt lat="46.48476" lon="2.60039">
        <ele>183.1</ele>
        <time>2020-07-12T06:31:22Z</time>
      </trkpt>
      <trkpt lat="46.48481" lon="2.60041">
        <ele>183.1</ele>
        <time>2020-07-12T06:31:23Z</time>
      </trkpt>
      <trkpt lat="46.48485" lon="2.60044">
        <ele>183.3</ele>
        <time>2020-07-12T06:31:24Z</time>
      </trkpt>
      <trkpt lat="46.48489" lon="2.60047">
        <ele>183.4</ele>
        <time>2020-07-12T06:31:25Z</time>
      </trkpt>
      <trkpt lat="46.48494" lon="2.6005">
        <ele>183.3</ele>
        <time>2020-07-12T06:31:26Z</time>
      </trkpt>
      <trkpt lat="46.48498" lon="2.60053">
        <ele>183.3</ele>
        <time>2020-07-12T06:31:27Z</time>
      </trkpt>
      <trkpt lat="46.48506" lon="2.60058">
        <ele>183.7</ele>
        <time>2020-07-12T06:31:29Z</time>
      </trkpt>
      <trkpt lat="46.48514" lon="2.60063">
        <ele>183.6</ele>
        <time>2020-07-12T06:31:31Z</time>
      </trkpt>
      <trkpt lat="46.48521" lon="2.6007">
        <ele>183.6</ele>
        <time>2020-07-12T06:31:34Z</time>
      </trkpt>
      <trkpt lat="46.48527" lon="2.60072">
        <ele>183.5</ele>
        <time>2020-07-12T06:31:36Z</time>
      </trkpt>
      <trkpt lat="46.48532" lon="2.60077">
        <ele>183.3</ele>
        <time>2020-07-12T06:31:38Z</time>
      </trkpt>
      <trkpt lat="46.48538" lon="2.60082">
        <ele>183.2</ele>
        <time>2020-07-12T06:31:40Z</time>
      </trkpt>
      <trkpt lat="46.48544" lon="2.60088">
        <ele>183</ele>
        <time>2020-07-12T06:31:42Z</time>
      </trkpt>
      <trkpt lat="46.4855" lon="2.60094">
        <ele>183.4</ele>
        <time>2020-07-12T06:31:44Z</time>
      </trkpt>
      <trkpt lat="46.48556" lon="2.60099">
        <ele>183.1</ele>
        <time>2020-07-12T06:31:46Z</time>
      </trkpt>
      <trkpt lat="46.48564" lon="2.60104">
        <ele>183.5</ele>
        <time>2020-07-12T06:31:48Z</time>
      </trkpt>
      <trkpt lat="46.48571" lon="2.60108">
        <ele>183.6</ele>
        <time>2020-07-12T06:31:50Z</time>
      </trkpt>
      <trkpt lat="46.48579" lon="2.60112">
        <ele>183.3</ele>
        <time>2020-07-12T06:31:52Z</time>
      </trkpt>
      <trkpt lat="46.48583" lon="2.60114">
        <ele>183.2</ele>
        <time>2020-07-12T06:31:53Z</time>
      </trkpt>
      <trkpt lat="46.48588" lon="2.60117">
        <ele>183.1</ele>
        <time>2020-07-12T06:31:54Z</time>
      </trkpt>
      <trkpt lat="46.48592" lon="2.6012">
        <ele>183.1</ele>
        <time>2020-07-12T06:31:55Z</time>
      </trkpt>
      <trkpt lat="46.48597" lon="2.60123">
        <ele>183.2</ele>
        <time>2020-07-12T06:31:56Z</time>
      </trkpt>
      <trkpt lat="46.48602" lon="2.60126">
        <ele>183</ele>
        <time>2020-07-12T06:31:57Z</time>
      </trkpt>
      <trkpt lat="46.48607" lon="2.6013">
        <ele>182.9</ele>
        <time>2020-07-12T06:31:58Z</time>
      </trkpt>
      <trkpt lat="46.48611" lon="2.60133">
        <ele>183</ele>
        <time>2020-07-12T06:31:59Z</time>
      </trkpt>
      <trkpt lat="46.48616" lon="2.60136">
        <ele>183</ele>
        <time>2020-07-12T06:32:00Z</time>
      </trkpt>
      <trkpt lat="46.48621" lon="2.60139">
        <ele>183</ele>
        <time>2020-07-12T06:32:01Z</time>
      </trkpt>
      <trkpt lat="46.48626" lon="2.60142">
        <ele>182.7</ele>
        <time>2020-07-12T06:32:02Z</time>
      </trkpt>
      <trkpt lat="46.4863" lon="2.60145">
        <ele>182.5</ele>
        <time>2020-07-12T06:32:03Z</time>
      </trkpt>
      <trkpt lat="46.48634" lon="2.60149">
        <ele>182.8</ele>
        <time>2020-07-12T06:32:04Z</time>
      </trkpt>
      <trkpt lat="46.48642" lon="2.60154">
        <ele>183.4</ele>
        <time>2020-07-12T06:32:06Z</time>
      </trkpt>
      <trkpt lat="46.4865" lon="2.6016">
        <ele>183.8</ele>
        <time>2020-07-12T06:32:08Z</time>
      </trkpt>
      <trkpt lat="46.48657" lon="2.60165">
        <ele>182.7</ele>
        <time>2020-07-12T06:32:10Z</time>
      </trkpt>
      <trkpt lat="46.48661" lon="2.60168">
        <ele>182.5</ele>
        <time>2020-07-12T06:32:11Z</time>
      </trkpt>
      <trkpt lat="46.48669" lon="2.60173">
        <ele>182.2</ele>
        <time>2020-07-12T06:32:13Z</time>
      </trkpt>
      <trkpt lat="46.48673" lon="2.60176">
        <ele>182.2</ele>
        <time>2020-07-12T06:32:14Z</time>
      </trkpt>
      <trkpt lat="46.48677" lon="2.6018">
        <ele>182.1</ele>
        <time>2020-07-12T06:32:15Z</time>
      </trkpt>
      <trkpt lat="46.48681" lon="2.60183">
        <ele>182.4</ele>
        <time>2020-07-12T06:32:16Z</time>
      </trkpt>
      <trkpt lat="46.48685" lon="2.60187">
        <ele>182.6</ele>
        <time>2020-07-12T06:32:17Z</time>
      </trkpt>
      <trkpt lat="46.48689" lon="2.6019">
        <ele>182.3</ele>
        <time>2020-07-12T06:32:18Z</time>
      </trkpt>
      <trkpt lat="46.48693" lon="2.60193">
        <ele>182</ele>
        <time>2020-07-12T06:32:19Z</time>
      </trkpt>
      <trkpt lat="46.48697" lon="2.60197">
        <ele>181.8</ele>
        <time>2020-07-12T06:32:20Z</time>
      </trkpt>
      <trkpt lat="46.48704" lon="2.60204">
        <ele>182.3</ele>
        <time>2020-07-12T06:32:22Z</time>
      </trkpt>
      <trkpt lat="46.48711" lon="2.6021">
        <ele>182.3</ele>
        <time>2020-07-12T06:32:24Z</time>
      </trkpt>
      <trkpt lat="46.48719" lon="2.60217">
        <ele>181.9</ele>
        <time>2020-07-12T06:32:26Z</time>
      </trkpt>
      <trkpt lat="46.48726" lon="2.60224">
        <ele>181.5</ele>
        <time>2020-07-12T06:32:28Z</time>
      </trkpt>
      <trkpt lat="46.4873" lon="2.60228">
        <ele>181.3</ele>
        <time>2020-07-12T06:32:29Z</time>
      </trkpt>
      <trkpt lat="46.48734" lon="2.60232">
        <ele>181.5</ele>
        <time>2020-07-12T06:32:30Z</time>
      </trkpt>
      <trkpt lat="46.48738" lon="2.60236">
        <ele>181.7</ele>
        <time>2020-07-12T06:32:31Z</time>
      </trkpt>
      <trkpt lat="46.48743" lon="2.6024">
        <ele>181.8</ele>
        <time>2020-07-12T06:32:32Z</time>
      </trkpt>
      <trkpt lat="46.48747" lon="2.60244">
        <ele>181.7</ele>
        <time>2020-07-12T06:32:33Z</time>
      </trkpt>
      <trkpt lat="46.48751" lon="2.60248">
        <ele>181.6</ele>
        <time>2020-07-12T06:32:34Z</time>
      </trkpt>
      <trkpt lat="46.48755" lon="2.60252">
        <ele>181.6</ele>
        <time>2020-07-12T06:32:35Z</time>
      </trkpt>
      <trkpt lat="46.48759" lon="2.60256">
        <ele>181.6</ele>
        <time>2020-07-12T06:32:36Z</time>
      </trkpt>
      <trkpt lat="46.48763" lon="2.6026">
        <ele>181.6</ele>
        <time>2020-07-12T06:32:37Z</time>
      </trkpt>
      <trkpt lat="46.48768" lon="2.60265">
        <ele>181.6</ele>
        <time>2020-07-12T06:32:38Z</time>
      </trkpt>
      <trkpt lat="46.48771" lon="2.60269">
        <ele>181.5</ele>
        <time>2020-07-12T06:32:39Z</time>
      </trkpt>
      <trkpt lat="46.48775" lon="2.60274">
        <ele>181.5</ele>
        <time>2020-07-12T06:32:40Z</time>
      </trkpt>
      <trkpt lat="46.48779" lon="2.60278">
        <ele>181.4</ele>
        <time>2020-07-12T06:32:41Z</time>
      </trkpt>
      <trkpt lat="46.48783" lon="2.60283">
        <ele>181.3</ele>
        <time>2020-07-12T06:32:42Z</time>
      </trkpt>
      <trkpt lat="46.48788" lon="2.60287">
        <ele>181.3</ele>
        <time>2020-07-12T06:32:43Z</time>
      </trkpt>
      <trkpt lat="46.48792" lon="2.60292">
        <ele>181.3</ele>
        <time>2020-07-12T06:32:44Z</time>
      </trkpt>
      <trkpt lat="46.48796" lon="2.60297">
        <ele>181.3</ele>
        <time>2020-07-12T06:32:45Z</time>
      </trkpt>
      <trkpt lat="46.48799" lon="2.60301">
        <ele>181.4</ele>
        <time>2020-07-12T06:32:46Z</time>
      </trkpt>
      <trkpt lat="46.48803" lon="2.60306">
        <ele>181.4</ele>
        <time>2020-07-12T06:32:47Z</time>
      </trkpt>
      <trkpt lat="46.48807" lon="2.60311">
        <ele>181.4</ele>
        <time>2020-07-12T06:32:48Z</time>
      </trkpt>
      <trkpt lat="46.48811" lon="2.60316">
        <ele>181.9</ele>
        <time>2020-07-12T06:32:49Z</time>
      </trkpt>
      <trkpt lat="46.48814" lon="2.60321">
        <ele>182.2</ele>
        <time>2020-07-12T06:32:50Z</time>
      </trkpt>
      <trkpt lat="46.48818" lon="2.60326">
        <ele>182.4</ele>
        <time>2020-07-12T06:32:51Z</time>
      </trkpt>
      <trkpt lat="46.48822" lon="2.6033">
        <ele>182.2</ele>
        <time>2020-07-12T06:32:52Z</time>
      </trkpt>
      <trkpt lat="46.48828" lon="2.60339">
        <ele>181.8</ele>
        <time>2020-07-12T06:32:54Z</time>
      </trkpt>
      <trkpt lat="46.48831" lon="2.60344">
        <ele>181.6</ele>
        <time>2020-07-12T06:32:55Z</time>
      </trkpt>
      <trkpt lat="46.48839" lon="2.60357">
        <ele>181.9</ele>
        <time>2020-07-12T06:32:58Z</time>
      </trkpt>
      <trkpt lat="46.48845" lon="2.60365">
        <ele>181.8</ele>
        <time>2020-07-12T06:33:00Z</time>
      </trkpt>
      <trkpt lat="46.4885" lon="2.60374">
        <ele>182.1</ele>
        <time>2020-07-12T06:33:02Z</time>
      </trkpt>
      <trkpt lat="46.48854" lon="2.60379">
        <ele>181.8</ele>
        <time>2020-07-12T06:33:03Z</time>
      </trkpt>
      <trkpt lat="46.48857" lon="2.60384">
        <ele>181.6</ele>
        <time>2020-07-12T06:33:04Z</time>
      </trkpt>
      <trkpt lat="46.48861" lon="2.60388">
        <ele>181.5</ele>
        <time>2020-07-12T06:33:05Z</time>
      </trkpt>
      <trkpt lat="46.48867" lon="2.60397">
        <ele>181.8</ele>
        <time>2020-07-12T06:33:07Z</time>
      </trkpt>
      <trkpt lat="46.48873" lon="2.60406">
        <ele>182.1</ele>
        <time>2020-07-12T06:33:09Z</time>
      </trkpt>
      <trkpt lat="46.48879" lon="2.60415">
        <ele>181.9</ele>
        <time>2020-07-12T06:33:11Z</time>
      </trkpt>
      <trkpt lat="46.48883" lon="2.60419">
        <ele>181.7</ele>
        <time>2020-07-12T06:33:12Z</time>
      </trkpt>
      <trkpt lat="46.48886" lon="2.60424">
        <ele>181.6</ele>
        <time>2020-07-12T06:33:13Z</time>
      </trkpt>
      <trkpt lat="46.4889" lon="2.60429">
        <ele>181.6</ele>
        <time>2020-07-12T06:33:14Z</time>
      </trkpt>
      <trkpt lat="46.48893" lon="2.60433">
        <ele>181.4</ele>
        <time>2020-07-12T06:33:15Z</time>
      </trkpt>
      <trkpt lat="46.489" lon="2.60441">
        <ele>181.3</ele>
        <time>2020-07-12T06:33:17Z</time>
      </trkpt>
      <trkpt lat="46.48903" lon="2.60446">
        <ele>181.2</ele>
        <time>2020-07-12T06:33:18Z</time>
      </trkpt>
      <trkpt lat="46.48906" lon="2.6045">
        <ele>181.1</ele>
        <time>2020-07-12T06:33:19Z</time>
      </trkpt>
      <trkpt lat="46.4891" lon="2.60455">
        <ele>181.5</ele>
        <time>2020-07-12T06:33:20Z</time>
      </trkpt>
      <trkpt lat="46.48916" lon="2.60463">
        <ele>181.7</ele>
        <time>2020-07-12T06:33:22Z</time>
      </trkpt>
      <trkpt lat="46.4892" lon="2.60468">
        <ele>181.6</ele>
        <time>2020-07-12T06:33:23Z</time>
      </trkpt>
      <trkpt lat="46.48926" lon="2.60477">
        <ele>181.8</ele>
        <time>2020-07-12T06:33:25Z</time>
      </trkpt>
      <trkpt lat="46.48932" lon="2.60485">
        <ele>182</ele>
        <time>2020-07-12T06:33:27Z</time>
      </trkpt>
      <trkpt lat="46.48938" lon="2.60494">
        <ele>181.9</ele>
        <time>2020-07-12T06:33:29Z</time>
      </trkpt>
      <trkpt lat="46.48942" lon="2.60498">
        <ele>181.8</ele>
        <time>2020-07-12T06:33:30Z</time>
      </trkpt>
      <trkpt lat="46.48945" lon="2.60502">
        <ele>181.7</ele>
        <time>2020-07-12T06:33:31Z</time>
      </trkpt>
      <trkpt lat="46.48949" lon="2.60506">
        <ele>181.6</ele>
        <time>2020-07-12T06:33:32Z</time>
      </trkpt>
      <trkpt lat="46.48952" lon="2.60511">
        <ele>181.5</ele>
        <time>2020-07-12T06:33:33Z</time>
      </trkpt>
      <trkpt lat="46.48959" lon="2.60519">
        <ele>181.8</ele>
        <time>2020-07-12T06:33:35Z</time>
      </trkpt>
      <trkpt lat="46.48963" lon="2.60524">
        <ele>181.9</ele>
        <time>2020-07-12T06:33:36Z</time>
      </trkpt>
      <trkpt lat="46.48967" lon="2.60529">
        <ele>182</ele>
        <time>2020-07-12T06:33:37Z</time>
      </trkpt>
      <trkpt lat="46.4897" lon="2.60533">
        <ele>182.1</ele>
        <time>2020-07-12T06:33:38Z</time>
      </trkpt>
      <trkpt lat="46.48974" lon="2.60538">
        <ele>182.5</ele>
        <time>2020-07-12T06:33:39Z</time>
      </trkpt>
      <trkpt lat="46.48977" lon="2.60542">
        <ele>182.7</ele>
        <time>2020-07-12T06:33:40Z</time>
      </trkpt>
      <trkpt lat="46.48981" lon="2.60547">
        <ele>182.2</ele>
        <time>2020-07-12T06:33:41Z</time>
      </trkpt>
      <trkpt lat="46.48987" lon="2.60556">
        <ele>181.4</ele>
        <time>2020-07-12T06:33:43Z</time>
      </trkpt>
      <trkpt lat="46.4899" lon="2.6056">
        <ele>181.6</ele>
        <time>2020-07-12T06:33:44Z</time>
      </trkpt>
      <trkpt lat="46.48994" lon="2.60565">
        <ele>181.7</ele>
        <time>2020-07-12T06:33:45Z</time>
      </trkpt>
      <trkpt lat="46.48997" lon="2.60569">
        <ele>182</ele>
        <time>2020-07-12T06:33:46Z</time>
      </trkpt>
      <trkpt lat="46.49001" lon="2.60574">
        <ele>182.2</ele>
        <time>2020-07-12T06:33:47Z</time>
      </trkpt>
      <trkpt lat="46.49005" lon="2.60579">
        <ele>181.6</ele>
        <time>2020-07-12T06:33:48Z</time>
      </trkpt>
      <trkpt lat="46.49011" lon="2.60588">
        <ele>180.9</ele>
        <time>2020-07-12T06:33:50Z</time>
      </trkpt>
      <trkpt lat="46.49015" lon="2.60592">
        <ele>181.3</ele>
        <time>2020-07-12T06:33:51Z</time>
      </trkpt>
      <trkpt lat="46.49018" lon="2.60597">
        <ele>181.5</ele>
        <time>2020-07-12T06:33:52Z</time>
      </trkpt>
      <trkpt lat="46.49022" lon="2.60601">
        <ele>181.7</ele>
        <time>2020-07-12T06:33:53Z</time>
      </trkpt>
      <trkpt lat="46.49025" lon="2.60605">
        <ele>181.8</ele>
        <time>2020-07-12T06:33:54Z</time>
      </trkpt>
      <trkpt lat="46.49029" lon="2.6061">
        <ele>181.9</ele>
        <time>2020-07-12T06:33:55Z</time>
      </trkpt>
      <trkpt lat="46.49033" lon="2.60614">
        <ele>181.9</ele>
        <time>2020-07-12T06:33:56Z</time>
      </trkpt>
      <trkpt lat="46.4904" lon="2.60622">
        <ele>181.7</ele>
        <time>2020-07-12T06:33:58Z</time>
      </trkpt>
      <trkpt lat="46.49043" lon="2.60626">
        <ele>181.5</ele>
        <time>2020-07-12T06:33:59Z</time>
      </trkpt>
      <trkpt lat="46.49047" lon="2.60631">
        <ele>181.7</ele>
        <time>2020-07-12T06:34:00Z</time>
      </trkpt>
      <trkpt lat="46.49051" lon="2.60635">
        <ele>181.9</ele>
        <time>2020-07-12T06:34:01Z</time>
      </trkpt>
      <trkpt lat="46.49055" lon="2.60639">
        <ele>182</ele>
        <time>2020-07-12T06:34:02Z</time>
      </trkpt>
      <trkpt lat="46.49059" lon="2.60643">
        <ele>182.1</ele>
        <time>2020-07-12T06:34:03Z</time>
      </trkpt>
      <trkpt lat="46.49063" lon="2.60647">
        <ele>182.1</ele>
        <time>2020-07-12T06:34:04Z</time>
      </trkpt>
      <trkpt lat="46.49067" lon="2.60651">
        <ele>181.7</ele>
        <time>2020-07-12T06:34:05Z</time>
      </trkpt>
      <trkpt lat="46.49071" lon="2.60655">
        <ele>181.4</ele>
        <time>2020-07-12T06:34:06Z</time>
      </trkpt>
      <trkpt lat="46.49076" lon="2.60659">
        <ele>181.3</ele>
        <time>2020-07-12T06:34:07Z</time>
      </trkpt>
      <trkpt lat="46.4908" lon="2.60663">
        <ele>181.2</ele>
        <time>2020-07-12T06:34:08Z</time>
      </trkpt>
      <trkpt lat="46.49084" lon="2.60667">
        <ele>181.1</ele>
        <time>2020-07-12T06:34:09Z</time>
      </trkpt>
      <trkpt lat="46.49088" lon="2.6067">
        <ele>181.3</ele>
        <time>2020-07-12T06:34:10Z</time>
      </trkpt>
      <trkpt lat="46.49093" lon="2.60674">
        <ele>181.5</ele>
        <time>2020-07-12T06:34:11Z</time>
      </trkpt>
      <trkpt lat="46.49097" lon="2.60678">
        <ele>181.5</ele>
        <time>2020-07-12T06:34:12Z</time>
      </trkpt>
      <trkpt lat="46.49102" lon="2.60682">
        <ele>181.5</ele>
        <time>2020-07-12T06:34:13Z</time>
      </trkpt>
      <trkpt lat="46.49106" lon="2.60685">
        <ele>181.5</ele>
        <time>2020-07-12T06:34:14Z</time>
      </trkpt>
      <trkpt lat="46.4911" lon="2.60687">
        <ele>181.4</ele>
        <time>2020-07-12T06:34:15Z</time>
      </trkpt>
      <trkpt lat="46.49115" lon="2.6069">
        <ele>181.2</ele>
        <time>2020-07-12T06:34:16Z</time>
      </trkpt>
      <trkpt lat="46.4912" lon="2.60693">
        <ele>181.7</ele>
        <time>2020-07-12T06:34:17Z</time>
      </trkpt>
      <trkpt lat="46.49124" lon="2.60696">
        <ele>182.1</ele>
        <time>2020-07-12T06:34:18Z</time>
      </trkpt>
      <trkpt lat="46.49129" lon="2.60699">
        <ele>181.5</ele>
        <time>2020-07-12T06:34:19Z</time>
      </trkpt>
      <trkpt lat="46.49134" lon="2.60702">
        <ele>181.1</ele>
        <time>2020-07-12T06:34:20Z</time>
      </trkpt>
      <trkpt lat="46.4914" lon="2.60705">
        <ele>180.7</ele>
        <time>2020-07-12T06:34:21Z</time>
      </trkpt>
      <trkpt lat="46.49145" lon="2.60707">
        <ele>181</ele>
        <time>2020-07-12T06:34:22Z</time>
      </trkpt>
      <trkpt lat="46.4915" lon="2.6071">
        <ele>181.2</ele>
        <time>2020-07-12T06:34:23Z</time>
      </trkpt>
      <trkpt lat="46.49154" lon="2.60713">
        <ele>181.4</ele>
        <time>2020-07-12T06:34:24Z</time>
      </trkpt>
      <trkpt lat="46.49159" lon="2.60715">
        <ele>181.5</ele>
        <time>2020-07-12T06:34:25Z</time>
      </trkpt>
      <trkpt lat="46.49164" lon="2.60718">
        <ele>181.5</ele>
        <time>2020-07-12T06:34:26Z</time>
      </trkpt>
      <trkpt lat="46.49169" lon="2.60721">
        <ele>181.6</ele>
        <time>2020-07-12T06:34:27Z</time>
      </trkpt>
      <trkpt lat="46.49174" lon="2.60723">
        <ele>181.6</ele>
        <time>2020-07-12T06:34:28Z</time>
      </trkpt>
      <trkpt lat="46.49179" lon="2.60726">
        <ele>181.3</ele>
        <time>2020-07-12T06:34:29Z</time>
      </trkpt>
      <trkpt lat="46.49184" lon="2.60728">
        <ele>181.1</ele>
        <time>2020-07-12T06:34:30Z</time>
      </trkpt>
      <trkpt lat="46.49189" lon="2.6073">
        <ele>180.8</ele>
        <time>2020-07-12T06:34:31Z</time>
      </trkpt>
      <trkpt lat="46.49194" lon="2.60732">
        <ele>180.6</ele>
        <time>2020-07-12T06:34:32Z</time>
      </trkpt>
      <trkpt lat="46.49199" lon="2.60735">
        <ele>180.5</ele>
        <time>2020-07-12T06:34:33Z</time>
      </trkpt>
      <trkpt lat="46.49205" lon="2.60737">
        <ele>180.5</ele>
        <time>2020-07-12T06:34:34Z</time>
      </trkpt>
      <trkpt lat="46.4921" lon="2.60739">
        <ele>180.5</ele>
        <time>2020-07-12T06:34:35Z</time>
      </trkpt>
      <trkpt lat="46.49215" lon="2.60741">
        <ele>180.4</ele>
        <time>2020-07-12T06:34:36Z</time>
      </trkpt>
      <trkpt lat="46.4922" lon="2.60744">
        <ele>180.3</ele>
        <time>2020-07-12T06:34:37Z</time>
      </trkpt>
      <trkpt lat="46.49226" lon="2.60746">
        <ele>180.3</ele>
        <time>2020-07-12T06:34:38Z</time>
      </trkpt>
      <trkpt lat="46.49231" lon="2.60748">
        <ele>180.3</ele>
        <time>2020-07-12T06:34:39Z</time>
      </trkpt>
      <trkpt lat="46.49236" lon="2.6075">
        <ele>180.3</ele>
        <time>2020-07-12T06:34:40Z</time>
      </trkpt>
      <trkpt lat="46.49241" lon="2.60752">
        <ele>180.4</ele>
        <time>2020-07-12T06:34:41Z</time>
      </trkpt>
      <trkpt lat="46.49246" lon="2.60754">
        <ele>180.5</ele>
        <time>2020-07-12T06:34:42Z</time>
      </trkpt>
      <trkpt lat="46.49251" lon="2.60756">
        <ele>181</ele>
        <time>2020-07-12T06:34:43Z</time>
      </trkpt>
      <trkpt lat="46.49256" lon="2.60758">
        <ele>181.3</ele>
        <time>2020-07-12T06:34:44Z</time>
      </trkpt>
      <trkpt lat="46.4926" lon="2.6076">
        <ele>181.2</ele>
        <time>2020-07-12T06:34:45Z</time>
      </trkpt>
      <trkpt lat="46.49265" lon="2.60762">
        <ele>181.1</ele>
        <time>2020-07-12T06:34:46Z</time>
      </trkpt>
      <trkpt lat="46.4927" lon="2.60764">
        <ele>181</ele>
        <time>2020-07-12T06:34:47Z</time>
      </trkpt>
      <trkpt lat="46.49275" lon="2.60767">
        <ele>181</ele>
        <time>2020-07-12T06:34:48Z</time>
      </trkpt>
      <trkpt lat="46.4928" lon="2.60769">
        <ele>180.9</ele>
        <time>2020-07-12T06:34:49Z</time>
      </trkpt>
      <trkpt lat="46.49284" lon="2.60771">
        <ele>181.1</ele>
        <time>2020-07-12T06:34:50Z</time>
      </trkpt>
      <trkpt lat="46.49289" lon="2.60773">
        <ele>181.3</ele>
        <time>2020-07-12T06:34:51Z</time>
      </trkpt>
      <trkpt lat="46.49294" lon="2.60775">
        <ele>181.5</ele>
        <time>2020-07-12T06:34:52Z</time>
      </trkpt>
      <trkpt lat="46.49299" lon="2.60777">
        <ele>181.1</ele>
        <time>2020-07-12T06:34:53Z</time>
      </trkpt>
      <trkpt lat="46.49304" lon="2.60779">
        <ele>180.8</ele>
        <time>2020-07-12T06:34:54Z</time>
      </trkpt>
      <trkpt lat="46.49309" lon="2.60781">
        <ele>180.7</ele>
        <time>2020-07-12T06:34:55Z</time>
      </trkpt>
      <trkpt lat="46.49314" lon="2.60783">
        <ele>180.6</ele>
        <time>2020-07-12T06:34:56Z</time>
      </trkpt>
      <trkpt lat="46.49319" lon="2.60785">
        <ele>180.6</ele>
        <time>2020-07-12T06:34:57Z</time>
      </trkpt>
      <trkpt lat="46.49323" lon="2.60788">
        <ele>180.6</ele>
        <time>2020-07-12T06:34:58Z</time>
      </trkpt>
      <trkpt lat="46.49328" lon="2.6079">
        <ele>180.6</ele>
        <time>2020-07-12T06:34:59Z</time>
      </trkpt>
      <trkpt lat="46.49333" lon="2.60792">
        <ele>180.9</ele>
        <time>2020-07-12T06:35:00Z</time>
      </trkpt>
      <trkpt lat="46.49337" lon="2.60794">
        <ele>181.1</ele>
        <time>2020-07-12T06:35:01Z</time>
      </trkpt>
      <trkpt lat="46.49342" lon="2.60796">
        <ele>181</ele>
        <time>2020-07-12T06:35:02Z</time>
      </trkpt>
      <trkpt lat="46.49347" lon="2.60798">
        <ele>180.9</ele>
        <time>2020-07-12T06:35:03Z</time>
      </trkpt>
      <trkpt lat="46.49352" lon="2.608">
        <ele>180.8</ele>
        <time>2020-07-12T06:35:04Z</time>
      </trkpt>
      <trkpt lat="46.49356" lon="2.60802">
        <ele>180.8</ele>
        <time>2020-07-12T06:35:05Z</time>
      </trkpt>
      <trkpt lat="46.49361" lon="2.60804">
        <ele>180.8</ele>
        <time>2020-07-12T06:35:06Z</time>
      </trkpt>
      <trkpt lat="46.49366" lon="2.60806">
        <ele>180.9</ele>
        <time>2020-07-12T06:35:07Z</time>
      </trkpt>
      <trkpt lat="46.49371" lon="2.60808">
        <ele>180.9</ele>
        <time>2020-07-12T06:35:08Z</time>
      </trkpt>
      <trkpt lat="46.49375" lon="2.6081">
        <ele>180.7</ele>
        <time>2020-07-12T06:35:09Z</time>
      </trkpt>
      <trkpt lat="46.49379" lon="2.60812">
        <ele>180.6</ele>
        <time>2020-07-12T06:35:10Z</time>
      </trkpt>
      <trkpt lat="46.49384" lon="2.60814">
        <ele>180.5</ele>
        <time>2020-07-12T06:35:11Z</time>
      </trkpt>
      <trkpt lat="46.49389" lon="2.60816">
        <ele>181</ele>
        <time>2020-07-12T06:35:12Z</time>
      </trkpt>
      <trkpt lat="46.49393" lon="2.60818">
        <ele>181.4</ele>
        <time>2020-07-12T06:35:13Z</time>
      </trkpt>
      <trkpt lat="46.49398" lon="2.6082">
        <ele>181.4</ele>
        <time>2020-07-12T06:35:14Z</time>
      </trkpt>
      <trkpt lat="46.49402" lon="2.60822">
        <ele>181.4</ele>
        <time>2020-07-12T06:35:15Z</time>
      </trkpt>
      <trkpt lat="46.49407" lon="2.60824">
        <ele>181.1</ele>
        <time>2020-07-12T06:35:16Z</time>
      </trkpt>
      <trkpt lat="46.49411" lon="2.60826">
        <ele>180.9</ele>
        <time>2020-07-12T06:35:17Z</time>
      </trkpt>
      <trkpt lat="46.49416" lon="2.60828">
        <ele>180.8</ele>
        <time>2020-07-12T06:35:18Z</time>
      </trkpt>
      <trkpt lat="46.49421" lon="2.6083">
        <ele>181.1</ele>
        <time>2020-07-12T06:35:19Z</time>
      </trkpt>
      <trkpt lat="46.49426" lon="2.60832">
        <ele>181.4</ele>
        <time>2020-07-12T06:35:20Z</time>
      </trkpt>
      <trkpt lat="46.4943" lon="2.60834">
        <ele>181.6</ele>
        <time>2020-07-12T06:35:21Z</time>
      </trkpt>
      <trkpt lat="46.49435" lon="2.60836">
        <ele>181.7</ele>
        <time>2020-07-12T06:35:22Z</time>
      </trkpt>
      <trkpt lat="46.49443" lon="2.60839">
        <ele>181.5</ele>
        <time>2020-07-12T06:35:24Z</time>
      </trkpt>
      <trkpt lat="46.49452" lon="2.60843">
        <ele>181.6</ele>
        <time>2020-07-12T06:35:26Z</time>
      </trkpt>
      <trkpt lat="46.49456" lon="2.60844">
        <ele>181.7</ele>
        <time>2020-07-12T06:35:27Z</time>
      </trkpt>
      <trkpt lat="46.49461" lon="2.60846">
        <ele>181.5</ele>
        <time>2020-07-12T06:35:28Z</time>
      </trkpt>
      <trkpt lat="46.49465" lon="2.60848">
        <ele>181.4</ele>
        <time>2020-07-12T06:35:29Z</time>
      </trkpt>
      <trkpt lat="46.4947" lon="2.6085">
        <ele>181.6</ele>
        <time>2020-07-12T06:35:30Z</time>
      </trkpt>
      <trkpt lat="46.49475" lon="2.60851">
        <ele>181.8</ele>
        <time>2020-07-12T06:35:31Z</time>
      </trkpt>
      <trkpt lat="46.49479" lon="2.60853">
        <ele>182</ele>
        <time>2020-07-12T06:35:32Z</time>
      </trkpt>
      <trkpt lat="46.49484" lon="2.60855">
        <ele>181.5</ele>
        <time>2020-07-12T06:35:33Z</time>
      </trkpt>
      <trkpt lat="46.49489" lon="2.60856">
        <ele>181.1</ele>
        <time>2020-07-12T06:35:34Z</time>
      </trkpt>
      <trkpt lat="46.49497" lon="2.60858">
        <ele>181.7</ele>
        <time>2020-07-12T06:35:36Z</time>
      </trkpt>
      <trkpt lat="46.49506" lon="2.6086">
        <ele>181.6</ele>
        <time>2020-07-12T06:35:38Z</time>
      </trkpt>
      <trkpt lat="46.49511" lon="2.6086">
        <ele>181.4</ele>
        <time>2020-07-12T06:35:39Z</time>
      </trkpt>
      <trkpt lat="46.49515" lon="2.60861">
        <ele>181.8</ele>
        <time>2020-07-12T06:35:40Z</time>
      </trkpt>
      <trkpt lat="46.4952" lon="2.60861">
        <ele>182</ele>
        <time>2020-07-12T06:35:41Z</time>
      </trkpt>
      <trkpt lat="46.49525" lon="2.60861">
        <ele>182.1</ele>
        <time>2020-07-12T06:35:42Z</time>
      </trkpt>
      <trkpt lat="46.49529" lon="2.60861">
        <ele>182.1</ele>
        <time>2020-07-12T06:35:43Z</time>
      </trkpt>
      <trkpt lat="46.49534" lon="2.60862">
        <ele>182.1</ele>
        <time>2020-07-12T06:35:44Z</time>
      </trkpt>
      <trkpt lat="46.49539" lon="2.60862">
        <ele>181.9</ele>
        <time>2020-07-12T06:35:45Z</time>
      </trkpt>
      <trkpt lat="46.49544" lon="2.60862">
        <ele>181.7</ele>
        <time>2020-07-12T06:35:46Z</time>
      </trkpt>
      <trkpt lat="46.49549" lon="2.60862">
        <ele>181.4</ele>
        <time>2020-07-12T06:35:47Z</time>
      </trkpt>
      <trkpt lat="46.49554" lon="2.60862">
        <ele>181.2</ele>
        <time>2020-07-12T06:35:48Z</time>
      </trkpt>
      <trkpt lat="46.49559" lon="2.60862">
        <ele>181</ele>
        <time>2020-07-12T06:35:49Z</time>
      </trkpt>
      <trkpt lat="46.49564" lon="2.60861">
        <ele>180.9</ele>
        <time>2020-07-12T06:35:50Z</time>
      </trkpt>
      <trkpt lat="46.49568" lon="2.60861">
        <ele>180.9</ele>
        <time>2020-07-12T06:35:51Z</time>
      </trkpt>
      <trkpt lat="46.49573" lon="2.60861">
        <ele>181</ele>
        <time>2020-07-12T06:35:52Z</time>
      </trkpt>
      <trkpt lat="46.49578" lon="2.60861">
        <ele>181.1</ele>
        <time>2020-07-12T06:35:53Z</time>
      </trkpt>
      <trkpt lat="46.49582" lon="2.60861">
        <ele>181.2</ele>
        <time>2020-07-12T06:35:54Z</time>
      </trkpt>
      <trkpt lat="46.49587" lon="2.60861">
        <ele>181.2</ele>
        <time>2020-07-12T06:35:55Z</time>
      </trkpt>
      <trkpt lat="46.49596" lon="2.6086">
        <ele>180.9</ele>
        <time>2020-07-12T06:35:57Z</time>
      </trkpt>
      <trkpt lat="46.49601" lon="2.60859">
        <ele>180.8</ele>
        <time>2020-07-12T06:35:58Z</time>
      </trkpt>
      <trkpt lat="46.49605" lon="2.60858">
        <ele>180.9</ele>
        <time>2020-07-12T06:35:59Z</time>
      </trkpt>
      <trkpt lat="46.49614" lon="2.60856">
        <ele>181</ele>
        <time>2020-07-12T06:36:01Z</time>
      </trkpt>
      <trkpt lat="46.49623" lon="2.60854">
        <ele>181</ele>
        <time>2020-07-12T06:36:03Z</time>
      </trkpt>
      <trkpt lat="46.49628" lon="2.60853">
        <ele>181.1</ele>
        <time>2020-07-12T06:36:04Z</time>
      </trkpt>
      <trkpt lat="46.49632" lon="2.60852">
        <ele>181.1</ele>
        <time>2020-07-12T06:36:05Z</time>
      </trkpt>
      <trkpt lat="46.49637" lon="2.60851">
        <ele>181.3</ele>
        <time>2020-07-12T06:36:06Z</time>
      </trkpt>
      <trkpt lat="46.49642" lon="2.6085">
        <ele>181.4</ele>
        <time>2020-07-12T06:36:07Z</time>
      </trkpt>
      <trkpt lat="46.49646" lon="2.60849">
        <ele>181.4</ele>
        <time>2020-07-12T06:36:08Z</time>
      </trkpt>
      <trkpt lat="46.49651" lon="2.60848">
        <ele>181.4</ele>
        <time>2020-07-12T06:36:09Z</time>
      </trkpt>
      <trkpt lat="46.4966" lon="2.60846">
        <ele>181.5</ele>
        <time>2020-07-12T06:36:11Z</time>
      </trkpt>
      <trkpt lat="46.49668" lon="2.60844">
        <ele>181.6</ele>
        <time>2020-07-12T06:36:13Z</time>
      </trkpt>
      <trkpt lat="46.49677" lon="2.60842">
        <ele>181.8</ele>
        <time>2020-07-12T06:36:15Z</time>
      </trkpt>
      <trkpt lat="46.49686" lon="2.60841">
        <ele>181.5</ele>
        <time>2020-07-12T06:36:17Z</time>
      </trkpt>
      <trkpt lat="46.4969" lon="2.6084">
        <ele>181.2</ele>
        <time>2020-07-12T06:36:18Z</time>
      </trkpt>
      <trkpt lat="46.49695" lon="2.60839">
        <ele>181</ele>
        <time>2020-07-12T06:36:19Z</time>
      </trkpt>
      <trkpt lat="46.49704" lon="2.60837">
        <ele>181.2</ele>
        <time>2020-07-12T06:36:21Z</time>
      </trkpt>
      <trkpt lat="46.49712" lon="2.60835">
        <ele>181.6</ele>
        <time>2020-07-12T06:36:23Z</time>
      </trkpt>
      <trkpt lat="46.49718" lon="2.60833">
        <ele>181.6</ele>
        <time>2020-07-12T06:36:25Z</time>
      </trkpt>
      <trkpt lat="46.49727" lon="2.60833">
        <ele>182</ele>
        <time>2020-07-12T06:36:28Z</time>
      </trkpt>
      <trkpt lat="46.49734" lon="2.60832">
        <ele>182.3</ele>
        <time>2020-07-12T06:36:30Z</time>
      </trkpt>
      <trkpt lat="46.4974" lon="2.60829">
        <ele>182.1</ele>
        <time>2020-07-12T06:36:32Z</time>
      </trkpt>
      <trkpt lat="46.49746" lon="2.60829">
        <ele>181.6</ele>
        <time>2020-07-12T06:36:34Z</time>
      </trkpt>
      <trkpt lat="46.49755" lon="2.60827">
        <ele>181.8</ele>
        <time>2020-07-12T06:36:36Z</time>
      </trkpt>
      <trkpt lat="46.4976" lon="2.60826">
        <ele>181.5</ele>
        <time>2020-07-12T06:36:37Z</time>
      </trkpt>
      <trkpt lat="46.49765" lon="2.60824">
        <ele>181.2</ele>
        <time>2020-07-12T06:36:38Z</time>
      </trkpt>
      <trkpt lat="46.4977" lon="2.60823">
        <ele>181.3</ele>
        <time>2020-07-12T06:36:39Z</time>
      </trkpt>
      <trkpt lat="46.49775" lon="2.60822">
        <ele>181.3</ele>
        <time>2020-07-12T06:36:40Z</time>
      </trkpt>
      <trkpt lat="46.49779" lon="2.60821">
        <ele>181.3</ele>
        <time>2020-07-12T06:36:41Z</time>
      </trkpt>
      <trkpt lat="46.49784" lon="2.6082">
        <ele>181.5</ele>
        <time>2020-07-12T06:36:42Z</time>
      </trkpt>
      <trkpt lat="46.49789" lon="2.60819">
        <ele>181.7</ele>
        <time>2020-07-12T06:36:43Z</time>
      </trkpt>
      <trkpt lat="46.49793" lon="2.60818">
        <ele>181.2</ele>
        <time>2020-07-12T06:36:44Z</time>
      </trkpt>
      <trkpt lat="46.49798" lon="2.60817">
        <ele>180.9</ele>
        <time>2020-07-12T06:36:45Z</time>
      </trkpt>
      <trkpt lat="46.49803" lon="2.60816">
        <ele>181</ele>
        <time>2020-07-12T06:36:46Z</time>
      </trkpt>
      <trkpt lat="46.49807" lon="2.60816">
        <ele>181.2</ele>
        <time>2020-07-12T06:36:47Z</time>
      </trkpt>
      <trkpt lat="46.49812" lon="2.60814">
        <ele>181.2</ele>
        <time>2020-07-12T06:36:48Z</time>
      </trkpt>
      <trkpt lat="46.49817" lon="2.60813">
        <ele>181.5</ele>
        <time>2020-07-12T06:36:49Z</time>
      </trkpt>
      <trkpt lat="46.49822" lon="2.60812">
        <ele>181.7</ele>
        <time>2020-07-12T06:36:50Z</time>
      </trkpt>
      <trkpt lat="46.49827" lon="2.60811">
        <ele>181.6</ele>
        <time>2020-07-12T06:36:51Z</time>
      </trkpt>
      <trkpt lat="46.49832" lon="2.6081">
        <ele>181.6</ele>
        <time>2020-07-12T06:36:52Z</time>
      </trkpt>
      <trkpt lat="46.49837" lon="2.60809">
        <ele>181.6</ele>
        <time>2020-07-12T06:36:53Z</time>
      </trkpt>
      <trkpt lat="46.49842" lon="2.60807">
        <ele>181.6</ele>
        <time>2020-07-12T06:36:54Z</time>
      </trkpt>
      <trkpt lat="46.49847" lon="2.60806">
        <ele>181.6</ele>
        <time>2020-07-12T06:36:55Z</time>
      </trkpt>
      <trkpt lat="46.49852" lon="2.60805">
        <ele>181.4</ele>
        <time>2020-07-12T06:36:56Z</time>
      </trkpt>
      <trkpt lat="46.49857" lon="2.60804">
        <ele>181.2</ele>
        <time>2020-07-12T06:36:57Z</time>
      </trkpt>
      <trkpt lat="46.49862" lon="2.60803">
        <ele>181.1</ele>
        <time>2020-07-12T06:36:58Z</time>
      </trkpt>
      <trkpt lat="46.49866" lon="2.60803">
        <ele>181</ele>
        <time>2020-07-12T06:36:59Z</time>
      </trkpt>
      <trkpt lat="46.49871" lon="2.60802">
        <ele>180.9</ele>
        <time>2020-07-12T06:37:00Z</time>
      </trkpt>
      <trkpt lat="46.49876" lon="2.60801">
        <ele>180.9</ele>
        <time>2020-07-12T06:37:01Z</time>
      </trkpt>
      <trkpt lat="46.49881" lon="2.608">
        <ele>180.9</ele>
        <time>2020-07-12T06:37:02Z</time>
      </trkpt>
      <trkpt lat="46.49886" lon="2.608">
        <ele>180.9</ele>
        <time>2020-07-12T06:37:03Z</time>
      </trkpt>
      <trkpt lat="46.49891" lon="2.60799">
        <ele>181</ele>
        <time>2020-07-12T06:37:04Z</time>
      </trkpt>
      <trkpt lat="46.49896" lon="2.60799">
        <ele>180.9</ele>
        <time>2020-07-12T06:37:05Z</time>
      </trkpt>
      <trkpt lat="46.49901" lon="2.60799">
        <ele>180.8</ele>
        <time>2020-07-12T06:37:06Z</time>
      </trkpt>
      <trkpt lat="46.49906" lon="2.60798">
        <ele>180.8</ele>
        <time>2020-07-12T06:37:07Z</time>
      </trkpt>
      <trkpt lat="46.49911" lon="2.60798">
        <ele>181.2</ele>
        <time>2020-07-12T06:37:08Z</time>
      </trkpt>
      <trkpt lat="46.49916" lon="2.60798">
        <ele>181.5</ele>
        <time>2020-07-12T06:37:09Z</time>
      </trkpt>
      <trkpt lat="46.49921" lon="2.60798">
        <ele>181.3</ele>
        <time>2020-07-12T06:37:10Z</time>
      </trkpt>
      <trkpt lat="46.49926" lon="2.60798">
        <ele>181.2</ele>
        <time>2020-07-12T06:37:11Z</time>
      </trkpt>
      <trkpt lat="46.49931" lon="2.60798">
        <ele>181.1</ele>
        <time>2020-07-12T06:37:12Z</time>
      </trkpt>
      <trkpt lat="46.49936" lon="2.60799">
        <ele>181.2</ele>
        <time>2020-07-12T06:37:13Z</time>
      </trkpt>
      <trkpt lat="46.4994" lon="2.60799">
        <ele>181.3</ele>
        <time>2020-07-12T06:37:14Z</time>
      </trkpt>
      <trkpt lat="46.49945" lon="2.60799">
        <ele>181.2</ele>
        <time>2020-07-12T06:37:15Z</time>
      </trkpt>
      <trkpt lat="46.4995" lon="2.60799">
        <ele>181.1</ele>
        <time>2020-07-12T06:37:16Z</time>
      </trkpt>
      <trkpt lat="46.49955" lon="2.608">
        <ele>180.5</ele>
        <time>2020-07-12T06:37:17Z</time>
      </trkpt>
      <trkpt lat="46.4996" lon="2.608">
        <ele>180</ele>
        <time>2020-07-12T06:37:18Z</time>
      </trkpt>
      <trkpt lat="46.49965" lon="2.60801">
        <ele>179.7</ele>
        <time>2020-07-12T06:37:19Z</time>
      </trkpt>
      <trkpt lat="46.49969" lon="2.60802">
        <ele>179.8</ele>
        <time>2020-07-12T06:37:20Z</time>
      </trkpt>
      <trkpt lat="46.49974" lon="2.60802">
        <ele>179.9</ele>
        <time>2020-07-12T06:37:21Z</time>
      </trkpt>
      <trkpt lat="46.49979" lon="2.60803">
        <ele>180.1</ele>
        <time>2020-07-12T06:37:22Z</time>
      </trkpt>
      <trkpt lat="46.49984" lon="2.60804">
        <ele>180.2</ele>
        <time>2020-07-12T06:37:23Z</time>
      </trkpt>
      <trkpt lat="46.49989" lon="2.60804">
        <ele>180.4</ele>
        <time>2020-07-12T06:37:24Z</time>
      </trkpt>
      <trkpt lat="46.49994" lon="2.60805">
        <ele>180.6</ele>
        <time>2020-07-12T06:37:25Z</time>
      </trkpt>
      <trkpt lat="46.49998" lon="2.60807">
        <ele>180.7</ele>
        <time>2020-07-12T06:37:26Z</time>
      </trkpt>
      <trkpt lat="46.50003" lon="2.60808">
        <ele>180.3</ele>
        <time>2020-07-12T06:37:27Z</time>
      </trkpt>
      <trkpt lat="46.50008" lon="2.6081">
        <ele>180</ele>
        <time>2020-07-12T06:37:28Z</time>
      </trkpt>
      <trkpt lat="46.50013" lon="2.60811">
        <ele>180.5</ele>
        <time>2020-07-12T06:37:29Z</time>
      </trkpt>
      <trkpt lat="46.50018" lon="2.60812">
        <ele>180.8</ele>
        <time>2020-07-12T06:37:30Z</time>
      </trkpt>
      <trkpt lat="46.50022" lon="2.60814">
        <ele>181</ele>
        <time>2020-07-12T06:37:31Z</time>
      </trkpt>
      <trkpt lat="46.50027" lon="2.60815">
        <ele>181</ele>
        <time>2020-07-12T06:37:32Z</time>
      </trkpt>
      <trkpt lat="46.50032" lon="2.60817">
        <ele>181</ele>
        <time>2020-07-12T06:37:33Z</time>
      </trkpt>
      <trkpt lat="46.50037" lon="2.60818">
        <ele>181</ele>
        <time>2020-07-12T06:37:34Z</time>
      </trkpt>
      <trkpt lat="46.50041" lon="2.6082">
        <ele>181.1</ele>
        <time>2020-07-12T06:37:35Z</time>
      </trkpt>
      <trkpt lat="46.50046" lon="2.60822">
        <ele>181</ele>
        <time>2020-07-12T06:37:36Z</time>
      </trkpt>
      <trkpt lat="46.50051" lon="2.60823">
        <ele>180.9</ele>
        <time>2020-07-12T06:37:37Z</time>
      </trkpt>
      <trkpt lat="46.50055" lon="2.60825">
        <ele>180.8</ele>
        <time>2020-07-12T06:37:38Z</time>
      </trkpt>
      <trkpt lat="46.5006" lon="2.60827">
        <ele>180.7</ele>
        <time>2020-07-12T06:37:39Z</time>
      </trkpt>
      <trkpt lat="46.50065" lon="2.60829">
        <ele>180.7</ele>
        <time>2020-07-12T06:37:40Z</time>
      </trkpt>
      <trkpt lat="46.50069" lon="2.6083">
        <ele>180.7</ele>
        <time>2020-07-12T06:37:41Z</time>
      </trkpt>
      <trkpt lat="46.50074" lon="2.60832">
        <ele>180.8</ele>
        <time>2020-07-12T06:37:42Z</time>
      </trkpt>
      <trkpt lat="46.50078" lon="2.60833">
        <ele>180.8</ele>
        <time>2020-07-12T06:37:43Z</time>
      </trkpt>
      <trkpt lat="46.50083" lon="2.60835">
        <ele>180.8</ele>
        <time>2020-07-12T06:37:44Z</time>
      </trkpt>
      <trkpt lat="46.50088" lon="2.60837">
        <ele>180.8</ele>
        <time>2020-07-12T06:37:45Z</time>
      </trkpt>
      <trkpt lat="46.50092" lon="2.60838">
        <ele>180.4</ele>
        <time>2020-07-12T06:37:46Z</time>
      </trkpt>
      <trkpt lat="46.50097" lon="2.6084">
        <ele>180.1</ele>
        <time>2020-07-12T06:37:47Z</time>
      </trkpt>
      <trkpt lat="46.50102" lon="2.60842">
        <ele>179.9</ele>
        <time>2020-07-12T06:37:48Z</time>
      </trkpt>
      <trkpt lat="46.50106" lon="2.60843">
        <ele>179.8</ele>
        <time>2020-07-12T06:37:49Z</time>
      </trkpt>
      <trkpt lat="46.50111" lon="2.60845">
        <ele>179.7</ele>
        <time>2020-07-12T06:37:50Z</time>
      </trkpt>
      <trkpt lat="46.50116" lon="2.60846">
        <ele>180.1</ele>
        <time>2020-07-12T06:37:51Z</time>
      </trkpt>
      <trkpt lat="46.5012" lon="2.60848">
        <ele>180.4</ele>
        <time>2020-07-12T06:37:52Z</time>
      </trkpt>
      <trkpt lat="46.50125" lon="2.6085">
        <ele>180.5</ele>
        <time>2020-07-12T06:37:53Z</time>
      </trkpt>
      <trkpt lat="46.50129" lon="2.60851">
        <ele>180.5</ele>
        <time>2020-07-12T06:37:54Z</time>
      </trkpt>
      <trkpt lat="46.50134" lon="2.60852">
        <ele>180.3</ele>
        <time>2020-07-12T06:37:55Z</time>
      </trkpt>
      <trkpt lat="46.50139" lon="2.60854">
        <ele>180.2</ele>
        <time>2020-07-12T06:37:56Z</time>
      </trkpt>
      <trkpt lat="46.50144" lon="2.60855">
        <ele>180.1</ele>
        <time>2020-07-12T06:37:57Z</time>
      </trkpt>
      <trkpt lat="46.50148" lon="2.60857">
        <ele>180.1</ele>
        <time>2020-07-12T06:37:58Z</time>
      </trkpt>
      <trkpt lat="46.50153" lon="2.60859">
        <ele>180.1</ele>
        <time>2020-07-12T06:37:59Z</time>
      </trkpt>
      <trkpt lat="46.50158" lon="2.6086">
        <ele>180.3</ele>
        <time>2020-07-12T06:38:00Z</time>
      </trkpt>
      <trkpt lat="46.50162" lon="2.60862">
        <ele>180.4</ele>
        <time>2020-07-12T06:38:01Z</time>
      </trkpt>
      <trkpt lat="46.50167" lon="2.60863">
        <ele>180.6</ele>
        <time>2020-07-12T06:38:02Z</time>
      </trkpt>
      <trkpt lat="46.50171" lon="2.60865">
        <ele>180.7</ele>
        <time>2020-07-12T06:38:03Z</time>
      </trkpt>
      <trkpt lat="46.50176" lon="2.60867">
        <ele>180.8</ele>
        <time>2020-07-12T06:38:04Z</time>
      </trkpt>
      <trkpt lat="46.50181" lon="2.60868">
        <ele>180.6</ele>
        <time>2020-07-12T06:38:05Z</time>
      </trkpt>
      <trkpt lat="46.50185" lon="2.6087">
        <ele>180.5</ele>
        <time>2020-07-12T06:38:06Z</time>
      </trkpt>
      <trkpt lat="46.5019" lon="2.60871">
        <ele>180.7</ele>
        <time>2020-07-12T06:38:07Z</time>
      </trkpt>
      <trkpt lat="46.50195" lon="2.60873">
        <ele>180.8</ele>
        <time>2020-07-12T06:38:08Z</time>
      </trkpt>
      <trkpt lat="46.50199" lon="2.60874">
        <ele>181</ele>
        <time>2020-07-12T06:38:09Z</time>
      </trkpt>
      <trkpt lat="46.50204" lon="2.60876">
        <ele>181.1</ele>
        <time>2020-07-12T06:38:10Z</time>
      </trkpt>
      <trkpt lat="46.50209" lon="2.60877">
        <ele>181.2</ele>
        <time>2020-07-12T06:38:11Z</time>
      </trkpt>
      <trkpt lat="46.50214" lon="2.60879">
        <ele>181</ele>
        <time>2020-07-12T06:38:12Z</time>
      </trkpt>
      <trkpt lat="46.50218" lon="2.60881">
        <ele>180.9</ele>
        <time>2020-07-12T06:38:13Z</time>
      </trkpt>
      <trkpt lat="46.50227" lon="2.60884">
        <ele>181.2</ele>
        <time>2020-07-12T06:38:15Z</time>
      </trkpt>
      <trkpt lat="46.50232" lon="2.60886">
        <ele>181.4</ele>
        <time>2020-07-12T06:38:16Z</time>
      </trkpt>
      <trkpt lat="46.50238" lon="2.60887">
        <ele>181.1</ele>
        <time>2020-07-12T06:38:17Z</time>
      </trkpt>
      <trkpt lat="46.50244" lon="2.60887">
        <ele>180.8</ele>
        <time>2020-07-12T06:38:18Z</time>
      </trkpt>
      <trkpt lat="46.5025" lon="2.60886">
        <ele>180.1</ele>
        <time>2020-07-12T06:38:19Z</time>
      </trkpt>
      <trkpt lat="46.50254" lon="2.60888">
        <ele>179.5</ele>
        <time>2020-07-12T06:38:20Z</time>
      </trkpt>
      <trkpt lat="46.50259" lon="2.60889">
        <ele>179.7</ele>
        <time>2020-07-12T06:38:21Z</time>
      </trkpt>
      <trkpt lat="46.50267" lon="2.60893">
        <ele>180</ele>
        <time>2020-07-12T06:38:23Z</time>
      </trkpt>
      <trkpt lat="46.50272" lon="2.60894">
        <ele>179.8</ele>
        <time>2020-07-12T06:38:24Z</time>
      </trkpt>
      <trkpt lat="46.50277" lon="2.60896">
        <ele>179.6</ele>
        <time>2020-07-12T06:38:25Z</time>
      </trkpt>
      <trkpt lat="46.50281" lon="2.60898">
        <ele>180.1</ele>
        <time>2020-07-12T06:38:26Z</time>
      </trkpt>
      <trkpt lat="46.50286" lon="2.60899">
        <ele>180.4</ele>
        <time>2020-07-12T06:38:27Z</time>
      </trkpt>
      <trkpt lat="46.50291" lon="2.60901">
        <ele>180.2</ele>
        <time>2020-07-12T06:38:28Z</time>
      </trkpt>
      <trkpt lat="46.50296" lon="2.60903">
        <ele>180.1</ele>
        <time>2020-07-12T06:38:29Z</time>
      </trkpt>
      <trkpt lat="46.50301" lon="2.60905">
        <ele>180</ele>
        <time>2020-07-12T06:38:30Z</time>
      </trkpt>
      <trkpt lat="46.50307" lon="2.60907">
        <ele>180.3</ele>
        <time>2020-07-12T06:38:31Z</time>
      </trkpt>
      <trkpt lat="46.50312" lon="2.60909">
        <ele>180.6</ele>
        <time>2020-07-12T06:38:32Z</time>
      </trkpt>
      <trkpt lat="46.50318" lon="2.6091">
        <ele>180.4</ele>
        <time>2020-07-12T06:38:33Z</time>
      </trkpt>
      <trkpt lat="46.50323" lon="2.60912">
        <ele>180.4</ele>
        <time>2020-07-12T06:38:34Z</time>
      </trkpt>
      <trkpt lat="46.50329" lon="2.60914">
        <ele>180.3</ele>
        <time>2020-07-12T06:38:35Z</time>
      </trkpt>
      <trkpt lat="46.50334" lon="2.60916">
        <ele>180.7</ele>
        <time>2020-07-12T06:38:36Z</time>
      </trkpt>
      <trkpt lat="46.50339" lon="2.60918">
        <ele>181</ele>
        <time>2020-07-12T06:38:37Z</time>
      </trkpt>
      <trkpt lat="46.50344" lon="2.6092">
        <ele>181.1</ele>
        <time>2020-07-12T06:38:38Z</time>
      </trkpt>
      <trkpt lat="46.50349" lon="2.60922">
        <ele>181.1</ele>
        <time>2020-07-12T06:38:39Z</time>
      </trkpt>
      <trkpt lat="46.50354" lon="2.60924">
        <ele>180.8</ele>
        <time>2020-07-12T06:38:40Z</time>
      </trkpt>
      <trkpt lat="46.50359" lon="2.60925">
        <ele>180.6</ele>
        <time>2020-07-12T06:38:41Z</time>
      </trkpt>
      <trkpt lat="46.50364" lon="2.60927">
        <ele>180.5</ele>
        <time>2020-07-12T06:38:42Z</time>
      </trkpt>
      <trkpt lat="46.50369" lon="2.60929">
        <ele>180.7</ele>
        <time>2020-07-12T06:38:43Z</time>
      </trkpt>
      <trkpt lat="46.50374" lon="2.60931">
        <ele>180.9</ele>
        <time>2020-07-12T06:38:44Z</time>
      </trkpt>
      <trkpt lat="46.50379" lon="2.60933">
        <ele>181.1</ele>
        <time>2020-07-12T06:38:45Z</time>
      </trkpt>
      <trkpt lat="46.50384" lon="2.60934">
        <ele>181.3</ele>
        <time>2020-07-12T06:38:46Z</time>
      </trkpt>
      <trkpt lat="46.50389" lon="2.60936">
        <ele>181.4</ele>
        <time>2020-07-12T06:38:47Z</time>
      </trkpt>
      <trkpt lat="46.50394" lon="2.60938">
        <ele>181.4</ele>
        <time>2020-07-12T06:38:48Z</time>
      </trkpt>
      <trkpt lat="46.50398" lon="2.6094">
        <ele>181.5</ele>
        <time>2020-07-12T06:38:49Z</time>
      </trkpt>
      <trkpt lat="46.50403" lon="2.60942">
        <ele>181.1</ele>
        <time>2020-07-12T06:38:50Z</time>
      </trkpt>
      <trkpt lat="46.50407" lon="2.60944">
        <ele>180.8</ele>
        <time>2020-07-12T06:38:51Z</time>
      </trkpt>
      <trkpt lat="46.50412" lon="2.60945">
        <ele>180.5</ele>
        <time>2020-07-12T06:38:52Z</time>
      </trkpt>
      <trkpt lat="46.50417" lon="2.60947">
        <ele>180.3</ele>
        <time>2020-07-12T06:38:53Z</time>
      </trkpt>
      <trkpt lat="46.50421" lon="2.60948">
        <ele>180.2</ele>
        <time>2020-07-12T06:38:54Z</time>
      </trkpt>
      <trkpt lat="46.50426" lon="2.6095">
        <ele>179.9</ele>
        <time>2020-07-12T06:38:55Z</time>
      </trkpt>
      <trkpt lat="46.50431" lon="2.60952">
        <ele>179.7</ele>
        <time>2020-07-12T06:38:56Z</time>
      </trkpt>
      <trkpt lat="46.50436" lon="2.60954">
        <ele>179.8</ele>
        <time>2020-07-12T06:38:57Z</time>
      </trkpt>
      <trkpt lat="46.5044" lon="2.60956">
        <ele>179.9</ele>
        <time>2020-07-12T06:38:58Z</time>
      </trkpt>
      <trkpt lat="46.50445" lon="2.60957">
        <ele>180.2</ele>
        <time>2020-07-12T06:38:59Z</time>
      </trkpt>
      <trkpt lat="46.5045" lon="2.60959">
        <ele>180.4</ele>
        <time>2020-07-12T06:39:00Z</time>
      </trkpt>
      <trkpt lat="46.50454" lon="2.60961">
        <ele>180.6</ele>
        <time>2020-07-12T06:39:01Z</time>
      </trkpt>
      <trkpt lat="46.50459" lon="2.60963">
        <ele>180.6</ele>
        <time>2020-07-12T06:39:02Z</time>
      </trkpt>
      <trkpt lat="46.50463" lon="2.60964">
        <ele>180.6</ele>
        <time>2020-07-12T06:39:03Z</time>
      </trkpt>
      <trkpt lat="46.50468" lon="2.60966">
        <ele>180.7</ele>
        <time>2020-07-12T06:39:04Z</time>
      </trkpt>
      <trkpt lat="46.50473" lon="2.60968">
        <ele>180.8</ele>
        <time>2020-07-12T06:39:05Z</time>
      </trkpt>
      <trkpt lat="46.50477" lon="2.6097">
        <ele>181.1</ele>
        <time>2020-07-12T06:39:06Z</time>
      </trkpt>
      <trkpt lat="46.50482" lon="2.60972">
        <ele>181.3</ele>
        <time>2020-07-12T06:39:07Z</time>
      </trkpt>
      <trkpt lat="46.50486" lon="2.60973">
        <ele>181.4</ele>
        <time>2020-07-12T06:39:08Z</time>
      </trkpt>
      <trkpt lat="46.50491" lon="2.60975">
        <ele>181.2</ele>
        <time>2020-07-12T06:39:09Z</time>
      </trkpt>
      <trkpt lat="46.50495" lon="2.60977">
        <ele>181</ele>
        <time>2020-07-12T06:39:10Z</time>
      </trkpt>
      <trkpt lat="46.505" lon="2.60978">
        <ele>180.9</ele>
        <time>2020-07-12T06:39:11Z</time>
      </trkpt>
      <trkpt lat="46.50504" lon="2.6098">
        <ele>180.8</ele>
        <time>2020-07-12T06:39:12Z</time>
      </trkpt>
      <trkpt lat="46.50509" lon="2.60982">
        <ele>180.7</ele>
        <time>2020-07-12T06:39:13Z</time>
      </trkpt>
      <trkpt lat="46.50513" lon="2.60983">
        <ele>180.7</ele>
        <time>2020-07-12T06:39:14Z</time>
      </trkpt>
      <trkpt lat="46.50518" lon="2.60985">
        <ele>180.7</ele>
        <time>2020-07-12T06:39:15Z</time>
      </trkpt>
      <trkpt lat="46.50522" lon="2.60987">
        <ele>181.1</ele>
        <time>2020-07-12T06:39:16Z</time>
      </trkpt>
      <trkpt lat="46.50527" lon="2.60988">
        <ele>181.4</ele>
        <time>2020-07-12T06:39:17Z</time>
      </trkpt>
      <trkpt lat="46.50532" lon="2.6099">
        <ele>181.4</ele>
        <time>2020-07-12T06:39:18Z</time>
      </trkpt>
      <trkpt lat="46.50536" lon="2.60992">
        <ele>181.3</ele>
        <time>2020-07-12T06:39:19Z</time>
      </trkpt>
      <trkpt lat="46.50541" lon="2.60993">
        <ele>181.3</ele>
        <time>2020-07-12T06:39:20Z</time>
      </trkpt>
      <trkpt lat="46.50545" lon="2.60995">
        <ele>181.3</ele>
        <time>2020-07-12T06:39:21Z</time>
      </trkpt>
      <trkpt lat="46.5055" lon="2.60997">
        <ele>181.4</ele>
        <time>2020-07-12T06:39:22Z</time>
      </trkpt>
      <trkpt lat="46.50555" lon="2.60998">
        <ele>181.2</ele>
        <time>2020-07-12T06:39:23Z</time>
      </trkpt>
      <trkpt lat="46.50559" lon="2.61">
        <ele>181</ele>
        <time>2020-07-12T06:39:24Z</time>
      </trkpt>
      <trkpt lat="46.50564" lon="2.61002">
        <ele>180.8</ele>
        <time>2020-07-12T06:39:25Z</time>
      </trkpt>
      <trkpt lat="46.50568" lon="2.61003">
        <ele>180.6</ele>
        <time>2020-07-12T06:39:26Z</time>
      </trkpt>
      <trkpt lat="46.50573" lon="2.61005">
        <ele>180.4</ele>
        <time>2020-07-12T06:39:27Z</time>
      </trkpt>
      <trkpt lat="46.50578" lon="2.61007">
        <ele>180.1</ele>
        <time>2020-07-12T06:39:28Z</time>
      </trkpt>
      <trkpt lat="46.50582" lon="2.61009">
        <ele>179.9</ele>
        <time>2020-07-12T06:39:29Z</time>
      </trkpt>
      <trkpt lat="46.50587" lon="2.6101">
        <ele>180.4</ele>
        <time>2020-07-12T06:39:30Z</time>
      </trkpt>
      <trkpt lat="46.50591" lon="2.61012">
        <ele>180.7</ele>
        <time>2020-07-12T06:39:31Z</time>
      </trkpt>
      <trkpt lat="46.50596" lon="2.61013">
        <ele>181</ele>
        <time>2020-07-12T06:39:32Z</time>
      </trkpt>
      <trkpt lat="46.506" lon="2.61015">
        <ele>180.9</ele>
        <time>2020-07-12T06:39:33Z</time>
      </trkpt>
      <trkpt lat="46.50605" lon="2.61017">
        <ele>180.9</ele>
        <time>2020-07-12T06:39:34Z</time>
      </trkpt>
      <trkpt lat="46.50609" lon="2.61018">
        <ele>181.2</ele>
        <time>2020-07-12T06:39:35Z</time>
      </trkpt>
      <trkpt lat="46.50614" lon="2.6102">
        <ele>181.5</ele>
        <time>2020-07-12T06:39:36Z</time>
      </trkpt>
      <trkpt lat="46.50618" lon="2.61021">
        <ele>181.5</ele>
        <time>2020-07-12T06:39:37Z</time>
      </trkpt>
      <trkpt lat="46.50623" lon="2.61023">
        <ele>181.5</ele>
        <time>2020-07-12T06:39:38Z</time>
      </trkpt>
      <trkpt lat="46.50627" lon="2.61025">
        <ele>181.5</ele>
        <time>2020-07-12T06:39:39Z</time>
      </trkpt>
      <trkpt lat="46.50632" lon="2.61026">
        <ele>181.7</ele>
        <time>2020-07-12T06:39:40Z</time>
      </trkpt>
      <trkpt lat="46.50636" lon="2.61028">
        <ele>181.9</ele>
        <time>2020-07-12T06:39:41Z</time>
      </trkpt>
      <trkpt lat="46.50641" lon="2.61029">
        <ele>181.9</ele>
        <time>2020-07-12T06:39:42Z</time>
      </trkpt>
      <trkpt lat="46.50646" lon="2.61031">
        <ele>181.9</ele>
        <time>2020-07-12T06:39:43Z</time>
      </trkpt>
      <trkpt lat="46.5065" lon="2.61032">
        <ele>181.4</ele>
        <time>2020-07-12T06:39:44Z</time>
      </trkpt>
      <trkpt lat="46.50654" lon="2.61034">
        <ele>181.1</ele>
        <time>2020-07-12T06:39:45Z</time>
      </trkpt>
      <trkpt lat="46.50659" lon="2.61036">
        <ele>180.9</ele>
        <time>2020-07-12T06:39:46Z</time>
      </trkpt>
      <trkpt lat="46.50663" lon="2.61037">
        <ele>180.8</ele>
        <time>2020-07-12T06:39:47Z</time>
      </trkpt>
      <trkpt lat="46.50668" lon="2.61039">
        <ele>180.6</ele>
        <time>2020-07-12T06:39:48Z</time>
      </trkpt>
      <trkpt lat="46.50676" lon="2.61042">
        <ele>181.6</ele>
        <time>2020-07-12T06:39:50Z</time>
      </trkpt>
      <trkpt lat="46.50681" lon="2.61043">
        <ele>181.9</ele>
        <time>2020-07-12T06:39:51Z</time>
      </trkpt>
      <trkpt lat="46.50685" lon="2.61045">
        <ele>181.8</ele>
        <time>2020-07-12T06:39:52Z</time>
      </trkpt>
      <trkpt lat="46.50694" lon="2.61048">
        <ele>181.2</ele>
        <time>2020-07-12T06:39:54Z</time>
      </trkpt>
      <trkpt lat="46.50698" lon="2.61049">
        <ele>180.9</ele>
        <time>2020-07-12T06:39:55Z</time>
      </trkpt>
      <trkpt lat="46.50703" lon="2.61051">
        <ele>180.9</ele>
        <time>2020-07-12T06:39:56Z</time>
      </trkpt>
      <trkpt lat="46.50707" lon="2.61052">
        <ele>181</ele>
        <time>2020-07-12T06:39:57Z</time>
      </trkpt>
      <trkpt lat="46.50712" lon="2.61054">
        <ele>181</ele>
        <time>2020-07-12T06:39:58Z</time>
      </trkpt>
      <trkpt lat="46.50716" lon="2.61055">
        <ele>181.1</ele>
        <time>2020-07-12T06:39:59Z</time>
      </trkpt>
      <trkpt lat="46.50721" lon="2.61056">
        <ele>181.1</ele>
        <time>2020-07-12T06:40:00Z</time>
      </trkpt>
      <trkpt lat="46.50725" lon="2.61058">
        <ele>181.2</ele>
        <time>2020-07-12T06:40:01Z</time>
      </trkpt>
      <trkpt lat="46.5073" lon="2.61059">
        <ele>181.3</ele>
        <time>2020-07-12T06:40:02Z</time>
      </trkpt>
      <trkpt lat="46.50734" lon="2.61061">
        <ele>181.3</ele>
        <time>2020-07-12T06:40:03Z</time>
      </trkpt>
      <trkpt lat="46.50739" lon="2.61063">
        <ele>181.4</ele>
        <time>2020-07-12T06:40:04Z</time>
      </trkpt>
      <trkpt lat="46.50743" lon="2.61064">
        <ele>181.5</ele>
        <time>2020-07-12T06:40:05Z</time>
      </trkpt>
      <trkpt lat="46.50747" lon="2.61066">
        <ele>181.2</ele>
        <time>2020-07-12T06:40:06Z</time>
      </trkpt>
      <trkpt lat="46.50752" lon="2.61067">
        <ele>181.1</ele>
        <time>2020-07-12T06:40:07Z</time>
      </trkpt>
      <trkpt lat="46.50756" lon="2.61069">
        <ele>181</ele>
        <time>2020-07-12T06:40:08Z</time>
      </trkpt>
      <trkpt lat="46.50761" lon="2.6107">
        <ele>180.9</ele>
        <time>2020-07-12T06:40:09Z</time>
      </trkpt>
      <trkpt lat="46.50765" lon="2.61072">
        <ele>181.4</ele>
        <time>2020-07-12T06:40:10Z</time>
      </trkpt>
      <trkpt lat="46.5077" lon="2.61074">
        <ele>181.7</ele>
        <time>2020-07-12T06:40:11Z</time>
      </trkpt>
      <trkpt lat="46.50779" lon="2.61077">
        <ele>181.6</ele>
        <time>2020-07-12T06:40:13Z</time>
      </trkpt>
      <trkpt lat="46.50783" lon="2.61078">
        <ele>181.3</ele>
        <time>2020-07-12T06:40:14Z</time>
      </trkpt>
      <trkpt lat="46.50788" lon="2.6108">
        <ele>181.2</ele>
        <time>2020-07-12T06:40:15Z</time>
      </trkpt>
      <trkpt lat="46.50792" lon="2.61081">
        <ele>181.1</ele>
        <time>2020-07-12T06:40:16Z</time>
      </trkpt>
      <trkpt lat="46.50801" lon="2.61084">
        <ele>180.8</ele>
        <time>2020-07-12T06:40:18Z</time>
      </trkpt>
      <trkpt lat="46.50809" lon="2.61086">
        <ele>180.3</ele>
        <time>2020-07-12T06:40:20Z</time>
      </trkpt>
      <trkpt lat="46.50818" lon="2.61089">
        <ele>180.3</ele>
        <time>2020-07-12T06:40:22Z</time>
      </trkpt>
      <trkpt lat="46.50825" lon="2.61095">
        <ele>180.7</ele>
        <time>2020-07-12T06:40:24Z</time>
      </trkpt>
      <trkpt lat="46.50832" lon="2.61102">
        <ele>180.6</ele>
        <time>2020-07-12T06:40:26Z</time>
      </trkpt>
      <trkpt lat="46.50848" lon="2.6111">
        <ele>181</ele>
        <time>2020-07-12T06:40:30Z</time>
      </trkpt>
      <trkpt lat="46.50855" lon="2.6111">
        <ele>181.6</ele>
        <time>2020-07-12T06:40:32Z</time>
      </trkpt>
      <trkpt lat="46.50864" lon="2.6111">
        <ele>181.4</ele>
        <time>2020-07-12T06:40:34Z</time>
      </trkpt>
      <trkpt lat="46.50869" lon="2.61108">
        <ele>181.3</ele>
        <time>2020-07-12T06:40:35Z</time>
      </trkpt>
      <trkpt lat="46.50873" lon="2.61107">
        <ele>181.2</ele>
        <time>2020-07-12T06:40:36Z</time>
      </trkpt>
      <trkpt lat="46.50878" lon="2.61107">
        <ele>181.1</ele>
        <time>2020-07-12T06:40:37Z</time>
      </trkpt>
      <trkpt lat="46.50883" lon="2.61107">
        <ele>181</ele>
        <time>2020-07-12T06:40:38Z</time>
      </trkpt>
      <trkpt lat="46.50888" lon="2.61108">
        <ele>180.9</ele>
        <time>2020-07-12T06:40:39Z</time>
      </trkpt>
      <trkpt lat="46.50893" lon="2.6111">
        <ele>180.8</ele>
        <time>2020-07-12T06:40:40Z</time>
      </trkpt>
      <trkpt lat="46.50898" lon="2.61112">
        <ele>180.9</ele>
        <time>2020-07-12T06:40:41Z</time>
      </trkpt>
      <trkpt lat="46.50903" lon="2.61114">
        <ele>180.9</ele>
        <time>2020-07-12T06:40:42Z</time>
      </trkpt>
      <trkpt lat="46.50907" lon="2.61117">
        <ele>180.9</ele>
        <time>2020-07-12T06:40:43Z</time>
      </trkpt>
      <trkpt lat="46.50912" lon="2.61119">
        <ele>181.2</ele>
        <time>2020-07-12T06:40:44Z</time>
      </trkpt>
      <trkpt lat="46.50917" lon="2.61121">
        <ele>181.3</ele>
        <time>2020-07-12T06:40:45Z</time>
      </trkpt>
      <trkpt lat="46.50921" lon="2.61123">
        <ele>181.5</ele>
        <time>2020-07-12T06:40:46Z</time>
      </trkpt>
      <trkpt lat="46.50926" lon="2.61125">
        <ele>181.6</ele>
        <time>2020-07-12T06:40:47Z</time>
      </trkpt>
      <trkpt lat="46.50931" lon="2.61127">
        <ele>181.2</ele>
        <time>2020-07-12T06:40:48Z</time>
      </trkpt>
      <trkpt lat="46.50935" lon="2.61128">
        <ele>181</ele>
        <time>2020-07-12T06:40:49Z</time>
      </trkpt>
      <trkpt lat="46.5094" lon="2.6113">
        <ele>180.8</ele>
        <time>2020-07-12T06:40:50Z</time>
      </trkpt>
      <trkpt lat="46.50944" lon="2.61132">
        <ele>180.3</ele>
        <time>2020-07-12T06:40:51Z</time>
      </trkpt>
      <trkpt lat="46.50949" lon="2.61133">
        <ele>180</ele>
        <time>2020-07-12T06:40:52Z</time>
      </trkpt>
      <trkpt lat="46.50953" lon="2.61135">
        <ele>179.9</ele>
        <time>2020-07-12T06:40:53Z</time>
      </trkpt>
      <trkpt lat="46.50958" lon="2.61137">
        <ele>179.8</ele>
        <time>2020-07-12T06:40:54Z</time>
      </trkpt>
      <trkpt lat="46.50962" lon="2.61138">
        <ele>179.8</ele>
        <time>2020-07-12T06:40:55Z</time>
      </trkpt>
      <trkpt lat="46.50967" lon="2.6114">
        <ele>179.7</ele>
        <time>2020-07-12T06:40:56Z</time>
      </trkpt>
      <trkpt lat="46.50971" lon="2.61141">
        <ele>179.7</ele>
        <time>2020-07-12T06:40:57Z</time>
      </trkpt>
      <trkpt lat="46.50976" lon="2.61143">
        <ele>180.1</ele>
        <time>2020-07-12T06:40:58Z</time>
      </trkpt>
      <trkpt lat="46.5098" lon="2.61145">
        <ele>180.4</ele>
        <time>2020-07-12T06:40:59Z</time>
      </trkpt>
      <trkpt lat="46.50989" lon="2.61148">
        <ele>180.1</ele>
        <time>2020-07-12T06:41:01Z</time>
      </trkpt>
      <trkpt lat="46.50993" lon="2.6115">
        <ele>180</ele>
        <time>2020-07-12T06:41:02Z</time>
      </trkpt>
      <trkpt lat="46.50997" lon="2.61151">
        <ele>180.7</ele>
        <time>2020-07-12T06:41:03Z</time>
      </trkpt>
      <trkpt lat="46.51002" lon="2.61153">
        <ele>181.2</ele>
        <time>2020-07-12T06:41:04Z</time>
      </trkpt>
      <trkpt lat="46.51007" lon="2.61155">
        <ele>181.2</ele>
        <time>2020-07-12T06:41:05Z</time>
      </trkpt>
      <trkpt lat="46.51011" lon="2.61156">
        <ele>181.2</ele>
        <time>2020-07-12T06:41:06Z</time>
      </trkpt>
      <trkpt lat="46.51016" lon="2.61158">
        <ele>180.8</ele>
        <time>2020-07-12T06:41:07Z</time>
      </trkpt>
      <trkpt lat="46.51021" lon="2.6116">
        <ele>180.4</ele>
        <time>2020-07-12T06:41:08Z</time>
      </trkpt>
      <trkpt lat="46.51025" lon="2.61161">
        <ele>180.2</ele>
        <time>2020-07-12T06:41:09Z</time>
      </trkpt>
      <trkpt lat="46.5103" lon="2.61163">
        <ele>180</ele>
        <time>2020-07-12T06:41:10Z</time>
      </trkpt>
      <trkpt lat="46.51034" lon="2.61165">
        <ele>179.9</ele>
        <time>2020-07-12T06:41:11Z</time>
      </trkpt>
      <trkpt lat="46.51039" lon="2.61166">
        <ele>180.1</ele>
        <time>2020-07-12T06:41:12Z</time>
      </trkpt>
      <trkpt lat="46.51043" lon="2.61168">
        <ele>180.2</ele>
        <time>2020-07-12T06:41:13Z</time>
      </trkpt>
      <trkpt lat="46.51048" lon="2.6117">
        <ele>180.2</ele>
        <time>2020-07-12T06:41:14Z</time>
      </trkpt>
      <trkpt lat="46.51056" lon="2.61173">
        <ele>180.2</ele>
        <time>2020-07-12T06:41:16Z</time>
      </trkpt>
      <trkpt lat="46.51061" lon="2.61175">
        <ele>180.2</ele>
        <time>2020-07-12T06:41:17Z</time>
      </trkpt>
      <trkpt lat="46.51065" lon="2.61177">
        <ele>180.2</ele>
        <time>2020-07-12T06:41:18Z</time>
      </trkpt>
      <trkpt lat="46.5107" lon="2.61178">
        <ele>180.2</ele>
        <time>2020-07-12T06:41:19Z</time>
      </trkpt>
      <trkpt lat="46.51074" lon="2.6118">
        <ele>180.2</ele>
        <time>2020-07-12T06:41:20Z</time>
      </trkpt>
      <trkpt lat="46.51079" lon="2.61182">
        <ele>180.2</ele>
        <time>2020-07-12T06:41:21Z</time>
      </trkpt>
      <trkpt lat="46.51084" lon="2.61183">
        <ele>180.3</ele>
        <time>2020-07-12T06:41:22Z</time>
      </trkpt>
      <trkpt lat="46.51088" lon="2.61185">
        <ele>180.4</ele>
        <time>2020-07-12T06:41:23Z</time>
      </trkpt>
      <trkpt lat="46.51093" lon="2.61187">
        <ele>180.7</ele>
        <time>2020-07-12T06:41:24Z</time>
      </trkpt>
      <trkpt lat="46.51098" lon="2.61189">
        <ele>180.9</ele>
        <time>2020-07-12T06:41:25Z</time>
      </trkpt>
      <trkpt lat="46.51103" lon="2.61191">
        <ele>180.9</ele>
        <time>2020-07-12T06:41:26Z</time>
      </trkpt>
      <trkpt lat="46.51107" lon="2.61193">
        <ele>180.9</ele>
        <time>2020-07-12T06:41:27Z</time>
      </trkpt>
      <trkpt lat="46.51112" lon="2.61195">
        <ele>180.9</ele>
        <time>2020-07-12T06:41:28Z</time>
      </trkpt>
      <trkpt lat="46.51116" lon="2.61197">
        <ele>180.6</ele>
        <time>2020-07-12T06:41:29Z</time>
      </trkpt>
      <trkpt lat="46.51121" lon="2.61198">
        <ele>180.4</ele>
        <time>2020-07-12T06:41:30Z</time>
      </trkpt>
      <trkpt lat="46.51126" lon="2.612">
        <ele>180.5</ele>
        <time>2020-07-12T06:41:31Z</time>
      </trkpt>
      <trkpt lat="46.51131" lon="2.61202">
        <ele>180.5</ele>
        <time>2020-07-12T06:41:32Z</time>
      </trkpt>
      <trkpt lat="46.51136" lon="2.61204">
        <ele>180.5</ele>
        <time>2020-07-12T06:41:33Z</time>
      </trkpt>
      <trkpt lat="46.5114" lon="2.61205">
        <ele>180.8</ele>
        <time>2020-07-12T06:41:34Z</time>
      </trkpt>
      <trkpt lat="46.51145" lon="2.61207">
        <ele>181</ele>
        <time>2020-07-12T06:41:35Z</time>
      </trkpt>
      <trkpt lat="46.51149" lon="2.61209">
        <ele>180.7</ele>
        <time>2020-07-12T06:41:36Z</time>
      </trkpt>
      <trkpt lat="46.51154" lon="2.6121">
        <ele>180.4</ele>
        <time>2020-07-12T06:41:37Z</time>
      </trkpt>
      <trkpt lat="46.51159" lon="2.61212">
        <ele>180.4</ele>
        <time>2020-07-12T06:41:38Z</time>
      </trkpt>
      <trkpt lat="46.51164" lon="2.61214">
        <ele>180.4</ele>
        <time>2020-07-12T06:41:39Z</time>
      </trkpt>
      <trkpt lat="46.51169" lon="2.61215">
        <ele>180.4</ele>
        <time>2020-07-12T06:41:40Z</time>
      </trkpt>
      <trkpt lat="46.51174" lon="2.61217">
        <ele>180.2</ele>
        <time>2020-07-12T06:41:41Z</time>
      </trkpt>
      <trkpt lat="46.51179" lon="2.61219">
        <ele>180.1</ele>
        <time>2020-07-12T06:41:42Z</time>
      </trkpt>
      <trkpt lat="46.51183" lon="2.61221">
        <ele>180.3</ele>
        <time>2020-07-12T06:41:43Z</time>
      </trkpt>
      <trkpt lat="46.51188" lon="2.61223">
        <ele>180.5</ele>
        <time>2020-07-12T06:41:44Z</time>
      </trkpt>
      <trkpt lat="46.51193" lon="2.61225">
        <ele>180.5</ele>
        <time>2020-07-12T06:41:45Z</time>
      </trkpt>
      <trkpt lat="46.51198" lon="2.61226">
        <ele>180.4</ele>
        <time>2020-07-12T06:41:46Z</time>
      </trkpt>
      <trkpt lat="46.51202" lon="2.61228">
        <ele>180.4</ele>
        <time>2020-07-12T06:41:47Z</time>
      </trkpt>
      <trkpt lat="46.51207" lon="2.6123">
        <ele>180.7</ele>
        <time>2020-07-12T06:41:48Z</time>
      </trkpt>
      <trkpt lat="46.51213" lon="2.61231">
        <ele>181</ele>
        <time>2020-07-12T06:41:49Z</time>
      </trkpt>
      <trkpt lat="46.51217" lon="2.61233">
        <ele>180.9</ele>
        <time>2020-07-12T06:41:50Z</time>
      </trkpt>
      <trkpt lat="46.51222" lon="2.61235">
        <ele>180.8</ele>
        <time>2020-07-12T06:41:51Z</time>
      </trkpt>
      <trkpt lat="46.51227" lon="2.61237">
        <ele>180.8</ele>
        <time>2020-07-12T06:41:52Z</time>
      </trkpt>
      <trkpt lat="46.51232" lon="2.61239">
        <ele>180.7</ele>
        <time>2020-07-12T06:41:53Z</time>
      </trkpt>
      <trkpt lat="46.51238" lon="2.6124">
        <ele>180.6</ele>
        <time>2020-07-12T06:41:54Z</time>
      </trkpt>
      <trkpt lat="46.51243" lon="2.61242">
        <ele>180.8</ele>
        <time>2020-07-12T06:41:55Z</time>
      </trkpt>
      <trkpt lat="46.51248" lon="2.61244">
        <ele>181</ele>
        <time>2020-07-12T06:41:56Z</time>
      </trkpt>
      <trkpt lat="46.51253" lon="2.61245">
        <ele>181.1</ele>
        <time>2020-07-12T06:41:57Z</time>
      </trkpt>
      <trkpt lat="46.51258" lon="2.61247">
        <ele>181.2</ele>
        <time>2020-07-12T06:41:58Z</time>
      </trkpt>
      <trkpt lat="46.51263" lon="2.61249">
        <ele>181.3</ele>
        <time>2020-07-12T06:41:59Z</time>
      </trkpt>
      <trkpt lat="46.51268" lon="2.61251">
        <ele>181.1</ele>
        <time>2020-07-12T06:42:00Z</time>
      </trkpt>
      <trkpt lat="46.51273" lon="2.61252">
        <ele>181</ele>
        <time>2020-07-12T06:42:01Z</time>
      </trkpt>
      <trkpt lat="46.51278" lon="2.61254">
        <ele>180.6</ele>
        <time>2020-07-12T06:42:02Z</time>
      </trkpt>
      <trkpt lat="46.51283" lon="2.61256">
        <ele>180.4</ele>
        <time>2020-07-12T06:42:03Z</time>
      </trkpt>
      <trkpt lat="46.51288" lon="2.61258">
        <ele>180.2</ele>
        <time>2020-07-12T06:42:04Z</time>
      </trkpt>
      <trkpt lat="46.51293" lon="2.6126">
        <ele>180.2</ele>
        <time>2020-07-12T06:42:05Z</time>
      </trkpt>
      <trkpt lat="46.51298" lon="2.61261">
        <ele>180.1</ele>
        <time>2020-07-12T06:42:06Z</time>
      </trkpt>
      <trkpt lat="46.51303" lon="2.61263">
        <ele>180.4</ele>
        <time>2020-07-12T06:42:07Z</time>
      </trkpt>
      <trkpt lat="46.51308" lon="2.61265">
        <ele>180.6</ele>
        <time>2020-07-12T06:42:08Z</time>
      </trkpt>
      <trkpt lat="46.51313" lon="2.61266">
        <ele>180.4</ele>
        <time>2020-07-12T06:42:09Z</time>
      </trkpt>
      <trkpt lat="46.51317" lon="2.61268">
        <ele>180.2</ele>
        <time>2020-07-12T06:42:10Z</time>
      </trkpt>
      <trkpt lat="46.51322" lon="2.6127">
        <ele>180</ele>
        <time>2020-07-12T06:42:11Z</time>
      </trkpt>
      <trkpt lat="46.51327" lon="2.61272">
        <ele>180.1</ele>
        <time>2020-07-12T06:42:12Z</time>
      </trkpt>
      <trkpt lat="46.51332" lon="2.61273">
        <ele>180.2</ele>
        <time>2020-07-12T06:42:13Z</time>
      </trkpt>
      <trkpt lat="46.51337" lon="2.61275">
        <ele>180.4</ele>
        <time>2020-07-12T06:42:14Z</time>
      </trkpt>
      <trkpt lat="46.51342" lon="2.61277">
        <ele>180.5</ele>
        <time>2020-07-12T06:42:15Z</time>
      </trkpt>
      <trkpt lat="46.51347" lon="2.61278">
        <ele>180.3</ele>
        <time>2020-07-12T06:42:16Z</time>
      </trkpt>
      <trkpt lat="46.51352" lon="2.6128">
        <ele>180.2</ele>
        <time>2020-07-12T06:42:17Z</time>
      </trkpt>
      <trkpt lat="46.51357" lon="2.61281">
        <ele>180.1</ele>
        <time>2020-07-12T06:42:18Z</time>
      </trkpt>
      <trkpt lat="46.51362" lon="2.61283">
        <ele>180.2</ele>
        <time>2020-07-12T06:42:19Z</time>
      </trkpt>
      <trkpt lat="46.51367" lon="2.61284">
        <ele>180.4</ele>
        <time>2020-07-12T06:42:20Z</time>
      </trkpt>
      <trkpt lat="46.51372" lon="2.61286">
        <ele>180.5</ele>
        <time>2020-07-12T06:42:21Z</time>
      </trkpt>
      <trkpt lat="46.51377" lon="2.61288">
        <ele>180.6</ele>
        <time>2020-07-12T06:42:22Z</time>
      </trkpt>
      <trkpt lat="46.51381" lon="2.6129">
        <ele>180.3</ele>
        <time>2020-07-12T06:42:23Z</time>
      </trkpt>
      <trkpt lat="46.51386" lon="2.61291">
        <ele>180.1</ele>
        <time>2020-07-12T06:42:24Z</time>
      </trkpt>
      <trkpt lat="46.51391" lon="2.61293">
        <ele>180</ele>
        <time>2020-07-12T06:42:25Z</time>
      </trkpt>
      <trkpt lat="46.51395" lon="2.61295">
        <ele>180</ele>
        <time>2020-07-12T06:42:26Z</time>
      </trkpt>
      <trkpt lat="46.51399" lon="2.61297">
        <ele>180.1</ele>
        <time>2020-07-12T06:42:27Z</time>
      </trkpt>
      <trkpt lat="46.51404" lon="2.61298">
        <ele>179.8</ele>
        <time>2020-07-12T06:42:28Z</time>
      </trkpt>
      <trkpt lat="46.51409" lon="2.613">
        <ele>179.5</ele>
        <time>2020-07-12T06:42:29Z</time>
      </trkpt>
      <trkpt lat="46.51413" lon="2.61302">
        <ele>179.4</ele>
        <time>2020-07-12T06:42:30Z</time>
      </trkpt>
      <trkpt lat="46.51418" lon="2.61303">
        <ele>179.8</ele>
        <time>2020-07-12T06:42:31Z</time>
      </trkpt>
      <trkpt lat="46.51423" lon="2.61305">
        <ele>180.1</ele>
        <time>2020-07-12T06:42:32Z</time>
      </trkpt>
      <trkpt lat="46.51427" lon="2.61307">
        <ele>180.1</ele>
        <time>2020-07-12T06:42:33Z</time>
      </trkpt>
      <trkpt lat="46.51432" lon="2.61308">
        <ele>180.1</ele>
        <time>2020-07-12T06:42:34Z</time>
      </trkpt>
      <trkpt lat="46.51437" lon="2.6131">
        <ele>180.2</ele>
        <time>2020-07-12T06:42:35Z</time>
      </trkpt>
      <trkpt lat="46.51441" lon="2.61312">
        <ele>180.3</ele>
        <time>2020-07-12T06:42:36Z</time>
      </trkpt>
      <trkpt lat="46.51446" lon="2.61313">
        <ele>180.3</ele>
        <time>2020-07-12T06:42:37Z</time>
      </trkpt>
      <trkpt lat="46.51451" lon="2.61315">
        <ele>180.2</ele>
        <time>2020-07-12T06:42:38Z</time>
      </trkpt>
      <trkpt lat="46.51455" lon="2.61316">
        <ele>180</ele>
        <time>2020-07-12T06:42:39Z</time>
      </trkpt>
      <trkpt lat="46.5146" lon="2.61318">
        <ele>180</ele>
        <time>2020-07-12T06:42:40Z</time>
      </trkpt>
      <trkpt lat="46.51465" lon="2.6132">
        <ele>180</ele>
        <time>2020-07-12T06:42:41Z</time>
      </trkpt>
      <trkpt lat="46.51469" lon="2.61321">
        <ele>179.8</ele>
        <time>2020-07-12T06:42:42Z</time>
      </trkpt>
      <trkpt lat="46.51474" lon="2.61323">
        <ele>179.6</ele>
        <time>2020-07-12T06:42:43Z</time>
      </trkpt>
      <trkpt lat="46.51479" lon="2.61325">
        <ele>179.4</ele>
        <time>2020-07-12T06:42:44Z</time>
      </trkpt>
      <trkpt lat="46.51484" lon="2.61326">
        <ele>179.8</ele>
        <time>2020-07-12T06:42:45Z</time>
      </trkpt>
      <trkpt lat="46.51488" lon="2.61328">
        <ele>180.1</ele>
        <time>2020-07-12T06:42:46Z</time>
      </trkpt>
      <trkpt lat="46.51496" lon="2.61331">
        <ele>180.1</ele>
        <time>2020-07-12T06:42:48Z</time>
      </trkpt>
      <trkpt lat="46.51504" lon="2.61333">
        <ele>179.9</ele>
        <time>2020-07-12T06:42:50Z</time>
      </trkpt>
      <trkpt lat="46.5151" lon="2.61335">
        <ele>179.8</ele>
        <time>2020-07-12T06:42:52Z</time>
      </trkpt>
      <trkpt lat="46.51518" lon="2.61337">
        <ele>179.9</ele>
        <time>2020-07-12T06:42:54Z</time>
      </trkpt>
      <trkpt lat="46.51526" lon="2.61342">
        <ele>180.1</ele>
        <time>2020-07-12T06:42:57Z</time>
      </trkpt>
      <trkpt lat="46.51531" lon="2.61345">
        <ele>180.3</ele>
        <time>2020-07-12T06:42:59Z</time>
      </trkpt>
      <trkpt lat="46.51539" lon="2.61347">
        <ele>180.4</ele>
        <time>2020-07-12T06:43:01Z</time>
      </trkpt>
      <trkpt lat="46.51546" lon="2.6135">
        <ele>180.5</ele>
        <time>2020-07-12T06:43:03Z</time>
      </trkpt>
      <trkpt lat="46.51554" lon="2.61353">
        <ele>180</ele>
        <time>2020-07-12T06:43:05Z</time>
      </trkpt>
      <trkpt lat="46.51559" lon="2.61355">
        <ele>180.1</ele>
        <time>2020-07-12T06:43:06Z</time>
      </trkpt>
      <trkpt lat="46.51566" lon="2.61368">
        <ele>180</ele>
        <time>2020-07-12T06:43:10Z</time>
      </trkpt>
      <trkpt lat="46.5157" lon="2.6138">
        <ele>180.2</ele>
        <time>2020-07-12T06:43:13Z</time>
      </trkpt>
      <trkpt lat="46.51577" lon="2.61383">
        <ele>180.1</ele>
        <time>2020-07-12T06:43:15Z</time>
      </trkpt>
      <trkpt lat="46.51584" lon="2.61388">
        <ele>180.1</ele>
        <time>2020-07-12T06:43:17Z</time>
      </trkpt>
      <trkpt lat="46.51592" lon="2.61391">
        <ele>179.6</ele>
        <time>2020-07-12T06:43:19Z</time>
      </trkpt>
      <trkpt lat="46.51597" lon="2.61393">
        <ele>179.7</ele>
        <time>2020-07-12T06:43:20Z</time>
      </trkpt>
      <trkpt lat="46.51601" lon="2.61394">
        <ele>179.8</ele>
        <time>2020-07-12T06:43:21Z</time>
      </trkpt>
      <trkpt lat="46.51606" lon="2.61396">
        <ele>179.9</ele>
        <time>2020-07-12T06:43:22Z</time>
      </trkpt>
      <trkpt lat="46.51611" lon="2.61398">
        <ele>179.9</ele>
        <time>2020-07-12T06:43:23Z</time>
      </trkpt>
      <trkpt lat="46.51615" lon="2.61399">
        <ele>179.9</ele>
        <time>2020-07-12T06:43:24Z</time>
      </trkpt>
      <trkpt lat="46.5162" lon="2.61401">
        <ele>179.7</ele>
        <time>2020-07-12T06:43:25Z</time>
      </trkpt>
      <trkpt lat="46.51624" lon="2.61402">
        <ele>179.6</ele>
        <time>2020-07-12T06:43:26Z</time>
      </trkpt>
      <trkpt lat="46.51629" lon="2.61404">
        <ele>179.4</ele>
        <time>2020-07-12T06:43:27Z</time>
      </trkpt>
      <trkpt lat="46.51633" lon="2.61405">
        <ele>179.4</ele>
        <time>2020-07-12T06:43:28Z</time>
      </trkpt>
      <trkpt lat="46.51638" lon="2.61407">
        <ele>179.4</ele>
        <time>2020-07-12T06:43:29Z</time>
      </trkpt>
      <trkpt lat="46.51642" lon="2.61408">
        <ele>179</ele>
        <time>2020-07-12T06:43:30Z</time>
      </trkpt>
      <trkpt lat="46.51647" lon="2.6141">
        <ele>178.8</ele>
        <time>2020-07-12T06:43:31Z</time>
      </trkpt>
      <trkpt lat="46.51652" lon="2.61412">
        <ele>179.1</ele>
        <time>2020-07-12T06:43:32Z</time>
      </trkpt>
      <trkpt lat="46.51656" lon="2.61413">
        <ele>179.4</ele>
        <time>2020-07-12T06:43:33Z</time>
      </trkpt>
      <trkpt lat="46.51661" lon="2.61415">
        <ele>179.5</ele>
        <time>2020-07-12T06:43:34Z</time>
      </trkpt>
      <trkpt lat="46.51665" lon="2.61417">
        <ele>179.3</ele>
        <time>2020-07-12T06:43:35Z</time>
      </trkpt>
      <trkpt lat="46.5167" lon="2.61418">
        <ele>179.1</ele>
        <time>2020-07-12T06:43:36Z</time>
      </trkpt>
      <trkpt lat="46.51674" lon="2.6142">
        <ele>178.8</ele>
        <time>2020-07-12T06:43:37Z</time>
      </trkpt>
      <trkpt lat="46.51679" lon="2.61421">
        <ele>178.6</ele>
        <time>2020-07-12T06:43:38Z</time>
      </trkpt>
      <trkpt lat="46.51684" lon="2.61423">
        <ele>178.8</ele>
        <time>2020-07-12T06:43:39Z</time>
      </trkpt>
      <trkpt lat="46.51688" lon="2.61424">
        <ele>178.8</ele>
        <time>2020-07-12T06:43:40Z</time>
      </trkpt>
      <trkpt lat="46.51693" lon="2.61425">
        <ele>178.9</ele>
        <time>2020-07-12T06:43:41Z</time>
      </trkpt>
      <trkpt lat="46.51697" lon="2.61427">
        <ele>179</ele>
        <time>2020-07-12T06:43:42Z</time>
      </trkpt>
      <trkpt lat="46.51702" lon="2.61429">
        <ele>179</ele>
        <time>2020-07-12T06:43:43Z</time>
      </trkpt>
      <trkpt lat="46.51706" lon="2.6143">
        <ele>178.9</ele>
        <time>2020-07-12T06:43:44Z</time>
      </trkpt>
      <trkpt lat="46.51711" lon="2.61432">
        <ele>178.8</ele>
        <time>2020-07-12T06:43:45Z</time>
      </trkpt>
      <trkpt lat="46.51715" lon="2.61434">
        <ele>178.4</ele>
        <time>2020-07-12T06:43:46Z</time>
      </trkpt>
      <trkpt lat="46.5172" lon="2.61435">
        <ele>178.2</ele>
        <time>2020-07-12T06:43:47Z</time>
      </trkpt>
      <trkpt lat="46.51725" lon="2.61437">
        <ele>177.9</ele>
        <time>2020-07-12T06:43:48Z</time>
      </trkpt>
      <trkpt lat="46.51729" lon="2.61438">
        <ele>178.2</ele>
        <time>2020-07-12T06:43:49Z</time>
      </trkpt>
      <trkpt lat="46.51734" lon="2.6144">
        <ele>178.3</ele>
        <time>2020-07-12T06:43:50Z</time>
      </trkpt>
      <trkpt lat="46.51739" lon="2.61442">
        <ele>178.4</ele>
        <time>2020-07-12T06:43:51Z</time>
      </trkpt>
      <trkpt lat="46.51743" lon="2.61443">
        <ele>178.5</ele>
        <time>2020-07-12T06:43:52Z</time>
      </trkpt>
      <trkpt lat="46.51748" lon="2.61445">
        <ele>178.5</ele>
        <time>2020-07-12T06:43:53Z</time>
      </trkpt>
      <trkpt lat="46.51753" lon="2.61446">
        <ele>178.4</ele>
        <time>2020-07-12T06:43:54Z</time>
      </trkpt>
      <trkpt lat="46.51757" lon="2.61448">
        <ele>178.2</ele>
        <time>2020-07-12T06:43:55Z</time>
      </trkpt>
      <trkpt lat="46.51761" lon="2.6145">
        <ele>178.5</ele>
        <time>2020-07-12T06:43:56Z</time>
      </trkpt>
      <trkpt lat="46.5177" lon="2.61452">
        <ele>178.8</ele>
        <time>2020-07-12T06:43:58Z</time>
      </trkpt>
      <trkpt lat="46.51778" lon="2.61455">
        <ele>178.8</ele>
        <time>2020-07-12T06:44:00Z</time>
      </trkpt>
      <trkpt lat="46.51786" lon="2.61457">
        <ele>178.5</ele>
        <time>2020-07-12T06:44:02Z</time>
      </trkpt>
      <trkpt lat="46.51795" lon="2.6146">
        <ele>179.2</ele>
        <time>2020-07-12T06:44:04Z</time>
      </trkpt>
      <trkpt lat="46.51799" lon="2.61461">
        <ele>179.4</ele>
        <time>2020-07-12T06:44:05Z</time>
      </trkpt>
      <trkpt lat="46.51804" lon="2.61463">
        <ele>179.5</ele>
        <time>2020-07-12T06:44:06Z</time>
      </trkpt>
      <trkpt lat="46.51809" lon="2.61465">
        <ele>179.5</ele>
        <time>2020-07-12T06:44:07Z</time>
      </trkpt>
      <trkpt lat="46.51813" lon="2.61467">
        <ele>179.4</ele>
        <time>2020-07-12T06:44:08Z</time>
      </trkpt>
      <trkpt lat="46.51818" lon="2.61468">
        <ele>179.2</ele>
        <time>2020-07-12T06:44:09Z</time>
      </trkpt>
      <trkpt lat="46.51823" lon="2.61469">
        <ele>179.2</ele>
        <time>2020-07-12T06:44:10Z</time>
      </trkpt>
      <trkpt lat="46.51827" lon="2.61471">
        <ele>179.2</ele>
        <time>2020-07-12T06:44:11Z</time>
      </trkpt>
      <trkpt lat="46.51832" lon="2.61472">
        <ele>179.2</ele>
        <time>2020-07-12T06:44:12Z</time>
      </trkpt>
      <trkpt lat="46.51837" lon="2.61474">
        <ele>179</ele>
        <time>2020-07-12T06:44:13Z</time>
      </trkpt>
      <trkpt lat="46.51841" lon="2.61475">
        <ele>178.9</ele>
        <time>2020-07-12T06:44:14Z</time>
      </trkpt>
      <trkpt lat="46.51846" lon="2.61477">
        <ele>179.1</ele>
        <time>2020-07-12T06:44:15Z</time>
      </trkpt>
      <trkpt lat="46.5185" lon="2.61479">
        <ele>179.2</ele>
        <time>2020-07-12T06:44:16Z</time>
      </trkpt>
      <trkpt lat="46.51855" lon="2.6148">
        <ele>179.3</ele>
        <time>2020-07-12T06:44:17Z</time>
      </trkpt>
      <trkpt lat="46.51859" lon="2.61481">
        <ele>179.4</ele>
        <time>2020-07-12T06:44:18Z</time>
      </trkpt>
      <trkpt lat="46.51864" lon="2.61483">
        <ele>179.4</ele>
        <time>2020-07-12T06:44:19Z</time>
      </trkpt>
      <trkpt lat="46.51873" lon="2.61486">
        <ele>179.2</ele>
        <time>2020-07-12T06:44:21Z</time>
      </trkpt>
      <trkpt lat="46.51877" lon="2.61488">
        <ele>179.3</ele>
        <time>2020-07-12T06:44:22Z</time>
      </trkpt>
      <trkpt lat="46.51882" lon="2.6149">
        <ele>179.3</ele>
        <time>2020-07-12T06:44:23Z</time>
      </trkpt>
      <trkpt lat="46.51886" lon="2.61492">
        <ele>179.3</ele>
        <time>2020-07-12T06:44:24Z</time>
      </trkpt>
      <trkpt lat="46.51891" lon="2.61494">
        <ele>179.2</ele>
        <time>2020-07-12T06:44:25Z</time>
      </trkpt>
      <trkpt lat="46.51896" lon="2.61495">
        <ele>179.2</ele>
        <time>2020-07-12T06:44:26Z</time>
      </trkpt>
      <trkpt lat="46.519" lon="2.61497">
        <ele>179.4</ele>
        <time>2020-07-12T06:44:27Z</time>
      </trkpt>
      <trkpt lat="46.51905" lon="2.61499">
        <ele>179.5</ele>
        <time>2020-07-12T06:44:28Z</time>
      </trkpt>
      <trkpt lat="46.5191" lon="2.615">
        <ele>179.4</ele>
        <time>2020-07-12T06:44:29Z</time>
      </trkpt>
      <trkpt lat="46.51915" lon="2.61501">
        <ele>179.4</ele>
        <time>2020-07-12T06:44:30Z</time>
      </trkpt>
      <trkpt lat="46.5192" lon="2.61503">
        <ele>179.3</ele>
        <time>2020-07-12T06:44:31Z</time>
      </trkpt>
      <trkpt lat="46.51924" lon="2.61505">
        <ele>179.2</ele>
        <time>2020-07-12T06:44:32Z</time>
      </trkpt>
      <trkpt lat="46.51929" lon="2.61507">
        <ele>179</ele>
        <time>2020-07-12T06:44:33Z</time>
      </trkpt>
      <trkpt lat="46.51934" lon="2.61509">
        <ele>179</ele>
        <time>2020-07-12T06:44:34Z</time>
      </trkpt>
      <trkpt lat="46.51939" lon="2.61511">
        <ele>178.9</ele>
        <time>2020-07-12T06:44:35Z</time>
      </trkpt>
      <trkpt lat="46.51944" lon="2.61512">
        <ele>178.7</ele>
        <time>2020-07-12T06:44:36Z</time>
      </trkpt>
      <trkpt lat="46.51949" lon="2.61514">
        <ele>178.6</ele>
        <time>2020-07-12T06:44:37Z</time>
      </trkpt>
      <trkpt lat="46.51954" lon="2.61515">
        <ele>178.5</ele>
        <time>2020-07-12T06:44:38Z</time>
      </trkpt>
      <trkpt lat="46.51958" lon="2.61517">
        <ele>178.5</ele>
        <time>2020-07-12T06:44:39Z</time>
      </trkpt>
      <trkpt lat="46.51963" lon="2.61519">
        <ele>178.5</ele>
        <time>2020-07-12T06:44:40Z</time>
      </trkpt>
      <trkpt lat="46.51968" lon="2.6152">
        <ele>178.5</ele>
        <time>2020-07-12T06:44:41Z</time>
      </trkpt>
      <trkpt lat="46.51973" lon="2.61522">
        <ele>178.5</ele>
        <time>2020-07-12T06:44:42Z</time>
      </trkpt>
      <trkpt lat="46.51978" lon="2.61524">
        <ele>178.5</ele>
        <time>2020-07-12T06:44:43Z</time>
      </trkpt>
      <trkpt lat="46.51983" lon="2.61526">
        <ele>178.6</ele>
        <time>2020-07-12T06:44:44Z</time>
      </trkpt>
      <trkpt lat="46.51988" lon="2.61527">
        <ele>178.6</ele>
        <time>2020-07-12T06:44:45Z</time>
      </trkpt>
      <trkpt lat="46.51993" lon="2.61529">
        <ele>178.2</ele>
        <time>2020-07-12T06:44:46Z</time>
      </trkpt>
      <trkpt lat="46.51998" lon="2.6153">
        <ele>177.9</ele>
        <time>2020-07-12T06:44:47Z</time>
      </trkpt>
      <trkpt lat="46.52003" lon="2.61532">
        <ele>177.9</ele>
        <time>2020-07-12T06:44:48Z</time>
      </trkpt>
      <trkpt lat="46.52008" lon="2.61533">
        <ele>177.9</ele>
        <time>2020-07-12T06:44:49Z</time>
      </trkpt>
      <trkpt lat="46.52013" lon="2.61535">
        <ele>177.9</ele>
        <time>2020-07-12T06:44:50Z</time>
      </trkpt>
      <trkpt lat="46.52018" lon="2.61537">
        <ele>178.3</ele>
        <time>2020-07-12T06:44:51Z</time>
      </trkpt>
      <trkpt lat="46.52023" lon="2.61539">
        <ele>178.6</ele>
        <time>2020-07-12T06:44:52Z</time>
      </trkpt>
      <trkpt lat="46.52027" lon="2.6154">
        <ele>178.4</ele>
        <time>2020-07-12T06:44:53Z</time>
      </trkpt>
      <trkpt lat="46.52032" lon="2.61542">
        <ele>178.2</ele>
        <time>2020-07-12T06:44:54Z</time>
      </trkpt>
      <trkpt lat="46.52037" lon="2.61544">
        <ele>178.2</ele>
        <time>2020-07-12T06:44:55Z</time>
      </trkpt>
      <trkpt lat="46.52042" lon="2.61545">
        <ele>178.2</ele>
        <time>2020-07-12T06:44:56Z</time>
      </trkpt>
      <trkpt lat="46.52047" lon="2.61547">
        <ele>178.3</ele>
        <time>2020-07-12T06:44:57Z</time>
      </trkpt>
      <trkpt lat="46.52051" lon="2.61549">
        <ele>178.2</ele>
        <time>2020-07-12T06:44:58Z</time>
      </trkpt>
      <trkpt lat="46.52056" lon="2.6155">
        <ele>178.2</ele>
        <time>2020-07-12T06:44:59Z</time>
      </trkpt>
      <trkpt lat="46.52061" lon="2.61552">
        <ele>178</ele>
        <time>2020-07-12T06:45:00Z</time>
      </trkpt>
      <trkpt lat="46.52066" lon="2.61554">
        <ele>177.9</ele>
        <time>2020-07-12T06:45:01Z</time>
      </trkpt>
      <trkpt lat="46.5207" lon="2.61556">
        <ele>178.2</ele>
        <time>2020-07-12T06:45:02Z</time>
      </trkpt>
      <trkpt lat="46.52075" lon="2.61557">
        <ele>178.5</ele>
        <time>2020-07-12T06:45:03Z</time>
      </trkpt>
      <trkpt lat="46.5208" lon="2.61559">
        <ele>178.7</ele>
        <time>2020-07-12T06:45:04Z</time>
      </trkpt>
      <trkpt lat="46.52085" lon="2.61561">
        <ele>178.7</ele>
        <time>2020-07-12T06:45:05Z</time>
      </trkpt>
      <trkpt lat="46.52089" lon="2.61563">
        <ele>178.7</ele>
        <time>2020-07-12T06:45:06Z</time>
      </trkpt>
      <trkpt lat="46.52094" lon="2.61564">
        <ele>178.4</ele>
        <time>2020-07-12T06:45:07Z</time>
      </trkpt>
      <trkpt lat="46.52099" lon="2.61565">
        <ele>178.2</ele>
        <time>2020-07-12T06:45:08Z</time>
      </trkpt>
      <trkpt lat="46.52104" lon="2.61567">
        <ele>178</ele>
        <time>2020-07-12T06:45:09Z</time>
      </trkpt>
      <trkpt lat="46.52109" lon="2.61569">
        <ele>178</ele>
        <time>2020-07-12T06:45:10Z</time>
      </trkpt>
      <trkpt lat="46.52113" lon="2.61571">
        <ele>178.1</ele>
        <time>2020-07-12T06:45:11Z</time>
      </trkpt>
      <trkpt lat="46.52118" lon="2.61572">
        <ele>178.1</ele>
        <time>2020-07-12T06:45:12Z</time>
      </trkpt>
      <trkpt lat="46.52123" lon="2.61574">
        <ele>178.1</ele>
        <time>2020-07-12T06:45:13Z</time>
      </trkpt>
      <trkpt lat="46.52128" lon="2.61575">
        <ele>177.9</ele>
        <time>2020-07-12T06:45:14Z</time>
      </trkpt>
      <trkpt lat="46.52132" lon="2.61576">
        <ele>177.7</ele>
        <time>2020-07-12T06:45:15Z</time>
      </trkpt>
      <trkpt lat="46.52137" lon="2.61578">
        <ele>177.6</ele>
        <time>2020-07-12T06:45:16Z</time>
      </trkpt>
      <trkpt lat="46.52142" lon="2.6158">
        <ele>177.3</ele>
        <time>2020-07-12T06:45:17Z</time>
      </trkpt>
      <trkpt lat="46.52147" lon="2.61581">
        <ele>177.1</ele>
        <time>2020-07-12T06:45:18Z</time>
      </trkpt>
      <trkpt lat="46.52151" lon="2.61583">
        <ele>177.3</ele>
        <time>2020-07-12T06:45:19Z</time>
      </trkpt>
      <trkpt lat="46.52156" lon="2.61584">
        <ele>177.5</ele>
        <time>2020-07-12T06:45:20Z</time>
      </trkpt>
      <trkpt lat="46.52161" lon="2.61586">
        <ele>177.5</ele>
        <time>2020-07-12T06:45:21Z</time>
      </trkpt>
      <trkpt lat="46.52165" lon="2.61587">
        <ele>177.5</ele>
        <time>2020-07-12T06:45:22Z</time>
      </trkpt>
      <trkpt lat="46.5217" lon="2.61589">
        <ele>177.5</ele>
        <time>2020-07-12T06:45:23Z</time>
      </trkpt>
      <trkpt lat="46.52175" lon="2.6159">
        <ele>177.6</ele>
        <time>2020-07-12T06:45:24Z</time>
      </trkpt>
      <trkpt lat="46.52179" lon="2.61592">
        <ele>177.6</ele>
        <time>2020-07-12T06:45:25Z</time>
      </trkpt>
      <trkpt lat="46.52184" lon="2.61594">
        <ele>177.6</ele>
        <time>2020-07-12T06:45:26Z</time>
      </trkpt>
      <trkpt lat="46.52189" lon="2.61595">
        <ele>177.6</ele>
        <time>2020-07-12T06:45:27Z</time>
      </trkpt>
      <trkpt lat="46.52194" lon="2.61597">
        <ele>177.6</ele>
        <time>2020-07-12T06:45:28Z</time>
      </trkpt>
      <trkpt lat="46.52198" lon="2.61598">
        <ele>177.7</ele>
        <time>2020-07-12T06:45:29Z</time>
      </trkpt>
      <trkpt lat="46.52203" lon="2.616">
        <ele>177.8</ele>
        <time>2020-07-12T06:45:30Z</time>
      </trkpt>
      <trkpt lat="46.52208" lon="2.61601">
        <ele>177.7</ele>
        <time>2020-07-12T06:45:31Z</time>
      </trkpt>
      <trkpt lat="46.52212" lon="2.61603">
        <ele>177.5</ele>
        <time>2020-07-12T06:45:32Z</time>
      </trkpt>
      <trkpt lat="46.52217" lon="2.61604">
        <ele>177.8</ele>
        <time>2020-07-12T06:45:33Z</time>
      </trkpt>
      <trkpt lat="46.52222" lon="2.61606">
        <ele>178</ele>
        <time>2020-07-12T06:45:34Z</time>
      </trkpt>
      <trkpt lat="46.52226" lon="2.61607">
        <ele>178.1</ele>
        <time>2020-07-12T06:45:35Z</time>
      </trkpt>
      <trkpt lat="46.52234" lon="2.6161">
        <ele>178</ele>
        <time>2020-07-12T06:45:37Z</time>
      </trkpt>
      <trkpt lat="46.52243" lon="2.61612">
        <ele>178.2</ele>
        <time>2020-07-12T06:45:39Z</time>
      </trkpt>
      <trkpt lat="46.52252" lon="2.61614">
        <ele>178.3</ele>
        <time>2020-07-12T06:45:41Z</time>
      </trkpt>
      <trkpt lat="46.52256" lon="2.61615">
        <ele>178.3</ele>
        <time>2020-07-12T06:45:42Z</time>
      </trkpt>
      <trkpt lat="46.52265" lon="2.61617">
        <ele>178.4</ele>
        <time>2020-07-12T06:45:44Z</time>
      </trkpt>
      <trkpt lat="46.5227" lon="2.61617">
        <ele>178.7</ele>
        <time>2020-07-12T06:45:45Z</time>
      </trkpt>
      <trkpt lat="46.52274" lon="2.61618">
        <ele>178.9</ele>
        <time>2020-07-12T06:45:46Z</time>
      </trkpt>
      <trkpt lat="46.52279" lon="2.61619">
        <ele>179.1</ele>
        <time>2020-07-12T06:45:47Z</time>
      </trkpt>
      <trkpt lat="46.52284" lon="2.61619">
        <ele>179</ele>
        <time>2020-07-12T06:45:48Z</time>
      </trkpt>
      <trkpt lat="46.52288" lon="2.61619">
        <ele>178.9</ele>
        <time>2020-07-12T06:45:49Z</time>
      </trkpt>
      <trkpt lat="46.52293" lon="2.61619">
        <ele>178.4</ele>
        <time>2020-07-12T06:45:50Z</time>
      </trkpt>
      <trkpt lat="46.52298" lon="2.6162">
        <ele>178.1</ele>
        <time>2020-07-12T06:45:51Z</time>
      </trkpt>
      <trkpt lat="46.52303" lon="2.6162">
        <ele>178</ele>
        <time>2020-07-12T06:45:52Z</time>
      </trkpt>
      <trkpt lat="46.52308" lon="2.6162">
        <ele>177.9</ele>
        <time>2020-07-12T06:45:53Z</time>
      </trkpt>
      <trkpt lat="46.52324" lon="2.61619">
        <ele>178</ele>
        <time>2020-07-12T06:45:56Z</time>
      </trkpt>
      <trkpt lat="46.52331" lon="2.61619">
        <ele>178.1</ele>
        <time>2020-07-12T06:45:58Z</time>
      </trkpt>
      <trkpt lat="46.52336" lon="2.61618">
        <ele>177.8</ele>
        <time>2020-07-12T06:45:59Z</time>
      </trkpt>
      <trkpt lat="46.52341" lon="2.61617">
        <ele>177.6</ele>
        <time>2020-07-12T06:46:00Z</time>
      </trkpt>
      <trkpt lat="46.52346" lon="2.61617">
        <ele>177.5</ele>
        <time>2020-07-12T06:46:01Z</time>
      </trkpt>
      <trkpt lat="46.5235" lon="2.61616">
        <ele>177.8</ele>
        <time>2020-07-12T06:46:02Z</time>
      </trkpt>
      <trkpt lat="46.52355" lon="2.61615">
        <ele>178</ele>
        <time>2020-07-12T06:46:03Z</time>
      </trkpt>
      <trkpt lat="46.5236" lon="2.61614">
        <ele>178</ele>
        <time>2020-07-12T06:46:04Z</time>
      </trkpt>
      <trkpt lat="46.52365" lon="2.61614">
        <ele>178</ele>
        <time>2020-07-12T06:46:05Z</time>
      </trkpt>
      <trkpt lat="46.5237" lon="2.61613">
        <ele>178</ele>
        <time>2020-07-12T06:46:06Z</time>
      </trkpt>
      <trkpt lat="46.52374" lon="2.61611">
        <ele>178.5</ele>
        <time>2020-07-12T06:46:07Z</time>
      </trkpt>
      <trkpt lat="46.52379" lon="2.6161">
        <ele>178.9</ele>
        <time>2020-07-12T06:46:08Z</time>
      </trkpt>
      <trkpt lat="46.52384" lon="2.61609">
        <ele>178.5</ele>
        <time>2020-07-12T06:46:09Z</time>
      </trkpt>
      <trkpt lat="46.52389" lon="2.61607">
        <ele>178.3</ele>
        <time>2020-07-12T06:46:10Z</time>
      </trkpt>
      <trkpt lat="46.52394" lon="2.61606">
        <ele>178.5</ele>
        <time>2020-07-12T06:46:11Z</time>
      </trkpt>
      <trkpt lat="46.52398" lon="2.61605">
        <ele>178.6</ele>
        <time>2020-07-12T06:46:12Z</time>
      </trkpt>
      <trkpt lat="46.52403" lon="2.61603">
        <ele>178.7</ele>
        <time>2020-07-12T06:46:13Z</time>
      </trkpt>
      <trkpt lat="46.52408" lon="2.61602">
        <ele>178.6</ele>
        <time>2020-07-12T06:46:14Z</time>
      </trkpt>
      <trkpt lat="46.52413" lon="2.616">
        <ele>178.5</ele>
        <time>2020-07-12T06:46:15Z</time>
      </trkpt>
      <trkpt lat="46.52418" lon="2.61599">
        <ele>178</ele>
        <time>2020-07-12T06:46:16Z</time>
      </trkpt>
      <trkpt lat="46.52422" lon="2.61597">
        <ele>177.6</ele>
        <time>2020-07-12T06:46:17Z</time>
      </trkpt>
      <trkpt lat="46.52427" lon="2.61595">
        <ele>177.8</ele>
        <time>2020-07-12T06:46:18Z</time>
      </trkpt>
      <trkpt lat="46.52432" lon="2.61593">
        <ele>178</ele>
        <time>2020-07-12T06:46:19Z</time>
      </trkpt>
      <trkpt lat="46.52436" lon="2.6159">
        <ele>178.1</ele>
        <time>2020-07-12T06:46:20Z</time>
      </trkpt>
      <trkpt lat="46.52441" lon="2.61588">
        <ele>178.2</ele>
        <time>2020-07-12T06:46:21Z</time>
      </trkpt>
      <trkpt lat="46.52445" lon="2.61586">
        <ele>178.3</ele>
        <time>2020-07-12T06:46:22Z</time>
      </trkpt>
      <trkpt lat="46.5245" lon="2.61584">
        <ele>178.3</ele>
        <time>2020-07-12T06:46:23Z</time>
      </trkpt>
      <trkpt lat="46.52454" lon="2.61581">
        <ele>178.2</ele>
        <time>2020-07-12T06:46:24Z</time>
      </trkpt>
      <trkpt lat="46.52459" lon="2.61579">
        <ele>178.2</ele>
        <time>2020-07-12T06:46:25Z</time>
      </trkpt>
      <trkpt lat="46.52464" lon="2.61576">
        <ele>178.2</ele>
        <time>2020-07-12T06:46:26Z</time>
      </trkpt>
      <trkpt lat="46.52468" lon="2.61574">
        <ele>178.2</ele>
        <time>2020-07-12T06:46:27Z</time>
      </trkpt>
      <trkpt lat="46.52472" lon="2.61571">
        <ele>178.6</ele>
        <time>2020-07-12T06:46:28Z</time>
      </trkpt>
      <trkpt lat="46.52477" lon="2.61568">
        <ele>178.9</ele>
        <time>2020-07-12T06:46:29Z</time>
      </trkpt>
      <trkpt lat="46.52481" lon="2.61565">
        <ele>178.5</ele>
        <time>2020-07-12T06:46:30Z</time>
      </trkpt>
      <trkpt lat="46.52489" lon="2.6156">
        <ele>178</ele>
        <time>2020-07-12T06:46:32Z</time>
      </trkpt>
      <trkpt lat="46.52493" lon="2.61557">
        <ele>178.2</ele>
        <time>2020-07-12T06:46:33Z</time>
      </trkpt>
      <trkpt lat="46.52497" lon="2.61553">
        <ele>178.3</ele>
        <time>2020-07-12T06:46:34Z</time>
      </trkpt>
      <trkpt lat="46.52501" lon="2.6155">
        <ele>178.4</ele>
        <time>2020-07-12T06:46:35Z</time>
      </trkpt>
      <trkpt lat="46.52505" lon="2.61547">
        <ele>178.5</ele>
        <time>2020-07-12T06:46:36Z</time>
      </trkpt>
      <trkpt lat="46.52509" lon="2.61544">
        <ele>178</ele>
        <time>2020-07-12T06:46:37Z</time>
      </trkpt>
      <trkpt lat="46.52514" lon="2.61541">
        <ele>177.6</ele>
        <time>2020-07-12T06:46:38Z</time>
      </trkpt>
      <trkpt lat="46.52518" lon="2.61538">
        <ele>177.3</ele>
        <time>2020-07-12T06:46:39Z</time>
      </trkpt>
      <trkpt lat="46.52522" lon="2.61534">
        <ele>177.4</ele>
        <time>2020-07-12T06:46:40Z</time>
      </trkpt>
      <trkpt lat="46.52527" lon="2.6153">
        <ele>177.6</ele>
        <time>2020-07-12T06:46:41Z</time>
      </trkpt>
      <trkpt lat="46.52531" lon="2.61527">
        <ele>177.4</ele>
        <time>2020-07-12T06:46:42Z</time>
      </trkpt>
      <trkpt lat="46.52535" lon="2.61523">
        <ele>177.3</ele>
        <time>2020-07-12T06:46:43Z</time>
      </trkpt>
      <trkpt lat="46.52539" lon="2.61519">
        <ele>177.2</ele>
        <time>2020-07-12T06:46:44Z</time>
      </trkpt>
      <trkpt lat="46.52544" lon="2.61516">
        <ele>177.2</ele>
        <time>2020-07-12T06:46:45Z</time>
      </trkpt>
      <trkpt lat="46.52548" lon="2.61512">
        <ele>177.1</ele>
        <time>2020-07-12T06:46:46Z</time>
      </trkpt>
      <trkpt lat="46.52552" lon="2.61508">
        <ele>177.2</ele>
        <time>2020-07-12T06:46:47Z</time>
      </trkpt>
      <trkpt lat="46.52557" lon="2.61504">
        <ele>177.3</ele>
        <time>2020-07-12T06:46:48Z</time>
      </trkpt>
      <trkpt lat="46.52561" lon="2.615">
        <ele>177.3</ele>
        <time>2020-07-12T06:46:49Z</time>
      </trkpt>
      <trkpt lat="46.52566" lon="2.61497">
        <ele>177.3</ele>
        <time>2020-07-12T06:46:50Z</time>
      </trkpt>
      <trkpt lat="46.5257" lon="2.61493">
        <ele>177.3</ele>
        <time>2020-07-12T06:46:51Z</time>
      </trkpt>
      <trkpt lat="46.52575" lon="2.61489">
        <ele>177.3</ele>
        <time>2020-07-12T06:46:52Z</time>
      </trkpt>
      <trkpt lat="46.52579" lon="2.61485">
        <ele>177.4</ele>
        <time>2020-07-12T06:46:53Z</time>
      </trkpt>
      <trkpt lat="46.52584" lon="2.61481">
        <ele>177.6</ele>
        <time>2020-07-12T06:46:54Z</time>
      </trkpt>
      <trkpt lat="46.52589" lon="2.61477">
        <ele>177.7</ele>
        <time>2020-07-12T06:46:55Z</time>
      </trkpt>
      <trkpt lat="46.52593" lon="2.61473">
        <ele>178</ele>
        <time>2020-07-12T06:46:56Z</time>
      </trkpt>
      <trkpt lat="46.52598" lon="2.61469">
        <ele>178.2</ele>
        <time>2020-07-12T06:46:57Z</time>
      </trkpt>
      <trkpt lat="46.52602" lon="2.61465">
        <ele>178.3</ele>
        <time>2020-07-12T06:46:58Z</time>
      </trkpt>
      <trkpt lat="46.52607" lon="2.61461">
        <ele>177.7</ele>
        <time>2020-07-12T06:46:59Z</time>
      </trkpt>
      <trkpt lat="46.52611" lon="2.61457">
        <ele>177.3</ele>
        <time>2020-07-12T06:47:00Z</time>
      </trkpt>
      <trkpt lat="46.52616" lon="2.61453">
        <ele>177.1</ele>
        <time>2020-07-12T06:47:01Z</time>
      </trkpt>
      <trkpt lat="46.5262" lon="2.6145">
        <ele>177</ele>
        <time>2020-07-12T06:47:02Z</time>
      </trkpt>
      <trkpt lat="46.52624" lon="2.61446">
        <ele>177.1</ele>
        <time>2020-07-12T06:47:03Z</time>
      </trkpt>
      <trkpt lat="46.52629" lon="2.61443">
        <ele>177.2</ele>
        <time>2020-07-12T06:47:04Z</time>
      </trkpt>
      <trkpt lat="46.52633" lon="2.61439">
        <ele>177.3</ele>
        <time>2020-07-12T06:47:05Z</time>
      </trkpt>
      <trkpt lat="46.52637" lon="2.61435">
        <ele>177.8</ele>
        <time>2020-07-12T06:47:06Z</time>
      </trkpt>
      <trkpt lat="46.52642" lon="2.61431">
        <ele>178.1</ele>
        <time>2020-07-12T06:47:07Z</time>
      </trkpt>
      <trkpt lat="46.52646" lon="2.61427">
        <ele>178.6</ele>
        <time>2020-07-12T06:47:08Z</time>
      </trkpt>
      <trkpt lat="46.5265" lon="2.61423">
        <ele>179</ele>
        <time>2020-07-12T06:47:09Z</time>
      </trkpt>
      <trkpt lat="46.52655" lon="2.61419">
        <ele>179.3</ele>
        <time>2020-07-12T06:47:10Z</time>
      </trkpt>
      <trkpt lat="46.52659" lon="2.61416">
        <ele>179.1</ele>
        <time>2020-07-12T06:47:11Z</time>
      </trkpt>
      <trkpt lat="46.52663" lon="2.61412">
        <ele>178.9</ele>
        <time>2020-07-12T06:47:12Z</time>
      </trkpt>
      <trkpt lat="46.52668" lon="2.61408">
        <ele>179</ele>
        <time>2020-07-12T06:47:13Z</time>
      </trkpt>
      <trkpt lat="46.52672" lon="2.61404">
        <ele>179.2</ele>
        <time>2020-07-12T06:47:14Z</time>
      </trkpt>
      <trkpt lat="46.52677" lon="2.614">
        <ele>178.9</ele>
        <time>2020-07-12T06:47:15Z</time>
      </trkpt>
      <trkpt lat="46.52681" lon="2.61397">
        <ele>178.7</ele>
        <time>2020-07-12T06:47:16Z</time>
      </trkpt>
      <trkpt lat="46.52686" lon="2.61393">
        <ele>178.5</ele>
        <time>2020-07-12T06:47:17Z</time>
      </trkpt>
      <trkpt lat="46.5269" lon="2.61389">
        <ele>178.3</ele>
        <time>2020-07-12T06:47:18Z</time>
      </trkpt>
      <trkpt lat="46.52694" lon="2.61386">
        <ele>178.2</ele>
        <time>2020-07-12T06:47:19Z</time>
      </trkpt>
      <trkpt lat="46.52699" lon="2.61382">
        <ele>178.3</ele>
        <time>2020-07-12T06:47:20Z</time>
      </trkpt>
      <trkpt lat="46.52703" lon="2.61379">
        <ele>178.4</ele>
        <time>2020-07-12T06:47:21Z</time>
      </trkpt>
      <trkpt lat="46.52708" lon="2.61375">
        <ele>178.4</ele>
        <time>2020-07-12T06:47:22Z</time>
      </trkpt>
      <trkpt lat="46.52713" lon="2.61372">
        <ele>178.4</ele>
        <time>2020-07-12T06:47:23Z</time>
      </trkpt>
      <trkpt lat="46.52718" lon="2.61368">
        <ele>178.4</ele>
        <time>2020-07-12T06:47:24Z</time>
      </trkpt>
      <trkpt lat="46.52722" lon="2.61365">
        <ele>178.3</ele>
        <time>2020-07-12T06:47:25Z</time>
      </trkpt>
      <trkpt lat="46.52727" lon="2.61362">
        <ele>178.2</ele>
        <time>2020-07-12T06:47:26Z</time>
      </trkpt>
      <trkpt lat="46.52732" lon="2.61359">
        <ele>178.3</ele>
        <time>2020-07-12T06:47:27Z</time>
      </trkpt>
      <trkpt lat="46.52736" lon="2.61356">
        <ele>178.3</ele>
        <time>2020-07-12T06:47:28Z</time>
      </trkpt>
      <trkpt lat="46.52741" lon="2.61353">
        <ele>178.3</ele>
        <time>2020-07-12T06:47:29Z</time>
      </trkpt>
      <trkpt lat="46.52745" lon="2.6135">
        <ele>178.3</ele>
        <time>2020-07-12T06:47:30Z</time>
      </trkpt>
      <trkpt lat="46.52749" lon="2.61347">
        <ele>178.3</ele>
        <time>2020-07-12T06:47:31Z</time>
      </trkpt>
      <trkpt lat="46.52754" lon="2.61344">
        <ele>178.5</ele>
        <time>2020-07-12T06:47:32Z</time>
      </trkpt>
      <trkpt lat="46.52758" lon="2.61341">
        <ele>178.6</ele>
        <time>2020-07-12T06:47:33Z</time>
      </trkpt>
      <trkpt lat="46.52763" lon="2.61338">
        <ele>178.6</ele>
        <time>2020-07-12T06:47:34Z</time>
      </trkpt>
      <trkpt lat="46.52767" lon="2.61335">
        <ele>178.6</ele>
        <time>2020-07-12T06:47:35Z</time>
      </trkpt>
      <trkpt lat="46.52772" lon="2.61332">
        <ele>178.5</ele>
        <time>2020-07-12T06:47:36Z</time>
      </trkpt>
      <trkpt lat="46.52776" lon="2.61329">
        <ele>178.9</ele>
        <time>2020-07-12T06:47:37Z</time>
      </trkpt>
      <trkpt lat="46.52781" lon="2.61327">
        <ele>179.2</ele>
        <time>2020-07-12T06:47:38Z</time>
      </trkpt>
      <trkpt lat="46.52785" lon="2.61324">
        <ele>179.1</ele>
        <time>2020-07-12T06:47:39Z</time>
      </trkpt>
      <trkpt lat="46.5279" lon="2.61322">
        <ele>179</ele>
        <time>2020-07-12T06:47:40Z</time>
      </trkpt>
      <trkpt lat="46.52794" lon="2.61319">
        <ele>178.6</ele>
        <time>2020-07-12T06:47:41Z</time>
      </trkpt>
      <trkpt lat="46.52798" lon="2.61317">
        <ele>178.3</ele>
        <time>2020-07-12T06:47:42Z</time>
      </trkpt>
      <trkpt lat="46.52803" lon="2.61315">
        <ele>178.1</ele>
        <time>2020-07-12T06:47:43Z</time>
      </trkpt>
      <trkpt lat="46.52808" lon="2.61313">
        <ele>178.1</ele>
        <time>2020-07-12T06:47:44Z</time>
      </trkpt>
      <trkpt lat="46.52813" lon="2.61311">
        <ele>178.1</ele>
        <time>2020-07-12T06:47:45Z</time>
      </trkpt>
      <trkpt lat="46.52818" lon="2.61309">
        <ele>177.6</ele>
        <time>2020-07-12T06:47:46Z</time>
      </trkpt>
      <trkpt lat="46.52826" lon="2.61305">
        <ele>177.1</ele>
        <time>2020-07-12T06:47:48Z</time>
      </trkpt>
      <trkpt lat="46.52831" lon="2.61304">
        <ele>177.8</ele>
        <time>2020-07-12T06:47:49Z</time>
      </trkpt>
      <trkpt lat="46.52836" lon="2.61302">
        <ele>178.3</ele>
        <time>2020-07-12T06:47:50Z</time>
      </trkpt>
      <trkpt lat="46.5284" lon="2.613">
        <ele>178.3</ele>
        <time>2020-07-12T06:47:51Z</time>
      </trkpt>
      <trkpt lat="46.52849" lon="2.61297">
        <ele>178</ele>
        <time>2020-07-12T06:47:53Z</time>
      </trkpt>
      <trkpt lat="46.52858" lon="2.61294">
        <ele>177.8</ele>
        <time>2020-07-12T06:47:55Z</time>
      </trkpt>
      <trkpt lat="46.52866" lon="2.61291">
        <ele>178.2</ele>
        <time>2020-07-12T06:47:57Z</time>
      </trkpt>
      <trkpt lat="46.52871" lon="2.6129">
        <ele>178.1</ele>
        <time>2020-07-12T06:47:58Z</time>
      </trkpt>
      <trkpt lat="46.52876" lon="2.61289">
        <ele>177.9</ele>
        <time>2020-07-12T06:47:59Z</time>
      </trkpt>
      <trkpt lat="46.52881" lon="2.61288">
        <ele>177.7</ele>
        <time>2020-07-12T06:48:00Z</time>
      </trkpt>
      <trkpt lat="46.52887" lon="2.61287">
        <ele>177.6</ele>
        <time>2020-07-12T06:48:01Z</time>
      </trkpt>
      <trkpt lat="46.52892" lon="2.61287">
        <ele>177.5</ele>
        <time>2020-07-12T06:48:02Z</time>
      </trkpt>
      <trkpt lat="46.52898" lon="2.61286">
        <ele>177.8</ele>
        <time>2020-07-12T06:48:03Z</time>
      </trkpt>
      <trkpt lat="46.52903" lon="2.61285">
        <ele>178</ele>
        <time>2020-07-12T06:48:04Z</time>
      </trkpt>
      <trkpt lat="46.52908" lon="2.61285">
        <ele>177.8</ele>
        <time>2020-07-12T06:48:05Z</time>
      </trkpt>
      <trkpt lat="46.52913" lon="2.61284">
        <ele>177.7</ele>
        <time>2020-07-12T06:48:06Z</time>
      </trkpt>
      <trkpt lat="46.52919" lon="2.61284">
        <ele>177.6</ele>
        <time>2020-07-12T06:48:07Z</time>
      </trkpt>
      <trkpt lat="46.52924" lon="2.61283">
        <ele>177.6</ele>
        <time>2020-07-12T06:48:08Z</time>
      </trkpt>
      <trkpt lat="46.52929" lon="2.61283">
        <ele>177.5</ele>
        <time>2020-07-12T06:48:09Z</time>
      </trkpt>
      <trkpt lat="46.52934" lon="2.61283">
        <ele>177.2</ele>
        <time>2020-07-12T06:48:10Z</time>
      </trkpt>
      <trkpt lat="46.52939" lon="2.61283">
        <ele>177.1</ele>
        <time>2020-07-12T06:48:11Z</time>
      </trkpt>
      <trkpt lat="46.52944" lon="2.61283">
        <ele>177.5</ele>
        <time>2020-07-12T06:48:12Z</time>
      </trkpt>
      <trkpt lat="46.52949" lon="2.61283">
        <ele>177.8</ele>
        <time>2020-07-12T06:48:13Z</time>
      </trkpt>
      <trkpt lat="46.52954" lon="2.61283">
        <ele>178.1</ele>
        <time>2020-07-12T06:48:14Z</time>
      </trkpt>
      <trkpt lat="46.52959" lon="2.61283">
        <ele>177.9</ele>
        <time>2020-07-12T06:48:15Z</time>
      </trkpt>
      <trkpt lat="46.52964" lon="2.61284">
        <ele>177.7</ele>
        <time>2020-07-12T06:48:16Z</time>
      </trkpt>
      <trkpt lat="46.52969" lon="2.61284">
        <ele>177.6</ele>
        <time>2020-07-12T06:48:17Z</time>
      </trkpt>
      <trkpt lat="46.52974" lon="2.61285">
        <ele>177.5</ele>
        <time>2020-07-12T06:48:18Z</time>
      </trkpt>
      <trkpt lat="46.52979" lon="2.61285">
        <ele>177.8</ele>
        <time>2020-07-12T06:48:19Z</time>
      </trkpt>
      <trkpt lat="46.52985" lon="2.61286">
        <ele>178.1</ele>
        <time>2020-07-12T06:48:20Z</time>
      </trkpt>
      <trkpt lat="46.5299" lon="2.61286">
        <ele>178.3</ele>
        <time>2020-07-12T06:48:21Z</time>
      </trkpt>
      <trkpt lat="46.52995" lon="2.61287">
        <ele>177.9</ele>
        <time>2020-07-12T06:48:22Z</time>
      </trkpt>
      <trkpt lat="46.53" lon="2.61288">
        <ele>177.5</ele>
        <time>2020-07-12T06:48:23Z</time>
      </trkpt>
      <trkpt lat="46.53005" lon="2.61289">
        <ele>177.6</ele>
        <time>2020-07-12T06:48:24Z</time>
      </trkpt>
      <trkpt lat="46.5301" lon="2.6129">
        <ele>177.6</ele>
        <time>2020-07-12T06:48:25Z</time>
      </trkpt>
      <trkpt lat="46.53015" lon="2.61291">
        <ele>177.6</ele>
        <time>2020-07-12T06:48:26Z</time>
      </trkpt>
      <trkpt lat="46.5302" lon="2.61292">
        <ele>178</ele>
        <time>2020-07-12T06:48:27Z</time>
      </trkpt>
      <trkpt lat="46.53025" lon="2.61293">
        <ele>178.2</ele>
        <time>2020-07-12T06:48:28Z</time>
      </trkpt>
      <trkpt lat="46.5303" lon="2.61295">
        <ele>178.3</ele>
        <time>2020-07-12T06:48:29Z</time>
      </trkpt>
      <trkpt lat="46.53035" lon="2.61296">
        <ele>178.3</ele>
        <time>2020-07-12T06:48:30Z</time>
      </trkpt>
      <trkpt lat="46.5304" lon="2.61297">
        <ele>178.3</ele>
        <time>2020-07-12T06:48:31Z</time>
      </trkpt>
      <trkpt lat="46.53045" lon="2.61299">
        <ele>178.3</ele>
        <time>2020-07-12T06:48:32Z</time>
      </trkpt>
      <trkpt lat="46.5305" lon="2.613">
        <ele>178.3</ele>
        <time>2020-07-12T06:48:33Z</time>
      </trkpt>
      <trkpt lat="46.53055" lon="2.61302">
        <ele>178.3</ele>
        <time>2020-07-12T06:48:34Z</time>
      </trkpt>
      <trkpt lat="46.5306" lon="2.61303">
        <ele>178.3</ele>
        <time>2020-07-12T06:48:35Z</time>
      </trkpt>
      <trkpt lat="46.53064" lon="2.61305">
        <ele>177.9</ele>
        <time>2020-07-12T06:48:36Z</time>
      </trkpt>
      <trkpt lat="46.53069" lon="2.61306">
        <ele>177.7</ele>
        <time>2020-07-12T06:48:37Z</time>
      </trkpt>
      <trkpt lat="46.53074" lon="2.61308">
        <ele>178</ele>
        <time>2020-07-12T06:48:38Z</time>
      </trkpt>
      <trkpt lat="46.53079" lon="2.61309">
        <ele>178.2</ele>
        <time>2020-07-12T06:48:39Z</time>
      </trkpt>
      <trkpt lat="46.53084" lon="2.61311">
        <ele>178.4</ele>
        <time>2020-07-12T06:48:40Z</time>
      </trkpt>
      <trkpt lat="46.53089" lon="2.61313">
        <ele>177.9</ele>
        <time>2020-07-12T06:48:41Z</time>
      </trkpt>
      <trkpt lat="46.53093" lon="2.61315">
        <ele>177.5</ele>
        <time>2020-07-12T06:48:42Z</time>
      </trkpt>
      <trkpt lat="46.53098" lon="2.61317">
        <ele>178.1</ele>
        <time>2020-07-12T06:48:43Z</time>
      </trkpt>
      <trkpt lat="46.53103" lon="2.61319">
        <ele>178.5</ele>
        <time>2020-07-12T06:48:44Z</time>
      </trkpt>
      <trkpt lat="46.53108" lon="2.61321">
        <ele>178.5</ele>
        <time>2020-07-12T06:48:45Z</time>
      </trkpt>
      <trkpt lat="46.53113" lon="2.61323">
        <ele>178.5</ele>
        <time>2020-07-12T06:48:46Z</time>
      </trkpt>
      <trkpt lat="46.53117" lon="2.61325">
        <ele>178.5</ele>
        <time>2020-07-12T06:48:47Z</time>
      </trkpt>
      <trkpt lat="46.53122" lon="2.61328">
        <ele>178.4</ele>
        <time>2020-07-12T06:48:48Z</time>
      </trkpt>
      <trkpt lat="46.53127" lon="2.6133">
        <ele>178.3</ele>
        <time>2020-07-12T06:48:49Z</time>
      </trkpt>
      <trkpt lat="46.53131" lon="2.61333">
        <ele>178.1</ele>
        <time>2020-07-12T06:48:50Z</time>
      </trkpt>
      <trkpt lat="46.53136" lon="2.61335">
        <ele>177.9</ele>
        <time>2020-07-12T06:48:51Z</time>
      </trkpt>
      <trkpt lat="46.5314" lon="2.61338">
        <ele>177.8</ele>
        <time>2020-07-12T06:48:52Z</time>
      </trkpt>
      <trkpt lat="46.53145" lon="2.6134">
        <ele>177.7</ele>
        <time>2020-07-12T06:48:53Z</time>
      </trkpt>
      <trkpt lat="46.53149" lon="2.61344">
        <ele>177.7</ele>
        <time>2020-07-12T06:48:54Z</time>
      </trkpt>
      <trkpt lat="46.53153" lon="2.61347">
        <ele>177.4</ele>
        <time>2020-07-12T06:48:55Z</time>
      </trkpt>
      <trkpt lat="46.53157" lon="2.61351">
        <ele>177.2</ele>
        <time>2020-07-12T06:48:56Z</time>
      </trkpt>
      <trkpt lat="46.53161" lon="2.61355">
        <ele>177.1</ele>
        <time>2020-07-12T06:48:57Z</time>
      </trkpt>
      <trkpt lat="46.53168" lon="2.61363">
        <ele>176.9</ele>
        <time>2020-07-12T06:48:59Z</time>
      </trkpt>
      <trkpt lat="46.53174" lon="2.6137">
        <ele>177</ele>
        <time>2020-07-12T06:49:01Z</time>
      </trkpt>
      <trkpt lat="46.5318" lon="2.61376">
        <ele>177.2</ele>
        <time>2020-07-12T06:49:03Z</time>
      </trkpt>
      <trkpt lat="46.53185" lon="2.61383">
        <ele>177.4</ele>
        <time>2020-07-12T06:49:05Z</time>
      </trkpt>
      <trkpt lat="46.53192" lon="2.61391">
        <ele>177.3</ele>
        <time>2020-07-12T06:49:09Z</time>
      </trkpt>
      <trkpt lat="46.53198" lon="2.61397">
        <ele>177.7</ele>
        <time>2020-07-12T06:49:12Z</time>
      </trkpt>
      <trkpt lat="46.53202" lon="2.61399">
        <ele>177.6</ele>
        <time>2020-07-12T06:49:13Z</time>
      </trkpt>
      <trkpt lat="46.53212" lon="2.61403">
        <ele>177.1</ele>
        <time>2020-07-12T06:49:16Z</time>
      </trkpt>
      <trkpt lat="46.53218" lon="2.61406">
        <ele>176.8</ele>
        <time>2020-07-12T06:49:18Z</time>
      </trkpt>
      <trkpt lat="46.53225" lon="2.61409">
        <ele>177</ele>
        <time>2020-07-12T06:49:20Z</time>
      </trkpt>
      <trkpt lat="46.53232" lon="2.6141">
        <ele>177.2</ele>
        <time>2020-07-12T06:49:22Z</time>
      </trkpt>
      <trkpt lat="46.5324" lon="2.6141">
        <ele>176.9</ele>
        <time>2020-07-12T06:49:24Z</time>
      </trkpt>
      <trkpt lat="46.53248" lon="2.61409">
        <ele>176.9</ele>
        <time>2020-07-12T06:49:26Z</time>
      </trkpt>
      <trkpt lat="46.53255" lon="2.61408">
        <ele>177.3</ele>
        <time>2020-07-12T06:49:28Z</time>
      </trkpt>
      <trkpt lat="46.53263" lon="2.61406">
        <ele>177.6</ele>
        <time>2020-07-12T06:49:30Z</time>
      </trkpt>
      <trkpt lat="46.53271" lon="2.61404">
        <ele>177.9</ele>
        <time>2020-07-12T06:49:32Z</time>
      </trkpt>
      <trkpt lat="46.53279" lon="2.61403">
        <ele>177.3</ele>
        <time>2020-07-12T06:49:34Z</time>
      </trkpt>
      <trkpt lat="46.53287" lon="2.61402">
        <ele>177.4</ele>
        <time>2020-07-12T06:49:36Z</time>
      </trkpt>
      <trkpt lat="46.53295" lon="2.614">
        <ele>177.7</ele>
        <time>2020-07-12T06:49:38Z</time>
      </trkpt>
      <trkpt lat="46.53303" lon="2.61399">
        <ele>177.6</ele>
        <time>2020-07-12T06:49:40Z</time>
      </trkpt>
      <trkpt lat="46.53311" lon="2.61397">
        <ele>177.4</ele>
        <time>2020-07-12T06:49:42Z</time>
      </trkpt>
      <trkpt lat="46.53316" lon="2.61397">
        <ele>177.4</ele>
        <time>2020-07-12T06:49:43Z</time>
      </trkpt>
      <trkpt lat="46.53321" lon="2.61396">
        <ele>177.4</ele>
        <time>2020-07-12T06:49:44Z</time>
      </trkpt>
      <trkpt lat="46.53326" lon="2.61396">
        <ele>177.5</ele>
        <time>2020-07-12T06:49:45Z</time>
      </trkpt>
      <trkpt lat="46.53332" lon="2.61395">
        <ele>177.5</ele>
        <time>2020-07-12T06:49:46Z</time>
      </trkpt>
      <trkpt lat="46.53337" lon="2.61393">
        <ele>177.6</ele>
        <time>2020-07-12T06:49:47Z</time>
      </trkpt>
      <trkpt lat="46.53343" lon="2.61392">
        <ele>177.7</ele>
        <time>2020-07-12T06:49:48Z</time>
      </trkpt>
      <trkpt lat="46.53348" lon="2.61391">
        <ele>177.8</ele>
        <time>2020-07-12T06:49:49Z</time>
      </trkpt>
      <trkpt lat="46.53353" lon="2.61391">
        <ele>177.5</ele>
        <time>2020-07-12T06:49:50Z</time>
      </trkpt>
      <trkpt lat="46.53359" lon="2.6139">
        <ele>177.3</ele>
        <time>2020-07-12T06:49:51Z</time>
      </trkpt>
      <trkpt lat="46.53363" lon="2.61389">
        <ele>176.7</ele>
        <time>2020-07-12T06:49:52Z</time>
      </trkpt>
      <trkpt lat="46.53368" lon="2.61388">
        <ele>176.3</ele>
        <time>2020-07-12T06:49:53Z</time>
      </trkpt>
      <trkpt lat="46.53373" lon="2.61387">
        <ele>176.5</ele>
        <time>2020-07-12T06:49:54Z</time>
      </trkpt>
      <trkpt lat="46.53378" lon="2.61387">
        <ele>176.5</ele>
        <time>2020-07-12T06:49:55Z</time>
      </trkpt>
      <trkpt lat="46.53383" lon="2.61386">
        <ele>176.6</ele>
        <time>2020-07-12T06:49:56Z</time>
      </trkpt>
      <trkpt lat="46.53387" lon="2.61385">
        <ele>176.9</ele>
        <time>2020-07-12T06:49:57Z</time>
      </trkpt>
      <trkpt lat="46.53396" lon="2.61383">
        <ele>176.8</ele>
        <time>2020-07-12T06:49:59Z</time>
      </trkpt>
      <trkpt lat="46.53405" lon="2.61381">
        <ele>176.5</ele>
        <time>2020-07-12T06:50:01Z</time>
      </trkpt>
      <trkpt lat="46.53413" lon="2.61379">
        <ele>176.4</ele>
        <time>2020-07-12T06:50:03Z</time>
      </trkpt>
      <trkpt lat="46.53418" lon="2.61378">
        <ele>176.4</ele>
        <time>2020-07-12T06:50:04Z</time>
      </trkpt>
      <trkpt lat="46.53427" lon="2.61376">
        <ele>176.3</ele>
        <time>2020-07-12T06:50:06Z</time>
      </trkpt>
      <trkpt lat="46.53436" lon="2.61374">
        <ele>176.2</ele>
        <time>2020-07-12T06:50:08Z</time>
      </trkpt>
      <trkpt lat="46.53444" lon="2.61372">
        <ele>175.8</ele>
        <time>2020-07-12T06:50:10Z</time>
      </trkpt>
      <trkpt lat="46.53452" lon="2.61369">
        <ele>176.9</ele>
        <time>2020-07-12T06:50:12Z</time>
      </trkpt>
      <trkpt lat="46.5346" lon="2.61367">
        <ele>176.4</ele>
        <time>2020-07-12T06:50:14Z</time>
      </trkpt>
      <trkpt lat="46.53464" lon="2.61365">
        <ele>176.3</ele>
        <time>2020-07-12T06:50:15Z</time>
      </trkpt>
      <trkpt lat="46.53477" lon="2.61361">
        <ele>177.1</ele>
        <time>2020-07-12T06:50:18Z</time>
      </trkpt>
      <trkpt lat="46.53485" lon="2.61357">
        <ele>176.8</ele>
        <time>2020-07-12T06:50:20Z</time>
      </trkpt>
      <trkpt lat="46.53493" lon="2.61354">
        <ele>176.2</ele>
        <time>2020-07-12T06:50:22Z</time>
      </trkpt>
      <trkpt lat="46.535" lon="2.61352">
        <ele>176.3</ele>
        <time>2020-07-12T06:50:24Z</time>
      </trkpt>
      <trkpt lat="46.53507" lon="2.61349">
        <ele>176.3</ele>
        <time>2020-07-12T06:50:26Z</time>
      </trkpt>
      <trkpt lat="46.53515" lon="2.61345">
        <ele>176.4</ele>
        <time>2020-07-12T06:50:28Z</time>
      </trkpt>
      <trkpt lat="46.53523" lon="2.61341">
        <ele>176.5</ele>
        <time>2020-07-12T06:50:30Z</time>
      </trkpt>
      <trkpt lat="46.5353" lon="2.61336">
        <ele>176.8</ele>
        <time>2020-07-12T06:50:32Z</time>
      </trkpt>
      <trkpt lat="46.53537" lon="2.61331">
        <ele>177.1</ele>
        <time>2020-07-12T06:50:34Z</time>
      </trkpt>
      <trkpt lat="46.53543" lon="2.61326">
        <ele>177.2</ele>
        <time>2020-07-12T06:50:36Z</time>
      </trkpt>
      <trkpt lat="46.53548" lon="2.6132">
        <ele>177.1</ele>
        <time>2020-07-12T06:50:38Z</time>
      </trkpt>
      <trkpt lat="46.53552" lon="2.61311">
        <ele>176.5</ele>
        <time>2020-07-12T06:50:40Z</time>
      </trkpt>
      <trkpt lat="46.53556" lon="2.61302">
        <ele>176.4</ele>
        <time>2020-07-12T06:50:42Z</time>
      </trkpt>
      <trkpt lat="46.53559" lon="2.61292">
        <ele>177</ele>
        <time>2020-07-12T06:50:44Z</time>
      </trkpt>
      <trkpt lat="46.53564" lon="2.61283">
        <ele>177.7</ele>
        <time>2020-07-12T06:50:46Z</time>
      </trkpt>
      <trkpt lat="46.53568" lon="2.61275">
        <ele>177.9</ele>
        <time>2020-07-12T06:50:48Z</time>
      </trkpt>
      <trkpt lat="46.53573" lon="2.61268">
        <ele>177.6</ele>
        <time>2020-07-12T06:50:50Z</time>
      </trkpt>
      <trkpt lat="46.5358" lon="2.61261">
        <ele>177.8</ele>
        <time>2020-07-12T06:50:52Z</time>
      </trkpt>
      <trkpt lat="46.53586" lon="2.61254">
        <ele>177.8</ele>
        <time>2020-07-12T06:50:54Z</time>
      </trkpt>
      <trkpt lat="46.53592" lon="2.61247">
        <ele>177.7</ele>
        <time>2020-07-12T06:50:56Z</time>
      </trkpt>
      <trkpt lat="46.53598" lon="2.61241">
        <ele>177.4</ele>
        <time>2020-07-12T06:50:58Z</time>
      </trkpt>
      <trkpt lat="46.53604" lon="2.61233">
        <ele>176.9</ele>
        <time>2020-07-12T06:51:00Z</time>
      </trkpt>
      <trkpt lat="46.5361" lon="2.61226">
        <ele>177.3</ele>
        <time>2020-07-12T06:51:02Z</time>
      </trkpt>
      <trkpt lat="46.53616" lon="2.61218">
        <ele>177.9</ele>
        <time>2020-07-12T06:51:04Z</time>
      </trkpt>
      <trkpt lat="46.53622" lon="2.61211">
        <ele>178.1</ele>
        <time>2020-07-12T06:51:06Z</time>
      </trkpt>
      <trkpt lat="46.53628" lon="2.61203">
        <ele>177.9</ele>
        <time>2020-07-12T06:51:08Z</time>
      </trkpt>
      <trkpt lat="46.53633" lon="2.61195">
        <ele>178</ele>
        <time>2020-07-12T06:51:10Z</time>
      </trkpt>
      <trkpt lat="46.53639" lon="2.61186">
        <ele>178.2</ele>
        <time>2020-07-12T06:51:12Z</time>
      </trkpt>
      <trkpt lat="46.53645" lon="2.61177">
        <ele>178.3</ele>
        <time>2020-07-12T06:51:14Z</time>
      </trkpt>
      <trkpt lat="46.5365" lon="2.61168">
        <ele>178.1</ele>
        <time>2020-07-12T06:51:16Z</time>
      </trkpt>
      <trkpt lat="46.53652" lon="2.61163">
        <ele>178.2</ele>
        <time>2020-07-12T06:51:17Z</time>
      </trkpt>
      <trkpt lat="46.5366" lon="2.61149">
        <ele>178.4</ele>
        <time>2020-07-12T06:51:20Z</time>
      </trkpt>
      <trkpt lat="46.53666" lon="2.61139">
        <ele>178.3</ele>
        <time>2020-07-12T06:51:22Z</time>
      </trkpt>
      <trkpt lat="46.53671" lon="2.6113">
        <ele>178.2</ele>
        <time>2020-07-12T06:51:24Z</time>
      </trkpt>
      <trkpt lat="46.53675" lon="2.6112">
        <ele>177.5</ele>
        <time>2020-07-12T06:51:26Z</time>
      </trkpt>
      <trkpt lat="46.5368" lon="2.61109">
        <ele>178.3</ele>
        <time>2020-07-12T06:51:28Z</time>
      </trkpt>
      <trkpt lat="46.53684" lon="2.61099">
        <ele>178.3</ele>
        <time>2020-07-12T06:51:30Z</time>
      </trkpt>
      <trkpt lat="46.53688" lon="2.61088">
        <ele>178</ele>
        <time>2020-07-12T06:51:32Z</time>
      </trkpt>
      <trkpt lat="46.53691" lon="2.61079">
        <ele>177.8</ele>
        <time>2020-07-12T06:51:34Z</time>
      </trkpt>
      <trkpt lat="46.53695" lon="2.6107">
        <ele>178.1</ele>
        <time>2020-07-12T06:51:36Z</time>
      </trkpt>
      <trkpt lat="46.53697" lon="2.61062">
        <ele>178.5</ele>
        <time>2020-07-12T06:51:38Z</time>
      </trkpt>
      <trkpt lat="46.53702" lon="2.6105">
        <ele>180.1</ele>
        <time>2020-07-12T06:51:42Z</time>
      </trkpt>
      <trkpt lat="46.53707" lon="2.6104">
        <ele>180.9</ele>
        <time>2020-07-12T06:51:53Z</time>
      </trkpt>
      <trkpt lat="46.53712" lon="2.6103">
        <ele>180.2</ele>
        <time>2020-07-12T06:51:56Z</time>
      </trkpt>
      <trkpt lat="46.53715" lon="2.61025">
        <ele>180.1</ele>
        <time>2020-07-12T06:51:57Z</time>
      </trkpt>
      <trkpt lat="46.53717" lon="2.61018">
        <ele>179.6</ele>
        <time>2020-07-12T06:51:58Z</time>
      </trkpt>
      <trkpt lat="46.5372" lon="2.61011">
        <ele>179.3</ele>
        <time>2020-07-12T06:51:59Z</time>
      </trkpt>
      <trkpt lat="46.53722" lon="2.61004">
        <ele>179.2</ele>
        <time>2020-07-12T06:52:00Z</time>
      </trkpt>
      <trkpt lat="46.53725" lon="2.60997">
        <ele>179.1</ele>
        <time>2020-07-12T06:52:01Z</time>
      </trkpt>
      <trkpt lat="46.53727" lon="2.60991">
        <ele>179.1</ele>
        <time>2020-07-12T06:52:02Z</time>
      </trkpt>
      <trkpt lat="46.53729" lon="2.60985">
        <ele>179.1</ele>
        <time>2020-07-12T06:52:03Z</time>
      </trkpt>
      <trkpt lat="46.53732" lon="2.60979">
        <ele>179.1</ele>
        <time>2020-07-12T06:52:04Z</time>
      </trkpt>
      <trkpt lat="46.53737" lon="2.60969">
        <ele>178.6</ele>
        <time>2020-07-12T06:52:06Z</time>
      </trkpt>
      <trkpt lat="46.53741" lon="2.60958">
        <ele>178.6</ele>
        <time>2020-07-12T06:52:08Z</time>
      </trkpt>
      <trkpt lat="46.53746" lon="2.60948">
        <ele>178.8</ele>
        <time>2020-07-12T06:52:10Z</time>
      </trkpt>
      <trkpt lat="46.53751" lon="2.60938">
        <ele>178.7</ele>
        <time>2020-07-12T06:52:12Z</time>
      </trkpt>
      <trkpt lat="46.53755" lon="2.60928">
        <ele>178.4</ele>
        <time>2020-07-12T06:52:14Z</time>
      </trkpt>
      <trkpt lat="46.5376" lon="2.60918">
        <ele>178.2</ele>
        <time>2020-07-12T06:52:16Z</time>
      </trkpt>
      <trkpt lat="46.53764" lon="2.60907">
        <ele>178.4</ele>
        <time>2020-07-12T06:52:18Z</time>
      </trkpt>
      <trkpt lat="46.53766" lon="2.60902">
        <ele>177.8</ele>
        <time>2020-07-12T06:52:19Z</time>
      </trkpt>
      <trkpt lat="46.53774" lon="2.60889">
        <ele>177.6</ele>
        <time>2020-07-12T06:52:22Z</time>
      </trkpt>
      <trkpt lat="46.53779" lon="2.60881">
        <ele>177.8</ele>
        <time>2020-07-12T06:52:24Z</time>
      </trkpt>
      <trkpt lat="46.53785" lon="2.60873">
        <ele>177.9</ele>
        <time>2020-07-12T06:52:26Z</time>
      </trkpt>
      <trkpt lat="46.5379" lon="2.60864">
        <ele>177.8</ele>
        <time>2020-07-12T06:52:28Z</time>
      </trkpt>
      <trkpt lat="46.53796" lon="2.60856">
        <ele>178.2</ele>
        <time>2020-07-12T06:52:30Z</time>
      </trkpt>
      <trkpt lat="46.538" lon="2.60849">
        <ele>178</ele>
        <time>2020-07-12T06:52:32Z</time>
      </trkpt>
      <trkpt lat="46.53807" lon="2.6084">
        <ele>176.9</ele>
        <time>2020-07-12T06:52:36Z</time>
      </trkpt>
      <trkpt lat="46.53804" lon="2.60829">
        <ele>177.5</ele>
        <time>2020-07-12T06:52:44Z</time>
      </trkpt>
      <trkpt lat="46.538" lon="2.60839">
        <ele>177.3</ele>
        <time>2020-07-12T06:53:16Z</time>
      </trkpt>
      <trkpt lat="46.53799" lon="2.60851">
        <ele>177.4</ele>
        <time>2020-07-12T06:53:19Z</time>
      </trkpt>
      <trkpt lat="46.53798" lon="2.60855">
        <ele>177.4</ele>
        <time>2020-07-12T06:53:20Z</time>
      </trkpt>
      <trkpt lat="46.53792" lon="2.60866">
        <ele>177.3</ele>
        <time>2020-07-12T06:53:23Z</time>
      </trkpt>
      <trkpt lat="46.53787" lon="2.60874">
        <ele>177.1</ele>
        <time>2020-07-12T06:53:25Z</time>
      </trkpt>
      <trkpt lat="46.53781" lon="2.60882">
        <ele>177</ele>
        <time>2020-07-12T06:53:27Z</time>
      </trkpt>
      <trkpt lat="46.53776" lon="2.6089">
        <ele>176.8</ele>
        <time>2020-07-12T06:53:29Z</time>
      </trkpt>
      <trkpt lat="46.53771" lon="2.60899">
        <ele>177.3</ele>
        <time>2020-07-12T06:53:31Z</time>
      </trkpt>
      <trkpt lat="46.53767" lon="2.60908">
        <ele>177.2</ele>
        <time>2020-07-12T06:53:33Z</time>
      </trkpt>
      <trkpt lat="46.53762" lon="2.60917">
        <ele>177.1</ele>
        <time>2020-07-12T06:53:35Z</time>
      </trkpt>
      <trkpt lat="46.53756" lon="2.60925">
        <ele>177.6</ele>
        <time>2020-07-12T06:53:37Z</time>
      </trkpt>
      <trkpt lat="46.53751" lon="2.60933">
        <ele>178.2</ele>
        <time>2020-07-12T06:53:39Z</time>
      </trkpt>
      <trkpt lat="46.53745" lon="2.6094">
        <ele>178.8</ele>
        <time>2020-07-12T06:53:41Z</time>
      </trkpt>
      <trkpt lat="46.53739" lon="2.60948">
        <ele>178.5</ele>
        <time>2020-07-12T06:53:43Z</time>
      </trkpt>
      <trkpt lat="46.53733" lon="2.60956">
        <ele>178.5</ele>
        <time>2020-07-12T06:53:45Z</time>
      </trkpt>
      <trkpt lat="46.53728" lon="2.60965">
        <ele>178.5</ele>
        <time>2020-07-12T06:53:47Z</time>
      </trkpt>
      <trkpt lat="46.53722" lon="2.60974">
        <ele>178.1</ele>
        <time>2020-07-12T06:53:49Z</time>
      </trkpt>
      <trkpt lat="46.53716" lon="2.60983">
        <ele>177.8</ele>
        <time>2020-07-12T06:53:51Z</time>
      </trkpt>
      <trkpt lat="46.53711" lon="2.60993">
        <ele>177</ele>
        <time>2020-07-12T06:53:53Z</time>
      </trkpt>
      <trkpt lat="46.53706" lon="2.61">
        <ele>177.4</ele>
        <time>2020-07-12T06:53:55Z</time>
      </trkpt>
      <trkpt lat="46.537" lon="2.61009">
        <ele>177.7</ele>
        <time>2020-07-12T06:53:58Z</time>
      </trkpt>
      <trkpt lat="46.53694" lon="2.61018">
        <ele>179.7</ele>
        <time>2020-07-12T06:54:02Z</time>
      </trkpt>
      <trkpt lat="46.53686" lon="2.61015">
        <ele>181.1</ele>
        <time>2020-07-12T06:54:06Z</time>
      </trkpt>
      <trkpt lat="46.53681" lon="2.61005">
        <ele>181.8</ele>
        <time>2020-07-12T06:54:09Z</time>
      </trkpt>
      <trkpt lat="46.53677" lon="2.60997">
        <ele>182</ele>
        <time>2020-07-12T06:54:11Z</time>
      </trkpt>
      <trkpt lat="46.53675" lon="2.60987">
        <ele>181.9</ele>
        <time>2020-07-12T06:54:13Z</time>
      </trkpt>
      <trkpt lat="46.53674" lon="2.60977">
        <ele>182</ele>
        <time>2020-07-12T06:54:15Z</time>
      </trkpt>
      <trkpt lat="46.53675" lon="2.60966">
        <ele>182.3</ele>
        <time>2020-07-12T06:54:17Z</time>
      </trkpt>
      <trkpt lat="46.53676" lon="2.60955">
        <ele>181.6</ele>
        <time>2020-07-12T06:54:19Z</time>
      </trkpt>
      <trkpt lat="46.53677" lon="2.60943">
        <ele>181.2</ele>
        <time>2020-07-12T06:54:21Z</time>
      </trkpt>
      <trkpt lat="46.53677" lon="2.60937">
        <ele>181</ele>
        <time>2020-07-12T06:54:22Z</time>
      </trkpt>
      <trkpt lat="46.53679" lon="2.60921">
        <ele>181</ele>
        <time>2020-07-12T06:54:25Z</time>
      </trkpt>
      <trkpt lat="46.5368" lon="2.6091">
        <ele>182</ele>
        <time>2020-07-12T06:54:27Z</time>
      </trkpt>
      <trkpt lat="46.53682" lon="2.609">
        <ele>182.7</ele>
        <time>2020-07-12T06:54:29Z</time>
      </trkpt>
      <trkpt lat="46.53684" lon="2.60889">
        <ele>182.8</ele>
        <time>2020-07-12T06:54:31Z</time>
      </trkpt>
      <trkpt lat="46.53685" lon="2.60878">
        <ele>183.1</ele>
        <time>2020-07-12T06:54:33Z</time>
      </trkpt>
      <trkpt lat="46.53685" lon="2.60866">
        <ele>183.5</ele>
        <time>2020-07-12T06:54:35Z</time>
      </trkpt>
      <trkpt lat="46.53686" lon="2.60856">
        <ele>183.7</ele>
        <time>2020-07-12T06:54:37Z</time>
      </trkpt>
      <trkpt lat="46.53687" lon="2.60845">
        <ele>183.7</ele>
        <time>2020-07-12T06:54:39Z</time>
      </trkpt>
      <trkpt lat="46.53687" lon="2.60834">
        <ele>184.2</ele>
        <time>2020-07-12T06:54:41Z</time>
      </trkpt>
      <trkpt lat="46.53688" lon="2.60822">
        <ele>184.9</ele>
        <time>2020-07-12T06:54:43Z</time>
      </trkpt>
      <trkpt lat="46.53688" lon="2.60811">
        <ele>184.9</ele>
        <time>2020-07-12T06:54:45Z</time>
      </trkpt>
      <trkpt lat="46.53689" lon="2.608">
        <ele>185.6</ele>
        <time>2020-07-12T06:54:47Z</time>
      </trkpt>
      <trkpt lat="46.5369" lon="2.60788">
        <ele>185.8</ele>
        <time>2020-07-12T06:54:49Z</time>
      </trkpt>
      <trkpt lat="46.53691" lon="2.60778">
        <ele>185.8</ele>
        <time>2020-07-12T06:54:51Z</time>
      </trkpt>
      <trkpt lat="46.53692" lon="2.60767">
        <ele>186.2</ele>
        <time>2020-07-12T06:54:53Z</time>
      </trkpt>
      <trkpt lat="46.53693" lon="2.60756">
        <ele>186.7</ele>
        <time>2020-07-12T06:54:55Z</time>
      </trkpt>
      <trkpt lat="46.53696" lon="2.60747">
        <ele>186.8</ele>
        <time>2020-07-12T06:54:57Z</time>
      </trkpt>
      <trkpt lat="46.53699" lon="2.60739">
        <ele>186.5</ele>
        <time>2020-07-12T06:54:59Z</time>
      </trkpt>
      <trkpt lat="46.537" lon="2.60729">
        <ele>186.6</ele>
        <time>2020-07-12T06:55:01Z</time>
      </trkpt>
      <trkpt lat="46.53701" lon="2.60719">
        <ele>186.8</ele>
        <time>2020-07-12T06:55:03Z</time>
      </trkpt>
      <trkpt lat="46.53702" lon="2.60709">
        <ele>187.2</ele>
        <time>2020-07-12T06:55:05Z</time>
      </trkpt>
      <trkpt lat="46.53703" lon="2.60699">
        <ele>187.6</ele>
        <time>2020-07-12T06:55:07Z</time>
      </trkpt>
      <trkpt lat="46.53705" lon="2.60689">
        <ele>188.4</ele>
        <time>2020-07-12T06:55:09Z</time>
      </trkpt>
      <trkpt lat="46.53708" lon="2.6068">
        <ele>188.5</ele>
        <time>2020-07-12T06:55:11Z</time>
      </trkpt>
      <trkpt lat="46.53711" lon="2.60671">
        <ele>188.3</ele>
        <time>2020-07-12T06:55:13Z</time>
      </trkpt>
      <trkpt lat="46.53716" lon="2.60663">
        <ele>188.6</ele>
        <time>2020-07-12T06:55:15Z</time>
      </trkpt>
      <trkpt lat="46.53721" lon="2.60656">
        <ele>188.5</ele>
        <time>2020-07-12T06:55:17Z</time>
      </trkpt>
      <trkpt lat="46.53728" lon="2.6065">
        <ele>188.1</ele>
        <time>2020-07-12T06:55:19Z</time>
      </trkpt>
      <trkpt lat="46.53736" lon="2.60643">
        <ele>188</ele>
        <time>2020-07-12T06:55:21Z</time>
      </trkpt>
      <trkpt lat="46.53743" lon="2.60636">
        <ele>188.4</ele>
        <time>2020-07-12T06:55:23Z</time>
      </trkpt>
      <trkpt lat="46.53747" lon="2.60632">
        <ele>188.6</ele>
        <time>2020-07-12T06:55:24Z</time>
      </trkpt>
      <trkpt lat="46.53751" lon="2.60629">
        <ele>188.8</ele>
        <time>2020-07-12T06:55:25Z</time>
      </trkpt>
      <trkpt lat="46.53755" lon="2.60625">
        <ele>188.9</ele>
        <time>2020-07-12T06:55:26Z</time>
      </trkpt>
      <trkpt lat="46.53759" lon="2.60621">
        <ele>188.2</ele>
        <time>2020-07-12T06:55:27Z</time>
      </trkpt>
      <trkpt lat="46.53763" lon="2.60618">
        <ele>187.8</ele>
        <time>2020-07-12T06:55:28Z</time>
      </trkpt>
      <trkpt lat="46.53767" lon="2.60614">
        <ele>187.7</ele>
        <time>2020-07-12T06:55:29Z</time>
      </trkpt>
      <trkpt lat="46.53771" lon="2.60611">
        <ele>187.6</ele>
        <time>2020-07-12T06:55:30Z</time>
      </trkpt>
      <trkpt lat="46.53775" lon="2.60607">
        <ele>187.4</ele>
        <time>2020-07-12T06:55:31Z</time>
      </trkpt>
      <trkpt lat="46.53779" lon="2.60604">
        <ele>187.2</ele>
        <time>2020-07-12T06:55:32Z</time>
      </trkpt>
      <trkpt lat="46.53784" lon="2.606">
        <ele>187.1</ele>
        <time>2020-07-12T06:55:33Z</time>
      </trkpt>
      <trkpt lat="46.53788" lon="2.60597">
        <ele>187</ele>
        <time>2020-07-12T06:55:34Z</time>
      </trkpt>
      <trkpt lat="46.53792" lon="2.60593">
        <ele>187</ele>
        <time>2020-07-12T06:55:35Z</time>
      </trkpt>
      <trkpt lat="46.53797" lon="2.60589">
        <ele>187</ele>
        <time>2020-07-12T06:55:36Z</time>
      </trkpt>
      <trkpt lat="46.53801" lon="2.60585">
        <ele>186.9</ele>
        <time>2020-07-12T06:55:37Z</time>
      </trkpt>
      <trkpt lat="46.53805" lon="2.60582">
        <ele>186.9</ele>
        <time>2020-07-12T06:55:38Z</time>
      </trkpt>
      <trkpt lat="46.5381" lon="2.60578">
        <ele>187</ele>
        <time>2020-07-12T06:55:39Z</time>
      </trkpt>
      <trkpt lat="46.53814" lon="2.60575">
        <ele>187.1</ele>
        <time>2020-07-12T06:55:40Z</time>
      </trkpt>
      <trkpt lat="46.53818" lon="2.60571">
        <ele>187.2</ele>
        <time>2020-07-12T06:55:41Z</time>
      </trkpt>
      <trkpt lat="46.53822" lon="2.60568">
        <ele>187.3</ele>
        <time>2020-07-12T06:55:42Z</time>
      </trkpt>
      <trkpt lat="46.53826" lon="2.60564">
        <ele>187.1</ele>
        <time>2020-07-12T06:55:43Z</time>
      </trkpt>
      <trkpt lat="46.5383" lon="2.60561">
        <ele>186.9</ele>
        <time>2020-07-12T06:55:44Z</time>
      </trkpt>
      <trkpt lat="46.53834" lon="2.60557">
        <ele>186.8</ele>
        <time>2020-07-12T06:55:45Z</time>
      </trkpt>
      <trkpt lat="46.53838" lon="2.60554">
        <ele>187.3</ele>
        <time>2020-07-12T06:55:46Z</time>
      </trkpt>
      <trkpt lat="46.53842" lon="2.60551">
        <ele>187.7</ele>
        <time>2020-07-12T06:55:47Z</time>
      </trkpt>
      <trkpt lat="46.53846" lon="2.60548">
        <ele>187.4</ele>
        <time>2020-07-12T06:55:48Z</time>
      </trkpt>
      <trkpt lat="46.53851" lon="2.60545">
        <ele>187.2</ele>
        <time>2020-07-12T06:55:49Z</time>
      </trkpt>
      <trkpt lat="46.53855" lon="2.60542">
        <ele>187.3</ele>
        <time>2020-07-12T06:55:50Z</time>
      </trkpt>
      <trkpt lat="46.53859" lon="2.60538">
        <ele>187.3</ele>
        <time>2020-07-12T06:55:51Z</time>
      </trkpt>
      <trkpt lat="46.53863" lon="2.60535">
        <ele>187.4</ele>
        <time>2020-07-12T06:55:52Z</time>
      </trkpt>
      <trkpt lat="46.53867" lon="2.60532">
        <ele>187.7</ele>
        <time>2020-07-12T06:55:53Z</time>
      </trkpt>
      <trkpt lat="46.53871" lon="2.60529">
        <ele>187.9</ele>
        <time>2020-07-12T06:55:54Z</time>
      </trkpt>
      <trkpt lat="46.53876" lon="2.60525">
        <ele>187.8</ele>
        <time>2020-07-12T06:55:55Z</time>
      </trkpt>
      <trkpt lat="46.5388" lon="2.60522">
        <ele>187.8</ele>
        <time>2020-07-12T06:55:56Z</time>
      </trkpt>
      <trkpt lat="46.53884" lon="2.60519">
        <ele>187.8</ele>
        <time>2020-07-12T06:55:57Z</time>
      </trkpt>
      <trkpt lat="46.53888" lon="2.60516">
        <ele>187.8</ele>
        <time>2020-07-12T06:55:58Z</time>
      </trkpt>
      <trkpt lat="46.53892" lon="2.60513">
        <ele>187.8</ele>
        <time>2020-07-12T06:55:59Z</time>
      </trkpt>
      <trkpt lat="46.53897" lon="2.60509">
        <ele>187.7</ele>
        <time>2020-07-12T06:56:00Z</time>
      </trkpt>
      <trkpt lat="46.53901" lon="2.60506">
        <ele>187.7</ele>
        <time>2020-07-12T06:56:01Z</time>
      </trkpt>
      <trkpt lat="46.53905" lon="2.60503">
        <ele>187.2</ele>
        <time>2020-07-12T06:56:02Z</time>
      </trkpt>
      <trkpt lat="46.53909" lon="2.605">
        <ele>186.9</ele>
        <time>2020-07-12T06:56:03Z</time>
      </trkpt>
      <trkpt lat="46.53913" lon="2.60496">
        <ele>186.7</ele>
        <time>2020-07-12T06:56:04Z</time>
      </trkpt>
      <trkpt lat="46.53917" lon="2.60493">
        <ele>186.6</ele>
        <time>2020-07-12T06:56:05Z</time>
      </trkpt>
      <trkpt lat="46.53921" lon="2.60489">
        <ele>186.6</ele>
        <time>2020-07-12T06:56:06Z</time>
      </trkpt>
      <trkpt lat="46.53925" lon="2.60486">
        <ele>186.8</ele>
        <time>2020-07-12T06:56:07Z</time>
      </trkpt>
      <trkpt lat="46.5393" lon="2.60483">
        <ele>186.9</ele>
        <time>2020-07-12T06:56:08Z</time>
      </trkpt>
      <trkpt lat="46.53934" lon="2.6048">
        <ele>186.7</ele>
        <time>2020-07-12T06:56:09Z</time>
      </trkpt>
      <trkpt lat="46.53938" lon="2.60476">
        <ele>186.5</ele>
        <time>2020-07-12T06:56:10Z</time>
      </trkpt>
      <trkpt lat="46.53942" lon="2.60473">
        <ele>186.4</ele>
        <time>2020-07-12T06:56:11Z</time>
      </trkpt>
      <trkpt lat="46.53947" lon="2.6047">
        <ele>186.4</ele>
        <time>2020-07-12T06:56:12Z</time>
      </trkpt>
      <trkpt lat="46.53952" lon="2.60466">
        <ele>186.5</ele>
        <time>2020-07-12T06:56:13Z</time>
      </trkpt>
      <trkpt lat="46.53956" lon="2.60463">
        <ele>186.6</ele>
        <time>2020-07-12T06:56:14Z</time>
      </trkpt>
      <trkpt lat="46.53961" lon="2.60459">
        <ele>186.6</ele>
        <time>2020-07-12T06:56:15Z</time>
      </trkpt>
      <trkpt lat="46.53965" lon="2.60456">
        <ele>186.2</ele>
        <time>2020-07-12T06:56:16Z</time>
      </trkpt>
      <trkpt lat="46.5397" lon="2.60453">
        <ele>185.9</ele>
        <time>2020-07-12T06:56:17Z</time>
      </trkpt>
      <trkpt lat="46.53975" lon="2.6045">
        <ele>185.7</ele>
        <time>2020-07-12T06:56:18Z</time>
      </trkpt>
      <trkpt lat="46.53979" lon="2.60446">
        <ele>185.9</ele>
        <time>2020-07-12T06:56:19Z</time>
      </trkpt>
      <trkpt lat="46.53984" lon="2.60443">
        <ele>186.1</ele>
        <time>2020-07-12T06:56:20Z</time>
      </trkpt>
      <trkpt lat="46.53988" lon="2.6044">
        <ele>186.2</ele>
        <time>2020-07-12T06:56:21Z</time>
      </trkpt>
      <trkpt lat="46.53993" lon="2.60436">
        <ele>186.3</ele>
        <time>2020-07-12T06:56:22Z</time>
      </trkpt>
      <trkpt lat="46.53998" lon="2.60432">
        <ele>186.4</ele>
        <time>2020-07-12T06:56:23Z</time>
      </trkpt>
      <trkpt lat="46.54002" lon="2.60429">
        <ele>186.2</ele>
        <time>2020-07-12T06:56:24Z</time>
      </trkpt>
      <trkpt lat="46.54007" lon="2.60425">
        <ele>186.1</ele>
        <time>2020-07-12T06:56:25Z</time>
      </trkpt>
      <trkpt lat="46.54011" lon="2.60422">
        <ele>186</ele>
        <time>2020-07-12T06:56:26Z</time>
      </trkpt>
      <trkpt lat="46.54016" lon="2.60419">
        <ele>185.9</ele>
        <time>2020-07-12T06:56:27Z</time>
      </trkpt>
      <trkpt lat="46.5402" lon="2.60416">
        <ele>185.9</ele>
        <time>2020-07-12T06:56:28Z</time>
      </trkpt>
      <trkpt lat="46.54024" lon="2.60412">
        <ele>185.9</ele>
        <time>2020-07-12T06:56:29Z</time>
      </trkpt>
      <trkpt lat="46.54029" lon="2.60409">
        <ele>186</ele>
        <time>2020-07-12T06:56:30Z</time>
      </trkpt>
      <trkpt lat="46.54033" lon="2.60406">
        <ele>185.8</ele>
        <time>2020-07-12T06:56:31Z</time>
      </trkpt>
      <trkpt lat="46.54037" lon="2.60402">
        <ele>185.7</ele>
        <time>2020-07-12T06:56:32Z</time>
      </trkpt>
      <trkpt lat="46.54042" lon="2.60399">
        <ele>185.8</ele>
        <time>2020-07-12T06:56:33Z</time>
      </trkpt>
      <trkpt lat="46.54046" lon="2.60396">
        <ele>185.9</ele>
        <time>2020-07-12T06:56:34Z</time>
      </trkpt>
      <trkpt lat="46.5405" lon="2.60393">
        <ele>185.6</ele>
        <time>2020-07-12T06:56:35Z</time>
      </trkpt>
      <trkpt lat="46.54054" lon="2.6039">
        <ele>185.4</ele>
        <time>2020-07-12T06:56:36Z</time>
      </trkpt>
      <trkpt lat="46.54058" lon="2.60386">
        <ele>185.3</ele>
        <time>2020-07-12T06:56:37Z</time>
      </trkpt>
      <trkpt lat="46.54063" lon="2.60383">
        <ele>185.4</ele>
        <time>2020-07-12T06:56:38Z</time>
      </trkpt>
      <trkpt lat="46.54067" lon="2.6038">
        <ele>185.5</ele>
        <time>2020-07-12T06:56:39Z</time>
      </trkpt>
      <trkpt lat="46.54071" lon="2.60377">
        <ele>185.9</ele>
        <time>2020-07-12T06:56:40Z</time>
      </trkpt>
      <trkpt lat="46.54075" lon="2.60374">
        <ele>186.2</ele>
        <time>2020-07-12T06:56:41Z</time>
      </trkpt>
      <trkpt lat="46.54079" lon="2.60371">
        <ele>186.4</ele>
        <time>2020-07-12T06:56:42Z</time>
      </trkpt>
      <trkpt lat="46.54083" lon="2.60368">
        <ele>186.5</ele>
        <time>2020-07-12T06:56:43Z</time>
      </trkpt>
      <trkpt lat="46.54087" lon="2.60365">
        <ele>186.7</ele>
        <time>2020-07-12T06:56:44Z</time>
      </trkpt>
      <trkpt lat="46.54091" lon="2.60362">
        <ele>186.7</ele>
        <time>2020-07-12T06:56:45Z</time>
      </trkpt>
      <trkpt lat="46.54095" lon="2.60358">
        <ele>186.7</ele>
        <time>2020-07-12T06:56:46Z</time>
      </trkpt>
      <trkpt lat="46.541" lon="2.60355">
        <ele>186.7</ele>
        <time>2020-07-12T06:56:47Z</time>
      </trkpt>
      <trkpt lat="46.54104" lon="2.60352">
        <ele>186.7</ele>
        <time>2020-07-12T06:56:48Z</time>
      </trkpt>
      <trkpt lat="46.54108" lon="2.60349">
        <ele>186.8</ele>
        <time>2020-07-12T06:56:49Z</time>
      </trkpt>
      <trkpt lat="46.54113" lon="2.60347">
        <ele>186.8</ele>
        <time>2020-07-12T06:56:50Z</time>
      </trkpt>
      <trkpt lat="46.54118" lon="2.60347">
        <ele>186.9</ele>
        <time>2020-07-12T06:56:51Z</time>
      </trkpt>
      <trkpt lat="46.54122" lon="2.6035">
        <ele>186.9</ele>
        <time>2020-07-12T06:56:52Z</time>
      </trkpt>
      <trkpt lat="46.54126" lon="2.60356">
        <ele>186.8</ele>
        <time>2020-07-12T06:56:53Z</time>
      </trkpt>
      <trkpt lat="46.54128" lon="2.60361">
        <ele>186.5</ele>
        <time>2020-07-12T06:56:54Z</time>
      </trkpt>
      <trkpt lat="46.5413" lon="2.60367">
        <ele>186.3</ele>
        <time>2020-07-12T06:56:55Z</time>
      </trkpt>
      <trkpt lat="46.54133" lon="2.60374">
        <ele>186.2</ele>
        <time>2020-07-12T06:56:56Z</time>
      </trkpt>
      <trkpt lat="46.54135" lon="2.6038">
        <ele>186.1</ele>
        <time>2020-07-12T06:56:57Z</time>
      </trkpt>
      <trkpt lat="46.54137" lon="2.60387">
        <ele>186</ele>
        <time>2020-07-12T06:56:58Z</time>
      </trkpt>
      <trkpt lat="46.54139" lon="2.60393">
        <ele>185.9</ele>
        <time>2020-07-12T06:56:59Z</time>
      </trkpt>
      <trkpt lat="46.54141" lon="2.604">
        <ele>185.8</ele>
        <time>2020-07-12T06:57:00Z</time>
      </trkpt>
      <trkpt lat="46.54143" lon="2.60406">
        <ele>185.7</ele>
        <time>2020-07-12T06:57:01Z</time>
      </trkpt>
      <trkpt lat="46.54146" lon="2.60412">
        <ele>186.3</ele>
        <time>2020-07-12T06:57:02Z</time>
      </trkpt>
      <trkpt lat="46.54148" lon="2.60418">
        <ele>186.7</ele>
        <time>2020-07-12T06:57:03Z</time>
      </trkpt>
      <trkpt lat="46.54151" lon="2.60424">
        <ele>187</ele>
        <time>2020-07-12T06:57:04Z</time>
      </trkpt>
      <trkpt lat="46.54154" lon="2.6043">
        <ele>187.3</ele>
        <time>2020-07-12T06:57:05Z</time>
      </trkpt>
      <trkpt lat="46.54158" lon="2.60435">
        <ele>187.1</ele>
        <time>2020-07-12T06:57:06Z</time>
      </trkpt>
      <trkpt lat="46.54162" lon="2.60439">
        <ele>187.1</ele>
        <time>2020-07-12T06:57:07Z</time>
      </trkpt>
      <trkpt lat="46.54167" lon="2.60442">
        <ele>187</ele>
        <time>2020-07-12T06:57:08Z</time>
      </trkpt>
      <trkpt lat="46.54171" lon="2.60444">
        <ele>186.8</ele>
        <time>2020-07-12T06:57:09Z</time>
      </trkpt>
      <trkpt lat="46.54176" lon="2.60444">
        <ele>186.6</ele>
        <time>2020-07-12T06:57:10Z</time>
      </trkpt>
      <trkpt lat="46.54181" lon="2.60443">
        <ele>186.5</ele>
        <time>2020-07-12T06:57:11Z</time>
      </trkpt>
      <trkpt lat="46.54186" lon="2.60441">
        <ele>186.4</ele>
        <time>2020-07-12T06:57:12Z</time>
      </trkpt>
      <trkpt lat="46.54191" lon="2.60439">
        <ele>186</ele>
        <time>2020-07-12T06:57:13Z</time>
      </trkpt>
      <trkpt lat="46.54196" lon="2.60436">
        <ele>185.7</ele>
        <time>2020-07-12T06:57:14Z</time>
      </trkpt>
      <trkpt lat="46.54201" lon="2.60434">
        <ele>185.5</ele>
        <time>2020-07-12T06:57:15Z</time>
      </trkpt>
      <trkpt lat="46.54206" lon="2.60432">
        <ele>185.7</ele>
        <time>2020-07-12T06:57:16Z</time>
      </trkpt>
      <trkpt lat="46.54212" lon="2.6043">
        <ele>185.9</ele>
        <time>2020-07-12T06:57:17Z</time>
      </trkpt>
      <trkpt lat="46.54217" lon="2.60428">
        <ele>185.6</ele>
        <time>2020-07-12T06:57:18Z</time>
      </trkpt>
      <trkpt lat="46.54222" lon="2.60426">
        <ele>185.4</ele>
        <time>2020-07-12T06:57:19Z</time>
      </trkpt>
      <trkpt lat="46.54227" lon="2.60424">
        <ele>185.2</ele>
        <time>2020-07-12T06:57:20Z</time>
      </trkpt>
      <trkpt lat="46.54232" lon="2.60423">
        <ele>185.2</ele>
        <time>2020-07-12T06:57:21Z</time>
      </trkpt>
      <trkpt lat="46.54237" lon="2.60421">
        <ele>185.2</ele>
        <time>2020-07-12T06:57:22Z</time>
      </trkpt>
      <trkpt lat="46.54242" lon="2.60419">
        <ele>185.2</ele>
        <time>2020-07-12T06:57:23Z</time>
      </trkpt>
      <trkpt lat="46.54248" lon="2.60418">
        <ele>185.2</ele>
        <time>2020-07-12T06:57:24Z</time>
      </trkpt>
      <trkpt lat="46.54253" lon="2.60416">
        <ele>185.2</ele>
        <time>2020-07-12T06:57:25Z</time>
      </trkpt>
      <trkpt lat="46.54258" lon="2.60415">
        <ele>185.3</ele>
        <time>2020-07-12T06:57:26Z</time>
      </trkpt>
      <trkpt lat="46.54263" lon="2.60414">
        <ele>185.3</ele>
        <time>2020-07-12T06:57:27Z</time>
      </trkpt>
      <trkpt lat="46.54269" lon="2.60412">
        <ele>185.4</ele>
        <time>2020-07-12T06:57:28Z</time>
      </trkpt>
      <trkpt lat="46.54274" lon="2.60411">
        <ele>185.4</ele>
        <time>2020-07-12T06:57:29Z</time>
      </trkpt>
      <trkpt lat="46.54279" lon="2.6041">
        <ele>185.5</ele>
        <time>2020-07-12T06:57:30Z</time>
      </trkpt>
      <trkpt lat="46.54285" lon="2.60408">
        <ele>185.6</ele>
        <time>2020-07-12T06:57:31Z</time>
      </trkpt>
      <trkpt lat="46.5429" lon="2.60407">
        <ele>185.2</ele>
        <time>2020-07-12T06:57:32Z</time>
      </trkpt>
      <trkpt lat="46.54295" lon="2.60406">
        <ele>184.9</ele>
        <time>2020-07-12T06:57:33Z</time>
      </trkpt>
      <trkpt lat="46.543" lon="2.60405">
        <ele>184.7</ele>
        <time>2020-07-12T06:57:34Z</time>
      </trkpt>
      <trkpt lat="46.54305" lon="2.60403">
        <ele>184.9</ele>
        <time>2020-07-12T06:57:35Z</time>
      </trkpt>
      <trkpt lat="46.5431" lon="2.60402">
        <ele>185.1</ele>
        <time>2020-07-12T06:57:36Z</time>
      </trkpt>
      <trkpt lat="46.54315" lon="2.60401">
        <ele>185.4</ele>
        <time>2020-07-12T06:57:37Z</time>
      </trkpt>
      <trkpt lat="46.5432" lon="2.604">
        <ele>185.7</ele>
        <time>2020-07-12T06:57:38Z</time>
      </trkpt>
      <trkpt lat="46.54325" lon="2.60399">
        <ele>185.9</ele>
        <time>2020-07-12T06:57:39Z</time>
      </trkpt>
      <trkpt lat="46.5433" lon="2.60398">
        <ele>185.5</ele>
        <time>2020-07-12T06:57:40Z</time>
      </trkpt>
      <trkpt lat="46.54335" lon="2.60397">
        <ele>185.2</ele>
        <time>2020-07-12T06:57:41Z</time>
      </trkpt>
      <trkpt lat="46.54339" lon="2.60396">
        <ele>185.1</ele>
        <time>2020-07-12T06:57:42Z</time>
      </trkpt>
      <trkpt lat="46.54344" lon="2.60395">
        <ele>185</ele>
        <time>2020-07-12T06:57:43Z</time>
      </trkpt>
      <trkpt lat="46.54349" lon="2.60394">
        <ele>185</ele>
        <time>2020-07-12T06:57:44Z</time>
      </trkpt>
      <trkpt lat="46.54354" lon="2.60394">
        <ele>184.9</ele>
        <time>2020-07-12T06:57:45Z</time>
      </trkpt>
      <trkpt lat="46.54359" lon="2.60393">
        <ele>184.9</ele>
        <time>2020-07-12T06:57:46Z</time>
      </trkpt>
      <trkpt lat="46.54364" lon="2.60393">
        <ele>185</ele>
        <time>2020-07-12T06:57:47Z</time>
      </trkpt>
      <trkpt lat="46.54369" lon="2.60393">
        <ele>185.1</ele>
        <time>2020-07-12T06:57:48Z</time>
      </trkpt>
      <trkpt lat="46.54374" lon="2.60392">
        <ele>184.9</ele>
        <time>2020-07-12T06:57:49Z</time>
      </trkpt>
      <trkpt lat="46.54379" lon="2.60392">
        <ele>184.7</ele>
        <time>2020-07-12T06:57:50Z</time>
      </trkpt>
      <trkpt lat="46.54384" lon="2.60392">
        <ele>184.7</ele>
        <time>2020-07-12T06:57:51Z</time>
      </trkpt>
      <trkpt lat="46.54388" lon="2.60392">
        <ele>184.6</ele>
        <time>2020-07-12T06:57:52Z</time>
      </trkpt>
      <trkpt lat="46.54393" lon="2.60392">
        <ele>184.6</ele>
        <time>2020-07-12T06:57:53Z</time>
      </trkpt>
      <trkpt lat="46.54398" lon="2.60392">
        <ele>184.2</ele>
        <time>2020-07-12T06:57:54Z</time>
      </trkpt>
      <trkpt lat="46.54403" lon="2.60393">
        <ele>184</ele>
        <time>2020-07-12T06:57:55Z</time>
      </trkpt>
      <trkpt lat="46.54407" lon="2.60393">
        <ele>184.1</ele>
        <time>2020-07-12T06:57:56Z</time>
      </trkpt>
      <trkpt lat="46.54412" lon="2.60394">
        <ele>184.2</ele>
        <time>2020-07-12T06:57:57Z</time>
      </trkpt>
      <trkpt lat="46.54417" lon="2.60394">
        <ele>184.4</ele>
        <time>2020-07-12T06:57:58Z</time>
      </trkpt>
      <trkpt lat="46.54422" lon="2.60395">
        <ele>184.6</ele>
        <time>2020-07-12T06:57:59Z</time>
      </trkpt>
      <trkpt lat="46.54427" lon="2.60396">
        <ele>184.7</ele>
        <time>2020-07-12T06:58:00Z</time>
      </trkpt>
      <trkpt lat="46.54431" lon="2.60396">
        <ele>184.5</ele>
        <time>2020-07-12T06:58:01Z</time>
      </trkpt>
      <trkpt lat="46.54436" lon="2.60397">
        <ele>184.3</ele>
        <time>2020-07-12T06:58:02Z</time>
      </trkpt>
      <trkpt lat="46.54441" lon="2.60398">
        <ele>183.9</ele>
        <time>2020-07-12T06:58:03Z</time>
      </trkpt>
      <trkpt lat="46.54446" lon="2.60399">
        <ele>183.6</ele>
        <time>2020-07-12T06:58:04Z</time>
      </trkpt>
      <trkpt lat="46.5445" lon="2.60399">
        <ele>183.3</ele>
        <time>2020-07-12T06:58:05Z</time>
      </trkpt>
      <trkpt lat="46.54455" lon="2.604">
        <ele>183.4</ele>
        <time>2020-07-12T06:58:06Z</time>
      </trkpt>
      <trkpt lat="46.54459" lon="2.604">
        <ele>183.5</ele>
        <time>2020-07-12T06:58:07Z</time>
      </trkpt>
      <trkpt lat="46.54464" lon="2.60401">
        <ele>183.8</ele>
        <time>2020-07-12T06:58:08Z</time>
      </trkpt>
      <trkpt lat="46.54469" lon="2.60402">
        <ele>184</ele>
        <time>2020-07-12T06:58:09Z</time>
      </trkpt>
      <trkpt lat="46.54473" lon="2.60402">
        <ele>184.2</ele>
        <time>2020-07-12T06:58:10Z</time>
      </trkpt>
      <trkpt lat="46.54478" lon="2.60403">
        <ele>184.3</ele>
        <time>2020-07-12T06:58:11Z</time>
      </trkpt>
      <trkpt lat="46.54483" lon="2.60404">
        <ele>184.4</ele>
        <time>2020-07-12T06:58:12Z</time>
      </trkpt>
      <trkpt lat="46.54487" lon="2.60405">
        <ele>184.3</ele>
        <time>2020-07-12T06:58:13Z</time>
      </trkpt>
      <trkpt lat="46.54496" lon="2.60407">
        <ele>183.7</ele>
        <time>2020-07-12T06:58:15Z</time>
      </trkpt>
      <trkpt lat="46.54504" lon="2.60409">
        <ele>183.5</ele>
        <time>2020-07-12T06:58:17Z</time>
      </trkpt>
      <trkpt lat="46.54513" lon="2.6041">
        <ele>183.7</ele>
        <time>2020-07-12T06:58:19Z</time>
      </trkpt>
      <trkpt lat="46.54521" lon="2.60412">
        <ele>183.6</ele>
        <time>2020-07-12T06:58:21Z</time>
      </trkpt>
      <trkpt lat="46.5453" lon="2.60414">
        <ele>184.6</ele>
        <time>2020-07-12T06:58:23Z</time>
      </trkpt>
      <trkpt lat="46.54539" lon="2.60416">
        <ele>184.4</ele>
        <time>2020-07-12T06:58:25Z</time>
      </trkpt>
      <trkpt lat="46.54547" lon="2.60419">
        <ele>184.4</ele>
        <time>2020-07-12T06:58:27Z</time>
      </trkpt>
      <trkpt lat="46.54551" lon="2.60419">
        <ele>184.7</ele>
        <time>2020-07-12T06:58:28Z</time>
      </trkpt>
      <trkpt lat="46.54562" lon="2.60423">
        <ele>185</ele>
        <time>2020-07-12T06:58:31Z</time>
      </trkpt>
      <trkpt lat="46.54571" lon="2.60425">
        <ele>185.1</ele>
        <time>2020-07-12T06:58:33Z</time>
      </trkpt>
      <trkpt lat="46.5458" lon="2.60427">
        <ele>185.1</ele>
        <time>2020-07-12T06:58:35Z</time>
      </trkpt>
      <trkpt lat="46.54588" lon="2.6043">
        <ele>185.1</ele>
        <time>2020-07-12T06:58:37Z</time>
      </trkpt>
      <trkpt lat="46.54596" lon="2.60433">
        <ele>185.2</ele>
        <time>2020-07-12T06:58:39Z</time>
      </trkpt>
      <trkpt lat="46.546" lon="2.60434">
        <ele>185.3</ele>
        <time>2020-07-12T06:58:40Z</time>
      </trkpt>
      <trkpt lat="46.54605" lon="2.60436">
        <ele>184.8</ele>
        <time>2020-07-12T06:58:41Z</time>
      </trkpt>
      <trkpt lat="46.54609" lon="2.60439">
        <ele>184.5</ele>
        <time>2020-07-12T06:58:42Z</time>
      </trkpt>
      <trkpt lat="46.54618" lon="2.60443">
        <ele>183.5</ele>
        <time>2020-07-12T06:58:44Z</time>
      </trkpt>
      <trkpt lat="46.54622" lon="2.60446">
        <ele>183.2</ele>
        <time>2020-07-12T06:58:45Z</time>
      </trkpt>
      <trkpt lat="46.54627" lon="2.60449">
        <ele>184.1</ele>
        <time>2020-07-12T06:58:46Z</time>
      </trkpt>
      <trkpt lat="46.54632" lon="2.60453">
        <ele>184.7</ele>
        <time>2020-07-12T06:58:47Z</time>
      </trkpt>
      <trkpt lat="46.54637" lon="2.60456">
        <ele>184.2</ele>
        <time>2020-07-12T06:58:48Z</time>
      </trkpt>
      <trkpt lat="46.54642" lon="2.6046">
        <ele>183.8</ele>
        <time>2020-07-12T06:58:49Z</time>
      </trkpt>
      <trkpt lat="46.54646" lon="2.60464">
        <ele>183.5</ele>
        <time>2020-07-12T06:58:50Z</time>
      </trkpt>
      <trkpt lat="46.54651" lon="2.60468">
        <ele>183.7</ele>
        <time>2020-07-12T06:58:51Z</time>
      </trkpt>
      <trkpt lat="46.54655" lon="2.60472">
        <ele>183.8</ele>
        <time>2020-07-12T06:58:52Z</time>
      </trkpt>
      <trkpt lat="46.5466" lon="2.60476">
        <ele>183.8</ele>
        <time>2020-07-12T06:58:53Z</time>
      </trkpt>
      <trkpt lat="46.54665" lon="2.6048">
        <ele>183.8</ele>
        <time>2020-07-12T06:58:54Z</time>
      </trkpt>
      <trkpt lat="46.54669" lon="2.60484">
        <ele>183.2</ele>
        <time>2020-07-12T06:58:55Z</time>
      </trkpt>
      <trkpt lat="46.54672" lon="2.60488">
        <ele>182.8</ele>
        <time>2020-07-12T06:58:56Z</time>
      </trkpt>
      <trkpt lat="46.54677" lon="2.60492">
        <ele>182.4</ele>
        <time>2020-07-12T06:58:57Z</time>
      </trkpt>
      <trkpt lat="46.54681" lon="2.60496">
        <ele>182.2</ele>
        <time>2020-07-12T06:58:58Z</time>
      </trkpt>
      <trkpt lat="46.54685" lon="2.605">
        <ele>182</ele>
        <time>2020-07-12T06:58:59Z</time>
      </trkpt>
      <trkpt lat="46.5469" lon="2.60504">
        <ele>182</ele>
        <time>2020-07-12T06:59:00Z</time>
      </trkpt>
      <trkpt lat="46.54694" lon="2.60508">
        <ele>181.9</ele>
        <time>2020-07-12T06:59:01Z</time>
      </trkpt>
      <trkpt lat="46.54699" lon="2.60512">
        <ele>181.8</ele>
        <time>2020-07-12T06:59:02Z</time>
      </trkpt>
      <trkpt lat="46.54704" lon="2.60515">
        <ele>181.8</ele>
        <time>2020-07-12T06:59:03Z</time>
      </trkpt>
      <trkpt lat="46.54709" lon="2.60519">
        <ele>181.7</ele>
        <time>2020-07-12T06:59:04Z</time>
      </trkpt>
      <trkpt lat="46.54714" lon="2.60522">
        <ele>181.3</ele>
        <time>2020-07-12T06:59:05Z</time>
      </trkpt>
      <trkpt lat="46.54718" lon="2.60525">
        <ele>181</ele>
        <time>2020-07-12T06:59:06Z</time>
      </trkpt>
      <trkpt lat="46.54723" lon="2.60527">
        <ele>181</ele>
        <time>2020-07-12T06:59:07Z</time>
      </trkpt>
      <trkpt lat="46.54728" lon="2.6053">
        <ele>181</ele>
        <time>2020-07-12T06:59:08Z</time>
      </trkpt>
      <trkpt lat="46.54732" lon="2.60532">
        <ele>181</ele>
        <time>2020-07-12T06:59:09Z</time>
      </trkpt>
      <trkpt lat="46.54737" lon="2.60534">
        <ele>181.2</ele>
        <time>2020-07-12T06:59:10Z</time>
      </trkpt>
      <trkpt lat="46.54742" lon="2.60536">
        <ele>181.3</ele>
        <time>2020-07-12T06:59:11Z</time>
      </trkpt>
      <trkpt lat="46.54747" lon="2.60537">
        <ele>181.2</ele>
        <time>2020-07-12T06:59:12Z</time>
      </trkpt>
      <trkpt lat="46.54752" lon="2.60538">
        <ele>181.2</ele>
        <time>2020-07-12T06:59:13Z</time>
      </trkpt>
      <trkpt lat="46.54757" lon="2.60539">
        <ele>181.1</ele>
        <time>2020-07-12T06:59:14Z</time>
      </trkpt>
      <trkpt lat="46.54762" lon="2.6054">
        <ele>181</ele>
        <time>2020-07-12T06:59:15Z</time>
      </trkpt>
      <trkpt lat="46.54767" lon="2.60541">
        <ele>180.9</ele>
        <time>2020-07-12T06:59:16Z</time>
      </trkpt>
      <trkpt lat="46.54771" lon="2.60541">
        <ele>180.7</ele>
        <time>2020-07-12T06:59:17Z</time>
      </trkpt>
      <trkpt lat="46.54776" lon="2.60542">
        <ele>180.5</ele>
        <time>2020-07-12T06:59:18Z</time>
      </trkpt>
      <trkpt lat="46.54781" lon="2.60542">
        <ele>180.7</ele>
        <time>2020-07-12T06:59:19Z</time>
      </trkpt>
      <trkpt lat="46.54786" lon="2.60542">
        <ele>180.8</ele>
        <time>2020-07-12T06:59:20Z</time>
      </trkpt>
      <trkpt lat="46.54791" lon="2.60543">
        <ele>180.6</ele>
        <time>2020-07-12T06:59:21Z</time>
      </trkpt>
      <trkpt lat="46.54796" lon="2.60544">
        <ele>180.5</ele>
        <time>2020-07-12T06:59:22Z</time>
      </trkpt>
      <trkpt lat="46.548" lon="2.60545">
        <ele>180.4</ele>
        <time>2020-07-12T06:59:23Z</time>
      </trkpt>
      <trkpt lat="46.54805" lon="2.60545">
        <ele>180.7</ele>
        <time>2020-07-12T06:59:24Z</time>
      </trkpt>
      <trkpt lat="46.5481" lon="2.60546">
        <ele>181</ele>
        <time>2020-07-12T06:59:25Z</time>
      </trkpt>
      <trkpt lat="46.54815" lon="2.60547">
        <ele>181.4</ele>
        <time>2020-07-12T06:59:26Z</time>
      </trkpt>
      <trkpt lat="46.5482" lon="2.60547">
        <ele>181.7</ele>
        <time>2020-07-12T06:59:27Z</time>
      </trkpt>
      <trkpt lat="46.54825" lon="2.60548">
        <ele>181.9</ele>
        <time>2020-07-12T06:59:28Z</time>
      </trkpt>
      <trkpt lat="46.5483" lon="2.60548">
        <ele>182.1</ele>
        <time>2020-07-12T06:59:29Z</time>
      </trkpt>
      <trkpt lat="46.54835" lon="2.60548">
        <ele>182.3</ele>
        <time>2020-07-12T06:59:30Z</time>
      </trkpt>
      <trkpt lat="46.5484" lon="2.60549">
        <ele>182.1</ele>
        <time>2020-07-12T06:59:31Z</time>
      </trkpt>
      <trkpt lat="46.54845" lon="2.60549">
        <ele>182</ele>
        <time>2020-07-12T06:59:32Z</time>
      </trkpt>
      <trkpt lat="46.5485" lon="2.60549">
        <ele>181.5</ele>
        <time>2020-07-12T06:59:33Z</time>
      </trkpt>
      <trkpt lat="46.54855" lon="2.6055">
        <ele>181.1</ele>
        <time>2020-07-12T06:59:34Z</time>
      </trkpt>
      <trkpt lat="46.5486" lon="2.6055">
        <ele>180.8</ele>
        <time>2020-07-12T06:59:35Z</time>
      </trkpt>
      <trkpt lat="46.54864" lon="2.6055">
        <ele>180.8</ele>
        <time>2020-07-12T06:59:36Z</time>
      </trkpt>
      <trkpt lat="46.54869" lon="2.6055">
        <ele>180.9</ele>
        <time>2020-07-12T06:59:37Z</time>
      </trkpt>
      <trkpt lat="46.54874" lon="2.6055">
        <ele>181.3</ele>
        <time>2020-07-12T06:59:38Z</time>
      </trkpt>
      <trkpt lat="46.54879" lon="2.6055">
        <ele>181.7</ele>
        <time>2020-07-12T06:59:39Z</time>
      </trkpt>
      <trkpt lat="46.54884" lon="2.6055">
        <ele>182</ele>
        <time>2020-07-12T06:59:40Z</time>
      </trkpt>
      <trkpt lat="46.54889" lon="2.60549">
        <ele>181.7</ele>
        <time>2020-07-12T06:59:41Z</time>
      </trkpt>
      <trkpt lat="46.54894" lon="2.60549">
        <ele>181.4</ele>
        <time>2020-07-12T06:59:42Z</time>
      </trkpt>
      <trkpt lat="46.54899" lon="2.60549">
        <ele>181.7</ele>
        <time>2020-07-12T06:59:43Z</time>
      </trkpt>
      <trkpt lat="46.54904" lon="2.60549">
        <ele>181.9</ele>
        <time>2020-07-12T06:59:44Z</time>
      </trkpt>
      <trkpt lat="46.54909" lon="2.60548">
        <ele>181.9</ele>
        <time>2020-07-12T06:59:45Z</time>
      </trkpt>
      <trkpt lat="46.54914" lon="2.60548">
        <ele>181.9</ele>
        <time>2020-07-12T06:59:46Z</time>
      </trkpt>
      <trkpt lat="46.54919" lon="2.60547">
        <ele>181.9</ele>
        <time>2020-07-12T06:59:47Z</time>
      </trkpt>
      <trkpt lat="46.54924" lon="2.60546">
        <ele>181.9</ele>
        <time>2020-07-12T06:59:48Z</time>
      </trkpt>
      <trkpt lat="46.54929" lon="2.60545">
        <ele>181.9</ele>
        <time>2020-07-12T06:59:49Z</time>
      </trkpt>
      <trkpt lat="46.54934" lon="2.60544">
        <ele>181.9</ele>
        <time>2020-07-12T06:59:50Z</time>
      </trkpt>
      <trkpt lat="46.54939" lon="2.60543">
        <ele>181.8</ele>
        <time>2020-07-12T06:59:51Z</time>
      </trkpt>
      <trkpt lat="46.54944" lon="2.60542">
        <ele>181.9</ele>
        <time>2020-07-12T06:59:52Z</time>
      </trkpt>
      <trkpt lat="46.5495" lon="2.60541">
        <ele>181.9</ele>
        <time>2020-07-12T06:59:53Z</time>
      </trkpt>
      <trkpt lat="46.54955" lon="2.6054">
        <ele>181.9</ele>
        <time>2020-07-12T06:59:54Z</time>
      </trkpt>
      <trkpt lat="46.5496" lon="2.60539">
        <ele>181.5</ele>
        <time>2020-07-12T06:59:55Z</time>
      </trkpt>
      <trkpt lat="46.54965" lon="2.60537">
        <ele>181.2</ele>
        <time>2020-07-12T06:59:56Z</time>
      </trkpt>
      <trkpt lat="46.5497" lon="2.60536">
        <ele>181.3</ele>
        <time>2020-07-12T06:59:57Z</time>
      </trkpt>
      <trkpt lat="46.54975" lon="2.60535">
        <ele>181.4</ele>
        <time>2020-07-12T06:59:58Z</time>
      </trkpt>
      <trkpt lat="46.5498" lon="2.60534">
        <ele>181.5</ele>
        <time>2020-07-12T06:59:59Z</time>
      </trkpt>
      <trkpt lat="46.54986" lon="2.60533">
        <ele>181.2</ele>
        <time>2020-07-12T07:00:00Z</time>
      </trkpt>
      <trkpt lat="46.54991" lon="2.60531">
        <ele>181.1</ele>
        <time>2020-07-12T07:00:01Z</time>
      </trkpt>
      <trkpt lat="46.54996" lon="2.6053">
        <ele>180.9</ele>
        <time>2020-07-12T07:00:02Z</time>
      </trkpt>
      <trkpt lat="46.55001" lon="2.60528">
        <ele>180.8</ele>
        <time>2020-07-12T07:00:03Z</time>
      </trkpt>
      <trkpt lat="46.55007" lon="2.60527">
        <ele>180.9</ele>
        <time>2020-07-12T07:00:04Z</time>
      </trkpt>
      <trkpt lat="46.55012" lon="2.60526">
        <ele>181</ele>
        <time>2020-07-12T07:00:05Z</time>
      </trkpt>
      <trkpt lat="46.55017" lon="2.60524">
        <ele>181.1</ele>
        <time>2020-07-12T07:00:06Z</time>
      </trkpt>
      <trkpt lat="46.55022" lon="2.60523">
        <ele>181</ele>
        <time>2020-07-12T07:00:07Z</time>
      </trkpt>
      <trkpt lat="46.55027" lon="2.60521">
        <ele>180.9</ele>
        <time>2020-07-12T07:00:08Z</time>
      </trkpt>
      <trkpt lat="46.55032" lon="2.6052">
        <ele>181.2</ele>
        <time>2020-07-12T07:00:09Z</time>
      </trkpt>
      <trkpt lat="46.55037" lon="2.60518">
        <ele>181.5</ele>
        <time>2020-07-12T07:00:10Z</time>
      </trkpt>
      <trkpt lat="46.55043" lon="2.60517">
        <ele>181.5</ele>
        <time>2020-07-12T07:00:11Z</time>
      </trkpt>
      <trkpt lat="46.55048" lon="2.60515">
        <ele>181.4</ele>
        <time>2020-07-12T07:00:12Z</time>
      </trkpt>
      <trkpt lat="46.55053" lon="2.60513">
        <ele>181.4</ele>
        <time>2020-07-12T07:00:13Z</time>
      </trkpt>
      <trkpt lat="46.55059" lon="2.60512">
        <ele>181.3</ele>
        <time>2020-07-12T07:00:14Z</time>
      </trkpt>
      <trkpt lat="46.55064" lon="2.6051">
        <ele>181.2</ele>
        <time>2020-07-12T07:00:15Z</time>
      </trkpt>
      <trkpt lat="46.55069" lon="2.60508">
        <ele>181.2</ele>
        <time>2020-07-12T07:00:16Z</time>
      </trkpt>
      <trkpt lat="46.55074" lon="2.60506">
        <ele>181.1</ele>
        <time>2020-07-12T07:00:17Z</time>
      </trkpt>
      <trkpt lat="46.55079" lon="2.60504">
        <ele>180.7</ele>
        <time>2020-07-12T07:00:18Z</time>
      </trkpt>
      <trkpt lat="46.55084" lon="2.60502">
        <ele>180.3</ele>
        <time>2020-07-12T07:00:19Z</time>
      </trkpt>
      <trkpt lat="46.55089" lon="2.605">
        <ele>180.1</ele>
        <time>2020-07-12T07:00:20Z</time>
      </trkpt>
      <trkpt lat="46.55095" lon="2.60498">
        <ele>180.6</ele>
        <time>2020-07-12T07:00:21Z</time>
      </trkpt>
      <trkpt lat="46.551" lon="2.60495">
        <ele>181</ele>
        <time>2020-07-12T07:00:22Z</time>
      </trkpt>
      <trkpt lat="46.55105" lon="2.60493">
        <ele>181.2</ele>
        <time>2020-07-12T07:00:23Z</time>
      </trkpt>
      <trkpt lat="46.5511" lon="2.60491">
        <ele>181.4</ele>
        <time>2020-07-12T07:00:24Z</time>
      </trkpt>
      <trkpt lat="46.55115" lon="2.60489">
        <ele>181.5</ele>
        <time>2020-07-12T07:00:25Z</time>
      </trkpt>
      <trkpt lat="46.5512" lon="2.60487">
        <ele>181.4</ele>
        <time>2020-07-12T07:00:26Z</time>
      </trkpt>
      <trkpt lat="46.55125" lon="2.60484">
        <ele>181.3</ele>
        <time>2020-07-12T07:00:27Z</time>
      </trkpt>
      <trkpt lat="46.5513" lon="2.60482">
        <ele>181.3</ele>
        <time>2020-07-12T07:00:28Z</time>
      </trkpt>
      <trkpt lat="46.55135" lon="2.6048">
        <ele>181.3</ele>
        <time>2020-07-12T07:00:29Z</time>
      </trkpt>
      <trkpt lat="46.5514" lon="2.60478">
        <ele>181</ele>
        <time>2020-07-12T07:00:30Z</time>
      </trkpt>
      <trkpt lat="46.55145" lon="2.60475">
        <ele>180.9</ele>
        <time>2020-07-12T07:00:31Z</time>
      </trkpt>
      <trkpt lat="46.5515" lon="2.60473">
        <ele>180.7</ele>
        <time>2020-07-12T07:00:32Z</time>
      </trkpt>
      <trkpt lat="46.55155" lon="2.60471">
        <ele>181</ele>
        <time>2020-07-12T07:00:33Z</time>
      </trkpt>
      <trkpt lat="46.5516" lon="2.60468">
        <ele>181.1</ele>
        <time>2020-07-12T07:00:34Z</time>
      </trkpt>
      <trkpt lat="46.55165" lon="2.60466">
        <ele>181</ele>
        <time>2020-07-12T07:00:35Z</time>
      </trkpt>
      <trkpt lat="46.5517" lon="2.60464">
        <ele>180.9</ele>
        <time>2020-07-12T07:00:36Z</time>
      </trkpt>
      <trkpt lat="46.55175" lon="2.60462">
        <ele>181.3</ele>
        <time>2020-07-12T07:00:37Z</time>
      </trkpt>
      <trkpt lat="46.55181" lon="2.60459">
        <ele>181.5</ele>
        <time>2020-07-12T07:00:38Z</time>
      </trkpt>
      <trkpt lat="46.55186" lon="2.60457">
        <ele>181.7</ele>
        <time>2020-07-12T07:00:39Z</time>
      </trkpt>
      <trkpt lat="46.55191" lon="2.60455">
        <ele>181.6</ele>
        <time>2020-07-12T07:00:40Z</time>
      </trkpt>
      <trkpt lat="46.55196" lon="2.60453">
        <ele>181.5</ele>
        <time>2020-07-12T07:00:41Z</time>
      </trkpt>
      <trkpt lat="46.55201" lon="2.6045">
        <ele>181.4</ele>
        <time>2020-07-12T07:00:42Z</time>
      </trkpt>
      <trkpt lat="46.55206" lon="2.60448">
        <ele>181.3</ele>
        <time>2020-07-12T07:00:43Z</time>
      </trkpt>
      <trkpt lat="46.5521" lon="2.60446">
        <ele>181.3</ele>
        <time>2020-07-12T07:00:44Z</time>
      </trkpt>
      <trkpt lat="46.55215" lon="2.60444">
        <ele>181.3</ele>
        <time>2020-07-12T07:00:45Z</time>
      </trkpt>
      <trkpt lat="46.5522" lon="2.60442">
        <ele>181.3</ele>
        <time>2020-07-12T07:00:46Z</time>
      </trkpt>
      <trkpt lat="46.55225" lon="2.6044">
        <ele>181.3</ele>
        <time>2020-07-12T07:00:47Z</time>
      </trkpt>
      <trkpt lat="46.5523" lon="2.60438">
        <ele>181.2</ele>
        <time>2020-07-12T07:00:48Z</time>
      </trkpt>
      <trkpt lat="46.55235" lon="2.60436">
        <ele>180.5</ele>
        <time>2020-07-12T07:00:49Z</time>
      </trkpt>
      <trkpt lat="46.5524" lon="2.60433">
        <ele>180</ele>
        <time>2020-07-12T07:00:50Z</time>
      </trkpt>
      <trkpt lat="46.55245" lon="2.60431">
        <ele>179.6</ele>
        <time>2020-07-12T07:00:51Z</time>
      </trkpt>
      <trkpt lat="46.5525" lon="2.60429">
        <ele>180</ele>
        <time>2020-07-12T07:00:52Z</time>
      </trkpt>
      <trkpt lat="46.55254" lon="2.60426">
        <ele>180.4</ele>
        <time>2020-07-12T07:00:53Z</time>
      </trkpt>
      <trkpt lat="46.55259" lon="2.60424">
        <ele>180.5</ele>
        <time>2020-07-12T07:00:54Z</time>
      </trkpt>
      <trkpt lat="46.55264" lon="2.60422">
        <ele>180.5</ele>
        <time>2020-07-12T07:00:55Z</time>
      </trkpt>
      <trkpt lat="46.55269" lon="2.6042">
        <ele>180.5</ele>
        <time>2020-07-12T07:00:56Z</time>
      </trkpt>
      <trkpt lat="46.55274" lon="2.60418">
        <ele>180.4</ele>
        <time>2020-07-12T07:00:57Z</time>
      </trkpt>
      <trkpt lat="46.55278" lon="2.60416">
        <ele>180.4</ele>
        <time>2020-07-12T07:00:58Z</time>
      </trkpt>
      <trkpt lat="46.55283" lon="2.60414">
        <ele>180.5</ele>
        <time>2020-07-12T07:00:59Z</time>
      </trkpt>
      <trkpt lat="46.55288" lon="2.60412">
        <ele>180.6</ele>
        <time>2020-07-12T07:01:00Z</time>
      </trkpt>
      <trkpt lat="46.55293" lon="2.60409">
        <ele>180.8</ele>
        <time>2020-07-12T07:01:01Z</time>
      </trkpt>
      <trkpt lat="46.55297" lon="2.60407">
        <ele>180.9</ele>
        <time>2020-07-12T07:01:02Z</time>
      </trkpt>
      <trkpt lat="46.55302" lon="2.60405">
        <ele>180.9</ele>
        <time>2020-07-12T07:01:03Z</time>
      </trkpt>
      <trkpt lat="46.55307" lon="2.60403">
        <ele>181.2</ele>
        <time>2020-07-12T07:01:04Z</time>
      </trkpt>
      <trkpt lat="46.55312" lon="2.60401">
        <ele>181.3</ele>
        <time>2020-07-12T07:01:05Z</time>
      </trkpt>
      <trkpt lat="46.55317" lon="2.60398">
        <ele>181.4</ele>
        <time>2020-07-12T07:01:06Z</time>
      </trkpt>
      <trkpt lat="46.55321" lon="2.60396">
        <ele>181.4</ele>
        <time>2020-07-12T07:01:07Z</time>
      </trkpt>
      <trkpt lat="46.55326" lon="2.60394">
        <ele>181.4</ele>
        <time>2020-07-12T07:01:08Z</time>
      </trkpt>
      <trkpt lat="46.55331" lon="2.60392">
        <ele>181.3</ele>
        <time>2020-07-12T07:01:09Z</time>
      </trkpt>
      <trkpt lat="46.55335" lon="2.6039">
        <ele>181.3</ele>
        <time>2020-07-12T07:01:10Z</time>
      </trkpt>
      <trkpt lat="46.5534" lon="2.60388">
        <ele>181.5</ele>
        <time>2020-07-12T07:01:11Z</time>
      </trkpt>
      <trkpt lat="46.55345" lon="2.60386">
        <ele>181.6</ele>
        <time>2020-07-12T07:01:12Z</time>
      </trkpt>
      <trkpt lat="46.55349" lon="2.60384">
        <ele>181.4</ele>
        <time>2020-07-12T07:01:13Z</time>
      </trkpt>
      <trkpt lat="46.55354" lon="2.60382">
        <ele>181.2</ele>
        <time>2020-07-12T07:01:14Z</time>
      </trkpt>
      <trkpt lat="46.55359" lon="2.6038">
        <ele>181</ele>
        <time>2020-07-12T07:01:15Z</time>
      </trkpt>
      <trkpt lat="46.55363" lon="2.60378">
        <ele>180.9</ele>
        <time>2020-07-12T07:01:16Z</time>
      </trkpt>
      <trkpt lat="46.55368" lon="2.60376">
        <ele>180.8</ele>
        <time>2020-07-12T07:01:17Z</time>
      </trkpt>
      <trkpt lat="46.55373" lon="2.60375">
        <ele>180.8</ele>
        <time>2020-07-12T07:01:18Z</time>
      </trkpt>
      <trkpt lat="46.55377" lon="2.60374">
        <ele>180.9</ele>
        <time>2020-07-12T07:01:19Z</time>
      </trkpt>
      <trkpt lat="46.55382" lon="2.60372">
        <ele>181.2</ele>
        <time>2020-07-12T07:01:20Z</time>
      </trkpt>
      <trkpt lat="46.55387" lon="2.60371">
        <ele>181.3</ele>
        <time>2020-07-12T07:01:21Z</time>
      </trkpt>
      <trkpt lat="46.55391" lon="2.60369">
        <ele>181.5</ele>
        <time>2020-07-12T07:01:22Z</time>
      </trkpt>
      <trkpt lat="46.55396" lon="2.60367">
        <ele>181.3</ele>
        <time>2020-07-12T07:01:23Z</time>
      </trkpt>
      <trkpt lat="46.554" lon="2.60366">
        <ele>181.2</ele>
        <time>2020-07-12T07:01:24Z</time>
      </trkpt>
      <trkpt lat="46.55405" lon="2.60364">
        <ele>181.2</ele>
        <time>2020-07-12T07:01:25Z</time>
      </trkpt>
      <trkpt lat="46.55409" lon="2.60362">
        <ele>181.2</ele>
        <time>2020-07-12T07:01:26Z</time>
      </trkpt>
      <trkpt lat="46.55414" lon="2.6036">
        <ele>181.3</ele>
        <time>2020-07-12T07:01:27Z</time>
      </trkpt>
      <trkpt lat="46.55418" lon="2.60358">
        <ele>181.3</ele>
        <time>2020-07-12T07:01:28Z</time>
      </trkpt>
      <trkpt lat="46.55423" lon="2.60356">
        <ele>181.3</ele>
        <time>2020-07-12T07:01:29Z</time>
      </trkpt>
      <trkpt lat="46.55428" lon="2.60354">
        <ele>181.4</ele>
        <time>2020-07-12T07:01:30Z</time>
      </trkpt>
      <trkpt lat="46.55432" lon="2.60352">
        <ele>181.4</ele>
        <time>2020-07-12T07:01:31Z</time>
      </trkpt>
      <trkpt lat="46.55437" lon="2.6035">
        <ele>181.4</ele>
        <time>2020-07-12T07:01:32Z</time>
      </trkpt>
      <trkpt lat="46.55442" lon="2.60348">
        <ele>181.4</ele>
        <time>2020-07-12T07:01:33Z</time>
      </trkpt>
      <trkpt lat="46.55446" lon="2.60346">
        <ele>181.5</ele>
        <time>2020-07-12T07:01:34Z</time>
      </trkpt>
      <trkpt lat="46.55451" lon="2.60344">
        <ele>181.6</ele>
        <time>2020-07-12T07:01:35Z</time>
      </trkpt>
      <trkpt lat="46.55456" lon="2.60342">
        <ele>181.6</ele>
        <time>2020-07-12T07:01:36Z</time>
      </trkpt>
      <trkpt lat="46.5546" lon="2.6034">
        <ele>181.6</ele>
        <time>2020-07-12T07:01:37Z</time>
      </trkpt>
      <trkpt lat="46.55465" lon="2.60338">
        <ele>181.6</ele>
        <time>2020-07-12T07:01:38Z</time>
      </trkpt>
      <trkpt lat="46.55469" lon="2.60336">
        <ele>181.6</ele>
        <time>2020-07-12T07:01:39Z</time>
      </trkpt>
      <trkpt lat="46.55473" lon="2.60334">
        <ele>181.6</ele>
        <time>2020-07-12T07:01:40Z</time>
      </trkpt>
      <trkpt lat="46.55478" lon="2.60332">
        <ele>181.9</ele>
        <time>2020-07-12T07:01:41Z</time>
      </trkpt>
      <trkpt lat="46.55482" lon="2.6033">
        <ele>182.1</ele>
        <time>2020-07-12T07:01:42Z</time>
      </trkpt>
      <trkpt lat="46.55487" lon="2.60328">
        <ele>182.3</ele>
        <time>2020-07-12T07:01:43Z</time>
      </trkpt>
      <trkpt lat="46.55492" lon="2.60326">
        <ele>182.2</ele>
        <time>2020-07-12T07:01:44Z</time>
      </trkpt>
      <trkpt lat="46.55496" lon="2.60324">
        <ele>182.2</ele>
        <time>2020-07-12T07:01:45Z</time>
      </trkpt>
      <trkpt lat="46.55501" lon="2.60322">
        <ele>182</ele>
        <time>2020-07-12T07:01:46Z</time>
      </trkpt>
      <trkpt lat="46.55505" lon="2.6032">
        <ele>181.8</ele>
        <time>2020-07-12T07:01:47Z</time>
      </trkpt>
      <trkpt lat="46.5551" lon="2.60318">
        <ele>181.7</ele>
        <time>2020-07-12T07:01:48Z</time>
      </trkpt>
      <trkpt lat="46.55514" lon="2.60316">
        <ele>181.9</ele>
        <time>2020-07-12T07:01:49Z</time>
      </trkpt>
      <trkpt lat="46.55519" lon="2.60314">
        <ele>182.1</ele>
        <time>2020-07-12T07:01:50Z</time>
      </trkpt>
      <trkpt lat="46.55523" lon="2.60312">
        <ele>181.9</ele>
        <time>2020-07-12T07:01:51Z</time>
      </trkpt>
      <trkpt lat="46.55528" lon="2.6031">
        <ele>181.8</ele>
        <time>2020-07-12T07:01:52Z</time>
      </trkpt>
      <trkpt lat="46.55533" lon="2.60308">
        <ele>181.6</ele>
        <time>2020-07-12T07:01:53Z</time>
      </trkpt>
      <trkpt lat="46.55537" lon="2.60306">
        <ele>181.4</ele>
        <time>2020-07-12T07:01:54Z</time>
      </trkpt>
      <trkpt lat="46.55542" lon="2.60303">
        <ele>181.3</ele>
        <time>2020-07-12T07:01:55Z</time>
      </trkpt>
      <trkpt lat="46.55546" lon="2.60301">
        <ele>181.1</ele>
        <time>2020-07-12T07:01:56Z</time>
      </trkpt>
      <trkpt lat="46.55551" lon="2.60299">
        <ele>181</ele>
        <time>2020-07-12T07:01:57Z</time>
      </trkpt>
      <trkpt lat="46.55555" lon="2.60297">
        <ele>181.3</ele>
        <time>2020-07-12T07:01:58Z</time>
      </trkpt>
      <trkpt lat="46.5556" lon="2.60295">
        <ele>181.6</ele>
        <time>2020-07-12T07:01:59Z</time>
      </trkpt>
      <trkpt lat="46.55564" lon="2.60293">
        <ele>181.7</ele>
        <time>2020-07-12T07:02:00Z</time>
      </trkpt>
      <trkpt lat="46.55569" lon="2.60291">
        <ele>181.8</ele>
        <time>2020-07-12T07:02:01Z</time>
      </trkpt>
      <trkpt lat="46.55573" lon="2.60289">
        <ele>181.9</ele>
        <time>2020-07-12T07:02:02Z</time>
      </trkpt>
      <trkpt lat="46.55578" lon="2.60287">
        <ele>182</ele>
        <time>2020-07-12T07:02:03Z</time>
      </trkpt>
      <trkpt lat="46.55582" lon="2.60285">
        <ele>182.1</ele>
        <time>2020-07-12T07:02:04Z</time>
      </trkpt>
      <trkpt lat="46.55587" lon="2.60283">
        <ele>182.1</ele>
        <time>2020-07-12T07:02:05Z</time>
      </trkpt>
      <trkpt lat="46.55591" lon="2.60281">
        <ele>182.1</ele>
        <time>2020-07-12T07:02:06Z</time>
      </trkpt>
      <trkpt lat="46.55596" lon="2.60279">
        <ele>182.1</ele>
        <time>2020-07-12T07:02:07Z</time>
      </trkpt>
      <trkpt lat="46.556" lon="2.60277">
        <ele>181.8</ele>
        <time>2020-07-12T07:02:08Z</time>
      </trkpt>
      <trkpt lat="46.55605" lon="2.60275">
        <ele>181.5</ele>
        <time>2020-07-12T07:02:09Z</time>
      </trkpt>
      <trkpt lat="46.55609" lon="2.60273">
        <ele>181.4</ele>
        <time>2020-07-12T07:02:10Z</time>
      </trkpt>
      <trkpt lat="46.55613" lon="2.60271">
        <ele>181.3</ele>
        <time>2020-07-12T07:02:11Z</time>
      </trkpt>
      <trkpt lat="46.55618" lon="2.60269">
        <ele>180.9</ele>
        <time>2020-07-12T07:02:12Z</time>
      </trkpt>
      <trkpt lat="46.55622" lon="2.60267">
        <ele>180.7</ele>
        <time>2020-07-12T07:02:13Z</time>
      </trkpt>
      <trkpt lat="46.55627" lon="2.60265">
        <ele>180.5</ele>
        <time>2020-07-12T07:02:14Z</time>
      </trkpt>
      <trkpt lat="46.55631" lon="2.60263">
        <ele>180.6</ele>
        <time>2020-07-12T07:02:15Z</time>
      </trkpt>
      <trkpt lat="46.55636" lon="2.60262">
        <ele>180.7</ele>
        <time>2020-07-12T07:02:16Z</time>
      </trkpt>
      <trkpt lat="46.5564" lon="2.6026">
        <ele>180.8</ele>
        <time>2020-07-12T07:02:17Z</time>
      </trkpt>
      <trkpt lat="46.55645" lon="2.60258">
        <ele>180.9</ele>
        <time>2020-07-12T07:02:18Z</time>
      </trkpt>
      <trkpt lat="46.5565" lon="2.60256">
        <ele>181.1</ele>
        <time>2020-07-12T07:02:19Z</time>
      </trkpt>
      <trkpt lat="46.55654" lon="2.60254">
        <ele>181.3</ele>
        <time>2020-07-12T07:02:20Z</time>
      </trkpt>
      <trkpt lat="46.55659" lon="2.60252">
        <ele>181.5</ele>
        <time>2020-07-12T07:02:21Z</time>
      </trkpt>
      <trkpt lat="46.55664" lon="2.6025">
        <ele>181.7</ele>
        <time>2020-07-12T07:02:22Z</time>
      </trkpt>
      <trkpt lat="46.55668" lon="2.60248">
        <ele>181.9</ele>
        <time>2020-07-12T07:02:23Z</time>
      </trkpt>
      <trkpt lat="46.55673" lon="2.60245">
        <ele>182</ele>
        <time>2020-07-12T07:02:24Z</time>
      </trkpt>
      <trkpt lat="46.55678" lon="2.60243">
        <ele>182</ele>
        <time>2020-07-12T07:02:25Z</time>
      </trkpt>
      <trkpt lat="46.55682" lon="2.60241">
        <ele>182</ele>
        <time>2020-07-12T07:02:26Z</time>
      </trkpt>
      <trkpt lat="46.55687" lon="2.60239">
        <ele>181.6</ele>
        <time>2020-07-12T07:02:27Z</time>
      </trkpt>
      <trkpt lat="46.55692" lon="2.60237">
        <ele>181.3</ele>
        <time>2020-07-12T07:02:28Z</time>
      </trkpt>
      <trkpt lat="46.55696" lon="2.60235">
        <ele>181.4</ele>
        <time>2020-07-12T07:02:29Z</time>
      </trkpt>
      <trkpt lat="46.55701" lon="2.60233">
        <ele>181.5</ele>
        <time>2020-07-12T07:02:30Z</time>
      </trkpt>
      <trkpt lat="46.55706" lon="2.60231">
        <ele>181.3</ele>
        <time>2020-07-12T07:02:31Z</time>
      </trkpt>
      <trkpt lat="46.5571" lon="2.60229">
        <ele>181.2</ele>
        <time>2020-07-12T07:02:32Z</time>
      </trkpt>
      <trkpt lat="46.55715" lon="2.60227">
        <ele>181</ele>
        <time>2020-07-12T07:02:33Z</time>
      </trkpt>
      <trkpt lat="46.5572" lon="2.60225">
        <ele>181.2</ele>
        <time>2020-07-12T07:02:34Z</time>
      </trkpt>
      <trkpt lat="46.55725" lon="2.60223">
        <ele>181.3</ele>
        <time>2020-07-12T07:02:35Z</time>
      </trkpt>
      <trkpt lat="46.55729" lon="2.60221">
        <ele>181.2</ele>
        <time>2020-07-12T07:02:36Z</time>
      </trkpt>
      <trkpt lat="46.55734" lon="2.60219">
        <ele>181.2</ele>
        <time>2020-07-12T07:02:37Z</time>
      </trkpt>
      <trkpt lat="46.55739" lon="2.60217">
        <ele>181.3</ele>
        <time>2020-07-12T07:02:38Z</time>
      </trkpt>
      <trkpt lat="46.55743" lon="2.60215">
        <ele>181.4</ele>
        <time>2020-07-12T07:02:39Z</time>
      </trkpt>
      <trkpt lat="46.55748" lon="2.60213">
        <ele>181.5</ele>
        <time>2020-07-12T07:02:40Z</time>
      </trkpt>
      <trkpt lat="46.55753" lon="2.60211">
        <ele>181.4</ele>
        <time>2020-07-12T07:02:41Z</time>
      </trkpt>
      <trkpt lat="46.55757" lon="2.60209">
        <ele>181.3</ele>
        <time>2020-07-12T07:02:42Z</time>
      </trkpt>
      <trkpt lat="46.55762" lon="2.60206">
        <ele>181.5</ele>
        <time>2020-07-12T07:02:43Z</time>
      </trkpt>
      <trkpt lat="46.55767" lon="2.60204">
        <ele>181.6</ele>
        <time>2020-07-12T07:02:44Z</time>
      </trkpt>
      <trkpt lat="46.55771" lon="2.60202">
        <ele>181.7</ele>
        <time>2020-07-12T07:02:45Z</time>
      </trkpt>
      <trkpt lat="46.55776" lon="2.60201">
        <ele>181.6</ele>
        <time>2020-07-12T07:02:46Z</time>
      </trkpt>
      <trkpt lat="46.5578" lon="2.60198">
        <ele>181.6</ele>
        <time>2020-07-12T07:02:47Z</time>
      </trkpt>
      <trkpt lat="46.55785" lon="2.60196">
        <ele>181.6</ele>
        <time>2020-07-12T07:02:48Z</time>
      </trkpt>
      <trkpt lat="46.55789" lon="2.60194">
        <ele>181.6</ele>
        <time>2020-07-12T07:02:49Z</time>
      </trkpt>
      <trkpt lat="46.55794" lon="2.60192">
        <ele>181.5</ele>
        <time>2020-07-12T07:02:50Z</time>
      </trkpt>
      <trkpt lat="46.55799" lon="2.6019">
        <ele>181.4</ele>
        <time>2020-07-12T07:02:51Z</time>
      </trkpt>
      <trkpt lat="46.55804" lon="2.60188">
        <ele>181.4</ele>
        <time>2020-07-12T07:02:52Z</time>
      </trkpt>
      <trkpt lat="46.55809" lon="2.60186">
        <ele>181.2</ele>
        <time>2020-07-12T07:02:53Z</time>
      </trkpt>
      <trkpt lat="46.55814" lon="2.60183">
        <ele>181</ele>
        <time>2020-07-12T07:02:54Z</time>
      </trkpt>
      <trkpt lat="46.55818" lon="2.60181">
        <ele>181</ele>
        <time>2020-07-12T07:02:55Z</time>
      </trkpt>
      <trkpt lat="46.55824" lon="2.60179">
        <ele>180.9</ele>
        <time>2020-07-12T07:02:56Z</time>
      </trkpt>
      <trkpt lat="46.55828" lon="2.60177">
        <ele>181.3</ele>
        <time>2020-07-12T07:02:57Z</time>
      </trkpt>
      <trkpt lat="46.55833" lon="2.60175">
        <ele>181.5</ele>
        <time>2020-07-12T07:02:58Z</time>
      </trkpt>
      <trkpt lat="46.55838" lon="2.60173">
        <ele>181.7</ele>
        <time>2020-07-12T07:02:59Z</time>
      </trkpt>
      <trkpt lat="46.55843" lon="2.60171">
        <ele>181.5</ele>
        <time>2020-07-12T07:03:00Z</time>
      </trkpt>
      <trkpt lat="46.55848" lon="2.60169">
        <ele>181.3</ele>
        <time>2020-07-12T07:03:01Z</time>
      </trkpt>
      <trkpt lat="46.55852" lon="2.60166">
        <ele>181</ele>
        <time>2020-07-12T07:03:02Z</time>
      </trkpt>
      <trkpt lat="46.55856" lon="2.60164">
        <ele>180.8</ele>
        <time>2020-07-12T07:03:03Z</time>
      </trkpt>
      <trkpt lat="46.55861" lon="2.60162">
        <ele>180.6</ele>
        <time>2020-07-12T07:03:04Z</time>
      </trkpt>
      <trkpt lat="46.55865" lon="2.60159">
        <ele>180.5</ele>
        <time>2020-07-12T07:03:05Z</time>
      </trkpt>
      <trkpt lat="46.55869" lon="2.60157">
        <ele>180.5</ele>
        <time>2020-07-12T07:03:06Z</time>
      </trkpt>
      <trkpt lat="46.55874" lon="2.60155">
        <ele>180.4</ele>
        <time>2020-07-12T07:03:07Z</time>
      </trkpt>
      <trkpt lat="46.55879" lon="2.60153">
        <ele>180.3</ele>
        <time>2020-07-12T07:03:08Z</time>
      </trkpt>
      <trkpt lat="46.55884" lon="2.60151">
        <ele>180.1</ele>
        <time>2020-07-12T07:03:09Z</time>
      </trkpt>
      <trkpt lat="46.55888" lon="2.60149">
        <ele>180</ele>
        <time>2020-07-12T07:03:10Z</time>
      </trkpt>
      <trkpt lat="46.55893" lon="2.60147">
        <ele>179.9</ele>
        <time>2020-07-12T07:03:11Z</time>
      </trkpt>
      <trkpt lat="46.55897" lon="2.60145">
        <ele>180.2</ele>
        <time>2020-07-12T07:03:12Z</time>
      </trkpt>
      <trkpt lat="46.55902" lon="2.60143">
        <ele>180.5</ele>
        <time>2020-07-12T07:03:13Z</time>
      </trkpt>
      <trkpt lat="46.55907" lon="2.60141">
        <ele>180.4</ele>
        <time>2020-07-12T07:03:14Z</time>
      </trkpt>
      <trkpt lat="46.55915" lon="2.60138">
        <ele>180.6</ele>
        <time>2020-07-12T07:03:16Z</time>
      </trkpt>
      <trkpt lat="46.55923" lon="2.60134">
        <ele>180.9</ele>
        <time>2020-07-12T07:03:18Z</time>
      </trkpt>
      <trkpt lat="46.55928" lon="2.60132">
        <ele>181</ele>
        <time>2020-07-12T07:03:19Z</time>
      </trkpt>
      <trkpt lat="46.55933" lon="2.60131">
        <ele>181.1</ele>
        <time>2020-07-12T07:03:20Z</time>
      </trkpt>
      <trkpt lat="46.55937" lon="2.60129">
        <ele>181</ele>
        <time>2020-07-12T07:03:21Z</time>
      </trkpt>
      <trkpt lat="46.55942" lon="2.60127">
        <ele>181</ele>
        <time>2020-07-12T07:03:22Z</time>
      </trkpt>
      <trkpt lat="46.55947" lon="2.60125">
        <ele>181</ele>
        <time>2020-07-12T07:03:23Z</time>
      </trkpt>
      <trkpt lat="46.55952" lon="2.60123">
        <ele>181.4</ele>
        <time>2020-07-12T07:03:24Z</time>
      </trkpt>
      <trkpt lat="46.55956" lon="2.60121">
        <ele>181.8</ele>
        <time>2020-07-12T07:03:25Z</time>
      </trkpt>
      <trkpt lat="46.55961" lon="2.60119">
        <ele>181.8</ele>
        <time>2020-07-12T07:03:26Z</time>
      </trkpt>
      <trkpt lat="46.55966" lon="2.60117">
        <ele>181.9</ele>
        <time>2020-07-12T07:03:27Z</time>
      </trkpt>
      <trkpt lat="46.55971" lon="2.60115">
        <ele>181.9</ele>
        <time>2020-07-12T07:03:28Z</time>
      </trkpt>
      <trkpt lat="46.55976" lon="2.60113">
        <ele>182</ele>
        <time>2020-07-12T07:03:29Z</time>
      </trkpt>
      <trkpt lat="46.5598" lon="2.60111">
        <ele>182</ele>
        <time>2020-07-12T07:03:30Z</time>
      </trkpt>
      <trkpt lat="46.55985" lon="2.60109">
        <ele>181.8</ele>
        <time>2020-07-12T07:03:31Z</time>
      </trkpt>
      <trkpt lat="46.5599" lon="2.60107">
        <ele>181.6</ele>
        <time>2020-07-12T07:03:32Z</time>
      </trkpt>
      <trkpt lat="46.55994" lon="2.60105">
        <ele>181.6</ele>
        <time>2020-07-12T07:03:33Z</time>
      </trkpt>
      <trkpt lat="46.56004" lon="2.60096">
        <ele>179.4</ele>
        <time>2020-07-12T07:03:56Z</time>
      </trkpt>
      <trkpt lat="46.56013" lon="2.60096">
        <ele>179.4</ele>
        <time>2020-07-12T07:04:15Z</time>
      </trkpt>
      <trkpt lat="46.5602" lon="2.60093">
        <ele>179.5</ele>
        <time>2020-07-12T07:04:17Z</time>
      </trkpt>
      <trkpt lat="46.56028" lon="2.6009">
        <ele>179.9</ele>
        <time>2020-07-12T07:04:19Z</time>
      </trkpt>
      <trkpt lat="46.56036" lon="2.60086">
        <ele>180.1</ele>
        <time>2020-07-12T07:04:21Z</time>
      </trkpt>
      <trkpt lat="46.56043" lon="2.60083">
        <ele>180.5</ele>
        <time>2020-07-12T07:04:23Z</time>
      </trkpt>
      <trkpt lat="46.56051" lon="2.60079">
        <ele>180.7</ele>
        <time>2020-07-12T07:04:25Z</time>
      </trkpt>
      <trkpt lat="46.56059" lon="2.60076">
        <ele>180.5</ele>
        <time>2020-07-12T07:04:27Z</time>
      </trkpt>
      <trkpt lat="46.56067" lon="2.60072">
        <ele>180.7</ele>
        <time>2020-07-12T07:04:29Z</time>
      </trkpt>
      <trkpt lat="46.56075" lon="2.60068">
        <ele>181</ele>
        <time>2020-07-12T07:04:31Z</time>
      </trkpt>
      <trkpt lat="46.56083" lon="2.60064">
        <ele>180.7</ele>
        <time>2020-07-12T07:04:33Z</time>
      </trkpt>
      <trkpt lat="46.56087" lon="2.60062">
        <ele>180.6</ele>
        <time>2020-07-12T07:04:34Z</time>
      </trkpt>
      <trkpt lat="46.56099" lon="2.60057">
        <ele>180.9</ele>
        <time>2020-07-12T07:04:37Z</time>
      </trkpt>
      <trkpt lat="46.56107" lon="2.60054">
        <ele>180.8</ele>
        <time>2020-07-12T07:04:39Z</time>
      </trkpt>
      <trkpt lat="46.56114" lon="2.60051">
        <ele>180.9</ele>
        <time>2020-07-12T07:04:41Z</time>
      </trkpt>
      <trkpt lat="46.56123" lon="2.60048">
        <ele>180.6</ele>
        <time>2020-07-12T07:04:43Z</time>
      </trkpt>
      <trkpt lat="46.56131" lon="2.60044">
        <ele>180.7</ele>
        <time>2020-07-12T07:04:45Z</time>
      </trkpt>
      <trkpt lat="46.56139" lon="2.6004">
        <ele>180.5</ele>
        <time>2020-07-12T07:04:47Z</time>
      </trkpt>
      <trkpt lat="46.56147" lon="2.60037">
        <ele>180.3</ele>
        <time>2020-07-12T07:04:49Z</time>
      </trkpt>
      <trkpt lat="46.56155" lon="2.60034">
        <ele>180.1</ele>
        <time>2020-07-12T07:04:51Z</time>
      </trkpt>
      <trkpt lat="46.5616" lon="2.60031">
        <ele>180</ele>
        <time>2020-07-12T07:04:52Z</time>
      </trkpt>
      <trkpt lat="46.56164" lon="2.6003">
        <ele>179.9</ele>
        <time>2020-07-12T07:04:53Z</time>
      </trkpt>
      <trkpt lat="46.56168" lon="2.60028">
        <ele>180</ele>
        <time>2020-07-12T07:04:54Z</time>
      </trkpt>
      <trkpt lat="46.56173" lon="2.60026">
        <ele>180</ele>
        <time>2020-07-12T07:04:55Z</time>
      </trkpt>
      <trkpt lat="46.56177" lon="2.60024">
        <ele>180.3</ele>
        <time>2020-07-12T07:04:56Z</time>
      </trkpt>
      <trkpt lat="46.56182" lon="2.60022">
        <ele>180.5</ele>
        <time>2020-07-12T07:04:57Z</time>
      </trkpt>
      <trkpt lat="46.56186" lon="2.6002">
        <ele>180.7</ele>
        <time>2020-07-12T07:04:58Z</time>
      </trkpt>
      <trkpt lat="46.56191" lon="2.60018">
        <ele>180.8</ele>
        <time>2020-07-12T07:04:59Z</time>
      </trkpt>
      <trkpt lat="46.56195" lon="2.60016">
        <ele>180.9</ele>
        <time>2020-07-12T07:05:00Z</time>
      </trkpt>
      <trkpt lat="46.562" lon="2.60014">
        <ele>180.9</ele>
        <time>2020-07-12T07:05:01Z</time>
      </trkpt>
      <trkpt lat="46.56205" lon="2.60011">
        <ele>180.9</ele>
        <time>2020-07-12T07:05:02Z</time>
      </trkpt>
      <trkpt lat="46.56209" lon="2.60009">
        <ele>180.9</ele>
        <time>2020-07-12T07:05:03Z</time>
      </trkpt>
      <trkpt lat="46.56214" lon="2.60007">
        <ele>180.9</ele>
        <time>2020-07-12T07:05:04Z</time>
      </trkpt>
      <trkpt lat="46.56218" lon="2.60005">
        <ele>181</ele>
        <time>2020-07-12T07:05:05Z</time>
      </trkpt>
      <trkpt lat="46.56223" lon="2.60003">
        <ele>180.7</ele>
        <time>2020-07-12T07:05:06Z</time>
      </trkpt>
      <trkpt lat="46.56228" lon="2.60001">
        <ele>180.6</ele>
        <time>2020-07-12T07:05:07Z</time>
      </trkpt>
      <trkpt lat="46.56232" lon="2.59999">
        <ele>180.4</ele>
        <time>2020-07-12T07:05:08Z</time>
      </trkpt>
      <trkpt lat="46.56236" lon="2.59997">
        <ele>180.3</ele>
        <time>2020-07-12T07:05:09Z</time>
      </trkpt>
      <trkpt lat="46.56241" lon="2.59995">
        <ele>180.3</ele>
        <time>2020-07-12T07:05:10Z</time>
      </trkpt>
      <trkpt lat="46.56245" lon="2.59993">
        <ele>180.3</ele>
        <time>2020-07-12T07:05:11Z</time>
      </trkpt>
      <trkpt lat="46.5625" lon="2.59991">
        <ele>180.3</ele>
        <time>2020-07-12T07:05:12Z</time>
      </trkpt>
      <trkpt lat="46.56254" lon="2.59989">
        <ele>180.5</ele>
        <time>2020-07-12T07:05:13Z</time>
      </trkpt>
      <trkpt lat="46.56258" lon="2.59987">
        <ele>180.7</ele>
        <time>2020-07-12T07:05:14Z</time>
      </trkpt>
      <trkpt lat="46.56263" lon="2.59985">
        <ele>180.7</ele>
        <time>2020-07-12T07:05:15Z</time>
      </trkpt>
      <trkpt lat="46.56267" lon="2.59983">
        <ele>180.6</ele>
        <time>2020-07-12T07:05:16Z</time>
      </trkpt>
      <trkpt lat="46.56271" lon="2.59981">
        <ele>180.6</ele>
        <time>2020-07-12T07:05:17Z</time>
      </trkpt>
      <trkpt lat="46.56276" lon="2.59979">
        <ele>180.5</ele>
        <time>2020-07-12T07:05:18Z</time>
      </trkpt>
      <trkpt lat="46.5628" lon="2.59977">
        <ele>180.5</ele>
        <time>2020-07-12T07:05:19Z</time>
      </trkpt>
      <trkpt lat="46.56284" lon="2.59975">
        <ele>180.5</ele>
        <time>2020-07-12T07:05:20Z</time>
      </trkpt>
      <trkpt lat="46.56289" lon="2.59973">
        <ele>180.6</ele>
        <time>2020-07-12T07:05:21Z</time>
      </trkpt>
      <trkpt lat="46.56293" lon="2.59971">
        <ele>180.1</ele>
        <time>2020-07-12T07:05:22Z</time>
      </trkpt>
      <trkpt lat="46.56298" lon="2.59969">
        <ele>179.8</ele>
        <time>2020-07-12T07:05:23Z</time>
      </trkpt>
      <trkpt lat="46.56302" lon="2.59967">
        <ele>179.5</ele>
        <time>2020-07-12T07:05:24Z</time>
      </trkpt>
      <trkpt lat="46.56306" lon="2.59965">
        <ele>179.7</ele>
        <time>2020-07-12T07:05:25Z</time>
      </trkpt>
      <trkpt lat="46.56311" lon="2.59964">
        <ele>179.9</ele>
        <time>2020-07-12T07:05:26Z</time>
      </trkpt>
      <trkpt lat="46.56319" lon="2.5996">
        <ele>180</ele>
        <time>2020-07-12T07:05:28Z</time>
      </trkpt>
      <trkpt lat="46.56324" lon="2.59958">
        <ele>180.4</ele>
        <time>2020-07-12T07:05:29Z</time>
      </trkpt>
      <trkpt lat="46.56328" lon="2.59956">
        <ele>180.7</ele>
        <time>2020-07-12T07:05:30Z</time>
      </trkpt>
      <trkpt lat="46.56336" lon="2.59952">
        <ele>181.1</ele>
        <time>2020-07-12T07:05:32Z</time>
      </trkpt>
      <trkpt lat="46.56341" lon="2.5995">
        <ele>181.2</ele>
        <time>2020-07-12T07:05:33Z</time>
      </trkpt>
      <trkpt lat="46.56345" lon="2.59948">
        <ele>181.2</ele>
        <time>2020-07-12T07:05:34Z</time>
      </trkpt>
      <trkpt lat="46.56349" lon="2.59946">
        <ele>181.2</ele>
        <time>2020-07-12T07:05:35Z</time>
      </trkpt>
      <trkpt lat="46.56354" lon="2.59945">
        <ele>181.2</ele>
        <time>2020-07-12T07:05:36Z</time>
      </trkpt>
      <trkpt lat="46.56362" lon="2.59941">
        <ele>181.3</ele>
        <time>2020-07-12T07:05:38Z</time>
      </trkpt>
      <trkpt lat="46.56371" lon="2.59937">
        <ele>180.8</ele>
        <time>2020-07-12T07:05:40Z</time>
      </trkpt>
      <trkpt lat="46.56379" lon="2.59933">
        <ele>181</ele>
        <time>2020-07-12T07:05:42Z</time>
      </trkpt>
      <trkpt lat="46.56388" lon="2.59929">
        <ele>181.2</ele>
        <time>2020-07-12T07:05:44Z</time>
      </trkpt>
      <trkpt lat="46.56396" lon="2.59924">
        <ele>181.1</ele>
        <time>2020-07-12T07:05:46Z</time>
      </trkpt>
      <trkpt lat="46.56403" lon="2.59918">
        <ele>180.8</ele>
        <time>2020-07-12T07:05:48Z</time>
      </trkpt>
      <trkpt lat="46.56409" lon="2.5991">
        <ele>180.7</ele>
        <time>2020-07-12T07:05:50Z</time>
      </trkpt>
      <trkpt lat="46.56415" lon="2.59902">
        <ele>181</ele>
        <time>2020-07-12T07:05:52Z</time>
      </trkpt>
      <trkpt lat="46.5642" lon="2.59893">
        <ele>181.2</ele>
        <time>2020-07-12T07:05:54Z</time>
      </trkpt>
      <trkpt lat="46.56426" lon="2.59885">
        <ele>181</ele>
        <time>2020-07-12T07:05:56Z</time>
      </trkpt>
      <trkpt lat="46.56428" lon="2.59874">
        <ele>181.3</ele>
        <time>2020-07-12T07:05:58Z</time>
      </trkpt>
      <trkpt lat="46.56428" lon="2.59864">
        <ele>181.5</ele>
        <time>2020-07-12T07:06:00Z</time>
      </trkpt>
      <trkpt lat="46.56425" lon="2.59855">
        <ele>181.4</ele>
        <time>2020-07-12T07:06:02Z</time>
      </trkpt>
      <trkpt lat="46.56421" lon="2.59846">
        <ele>181.3</ele>
        <time>2020-07-12T07:06:04Z</time>
      </trkpt>
      <trkpt lat="46.56417" lon="2.59837">
        <ele>181.7</ele>
        <time>2020-07-12T07:06:06Z</time>
      </trkpt>
      <trkpt lat="46.56413" lon="2.59827">
        <ele>181.3</ele>
        <time>2020-07-12T07:06:08Z</time>
      </trkpt>
      <trkpt lat="46.56409" lon="2.59818">
        <ele>181</ele>
        <time>2020-07-12T07:06:10Z</time>
      </trkpt>
      <trkpt lat="46.56404" lon="2.59808">
        <ele>181.6</ele>
        <time>2020-07-12T07:06:12Z</time>
      </trkpt>
      <trkpt lat="46.564" lon="2.59799">
        <ele>182.3</ele>
        <time>2020-07-12T07:06:14Z</time>
      </trkpt>
      <trkpt lat="46.56396" lon="2.59789">
        <ele>182.6</ele>
        <time>2020-07-12T07:06:16Z</time>
      </trkpt>
      <trkpt lat="46.56391" lon="2.5978">
        <ele>182.7</ele>
        <time>2020-07-12T07:06:18Z</time>
      </trkpt>
      <trkpt lat="46.56387" lon="2.5977">
        <ele>183.1</ele>
        <time>2020-07-12T07:06:20Z</time>
      </trkpt>
      <trkpt lat="46.56383" lon="2.5976">
        <ele>183.9</ele>
        <time>2020-07-12T07:06:22Z</time>
      </trkpt>
      <trkpt lat="46.56378" lon="2.5975">
        <ele>184</ele>
        <time>2020-07-12T07:06:24Z</time>
      </trkpt>
      <trkpt lat="46.56373" lon="2.59741">
        <ele>184</ele>
        <time>2020-07-12T07:06:26Z</time>
      </trkpt>
      <trkpt lat="46.56368" lon="2.59732">
        <ele>184.4</ele>
        <time>2020-07-12T07:06:28Z</time>
      </trkpt>
      <trkpt lat="46.56362" lon="2.59723">
        <ele>184.1</ele>
        <time>2020-07-12T07:06:30Z</time>
      </trkpt>
      <trkpt lat="46.56356" lon="2.59714">
        <ele>183.7</ele>
        <time>2020-07-12T07:06:32Z</time>
      </trkpt>
      <trkpt lat="46.5635" lon="2.59705">
        <ele>184.6</ele>
        <time>2020-07-12T07:06:34Z</time>
      </trkpt>
      <trkpt lat="46.56344" lon="2.59697">
        <ele>184.6</ele>
        <time>2020-07-12T07:06:36Z</time>
      </trkpt>
      <trkpt lat="46.56341" lon="2.59692">
        <ele>184.3</ele>
        <time>2020-07-12T07:06:37Z</time>
      </trkpt>
      <trkpt lat="46.56332" lon="2.59679">
        <ele>184.8</ele>
        <time>2020-07-12T07:06:40Z</time>
      </trkpt>
      <trkpt lat="46.56326" lon="2.5967">
        <ele>184.4</ele>
        <time>2020-07-12T07:06:42Z</time>
      </trkpt>
      <trkpt lat="46.56321" lon="2.59661">
        <ele>185.1</ele>
        <time>2020-07-12T07:06:44Z</time>
      </trkpt>
      <trkpt lat="46.56316" lon="2.59652">
        <ele>184.7</ele>
        <time>2020-07-12T07:06:46Z</time>
      </trkpt>
      <trkpt lat="46.56311" lon="2.59642">
        <ele>184.6</ele>
        <time>2020-07-12T07:06:48Z</time>
      </trkpt>
      <trkpt lat="46.56306" lon="2.59633">
        <ele>184.9</ele>
        <time>2020-07-12T07:06:50Z</time>
      </trkpt>
      <trkpt lat="46.56301" lon="2.59624">
        <ele>185.6</ele>
        <time>2020-07-12T07:06:52Z</time>
      </trkpt>
      <trkpt lat="46.56296" lon="2.59614">
        <ele>186.3</ele>
        <time>2020-07-12T07:06:54Z</time>
      </trkpt>
      <trkpt lat="46.56291" lon="2.59605">
        <ele>186.4</ele>
        <time>2020-07-12T07:06:56Z</time>
      </trkpt>
      <trkpt lat="46.56286" lon="2.59596">
        <ele>187</ele>
        <time>2020-07-12T07:06:58Z</time>
      </trkpt>
      <trkpt lat="46.56281" lon="2.59588">
        <ele>187.1</ele>
        <time>2020-07-12T07:07:00Z</time>
      </trkpt>
      <trkpt lat="46.56276" lon="2.5958">
        <ele>187.1</ele>
        <time>2020-07-12T07:07:02Z</time>
      </trkpt>
      <trkpt lat="46.5627" lon="2.59573">
        <ele>187.1</ele>
        <time>2020-07-12T07:07:04Z</time>
      </trkpt>
      <trkpt lat="46.56264" lon="2.59566">
        <ele>186.9</ele>
        <time>2020-07-12T07:07:06Z</time>
      </trkpt>
      <trkpt lat="46.56257" lon="2.5956">
        <ele>186.8</ele>
        <time>2020-07-12T07:07:08Z</time>
      </trkpt>
      <trkpt lat="46.56251" lon="2.59554">
        <ele>187.9</ele>
        <time>2020-07-12T07:07:10Z</time>
      </trkpt>
      <trkpt lat="46.56244" lon="2.59548">
        <ele>188.1</ele>
        <time>2020-07-12T07:07:12Z</time>
      </trkpt>
      <trkpt lat="46.56238" lon="2.59543">
        <ele>188.1</ele>
        <time>2020-07-12T07:07:14Z</time>
      </trkpt>
      <trkpt lat="46.56231" lon="2.59537">
        <ele>188.6</ele>
        <time>2020-07-12T07:07:16Z</time>
      </trkpt>
      <trkpt lat="46.56225" lon="2.59531">
        <ele>189.6</ele>
        <time>2020-07-12T07:07:18Z</time>
      </trkpt>
      <trkpt lat="46.56219" lon="2.59525">
        <ele>190.6</ele>
        <time>2020-07-12T07:07:20Z</time>
      </trkpt>
      <trkpt lat="46.56213" lon="2.5952">
        <ele>190.3</ele>
        <time>2020-07-12T07:07:22Z</time>
      </trkpt>
      <trkpt lat="46.56208" lon="2.59514">
        <ele>190.6</ele>
        <time>2020-07-12T07:07:24Z</time>
      </trkpt>
      <trkpt lat="46.56203" lon="2.59507">
        <ele>191</ele>
        <time>2020-07-12T07:07:26Z</time>
      </trkpt>
      <trkpt lat="46.56197" lon="2.59499">
        <ele>191.7</ele>
        <time>2020-07-12T07:07:28Z</time>
      </trkpt>
      <trkpt lat="46.56192" lon="2.59491">
        <ele>192.5</ele>
        <time>2020-07-12T07:07:30Z</time>
      </trkpt>
      <trkpt lat="46.56187" lon="2.59482">
        <ele>193</ele>
        <time>2020-07-12T07:07:32Z</time>
      </trkpt>
      <trkpt lat="46.56183" lon="2.59473">
        <ele>193.2</ele>
        <time>2020-07-12T07:07:34Z</time>
      </trkpt>
      <trkpt lat="46.56179" lon="2.59463">
        <ele>193.3</ele>
        <time>2020-07-12T07:07:36Z</time>
      </trkpt>
      <trkpt lat="46.56175" lon="2.59453">
        <ele>193.6</ele>
        <time>2020-07-12T07:07:38Z</time>
      </trkpt>
      <trkpt lat="46.56173" lon="2.59448">
        <ele>193.6</ele>
        <time>2020-07-12T07:07:39Z</time>
      </trkpt>
      <trkpt lat="46.56167" lon="2.59434">
        <ele>194.1</ele>
        <time>2020-07-12T07:07:42Z</time>
      </trkpt>
      <trkpt lat="46.56164" lon="2.59424">
        <ele>194.4</ele>
        <time>2020-07-12T07:07:44Z</time>
      </trkpt>
      <trkpt lat="46.5616" lon="2.59414">
        <ele>195</ele>
        <time>2020-07-12T07:07:46Z</time>
      </trkpt>
      <trkpt lat="46.56156" lon="2.59404">
        <ele>194.7</ele>
        <time>2020-07-12T07:07:48Z</time>
      </trkpt>
      <trkpt lat="46.56152" lon="2.59394">
        <ele>195.7</ele>
        <time>2020-07-12T07:07:50Z</time>
      </trkpt>
      <trkpt lat="46.56148" lon="2.59385">
        <ele>196.1</ele>
        <time>2020-07-12T07:07:52Z</time>
      </trkpt>
      <trkpt lat="46.56144" lon="2.59375">
        <ele>196.3</ele>
        <time>2020-07-12T07:07:54Z</time>
      </trkpt>
      <trkpt lat="46.56139" lon="2.59366">
        <ele>196.4</ele>
        <time>2020-07-12T07:07:56Z</time>
      </trkpt>
      <trkpt lat="46.56135" lon="2.59356">
        <ele>196.6</ele>
        <time>2020-07-12T07:07:58Z</time>
      </trkpt>
      <trkpt lat="46.5613" lon="2.59346">
        <ele>196.9</ele>
        <time>2020-07-12T07:08:00Z</time>
      </trkpt>
      <trkpt lat="46.56125" lon="2.59337">
        <ele>197.1</ele>
        <time>2020-07-12T07:08:02Z</time>
      </trkpt>
      <trkpt lat="46.5612" lon="2.59328">
        <ele>197.3</ele>
        <time>2020-07-12T07:08:04Z</time>
      </trkpt>
      <trkpt lat="46.56114" lon="2.59318">
        <ele>197.8</ele>
        <time>2020-07-12T07:08:06Z</time>
      </trkpt>
      <trkpt lat="46.56109" lon="2.59309">
        <ele>197.7</ele>
        <time>2020-07-12T07:08:08Z</time>
      </trkpt>
      <trkpt lat="46.56103" lon="2.59299">
        <ele>197.2</ele>
        <time>2020-07-12T07:08:10Z</time>
      </trkpt>
      <trkpt lat="46.56098" lon="2.59289">
        <ele>197.5</ele>
        <time>2020-07-12T07:08:12Z</time>
      </trkpt>
      <trkpt lat="46.56095" lon="2.59283">
        <ele>197.3</ele>
        <time>2020-07-12T07:08:13Z</time>
      </trkpt>
      <trkpt lat="46.56092" lon="2.59278">
        <ele>197.2</ele>
        <time>2020-07-12T07:08:14Z</time>
      </trkpt>
      <trkpt lat="46.56089" lon="2.59273">
        <ele>196.9</ele>
        <time>2020-07-12T07:08:15Z</time>
      </trkpt>
      <trkpt lat="46.56086" lon="2.59268">
        <ele>196.8</ele>
        <time>2020-07-12T07:08:16Z</time>
      </trkpt>
      <trkpt lat="46.56083" lon="2.59263">
        <ele>196.7</ele>
        <time>2020-07-12T07:08:17Z</time>
      </trkpt>
      <trkpt lat="46.5608" lon="2.59258">
        <ele>196.3</ele>
        <time>2020-07-12T07:08:18Z</time>
      </trkpt>
      <trkpt lat="46.56077" lon="2.59252">
        <ele>196</ele>
        <time>2020-07-12T07:08:19Z</time>
      </trkpt>
      <trkpt lat="46.56074" lon="2.59247">
        <ele>196.3</ele>
        <time>2020-07-12T07:08:20Z</time>
      </trkpt>
      <trkpt lat="46.56071" lon="2.59241">
        <ele>196.6</ele>
        <time>2020-07-12T07:08:21Z</time>
      </trkpt>
      <trkpt lat="46.56068" lon="2.59235">
        <ele>196.8</ele>
        <time>2020-07-12T07:08:22Z</time>
      </trkpt>
      <trkpt lat="46.56065" lon="2.59229">
        <ele>196.7</ele>
        <time>2020-07-12T07:08:23Z</time>
      </trkpt>
      <trkpt lat="46.56063" lon="2.59223">
        <ele>196.6</ele>
        <time>2020-07-12T07:08:24Z</time>
      </trkpt>
      <trkpt lat="46.5606" lon="2.59216">
        <ele>196.3</ele>
        <time>2020-07-12T07:08:25Z</time>
      </trkpt>
      <trkpt lat="46.56058" lon="2.59209">
        <ele>196</ele>
        <time>2020-07-12T07:08:26Z</time>
      </trkpt>
      <trkpt lat="46.56055" lon="2.59202">
        <ele>195.7</ele>
        <time>2020-07-12T07:08:27Z</time>
      </trkpt>
      <trkpt lat="46.56052" lon="2.59195">
        <ele>195.4</ele>
        <time>2020-07-12T07:08:28Z</time>
      </trkpt>
      <trkpt lat="46.56049" lon="2.59187">
        <ele>195.2</ele>
        <time>2020-07-12T07:08:29Z</time>
      </trkpt>
      <trkpt lat="46.56046" lon="2.59178">
        <ele>195</ele>
        <time>2020-07-12T07:08:30Z</time>
      </trkpt>
      <trkpt lat="46.56042" lon="2.59168">
        <ele>194.9</ele>
        <time>2020-07-12T07:08:31Z</time>
      </trkpt>
      <trkpt lat="46.56039" lon="2.59159">
        <ele>194.5</ele>
        <time>2020-07-12T07:08:32Z</time>
      </trkpt>
      <trkpt lat="46.56035" lon="2.59148">
        <ele>194.2</ele>
        <time>2020-07-12T07:08:33Z</time>
      </trkpt>
      <trkpt lat="46.56031" lon="2.59138">
        <ele>193.7</ele>
        <time>2020-07-12T07:08:34Z</time>
      </trkpt>
      <trkpt lat="46.56027" lon="2.59127">
        <ele>193.3</ele>
        <time>2020-07-12T07:08:35Z</time>
      </trkpt>
      <trkpt lat="46.56024" lon="2.59116">
        <ele>193</ele>
        <time>2020-07-12T07:08:36Z</time>
      </trkpt>
      <trkpt lat="46.56021" lon="2.59105">
        <ele>192.4</ele>
        <time>2020-07-12T07:08:37Z</time>
      </trkpt>
      <trkpt lat="46.5602" lon="2.59095">
        <ele>191.9</ele>
        <time>2020-07-12T07:08:38Z</time>
      </trkpt>
      <trkpt lat="46.56019" lon="2.59083">
        <ele>191.2</ele>
        <time>2020-07-12T07:08:39Z</time>
      </trkpt>
      <trkpt lat="46.5602" lon="2.59071">
        <ele>190.7</ele>
        <time>2020-07-12T07:08:40Z</time>
      </trkpt>
      <trkpt lat="46.56021" lon="2.5906">
        <ele>190.3</ele>
        <time>2020-07-12T07:08:41Z</time>
      </trkpt>
      <trkpt lat="46.56022" lon="2.59048">
        <ele>189.8</ele>
        <time>2020-07-12T07:08:42Z</time>
      </trkpt>
      <trkpt lat="46.56023" lon="2.59036">
        <ele>189.4</ele>
        <time>2020-07-12T07:08:43Z</time>
      </trkpt>
      <trkpt lat="46.56024" lon="2.59024">
        <ele>189.4</ele>
        <time>2020-07-12T07:08:44Z</time>
      </trkpt>
      <trkpt lat="46.56026" lon="2.59013">
        <ele>189.3</ele>
        <time>2020-07-12T07:08:45Z</time>
      </trkpt>
      <trkpt lat="46.56028" lon="2.59003">
        <ele>188.8</ele>
        <time>2020-07-12T07:08:46Z</time>
      </trkpt>
      <trkpt lat="46.56028" lon="2.58992">
        <ele>188.4</ele>
        <time>2020-07-12T07:08:47Z</time>
      </trkpt>
      <trkpt lat="46.56029" lon="2.5898">
        <ele>188.1</ele>
        <time>2020-07-12T07:08:48Z</time>
      </trkpt>
      <trkpt lat="46.56029" lon="2.58968">
        <ele>187.9</ele>
        <time>2020-07-12T07:08:49Z</time>
      </trkpt>
      <trkpt lat="46.56029" lon="2.58957">
        <ele>187.7</ele>
        <time>2020-07-12T07:08:50Z</time>
      </trkpt>
      <trkpt lat="46.56028" lon="2.58945">
        <ele>186.7</ele>
        <time>2020-07-12T07:08:51Z</time>
      </trkpt>
      <trkpt lat="46.56028" lon="2.58934">
        <ele>186</ele>
        <time>2020-07-12T07:08:52Z</time>
      </trkpt>
      <trkpt lat="46.56028" lon="2.58923">
        <ele>185.6</ele>
        <time>2020-07-12T07:08:53Z</time>
      </trkpt>
      <trkpt lat="46.56028" lon="2.58912">
        <ele>185.2</ele>
        <time>2020-07-12T07:08:54Z</time>
      </trkpt>
      <trkpt lat="46.56029" lon="2.58901">
        <ele>185</ele>
        <time>2020-07-12T07:08:55Z</time>
      </trkpt>
      <trkpt lat="46.56032" lon="2.5889">
        <ele>184.6</ele>
        <time>2020-07-12T07:08:56Z</time>
      </trkpt>
      <trkpt lat="46.56034" lon="2.58878">
        <ele>184.4</ele>
        <time>2020-07-12T07:08:57Z</time>
      </trkpt>
      <trkpt lat="46.56036" lon="2.58866">
        <ele>183.7</ele>
        <time>2020-07-12T07:08:58Z</time>
      </trkpt>
      <trkpt lat="46.56039" lon="2.58854">
        <ele>183.2</ele>
        <time>2020-07-12T07:08:59Z</time>
      </trkpt>
      <trkpt lat="46.56041" lon="2.58842">
        <ele>182.8</ele>
        <time>2020-07-12T07:09:00Z</time>
      </trkpt>
      <trkpt lat="46.56044" lon="2.58831">
        <ele>182.1</ele>
        <time>2020-07-12T07:09:01Z</time>
      </trkpt>
      <trkpt lat="46.56047" lon="2.58822">
        <ele>181.5</ele>
        <time>2020-07-12T07:09:02Z</time>
      </trkpt>
      <trkpt lat="46.5605" lon="2.58813">
        <ele>181.4</ele>
        <time>2020-07-12T07:09:03Z</time>
      </trkpt>
      <trkpt lat="46.56053" lon="2.58805">
        <ele>181.2</ele>
        <time>2020-07-12T07:09:04Z</time>
      </trkpt>
      <trkpt lat="46.56056" lon="2.58798">
        <ele>181</ele>
        <time>2020-07-12T07:09:05Z</time>
      </trkpt>
      <trkpt lat="46.5606" lon="2.58792">
        <ele>180.8</ele>
        <time>2020-07-12T07:09:06Z</time>
      </trkpt>
      <trkpt lat="46.56067" lon="2.58786">
        <ele>179.7</ele>
        <time>2020-07-12T07:09:08Z</time>
      </trkpt>
      <trkpt lat="46.56074" lon="2.58784">
        <ele>179.1</ele>
        <time>2020-07-12T07:09:10Z</time>
      </trkpt>
      <trkpt lat="46.56081" lon="2.58781">
        <ele>178.7</ele>
        <time>2020-07-12T07:09:12Z</time>
      </trkpt>
      <trkpt lat="46.56087" lon="2.58779">
        <ele>178</ele>
        <time>2020-07-12T07:09:14Z</time>
      </trkpt>
      <trkpt lat="46.56093" lon="2.58775">
        <ele>178.6</ele>
        <time>2020-07-12T07:09:16Z</time>
      </trkpt>
      <trkpt lat="46.56099" lon="2.58767">
        <ele>179.3</ele>
        <time>2020-07-12T07:09:19Z</time>
      </trkpt>
      <trkpt lat="46.56104" lon="2.58762">
        <ele>179.5</ele>
        <time>2020-07-12T07:09:21Z</time>
      </trkpt>
      <trkpt lat="46.56108" lon="2.58754">
        <ele>180.4</ele>
        <time>2020-07-12T07:09:23Z</time>
      </trkpt>
      <trkpt lat="46.56113" lon="2.58747">
        <ele>180.4</ele>
        <time>2020-07-12T07:09:25Z</time>
      </trkpt>
      <trkpt lat="46.56118" lon="2.58739">
        <ele>180.6</ele>
        <time>2020-07-12T07:09:27Z</time>
      </trkpt>
      <trkpt lat="46.56122" lon="2.58731">
        <ele>180.7</ele>
        <time>2020-07-12T07:09:29Z</time>
      </trkpt>
      <trkpt lat="46.56127" lon="2.58723">
        <ele>180.5</ele>
        <time>2020-07-12T07:09:31Z</time>
      </trkpt>
      <trkpt lat="46.56131" lon="2.58715">
        <ele>180.2</ele>
        <time>2020-07-12T07:09:33Z</time>
      </trkpt>
      <trkpt lat="46.56135" lon="2.58707">
        <ele>181.2</ele>
        <time>2020-07-12T07:09:35Z</time>
      </trkpt>
      <trkpt lat="46.56139" lon="2.58697">
        <ele>181</ele>
        <time>2020-07-12T07:09:38Z</time>
      </trkpt>
      <trkpt lat="46.56136" lon="2.58686">
        <ele>181.5</ele>
        <time>2020-07-12T07:09:41Z</time>
      </trkpt>
      <trkpt lat="46.56134" lon="2.58682">
        <ele>181.5</ele>
        <time>2020-07-12T07:09:42Z</time>
      </trkpt>
      <trkpt lat="46.56127" lon="2.58671">
        <ele>181.9</ele>
        <time>2020-07-12T07:09:45Z</time>
      </trkpt>
      <trkpt lat="46.56122" lon="2.58664">
        <ele>182</ele>
        <time>2020-07-12T07:09:47Z</time>
      </trkpt>
      <trkpt lat="46.56116" lon="2.58656">
        <ele>182</ele>
        <time>2020-07-12T07:09:49Z</time>
      </trkpt>
      <trkpt lat="46.5611" lon="2.58648">
        <ele>182.2</ele>
        <time>2020-07-12T07:09:51Z</time>
      </trkpt>
      <trkpt lat="46.56103" lon="2.5864">
        <ele>182.1</ele>
        <time>2020-07-12T07:09:53Z</time>
      </trkpt>
      <trkpt lat="46.56097" lon="2.58631">
        <ele>182.4</ele>
        <time>2020-07-12T07:09:55Z</time>
      </trkpt>
      <trkpt lat="46.5609" lon="2.58622">
        <ele>182.5</ele>
        <time>2020-07-12T07:09:57Z</time>
      </trkpt>
      <trkpt lat="46.56084" lon="2.58613">
        <ele>182.1</ele>
        <time>2020-07-12T07:09:59Z</time>
      </trkpt>
      <trkpt lat="46.56081" lon="2.58609">
        <ele>182.3</ele>
        <time>2020-07-12T07:10:00Z</time>
      </trkpt>
      <trkpt lat="46.56074" lon="2.58599">
        <ele>182.2</ele>
        <time>2020-07-12T07:10:02Z</time>
      </trkpt>
      <trkpt lat="46.56069" lon="2.58589">
        <ele>181.8</ele>
        <time>2020-07-12T07:10:04Z</time>
      </trkpt>
      <trkpt lat="46.56064" lon="2.58579">
        <ele>181.6</ele>
        <time>2020-07-12T07:10:06Z</time>
      </trkpt>
      <trkpt lat="46.56059" lon="2.58568">
        <ele>181.8</ele>
        <time>2020-07-12T07:10:08Z</time>
      </trkpt>
      <trkpt lat="46.56058" lon="2.58557">
        <ele>181.5</ele>
        <time>2020-07-12T07:10:10Z</time>
      </trkpt>
      <trkpt lat="46.56062" lon="2.58547">
        <ele>181.3</ele>
        <time>2020-07-12T07:10:12Z</time>
      </trkpt>
      <trkpt lat="46.56067" lon="2.58538">
        <ele>181.3</ele>
        <time>2020-07-12T07:10:14Z</time>
      </trkpt>
      <trkpt lat="46.56071" lon="2.58528">
        <ele>181.5</ele>
        <time>2020-07-12T07:10:16Z</time>
      </trkpt>
      <trkpt lat="46.56074" lon="2.58519">
        <ele>182.3</ele>
        <time>2020-07-12T07:10:18Z</time>
      </trkpt>
      <trkpt lat="46.56079" lon="2.5851">
        <ele>183.2</ele>
        <time>2020-07-12T07:10:20Z</time>
      </trkpt>
      <trkpt lat="46.56083" lon="2.58501">
        <ele>183.9</ele>
        <time>2020-07-12T07:10:22Z</time>
      </trkpt>
      <trkpt lat="46.56087" lon="2.58491">
        <ele>183.8</ele>
        <time>2020-07-12T07:10:24Z</time>
      </trkpt>
      <trkpt lat="46.56091" lon="2.58481">
        <ele>184</ele>
        <time>2020-07-12T07:10:26Z</time>
      </trkpt>
      <trkpt lat="46.56095" lon="2.58472">
        <ele>184.4</ele>
        <time>2020-07-12T07:10:28Z</time>
      </trkpt>
      <trkpt lat="46.56099" lon="2.58462">
        <ele>184.5</ele>
        <time>2020-07-12T07:10:30Z</time>
      </trkpt>
      <trkpt lat="46.56104" lon="2.58452">
        <ele>185</ele>
        <time>2020-07-12T07:10:32Z</time>
      </trkpt>
      <trkpt lat="46.56107" lon="2.58442">
        <ele>184.3</ele>
        <time>2020-07-12T07:10:34Z</time>
      </trkpt>
      <trkpt lat="46.56111" lon="2.58432">
        <ele>184.3</ele>
        <time>2020-07-12T07:10:36Z</time>
      </trkpt>
      <trkpt lat="46.56115" lon="2.58422">
        <ele>184.5</ele>
        <time>2020-07-12T07:10:38Z</time>
      </trkpt>
      <trkpt lat="46.56119" lon="2.58412">
        <ele>184.6</ele>
        <time>2020-07-12T07:10:40Z</time>
      </trkpt>
      <trkpt lat="46.56124" lon="2.58402">
        <ele>184.4</ele>
        <time>2020-07-12T07:10:42Z</time>
      </trkpt>
      <trkpt lat="46.56126" lon="2.58397">
        <ele>184.1</ele>
        <time>2020-07-12T07:10:43Z</time>
      </trkpt>
      <trkpt lat="46.56134" lon="2.58383">
        <ele>183.5</ele>
        <time>2020-07-12T07:10:46Z</time>
      </trkpt>
      <trkpt lat="46.5614" lon="2.58374">
        <ele>183.4</ele>
        <time>2020-07-12T07:10:48Z</time>
      </trkpt>
      <trkpt lat="46.56145" lon="2.58364">
        <ele>183.4</ele>
        <time>2020-07-12T07:10:50Z</time>
      </trkpt>
      <trkpt lat="46.5615" lon="2.58355">
        <ele>183.6</ele>
        <time>2020-07-12T07:10:52Z</time>
      </trkpt>
      <trkpt lat="46.56156" lon="2.58346">
        <ele>183.7</ele>
        <time>2020-07-12T07:10:54Z</time>
      </trkpt>
      <trkpt lat="46.56162" lon="2.58337">
        <ele>183.7</ele>
        <time>2020-07-12T07:10:56Z</time>
      </trkpt>
      <trkpt lat="46.56168" lon="2.58329">
        <ele>183.5</ele>
        <time>2020-07-12T07:10:58Z</time>
      </trkpt>
      <trkpt lat="46.56176" lon="2.58324">
        <ele>184</ele>
        <time>2020-07-12T07:11:00Z</time>
      </trkpt>
      <trkpt lat="46.56184" lon="2.58321">
        <ele>184</ele>
        <time>2020-07-12T07:11:02Z</time>
      </trkpt>
      <trkpt lat="46.56191" lon="2.58319">
        <ele>184</ele>
        <time>2020-07-12T07:11:04Z</time>
      </trkpt>
      <trkpt lat="46.56198" lon="2.5832">
        <ele>183.5</ele>
        <time>2020-07-12T07:11:06Z</time>
      </trkpt>
      <trkpt lat="46.56205" lon="2.58322">
        <ele>182.8</ele>
        <time>2020-07-12T07:11:08Z</time>
      </trkpt>
      <trkpt lat="46.56213" lon="2.58325">
        <ele>183.4</ele>
        <time>2020-07-12T07:11:10Z</time>
      </trkpt>
      <trkpt lat="46.56221" lon="2.58327">
        <ele>183.6</ele>
        <time>2020-07-12T07:11:12Z</time>
      </trkpt>
      <trkpt lat="46.56228" lon="2.58328">
        <ele>183.4</ele>
        <time>2020-07-12T07:11:14Z</time>
      </trkpt>
      <trkpt lat="46.56236" lon="2.58326">
        <ele>183.1</ele>
        <time>2020-07-12T07:11:16Z</time>
      </trkpt>
      <trkpt lat="46.56243" lon="2.58321">
        <ele>183.2</ele>
        <time>2020-07-12T07:11:18Z</time>
      </trkpt>
      <trkpt lat="46.5625" lon="2.58315">
        <ele>183.6</ele>
        <time>2020-07-12T07:11:20Z</time>
      </trkpt>
      <trkpt lat="46.56256" lon="2.5831">
        <ele>184</ele>
        <time>2020-07-12T07:11:22Z</time>
      </trkpt>
      <trkpt lat="46.56262" lon="2.58305">
        <ele>183.8</ele>
        <time>2020-07-12T07:11:24Z</time>
      </trkpt>
      <trkpt lat="46.56269" lon="2.58301">
        <ele>183.6</ele>
        <time>2020-07-12T07:11:26Z</time>
      </trkpt>
      <trkpt lat="46.56276" lon="2.58297">
        <ele>183.6</ele>
        <time>2020-07-12T07:11:28Z</time>
      </trkpt>
      <trkpt lat="46.56283" lon="2.58292">
        <ele>183.8</ele>
        <time>2020-07-12T07:11:30Z</time>
      </trkpt>
      <trkpt lat="46.5629" lon="2.58286">
        <ele>183.5</ele>
        <time>2020-07-12T07:11:32Z</time>
      </trkpt>
      <trkpt lat="46.56297" lon="2.58281">
        <ele>182.9</ele>
        <time>2020-07-12T07:11:34Z</time>
      </trkpt>
      <trkpt lat="46.56303" lon="2.58276">
        <ele>182.8</ele>
        <time>2020-07-12T07:11:36Z</time>
      </trkpt>
      <trkpt lat="46.5631" lon="2.5827">
        <ele>182.8</ele>
        <time>2020-07-12T07:11:38Z</time>
      </trkpt>
      <trkpt lat="46.56317" lon="2.58265">
        <ele>183.6</ele>
        <time>2020-07-12T07:11:40Z</time>
      </trkpt>
      <trkpt lat="46.56324" lon="2.58261">
        <ele>183.8</ele>
        <time>2020-07-12T07:11:42Z</time>
      </trkpt>
      <trkpt lat="46.56332" lon="2.58258">
        <ele>183.9</ele>
        <time>2020-07-12T07:11:44Z</time>
      </trkpt>
      <trkpt lat="46.56336" lon="2.58257">
        <ele>184</ele>
        <time>2020-07-12T07:11:45Z</time>
      </trkpt>
      <trkpt lat="46.56348" lon="2.58254">
        <ele>183.7</ele>
        <time>2020-07-12T07:11:48Z</time>
      </trkpt>
      <trkpt lat="46.56354" lon="2.58247">
        <ele>184.3</ele>
        <time>2020-07-12T07:11:50Z</time>
      </trkpt>
      <trkpt lat="46.56358" lon="2.58237">
        <ele>184.2</ele>
        <time>2020-07-12T07:11:52Z</time>
      </trkpt>
      <trkpt lat="46.56362" lon="2.58227">
        <ele>184.1</ele>
        <time>2020-07-12T07:11:54Z</time>
      </trkpt>
      <trkpt lat="46.56365" lon="2.58217">
        <ele>183.7</ele>
        <time>2020-07-12T07:11:56Z</time>
      </trkpt>
      <trkpt lat="46.56371" lon="2.58208">
        <ele>183.4</ele>
        <time>2020-07-12T07:11:58Z</time>
      </trkpt>
      <trkpt lat="46.56374" lon="2.58205">
        <ele>183.4</ele>
        <time>2020-07-12T07:11:59Z</time>
      </trkpt>
      <trkpt lat="46.56379" lon="2.58202">
        <ele>183.4</ele>
        <time>2020-07-12T07:12:00Z</time>
      </trkpt>
      <trkpt lat="46.56384" lon="2.582">
        <ele>183.1</ele>
        <time>2020-07-12T07:12:01Z</time>
      </trkpt>
      <trkpt lat="46.56389" lon="2.58199">
        <ele>182.9</ele>
        <time>2020-07-12T07:12:02Z</time>
      </trkpt>
      <trkpt lat="46.56394" lon="2.58198">
        <ele>183</ele>
        <time>2020-07-12T07:12:03Z</time>
      </trkpt>
      <trkpt lat="46.56399" lon="2.58197">
        <ele>183.1</ele>
        <time>2020-07-12T07:12:04Z</time>
      </trkpt>
      <trkpt lat="46.56404" lon="2.58196">
        <ele>183.2</ele>
        <time>2020-07-12T07:12:05Z</time>
      </trkpt>
      <trkpt lat="46.56409" lon="2.58196">
        <ele>182.9</ele>
        <time>2020-07-12T07:12:06Z</time>
      </trkpt>
      <trkpt lat="46.56418" lon="2.58196">
        <ele>182.3</ele>
        <time>2020-07-12T07:12:08Z</time>
      </trkpt>
      <trkpt lat="46.56425" lon="2.58194">
        <ele>181.5</ele>
        <time>2020-07-12T07:12:10Z</time>
      </trkpt>
      <trkpt lat="46.56432" lon="2.58188">
        <ele>181</ele>
        <time>2020-07-12T07:12:13Z</time>
      </trkpt>
      <trkpt lat="46.56438" lon="2.5818">
        <ele>181.5</ele>
        <time>2020-07-12T07:12:17Z</time>
      </trkpt>
      <trkpt lat="46.56445" lon="2.58174">
        <ele>181.5</ele>
        <time>2020-07-12T07:12:20Z</time>
      </trkpt>
      <trkpt lat="46.56453" lon="2.58176">
        <ele>181.2</ele>
        <time>2020-07-12T07:12:23Z</time>
      </trkpt>
      <trkpt lat="46.56459" lon="2.58179">
        <ele>181.2</ele>
        <time>2020-07-12T07:12:25Z</time>
      </trkpt>
      <trkpt lat="46.56464" lon="2.58183">
        <ele>181.7</ele>
        <time>2020-07-12T07:12:27Z</time>
      </trkpt>
      <trkpt lat="46.5647" lon="2.58188">
        <ele>181.8</ele>
        <time>2020-07-12T07:12:29Z</time>
      </trkpt>
      <trkpt lat="46.56475" lon="2.58195">
        <ele>181.6</ele>
        <time>2020-07-12T07:12:31Z</time>
      </trkpt>
      <trkpt lat="46.5648" lon="2.58202">
        <ele>181.5</ele>
        <time>2020-07-12T07:12:33Z</time>
      </trkpt>
      <trkpt lat="46.56486" lon="2.5821">
        <ele>181.7</ele>
        <time>2020-07-12T07:12:35Z</time>
      </trkpt>
      <trkpt lat="46.56492" lon="2.58217">
        <ele>181.6</ele>
        <time>2020-07-12T07:12:37Z</time>
      </trkpt>
      <trkpt lat="46.56498" lon="2.58225">
        <ele>181.8</ele>
        <time>2020-07-12T07:12:39Z</time>
      </trkpt>
      <trkpt lat="46.56504" lon="2.58232">
        <ele>182</ele>
        <time>2020-07-12T07:12:41Z</time>
      </trkpt>
      <trkpt lat="46.56511" lon="2.58237">
        <ele>182.2</ele>
        <time>2020-07-12T07:12:43Z</time>
      </trkpt>
      <trkpt lat="46.56519" lon="2.5824">
        <ele>181.8</ele>
        <time>2020-07-12T07:12:45Z</time>
      </trkpt>
      <trkpt lat="46.56523" lon="2.5824">
        <ele>181.7</ele>
        <time>2020-07-12T07:12:46Z</time>
      </trkpt>
      <trkpt lat="46.56535" lon="2.58239">
        <ele>182.6</ele>
        <time>2020-07-12T07:12:49Z</time>
      </trkpt>
      <trkpt lat="46.56542" lon="2.58238">
        <ele>182.8</ele>
        <time>2020-07-12T07:12:51Z</time>
      </trkpt>
      <trkpt lat="46.5655" lon="2.58235">
        <ele>183.2</ele>
        <time>2020-07-12T07:12:53Z</time>
      </trkpt>
      <trkpt lat="46.56558" lon="2.58233">
        <ele>183.4</ele>
        <time>2020-07-12T07:12:55Z</time>
      </trkpt>
      <trkpt lat="46.56566" lon="2.58231">
        <ele>183.1</ele>
        <time>2020-07-12T07:12:57Z</time>
      </trkpt>
      <trkpt lat="46.56574" lon="2.58228">
        <ele>183.3</ele>
        <time>2020-07-12T07:12:59Z</time>
      </trkpt>
      <trkpt lat="46.56582" lon="2.58226">
        <ele>183.9</ele>
        <time>2020-07-12T07:13:01Z</time>
      </trkpt>
      <trkpt lat="46.5659" lon="2.58224">
        <ele>184</ele>
        <time>2020-07-12T07:13:03Z</time>
      </trkpt>
      <trkpt lat="46.56597" lon="2.58222">
        <ele>184</ele>
        <time>2020-07-12T07:13:05Z</time>
      </trkpt>
      <trkpt lat="46.56605" lon="2.5822">
        <ele>184.3</ele>
        <time>2020-07-12T07:13:07Z</time>
      </trkpt>
      <trkpt lat="46.56612" lon="2.58218">
        <ele>184.7</ele>
        <time>2020-07-12T07:13:09Z</time>
      </trkpt>
      <trkpt lat="46.5662" lon="2.58217">
        <ele>185.2</ele>
        <time>2020-07-12T07:13:11Z</time>
      </trkpt>
      <trkpt lat="46.56627" lon="2.58216">
        <ele>185.7</ele>
        <time>2020-07-12T07:13:13Z</time>
      </trkpt>
      <trkpt lat="46.56634" lon="2.58215">
        <ele>186.3</ele>
        <time>2020-07-12T07:13:15Z</time>
      </trkpt>
      <trkpt lat="46.56641" lon="2.58215">
        <ele>186.9</ele>
        <time>2020-07-12T07:13:17Z</time>
      </trkpt>
      <trkpt lat="46.56648" lon="2.58215">
        <ele>187.4</ele>
        <time>2020-07-12T07:13:19Z</time>
      </trkpt>
      <trkpt lat="46.56655" lon="2.58214">
        <ele>187.5</ele>
        <time>2020-07-12T07:13:21Z</time>
      </trkpt>
      <trkpt lat="46.56661" lon="2.58215">
        <ele>188</ele>
        <time>2020-07-12T07:13:23Z</time>
      </trkpt>
      <trkpt lat="46.56667" lon="2.58217">
        <ele>188.3</ele>
        <time>2020-07-12T07:13:25Z</time>
      </trkpt>
      <trkpt lat="46.56674" lon="2.58218">
        <ele>188</ele>
        <time>2020-07-12T07:13:27Z</time>
      </trkpt>
      <trkpt lat="46.5668" lon="2.5822">
        <ele>188.3</ele>
        <time>2020-07-12T07:13:29Z</time>
      </trkpt>
      <trkpt lat="46.56686" lon="2.58221">
        <ele>189.3</ele>
        <time>2020-07-12T07:13:31Z</time>
      </trkpt>
      <trkpt lat="46.56692" lon="2.58222">
        <ele>190.2</ele>
        <time>2020-07-12T07:13:33Z</time>
      </trkpt>
      <trkpt lat="46.567" lon="2.58225">
        <ele>191.3</ele>
        <time>2020-07-12T07:13:36Z</time>
      </trkpt>
      <trkpt lat="46.56709" lon="2.58228">
        <ele>193.3</ele>
        <time>2020-07-12T07:13:40Z</time>
      </trkpt>
      <trkpt lat="46.56716" lon="2.58229">
        <ele>193.9</ele>
        <time>2020-07-12T07:13:43Z</time>
      </trkpt>
      <trkpt lat="46.56724" lon="2.5823">
        <ele>194.5</ele>
        <time>2020-07-12T07:13:46Z</time>
      </trkpt>
      <trkpt lat="46.56727" lon="2.58231">
        <ele>194.7</ele>
        <time>2020-07-12T07:13:47Z</time>
      </trkpt>
      <trkpt lat="46.56736" lon="2.58231">
        <ele>196.4</ele>
        <time>2020-07-12T07:13:50Z</time>
      </trkpt>
      <trkpt lat="46.56743" lon="2.58231">
        <ele>197.1</ele>
        <time>2020-07-12T07:13:52Z</time>
      </trkpt>
      <trkpt lat="46.5675" lon="2.58231">
        <ele>197.6</ele>
        <time>2020-07-12T07:13:54Z</time>
      </trkpt>
      <trkpt lat="46.56757" lon="2.5823">
        <ele>197.3</ele>
        <time>2020-07-12T07:13:56Z</time>
      </trkpt>
      <trkpt lat="46.56763" lon="2.58229">
        <ele>197.3</ele>
        <time>2020-07-12T07:13:58Z</time>
      </trkpt>
      <trkpt lat="46.5677" lon="2.58227">
        <ele>196.8</ele>
        <time>2020-07-12T07:14:00Z</time>
      </trkpt>
      <trkpt lat="46.56776" lon="2.58226">
        <ele>196.2</ele>
        <time>2020-07-12T07:14:02Z</time>
      </trkpt>
      <trkpt lat="46.56784" lon="2.58226">
        <ele>196.2</ele>
        <time>2020-07-12T07:14:04Z</time>
      </trkpt>
      <trkpt lat="46.56791" lon="2.58226">
        <ele>196.5</ele>
        <time>2020-07-12T07:14:06Z</time>
      </trkpt>
      <trkpt lat="46.56799" lon="2.58226">
        <ele>196.7</ele>
        <time>2020-07-12T07:14:08Z</time>
      </trkpt>
      <trkpt lat="46.56806" lon="2.58228">
        <ele>197.1</ele>
        <time>2020-07-12T07:14:10Z</time>
      </trkpt>
      <trkpt lat="46.56814" lon="2.58229">
        <ele>196.9</ele>
        <time>2020-07-12T07:14:12Z</time>
      </trkpt>
      <trkpt lat="46.56822" lon="2.58231">
        <ele>197</ele>
        <time>2020-07-12T07:14:14Z</time>
      </trkpt>
      <trkpt lat="46.5683" lon="2.58234">
        <ele>197.1</ele>
        <time>2020-07-12T07:14:16Z</time>
      </trkpt>
      <trkpt lat="46.56837" lon="2.58236">
        <ele>197.1</ele>
        <time>2020-07-12T07:14:18Z</time>
      </trkpt>
      <trkpt lat="46.56844" lon="2.58239">
        <ele>198</ele>
        <time>2020-07-12T07:14:20Z</time>
      </trkpt>
      <trkpt lat="46.56851" lon="2.58242">
        <ele>198.4</ele>
        <time>2020-07-12T07:14:22Z</time>
      </trkpt>
      <trkpt lat="46.56858" lon="2.58244">
        <ele>198</ele>
        <time>2020-07-12T07:14:24Z</time>
      </trkpt>
      <trkpt lat="46.56866" lon="2.58247">
        <ele>198.4</ele>
        <time>2020-07-12T07:14:26Z</time>
      </trkpt>
      <trkpt lat="46.56872" lon="2.5825">
        <ele>198.6</ele>
        <time>2020-07-12T07:14:28Z</time>
      </trkpt>
      <trkpt lat="46.56879" lon="2.58252">
        <ele>198.6</ele>
        <time>2020-07-12T07:14:30Z</time>
      </trkpt>
      <trkpt lat="46.56887" lon="2.58256">
        <ele>198.8</ele>
        <time>2020-07-12T07:14:32Z</time>
      </trkpt>
      <trkpt lat="46.56895" lon="2.58259">
        <ele>198.6</ele>
        <time>2020-07-12T07:14:34Z</time>
      </trkpt>
      <trkpt lat="46.56903" lon="2.58261">
        <ele>198.1</ele>
        <time>2020-07-12T07:14:36Z</time>
      </trkpt>
      <trkpt lat="46.5691" lon="2.58256">
        <ele>198</ele>
        <time>2020-07-12T07:14:38Z</time>
      </trkpt>
      <trkpt lat="46.56911" lon="2.58245">
        <ele>197.9</ele>
        <time>2020-07-12T07:14:40Z</time>
      </trkpt>
      <trkpt lat="46.5691" lon="2.58234">
        <ele>198</ele>
        <time>2020-07-12T07:14:42Z</time>
      </trkpt>
      <trkpt lat="46.56908" lon="2.58222">
        <ele>198.4</ele>
        <time>2020-07-12T07:14:44Z</time>
      </trkpt>
      <trkpt lat="46.56907" lon="2.58211">
        <ele>198.6</ele>
        <time>2020-07-12T07:14:46Z</time>
      </trkpt>
      <trkpt lat="46.56905" lon="2.582">
        <ele>198.4</ele>
        <time>2020-07-12T07:14:48Z</time>
      </trkpt>
      <trkpt lat="46.56904" lon="2.58194">
        <ele>198.6</ele>
        <time>2020-07-12T07:14:49Z</time>
      </trkpt>
      <trkpt lat="46.56903" lon="2.58176">
        <ele>198.7</ele>
        <time>2020-07-12T07:14:52Z</time>
      </trkpt>
      <trkpt lat="46.56903" lon="2.58165">
        <ele>198.6</ele>
        <time>2020-07-12T07:14:54Z</time>
      </trkpt>
      <trkpt lat="46.56903" lon="2.58153">
        <ele>198.8</ele>
        <time>2020-07-12T07:14:56Z</time>
      </trkpt>
      <trkpt lat="46.56902" lon="2.58141">
        <ele>198.3</ele>
        <time>2020-07-12T07:14:58Z</time>
      </trkpt>
      <trkpt lat="46.56902" lon="2.58129">
        <ele>197.6</ele>
        <time>2020-07-12T07:15:00Z</time>
      </trkpt>
      <trkpt lat="46.56902" lon="2.58116">
        <ele>198.2</ele>
        <time>2020-07-12T07:15:02Z</time>
      </trkpt>
      <trkpt lat="46.56902" lon="2.58104">
        <ele>198.4</ele>
        <time>2020-07-12T07:15:04Z</time>
      </trkpt>
      <trkpt lat="46.56901" lon="2.58092">
        <ele>198.5</ele>
        <time>2020-07-12T07:15:06Z</time>
      </trkpt>
      <trkpt lat="46.56901" lon="2.58079">
        <ele>199.1</ele>
        <time>2020-07-12T07:15:08Z</time>
      </trkpt>
      <trkpt lat="46.56901" lon="2.58067">
        <ele>199.7</ele>
        <time>2020-07-12T07:15:10Z</time>
      </trkpt>
      <trkpt lat="46.56902" lon="2.58055">
        <ele>199.5</ele>
        <time>2020-07-12T07:15:12Z</time>
      </trkpt>
      <trkpt lat="46.56902" lon="2.58043">
        <ele>199.3</ele>
        <time>2020-07-12T07:15:14Z</time>
      </trkpt>
      <trkpt lat="46.56902" lon="2.58031">
        <ele>199.4</ele>
        <time>2020-07-12T07:15:16Z</time>
      </trkpt>
      <trkpt lat="46.56902" lon="2.58018">
        <ele>199.2</ele>
        <time>2020-07-12T07:15:18Z</time>
      </trkpt>
      <trkpt lat="46.56902" lon="2.58006">
        <ele>199</ele>
        <time>2020-07-12T07:15:20Z</time>
      </trkpt>
      <trkpt lat="46.56903" lon="2.57993">
        <ele>198.9</ele>
        <time>2020-07-12T07:15:22Z</time>
      </trkpt>
      <trkpt lat="46.56903" lon="2.5798">
        <ele>198.8</ele>
        <time>2020-07-12T07:15:24Z</time>
      </trkpt>
      <trkpt lat="46.56903" lon="2.57967">
        <ele>199</ele>
        <time>2020-07-12T07:15:26Z</time>
      </trkpt>
      <trkpt lat="46.56904" lon="2.57955">
        <ele>198.9</ele>
        <time>2020-07-12T07:15:28Z</time>
      </trkpt>
      <trkpt lat="46.56904" lon="2.57942">
        <ele>198.8</ele>
        <time>2020-07-12T07:15:30Z</time>
      </trkpt>
      <trkpt lat="46.56905" lon="2.5793">
        <ele>199</ele>
        <time>2020-07-12T07:15:32Z</time>
      </trkpt>
      <trkpt lat="46.56905" lon="2.57917">
        <ele>198.7</ele>
        <time>2020-07-12T07:15:34Z</time>
      </trkpt>
      <trkpt lat="46.56905" lon="2.57904">
        <ele>198.2</ele>
        <time>2020-07-12T07:15:36Z</time>
      </trkpt>
      <trkpt lat="46.56906" lon="2.57892">
        <ele>198.1</ele>
        <time>2020-07-12T07:15:38Z</time>
      </trkpt>
      <trkpt lat="46.56907" lon="2.57879">
        <ele>198.9</ele>
        <time>2020-07-12T07:15:40Z</time>
      </trkpt>
      <trkpt lat="46.56907" lon="2.57866">
        <ele>198.6</ele>
        <time>2020-07-12T07:15:42Z</time>
      </trkpt>
      <trkpt lat="46.56907" lon="2.5786">
        <ele>198.2</ele>
        <time>2020-07-12T07:15:43Z</time>
      </trkpt>
      <trkpt lat="46.56907" lon="2.57853">
        <ele>198.2</ele>
        <time>2020-07-12T07:15:44Z</time>
      </trkpt>
      <trkpt lat="46.56907" lon="2.5784">
        <ele>198.4</ele>
        <time>2020-07-12T07:15:46Z</time>
      </trkpt>
      <trkpt lat="46.56908" lon="2.57827">
        <ele>198.5</ele>
        <time>2020-07-12T07:15:48Z</time>
      </trkpt>
      <trkpt lat="46.56909" lon="2.57815">
        <ele>198.9</ele>
        <time>2020-07-12T07:15:50Z</time>
      </trkpt>
      <trkpt lat="46.5691" lon="2.57808">
        <ele>198.8</ele>
        <time>2020-07-12T07:15:51Z</time>
      </trkpt>
      <trkpt lat="46.56911" lon="2.57802">
        <ele>198.8</ele>
        <time>2020-07-12T07:15:52Z</time>
      </trkpt>
      <trkpt lat="46.56912" lon="2.57795">
        <ele>198.6</ele>
        <time>2020-07-12T07:15:53Z</time>
      </trkpt>
      <trkpt lat="46.56914" lon="2.57787">
        <ele>198.4</ele>
        <time>2020-07-12T07:15:54Z</time>
      </trkpt>
      <trkpt lat="46.56916" lon="2.5778">
        <ele>198.2</ele>
        <time>2020-07-12T07:15:55Z</time>
      </trkpt>
      <trkpt lat="46.56919" lon="2.57773">
        <ele>197.8</ele>
        <time>2020-07-12T07:15:56Z</time>
      </trkpt>
      <trkpt lat="46.56922" lon="2.57767">
        <ele>197.4</ele>
        <time>2020-07-12T07:15:57Z</time>
      </trkpt>
      <trkpt lat="46.56924" lon="2.57761">
        <ele>197.1</ele>
        <time>2020-07-12T07:15:58Z</time>
      </trkpt>
      <trkpt lat="46.56927" lon="2.57755">
        <ele>197</ele>
        <time>2020-07-12T07:15:59Z</time>
      </trkpt>
      <trkpt lat="46.5693" lon="2.57749">
        <ele>196.8</ele>
        <time>2020-07-12T07:16:00Z</time>
      </trkpt>
      <trkpt lat="46.56932" lon="2.57743">
        <ele>196.4</ele>
        <time>2020-07-12T07:16:01Z</time>
      </trkpt>
      <trkpt lat="46.56935" lon="2.57737">
        <ele>196.1</ele>
        <time>2020-07-12T07:16:02Z</time>
      </trkpt>
      <trkpt lat="46.5694" lon="2.57726">
        <ele>196.3</ele>
        <time>2020-07-12T07:16:04Z</time>
      </trkpt>
      <trkpt lat="46.56942" lon="2.57721">
        <ele>196.2</ele>
        <time>2020-07-12T07:16:05Z</time>
      </trkpt>
      <trkpt lat="46.56945" lon="2.57715">
        <ele>196.2</ele>
        <time>2020-07-12T07:16:06Z</time>
      </trkpt>
      <trkpt lat="46.56947" lon="2.57709">
        <ele>196.2</ele>
        <time>2020-07-12T07:16:07Z</time>
      </trkpt>
      <trkpt lat="46.5695" lon="2.57703">
        <ele>196.2</ele>
        <time>2020-07-12T07:16:08Z</time>
      </trkpt>
      <trkpt lat="46.56952" lon="2.57697">
        <ele>196.2</ele>
        <time>2020-07-12T07:16:09Z</time>
      </trkpt>
      <trkpt lat="46.56955" lon="2.57692">
        <ele>196.1</ele>
        <time>2020-07-12T07:16:10Z</time>
      </trkpt>
      <trkpt lat="46.56958" lon="2.57686">
        <ele>196</ele>
        <time>2020-07-12T07:16:11Z</time>
      </trkpt>
      <trkpt lat="46.56961" lon="2.57681">
        <ele>196.5</ele>
        <time>2020-07-12T07:16:12Z</time>
      </trkpt>
      <trkpt lat="46.56963" lon="2.57675">
        <ele>196.9</ele>
        <time>2020-07-12T07:16:13Z</time>
      </trkpt>
      <trkpt lat="46.56966" lon="2.5767">
        <ele>197.2</ele>
        <time>2020-07-12T07:16:14Z</time>
      </trkpt>
      <trkpt lat="46.56971" lon="2.5766">
        <ele>197.4</ele>
        <time>2020-07-12T07:16:16Z</time>
      </trkpt>
      <trkpt lat="46.56976" lon="2.57652">
        <ele>197.2</ele>
        <time>2020-07-12T07:16:18Z</time>
      </trkpt>
      <trkpt lat="46.56981" lon="2.57643">
        <ele>197.3</ele>
        <time>2020-07-12T07:16:20Z</time>
      </trkpt>
      <trkpt lat="46.56986" lon="2.57635">
        <ele>197.6</ele>
        <time>2020-07-12T07:16:22Z</time>
      </trkpt>
      <trkpt lat="46.56989" lon="2.57628">
        <ele>198.1</ele>
        <time>2020-07-12T07:16:24Z</time>
      </trkpt>
      <trkpt lat="46.56987" lon="2.57617">
        <ele>198.4</ele>
        <time>2020-07-12T07:16:27Z</time>
      </trkpt>
      <trkpt lat="46.56982" lon="2.57612">
        <ele>198</ele>
        <time>2020-07-12T07:16:29Z</time>
      </trkpt>
      <trkpt lat="46.56976" lon="2.57606">
        <ele>198.3</ele>
        <time>2020-07-12T07:16:31Z</time>
      </trkpt>
      <trkpt lat="46.56969" lon="2.57598">
        <ele>199.1</ele>
        <time>2020-07-12T07:16:33Z</time>
      </trkpt>
      <trkpt lat="46.56962" lon="2.5759">
        <ele>199.8</ele>
        <time>2020-07-12T07:16:35Z</time>
      </trkpt>
      <trkpt lat="46.56956" lon="2.57581">
        <ele>199.2</ele>
        <time>2020-07-12T07:16:37Z</time>
      </trkpt>
      <trkpt lat="46.56951" lon="2.57572">
        <ele>198.7</ele>
        <time>2020-07-12T07:16:39Z</time>
      </trkpt>
      <trkpt lat="46.56946" lon="2.57564">
        <ele>198.5</ele>
        <time>2020-07-12T07:16:41Z</time>
      </trkpt>
      <trkpt lat="46.5694" lon="2.57555">
        <ele>198.2</ele>
        <time>2020-07-12T07:16:43Z</time>
      </trkpt>
      <trkpt lat="46.56934" lon="2.57547">
        <ele>197.8</ele>
        <time>2020-07-12T07:16:45Z</time>
      </trkpt>
      <trkpt lat="46.56928" lon="2.57538">
        <ele>198.6</ele>
        <time>2020-07-12T07:16:47Z</time>
      </trkpt>
      <trkpt lat="46.56922" lon="2.57529">
        <ele>199.5</ele>
        <time>2020-07-12T07:16:49Z</time>
      </trkpt>
      <trkpt lat="46.56916" lon="2.5752">
        <ele>199.4</ele>
        <time>2020-07-12T07:16:51Z</time>
      </trkpt>
      <trkpt lat="46.56913" lon="2.57515">
        <ele>199.4</ele>
        <time>2020-07-12T07:16:52Z</time>
      </trkpt>
      <trkpt lat="46.56905" lon="2.57503">
        <ele>199.7</ele>
        <time>2020-07-12T07:16:55Z</time>
      </trkpt>
      <trkpt lat="46.56899" lon="2.57496">
        <ele>200.2</ele>
        <time>2020-07-12T07:16:57Z</time>
      </trkpt>
      <trkpt lat="46.56893" lon="2.57489">
        <ele>199.6</ele>
        <time>2020-07-12T07:16:59Z</time>
      </trkpt>
      <trkpt lat="46.56888" lon="2.57483">
        <ele>199.9</ele>
        <time>2020-07-12T07:17:01Z</time>
      </trkpt>
      <trkpt lat="46.56882" lon="2.57477">
        <ele>199.7</ele>
        <time>2020-07-12T07:17:03Z</time>
      </trkpt>
      <trkpt lat="46.56875" lon="2.57471">
        <ele>200</ele>
        <time>2020-07-12T07:17:05Z</time>
      </trkpt>
      <trkpt lat="46.56869" lon="2.57465">
        <ele>199.8</ele>
        <time>2020-07-12T07:17:07Z</time>
      </trkpt>
      <trkpt lat="46.56863" lon="2.57459">
        <ele>199.6</ele>
        <time>2020-07-12T07:17:09Z</time>
      </trkpt>
      <trkpt lat="46.56857" lon="2.57452">
        <ele>199.7</ele>
        <time>2020-07-12T07:17:11Z</time>
      </trkpt>
      <trkpt lat="46.5685" lon="2.57446">
        <ele>200</ele>
        <time>2020-07-12T07:17:13Z</time>
      </trkpt>
      <trkpt lat="46.56844" lon="2.57439">
        <ele>199.6</ele>
        <time>2020-07-12T07:17:15Z</time>
      </trkpt>
      <trkpt lat="46.56837" lon="2.57434">
        <ele>199.5</ele>
        <time>2020-07-12T07:17:17Z</time>
      </trkpt>
      <trkpt lat="46.56831" lon="2.57428">
        <ele>199.7</ele>
        <time>2020-07-12T07:17:19Z</time>
      </trkpt>
      <trkpt lat="46.56824" lon="2.57422">
        <ele>199.3</ele>
        <time>2020-07-12T07:17:21Z</time>
      </trkpt>
      <trkpt lat="46.56816" lon="2.57415">
        <ele>198.6</ele>
        <time>2020-07-12T07:17:23Z</time>
      </trkpt>
      <trkpt lat="46.56812" lon="2.57412">
        <ele>199.1</ele>
        <time>2020-07-12T07:17:24Z</time>
      </trkpt>
      <trkpt lat="46.56808" lon="2.57408">
        <ele>199.4</ele>
        <time>2020-07-12T07:17:25Z</time>
      </trkpt>
      <trkpt lat="46.56803" lon="2.57404">
        <ele>198.8</ele>
        <time>2020-07-12T07:17:26Z</time>
      </trkpt>
      <trkpt lat="46.56798" lon="2.574">
        <ele>198.3</ele>
        <time>2020-07-12T07:17:27Z</time>
      </trkpt>
      <trkpt lat="46.56793" lon="2.57395">
        <ele>197.8</ele>
        <time>2020-07-12T07:17:28Z</time>
      </trkpt>
      <trkpt lat="46.56787" lon="2.57391">
        <ele>197.4</ele>
        <time>2020-07-12T07:17:29Z</time>
      </trkpt>
      <trkpt lat="46.56781" lon="2.57387">
        <ele>197.1</ele>
        <time>2020-07-12T07:17:30Z</time>
      </trkpt>
      <trkpt lat="46.56774" lon="2.57383">
        <ele>196.4</ele>
        <time>2020-07-12T07:17:31Z</time>
      </trkpt>
      <trkpt lat="46.56767" lon="2.57379">
        <ele>195.8</ele>
        <time>2020-07-12T07:17:32Z</time>
      </trkpt>
      <trkpt lat="46.5676" lon="2.57376">
        <ele>195</ele>
        <time>2020-07-12T07:17:33Z</time>
      </trkpt>
      <trkpt lat="46.56753" lon="2.57372">
        <ele>194.4</ele>
        <time>2020-07-12T07:17:34Z</time>
      </trkpt>
      <trkpt lat="46.56746" lon="2.57366">
        <ele>193.9</ele>
        <time>2020-07-12T07:17:35Z</time>
      </trkpt>
      <trkpt lat="46.56739" lon="2.57359">
        <ele>193.5</ele>
        <time>2020-07-12T07:17:36Z</time>
      </trkpt>
      <trkpt lat="46.56731" lon="2.57353">
        <ele>193.1</ele>
        <time>2020-07-12T07:17:37Z</time>
      </trkpt>
      <trkpt lat="46.56724" lon="2.57346">
        <ele>192.6</ele>
        <time>2020-07-12T07:17:38Z</time>
      </trkpt>
      <trkpt lat="46.56717" lon="2.5734">
        <ele>192.2</ele>
        <time>2020-07-12T07:17:39Z</time>
      </trkpt>
      <trkpt lat="46.5671" lon="2.57333">
        <ele>191.5</ele>
        <time>2020-07-12T07:17:40Z</time>
      </trkpt>
      <trkpt lat="46.56704" lon="2.57325">
        <ele>190.9</ele>
        <time>2020-07-12T07:17:41Z</time>
      </trkpt>
      <trkpt lat="46.56699" lon="2.57318">
        <ele>190.5</ele>
        <time>2020-07-12T07:17:42Z</time>
      </trkpt>
      <trkpt lat="46.56695" lon="2.57311">
        <ele>190</ele>
        <time>2020-07-12T07:17:43Z</time>
      </trkpt>
      <trkpt lat="46.5669" lon="2.57307">
        <ele>189.6</ele>
        <time>2020-07-12T07:17:44Z</time>
      </trkpt>
      <trkpt lat="46.56685" lon="2.57305">
        <ele>189.3</ele>
        <time>2020-07-12T07:17:45Z</time>
      </trkpt>
      <trkpt lat="46.56679" lon="2.57304">
        <ele>189</ele>
        <time>2020-07-12T07:17:46Z</time>
      </trkpt>
      <trkpt lat="46.56675" lon="2.57304">
        <ele>189</ele>
        <time>2020-07-12T07:17:47Z</time>
      </trkpt>
      <trkpt lat="46.5667" lon="2.57304">
        <ele>189</ele>
        <time>2020-07-12T07:17:48Z</time>
      </trkpt>
      <trkpt lat="46.56665" lon="2.57304">
        <ele>189</ele>
        <time>2020-07-12T07:17:49Z</time>
      </trkpt>
      <trkpt lat="46.5666" lon="2.57305">
        <ele>189.5</ele>
        <time>2020-07-12T07:17:50Z</time>
      </trkpt>
      <trkpt lat="46.56655" lon="2.57305">
        <ele>189.8</ele>
        <time>2020-07-12T07:17:51Z</time>
      </trkpt>
      <trkpt lat="46.5665" lon="2.57305">
        <ele>189.9</ele>
        <time>2020-07-12T07:17:52Z</time>
      </trkpt>
      <trkpt lat="46.56645" lon="2.57305">
        <ele>190</ele>
        <time>2020-07-12T07:17:53Z</time>
      </trkpt>
      <trkpt lat="46.5664" lon="2.57305">
        <ele>189.8</ele>
        <time>2020-07-12T07:17:54Z</time>
      </trkpt>
      <trkpt lat="46.56635" lon="2.57306">
        <ele>189.7</ele>
        <time>2020-07-12T07:17:55Z</time>
      </trkpt>
      <trkpt lat="46.5663" lon="2.57305">
        <ele>189.6</ele>
        <time>2020-07-12T07:17:56Z</time>
      </trkpt>
      <trkpt lat="46.56625" lon="2.57305">
        <ele>189.4</ele>
        <time>2020-07-12T07:17:57Z</time>
      </trkpt>
      <trkpt lat="46.56621" lon="2.57305">
        <ele>189.1</ele>
        <time>2020-07-12T07:17:58Z</time>
      </trkpt>
      <trkpt lat="46.56616" lon="2.57304">
        <ele>188.9</ele>
        <time>2020-07-12T07:17:59Z</time>
      </trkpt>
      <trkpt lat="46.56611" lon="2.57303">
        <ele>188.8</ele>
        <time>2020-07-12T07:18:00Z</time>
      </trkpt>
      <trkpt lat="46.56606" lon="2.57302">
        <ele>188.7</ele>
        <time>2020-07-12T07:18:01Z</time>
      </trkpt>
      <trkpt lat="46.566" lon="2.57302">
        <ele>189.1</ele>
        <time>2020-07-12T07:18:02Z</time>
      </trkpt>
      <trkpt lat="46.56595" lon="2.57301">
        <ele>189.4</ele>
        <time>2020-07-12T07:18:03Z</time>
      </trkpt>
      <trkpt lat="46.5659" lon="2.573">
        <ele>189.7</ele>
        <time>2020-07-12T07:18:04Z</time>
      </trkpt>
      <trkpt lat="46.56584" lon="2.573">
        <ele>189.8</ele>
        <time>2020-07-12T07:18:05Z</time>
      </trkpt>
      <trkpt lat="46.56579" lon="2.57299">
        <ele>189.6</ele>
        <time>2020-07-12T07:18:06Z</time>
      </trkpt>
      <trkpt lat="46.56574" lon="2.57298">
        <ele>189.4</ele>
        <time>2020-07-12T07:18:07Z</time>
      </trkpt>
      <trkpt lat="46.56569" lon="2.57298">
        <ele>189.3</ele>
        <time>2020-07-12T07:18:08Z</time>
      </trkpt>
      <trkpt lat="46.56564" lon="2.57297">
        <ele>188.8</ele>
        <time>2020-07-12T07:18:09Z</time>
      </trkpt>
      <trkpt lat="46.56558" lon="2.57297">
        <ele>188.4</ele>
        <time>2020-07-12T07:18:10Z</time>
      </trkpt>
      <trkpt lat="46.56553" lon="2.57296">
        <ele>188.3</ele>
        <time>2020-07-12T07:18:11Z</time>
      </trkpt>
      <trkpt lat="46.56548" lon="2.57296">
        <ele>188.2</ele>
        <time>2020-07-12T07:18:12Z</time>
      </trkpt>
      <trkpt lat="46.56542" lon="2.57296">
        <ele>188</ele>
        <time>2020-07-12T07:18:13Z</time>
      </trkpt>
      <trkpt lat="46.56537" lon="2.57297">
        <ele>187.8</ele>
        <time>2020-07-12T07:18:14Z</time>
      </trkpt>
      <trkpt lat="46.56532" lon="2.57298">
        <ele>187.7</ele>
        <time>2020-07-12T07:18:15Z</time>
      </trkpt>
      <trkpt lat="46.56527" lon="2.57298">
        <ele>187.8</ele>
        <time>2020-07-12T07:18:16Z</time>
      </trkpt>
      <trkpt lat="46.56522" lon="2.5729">
        <ele>187.1</ele>
        <time>2020-07-12T07:18:18Z</time>
      </trkpt>
      <trkpt lat="46.56525" lon="2.57282">
        <ele>186.1</ele>
        <time>2020-07-12T07:18:20Z</time>
      </trkpt>
      <trkpt lat="46.56529" lon="2.57275">
        <ele>186.4</ele>
        <time>2020-07-12T07:18:22Z</time>
      </trkpt>
      <trkpt lat="46.56533" lon="2.57268">
        <ele>186.7</ele>
        <time>2020-07-12T07:18:24Z</time>
      </trkpt>
      <trkpt lat="46.56538" lon="2.5726">
        <ele>187.5</ele>
        <time>2020-07-12T07:18:26Z</time>
      </trkpt>
      <trkpt lat="46.56542" lon="2.57253">
        <ele>187.6</ele>
        <time>2020-07-12T07:18:28Z</time>
      </trkpt>
      <trkpt lat="46.56547" lon="2.57245">
        <ele>188</ele>
        <time>2020-07-12T07:18:30Z</time>
      </trkpt>
      <trkpt lat="46.56552" lon="2.57236">
        <ele>188.8</ele>
        <time>2020-07-12T07:18:32Z</time>
      </trkpt>
      <trkpt lat="46.56556" lon="2.57227">
        <ele>189.4</ele>
        <time>2020-07-12T07:18:34Z</time>
      </trkpt>
      <trkpt lat="46.5656" lon="2.57219">
        <ele>189.8</ele>
        <time>2020-07-12T07:18:36Z</time>
      </trkpt>
      <trkpt lat="46.56564" lon="2.57211">
        <ele>189.9</ele>
        <time>2020-07-12T07:18:38Z</time>
      </trkpt>
      <trkpt lat="46.56568" lon="2.57204">
        <ele>190</ele>
        <time>2020-07-12T07:18:40Z</time>
      </trkpt>
      <trkpt lat="46.56573" lon="2.57196">
        <ele>190.2</ele>
        <time>2020-07-12T07:18:42Z</time>
      </trkpt>
      <trkpt lat="46.56577" lon="2.57189">
        <ele>190.9</ele>
        <time>2020-07-12T07:18:44Z</time>
      </trkpt>
      <trkpt lat="46.56582" lon="2.57181">
        <ele>191.7</ele>
        <time>2020-07-12T07:18:46Z</time>
      </trkpt>
      <trkpt lat="46.56587" lon="2.57174">
        <ele>191.7</ele>
        <time>2020-07-12T07:18:48Z</time>
      </trkpt>
      <trkpt lat="46.56592" lon="2.57166">
        <ele>193.1</ele>
        <time>2020-07-12T07:18:51Z</time>
      </trkpt>
      <trkpt lat="46.56599" lon="2.57157">
        <ele>194</ele>
        <time>2020-07-12T07:18:54Z</time>
      </trkpt>
      <trkpt lat="46.56601" lon="2.57155">
        <ele>194.2</ele>
        <time>2020-07-12T07:18:55Z</time>
      </trkpt>
      <trkpt lat="46.56611" lon="2.57141">
        <ele>195.7</ele>
        <time>2020-07-12T07:19:00Z</time>
      </trkpt>
      <trkpt lat="46.56617" lon="2.57132">
        <ele>196.5</ele>
        <time>2020-07-12T07:19:03Z</time>
      </trkpt>
      <trkpt lat="46.56621" lon="2.57124">
        <ele>196.8</ele>
        <time>2020-07-12T07:19:05Z</time>
      </trkpt>
      <trkpt lat="46.56625" lon="2.57117">
        <ele>196.4</ele>
        <time>2020-07-12T07:19:07Z</time>
      </trkpt>
      <trkpt lat="46.56627" lon="2.57105">
        <ele>197.1</ele>
        <time>2020-07-12T07:19:10Z</time>
      </trkpt>
      <trkpt lat="46.56628" lon="2.57095">
        <ele>197.4</ele>
        <time>2020-07-12T07:19:12Z</time>
      </trkpt>
      <trkpt lat="46.56628" lon="2.57084">
        <ele>198.2</ele>
        <time>2020-07-12T07:19:14Z</time>
      </trkpt>
      <trkpt lat="46.56628" lon="2.57074">
        <ele>198.1</ele>
        <time>2020-07-12T07:19:16Z</time>
      </trkpt>
      <trkpt lat="46.56628" lon="2.57063">
        <ele>199.5</ele>
        <time>2020-07-12T07:19:18Z</time>
      </trkpt>
      <trkpt lat="46.56628" lon="2.57051">
        <ele>199.6</ele>
        <time>2020-07-12T07:19:20Z</time>
      </trkpt>
      <trkpt lat="46.56626" lon="2.5704">
        <ele>199.5</ele>
        <time>2020-07-12T07:19:22Z</time>
      </trkpt>
      <trkpt lat="46.56624" lon="2.57029">
        <ele>199.7</ele>
        <time>2020-07-12T07:19:24Z</time>
      </trkpt>
      <trkpt lat="46.56622" lon="2.57018">
        <ele>199.8</ele>
        <time>2020-07-12T07:19:26Z</time>
      </trkpt>
      <trkpt lat="46.56619" lon="2.57007">
        <ele>200.2</ele>
        <time>2020-07-12T07:19:28Z</time>
      </trkpt>
      <trkpt lat="46.56615" lon="2.56996">
        <ele>199.8</ele>
        <time>2020-07-12T07:19:30Z</time>
      </trkpt>
      <trkpt lat="46.56612" lon="2.56986">
        <ele>199.7</ele>
        <time>2020-07-12T07:19:32Z</time>
      </trkpt>
      <trkpt lat="46.56609" lon="2.56974">
        <ele>200.3</ele>
        <time>2020-07-12T07:19:34Z</time>
      </trkpt>
      <trkpt lat="46.56605" lon="2.56963">
        <ele>200.8</ele>
        <time>2020-07-12T07:19:36Z</time>
      </trkpt>
      <trkpt lat="46.56602" lon="2.56952">
        <ele>200.3</ele>
        <time>2020-07-12T07:19:38Z</time>
      </trkpt>
      <trkpt lat="46.56598" lon="2.56941">
        <ele>201.1</ele>
        <time>2020-07-12T07:19:40Z</time>
      </trkpt>
      <trkpt lat="46.56594" lon="2.5693">
        <ele>201.5</ele>
        <time>2020-07-12T07:19:42Z</time>
      </trkpt>
      <trkpt lat="46.5659" lon="2.56919">
        <ele>201.4</ele>
        <time>2020-07-12T07:19:44Z</time>
      </trkpt>
      <trkpt lat="46.56587" lon="2.56908">
        <ele>200.8</ele>
        <time>2020-07-12T07:19:46Z</time>
      </trkpt>
      <trkpt lat="46.56583" lon="2.56896">
        <ele>200.9</ele>
        <time>2020-07-12T07:19:48Z</time>
      </trkpt>
      <trkpt lat="46.56579" lon="2.56885">
        <ele>201.4</ele>
        <time>2020-07-12T07:19:50Z</time>
      </trkpt>
      <trkpt lat="46.56576" lon="2.56873">
        <ele>202.1</ele>
        <time>2020-07-12T07:19:52Z</time>
      </trkpt>
      <trkpt lat="46.56572" lon="2.56862">
        <ele>202.7</ele>
        <time>2020-07-12T07:19:54Z</time>
      </trkpt>
      <trkpt lat="46.56569" lon="2.5685">
        <ele>203.2</ele>
        <time>2020-07-12T07:19:56Z</time>
      </trkpt>
      <trkpt lat="46.56567" lon="2.56844">
        <ele>203.4</ele>
        <time>2020-07-12T07:19:57Z</time>
      </trkpt>
      <trkpt lat="46.56563" lon="2.56827">
        <ele>203.1</ele>
        <time>2020-07-12T07:20:00Z</time>
      </trkpt>
      <trkpt lat="46.5656" lon="2.56816">
        <ele>202.8</ele>
        <time>2020-07-12T07:20:02Z</time>
      </trkpt>
      <trkpt lat="46.56557" lon="2.56804">
        <ele>202.9</ele>
        <time>2020-07-12T07:20:04Z</time>
      </trkpt>
      <trkpt lat="46.56554" lon="2.56792">
        <ele>202.6</ele>
        <time>2020-07-12T07:20:06Z</time>
      </trkpt>
      <trkpt lat="46.56551" lon="2.56781">
        <ele>202.3</ele>
        <time>2020-07-12T07:20:08Z</time>
      </trkpt>
      <trkpt lat="46.56547" lon="2.56769">
        <ele>202.8</ele>
        <time>2020-07-12T07:20:10Z</time>
      </trkpt>
      <trkpt lat="46.56544" lon="2.56757">
        <ele>203</ele>
        <time>2020-07-12T07:20:12Z</time>
      </trkpt>
      <trkpt lat="46.5654" lon="2.56746">
        <ele>202.6</ele>
        <time>2020-07-12T07:20:14Z</time>
      </trkpt>
      <trkpt lat="46.56539" lon="2.5674">
        <ele>202.5</ele>
        <time>2020-07-12T07:20:15Z</time>
      </trkpt>
      <trkpt lat="46.56537" lon="2.56733">
        <ele>202.5</ele>
        <time>2020-07-12T07:20:16Z</time>
      </trkpt>
      <trkpt lat="46.56535" lon="2.56727">
        <ele>202.1</ele>
        <time>2020-07-12T07:20:17Z</time>
      </trkpt>
      <trkpt lat="46.56534" lon="2.56721">
        <ele>201.9</ele>
        <time>2020-07-12T07:20:18Z</time>
      </trkpt>
      <trkpt lat="46.56531" lon="2.56709">
        <ele>202</ele>
        <time>2020-07-12T07:20:20Z</time>
      </trkpt>
      <trkpt lat="46.56528" lon="2.56697">
        <ele>202.2</ele>
        <time>2020-07-12T07:20:22Z</time>
      </trkpt>
      <trkpt lat="46.56525" lon="2.56684">
        <ele>202.2</ele>
        <time>2020-07-12T07:20:24Z</time>
      </trkpt>
      <trkpt lat="46.56523" lon="2.56678">
        <ele>202.1</ele>
        <time>2020-07-12T07:20:25Z</time>
      </trkpt>
      <trkpt lat="46.56522" lon="2.56671">
        <ele>202.3</ele>
        <time>2020-07-12T07:20:26Z</time>
      </trkpt>
      <trkpt lat="46.5652" lon="2.56659">
        <ele>202.6</ele>
        <time>2020-07-12T07:20:28Z</time>
      </trkpt>
      <trkpt lat="46.56519" lon="2.56648">
        <ele>202.3</ele>
        <time>2020-07-12T07:20:30Z</time>
      </trkpt>
      <trkpt lat="46.56517" lon="2.56637">
        <ele>202.1</ele>
        <time>2020-07-12T07:20:32Z</time>
      </trkpt>
      <trkpt lat="46.56515" lon="2.56625">
        <ele>201.7</ele>
        <time>2020-07-12T07:20:34Z</time>
      </trkpt>
      <trkpt lat="46.56512" lon="2.56613">
        <ele>201.9</ele>
        <time>2020-07-12T07:20:36Z</time>
      </trkpt>
      <trkpt lat="46.56508" lon="2.56602">
        <ele>202</ele>
        <time>2020-07-12T07:20:38Z</time>
      </trkpt>
      <trkpt lat="46.56505" lon="2.56591">
        <ele>201.9</ele>
        <time>2020-07-12T07:20:40Z</time>
      </trkpt>
      <trkpt lat="46.56501" lon="2.56581">
        <ele>202.4</ele>
        <time>2020-07-12T07:20:42Z</time>
      </trkpt>
      <trkpt lat="46.56497" lon="2.56569">
        <ele>202.7</ele>
        <time>2020-07-12T07:20:44Z</time>
      </trkpt>
      <trkpt lat="46.56493" lon="2.56558">
        <ele>202.8</ele>
        <time>2020-07-12T07:20:46Z</time>
      </trkpt>
      <trkpt lat="46.56488" lon="2.56547">
        <ele>203</ele>
        <time>2020-07-12T07:20:48Z</time>
      </trkpt>
      <trkpt lat="46.56484" lon="2.56536">
        <ele>203</ele>
        <time>2020-07-12T07:20:50Z</time>
      </trkpt>
      <trkpt lat="46.56479" lon="2.56526">
        <ele>202.9</ele>
        <time>2020-07-12T07:20:52Z</time>
      </trkpt>
      <trkpt lat="46.56474" lon="2.56515">
        <ele>202.8</ele>
        <time>2020-07-12T07:20:54Z</time>
      </trkpt>
      <trkpt lat="46.56469" lon="2.56504">
        <ele>203</ele>
        <time>2020-07-12T07:20:56Z</time>
      </trkpt>
      <trkpt lat="46.56463" lon="2.56494">
        <ele>203</ele>
        <time>2020-07-12T07:20:58Z</time>
      </trkpt>
      <trkpt lat="46.56461" lon="2.56489">
        <ele>203</ele>
        <time>2020-07-12T07:20:59Z</time>
      </trkpt>
      <trkpt lat="46.56455" lon="2.56478">
        <ele>202.7</ele>
        <time>2020-07-12T07:21:01Z</time>
      </trkpt>
      <trkpt lat="46.5645" lon="2.56467">
        <ele>202.9</ele>
        <time>2020-07-12T07:21:03Z</time>
      </trkpt>
      <trkpt lat="46.56447" lon="2.56462">
        <ele>203.2</ele>
        <time>2020-07-12T07:21:04Z</time>
      </trkpt>
      <trkpt lat="46.56442" lon="2.56452">
        <ele>203.5</ele>
        <time>2020-07-12T07:21:06Z</time>
      </trkpt>
      <trkpt lat="46.56436" lon="2.56442">
        <ele>203.7</ele>
        <time>2020-07-12T07:21:08Z</time>
      </trkpt>
      <trkpt lat="46.56432" lon="2.56432">
        <ele>203.1</ele>
        <time>2020-07-12T07:21:10Z</time>
      </trkpt>
      <trkpt lat="46.56427" lon="2.56422">
        <ele>202.6</ele>
        <time>2020-07-12T07:21:12Z</time>
      </trkpt>
      <trkpt lat="46.56421" lon="2.56412">
        <ele>202.6</ele>
        <time>2020-07-12T07:21:14Z</time>
      </trkpt>
      <trkpt lat="46.56416" lon="2.56402">
        <ele>203</ele>
        <time>2020-07-12T07:21:16Z</time>
      </trkpt>
      <trkpt lat="46.5641" lon="2.56393">
        <ele>203.4</ele>
        <time>2020-07-12T07:21:18Z</time>
      </trkpt>
      <trkpt lat="46.56404" lon="2.56383">
        <ele>203.4</ele>
        <time>2020-07-12T07:21:20Z</time>
      </trkpt>
      <trkpt lat="46.56401" lon="2.56378">
        <ele>203.6</ele>
        <time>2020-07-12T07:21:21Z</time>
      </trkpt>
      <trkpt lat="46.56398" lon="2.56373">
        <ele>203.8</ele>
        <time>2020-07-12T07:21:22Z</time>
      </trkpt>
      <trkpt lat="46.56395" lon="2.56368">
        <ele>203.4</ele>
        <time>2020-07-12T07:21:23Z</time>
      </trkpt>
      <trkpt lat="46.56392" lon="2.56363">
        <ele>203.1</ele>
        <time>2020-07-12T07:21:24Z</time>
      </trkpt>
      <trkpt lat="46.56389" lon="2.56358">
        <ele>202.9</ele>
        <time>2020-07-12T07:21:25Z</time>
      </trkpt>
      <trkpt lat="46.56386" lon="2.56353">
        <ele>203.1</ele>
        <time>2020-07-12T07:21:26Z</time>
      </trkpt>
      <trkpt lat="46.56383" lon="2.56348">
        <ele>203.3</ele>
        <time>2020-07-12T07:21:27Z</time>
      </trkpt>
      <trkpt lat="46.5638" lon="2.56343">
        <ele>203.2</ele>
        <time>2020-07-12T07:21:28Z</time>
      </trkpt>
      <trkpt lat="46.56377" lon="2.56337">
        <ele>203.1</ele>
        <time>2020-07-12T07:21:29Z</time>
      </trkpt>
      <trkpt lat="46.56374" lon="2.56332">
        <ele>203.4</ele>
        <time>2020-07-12T07:21:30Z</time>
      </trkpt>
      <trkpt lat="46.56369" lon="2.56322">
        <ele>203.7</ele>
        <time>2020-07-12T07:21:32Z</time>
      </trkpt>
      <trkpt lat="46.56364" lon="2.56312">
        <ele>203.6</ele>
        <time>2020-07-12T07:21:34Z</time>
      </trkpt>
      <trkpt lat="46.56359" lon="2.56301">
        <ele>203.3</ele>
        <time>2020-07-12T07:21:36Z</time>
      </trkpt>
      <trkpt lat="46.56355" lon="2.56291">
        <ele>203.5</ele>
        <time>2020-07-12T07:21:38Z</time>
      </trkpt>
      <trkpt lat="46.56352" lon="2.5628">
        <ele>204</ele>
        <time>2020-07-12T07:21:40Z</time>
      </trkpt>
      <trkpt lat="46.56348" lon="2.56268">
        <ele>204.1</ele>
        <time>2020-07-12T07:21:42Z</time>
      </trkpt>
      <trkpt lat="46.56344" lon="2.56257">
        <ele>204</ele>
        <time>2020-07-12T07:21:44Z</time>
      </trkpt>
      <trkpt lat="46.56341" lon="2.56245">
        <ele>204.4</ele>
        <time>2020-07-12T07:21:46Z</time>
      </trkpt>
      <trkpt lat="46.56338" lon="2.56232">
        <ele>204.3</ele>
        <time>2020-07-12T07:21:48Z</time>
      </trkpt>
      <trkpt lat="46.56335" lon="2.5622">
        <ele>204.2</ele>
        <time>2020-07-12T07:21:50Z</time>
      </trkpt>
      <trkpt lat="46.56332" lon="2.56208">
        <ele>204.1</ele>
        <time>2020-07-12T07:21:52Z</time>
      </trkpt>
      <trkpt lat="46.56329" lon="2.56196">
        <ele>204.4</ele>
        <time>2020-07-12T07:21:54Z</time>
      </trkpt>
      <trkpt lat="46.56325" lon="2.56185">
        <ele>204.6</ele>
        <time>2020-07-12T07:21:56Z</time>
      </trkpt>
      <trkpt lat="46.5632" lon="2.56174">
        <ele>204.6</ele>
        <time>2020-07-12T07:21:58Z</time>
      </trkpt>
      <trkpt lat="46.56318" lon="2.56169">
        <ele>204.2</ele>
        <time>2020-07-12T07:21:59Z</time>
      </trkpt>
      <trkpt lat="46.56315" lon="2.56163">
        <ele>204</ele>
        <time>2020-07-12T07:22:00Z</time>
      </trkpt>
      <trkpt lat="46.56307" lon="2.56147">
        <ele>203.6</ele>
        <time>2020-07-12T07:22:03Z</time>
      </trkpt>
      <trkpt lat="46.56302" lon="2.56138">
        <ele>203.4</ele>
        <time>2020-07-12T07:22:05Z</time>
      </trkpt>
      <trkpt lat="46.56296" lon="2.56128">
        <ele>203.6</ele>
        <time>2020-07-12T07:22:07Z</time>
      </trkpt>
      <trkpt lat="46.5629" lon="2.56118">
        <ele>203.8</ele>
        <time>2020-07-12T07:22:09Z</time>
      </trkpt>
      <trkpt lat="46.56284" lon="2.56108">
        <ele>204.1</ele>
        <time>2020-07-12T07:22:11Z</time>
      </trkpt>
      <trkpt lat="46.56279" lon="2.56099">
        <ele>204.2</ele>
        <time>2020-07-12T07:22:13Z</time>
      </trkpt>
      <trkpt lat="46.56273" lon="2.56089">
        <ele>204.3</ele>
        <time>2020-07-12T07:22:15Z</time>
      </trkpt>
      <trkpt lat="46.56267" lon="2.5608">
        <ele>204.3</ele>
        <time>2020-07-12T07:22:17Z</time>
      </trkpt>
      <trkpt lat="46.56264" lon="2.56075">
        <ele>204.4</ele>
        <time>2020-07-12T07:22:18Z</time>
      </trkpt>
      <trkpt lat="46.56261" lon="2.5607">
        <ele>204.5</ele>
        <time>2020-07-12T07:22:19Z</time>
      </trkpt>
      <trkpt lat="46.56258" lon="2.56065">
        <ele>204.6</ele>
        <time>2020-07-12T07:22:20Z</time>
      </trkpt>
      <trkpt lat="46.56254" lon="2.5606">
        <ele>204.6</ele>
        <time>2020-07-12T07:22:21Z</time>
      </trkpt>
      <trkpt lat="46.56251" lon="2.56056">
        <ele>204.7</ele>
        <time>2020-07-12T07:22:22Z</time>
      </trkpt>
      <trkpt lat="46.56247" lon="2.56051">
        <ele>204.5</ele>
        <time>2020-07-12T07:22:23Z</time>
      </trkpt>
      <trkpt lat="46.56244" lon="2.56046">
        <ele>204.3</ele>
        <time>2020-07-12T07:22:24Z</time>
      </trkpt>
      <trkpt lat="46.56241" lon="2.56042">
        <ele>204.2</ele>
        <time>2020-07-12T07:22:25Z</time>
      </trkpt>
      <trkpt lat="46.56237" lon="2.56037">
        <ele>204.2</ele>
        <time>2020-07-12T07:22:26Z</time>
      </trkpt>
      <trkpt lat="46.56231" lon="2.56029">
        <ele>204.1</ele>
        <time>2020-07-12T07:22:28Z</time>
      </trkpt>
      <trkpt lat="46.56228" lon="2.56024">
        <ele>204</ele>
        <time>2020-07-12T07:22:29Z</time>
      </trkpt>
      <trkpt lat="46.56221" lon="2.56016">
        <ele>204.1</ele>
        <time>2020-07-12T07:22:31Z</time>
      </trkpt>
      <trkpt lat="46.56215" lon="2.56007">
        <ele>204.7</ele>
        <time>2020-07-12T07:22:33Z</time>
      </trkpt>
      <trkpt lat="46.5621" lon="2.55997">
        <ele>204.8</ele>
        <time>2020-07-12T07:22:35Z</time>
      </trkpt>
      <trkpt lat="46.56204" lon="2.55987">
        <ele>204.9</ele>
        <time>2020-07-12T07:22:37Z</time>
      </trkpt>
      <trkpt lat="46.562" lon="2.55976">
        <ele>204.3</ele>
        <time>2020-07-12T07:22:39Z</time>
      </trkpt>
      <trkpt lat="46.56196" lon="2.55965">
        <ele>203.5</ele>
        <time>2020-07-12T07:22:41Z</time>
      </trkpt>
      <trkpt lat="46.56193" lon="2.55953">
        <ele>204.1</ele>
        <time>2020-07-12T07:22:43Z</time>
      </trkpt>
      <trkpt lat="46.56194" lon="2.55942">
        <ele>204.3</ele>
        <time>2020-07-12T07:22:45Z</time>
      </trkpt>
      <trkpt lat="46.56194" lon="2.5593">
        <ele>204.1</ele>
        <time>2020-07-12T07:22:47Z</time>
      </trkpt>
      <trkpt lat="46.56195" lon="2.55919">
        <ele>204.2</ele>
        <time>2020-07-12T07:22:49Z</time>
      </trkpt>
      <trkpt lat="46.56195" lon="2.55907">
        <ele>204.4</ele>
        <time>2020-07-12T07:22:51Z</time>
      </trkpt>
      <trkpt lat="46.56195" lon="2.55895">
        <ele>204.5</ele>
        <time>2020-07-12T07:22:53Z</time>
      </trkpt>
      <trkpt lat="46.56195" lon="2.55883">
        <ele>204.3</ele>
        <time>2020-07-12T07:22:55Z</time>
      </trkpt>
      <trkpt lat="46.56196" lon="2.55871">
        <ele>204.6</ele>
        <time>2020-07-12T07:22:57Z</time>
      </trkpt>
      <trkpt lat="46.56196" lon="2.55859">
        <ele>205</ele>
        <time>2020-07-12T07:22:59Z</time>
      </trkpt>
      <trkpt lat="46.56196" lon="2.55847">
        <ele>205</ele>
        <time>2020-07-12T07:23:01Z</time>
      </trkpt>
      <trkpt lat="46.56196" lon="2.5584">
        <ele>204.9</ele>
        <time>2020-07-12T07:23:02Z</time>
      </trkpt>
      <trkpt lat="46.56198" lon="2.55822">
        <ele>205.1</ele>
        <time>2020-07-12T07:23:05Z</time>
      </trkpt>
      <trkpt lat="46.56198" lon="2.5581">
        <ele>205.1</ele>
        <time>2020-07-12T07:23:07Z</time>
      </trkpt>
      <trkpt lat="46.56199" lon="2.55798">
        <ele>205</ele>
        <time>2020-07-12T07:23:09Z</time>
      </trkpt>
      <trkpt lat="46.56199" lon="2.55785">
        <ele>205.5</ele>
        <time>2020-07-12T07:23:11Z</time>
      </trkpt>
      <trkpt lat="46.56193" lon="2.55777">
        <ele>205.9</ele>
        <time>2020-07-12T07:23:13Z</time>
      </trkpt>
      <trkpt lat="46.56189" lon="2.55776">
        <ele>206.1</ele>
        <time>2020-07-12T07:23:14Z</time>
      </trkpt>
      <trkpt lat="46.56184" lon="2.55777">
        <ele>206.3</ele>
        <time>2020-07-12T07:23:15Z</time>
      </trkpt>
      <trkpt lat="46.56179" lon="2.55778">
        <ele>206.5</ele>
        <time>2020-07-12T07:23:16Z</time>
      </trkpt>
      <trkpt lat="46.56175" lon="2.5578">
        <ele>206.4</ele>
        <time>2020-07-12T07:23:17Z</time>
      </trkpt>
      <trkpt lat="46.56171" lon="2.55781">
        <ele>206.3</ele>
        <time>2020-07-12T07:23:18Z</time>
      </trkpt>
      <trkpt lat="46.56166" lon="2.55782">
        <ele>206.2</ele>
        <time>2020-07-12T07:23:19Z</time>
      </trkpt>
      <trkpt lat="46.56161" lon="2.55784">
        <ele>206.2</ele>
        <time>2020-07-12T07:23:20Z</time>
      </trkpt>
      <trkpt lat="46.56157" lon="2.55785">
        <ele>206.1</ele>
        <time>2020-07-12T07:23:21Z</time>
      </trkpt>
      <trkpt lat="46.56153" lon="2.55787">
        <ele>206.5</ele>
        <time>2020-07-12T07:23:22Z</time>
      </trkpt>
      <trkpt lat="46.56148" lon="2.55789">
        <ele>206.7</ele>
        <time>2020-07-12T07:23:23Z</time>
      </trkpt>
      <trkpt lat="46.56144" lon="2.55791">
        <ele>207</ele>
        <time>2020-07-12T07:23:24Z</time>
      </trkpt>
      <trkpt lat="46.56139" lon="2.55793">
        <ele>207.1</ele>
        <time>2020-07-12T07:23:25Z</time>
      </trkpt>
      <trkpt lat="46.56135" lon="2.55795">
        <ele>207.3</ele>
        <time>2020-07-12T07:23:26Z</time>
      </trkpt>
      <trkpt lat="46.56131" lon="2.55797">
        <ele>207</ele>
        <time>2020-07-12T07:23:27Z</time>
      </trkpt>
      <trkpt lat="46.56126" lon="2.55798">
        <ele>206.8</ele>
        <time>2020-07-12T07:23:28Z</time>
      </trkpt>
      <trkpt lat="46.56118" lon="2.55803">
        <ele>206.9</ele>
        <time>2020-07-12T07:23:30Z</time>
      </trkpt>
      <trkpt lat="46.56114" lon="2.55805">
        <ele>206.3</ele>
        <time>2020-07-12T07:23:31Z</time>
      </trkpt>
      <trkpt lat="46.56105" lon="2.55809">
        <ele>205.7</ele>
        <time>2020-07-12T07:23:33Z</time>
      </trkpt>
      <trkpt lat="46.56097" lon="2.55813">
        <ele>205.2</ele>
        <time>2020-07-12T07:23:35Z</time>
      </trkpt>
      <trkpt lat="46.56089" lon="2.55817">
        <ele>205.3</ele>
        <time>2020-07-12T07:23:37Z</time>
      </trkpt>
      <trkpt lat="46.56082" lon="2.55821">
        <ele>205.4</ele>
        <time>2020-07-12T07:23:39Z</time>
      </trkpt>
      <trkpt lat="46.56074" lon="2.55824">
        <ele>205.2</ele>
        <time>2020-07-12T07:23:41Z</time>
      </trkpt>
      <trkpt lat="46.56066" lon="2.55826">
        <ele>204.9</ele>
        <time>2020-07-12T07:23:43Z</time>
      </trkpt>
      <trkpt lat="46.56058" lon="2.55825">
        <ele>204.6</ele>
        <time>2020-07-12T07:23:45Z</time>
      </trkpt>
      <trkpt lat="46.56054" lon="2.55822">
        <ele>204.7</ele>
        <time>2020-07-12T07:23:46Z</time>
      </trkpt>
      <trkpt lat="46.56051" lon="2.55817">
        <ele>204.8</ele>
        <time>2020-07-12T07:23:47Z</time>
      </trkpt>
      <trkpt lat="46.56049" lon="2.55811">
        <ele>204.6</ele>
        <time>2020-07-12T07:23:48Z</time>
      </trkpt>
      <trkpt lat="46.56047" lon="2.55804">
        <ele>204.5</ele>
        <time>2020-07-12T07:23:49Z</time>
      </trkpt>
      <trkpt lat="46.56045" lon="2.55797">
        <ele>204.2</ele>
        <time>2020-07-12T07:23:50Z</time>
      </trkpt>
      <trkpt lat="46.56044" lon="2.55791">
        <ele>204</ele>
        <time>2020-07-12T07:23:51Z</time>
      </trkpt>
      <trkpt lat="46.56043" lon="2.55784">
        <ele>203.9</ele>
        <time>2020-07-12T07:23:52Z</time>
      </trkpt>
      <trkpt lat="46.5604" lon="2.55772">
        <ele>203.6</ele>
        <time>2020-07-12T07:23:54Z</time>
      </trkpt>
      <trkpt lat="46.56039" lon="2.5576">
        <ele>204.1</ele>
        <time>2020-07-12T07:23:56Z</time>
      </trkpt>
      <trkpt lat="46.56038" lon="2.55747">
        <ele>204.1</ele>
        <time>2020-07-12T07:23:58Z</time>
      </trkpt>
      <trkpt lat="46.56037" lon="2.55735">
        <ele>204</ele>
        <time>2020-07-12T07:24:00Z</time>
      </trkpt>
      <trkpt lat="46.56036" lon="2.55723">
        <ele>203.9</ele>
        <time>2020-07-12T07:24:02Z</time>
      </trkpt>
      <trkpt lat="46.56036" lon="2.55717">
        <ele>204</ele>
        <time>2020-07-12T07:24:03Z</time>
      </trkpt>
      <trkpt lat="46.56035" lon="2.55698">
        <ele>204.4</ele>
        <time>2020-07-12T07:24:06Z</time>
      </trkpt>
      <trkpt lat="46.56033" lon="2.55687">
        <ele>204.7</ele>
        <time>2020-07-12T07:24:08Z</time>
      </trkpt>
      <trkpt lat="46.56031" lon="2.55675">
        <ele>205</ele>
        <time>2020-07-12T07:24:10Z</time>
      </trkpt>
      <trkpt lat="46.56031" lon="2.55664">
        <ele>205.2</ele>
        <time>2020-07-12T07:24:12Z</time>
      </trkpt>
      <trkpt lat="46.56029" lon="2.55653">
        <ele>205.8</ele>
        <time>2020-07-12T07:24:14Z</time>
      </trkpt>
      <trkpt lat="46.56027" lon="2.55642">
        <ele>206.3</ele>
        <time>2020-07-12T07:24:16Z</time>
      </trkpt>
      <trkpt lat="46.56026" lon="2.55631">
        <ele>206.4</ele>
        <time>2020-07-12T07:24:18Z</time>
      </trkpt>
      <trkpt lat="46.56024" lon="2.55619">
        <ele>205.8</ele>
        <time>2020-07-12T07:24:20Z</time>
      </trkpt>
      <trkpt lat="46.56022" lon="2.55607">
        <ele>206.9</ele>
        <time>2020-07-12T07:24:22Z</time>
      </trkpt>
      <trkpt lat="46.56019" lon="2.55595">
        <ele>207</ele>
        <time>2020-07-12T07:24:24Z</time>
      </trkpt>
      <trkpt lat="46.56017" lon="2.55589">
        <ele>206.8</ele>
        <time>2020-07-12T07:24:25Z</time>
      </trkpt>
      <trkpt lat="46.56016" lon="2.55583">
        <ele>206.2</ele>
        <time>2020-07-12T07:24:26Z</time>
      </trkpt>
      <trkpt lat="46.56014" lon="2.55577">
        <ele>205.7</ele>
        <time>2020-07-12T07:24:27Z</time>
      </trkpt>
      <trkpt lat="46.56012" lon="2.55571">
        <ele>206.2</ele>
        <time>2020-07-12T07:24:28Z</time>
      </trkpt>
      <trkpt lat="46.56009" lon="2.55565">
        <ele>206.5</ele>
        <time>2020-07-12T07:24:29Z</time>
      </trkpt>
      <trkpt lat="46.56007" lon="2.55559">
        <ele>206.7</ele>
        <time>2020-07-12T07:24:30Z</time>
      </trkpt>
      <trkpt lat="46.56005" lon="2.55553">
        <ele>206.9</ele>
        <time>2020-07-12T07:24:31Z</time>
      </trkpt>
      <trkpt lat="46.56002" lon="2.55547">
        <ele>207</ele>
        <time>2020-07-12T07:24:32Z</time>
      </trkpt>
      <trkpt lat="46.56" lon="2.55542">
        <ele>206.9</ele>
        <time>2020-07-12T07:24:33Z</time>
      </trkpt>
      <trkpt lat="46.5599" lon="2.55522">
        <ele>206</ele>
        <time>2020-07-12T07:24:36Z</time>
      </trkpt>
      <trkpt lat="46.55987" lon="2.55514">
        <ele>207</ele>
        <time>2020-07-12T07:24:38Z</time>
      </trkpt>
      <trkpt lat="46.55985" lon="2.55508">
        <ele>207.1</ele>
        <time>2020-07-12T07:24:39Z</time>
      </trkpt>
      <trkpt lat="46.55982" lon="2.55503">
        <ele>207.3</ele>
        <time>2020-07-12T07:24:40Z</time>
      </trkpt>
      <trkpt lat="46.5598" lon="2.55497">
        <ele>207.5</ele>
        <time>2020-07-12T07:24:41Z</time>
      </trkpt>
      <trkpt lat="46.55977" lon="2.55492">
        <ele>207.6</ele>
        <time>2020-07-12T07:24:42Z</time>
      </trkpt>
      <trkpt lat="46.55975" lon="2.55486">
        <ele>207.3</ele>
        <time>2020-07-12T07:24:43Z</time>
      </trkpt>
      <trkpt lat="46.55973" lon="2.5548">
        <ele>207.2</ele>
        <time>2020-07-12T07:24:44Z</time>
      </trkpt>
      <trkpt lat="46.5597" lon="2.55474">
        <ele>207.1</ele>
        <time>2020-07-12T07:24:45Z</time>
      </trkpt>
      <trkpt lat="46.55966" lon="2.55463">
        <ele>206.9</ele>
        <time>2020-07-12T07:24:47Z</time>
      </trkpt>
      <trkpt lat="46.55962" lon="2.55452">
        <ele>206.7</ele>
        <time>2020-07-12T07:24:49Z</time>
      </trkpt>
      <trkpt lat="46.5596" lon="2.55446">
        <ele>206.8</ele>
        <time>2020-07-12T07:24:50Z</time>
      </trkpt>
      <trkpt lat="46.55958" lon="2.5544">
        <ele>206.9</ele>
        <time>2020-07-12T07:24:51Z</time>
      </trkpt>
      <trkpt lat="46.55955" lon="2.55434">
        <ele>206.7</ele>
        <time>2020-07-12T07:24:52Z</time>
      </trkpt>
      <trkpt lat="46.55951" lon="2.55423">
        <ele>206.3</ele>
        <time>2020-07-12T07:24:54Z</time>
      </trkpt>
      <trkpt lat="46.55949" lon="2.55417">
        <ele>206.9</ele>
        <time>2020-07-12T07:24:55Z</time>
      </trkpt>
      <trkpt lat="46.55947" lon="2.55411">
        <ele>207.3</ele>
        <time>2020-07-12T07:24:56Z</time>
      </trkpt>
      <trkpt lat="46.55945" lon="2.55404">
        <ele>207.2</ele>
        <time>2020-07-12T07:24:57Z</time>
      </trkpt>
      <trkpt lat="46.55943" lon="2.55398">
        <ele>207.2</ele>
        <time>2020-07-12T07:24:58Z</time>
      </trkpt>
      <trkpt lat="46.55941" lon="2.55392">
        <ele>206.9</ele>
        <time>2020-07-12T07:24:59Z</time>
      </trkpt>
      <trkpt lat="46.55938" lon="2.55385">
        <ele>206.7</ele>
        <time>2020-07-12T07:25:00Z</time>
      </trkpt>
      <trkpt lat="46.55936" lon="2.55378">
        <ele>206.5</ele>
        <time>2020-07-12T07:25:01Z</time>
      </trkpt>
      <trkpt lat="46.55934" lon="2.55372">
        <ele>207</ele>
        <time>2020-07-12T07:25:02Z</time>
      </trkpt>
      <trkpt lat="46.55932" lon="2.55365">
        <ele>207.3</ele>
        <time>2020-07-12T07:25:03Z</time>
      </trkpt>
      <trkpt lat="46.55929" lon="2.55358">
        <ele>207.5</ele>
        <time>2020-07-12T07:25:04Z</time>
      </trkpt>
      <trkpt lat="46.55927" lon="2.55352">
        <ele>207.6</ele>
        <time>2020-07-12T07:25:05Z</time>
      </trkpt>
      <trkpt lat="46.55925" lon="2.55345">
        <ele>207.7</ele>
        <time>2020-07-12T07:25:06Z</time>
      </trkpt>
      <trkpt lat="46.55922" lon="2.55338">
        <ele>207.7</ele>
        <time>2020-07-12T07:25:07Z</time>
      </trkpt>
      <trkpt lat="46.55919" lon="2.55332">
        <ele>207.8</ele>
        <time>2020-07-12T07:25:08Z</time>
      </trkpt>
      <trkpt lat="46.55916" lon="2.55326">
        <ele>207.7</ele>
        <time>2020-07-12T07:25:09Z</time>
      </trkpt>
      <trkpt lat="46.55913" lon="2.5532">
        <ele>207.6</ele>
        <time>2020-07-12T07:25:10Z</time>
      </trkpt>
      <trkpt lat="46.5591" lon="2.55315">
        <ele>207.6</ele>
        <time>2020-07-12T07:25:11Z</time>
      </trkpt>
      <trkpt lat="46.55906" lon="2.5531">
        <ele>207.6</ele>
        <time>2020-07-12T07:25:12Z</time>
      </trkpt>
      <trkpt lat="46.55903" lon="2.55306">
        <ele>206.7</ele>
        <time>2020-07-12T07:25:13Z</time>
      </trkpt>
      <trkpt lat="46.55899" lon="2.55301">
        <ele>206.1</ele>
        <time>2020-07-12T07:25:14Z</time>
      </trkpt>
      <trkpt lat="46.55895" lon="2.55297">
        <ele>205.6</ele>
        <time>2020-07-12T07:25:15Z</time>
      </trkpt>
      <trkpt lat="46.55891" lon="2.55293">
        <ele>205.9</ele>
        <time>2020-07-12T07:25:16Z</time>
      </trkpt>
      <trkpt lat="46.55887" lon="2.55289">
        <ele>206.2</ele>
        <time>2020-07-12T07:25:17Z</time>
      </trkpt>
      <trkpt lat="46.55883" lon="2.55285">
        <ele>206.4</ele>
        <time>2020-07-12T07:25:18Z</time>
      </trkpt>
      <trkpt lat="46.55878" lon="2.55282">
        <ele>206.6</ele>
        <time>2020-07-12T07:25:19Z</time>
      </trkpt>
      <trkpt lat="46.55874" lon="2.55279">
        <ele>206.7</ele>
        <time>2020-07-12T07:25:20Z</time>
      </trkpt>
      <trkpt lat="46.5587" lon="2.55276">
        <ele>206.5</ele>
        <time>2020-07-12T07:25:21Z</time>
      </trkpt>
      <trkpt lat="46.55865" lon="2.55273">
        <ele>206.3</ele>
        <time>2020-07-12T07:25:22Z</time>
      </trkpt>
      <trkpt lat="46.55861" lon="2.5527">
        <ele>206.6</ele>
        <time>2020-07-12T07:25:23Z</time>
      </trkpt>
      <trkpt lat="46.55857" lon="2.55267">
        <ele>206.8</ele>
        <time>2020-07-12T07:25:24Z</time>
      </trkpt>
      <trkpt lat="46.55853" lon="2.55263">
        <ele>206.8</ele>
        <time>2020-07-12T07:25:25Z</time>
      </trkpt>
      <trkpt lat="46.55849" lon="2.55259">
        <ele>206.7</ele>
        <time>2020-07-12T07:25:26Z</time>
      </trkpt>
      <trkpt lat="46.55845" lon="2.55255">
        <ele>206.7</ele>
        <time>2020-07-12T07:25:27Z</time>
      </trkpt>
      <trkpt lat="46.55842" lon="2.5525">
        <ele>207</ele>
        <time>2020-07-12T07:25:28Z</time>
      </trkpt>
      <trkpt lat="46.5584" lon="2.55245">
        <ele>207.2</ele>
        <time>2020-07-12T07:25:29Z</time>
      </trkpt>
      <trkpt lat="46.55837" lon="2.55239">
        <ele>206.9</ele>
        <time>2020-07-12T07:25:30Z</time>
      </trkpt>
      <trkpt lat="46.55834" lon="2.55233">
        <ele>206.7</ele>
        <time>2020-07-12T07:25:31Z</time>
      </trkpt>
      <trkpt lat="46.55832" lon="2.55227">
        <ele>206.9</ele>
        <time>2020-07-12T07:25:32Z</time>
      </trkpt>
      <trkpt lat="46.55831" lon="2.55221">
        <ele>207</ele>
        <time>2020-07-12T07:25:33Z</time>
      </trkpt>
      <trkpt lat="46.5583" lon="2.55215">
        <ele>207.1</ele>
        <time>2020-07-12T07:25:34Z</time>
      </trkpt>
      <trkpt lat="46.5583" lon="2.55208">
        <ele>207.5</ele>
        <time>2020-07-12T07:25:35Z</time>
      </trkpt>
      <trkpt lat="46.55831" lon="2.55202">
        <ele>207.8</ele>
        <time>2020-07-12T07:25:36Z</time>
      </trkpt>
      <trkpt lat="46.55832" lon="2.55195">
        <ele>207.7</ele>
        <time>2020-07-12T07:25:37Z</time>
      </trkpt>
      <trkpt lat="46.55834" lon="2.55189">
        <ele>207.6</ele>
        <time>2020-07-12T07:25:38Z</time>
      </trkpt>
      <trkpt lat="46.55836" lon="2.55176">
        <ele>207.7</ele>
        <time>2020-07-12T07:25:40Z</time>
      </trkpt>
      <trkpt lat="46.55835" lon="2.55164">
        <ele>208.4</ele>
        <time>2020-07-12T07:25:42Z</time>
      </trkpt>
      <trkpt lat="46.55832" lon="2.55152">
        <ele>208.8</ele>
        <time>2020-07-12T07:25:44Z</time>
      </trkpt>
      <trkpt lat="46.5583" lon="2.5514">
        <ele>208.8</ele>
        <time>2020-07-12T07:25:46Z</time>
      </trkpt>
      <trkpt lat="46.55827" lon="2.55128">
        <ele>208.3</ele>
        <time>2020-07-12T07:25:48Z</time>
      </trkpt>
      <trkpt lat="46.55824" lon="2.55116">
        <ele>208.1</ele>
        <time>2020-07-12T07:25:50Z</time>
      </trkpt>
      <trkpt lat="46.55822" lon="2.55104">
        <ele>208.4</ele>
        <time>2020-07-12T07:25:52Z</time>
      </trkpt>
      <trkpt lat="46.5582" lon="2.55092">
        <ele>208.6</ele>
        <time>2020-07-12T07:25:54Z</time>
      </trkpt>
      <trkpt lat="46.55817" lon="2.5508">
        <ele>208.8</ele>
        <time>2020-07-12T07:25:56Z</time>
      </trkpt>
      <trkpt lat="46.55814" lon="2.55068">
        <ele>208.8</ele>
        <time>2020-07-12T07:25:58Z</time>
      </trkpt>
      <trkpt lat="46.55811" lon="2.55056">
        <ele>209.1</ele>
        <time>2020-07-12T07:26:00Z</time>
      </trkpt>
      <trkpt lat="46.55807" lon="2.55045">
        <ele>209.2</ele>
        <time>2020-07-12T07:26:02Z</time>
      </trkpt>
      <trkpt lat="46.55804" lon="2.55033">
        <ele>209.3</ele>
        <time>2020-07-12T07:26:04Z</time>
      </trkpt>
      <trkpt lat="46.558" lon="2.55022">
        <ele>209.4</ele>
        <time>2020-07-12T07:26:06Z</time>
      </trkpt>
      <trkpt lat="46.55799" lon="2.55016">
        <ele>209.4</ele>
        <time>2020-07-12T07:26:07Z</time>
      </trkpt>
      <trkpt lat="46.55794" lon="2.54998">
        <ele>209</ele>
        <time>2020-07-12T07:26:10Z</time>
      </trkpt>
      <trkpt lat="46.55791" lon="2.54986">
        <ele>209.2</ele>
        <time>2020-07-12T07:26:12Z</time>
      </trkpt>
      <trkpt lat="46.55788" lon="2.54974">
        <ele>208.5</ele>
        <time>2020-07-12T07:26:14Z</time>
      </trkpt>
      <trkpt lat="46.55786" lon="2.54962">
        <ele>209.2</ele>
        <time>2020-07-12T07:26:16Z</time>
      </trkpt>
      <trkpt lat="46.55783" lon="2.5495">
        <ele>209.4</ele>
        <time>2020-07-12T07:26:18Z</time>
      </trkpt>
      <trkpt lat="46.5578" lon="2.54938">
        <ele>209.4</ele>
        <time>2020-07-12T07:26:20Z</time>
      </trkpt>
      <trkpt lat="46.55777" lon="2.54926">
        <ele>209.5</ele>
        <time>2020-07-12T07:26:22Z</time>
      </trkpt>
      <trkpt lat="46.55775" lon="2.54914">
        <ele>209.7</ele>
        <time>2020-07-12T07:26:24Z</time>
      </trkpt>
      <trkpt lat="46.55772" lon="2.54902">
        <ele>210.1</ele>
        <time>2020-07-12T07:26:26Z</time>
      </trkpt>
      <trkpt lat="46.55769" lon="2.54891">
        <ele>209.7</ele>
        <time>2020-07-12T07:26:28Z</time>
      </trkpt>
      <trkpt lat="46.55766" lon="2.54879">
        <ele>209.7</ele>
        <time>2020-07-12T07:26:30Z</time>
      </trkpt>
      <trkpt lat="46.55763" lon="2.54867">
        <ele>210</ele>
        <time>2020-07-12T07:26:32Z</time>
      </trkpt>
      <trkpt lat="46.5576" lon="2.54855">
        <ele>209.9</ele>
        <time>2020-07-12T07:26:34Z</time>
      </trkpt>
      <trkpt lat="46.55757" lon="2.54843">
        <ele>209.6</ele>
        <time>2020-07-12T07:26:36Z</time>
      </trkpt>
      <trkpt lat="46.55755" lon="2.54832">
        <ele>209.7</ele>
        <time>2020-07-12T07:26:38Z</time>
      </trkpt>
      <trkpt lat="46.55753" lon="2.54821">
        <ele>210.3</ele>
        <time>2020-07-12T07:26:40Z</time>
      </trkpt>
      <trkpt lat="46.55751" lon="2.54809">
        <ele>210</ele>
        <time>2020-07-12T07:26:42Z</time>
      </trkpt>
      <trkpt lat="46.55748" lon="2.54798">
        <ele>210.1</ele>
        <time>2020-07-12T07:26:44Z</time>
      </trkpt>
      <trkpt lat="46.55746" lon="2.54786">
        <ele>210.1</ele>
        <time>2020-07-12T07:26:46Z</time>
      </trkpt>
      <trkpt lat="46.55744" lon="2.54775">
        <ele>209.9</ele>
        <time>2020-07-12T07:26:48Z</time>
      </trkpt>
      <trkpt lat="46.55742" lon="2.54763">
        <ele>209.8</ele>
        <time>2020-07-12T07:26:50Z</time>
      </trkpt>
      <trkpt lat="46.55738" lon="2.54752">
        <ele>209.7</ele>
        <time>2020-07-12T07:26:52Z</time>
      </trkpt>
      <trkpt lat="46.55735" lon="2.54741">
        <ele>209.6</ele>
        <time>2020-07-12T07:26:54Z</time>
      </trkpt>
      <trkpt lat="46.5573" lon="2.54731">
        <ele>209.4</ele>
        <time>2020-07-12T07:26:56Z</time>
      </trkpt>
      <trkpt lat="46.55728" lon="2.54719">
        <ele>209.2</ele>
        <time>2020-07-12T07:26:58Z</time>
      </trkpt>
      <trkpt lat="46.55732" lon="2.54708">
        <ele>208.7</ele>
        <time>2020-07-12T07:27:00Z</time>
      </trkpt>
      <trkpt lat="46.55737" lon="2.547">
        <ele>208.2</ele>
        <time>2020-07-12T07:27:02Z</time>
      </trkpt>
      <trkpt lat="46.55742" lon="2.54693">
        <ele>208.3</ele>
        <time>2020-07-12T07:27:04Z</time>
      </trkpt>
      <trkpt lat="46.55746" lon="2.54684">
        <ele>209.2</ele>
        <time>2020-07-12T07:27:06Z</time>
      </trkpt>
      <trkpt lat="46.55749" lon="2.54674">
        <ele>208.7</ele>
        <time>2020-07-12T07:27:08Z</time>
      </trkpt>
      <trkpt lat="46.5575" lon="2.54669">
        <ele>208.5</ele>
        <time>2020-07-12T07:27:09Z</time>
      </trkpt>
      <trkpt lat="46.55752" lon="2.54653">
        <ele>209.3</ele>
        <time>2020-07-12T07:27:12Z</time>
      </trkpt>
      <trkpt lat="46.55752" lon="2.54641">
        <ele>209.5</ele>
        <time>2020-07-12T07:27:14Z</time>
      </trkpt>
      <trkpt lat="46.55752" lon="2.5463">
        <ele>209.1</ele>
        <time>2020-07-12T07:27:16Z</time>
      </trkpt>
      <trkpt lat="46.55751" lon="2.54619">
        <ele>209.8</ele>
        <time>2020-07-12T07:27:18Z</time>
      </trkpt>
      <trkpt lat="46.55751" lon="2.54607">
        <ele>210.5</ele>
        <time>2020-07-12T07:27:20Z</time>
      </trkpt>
      <trkpt lat="46.55751" lon="2.54595">
        <ele>210.4</ele>
        <time>2020-07-12T07:27:22Z</time>
      </trkpt>
      <trkpt lat="46.5575" lon="2.54584">
        <ele>210.4</ele>
        <time>2020-07-12T07:27:24Z</time>
      </trkpt>
      <trkpt lat="46.5575" lon="2.54572">
        <ele>210.7</ele>
        <time>2020-07-12T07:27:26Z</time>
      </trkpt>
      <trkpt lat="46.5575" lon="2.54561">
        <ele>210.8</ele>
        <time>2020-07-12T07:27:28Z</time>
      </trkpt>
      <trkpt lat="46.5575" lon="2.54549">
        <ele>210.4</ele>
        <time>2020-07-12T07:27:30Z</time>
      </trkpt>
      <trkpt lat="46.55749" lon="2.54537">
        <ele>210.1</ele>
        <time>2020-07-12T07:27:32Z</time>
      </trkpt>
      <trkpt lat="46.55749" lon="2.54525">
        <ele>209.9</ele>
        <time>2020-07-12T07:27:34Z</time>
      </trkpt>
      <trkpt lat="46.5575" lon="2.54513">
        <ele>210.1</ele>
        <time>2020-07-12T07:27:36Z</time>
      </trkpt>
      <trkpt lat="46.5575" lon="2.545">
        <ele>210.2</ele>
        <time>2020-07-12T07:27:38Z</time>
      </trkpt>
      <trkpt lat="46.55751" lon="2.54487">
        <ele>210.1</ele>
        <time>2020-07-12T07:27:40Z</time>
      </trkpt>
      <trkpt lat="46.55752" lon="2.54475">
        <ele>210.1</ele>
        <time>2020-07-12T07:27:42Z</time>
      </trkpt>
      <trkpt lat="46.55753" lon="2.54462">
        <ele>210.2</ele>
        <time>2020-07-12T07:27:44Z</time>
      </trkpt>
      <trkpt lat="46.55754" lon="2.5445">
        <ele>210.3</ele>
        <time>2020-07-12T07:27:46Z</time>
      </trkpt>
      <trkpt lat="46.55755" lon="2.54438">
        <ele>210.1</ele>
        <time>2020-07-12T07:27:48Z</time>
      </trkpt>
      <trkpt lat="46.55755" lon="2.54426">
        <ele>209.8</ele>
        <time>2020-07-12T07:27:50Z</time>
      </trkpt>
      <trkpt lat="46.55755" lon="2.54414">
        <ele>210</ele>
        <time>2020-07-12T07:27:52Z</time>
      </trkpt>
      <trkpt lat="46.55754" lon="2.54402">
        <ele>210.5</ele>
        <time>2020-07-12T07:27:54Z</time>
      </trkpt>
      <trkpt lat="46.55751" lon="2.5439">
        <ele>210.4</ele>
        <time>2020-07-12T07:27:56Z</time>
      </trkpt>
      <trkpt lat="46.55749" lon="2.54378">
        <ele>210.7</ele>
        <time>2020-07-12T07:27:58Z</time>
      </trkpt>
      <trkpt lat="46.55745" lon="2.54366">
        <ele>210.9</ele>
        <time>2020-07-12T07:28:00Z</time>
      </trkpt>
      <trkpt lat="46.55744" lon="2.5436">
        <ele>210.9</ele>
        <time>2020-07-12T07:28:01Z</time>
      </trkpt>
      <trkpt lat="46.55742" lon="2.54354">
        <ele>210.8</ele>
        <time>2020-07-12T07:28:02Z</time>
      </trkpt>
      <trkpt lat="46.55739" lon="2.54348">
        <ele>210.8</ele>
        <time>2020-07-12T07:28:03Z</time>
      </trkpt>
      <trkpt lat="46.55737" lon="2.54342">
        <ele>210.3</ele>
        <time>2020-07-12T07:28:04Z</time>
      </trkpt>
      <trkpt lat="46.55734" lon="2.54336">
        <ele>210</ele>
        <time>2020-07-12T07:28:05Z</time>
      </trkpt>
      <trkpt lat="46.55731" lon="2.5433">
        <ele>209.7</ele>
        <time>2020-07-12T07:28:06Z</time>
      </trkpt>
      <trkpt lat="46.55728" lon="2.54325">
        <ele>209.4</ele>
        <time>2020-07-12T07:28:07Z</time>
      </trkpt>
      <trkpt lat="46.55725" lon="2.54319">
        <ele>209.2</ele>
        <time>2020-07-12T07:28:08Z</time>
      </trkpt>
      <trkpt lat="46.55723" lon="2.54313">
        <ele>209.1</ele>
        <time>2020-07-12T07:28:09Z</time>
      </trkpt>
      <trkpt lat="46.55721" lon="2.54306">
        <ele>209</ele>
        <time>2020-07-12T07:28:10Z</time>
      </trkpt>
      <trkpt lat="46.5572" lon="2.543">
        <ele>208.9</ele>
        <time>2020-07-12T07:28:11Z</time>
      </trkpt>
      <trkpt lat="46.55719" lon="2.54293">
        <ele>208.9</ele>
        <time>2020-07-12T07:28:12Z</time>
      </trkpt>
      <trkpt lat="46.55718" lon="2.54286">
        <ele>208.9</ele>
        <time>2020-07-12T07:28:13Z</time>
      </trkpt>
      <trkpt lat="46.55718" lon="2.54279">
        <ele>209.2</ele>
        <time>2020-07-12T07:28:14Z</time>
      </trkpt>
      <trkpt lat="46.55718" lon="2.54273">
        <ele>209.5</ele>
        <time>2020-07-12T07:28:15Z</time>
      </trkpt>
      <trkpt lat="46.55719" lon="2.5426">
        <ele>209.4</ele>
        <time>2020-07-12T07:28:17Z</time>
      </trkpt>
      <trkpt lat="46.55719" lon="2.54249">
        <ele>209.2</ele>
        <time>2020-07-12T07:28:19Z</time>
      </trkpt>
      <trkpt lat="46.55719" lon="2.54237">
        <ele>209.3</ele>
        <time>2020-07-12T07:28:21Z</time>
      </trkpt>
      <trkpt lat="46.55721" lon="2.54226">
        <ele>209.3</ele>
        <time>2020-07-12T07:28:23Z</time>
      </trkpt>
      <trkpt lat="46.55722" lon="2.54215">
        <ele>209.3</ele>
        <time>2020-07-12T07:28:25Z</time>
      </trkpt>
      <trkpt lat="46.5572" lon="2.54205">
        <ele>209.8</ele>
        <time>2020-07-12T07:28:27Z</time>
      </trkpt>
      <trkpt lat="46.55716" lon="2.54196">
        <ele>210.6</ele>
        <time>2020-07-12T07:28:29Z</time>
      </trkpt>
      <trkpt lat="46.5571" lon="2.54187">
        <ele>209.7</ele>
        <time>2020-07-12T07:28:31Z</time>
      </trkpt>
      <trkpt lat="46.55707" lon="2.54183">
        <ele>209.4</ele>
        <time>2020-07-12T07:28:32Z</time>
      </trkpt>
      <trkpt lat="46.55703" lon="2.54177">
        <ele>209.4</ele>
        <time>2020-07-12T07:28:33Z</time>
      </trkpt>
      <trkpt lat="46.557" lon="2.54172">
        <ele>209.5</ele>
        <time>2020-07-12T07:28:34Z</time>
      </trkpt>
      <trkpt lat="46.55696" lon="2.54165">
        <ele>209</ele>
        <time>2020-07-12T07:28:35Z</time>
      </trkpt>
      <trkpt lat="46.55693" lon="2.54158">
        <ele>208.7</ele>
        <time>2020-07-12T07:28:36Z</time>
      </trkpt>
      <trkpt lat="46.55691" lon="2.5415">
        <ele>208.4</ele>
        <time>2020-07-12T07:28:37Z</time>
      </trkpt>
      <trkpt lat="46.55688" lon="2.54143">
        <ele>208.2</ele>
        <time>2020-07-12T07:28:38Z</time>
      </trkpt>
      <trkpt lat="46.55686" lon="2.54135">
        <ele>208</ele>
        <time>2020-07-12T07:28:39Z</time>
      </trkpt>
      <trkpt lat="46.55684" lon="2.54127">
        <ele>208</ele>
        <time>2020-07-12T07:28:40Z</time>
      </trkpt>
      <trkpt lat="46.55682" lon="2.54119">
        <ele>208</ele>
        <time>2020-07-12T07:28:41Z</time>
      </trkpt>
      <trkpt lat="46.5568" lon="2.54112">
        <ele>208.1</ele>
        <time>2020-07-12T07:28:42Z</time>
      </trkpt>
      <trkpt lat="46.55678" lon="2.54105">
        <ele>208.1</ele>
        <time>2020-07-12T07:28:43Z</time>
      </trkpt>
      <trkpt lat="46.55675" lon="2.54099">
        <ele>208.2</ele>
        <time>2020-07-12T07:28:44Z</time>
      </trkpt>
      <trkpt lat="46.55673" lon="2.54092">
        <ele>207.6</ele>
        <time>2020-07-12T07:28:45Z</time>
      </trkpt>
      <trkpt lat="46.5567" lon="2.54086">
        <ele>207.2</ele>
        <time>2020-07-12T07:28:46Z</time>
      </trkpt>
      <trkpt lat="46.55667" lon="2.5408">
        <ele>206.9</ele>
        <time>2020-07-12T07:28:47Z</time>
      </trkpt>
      <trkpt lat="46.55664" lon="2.54074">
        <ele>206.7</ele>
        <time>2020-07-12T07:28:48Z</time>
      </trkpt>
      <trkpt lat="46.55661" lon="2.54068">
        <ele>206.7</ele>
        <time>2020-07-12T07:28:49Z</time>
      </trkpt>
      <trkpt lat="46.55658" lon="2.54062">
        <ele>206.7</ele>
        <time>2020-07-12T07:28:50Z</time>
      </trkpt>
      <trkpt lat="46.55655" lon="2.54057">
        <ele>206.7</ele>
        <time>2020-07-12T07:28:51Z</time>
      </trkpt>
      <trkpt lat="46.55652" lon="2.54051">
        <ele>207.1</ele>
        <time>2020-07-12T07:28:52Z</time>
      </trkpt>
      <trkpt lat="46.55649" lon="2.54046">
        <ele>207.4</ele>
        <time>2020-07-12T07:28:53Z</time>
      </trkpt>
      <trkpt lat="46.55646" lon="2.54041">
        <ele>207</ele>
        <time>2020-07-12T07:28:54Z</time>
      </trkpt>
      <trkpt lat="46.55641" lon="2.5403">
        <ele>206.5</ele>
        <time>2020-07-12T07:28:56Z</time>
      </trkpt>
      <trkpt lat="46.55639" lon="2.54024">
        <ele>206.5</ele>
        <time>2020-07-12T07:28:57Z</time>
      </trkpt>
      <trkpt lat="46.55636" lon="2.54019">
        <ele>206.4</ele>
        <time>2020-07-12T07:28:58Z</time>
      </trkpt>
      <trkpt lat="46.55633" lon="2.54013">
        <ele>206.2</ele>
        <time>2020-07-12T07:28:59Z</time>
      </trkpt>
      <trkpt lat="46.5563" lon="2.54008">
        <ele>206.1</ele>
        <time>2020-07-12T07:29:00Z</time>
      </trkpt>
      <trkpt lat="46.55627" lon="2.54002">
        <ele>206.3</ele>
        <time>2020-07-12T07:29:01Z</time>
      </trkpt>
      <trkpt lat="46.55624" lon="2.53996">
        <ele>206.5</ele>
        <time>2020-07-12T07:29:02Z</time>
      </trkpt>
      <trkpt lat="46.55621" lon="2.5399">
        <ele>206.6</ele>
        <time>2020-07-12T07:29:03Z</time>
      </trkpt>
      <trkpt lat="46.55618" lon="2.53984">
        <ele>206.2</ele>
        <time>2020-07-12T07:29:04Z</time>
      </trkpt>
      <trkpt lat="46.55615" lon="2.53978">
        <ele>205.9</ele>
        <time>2020-07-12T07:29:05Z</time>
      </trkpt>
      <trkpt lat="46.55612" lon="2.53972">
        <ele>205.7</ele>
        <time>2020-07-12T07:29:06Z</time>
      </trkpt>
      <trkpt lat="46.55609" lon="2.53966">
        <ele>205.6</ele>
        <time>2020-07-12T07:29:07Z</time>
      </trkpt>
      <trkpt lat="46.55607" lon="2.53959">
        <ele>205.8</ele>
        <time>2020-07-12T07:29:08Z</time>
      </trkpt>
      <trkpt lat="46.55604" lon="2.53953">
        <ele>205.9</ele>
        <time>2020-07-12T07:29:09Z</time>
      </trkpt>
      <trkpt lat="46.55601" lon="2.53948">
        <ele>206</ele>
        <time>2020-07-12T07:29:10Z</time>
      </trkpt>
      <trkpt lat="46.55598" lon="2.53942">
        <ele>206</ele>
        <time>2020-07-12T07:29:11Z</time>
      </trkpt>
      <trkpt lat="46.55596" lon="2.53936">
        <ele>206</ele>
        <time>2020-07-12T07:29:12Z</time>
      </trkpt>
      <trkpt lat="46.55593" lon="2.5393">
        <ele>206</ele>
        <time>2020-07-12T07:29:13Z</time>
      </trkpt>
      <trkpt lat="46.5559" lon="2.53924">
        <ele>205.9</ele>
        <time>2020-07-12T07:29:14Z</time>
      </trkpt>
      <trkpt lat="46.55587" lon="2.53918">
        <ele>205.9</ele>
        <time>2020-07-12T07:29:15Z</time>
      </trkpt>
      <trkpt lat="46.55584" lon="2.53913">
        <ele>205.8</ele>
        <time>2020-07-12T07:29:16Z</time>
      </trkpt>
      <trkpt lat="46.55581" lon="2.53907">
        <ele>205.7</ele>
        <time>2020-07-12T07:29:17Z</time>
      </trkpt>
      <trkpt lat="46.55579" lon="2.53901">
        <ele>204.9</ele>
        <time>2020-07-12T07:29:18Z</time>
      </trkpt>
      <trkpt lat="46.55576" lon="2.53895">
        <ele>204.3</ele>
        <time>2020-07-12T07:29:19Z</time>
      </trkpt>
      <trkpt lat="46.55574" lon="2.5389">
        <ele>204.4</ele>
        <time>2020-07-12T07:29:20Z</time>
      </trkpt>
      <trkpt lat="46.55571" lon="2.53884">
        <ele>204.5</ele>
        <time>2020-07-12T07:29:21Z</time>
      </trkpt>
      <trkpt lat="46.55568" lon="2.53878">
        <ele>204.5</ele>
        <time>2020-07-12T07:29:22Z</time>
      </trkpt>
      <trkpt lat="46.55566" lon="2.53872">
        <ele>203.9</ele>
        <time>2020-07-12T07:29:23Z</time>
      </trkpt>
      <trkpt lat="46.55563" lon="2.53866">
        <ele>203.5</ele>
        <time>2020-07-12T07:29:24Z</time>
      </trkpt>
      <trkpt lat="46.55561" lon="2.5386">
        <ele>203</ele>
        <time>2020-07-12T07:29:25Z</time>
      </trkpt>
      <trkpt lat="46.55558" lon="2.53854">
        <ele>202.6</ele>
        <time>2020-07-12T07:29:26Z</time>
      </trkpt>
      <trkpt lat="46.55556" lon="2.53847">
        <ele>202.8</ele>
        <time>2020-07-12T07:29:27Z</time>
      </trkpt>
      <trkpt lat="46.55553" lon="2.53841">
        <ele>203</ele>
        <time>2020-07-12T07:29:28Z</time>
      </trkpt>
      <trkpt lat="46.55551" lon="2.53834">
        <ele>203.1</ele>
        <time>2020-07-12T07:29:29Z</time>
      </trkpt>
      <trkpt lat="46.55549" lon="2.53828">
        <ele>202.7</ele>
        <time>2020-07-12T07:29:30Z</time>
      </trkpt>
      <trkpt lat="46.55546" lon="2.53821">
        <ele>202.3</ele>
        <time>2020-07-12T07:29:31Z</time>
      </trkpt>
      <trkpt lat="46.55544" lon="2.53814">
        <ele>202.1</ele>
        <time>2020-07-12T07:29:32Z</time>
      </trkpt>
      <trkpt lat="46.55542" lon="2.53807">
        <ele>201.9</ele>
        <time>2020-07-12T07:29:33Z</time>
      </trkpt>
      <trkpt lat="46.55539" lon="2.538">
        <ele>201.7</ele>
        <time>2020-07-12T07:29:34Z</time>
      </trkpt>
      <trkpt lat="46.55537" lon="2.53792">
        <ele>201.2</ele>
        <time>2020-07-12T07:29:35Z</time>
      </trkpt>
      <trkpt lat="46.55535" lon="2.53785">
        <ele>200.9</ele>
        <time>2020-07-12T07:29:36Z</time>
      </trkpt>
      <trkpt lat="46.55534" lon="2.53777">
        <ele>200.8</ele>
        <time>2020-07-12T07:29:37Z</time>
      </trkpt>
      <trkpt lat="46.55534" lon="2.5377">
        <ele>200.8</ele>
        <time>2020-07-12T07:29:38Z</time>
      </trkpt>
      <trkpt lat="46.55533" lon="2.53762">
        <ele>201.1</ele>
        <time>2020-07-12T07:29:39Z</time>
      </trkpt>
      <trkpt lat="46.55532" lon="2.53755">
        <ele>201.3</ele>
        <time>2020-07-12T07:29:40Z</time>
      </trkpt>
      <trkpt lat="46.55532" lon="2.53749">
        <ele>201.4</ele>
        <time>2020-07-12T07:29:41Z</time>
      </trkpt>
      <trkpt lat="46.55531" lon="2.53742">
        <ele>201.9</ele>
        <time>2020-07-12T07:29:42Z</time>
      </trkpt>
      <trkpt lat="46.55531" lon="2.53735">
        <ele>202.3</ele>
        <time>2020-07-12T07:29:43Z</time>
      </trkpt>
      <trkpt lat="46.55529" lon="2.53723">
        <ele>202.1</ele>
        <time>2020-07-12T07:29:45Z</time>
      </trkpt>
      <trkpt lat="46.55528" lon="2.53711">
        <ele>202</ele>
        <time>2020-07-12T07:29:47Z</time>
      </trkpt>
      <trkpt lat="46.55527" lon="2.537">
        <ele>202.1</ele>
        <time>2020-07-12T07:29:49Z</time>
      </trkpt>
      <trkpt lat="46.55527" lon="2.53688">
        <ele>202</ele>
        <time>2020-07-12T07:29:51Z</time>
      </trkpt>
      <trkpt lat="46.55527" lon="2.53678">
        <ele>202.4</ele>
        <time>2020-07-12T07:29:53Z</time>
      </trkpt>
      <trkpt lat="46.55525" lon="2.53668">
        <ele>203.1</ele>
        <time>2020-07-12T07:29:55Z</time>
      </trkpt>
      <trkpt lat="46.55522" lon="2.53662">
        <ele>203</ele>
        <time>2020-07-12T07:29:56Z</time>
      </trkpt>
      <trkpt lat="46.5552" lon="2.53656">
        <ele>202.9</ele>
        <time>2020-07-12T07:29:57Z</time>
      </trkpt>
      <trkpt lat="46.55517" lon="2.5365">
        <ele>202.4</ele>
        <time>2020-07-12T07:29:58Z</time>
      </trkpt>
      <trkpt lat="46.55514" lon="2.53643">
        <ele>202</ele>
        <time>2020-07-12T07:29:59Z</time>
      </trkpt>
      <trkpt lat="46.55511" lon="2.53636">
        <ele>201.7</ele>
        <time>2020-07-12T07:30:00Z</time>
      </trkpt>
      <trkpt lat="46.55509" lon="2.53629">
        <ele>201.3</ele>
        <time>2020-07-12T07:30:01Z</time>
      </trkpt>
      <trkpt lat="46.55506" lon="2.53622">
        <ele>201</ele>
        <time>2020-07-12T07:30:02Z</time>
      </trkpt>
      <trkpt lat="46.55502" lon="2.53615">
        <ele>201</ele>
        <time>2020-07-12T07:30:03Z</time>
      </trkpt>
      <trkpt lat="46.55498" lon="2.53608">
        <ele>200.9</ele>
        <time>2020-07-12T07:30:04Z</time>
      </trkpt>
      <trkpt lat="46.55493" lon="2.53601">
        <ele>200.3</ele>
        <time>2020-07-12T07:30:05Z</time>
      </trkpt>
      <trkpt lat="46.55489" lon="2.53594">
        <ele>199.9</ele>
        <time>2020-07-12T07:30:06Z</time>
      </trkpt>
      <trkpt lat="46.55484" lon="2.53587">
        <ele>199.6</ele>
        <time>2020-07-12T07:30:07Z</time>
      </trkpt>
      <trkpt lat="46.55479" lon="2.53581">
        <ele>199.3</ele>
        <time>2020-07-12T07:30:08Z</time>
      </trkpt>
      <trkpt lat="46.55473" lon="2.53576">
        <ele>199.1</ele>
        <time>2020-07-12T07:30:09Z</time>
      </trkpt>
      <trkpt lat="46.55467" lon="2.53573">
        <ele>198.4</ele>
        <time>2020-07-12T07:30:10Z</time>
      </trkpt>
      <trkpt lat="46.55461" lon="2.53571">
        <ele>198</ele>
        <time>2020-07-12T07:30:11Z</time>
      </trkpt>
      <trkpt lat="46.55456" lon="2.5357">
        <ele>196.6</ele>
        <time>2020-07-12T07:30:12Z</time>
      </trkpt>
      <trkpt lat="46.55451" lon="2.53569">
        <ele>195.6</ele>
        <time>2020-07-12T07:30:13Z</time>
      </trkpt>
      <trkpt lat="46.55443" lon="2.53568">
        <ele>194.7</ele>
        <time>2020-07-12T07:30:15Z</time>
      </trkpt>
      <trkpt lat="46.55436" lon="2.53568">
        <ele>193.6</ele>
        <time>2020-07-12T07:30:19Z</time>
      </trkpt>
      <trkpt lat="46.55427" lon="2.53571">
        <ele>192.7</ele>
        <time>2020-07-12T07:30:30Z</time>
      </trkpt>
      <trkpt lat="46.5542" lon="2.5357">
        <ele>191.9</ele>
        <time>2020-07-12T07:30:39Z</time>
      </trkpt>
      <trkpt lat="46.55412" lon="2.53567">
        <ele>192.7</ele>
        <time>2020-07-12T07:30:44Z</time>
      </trkpt>
      <trkpt lat="46.55404" lon="2.53566">
        <ele>193.3</ele>
        <time>2020-07-12T07:30:49Z</time>
      </trkpt>
      <trkpt lat="46.55396" lon="2.53565">
        <ele>193.2</ele>
        <time>2020-07-12T07:31:07Z</time>
      </trkpt>
      <trkpt lat="46.55388" lon="2.53564">
        <ele>194.1</ele>
        <time>2020-07-12T07:31:12Z</time>
      </trkpt>
      <trkpt lat="46.55386" lon="2.53564">
        <ele>194.1</ele>
        <time>2020-07-12T07:31:13Z</time>
      </trkpt>
      <trkpt lat="46.55373" lon="2.53561">
        <ele>194.1</ele>
        <time>2020-07-12T07:31:18Z</time>
      </trkpt>
      <trkpt lat="46.55366" lon="2.53559">
        <ele>193.9</ele>
        <time>2020-07-12T07:31:21Z</time>
      </trkpt>
      <trkpt lat="46.55358" lon="2.53557">
        <ele>193.9</ele>
        <time>2020-07-12T07:31:24Z</time>
      </trkpt>
      <trkpt lat="46.55351" lon="2.53553">
        <ele>193.8</ele>
        <time>2020-07-12T07:31:27Z</time>
      </trkpt>
      <trkpt lat="46.55343" lon="2.53551">
        <ele>194.6</ele>
        <time>2020-07-12T07:31:30Z</time>
      </trkpt>
      <trkpt lat="46.55337" lon="2.53547">
        <ele>195.1</ele>
        <time>2020-07-12T07:31:33Z</time>
      </trkpt>
      <trkpt lat="46.5533" lon="2.53544">
        <ele>195.2</ele>
        <time>2020-07-12T07:31:36Z</time>
      </trkpt>
      <trkpt lat="46.55323" lon="2.53541">
        <ele>195.2</ele>
        <time>2020-07-12T07:31:39Z</time>
      </trkpt>
      <trkpt lat="46.55315" lon="2.53537">
        <ele>194.6</ele>
        <time>2020-07-12T07:31:42Z</time>
      </trkpt>
      <trkpt lat="46.55308" lon="2.53534">
        <ele>195.1</ele>
        <time>2020-07-12T07:31:45Z</time>
      </trkpt>
      <trkpt lat="46.55299" lon="2.5353">
        <ele>195.9</ele>
        <time>2020-07-12T07:31:48Z</time>
      </trkpt>
      <trkpt lat="46.55293" lon="2.53527">
        <ele>196.3</ele>
        <time>2020-07-12T07:31:50Z</time>
      </trkpt>
      <trkpt lat="46.55288" lon="2.53524">
        <ele>196.5</ele>
        <time>2020-07-12T07:31:52Z</time>
      </trkpt>
      <trkpt lat="46.55279" lon="2.53521">
        <ele>196.3</ele>
        <time>2020-07-12T07:31:55Z</time>
      </trkpt>
      <trkpt lat="46.5527" lon="2.53519">
        <ele>195.9</ele>
        <time>2020-07-12T07:31:58Z</time>
      </trkpt>
      <trkpt lat="46.55262" lon="2.53518">
        <ele>196.7</ele>
        <time>2020-07-12T07:32:01Z</time>
      </trkpt>
      <trkpt lat="46.55256" lon="2.53518">
        <ele>196.8</ele>
        <time>2020-07-12T07:32:03Z</time>
      </trkpt>
      <trkpt lat="46.55247" lon="2.53517">
        <ele>197.1</ele>
        <time>2020-07-12T07:32:06Z</time>
      </trkpt>
      <trkpt lat="46.55241" lon="2.53517">
        <ele>197.5</ele>
        <time>2020-07-12T07:32:08Z</time>
      </trkpt>
      <trkpt lat="46.55235" lon="2.53517">
        <ele>197.7</ele>
        <time>2020-07-12T07:32:10Z</time>
      </trkpt>
      <trkpt lat="46.55229" lon="2.53518">
        <ele>198.8</ele>
        <time>2020-07-12T07:32:12Z</time>
      </trkpt>
      <trkpt lat="46.55223" lon="2.53518">
        <ele>199.1</ele>
        <time>2020-07-12T07:32:14Z</time>
      </trkpt>
      <trkpt lat="46.5522" lon="2.53519">
        <ele>199.1</ele>
        <time>2020-07-12T07:32:15Z</time>
      </trkpt>
      <trkpt lat="46.55206" lon="2.5352">
        <ele>199.6</ele>
        <time>2020-07-12T07:32:20Z</time>
      </trkpt>
      <trkpt lat="46.55198" lon="2.5352">
        <ele>199.8</ele>
        <time>2020-07-12T07:32:23Z</time>
      </trkpt>
      <trkpt lat="46.55189" lon="2.53521">
        <ele>200.6</ele>
        <time>2020-07-12T07:32:26Z</time>
      </trkpt>
      <trkpt lat="46.5518" lon="2.53523">
        <ele>201</ele>
        <time>2020-07-12T07:32:29Z</time>
      </trkpt>
      <trkpt lat="46.55174" lon="2.53524">
        <ele>201.6</ele>
        <time>2020-07-12T07:32:31Z</time>
      </trkpt>
      <trkpt lat="46.55168" lon="2.53525">
        <ele>201.9</ele>
        <time>2020-07-12T07:32:33Z</time>
      </trkpt>
      <trkpt lat="46.55162" lon="2.53526">
        <ele>202.3</ele>
        <time>2020-07-12T07:32:35Z</time>
      </trkpt>
      <trkpt lat="46.55154" lon="2.53528">
        <ele>202.5</ele>
        <time>2020-07-12T07:32:38Z</time>
      </trkpt>
      <trkpt lat="46.55146" lon="2.53529">
        <ele>203.6</ele>
        <time>2020-07-12T07:32:41Z</time>
      </trkpt>
      <trkpt lat="46.55139" lon="2.5353">
        <ele>205</ele>
        <time>2020-07-12T07:32:44Z</time>
      </trkpt>
      <trkpt lat="46.55131" lon="2.53533">
        <ele>205.4</ele>
        <time>2020-07-12T07:32:47Z</time>
      </trkpt>
      <trkpt lat="46.55123" lon="2.53535">
        <ele>206.6</ele>
        <time>2020-07-12T07:32:50Z</time>
      </trkpt>
      <trkpt lat="46.55116" lon="2.53537">
        <ele>207.3</ele>
        <time>2020-07-12T07:32:53Z</time>
      </trkpt>
      <trkpt lat="46.55108" lon="2.53539">
        <ele>207.7</ele>
        <time>2020-07-12T07:32:56Z</time>
      </trkpt>
      <trkpt lat="46.55101" lon="2.53541">
        <ele>207.6</ele>
        <time>2020-07-12T07:32:59Z</time>
      </trkpt>
      <trkpt lat="46.55093" lon="2.53543">
        <ele>208.6</ele>
        <time>2020-07-12T07:33:02Z</time>
      </trkpt>
      <trkpt lat="46.55086" lon="2.53545">
        <ele>209.6</ele>
        <time>2020-07-12T07:33:05Z</time>
      </trkpt>
      <trkpt lat="46.55079" lon="2.53546">
        <ele>211</ele>
        <time>2020-07-12T07:33:08Z</time>
      </trkpt>
      <trkpt lat="46.55072" lon="2.53548">
        <ele>211.7</ele>
        <time>2020-07-12T07:33:11Z</time>
      </trkpt>
      <trkpt lat="46.55065" lon="2.5355">
        <ele>212.4</ele>
        <time>2020-07-12T07:33:14Z</time>
      </trkpt>
      <trkpt lat="46.55056" lon="2.53552">
        <ele>213.8</ele>
        <time>2020-07-12T07:33:18Z</time>
      </trkpt>
      <trkpt lat="46.55054" lon="2.53553">
        <ele>214</ele>
        <time>2020-07-12T07:33:19Z</time>
      </trkpt>
      <trkpt lat="46.5504" lon="2.53557">
        <ele>215.4</ele>
        <time>2020-07-12T07:33:26Z</time>
      </trkpt>
      <trkpt lat="46.55031" lon="2.53559">
        <ele>216.3</ele>
        <time>2020-07-12T07:33:30Z</time>
      </trkpt>
      <trkpt lat="46.55024" lon="2.53561">
        <ele>217.6</ele>
        <time>2020-07-12T07:33:33Z</time>
      </trkpt>
      <trkpt lat="46.55016" lon="2.53564">
        <ele>218.7</ele>
        <time>2020-07-12T07:33:37Z</time>
      </trkpt>
      <trkpt lat="46.55008" lon="2.53567">
        <ele>219.3</ele>
        <time>2020-07-12T07:33:41Z</time>
      </trkpt>
      <trkpt lat="46.55" lon="2.53571">
        <ele>219.8</ele>
        <time>2020-07-12T07:33:45Z</time>
      </trkpt>
      <trkpt lat="46.54993" lon="2.53576">
        <ele>221.6</ele>
        <time>2020-07-12T07:33:49Z</time>
      </trkpt>
      <trkpt lat="46.54985" lon="2.53581">
        <ele>222.6</ele>
        <time>2020-07-12T07:33:53Z</time>
      </trkpt>
      <trkpt lat="46.54977" lon="2.53586">
        <ele>222.7</ele>
        <time>2020-07-12T07:33:57Z</time>
      </trkpt>
      <trkpt lat="46.54971" lon="2.53591">
        <ele>223.4</ele>
        <time>2020-07-12T07:34:00Z</time>
      </trkpt>
      <trkpt lat="46.54963" lon="2.53597">
        <ele>224.4</ele>
        <time>2020-07-12T07:34:04Z</time>
      </trkpt>
      <trkpt lat="46.54956" lon="2.53603">
        <ele>225.8</ele>
        <time>2020-07-12T07:34:08Z</time>
      </trkpt>
      <trkpt lat="46.54949" lon="2.53607">
        <ele>226.2</ele>
        <time>2020-07-12T07:34:11Z</time>
      </trkpt>
      <trkpt lat="46.54943" lon="2.53612">
        <ele>227.8</ele>
        <time>2020-07-12T07:34:14Z</time>
      </trkpt>
      <trkpt lat="46.54937" lon="2.53618">
        <ele>228</ele>
        <time>2020-07-12T07:34:17Z</time>
      </trkpt>
      <trkpt lat="46.5493" lon="2.53624">
        <ele>228.1</ele>
        <time>2020-07-12T07:34:20Z</time>
      </trkpt>
      <trkpt lat="46.54928" lon="2.53627">
        <ele>228.1</ele>
        <time>2020-07-12T07:34:21Z</time>
      </trkpt>
      <trkpt lat="46.5492" lon="2.53635">
        <ele>229.3</ele>
        <time>2020-07-12T07:34:24Z</time>
      </trkpt>
      <trkpt lat="46.54913" lon="2.53642">
        <ele>230.1</ele>
        <time>2020-07-12T07:34:27Z</time>
      </trkpt>
      <trkpt lat="46.54904" lon="2.53646">
        <ele>230.1</ele>
        <time>2020-07-12T07:34:30Z</time>
      </trkpt>
      <trkpt lat="46.54898" lon="2.53646">
        <ele>230</ele>
        <time>2020-07-12T07:34:32Z</time>
      </trkpt>
      <trkpt lat="46.54892" lon="2.53644">
        <ele>230.1</ele>
        <time>2020-07-12T07:34:34Z</time>
      </trkpt>
      <trkpt lat="46.54886" lon="2.53642">
        <ele>230.2</ele>
        <time>2020-07-12T07:34:36Z</time>
      </trkpt>
      <trkpt lat="46.54879" lon="2.5364">
        <ele>229.9</ele>
        <time>2020-07-12T07:34:38Z</time>
      </trkpt>
      <trkpt lat="46.54873" lon="2.53638">
        <ele>229.5</ele>
        <time>2020-07-12T07:34:40Z</time>
      </trkpt>
      <trkpt lat="46.54866" lon="2.53637">
        <ele>230.3</ele>
        <time>2020-07-12T07:34:42Z</time>
      </trkpt>
      <trkpt lat="46.54859" lon="2.53635">
        <ele>230.3</ele>
        <time>2020-07-12T07:34:44Z</time>
      </trkpt>
      <trkpt lat="46.54853" lon="2.53634">
        <ele>230.8</ele>
        <time>2020-07-12T07:34:46Z</time>
      </trkpt>
      <trkpt lat="46.54846" lon="2.53632">
        <ele>230.8</ele>
        <time>2020-07-12T07:34:48Z</time>
      </trkpt>
      <trkpt lat="46.54839" lon="2.5363">
        <ele>230.5</ele>
        <time>2020-07-12T07:34:50Z</time>
      </trkpt>
      <trkpt lat="46.54832" lon="2.53628">
        <ele>230.2</ele>
        <time>2020-07-12T07:34:52Z</time>
      </trkpt>
      <trkpt lat="46.54825" lon="2.53627">
        <ele>230.3</ele>
        <time>2020-07-12T07:34:54Z</time>
      </trkpt>
      <trkpt lat="46.54819" lon="2.53625">
        <ele>230</ele>
        <time>2020-07-12T07:34:56Z</time>
      </trkpt>
      <trkpt lat="46.54812" lon="2.53622">
        <ele>231.3</ele>
        <time>2020-07-12T07:34:58Z</time>
      </trkpt>
      <trkpt lat="46.54805" lon="2.53621">
        <ele>231.4</ele>
        <time>2020-07-12T07:35:00Z</time>
      </trkpt>
      <trkpt lat="46.54799" lon="2.53619">
        <ele>231.3</ele>
        <time>2020-07-12T07:35:02Z</time>
      </trkpt>
      <trkpt lat="46.54793" lon="2.53615">
        <ele>231.4</ele>
        <time>2020-07-12T07:35:04Z</time>
      </trkpt>
      <trkpt lat="46.54788" lon="2.53608">
        <ele>231.3</ele>
        <time>2020-07-12T07:35:06Z</time>
      </trkpt>
      <trkpt lat="46.54783" lon="2.53601">
        <ele>231.5</ele>
        <time>2020-07-12T07:35:08Z</time>
      </trkpt>
      <trkpt lat="46.54778" lon="2.53594">
        <ele>231.8</ele>
        <time>2020-07-12T07:35:10Z</time>
      </trkpt>
      <trkpt lat="46.54773" lon="2.53587">
        <ele>231.8</ele>
        <time>2020-07-12T07:35:12Z</time>
      </trkpt>
      <trkpt lat="46.54768" lon="2.5358">
        <ele>231.8</ele>
        <time>2020-07-12T07:35:14Z</time>
      </trkpt>
      <trkpt lat="46.54763" lon="2.53572">
        <ele>231.6</ele>
        <time>2020-07-12T07:35:16Z</time>
      </trkpt>
      <trkpt lat="46.54758" lon="2.53565">
        <ele>231.5</ele>
        <time>2020-07-12T07:35:18Z</time>
      </trkpt>
      <trkpt lat="46.54753" lon="2.53557">
        <ele>232.4</ele>
        <time>2020-07-12T07:35:20Z</time>
      </trkpt>
      <trkpt lat="46.54747" lon="2.5355">
        <ele>232.8</ele>
        <time>2020-07-12T07:35:22Z</time>
      </trkpt>
      <trkpt lat="46.54745" lon="2.53546">
        <ele>233</ele>
        <time>2020-07-12T07:35:23Z</time>
      </trkpt>
      <trkpt lat="46.54737" lon="2.53534">
        <ele>233.1</ele>
        <time>2020-07-12T07:35:26Z</time>
      </trkpt>
      <trkpt lat="46.54732" lon="2.53526">
        <ele>233.2</ele>
        <time>2020-07-12T07:35:28Z</time>
      </trkpt>
      <trkpt lat="46.54728" lon="2.53518">
        <ele>233.4</ele>
        <time>2020-07-12T07:35:30Z</time>
      </trkpt>
      <trkpt lat="46.54723" lon="2.5351">
        <ele>233.6</ele>
        <time>2020-07-12T07:35:32Z</time>
      </trkpt>
      <trkpt lat="46.54719" lon="2.53502">
        <ele>233.6</ele>
        <time>2020-07-12T07:35:34Z</time>
      </trkpt>
      <trkpt lat="46.54716" lon="2.53494">
        <ele>234</ele>
        <time>2020-07-12T07:35:36Z</time>
      </trkpt>
      <trkpt lat="46.54714" lon="2.53484">
        <ele>234</ele>
        <time>2020-07-12T07:35:38Z</time>
      </trkpt>
      <trkpt lat="46.54714" lon="2.53474">
        <ele>234.3</ele>
        <time>2020-07-12T07:35:40Z</time>
      </trkpt>
      <trkpt lat="46.54715" lon="2.53464">
        <ele>234.8</ele>
        <time>2020-07-12T07:35:42Z</time>
      </trkpt>
      <trkpt lat="46.54716" lon="2.53454">
        <ele>235.1</ele>
        <time>2020-07-12T07:35:44Z</time>
      </trkpt>
      <trkpt lat="46.54717" lon="2.53443">
        <ele>235.5</ele>
        <time>2020-07-12T07:35:46Z</time>
      </trkpt>
      <trkpt lat="46.54716" lon="2.53433">
        <ele>236.3</ele>
        <time>2020-07-12T07:35:48Z</time>
      </trkpt>
      <trkpt lat="46.54715" lon="2.53423">
        <ele>236.6</ele>
        <time>2020-07-12T07:35:50Z</time>
      </trkpt>
      <trkpt lat="46.54711" lon="2.53414">
        <ele>236.5</ele>
        <time>2020-07-12T07:35:52Z</time>
      </trkpt>
      <trkpt lat="46.54707" lon="2.53406">
        <ele>236.2</ele>
        <time>2020-07-12T07:35:54Z</time>
      </trkpt>
      <trkpt lat="46.54703" lon="2.53399">
        <ele>235.9</ele>
        <time>2020-07-12T07:35:56Z</time>
      </trkpt>
      <trkpt lat="46.547" lon="2.53393">
        <ele>236.1</ele>
        <time>2020-07-12T07:35:58Z</time>
      </trkpt>
      <trkpt lat="46.54694" lon="2.53383">
        <ele>235.6</ele>
        <time>2020-07-12T07:36:01Z</time>
      </trkpt>
      <trkpt lat="46.54688" lon="2.53373">
        <ele>235.7</ele>
        <time>2020-07-12T07:36:04Z</time>
      </trkpt>
      <trkpt lat="46.54684" lon="2.53366">
        <ele>236.5</ele>
        <time>2020-07-12T07:36:06Z</time>
      </trkpt>
      <trkpt lat="46.54679" lon="2.53357">
        <ele>237.2</ele>
        <time>2020-07-12T07:36:08Z</time>
      </trkpt>
      <trkpt lat="46.54674" lon="2.53349">
        <ele>237.5</ele>
        <time>2020-07-12T07:36:10Z</time>
      </trkpt>
      <trkpt lat="46.54669" lon="2.53341">
        <ele>236.9</ele>
        <time>2020-07-12T07:36:12Z</time>
      </trkpt>
      <trkpt lat="46.54664" lon="2.53332">
        <ele>236.7</ele>
        <time>2020-07-12T07:36:14Z</time>
      </trkpt>
      <trkpt lat="46.54659" lon="2.53323">
        <ele>236.7</ele>
        <time>2020-07-12T07:36:16Z</time>
      </trkpt>
      <trkpt lat="46.54654" lon="2.53315">
        <ele>236.6</ele>
        <time>2020-07-12T07:36:18Z</time>
      </trkpt>
      <trkpt lat="46.54648" lon="2.53306">
        <ele>236.7</ele>
        <time>2020-07-12T07:36:20Z</time>
      </trkpt>
      <trkpt lat="46.54642" lon="2.53298">
        <ele>236.9</ele>
        <time>2020-07-12T07:36:22Z</time>
      </trkpt>
      <trkpt lat="46.54637" lon="2.53289">
        <ele>236.9</ele>
        <time>2020-07-12T07:36:24Z</time>
      </trkpt>
      <trkpt lat="46.54634" lon="2.53285">
        <ele>236.9</ele>
        <time>2020-07-12T07:36:25Z</time>
      </trkpt>
      <trkpt lat="46.54625" lon="2.53273">
        <ele>237.1</ele>
        <time>2020-07-12T07:36:28Z</time>
      </trkpt>
      <trkpt lat="46.54619" lon="2.53264">
        <ele>237.3</ele>
        <time>2020-07-12T07:36:30Z</time>
      </trkpt>
      <trkpt lat="46.54613" lon="2.53255">
        <ele>237.2</ele>
        <time>2020-07-12T07:36:32Z</time>
      </trkpt>
      <trkpt lat="46.54608" lon="2.53246">
        <ele>237</ele>
        <time>2020-07-12T07:36:34Z</time>
      </trkpt>
      <trkpt lat="46.54602" lon="2.53238">
        <ele>237</ele>
        <time>2020-07-12T07:36:36Z</time>
      </trkpt>
      <trkpt lat="46.54597" lon="2.53229">
        <ele>237.2</ele>
        <time>2020-07-12T07:36:38Z</time>
      </trkpt>
      <trkpt lat="46.54591" lon="2.53221">
        <ele>237.6</ele>
        <time>2020-07-12T07:36:40Z</time>
      </trkpt>
      <trkpt lat="46.54585" lon="2.53213">
        <ele>238.2</ele>
        <time>2020-07-12T07:36:42Z</time>
      </trkpt>
      <trkpt lat="46.5458" lon="2.53204">
        <ele>238.5</ele>
        <time>2020-07-12T07:36:44Z</time>
      </trkpt>
      <trkpt lat="46.54575" lon="2.53196">
        <ele>238.7</ele>
        <time>2020-07-12T07:36:46Z</time>
      </trkpt>
      <trkpt lat="46.54569" lon="2.53188">
        <ele>239.2</ele>
        <time>2020-07-12T07:36:48Z</time>
      </trkpt>
      <trkpt lat="46.54564" lon="2.5318">
        <ele>239.4</ele>
        <time>2020-07-12T07:36:50Z</time>
      </trkpt>
      <trkpt lat="46.54559" lon="2.53172">
        <ele>239.2</ele>
        <time>2020-07-12T07:36:52Z</time>
      </trkpt>
      <trkpt lat="46.54553" lon="2.53164">
        <ele>239.2</ele>
        <time>2020-07-12T07:36:54Z</time>
      </trkpt>
      <trkpt lat="46.54548" lon="2.53157">
        <ele>239.1</ele>
        <time>2020-07-12T07:36:56Z</time>
      </trkpt>
      <trkpt lat="46.54543" lon="2.53148">
        <ele>238.9</ele>
        <time>2020-07-12T07:36:58Z</time>
      </trkpt>
      <trkpt lat="46.54537" lon="2.53141">
        <ele>238.7</ele>
        <time>2020-07-12T07:37:00Z</time>
      </trkpt>
      <trkpt lat="46.54531" lon="2.53134">
        <ele>239.2</ele>
        <time>2020-07-12T07:37:02Z</time>
      </trkpt>
      <trkpt lat="46.54524" lon="2.53129">
        <ele>239.1</ele>
        <time>2020-07-12T07:37:04Z</time>
      </trkpt>
      <trkpt lat="46.54517" lon="2.53124">
        <ele>239.3</ele>
        <time>2020-07-12T07:37:06Z</time>
      </trkpt>
      <trkpt lat="46.54509" lon="2.53121">
        <ele>238.8</ele>
        <time>2020-07-12T07:37:08Z</time>
      </trkpt>
      <trkpt lat="46.54501" lon="2.5312">
        <ele>238.2</ele>
        <time>2020-07-12T07:37:10Z</time>
      </trkpt>
      <trkpt lat="46.54492" lon="2.5312">
        <ele>238.1</ele>
        <time>2020-07-12T07:37:12Z</time>
      </trkpt>
      <trkpt lat="46.54484" lon="2.53121">
        <ele>238</ele>
        <time>2020-07-12T07:37:14Z</time>
      </trkpt>
      <trkpt lat="46.54475" lon="2.53123">
        <ele>238.1</ele>
        <time>2020-07-12T07:37:16Z</time>
      </trkpt>
      <trkpt lat="46.54467" lon="2.53124">
        <ele>237.4</ele>
        <time>2020-07-12T07:37:18Z</time>
      </trkpt>
      <trkpt lat="46.54458" lon="2.53126">
        <ele>237.5</ele>
        <time>2020-07-12T07:37:20Z</time>
      </trkpt>
      <trkpt lat="46.54453" lon="2.53126">
        <ele>237.7</ele>
        <time>2020-07-12T07:37:21Z</time>
      </trkpt>
      <trkpt lat="46.54449" lon="2.53127">
        <ele>237.9</ele>
        <time>2020-07-12T07:37:22Z</time>
      </trkpt>
      <trkpt lat="46.54444" lon="2.53128">
        <ele>238</ele>
        <time>2020-07-12T07:37:23Z</time>
      </trkpt>
      <trkpt lat="46.54436" lon="2.53129">
        <ele>237.9</ele>
        <time>2020-07-12T07:37:25Z</time>
      </trkpt>
      <trkpt lat="46.54431" lon="2.53129">
        <ele>237.9</ele>
        <time>2020-07-12T07:37:26Z</time>
      </trkpt>
      <trkpt lat="46.54419" lon="2.53128">
        <ele>238.1</ele>
        <time>2020-07-12T07:37:29Z</time>
      </trkpt>
      <trkpt lat="46.54411" lon="2.53126">
        <ele>238.6</ele>
        <time>2020-07-12T07:37:31Z</time>
      </trkpt>
      <trkpt lat="46.54403" lon="2.53123">
        <ele>238.4</ele>
        <time>2020-07-12T07:37:33Z</time>
      </trkpt>
      <trkpt lat="46.54396" lon="2.5312">
        <ele>238.5</ele>
        <time>2020-07-12T07:37:35Z</time>
      </trkpt>
      <trkpt lat="46.54389" lon="2.53116">
        <ele>238.8</ele>
        <time>2020-07-12T07:37:37Z</time>
      </trkpt>
      <trkpt lat="46.54382" lon="2.53112">
        <ele>239</ele>
        <time>2020-07-12T07:37:39Z</time>
      </trkpt>
      <trkpt lat="46.54375" lon="2.53108">
        <ele>239.2</ele>
        <time>2020-07-12T07:37:41Z</time>
      </trkpt>
      <trkpt lat="46.54368" lon="2.53104">
        <ele>239.4</ele>
        <time>2020-07-12T07:37:43Z</time>
      </trkpt>
      <trkpt lat="46.54361" lon="2.53101">
        <ele>239.6</ele>
        <time>2020-07-12T07:37:45Z</time>
      </trkpt>
      <trkpt lat="46.54355" lon="2.53104">
        <ele>239.3</ele>
        <time>2020-07-12T07:37:47Z</time>
      </trkpt>
      <trkpt lat="46.5435" lon="2.53111">
        <ele>239.8</ele>
        <time>2020-07-12T07:37:49Z</time>
      </trkpt>
      <trkpt lat="46.54344" lon="2.53115">
        <ele>240.2</ele>
        <time>2020-07-12T07:37:51Z</time>
      </trkpt>
      <trkpt lat="46.54339" lon="2.5312">
        <ele>240.5</ele>
        <time>2020-07-12T07:37:53Z</time>
      </trkpt>
      <trkpt lat="46.54332" lon="2.53124">
        <ele>241.2</ele>
        <time>2020-07-12T07:37:55Z</time>
      </trkpt>
      <trkpt lat="46.54326" lon="2.53128">
        <ele>241.9</ele>
        <time>2020-07-12T07:37:57Z</time>
      </trkpt>
      <trkpt lat="46.54319" lon="2.53133">
        <ele>241.9</ele>
        <time>2020-07-12T07:37:59Z</time>
      </trkpt>
      <trkpt lat="46.54312" lon="2.53137">
        <ele>241.4</ele>
        <time>2020-07-12T07:38:01Z</time>
      </trkpt>
      <trkpt lat="46.54305" lon="2.53141">
        <ele>241.8</ele>
        <time>2020-07-12T07:38:03Z</time>
      </trkpt>
      <trkpt lat="46.54298" lon="2.53145">
        <ele>241.8</ele>
        <time>2020-07-12T07:38:05Z</time>
      </trkpt>
      <trkpt lat="46.5429" lon="2.53149">
        <ele>241.7</ele>
        <time>2020-07-12T07:38:07Z</time>
      </trkpt>
      <trkpt lat="46.54282" lon="2.53153">
        <ele>241.7</ele>
        <time>2020-07-12T07:38:09Z</time>
      </trkpt>
      <trkpt lat="46.54274" lon="2.53158">
        <ele>242</ele>
        <time>2020-07-12T07:38:11Z</time>
      </trkpt>
      <trkpt lat="46.54266" lon="2.53163">
        <ele>242.4</ele>
        <time>2020-07-12T07:38:13Z</time>
      </trkpt>
      <trkpt lat="46.54262" lon="2.53165">
        <ele>242.3</ele>
        <time>2020-07-12T07:38:14Z</time>
      </trkpt>
      <trkpt lat="46.54257" lon="2.53168">
        <ele>242.2</ele>
        <time>2020-07-12T07:38:15Z</time>
      </trkpt>
      <trkpt lat="46.54249" lon="2.53173">
        <ele>242.2</ele>
        <time>2020-07-12T07:38:17Z</time>
      </trkpt>
      <trkpt lat="46.54242" lon="2.53178">
        <ele>242.5</ele>
        <time>2020-07-12T07:38:19Z</time>
      </trkpt>
      <trkpt lat="46.54235" lon="2.53183">
        <ele>242.9</ele>
        <time>2020-07-12T07:38:21Z</time>
      </trkpt>
      <trkpt lat="46.54228" lon="2.53188">
        <ele>243.2</ele>
        <time>2020-07-12T07:38:23Z</time>
      </trkpt>
      <trkpt lat="46.54221" lon="2.53194">
        <ele>243.2</ele>
        <time>2020-07-12T07:38:25Z</time>
      </trkpt>
      <trkpt lat="46.54215" lon="2.532">
        <ele>242.3</ele>
        <time>2020-07-12T07:38:27Z</time>
      </trkpt>
      <trkpt lat="46.54211" lon="2.53203">
        <ele>242.3</ele>
        <time>2020-07-12T07:38:28Z</time>
      </trkpt>
      <trkpt lat="46.54203" lon="2.53208">
        <ele>242.3</ele>
        <time>2020-07-12T07:38:30Z</time>
      </trkpt>
      <trkpt lat="46.54198" lon="2.5321">
        <ele>242.2</ele>
        <time>2020-07-12T07:38:31Z</time>
      </trkpt>
      <trkpt lat="46.54194" lon="2.53213">
        <ele>242.1</ele>
        <time>2020-07-12T07:38:32Z</time>
      </trkpt>
      <trkpt lat="46.5419" lon="2.53216">
        <ele>241.9</ele>
        <time>2020-07-12T07:38:33Z</time>
      </trkpt>
      <trkpt lat="46.54181" lon="2.5322">
        <ele>241.6</ele>
        <time>2020-07-12T07:38:35Z</time>
      </trkpt>
      <trkpt lat="46.54177" lon="2.53223">
        <ele>241.4</ele>
        <time>2020-07-12T07:38:36Z</time>
      </trkpt>
      <trkpt lat="46.54172" lon="2.53225">
        <ele>241.2</ele>
        <time>2020-07-12T07:38:37Z</time>
      </trkpt>
      <trkpt lat="46.54168" lon="2.53227">
        <ele>241</ele>
        <time>2020-07-12T07:38:38Z</time>
      </trkpt>
      <trkpt lat="46.54163" lon="2.53229">
        <ele>240.9</ele>
        <time>2020-07-12T07:38:39Z</time>
      </trkpt>
      <trkpt lat="46.54159" lon="2.53231">
        <ele>241</ele>
        <time>2020-07-12T07:38:40Z</time>
      </trkpt>
      <trkpt lat="46.5415" lon="2.53233">
        <ele>241.1</ele>
        <time>2020-07-12T07:38:42Z</time>
      </trkpt>
      <trkpt lat="46.54141" lon="2.53234">
        <ele>240.6</ele>
        <time>2020-07-12T07:38:44Z</time>
      </trkpt>
      <trkpt lat="46.54133" lon="2.53234">
        <ele>240.8</ele>
        <time>2020-07-12T07:38:46Z</time>
      </trkpt>
      <trkpt lat="46.54124" lon="2.53233">
        <ele>240.6</ele>
        <time>2020-07-12T07:38:48Z</time>
      </trkpt>
      <trkpt lat="46.54116" lon="2.53233">
        <ele>240.5</ele>
        <time>2020-07-12T07:38:50Z</time>
      </trkpt>
      <trkpt lat="46.54107" lon="2.53233">
        <ele>240.7</ele>
        <time>2020-07-12T07:38:52Z</time>
      </trkpt>
      <trkpt lat="46.54103" lon="2.53232">
        <ele>240.8</ele>
        <time>2020-07-12T07:38:53Z</time>
      </trkpt>
      <trkpt lat="46.54094" lon="2.53233">
        <ele>240.7</ele>
        <time>2020-07-12T07:38:55Z</time>
      </trkpt>
      <trkpt lat="46.54089" lon="2.53233">
        <ele>240.5</ele>
        <time>2020-07-12T07:38:56Z</time>
      </trkpt>
      <trkpt lat="46.54085" lon="2.53233">
        <ele>240.8</ele>
        <time>2020-07-12T07:38:57Z</time>
      </trkpt>
      <trkpt lat="46.5408" lon="2.53233">
        <ele>241</ele>
        <time>2020-07-12T07:38:58Z</time>
      </trkpt>
      <trkpt lat="46.54075" lon="2.53232">
        <ele>240.8</ele>
        <time>2020-07-12T07:38:59Z</time>
      </trkpt>
      <trkpt lat="46.5407" lon="2.53232">
        <ele>240.6</ele>
        <time>2020-07-12T07:39:00Z</time>
      </trkpt>
      <trkpt lat="46.54066" lon="2.53231">
        <ele>240.5</ele>
        <time>2020-07-12T07:39:01Z</time>
      </trkpt>
      <trkpt lat="46.54061" lon="2.5323">
        <ele>240.5</ele>
        <time>2020-07-12T07:39:02Z</time>
      </trkpt>
      <trkpt lat="46.54056" lon="2.53229">
        <ele>240.5</ele>
        <time>2020-07-12T07:39:03Z</time>
      </trkpt>
      <trkpt lat="46.54051" lon="2.53228">
        <ele>240.4</ele>
        <time>2020-07-12T07:39:04Z</time>
      </trkpt>
      <trkpt lat="46.54046" lon="2.53226">
        <ele>240.4</ele>
        <time>2020-07-12T07:39:05Z</time>
      </trkpt>
      <trkpt lat="46.54041" lon="2.53224">
        <ele>240.4</ele>
        <time>2020-07-12T07:39:06Z</time>
      </trkpt>
      <trkpt lat="46.54036" lon="2.53222">
        <ele>240.4</ele>
        <time>2020-07-12T07:39:07Z</time>
      </trkpt>
      <trkpt lat="46.54032" lon="2.5322">
        <ele>240.4</ele>
        <time>2020-07-12T07:39:08Z</time>
      </trkpt>
      <trkpt lat="46.54027" lon="2.53217">
        <ele>240</ele>
        <time>2020-07-12T07:39:09Z</time>
      </trkpt>
      <trkpt lat="46.54023" lon="2.53214">
        <ele>239.7</ele>
        <time>2020-07-12T07:39:10Z</time>
      </trkpt>
      <trkpt lat="46.54018" lon="2.53211">
        <ele>239.9</ele>
        <time>2020-07-12T07:39:11Z</time>
      </trkpt>
      <trkpt lat="46.54014" lon="2.53208">
        <ele>240</ele>
        <time>2020-07-12T07:39:12Z</time>
      </trkpt>
      <trkpt lat="46.54007" lon="2.53201">
        <ele>239.7</ele>
        <time>2020-07-12T07:39:14Z</time>
      </trkpt>
      <trkpt lat="46.54003" lon="2.53197">
        <ele>239.4</ele>
        <time>2020-07-12T07:39:15Z</time>
      </trkpt>
      <trkpt lat="46.53999" lon="2.53194">
        <ele>239.3</ele>
        <time>2020-07-12T07:39:16Z</time>
      </trkpt>
      <trkpt lat="46.53995" lon="2.53191">
        <ele>239.2</ele>
        <time>2020-07-12T07:39:17Z</time>
      </trkpt>
      <trkpt lat="46.5399" lon="2.53189">
        <ele>239.2</ele>
        <time>2020-07-12T07:39:18Z</time>
      </trkpt>
      <trkpt lat="46.53986" lon="2.53188">
        <ele>239.3</ele>
        <time>2020-07-12T07:39:19Z</time>
      </trkpt>
      <trkpt lat="46.53977" lon="2.53185">
        <ele>239.3</ele>
        <time>2020-07-12T07:39:21Z</time>
      </trkpt>
      <trkpt lat="46.53969" lon="2.53184">
        <ele>239.3</ele>
        <time>2020-07-12T07:39:23Z</time>
      </trkpt>
      <trkpt lat="46.53964" lon="2.53183">
        <ele>239.3</ele>
        <time>2020-07-12T07:39:24Z</time>
      </trkpt>
      <trkpt lat="46.5396" lon="2.53182">
        <ele>239.1</ele>
        <time>2020-07-12T07:39:25Z</time>
      </trkpt>
      <trkpt lat="46.53951" lon="2.5318">
        <ele>238.8</ele>
        <time>2020-07-12T07:39:27Z</time>
      </trkpt>
      <trkpt lat="46.53942" lon="2.53179">
        <ele>238.6</ele>
        <time>2020-07-12T07:39:29Z</time>
      </trkpt>
      <trkpt lat="46.53938" lon="2.53178">
        <ele>238.6</ele>
        <time>2020-07-12T07:39:30Z</time>
      </trkpt>
      <trkpt lat="46.53929" lon="2.53175">
        <ele>238.5</ele>
        <time>2020-07-12T07:39:32Z</time>
      </trkpt>
      <trkpt lat="46.5392" lon="2.53172">
        <ele>238.6</ele>
        <time>2020-07-12T07:39:34Z</time>
      </trkpt>
      <trkpt lat="46.53916" lon="2.53171">
        <ele>238</ele>
        <time>2020-07-12T07:39:35Z</time>
      </trkpt>
      <trkpt lat="46.53911" lon="2.5317">
        <ele>237.5</ele>
        <time>2020-07-12T07:39:36Z</time>
      </trkpt>
      <trkpt lat="46.53907" lon="2.53168">
        <ele>237.7</ele>
        <time>2020-07-12T07:39:37Z</time>
      </trkpt>
      <trkpt lat="46.53903" lon="2.53167">
        <ele>237.9</ele>
        <time>2020-07-12T07:39:38Z</time>
      </trkpt>
      <trkpt lat="46.53898" lon="2.53165">
        <ele>238</ele>
        <time>2020-07-12T07:39:39Z</time>
      </trkpt>
      <trkpt lat="46.53889" lon="2.53162">
        <ele>238.2</ele>
        <time>2020-07-12T07:39:41Z</time>
      </trkpt>
      <trkpt lat="46.53881" lon="2.53161">
        <ele>238.6</ele>
        <time>2020-07-12T07:39:43Z</time>
      </trkpt>
      <trkpt lat="46.53873" lon="2.5316">
        <ele>239.3</ele>
        <time>2020-07-12T07:39:45Z</time>
      </trkpt>
      <trkpt lat="46.53865" lon="2.53158">
        <ele>239.3</ele>
        <time>2020-07-12T07:39:47Z</time>
      </trkpt>
      <trkpt lat="46.53857" lon="2.53157">
        <ele>238.9</ele>
        <time>2020-07-12T07:39:49Z</time>
      </trkpt>
      <trkpt lat="46.5385" lon="2.53156">
        <ele>238.6</ele>
        <time>2020-07-12T07:39:51Z</time>
      </trkpt>
      <trkpt lat="46.53841" lon="2.53155">
        <ele>238.8</ele>
        <time>2020-07-12T07:39:53Z</time>
      </trkpt>
      <trkpt lat="46.53833" lon="2.53155">
        <ele>238</ele>
        <time>2020-07-12T07:39:55Z</time>
      </trkpt>
      <trkpt lat="46.53825" lon="2.53155">
        <ele>237.5</ele>
        <time>2020-07-12T07:39:57Z</time>
      </trkpt>
      <trkpt lat="46.53817" lon="2.53156">
        <ele>237.6</ele>
        <time>2020-07-12T07:39:59Z</time>
      </trkpt>
      <trkpt lat="46.53809" lon="2.53156">
        <ele>237.3</ele>
        <time>2020-07-12T07:40:01Z</time>
      </trkpt>
      <trkpt lat="46.53801" lon="2.53155">
        <ele>237.4</ele>
        <time>2020-07-12T07:40:03Z</time>
      </trkpt>
      <trkpt lat="46.53796" lon="2.53155">
        <ele>237.7</ele>
        <time>2020-07-12T07:40:04Z</time>
      </trkpt>
      <trkpt lat="46.53792" lon="2.53154">
        <ele>238</ele>
        <time>2020-07-12T07:40:05Z</time>
      </trkpt>
      <trkpt lat="46.53787" lon="2.53154">
        <ele>237.7</ele>
        <time>2020-07-12T07:40:06Z</time>
      </trkpt>
      <trkpt lat="46.53782" lon="2.53154">
        <ele>237.4</ele>
        <time>2020-07-12T07:40:07Z</time>
      </trkpt>
      <trkpt lat="46.53777" lon="2.53154">
        <ele>237</ele>
        <time>2020-07-12T07:40:08Z</time>
      </trkpt>
      <trkpt lat="46.53772" lon="2.53153">
        <ele>236.7</ele>
        <time>2020-07-12T07:40:09Z</time>
      </trkpt>
      <trkpt lat="46.53767" lon="2.53153">
        <ele>236.5</ele>
        <time>2020-07-12T07:40:10Z</time>
      </trkpt>
      <trkpt lat="46.53762" lon="2.53153">
        <ele>236.3</ele>
        <time>2020-07-12T07:40:11Z</time>
      </trkpt>
      <trkpt lat="46.53757" lon="2.53153">
        <ele>236.2</ele>
        <time>2020-07-12T07:40:12Z</time>
      </trkpt>
      <trkpt lat="46.53753" lon="2.53153">
        <ele>236.1</ele>
        <time>2020-07-12T07:40:13Z</time>
      </trkpt>
      <trkpt lat="46.53747" lon="2.53153">
        <ele>236.1</ele>
        <time>2020-07-12T07:40:14Z</time>
      </trkpt>
      <trkpt lat="46.53741" lon="2.53152">
        <ele>235.4</ele>
        <time>2020-07-12T07:40:15Z</time>
      </trkpt>
      <trkpt lat="46.53735" lon="2.53151">
        <ele>234.9</ele>
        <time>2020-07-12T07:40:16Z</time>
      </trkpt>
      <trkpt lat="46.53729" lon="2.53151">
        <ele>234.5</ele>
        <time>2020-07-12T07:40:17Z</time>
      </trkpt>
      <trkpt lat="46.53722" lon="2.53151">
        <ele>234.3</ele>
        <time>2020-07-12T07:40:18Z</time>
      </trkpt>
      <trkpt lat="46.53716" lon="2.5315">
        <ele>234.1</ele>
        <time>2020-07-12T07:40:19Z</time>
      </trkpt>
      <trkpt lat="46.53709" lon="2.5315">
        <ele>233.7</ele>
        <time>2020-07-12T07:40:20Z</time>
      </trkpt>
      <trkpt lat="46.53702" lon="2.53151">
        <ele>233.3</ele>
        <time>2020-07-12T07:40:21Z</time>
      </trkpt>
      <trkpt lat="46.53695" lon="2.53152">
        <ele>232.3</ele>
        <time>2020-07-12T07:40:22Z</time>
      </trkpt>
      <trkpt lat="46.53687" lon="2.53153">
        <ele>231.6</ele>
        <time>2020-07-12T07:40:23Z</time>
      </trkpt>
      <trkpt lat="46.5368" lon="2.53155">
        <ele>231.1</ele>
        <time>2020-07-12T07:40:24Z</time>
      </trkpt>
      <trkpt lat="46.53671" lon="2.53157">
        <ele>230.1</ele>
        <time>2020-07-12T07:40:25Z</time>
      </trkpt>
      <trkpt lat="46.53663" lon="2.5316">
        <ele>229.4</ele>
        <time>2020-07-12T07:40:26Z</time>
      </trkpt>
      <trkpt lat="46.53654" lon="2.53164">
        <ele>228.8</ele>
        <time>2020-07-12T07:40:27Z</time>
      </trkpt>
      <trkpt lat="46.53645" lon="2.53167">
        <ele>228.4</ele>
        <time>2020-07-12T07:40:28Z</time>
      </trkpt>
      <trkpt lat="46.53635" lon="2.53169">
        <ele>228</ele>
        <time>2020-07-12T07:40:29Z</time>
      </trkpt>
      <trkpt lat="46.53626" lon="2.53172">
        <ele>227.5</ele>
        <time>2020-07-12T07:40:30Z</time>
      </trkpt>
      <trkpt lat="46.53617" lon="2.53175">
        <ele>227.1</ele>
        <time>2020-07-12T07:40:31Z</time>
      </trkpt>
      <trkpt lat="46.53608" lon="2.53178">
        <ele>226.5</ele>
        <time>2020-07-12T07:40:32Z</time>
      </trkpt>
      <trkpt lat="46.53599" lon="2.5318">
        <ele>226.1</ele>
        <time>2020-07-12T07:40:33Z</time>
      </trkpt>
      <trkpt lat="46.5359" lon="2.53182">
        <ele>225.5</ele>
        <time>2020-07-12T07:40:34Z</time>
      </trkpt>
      <trkpt lat="46.53581" lon="2.53184">
        <ele>225.1</ele>
        <time>2020-07-12T07:40:35Z</time>
      </trkpt>
      <trkpt lat="46.53572" lon="2.53186">
        <ele>224.8</ele>
        <time>2020-07-12T07:40:36Z</time>
      </trkpt>
      <trkpt lat="46.53565" lon="2.53189">
        <ele>224.1</ele>
        <time>2020-07-12T07:40:37Z</time>
      </trkpt>
      <trkpt lat="46.53558" lon="2.53191">
        <ele>223.6</ele>
        <time>2020-07-12T07:40:38Z</time>
      </trkpt>
      <trkpt lat="46.53552" lon="2.53193">
        <ele>223.5</ele>
        <time>2020-07-12T07:40:39Z</time>
      </trkpt>
      <trkpt lat="46.53546" lon="2.53196">
        <ele>223.5</ele>
        <time>2020-07-12T07:40:40Z</time>
      </trkpt>
      <trkpt lat="46.53541" lon="2.53197">
        <ele>223.6</ele>
        <time>2020-07-12T07:40:41Z</time>
      </trkpt>
      <trkpt lat="46.53534" lon="2.53199">
        <ele>223.8</ele>
        <time>2020-07-12T07:40:43Z</time>
      </trkpt>
      <trkpt lat="46.53527" lon="2.53204">
        <ele>223.7</ele>
        <time>2020-07-12T07:40:47Z</time>
      </trkpt>
      <trkpt lat="46.5352" lon="2.53209">
        <ele>222.6</ele>
        <time>2020-07-12T07:40:50Z</time>
      </trkpt>
      <trkpt lat="46.53512" lon="2.53214">
        <ele>224</ele>
        <time>2020-07-12T07:40:54Z</time>
      </trkpt>
      <trkpt lat="46.53506" lon="2.53218">
        <ele>224.4</ele>
        <time>2020-07-12T07:40:57Z</time>
      </trkpt>
      <trkpt lat="46.53499" lon="2.53221">
        <ele>224.8</ele>
        <time>2020-07-12T07:41:00Z</time>
      </trkpt>
      <trkpt lat="46.53492" lon="2.53225">
        <ele>225.1</ele>
        <time>2020-07-12T07:41:03Z</time>
      </trkpt>
      <trkpt lat="46.53485" lon="2.53228">
        <ele>225.6</ele>
        <time>2020-07-12T07:41:06Z</time>
      </trkpt>
      <trkpt lat="46.53477" lon="2.53232">
        <ele>226.2</ele>
        <time>2020-07-12T07:41:10Z</time>
      </trkpt>
      <trkpt lat="46.5347" lon="2.53239">
        <ele>226.1</ele>
        <time>2020-07-12T07:41:14Z</time>
      </trkpt>
      <trkpt lat="46.53464" lon="2.53243">
        <ele>226.2</ele>
        <time>2020-07-12T07:41:17Z</time>
      </trkpt>
      <trkpt lat="46.53457" lon="2.53248">
        <ele>226.5</ele>
        <time>2020-07-12T07:41:20Z</time>
      </trkpt>
      <trkpt lat="46.53451" lon="2.53253">
        <ele>224.7</ele>
        <time>2020-07-12T07:41:23Z</time>
      </trkpt>
      <trkpt lat="46.53443" lon="2.5326">
        <ele>224.6</ele>
        <time>2020-07-12T07:41:27Z</time>
      </trkpt>
      <trkpt lat="46.53437" lon="2.53266">
        <ele>222.2</ele>
        <time>2020-07-12T07:41:31Z</time>
      </trkpt>
      <trkpt lat="46.53434" lon="2.53267">
        <ele>221.4</ele>
        <time>2020-07-12T07:41:32Z</time>
      </trkpt>
      <trkpt lat="46.53423" lon="2.53276">
        <ele>217.8</ele>
        <time>2020-07-12T07:41:37Z</time>
      </trkpt>
      <trkpt lat="46.53414" lon="2.53276">
        <ele>216.9</ele>
        <time>2020-07-12T07:41:40Z</time>
      </trkpt>
      <trkpt lat="46.53406" lon="2.53276">
        <ele>216.7</ele>
        <time>2020-07-12T07:41:43Z</time>
      </trkpt>
      <trkpt lat="46.53398" lon="2.53274">
        <ele>216.6</ele>
        <time>2020-07-12T07:41:46Z</time>
      </trkpt>
      <trkpt lat="46.53389" lon="2.53272">
        <ele>216.3</ele>
        <time>2020-07-12T07:41:49Z</time>
      </trkpt>
      <trkpt lat="46.53383" lon="2.53273">
        <ele>215.3</ele>
        <time>2020-07-12T07:41:51Z</time>
      </trkpt>
      <trkpt lat="46.53374" lon="2.53273">
        <ele>214.1</ele>
        <time>2020-07-12T07:41:54Z</time>
      </trkpt>
      <trkpt lat="46.53366" lon="2.53272">
        <ele>213.1</ele>
        <time>2020-07-12T07:41:57Z</time>
      </trkpt>
      <trkpt lat="46.53358" lon="2.53273">
        <ele>211.8</ele>
        <time>2020-07-12T07:42:00Z</time>
      </trkpt>
      <trkpt lat="46.53351" lon="2.53272">
        <ele>210.2</ele>
        <time>2020-07-12T07:42:03Z</time>
      </trkpt>
      <trkpt lat="46.53344" lon="2.53273">
        <ele>209.4</ele>
        <time>2020-07-12T07:42:06Z</time>
      </trkpt>
      <trkpt lat="46.53337" lon="2.53273">
        <ele>208</ele>
        <time>2020-07-12T07:42:09Z</time>
      </trkpt>
      <trkpt lat="46.53328" lon="2.53272">
        <ele>206.7</ele>
        <time>2020-07-12T07:42:13Z</time>
      </trkpt>
      <trkpt lat="46.53326" lon="2.53271">
        <ele>206.7</ele>
        <time>2020-07-12T07:42:14Z</time>
      </trkpt>
      <trkpt lat="46.53318" lon="2.53272">
        <ele>206.2</ele>
        <time>2020-07-12T07:42:16Z</time>
      </trkpt>
      <trkpt lat="46.53311" lon="2.53269">
        <ele>204.7</ele>
        <time>2020-07-12T07:42:20Z</time>
      </trkpt>
      <trkpt lat="46.53303" lon="2.53267">
        <ele>202.8</ele>
        <time>2020-07-12T07:42:23Z</time>
      </trkpt>
      <trkpt lat="46.53296" lon="2.53267">
        <ele>200</ele>
        <time>2020-07-12T07:42:28Z</time>
      </trkpt>
      <trkpt lat="46.53287" lon="2.53268">
        <ele>199.7</ele>
        <time>2020-07-12T07:42:32Z</time>
      </trkpt>
      <trkpt lat="46.53285" lon="2.5327">
        <ele>199.6</ele>
        <time>2020-07-12T07:42:33Z</time>
      </trkpt>
      <trkpt lat="46.53277" lon="2.53279">
        <ele>198.8</ele>
        <time>2020-07-12T07:42:38Z</time>
      </trkpt>
      <trkpt lat="46.53269" lon="2.5328">
        <ele>197.8</ele>
        <time>2020-07-12T07:42:43Z</time>
      </trkpt>
      <trkpt lat="46.5326" lon="2.53279">
        <ele>197.6</ele>
        <time>2020-07-12T07:42:48Z</time>
      </trkpt>
      <trkpt lat="46.53253" lon="2.53278">
        <ele>197.9</ele>
        <time>2020-07-12T07:42:52Z</time>
      </trkpt>
      <trkpt lat="46.53245" lon="2.53276">
        <ele>198.8</ele>
        <time>2020-07-12T07:42:56Z</time>
      </trkpt>
      <trkpt lat="46.53238" lon="2.53273">
        <ele>199.3</ele>
        <time>2020-07-12T07:42:59Z</time>
      </trkpt>
      <trkpt lat="46.53231" lon="2.53271">
        <ele>199.1</ele>
        <time>2020-07-12T07:43:02Z</time>
      </trkpt>
      <trkpt lat="46.53223" lon="2.53269">
        <ele>199.2</ele>
        <time>2020-07-12T07:43:05Z</time>
      </trkpt>
      <trkpt lat="46.53216" lon="2.53267">
        <ele>199.4</ele>
        <time>2020-07-12T07:43:08Z</time>
      </trkpt>
      <trkpt lat="46.53209" lon="2.53265">
        <ele>199</ele>
        <time>2020-07-12T07:43:11Z</time>
      </trkpt>
      <trkpt lat="46.53203" lon="2.53263">
        <ele>198.7</ele>
        <time>2020-07-12T07:43:13Z</time>
      </trkpt>
      <trkpt lat="46.53194" lon="2.5326">
        <ele>198.7</ele>
        <time>2020-07-12T07:43:16Z</time>
      </trkpt>
      <trkpt lat="46.53186" lon="2.53258">
        <ele>198.8</ele>
        <time>2020-07-12T07:43:19Z</time>
      </trkpt>
      <trkpt lat="46.5318" lon="2.53257">
        <ele>198.2</ele>
        <time>2020-07-12T07:43:21Z</time>
      </trkpt>
      <trkpt lat="46.53172" lon="2.53256">
        <ele>198.2</ele>
        <time>2020-07-12T07:43:24Z</time>
      </trkpt>
      <trkpt lat="46.53165" lon="2.53255">
        <ele>198.6</ele>
        <time>2020-07-12T07:43:27Z</time>
      </trkpt>
      <trkpt lat="46.53158" lon="2.53254">
        <ele>198.4</ele>
        <time>2020-07-12T07:43:30Z</time>
      </trkpt>
      <trkpt lat="46.5315" lon="2.53251">
        <ele>198</ele>
        <time>2020-07-12T07:43:34Z</time>
      </trkpt>
      <trkpt lat="46.53147" lon="2.53251">
        <ele>198</ele>
        <time>2020-07-12T07:43:35Z</time>
      </trkpt>
      <trkpt lat="46.53135" lon="2.53247">
        <ele>198.1</ele>
        <time>2020-07-12T07:43:40Z</time>
      </trkpt>
      <trkpt lat="46.53128" lon="2.53246">
        <ele>198.4</ele>
        <time>2020-07-12T07:43:44Z</time>
      </trkpt>
      <trkpt lat="46.5312" lon="2.53245">
        <ele>199.1</ele>
        <time>2020-07-12T07:43:48Z</time>
      </trkpt>
      <trkpt lat="46.53112" lon="2.53243">
        <ele>199</ele>
        <time>2020-07-12T07:43:52Z</time>
      </trkpt>
      <trkpt lat="46.53105" lon="2.53242">
        <ele>199.4</ele>
        <time>2020-07-12T07:43:56Z</time>
      </trkpt>
      <trkpt lat="46.53096" lon="2.53243">
        <ele>200.3</ele>
        <time>2020-07-12T07:44:00Z</time>
      </trkpt>
      <trkpt lat="46.53089" lon="2.53242">
        <ele>201.2</ele>
        <time>2020-07-12T07:44:04Z</time>
      </trkpt>
      <trkpt lat="46.53082" lon="2.5324">
        <ele>203.1</ele>
        <time>2020-07-12T07:44:08Z</time>
      </trkpt>
      <trkpt lat="46.53074" lon="2.5324">
        <ele>204.5</ele>
        <time>2020-07-12T07:44:12Z</time>
      </trkpt>
      <trkpt lat="46.53066" lon="2.53243">
        <ele>205.8</ele>
        <time>2020-07-12T07:44:16Z</time>
      </trkpt>
      <trkpt lat="46.53058" lon="2.53245">
        <ele>207.9</ele>
        <time>2020-07-12T07:44:21Z</time>
      </trkpt>
      <trkpt lat="46.53051" lon="2.5325">
        <ele>208.9</ele>
        <time>2020-07-12T07:44:25Z</time>
      </trkpt>
      <trkpt lat="46.53042" lon="2.53254">
        <ele>210.5</ele>
        <time>2020-07-12T07:44:29Z</time>
      </trkpt>
      <trkpt lat="46.53034" lon="2.53258">
        <ele>211.4</ele>
        <time>2020-07-12T07:44:33Z</time>
      </trkpt>
      <trkpt lat="46.53027" lon="2.53262">
        <ele>212.4</ele>
        <time>2020-07-12T07:44:36Z</time>
      </trkpt>
      <trkpt lat="46.53025" lon="2.53264">
        <ele>212.4</ele>
        <time>2020-07-12T07:44:37Z</time>
      </trkpt>
      <trkpt lat="46.53013" lon="2.53272">
        <ele>212.2</ele>
        <time>2020-07-12T07:44:43Z</time>
      </trkpt>
      <trkpt lat="46.53005" lon="2.53277">
        <ele>214.1</ele>
        <time>2020-07-12T07:44:47Z</time>
      </trkpt>
      <trkpt lat="46.52999" lon="2.5328">
        <ele>214.1</ele>
        <time>2020-07-12T07:44:50Z</time>
      </trkpt>
      <trkpt lat="46.52991" lon="2.53284">
        <ele>215.8</ele>
        <time>2020-07-12T07:44:54Z</time>
      </trkpt>
      <trkpt lat="46.52983" lon="2.53288">
        <ele>216.5</ele>
        <time>2020-07-12T07:44:58Z</time>
      </trkpt>
      <trkpt lat="46.52976" lon="2.53293">
        <ele>217.9</ele>
        <time>2020-07-12T07:45:02Z</time>
      </trkpt>
      <trkpt lat="46.52968" lon="2.53298">
        <ele>218</ele>
        <time>2020-07-12T07:45:06Z</time>
      </trkpt>
      <trkpt lat="46.52961" lon="2.53303">
        <ele>218.4</ele>
        <time>2020-07-12T07:45:10Z</time>
      </trkpt>
      <trkpt lat="46.52953" lon="2.53308">
        <ele>219.7</ele>
        <time>2020-07-12T07:45:14Z</time>
      </trkpt>
      <trkpt lat="46.52946" lon="2.53313">
        <ele>220</ele>
        <time>2020-07-12T07:45:17Z</time>
      </trkpt>
      <trkpt lat="46.52939" lon="2.53318">
        <ele>220.3</ele>
        <time>2020-07-12T07:45:20Z</time>
      </trkpt>
      <trkpt lat="46.52932" lon="2.53322">
        <ele>219.8</ele>
        <time>2020-07-12T07:45:23Z</time>
      </trkpt>
      <trkpt lat="46.52925" lon="2.53327">
        <ele>219.6</ele>
        <time>2020-07-12T07:45:26Z</time>
      </trkpt>
      <trkpt lat="46.52917" lon="2.53332">
        <ele>220.4</ele>
        <time>2020-07-12T07:45:29Z</time>
      </trkpt>
      <trkpt lat="46.52909" lon="2.53336">
        <ele>221</ele>
        <time>2020-07-12T07:45:32Z</time>
      </trkpt>
      <trkpt lat="46.52901" lon="2.53341">
        <ele>220.6</ele>
        <time>2020-07-12T07:45:36Z</time>
      </trkpt>
      <trkpt lat="46.52893" lon="2.53347">
        <ele>220.7</ele>
        <time>2020-07-12T07:45:39Z</time>
      </trkpt>
      <trkpt lat="46.5289" lon="2.53348">
        <ele>220.6</ele>
        <time>2020-07-12T07:45:40Z</time>
      </trkpt>
      <trkpt lat="46.5288" lon="2.53355">
        <ele>220.4</ele>
        <time>2020-07-12T07:45:43Z</time>
      </trkpt>
      <trkpt lat="46.52875" lon="2.53359">
        <ele>220.3</ele>
        <time>2020-07-12T07:45:45Z</time>
      </trkpt>
      <trkpt lat="46.52869" lon="2.53363">
        <ele>220.1</ele>
        <time>2020-07-12T07:45:47Z</time>
      </trkpt>
      <trkpt lat="46.52863" lon="2.53367">
        <ele>220.6</ele>
        <time>2020-07-12T07:45:49Z</time>
      </trkpt>
      <trkpt lat="46.52855" lon="2.53372">
        <ele>221.3</ele>
        <time>2020-07-12T07:45:52Z</time>
      </trkpt>
      <trkpt lat="46.5285" lon="2.53376">
        <ele>221.6</ele>
        <time>2020-07-12T07:45:54Z</time>
      </trkpt>
      <trkpt lat="46.52844" lon="2.5338">
        <ele>221.9</ele>
        <time>2020-07-12T07:45:56Z</time>
      </trkpt>
      <trkpt lat="46.52838" lon="2.53384">
        <ele>221</ele>
        <time>2020-07-12T07:45:58Z</time>
      </trkpt>
      <trkpt lat="46.52833" lon="2.53388">
        <ele>221.5</ele>
        <time>2020-07-12T07:46:00Z</time>
      </trkpt>
      <trkpt lat="46.52825" lon="2.53393">
        <ele>222</ele>
        <time>2020-07-12T07:46:03Z</time>
      </trkpt>
      <trkpt lat="46.52819" lon="2.53397">
        <ele>221.8</ele>
        <time>2020-07-12T07:46:05Z</time>
      </trkpt>
      <trkpt lat="46.52813" lon="2.53401">
        <ele>221.8</ele>
        <time>2020-07-12T07:46:07Z</time>
      </trkpt>
      <trkpt lat="46.52808" lon="2.53404">
        <ele>221.7</ele>
        <time>2020-07-12T07:46:09Z</time>
      </trkpt>
      <trkpt lat="46.52802" lon="2.53408">
        <ele>221.7</ele>
        <time>2020-07-12T07:46:11Z</time>
      </trkpt>
      <trkpt lat="46.52797" lon="2.53411">
        <ele>221.7</ele>
        <time>2020-07-12T07:46:13Z</time>
      </trkpt>
      <trkpt lat="46.52789" lon="2.53416">
        <ele>222.1</ele>
        <time>2020-07-12T07:46:16Z</time>
      </trkpt>
      <trkpt lat="46.52783" lon="2.53422">
        <ele>223.1</ele>
        <time>2020-07-12T07:46:19Z</time>
      </trkpt>
      <trkpt lat="46.52778" lon="2.5343">
        <ele>223.2</ele>
        <time>2020-07-12T07:46:22Z</time>
      </trkpt>
      <trkpt lat="46.52773" lon="2.53441">
        <ele>223.6</ele>
        <time>2020-07-12T07:46:33Z</time>
      </trkpt>
      <trkpt lat="46.52765" lon="2.53443">
        <ele>223.2</ele>
        <time>2020-07-12T07:46:37Z</time>
      </trkpt>
      <trkpt lat="46.5276" lon="2.53442">
        <ele>223.5</ele>
        <time>2020-07-12T07:46:39Z</time>
      </trkpt>
      <trkpt lat="46.52753" lon="2.53442">
        <ele>223.5</ele>
        <time>2020-07-12T07:46:41Z</time>
      </trkpt>
      <trkpt lat="46.5275" lon="2.53442">
        <ele>223.6</ele>
        <time>2020-07-12T07:46:42Z</time>
      </trkpt>
      <trkpt lat="46.52739" lon="2.53445">
        <ele>223.9</ele>
        <time>2020-07-12T07:46:45Z</time>
      </trkpt>
      <trkpt lat="46.5273" lon="2.53446">
        <ele>224.1</ele>
        <time>2020-07-12T07:46:47Z</time>
      </trkpt>
      <trkpt lat="46.52722" lon="2.53449">
        <ele>223.9</ele>
        <time>2020-07-12T07:46:49Z</time>
      </trkpt>
      <trkpt lat="46.52714" lon="2.53451">
        <ele>223.5</ele>
        <time>2020-07-12T07:46:51Z</time>
      </trkpt>
      <trkpt lat="46.52705" lon="2.53454">
        <ele>224.4</ele>
        <time>2020-07-12T07:46:53Z</time>
      </trkpt>
      <trkpt lat="46.52697" lon="2.53456">
        <ele>224.4</ele>
        <time>2020-07-12T07:46:55Z</time>
      </trkpt>
      <trkpt lat="46.52689" lon="2.53458">
        <ele>224.3</ele>
        <time>2020-07-12T07:46:57Z</time>
      </trkpt>
      <trkpt lat="46.52681" lon="2.53461">
        <ele>224.3</ele>
        <time>2020-07-12T07:46:59Z</time>
      </trkpt>
      <trkpt lat="46.52673" lon="2.53464">
        <ele>224.6</ele>
        <time>2020-07-12T07:47:01Z</time>
      </trkpt>
      <trkpt lat="46.52665" lon="2.53468">
        <ele>224.9</ele>
        <time>2020-07-12T07:47:03Z</time>
      </trkpt>
      <trkpt lat="46.52658" lon="2.53471">
        <ele>224.9</ele>
        <time>2020-07-12T07:47:05Z</time>
      </trkpt>
      <trkpt lat="46.52651" lon="2.53476">
        <ele>225.7</ele>
        <time>2020-07-12T07:47:07Z</time>
      </trkpt>
      <trkpt lat="46.52644" lon="2.5348">
        <ele>225.4</ele>
        <time>2020-07-12T07:47:09Z</time>
      </trkpt>
      <trkpt lat="46.52637" lon="2.53484">
        <ele>225.5</ele>
        <time>2020-07-12T07:47:11Z</time>
      </trkpt>
      <trkpt lat="46.52629" lon="2.53488">
        <ele>225.8</ele>
        <time>2020-07-12T07:47:13Z</time>
      </trkpt>
      <trkpt lat="46.52622" lon="2.53492">
        <ele>226.2</ele>
        <time>2020-07-12T07:47:15Z</time>
      </trkpt>
      <trkpt lat="46.52615" lon="2.53496">
        <ele>226.5</ele>
        <time>2020-07-12T07:47:17Z</time>
      </trkpt>
      <trkpt lat="46.52608" lon="2.535">
        <ele>226.8</ele>
        <time>2020-07-12T07:47:19Z</time>
      </trkpt>
      <trkpt lat="46.52602" lon="2.53503">
        <ele>227.7</ele>
        <time>2020-07-12T07:47:21Z</time>
      </trkpt>
      <trkpt lat="46.52595" lon="2.53507">
        <ele>228.3</ele>
        <time>2020-07-12T07:47:23Z</time>
      </trkpt>
      <trkpt lat="46.52589" lon="2.5351">
        <ele>229</ele>
        <time>2020-07-12T07:47:25Z</time>
      </trkpt>
      <trkpt lat="46.52583" lon="2.53514">
        <ele>229.7</ele>
        <time>2020-07-12T07:47:27Z</time>
      </trkpt>
      <trkpt lat="46.52576" lon="2.53517">
        <ele>230.1</ele>
        <time>2020-07-12T07:47:29Z</time>
      </trkpt>
      <trkpt lat="46.5257" lon="2.53521">
        <ele>231.3</ele>
        <time>2020-07-12T07:47:31Z</time>
      </trkpt>
      <trkpt lat="46.52563" lon="2.53525">
        <ele>231.8</ele>
        <time>2020-07-12T07:47:33Z</time>
      </trkpt>
      <trkpt lat="46.52557" lon="2.53528">
        <ele>232.4</ele>
        <time>2020-07-12T07:47:35Z</time>
      </trkpt>
      <trkpt lat="46.52551" lon="2.53531">
        <ele>232.6</ele>
        <time>2020-07-12T07:47:37Z</time>
      </trkpt>
      <trkpt lat="46.52546" lon="2.53534">
        <ele>233.1</ele>
        <time>2020-07-12T07:47:39Z</time>
      </trkpt>
      <trkpt lat="46.5254" lon="2.53537">
        <ele>233.5</ele>
        <time>2020-07-12T07:47:41Z</time>
      </trkpt>
      <trkpt lat="46.52533" lon="2.5354">
        <ele>233.5</ele>
        <time>2020-07-12T07:47:43Z</time>
      </trkpt>
      <trkpt lat="46.5253" lon="2.53542">
        <ele>233.9</ele>
        <time>2020-07-12T07:47:44Z</time>
      </trkpt>
      <trkpt lat="46.52521" lon="2.53547">
        <ele>234.4</ele>
        <time>2020-07-12T07:47:47Z</time>
      </trkpt>
      <trkpt lat="46.52515" lon="2.5355">
        <ele>234.4</ele>
        <time>2020-07-12T07:47:49Z</time>
      </trkpt>
      <trkpt lat="46.52508" lon="2.53554">
        <ele>234.8</ele>
        <time>2020-07-12T07:47:51Z</time>
      </trkpt>
      <trkpt lat="46.52502" lon="2.53558">
        <ele>235.8</ele>
        <time>2020-07-12T07:47:53Z</time>
      </trkpt>
      <trkpt lat="46.52496" lon="2.53562">
        <ele>236.6</ele>
        <time>2020-07-12T07:47:55Z</time>
      </trkpt>
      <trkpt lat="46.5249" lon="2.53565">
        <ele>236.5</ele>
        <time>2020-07-12T07:47:57Z</time>
      </trkpt>
      <trkpt lat="46.52484" lon="2.53569">
        <ele>236.8</ele>
        <time>2020-07-12T07:47:59Z</time>
      </trkpt>
      <trkpt lat="46.52477" lon="2.53572">
        <ele>236.7</ele>
        <time>2020-07-12T07:48:01Z</time>
      </trkpt>
      <trkpt lat="46.52471" lon="2.53576">
        <ele>236.9</ele>
        <time>2020-07-12T07:48:03Z</time>
      </trkpt>
      <trkpt lat="46.52466" lon="2.53579">
        <ele>237.3</ele>
        <time>2020-07-12T07:48:05Z</time>
      </trkpt>
      <trkpt lat="46.52459" lon="2.53583">
        <ele>237.6</ele>
        <time>2020-07-12T07:48:07Z</time>
      </trkpt>
      <trkpt lat="46.52453" lon="2.53587">
        <ele>238.4</ele>
        <time>2020-07-12T07:48:09Z</time>
      </trkpt>
      <trkpt lat="46.52444" lon="2.53591">
        <ele>240</ele>
        <time>2020-07-12T07:48:12Z</time>
      </trkpt>
      <trkpt lat="46.52439" lon="2.53594">
        <ele>241.1</ele>
        <time>2020-07-12T07:48:14Z</time>
      </trkpt>
      <trkpt lat="46.52432" lon="2.53598">
        <ele>241.9</ele>
        <time>2020-07-12T07:48:16Z</time>
      </trkpt>
      <trkpt lat="46.52427" lon="2.53602">
        <ele>241.9</ele>
        <time>2020-07-12T07:48:18Z</time>
      </trkpt>
      <trkpt lat="46.5242" lon="2.53605">
        <ele>242.7</ele>
        <time>2020-07-12T07:48:20Z</time>
      </trkpt>
      <trkpt lat="46.52413" lon="2.53609">
        <ele>243.2</ele>
        <time>2020-07-12T07:48:22Z</time>
      </trkpt>
      <trkpt lat="46.52406" lon="2.53613">
        <ele>243.3</ele>
        <time>2020-07-12T07:48:24Z</time>
      </trkpt>
      <trkpt lat="46.52398" lon="2.53618">
        <ele>243.1</ele>
        <time>2020-07-12T07:48:27Z</time>
      </trkpt>
      <trkpt lat="46.52393" lon="2.53622">
        <ele>243.6</ele>
        <time>2020-07-12T07:48:29Z</time>
      </trkpt>
      <trkpt lat="46.52387" lon="2.53627">
        <ele>243.7</ele>
        <time>2020-07-12T07:48:31Z</time>
      </trkpt>
      <trkpt lat="46.52381" lon="2.53633">
        <ele>243.4</ele>
        <time>2020-07-12T07:48:33Z</time>
      </trkpt>
      <trkpt lat="46.52375" lon="2.53641">
        <ele>243.5</ele>
        <time>2020-07-12T07:48:35Z</time>
      </trkpt>
      <trkpt lat="46.52369" lon="2.53649">
        <ele>243.8</ele>
        <time>2020-07-12T07:48:37Z</time>
      </trkpt>
      <trkpt lat="46.52362" lon="2.53658">
        <ele>243.9</ele>
        <time>2020-07-12T07:48:39Z</time>
      </trkpt>
      <trkpt lat="46.52356" lon="2.53667">
        <ele>243.6</ele>
        <time>2020-07-12T07:48:41Z</time>
      </trkpt>
      <trkpt lat="46.52353" lon="2.53672">
        <ele>243.3</ele>
        <time>2020-07-12T07:48:42Z</time>
      </trkpt>
      <trkpt lat="46.5235" lon="2.53676">
        <ele>243.5</ele>
        <time>2020-07-12T07:48:43Z</time>
      </trkpt>
      <trkpt lat="46.52347" lon="2.53681">
        <ele>243.7</ele>
        <time>2020-07-12T07:48:44Z</time>
      </trkpt>
      <trkpt lat="46.52344" lon="2.53686">
        <ele>243.5</ele>
        <time>2020-07-12T07:48:45Z</time>
      </trkpt>
      <trkpt lat="46.5234" lon="2.5369">
        <ele>243.3</ele>
        <time>2020-07-12T07:48:46Z</time>
      </trkpt>
      <trkpt lat="46.52337" lon="2.53695">
        <ele>243.1</ele>
        <time>2020-07-12T07:48:47Z</time>
      </trkpt>
      <trkpt lat="46.52334" lon="2.537">
        <ele>243</ele>
        <time>2020-07-12T07:48:48Z</time>
      </trkpt>
      <trkpt lat="46.52328" lon="2.53709">
        <ele>242.9</ele>
        <time>2020-07-12T07:48:50Z</time>
      </trkpt>
      <trkpt lat="46.52323" lon="2.53718">
        <ele>242.8</ele>
        <time>2020-07-12T07:48:52Z</time>
      </trkpt>
      <trkpt lat="46.52316" lon="2.53724">
        <ele>242.7</ele>
        <time>2020-07-12T07:48:54Z</time>
      </trkpt>
      <trkpt lat="46.52309" lon="2.53721">
        <ele>242</ele>
        <time>2020-07-12T07:48:56Z</time>
      </trkpt>
      <trkpt lat="46.52304" lon="2.53715">
        <ele>241.6</ele>
        <time>2020-07-12T07:48:58Z</time>
      </trkpt>
      <trkpt lat="46.52298" lon="2.53709">
        <ele>241.1</ele>
        <time>2020-07-12T07:49:00Z</time>
      </trkpt>
      <trkpt lat="46.52292" lon="2.53703">
        <ele>241</ele>
        <time>2020-07-12T07:49:02Z</time>
      </trkpt>
      <trkpt lat="46.52286" lon="2.53696">
        <ele>241.7</ele>
        <time>2020-07-12T07:49:04Z</time>
      </trkpt>
      <trkpt lat="46.52281" lon="2.53689">
        <ele>242.5</ele>
        <time>2020-07-12T07:49:06Z</time>
      </trkpt>
      <trkpt lat="46.52275" lon="2.53683">
        <ele>243.3</ele>
        <time>2020-07-12T07:49:08Z</time>
      </trkpt>
      <trkpt lat="46.52268" lon="2.53677">
        <ele>243.6</ele>
        <time>2020-07-12T07:49:10Z</time>
      </trkpt>
      <trkpt lat="46.52263" lon="2.53671">
        <ele>243.7</ele>
        <time>2020-07-12T07:49:12Z</time>
      </trkpt>
      <trkpt lat="46.52257" lon="2.53664">
        <ele>243.6</ele>
        <time>2020-07-12T07:49:14Z</time>
      </trkpt>
      <trkpt lat="46.52252" lon="2.53657">
        <ele>243.7</ele>
        <time>2020-07-12T07:49:16Z</time>
      </trkpt>
      <trkpt lat="46.52246" lon="2.53651">
        <ele>244</ele>
        <time>2020-07-12T07:49:18Z</time>
      </trkpt>
      <trkpt lat="46.5224" lon="2.53644">
        <ele>244.7</ele>
        <time>2020-07-12T07:49:20Z</time>
      </trkpt>
      <trkpt lat="46.52234" lon="2.53638">
        <ele>244.7</ele>
        <time>2020-07-12T07:49:22Z</time>
      </trkpt>
      <trkpt lat="46.52229" lon="2.53631">
        <ele>244.1</ele>
        <time>2020-07-12T07:49:24Z</time>
      </trkpt>
      <trkpt lat="46.52223" lon="2.53624">
        <ele>244.3</ele>
        <time>2020-07-12T07:49:26Z</time>
      </trkpt>
      <trkpt lat="46.52219" lon="2.53615">
        <ele>244.6</ele>
        <time>2020-07-12T07:49:28Z</time>
      </trkpt>
      <trkpt lat="46.52215" lon="2.53607">
        <ele>244.6</ele>
        <time>2020-07-12T07:49:30Z</time>
      </trkpt>
      <trkpt lat="46.52211" lon="2.53598">
        <ele>244.8</ele>
        <time>2020-07-12T07:49:32Z</time>
      </trkpt>
      <trkpt lat="46.52207" lon="2.5359">
        <ele>244.4</ele>
        <time>2020-07-12T07:49:34Z</time>
      </trkpt>
      <trkpt lat="46.52204" lon="2.53582">
        <ele>244.7</ele>
        <time>2020-07-12T07:49:36Z</time>
      </trkpt>
      <trkpt lat="46.52199" lon="2.53573">
        <ele>245</ele>
        <time>2020-07-12T07:49:38Z</time>
      </trkpt>
      <trkpt lat="46.52195" lon="2.53565">
        <ele>245.5</ele>
        <time>2020-07-12T07:49:40Z</time>
      </trkpt>
      <trkpt lat="46.52192" lon="2.53555">
        <ele>246</ele>
        <time>2020-07-12T07:49:42Z</time>
      </trkpt>
      <trkpt lat="46.5219" lon="2.53545">
        <ele>246.3</ele>
        <time>2020-07-12T07:49:44Z</time>
      </trkpt>
      <trkpt lat="46.52187" lon="2.53535">
        <ele>245.9</ele>
        <time>2020-07-12T07:49:46Z</time>
      </trkpt>
      <trkpt lat="46.52185" lon="2.5353">
        <ele>245.9</ele>
        <time>2020-07-12T07:49:47Z</time>
      </trkpt>
      <trkpt lat="46.52179" lon="2.53514">
        <ele>246</ele>
        <time>2020-07-12T07:49:50Z</time>
      </trkpt>
      <trkpt lat="46.52176" lon="2.53505">
        <ele>246.1</ele>
        <time>2020-07-12T07:49:52Z</time>
      </trkpt>
      <trkpt lat="46.52173" lon="2.53495">
        <ele>246.8</ele>
        <time>2020-07-12T07:49:54Z</time>
      </trkpt>
      <trkpt lat="46.52169" lon="2.53486">
        <ele>247.5</ele>
        <time>2020-07-12T07:49:56Z</time>
      </trkpt>
      <trkpt lat="46.52166" lon="2.53477">
        <ele>246.5</ele>
        <time>2020-07-12T07:49:58Z</time>
      </trkpt>
      <trkpt lat="46.52163" lon="2.53468">
        <ele>246.8</ele>
        <time>2020-07-12T07:50:00Z</time>
      </trkpt>
      <trkpt lat="46.5216" lon="2.5346">
        <ele>246.7</ele>
        <time>2020-07-12T07:50:02Z</time>
      </trkpt>
      <trkpt lat="46.52158" lon="2.53451">
        <ele>246.7</ele>
        <time>2020-07-12T07:50:04Z</time>
      </trkpt>
      <trkpt lat="46.52155" lon="2.53443">
        <ele>246.7</ele>
        <time>2020-07-12T07:50:06Z</time>
      </trkpt>
      <trkpt lat="46.52151" lon="2.53432">
        <ele>247.1</ele>
        <time>2020-07-12T07:50:09Z</time>
      </trkpt>
      <trkpt lat="46.52148" lon="2.53424">
        <ele>247.3</ele>
        <time>2020-07-12T07:50:11Z</time>
      </trkpt>
      <trkpt lat="46.52145" lon="2.53416">
        <ele>247.5</ele>
        <time>2020-07-12T07:50:13Z</time>
      </trkpt>
      <trkpt lat="46.52141" lon="2.53408">
        <ele>247.8</ele>
        <time>2020-07-12T07:50:15Z</time>
      </trkpt>
      <trkpt lat="46.52138" lon="2.53399">
        <ele>247.9</ele>
        <time>2020-07-12T07:50:17Z</time>
      </trkpt>
      <trkpt lat="46.52135" lon="2.53391">
        <ele>248.2</ele>
        <time>2020-07-12T07:50:19Z</time>
      </trkpt>
      <trkpt lat="46.52131" lon="2.53383">
        <ele>248</ele>
        <time>2020-07-12T07:50:21Z</time>
      </trkpt>
      <trkpt lat="46.52128" lon="2.53375">
        <ele>248</ele>
        <time>2020-07-12T07:50:23Z</time>
      </trkpt>
      <trkpt lat="46.52125" lon="2.53366">
        <ele>248.1</ele>
        <time>2020-07-12T07:50:25Z</time>
      </trkpt>
      <trkpt lat="46.52122" lon="2.53354">
        <ele>247.8</ele>
        <time>2020-07-12T07:50:43Z</time>
      </trkpt>
      <trkpt lat="46.52118" lon="2.53343">
        <ele>247.1</ele>
        <time>2020-07-12T07:50:59Z</time>
      </trkpt>
      <trkpt lat="46.52117" lon="2.5334">
        <ele>247</ele>
        <time>2020-07-12T07:51:00Z</time>
      </trkpt>
      <trkpt lat="46.5211" lon="2.53323">
        <ele>248.1</ele>
        <time>2020-07-12T07:51:05Z</time>
      </trkpt>
      <trkpt lat="46.52106" lon="2.53312">
        <ele>248.3</ele>
        <time>2020-07-12T07:51:08Z</time>
      </trkpt>
      <trkpt lat="46.52101" lon="2.53301">
        <ele>249</ele>
        <time>2020-07-12T07:51:11Z</time>
      </trkpt>
      <trkpt lat="46.52098" lon="2.53294">
        <ele>249.2</ele>
        <time>2020-07-12T07:51:13Z</time>
      </trkpt>
      <trkpt lat="46.52093" lon="2.53283">
        <ele>249.6</ele>
        <time>2020-07-12T07:51:16Z</time>
      </trkpt>
      <trkpt lat="46.52089" lon="2.53276">
        <ele>249</ele>
        <time>2020-07-12T07:51:18Z</time>
      </trkpt>
      <trkpt lat="46.52085" lon="2.53269">
        <ele>248.9</ele>
        <time>2020-07-12T07:51:20Z</time>
      </trkpt>
      <trkpt lat="46.5208" lon="2.53262">
        <ele>249.4</ele>
        <time>2020-07-12T07:51:22Z</time>
      </trkpt>
      <trkpt lat="46.52076" lon="2.53255">
        <ele>249.9</ele>
        <time>2020-07-12T07:51:24Z</time>
      </trkpt>
      <trkpt lat="46.52072" lon="2.53247">
        <ele>249</ele>
        <time>2020-07-12T07:51:26Z</time>
      </trkpt>
      <trkpt lat="46.52067" lon="2.5324">
        <ele>248.7</ele>
        <time>2020-07-12T07:51:28Z</time>
      </trkpt>
      <trkpt lat="46.52063" lon="2.53233">
        <ele>248.6</ele>
        <time>2020-07-12T07:51:30Z</time>
      </trkpt>
      <trkpt lat="46.52058" lon="2.53226">
        <ele>249</ele>
        <time>2020-07-12T07:51:32Z</time>
      </trkpt>
      <trkpt lat="46.52052" lon="2.5322">
        <ele>249.3</ele>
        <time>2020-07-12T07:51:34Z</time>
      </trkpt>
      <trkpt lat="46.52047" lon="2.53214">
        <ele>249.9</ele>
        <time>2020-07-12T07:51:36Z</time>
      </trkpt>
      <trkpt lat="46.52042" lon="2.53207">
        <ele>250.7</ele>
        <time>2020-07-12T07:51:38Z</time>
      </trkpt>
      <trkpt lat="46.52037" lon="2.53199">
        <ele>250.2</ele>
        <time>2020-07-12T07:51:40Z</time>
      </trkpt>
      <trkpt lat="46.52032" lon="2.53191">
        <ele>250.4</ele>
        <time>2020-07-12T07:51:42Z</time>
      </trkpt>
      <trkpt lat="46.52027" lon="2.53184">
        <ele>250.5</ele>
        <time>2020-07-12T07:51:44Z</time>
      </trkpt>
      <trkpt lat="46.52022" lon="2.53176">
        <ele>250.5</ele>
        <time>2020-07-12T07:51:46Z</time>
      </trkpt>
      <trkpt lat="46.52016" lon="2.53168">
        <ele>250.4</ele>
        <time>2020-07-12T07:51:48Z</time>
      </trkpt>
      <trkpt lat="46.52011" lon="2.5316">
        <ele>250.2</ele>
        <time>2020-07-12T07:51:50Z</time>
      </trkpt>
      <trkpt lat="46.52007" lon="2.53151">
        <ele>250.3</ele>
        <time>2020-07-12T07:51:52Z</time>
      </trkpt>
      <trkpt lat="46.52002" lon="2.53142">
        <ele>250.7</ele>
        <time>2020-07-12T07:51:54Z</time>
      </trkpt>
      <trkpt lat="46.51998" lon="2.53133">
        <ele>250.6</ele>
        <time>2020-07-12T07:51:56Z</time>
      </trkpt>
      <trkpt lat="46.51993" lon="2.53125">
        <ele>250.7</ele>
        <time>2020-07-12T07:51:58Z</time>
      </trkpt>
      <trkpt lat="46.51989" lon="2.53118">
        <ele>251.1</ele>
        <time>2020-07-12T07:52:00Z</time>
      </trkpt>
      <trkpt lat="46.51987" lon="2.53114">
        <ele>251.3</ele>
        <time>2020-07-12T07:52:01Z</time>
      </trkpt>
      <trkpt lat="46.5198" lon="2.53102">
        <ele>251.1</ele>
        <time>2020-07-12T07:52:04Z</time>
      </trkpt>
      <trkpt lat="46.51975" lon="2.53094">
        <ele>251.1</ele>
        <time>2020-07-12T07:52:06Z</time>
      </trkpt>
      <trkpt lat="46.51969" lon="2.53087">
        <ele>251.3</ele>
        <time>2020-07-12T07:52:08Z</time>
      </trkpt>
      <trkpt lat="46.51964" lon="2.5308">
        <ele>251.7</ele>
        <time>2020-07-12T07:52:10Z</time>
      </trkpt>
      <trkpt lat="46.51959" lon="2.53073">
        <ele>251.9</ele>
        <time>2020-07-12T07:52:12Z</time>
      </trkpt>
      <trkpt lat="46.51953" lon="2.53066">
        <ele>252.1</ele>
        <time>2020-07-12T07:52:14Z</time>
      </trkpt>
      <trkpt lat="46.51948" lon="2.53059">
        <ele>252.5</ele>
        <time>2020-07-12T07:52:16Z</time>
      </trkpt>
      <trkpt lat="46.51941" lon="2.53052">
        <ele>252.1</ele>
        <time>2020-07-12T07:52:18Z</time>
      </trkpt>
      <trkpt lat="46.51935" lon="2.53044">
        <ele>252.3</ele>
        <time>2020-07-12T07:52:20Z</time>
      </trkpt>
      <trkpt lat="46.51929" lon="2.53037">
        <ele>252.2</ele>
        <time>2020-07-12T07:52:22Z</time>
      </trkpt>
      <trkpt lat="46.51923" lon="2.53029">
        <ele>252</ele>
        <time>2020-07-12T07:52:24Z</time>
      </trkpt>
      <trkpt lat="46.51918" lon="2.53022">
        <ele>252.3</ele>
        <time>2020-07-12T07:52:26Z</time>
      </trkpt>
      <trkpt lat="46.51913" lon="2.53015">
        <ele>252.9</ele>
        <time>2020-07-12T07:52:28Z</time>
      </trkpt>
      <trkpt lat="46.51907" lon="2.53007">
        <ele>252.4</ele>
        <time>2020-07-12T07:52:30Z</time>
      </trkpt>
      <trkpt lat="46.51902" lon="2.53">
        <ele>252.3</ele>
        <time>2020-07-12T07:52:32Z</time>
      </trkpt>
      <trkpt lat="46.51896" lon="2.52992">
        <ele>252.5</ele>
        <time>2020-07-12T07:52:34Z</time>
      </trkpt>
      <trkpt lat="46.5189" lon="2.52985">
        <ele>252.6</ele>
        <time>2020-07-12T07:52:36Z</time>
      </trkpt>
      <trkpt lat="46.51885" lon="2.52978">
        <ele>252.8</ele>
        <time>2020-07-12T07:52:38Z</time>
      </trkpt>
      <trkpt lat="46.51879" lon="2.52972">
        <ele>253</ele>
        <time>2020-07-12T07:52:40Z</time>
      </trkpt>
      <trkpt lat="46.51873" lon="2.52966">
        <ele>253</ele>
        <time>2020-07-12T07:52:42Z</time>
      </trkpt>
      <trkpt lat="46.51866" lon="2.5296">
        <ele>252.6</ele>
        <time>2020-07-12T07:52:44Z</time>
      </trkpt>
      <trkpt lat="46.5186" lon="2.52955">
        <ele>252.3</ele>
        <time>2020-07-12T07:52:46Z</time>
      </trkpt>
      <trkpt lat="46.51852" lon="2.52951">
        <ele>253</ele>
        <time>2020-07-12T07:52:48Z</time>
      </trkpt>
      <trkpt lat="46.51845" lon="2.52947">
        <ele>252.9</ele>
        <time>2020-07-12T07:52:50Z</time>
      </trkpt>
      <trkpt lat="46.51838" lon="2.52944">
        <ele>252.9</ele>
        <time>2020-07-12T07:52:52Z</time>
      </trkpt>
      <trkpt lat="46.51831" lon="2.52941">
        <ele>253.1</ele>
        <time>2020-07-12T07:52:54Z</time>
      </trkpt>
      <trkpt lat="46.51824" lon="2.52938">
        <ele>253.3</ele>
        <time>2020-07-12T07:52:56Z</time>
      </trkpt>
      <trkpt lat="46.51817" lon="2.52936">
        <ele>252.6</ele>
        <time>2020-07-12T07:52:58Z</time>
      </trkpt>
      <trkpt lat="46.5181" lon="2.52934">
        <ele>253</ele>
        <time>2020-07-12T07:53:00Z</time>
      </trkpt>
      <trkpt lat="46.51803" lon="2.52931">
        <ele>253.7</ele>
        <time>2020-07-12T07:53:02Z</time>
      </trkpt>
      <trkpt lat="46.518" lon="2.5293">
        <ele>254.1</ele>
        <time>2020-07-12T07:53:03Z</time>
      </trkpt>
      <trkpt lat="46.5179" lon="2.52928">
        <ele>253.9</ele>
        <time>2020-07-12T07:53:06Z</time>
      </trkpt>
      <trkpt lat="46.51784" lon="2.52927">
        <ele>253.1</ele>
        <time>2020-07-12T07:53:08Z</time>
      </trkpt>
      <trkpt lat="46.51775" lon="2.52926">
        <ele>254.5</ele>
        <time>2020-07-12T07:53:11Z</time>
      </trkpt>
      <trkpt lat="46.51769" lon="2.52926">
        <ele>254.7</ele>
        <time>2020-07-12T07:53:13Z</time>
      </trkpt>
      <trkpt lat="46.51762" lon="2.52925">
        <ele>254.4</ele>
        <time>2020-07-12T07:53:15Z</time>
      </trkpt>
      <trkpt lat="46.51755" lon="2.52926">
        <ele>255</ele>
        <time>2020-07-12T07:53:17Z</time>
      </trkpt>
      <trkpt lat="46.51749" lon="2.52927">
        <ele>254.8</ele>
        <time>2020-07-12T07:53:19Z</time>
      </trkpt>
      <trkpt lat="46.5174" lon="2.52928">
        <ele>254.7</ele>
        <time>2020-07-12T07:53:22Z</time>
      </trkpt>
      <trkpt lat="46.51734" lon="2.52928">
        <ele>254.9</ele>
        <time>2020-07-12T07:53:24Z</time>
      </trkpt>
      <trkpt lat="46.51728" lon="2.52928">
        <ele>254.8</ele>
        <time>2020-07-12T07:53:26Z</time>
      </trkpt>
      <trkpt lat="46.51722" lon="2.52928">
        <ele>254.5</ele>
        <time>2020-07-12T07:53:28Z</time>
      </trkpt>
      <trkpt lat="46.51714" lon="2.52928">
        <ele>254.8</ele>
        <time>2020-07-12T07:53:31Z</time>
      </trkpt>
      <trkpt lat="46.51705" lon="2.52928">
        <ele>254.8</ele>
        <time>2020-07-12T07:53:34Z</time>
      </trkpt>
      <trkpt lat="46.51696" lon="2.52928">
        <ele>255.3</ele>
        <time>2020-07-12T07:53:37Z</time>
      </trkpt>
      <trkpt lat="46.51689" lon="2.52928">
        <ele>255.2</ele>
        <time>2020-07-12T07:53:39Z</time>
      </trkpt>
      <trkpt lat="46.51683" lon="2.52928">
        <ele>255.1</ele>
        <time>2020-07-12T07:53:41Z</time>
      </trkpt>
      <trkpt lat="46.51677" lon="2.52927">
        <ele>254.8</ele>
        <time>2020-07-12T07:53:43Z</time>
      </trkpt>
      <trkpt lat="46.5167" lon="2.52926">
        <ele>255.8</ele>
        <time>2020-07-12T07:53:45Z</time>
      </trkpt>
      <trkpt lat="46.51663" lon="2.52924">
        <ele>256.4</ele>
        <time>2020-07-12T07:53:47Z</time>
      </trkpt>
      <trkpt lat="46.51656" lon="2.52923">
        <ele>256.5</ele>
        <time>2020-07-12T07:53:49Z</time>
      </trkpt>
      <trkpt lat="46.51649" lon="2.52921">
        <ele>256.5</ele>
        <time>2020-07-12T07:53:51Z</time>
      </trkpt>
      <trkpt lat="46.51642" lon="2.52921">
        <ele>256.1</ele>
        <time>2020-07-12T07:53:53Z</time>
      </trkpt>
      <trkpt lat="46.51636" lon="2.5292">
        <ele>255.8</ele>
        <time>2020-07-12T07:53:55Z</time>
      </trkpt>
      <trkpt lat="46.51629" lon="2.52919">
        <ele>255.8</ele>
        <time>2020-07-12T07:53:57Z</time>
      </trkpt>
      <trkpt lat="46.51623" lon="2.52919">
        <ele>255.6</ele>
        <time>2020-07-12T07:53:59Z</time>
      </trkpt>
      <trkpt lat="46.51616" lon="2.52918">
        <ele>255.9</ele>
        <time>2020-07-12T07:54:01Z</time>
      </trkpt>
      <trkpt lat="46.51609" lon="2.52916">
        <ele>256.1</ele>
        <time>2020-07-12T07:54:03Z</time>
      </trkpt>
      <trkpt lat="46.51606" lon="2.52917">
        <ele>256</ele>
        <time>2020-07-12T07:54:04Z</time>
      </trkpt>
      <trkpt lat="46.51596" lon="2.52914">
        <ele>256.1</ele>
        <time>2020-07-12T07:54:07Z</time>
      </trkpt>
      <trkpt lat="46.5159" lon="2.52914">
        <ele>256.3</ele>
        <time>2020-07-12T07:54:09Z</time>
      </trkpt>
      <trkpt lat="46.51583" lon="2.52913">
        <ele>256.3</ele>
        <time>2020-07-12T07:54:11Z</time>
      </trkpt>
      <trkpt lat="46.51576" lon="2.52911">
        <ele>256.8</ele>
        <time>2020-07-12T07:54:13Z</time>
      </trkpt>
      <trkpt lat="46.5157" lon="2.5291">
        <ele>257</ele>
        <time>2020-07-12T07:54:15Z</time>
      </trkpt>
      <trkpt lat="46.51563" lon="2.52908">
        <ele>256.7</ele>
        <time>2020-07-12T07:54:17Z</time>
      </trkpt>
      <trkpt lat="46.51556" lon="2.52906">
        <ele>256.8</ele>
        <time>2020-07-12T07:54:19Z</time>
      </trkpt>
      <trkpt lat="46.51549" lon="2.52904">
        <ele>256.2</ele>
        <time>2020-07-12T07:54:21Z</time>
      </trkpt>
      <trkpt lat="46.51542" lon="2.52902">
        <ele>256.5</ele>
        <time>2020-07-12T07:54:23Z</time>
      </trkpt>
      <trkpt lat="46.51536" lon="2.529">
        <ele>256.6</ele>
        <time>2020-07-12T07:54:25Z</time>
      </trkpt>
      <trkpt lat="46.51529" lon="2.52898">
        <ele>257.1</ele>
        <time>2020-07-12T07:54:27Z</time>
      </trkpt>
      <trkpt lat="46.51526" lon="2.52897">
        <ele>257.5</ele>
        <time>2020-07-12T07:54:28Z</time>
      </trkpt>
      <trkpt lat="46.51519" lon="2.52897">
        <ele>257.8</ele>
        <time>2020-07-12T07:54:29Z</time>
      </trkpt>
      <trkpt lat="46.5151" lon="2.52894">
        <ele>257.8</ele>
        <time>2020-07-12T07:54:32Z</time>
      </trkpt>
      <trkpt lat="46.51503" lon="2.52895">
        <ele>257.4</ele>
        <time>2020-07-12T07:54:36Z</time>
      </trkpt>
      <trkpt lat="46.51496" lon="2.52892">
        <ele>257.5</ele>
        <time>2020-07-12T07:54:39Z</time>
      </trkpt>
      <trkpt lat="46.5149" lon="2.52888">
        <ele>257.1</ele>
        <time>2020-07-12T07:54:41Z</time>
      </trkpt>
      <trkpt lat="46.51485" lon="2.52883">
        <ele>256.4</ele>
        <time>2020-07-12T07:54:43Z</time>
      </trkpt>
      <trkpt lat="46.51481" lon="2.52877">
        <ele>257.1</ele>
        <time>2020-07-12T07:54:45Z</time>
      </trkpt>
      <trkpt lat="46.51477" lon="2.52869">
        <ele>257.4</ele>
        <time>2020-07-12T07:54:47Z</time>
      </trkpt>
      <trkpt lat="46.51474" lon="2.52861">
        <ele>257.2</ele>
        <time>2020-07-12T07:54:49Z</time>
      </trkpt>
      <trkpt lat="46.51471" lon="2.52853">
        <ele>257</ele>
        <time>2020-07-12T07:54:51Z</time>
      </trkpt>
      <trkpt lat="46.51465" lon="2.52844">
        <ele>257.3</ele>
        <time>2020-07-12T07:54:53Z</time>
      </trkpt>
      <trkpt lat="46.51459" lon="2.52834">
        <ele>257.6</ele>
        <time>2020-07-12T07:54:55Z</time>
      </trkpt>
      <trkpt lat="46.51455" lon="2.5283">
        <ele>257.8</ele>
        <time>2020-07-12T07:54:56Z</time>
      </trkpt>
      <trkpt lat="46.51452" lon="2.5282">
        <ele>257.6</ele>
        <time>2020-07-12T07:54:58Z</time>
      </trkpt>
      <trkpt lat="46.51451" lon="2.52812">
        <ele>257.3</ele>
        <time>2020-07-12T07:55:00Z</time>
      </trkpt>
      <trkpt lat="46.51451" lon="2.52803">
        <ele>257.5</ele>
        <time>2020-07-12T07:55:02Z</time>
      </trkpt>
      <trkpt lat="46.5145" lon="2.52793">
        <ele>257.6</ele>
        <time>2020-07-12T07:55:04Z</time>
      </trkpt>
      <trkpt lat="46.5145" lon="2.52789">
        <ele>257.6</ele>
        <time>2020-07-12T07:55:05Z</time>
      </trkpt>
      <trkpt lat="46.51449" lon="2.52775">
        <ele>258</ele>
        <time>2020-07-12T07:55:08Z</time>
      </trkpt>
      <trkpt lat="46.51447" lon="2.52765">
        <ele>258.1</ele>
        <time>2020-07-12T07:55:10Z</time>
      </trkpt>
      <trkpt lat="46.51446" lon="2.52754">
        <ele>258</ele>
        <time>2020-07-12T07:55:12Z</time>
      </trkpt>
      <trkpt lat="46.51445" lon="2.52744">
        <ele>257.9</ele>
        <time>2020-07-12T07:55:14Z</time>
      </trkpt>
      <trkpt lat="46.51443" lon="2.52733">
        <ele>257.8</ele>
        <time>2020-07-12T07:55:16Z</time>
      </trkpt>
      <trkpt lat="46.51442" lon="2.52722">
        <ele>258.3</ele>
        <time>2020-07-12T07:55:18Z</time>
      </trkpt>
      <trkpt lat="46.51442" lon="2.52712">
        <ele>258.6</ele>
        <time>2020-07-12T07:55:20Z</time>
      </trkpt>
      <trkpt lat="46.51442" lon="2.52701">
        <ele>259</ele>
        <time>2020-07-12T07:55:22Z</time>
      </trkpt>
      <trkpt lat="46.51442" lon="2.5269">
        <ele>259</ele>
        <time>2020-07-12T07:55:24Z</time>
      </trkpt>
      <trkpt lat="46.51444" lon="2.52679">
        <ele>258.8</ele>
        <time>2020-07-12T07:55:26Z</time>
      </trkpt>
      <trkpt lat="46.51446" lon="2.52667">
        <ele>258.2</ele>
        <time>2020-07-12T07:55:28Z</time>
      </trkpt>
      <trkpt lat="46.51447" lon="2.52656">
        <ele>258.8</ele>
        <time>2020-07-12T07:55:30Z</time>
      </trkpt>
      <trkpt lat="46.51448" lon="2.52649">
        <ele>258.7</ele>
        <time>2020-07-12T07:55:31Z</time>
      </trkpt>
      <trkpt lat="46.51449" lon="2.52643">
        <ele>258.6</ele>
        <time>2020-07-12T07:55:32Z</time>
      </trkpt>
      <trkpt lat="46.5145" lon="2.52637">
        <ele>258.5</ele>
        <time>2020-07-12T07:55:33Z</time>
      </trkpt>
      <trkpt lat="46.51451" lon="2.5263">
        <ele>258.9</ele>
        <time>2020-07-12T07:55:34Z</time>
      </trkpt>
      <trkpt lat="46.51452" lon="2.52623">
        <ele>259.2</ele>
        <time>2020-07-12T07:55:35Z</time>
      </trkpt>
      <trkpt lat="46.51453" lon="2.52617">
        <ele>258.8</ele>
        <time>2020-07-12T07:55:36Z</time>
      </trkpt>
      <trkpt lat="46.51454" lon="2.5261">
        <ele>258.5</ele>
        <time>2020-07-12T07:55:37Z</time>
      </trkpt>
      <trkpt lat="46.51454" lon="2.52603">
        <ele>259.2</ele>
        <time>2020-07-12T07:55:38Z</time>
      </trkpt>
      <trkpt lat="46.51456" lon="2.52596">
        <ele>259.7</ele>
        <time>2020-07-12T07:55:39Z</time>
      </trkpt>
      <trkpt lat="46.51457" lon="2.52589">
        <ele>260.1</ele>
        <time>2020-07-12T07:55:40Z</time>
      </trkpt>
      <trkpt lat="46.51457" lon="2.52582">
        <ele>260</ele>
        <time>2020-07-12T07:55:41Z</time>
      </trkpt>
      <trkpt lat="46.51458" lon="2.52575">
        <ele>260</ele>
        <time>2020-07-12T07:55:42Z</time>
      </trkpt>
      <trkpt lat="46.51459" lon="2.52568">
        <ele>259.7</ele>
        <time>2020-07-12T07:55:43Z</time>
      </trkpt>
      <trkpt lat="46.5146" lon="2.52561">
        <ele>259.6</ele>
        <time>2020-07-12T07:55:44Z</time>
      </trkpt>
      <trkpt lat="46.51461" lon="2.52554">
        <ele>259.5</ele>
        <time>2020-07-12T07:55:45Z</time>
      </trkpt>
      <trkpt lat="46.51461" lon="2.52547">
        <ele>259.4</ele>
        <time>2020-07-12T07:55:46Z</time>
      </trkpt>
      <trkpt lat="46.51462" lon="2.52535">
        <ele>259.1</ele>
        <time>2020-07-12T07:55:48Z</time>
      </trkpt>
      <trkpt lat="46.51463" lon="2.52522">
        <ele>258.8</ele>
        <time>2020-07-12T07:55:50Z</time>
      </trkpt>
      <trkpt lat="46.51465" lon="2.5251">
        <ele>258.6</ele>
        <time>2020-07-12T07:55:52Z</time>
      </trkpt>
      <trkpt lat="46.51467" lon="2.525">
        <ele>258.6</ele>
        <time>2020-07-12T07:55:54Z</time>
      </trkpt>
      <trkpt lat="46.51469" lon="2.5249">
        <ele>258.6</ele>
        <time>2020-07-12T07:55:56Z</time>
      </trkpt>
      <trkpt lat="46.51469" lon="2.52481">
        <ele>259.5</ele>
        <time>2020-07-12T07:55:58Z</time>
      </trkpt>
      <trkpt lat="46.5147" lon="2.52471">
        <ele>259.3</ele>
        <time>2020-07-12T07:56:00Z</time>
      </trkpt>
      <trkpt lat="46.51464" lon="2.52462">
        <ele>259.2</ele>
        <time>2020-07-12T07:56:03Z</time>
      </trkpt>
      <trkpt lat="46.51459" lon="2.52458">
        <ele>258.9</ele>
        <time>2020-07-12T07:56:05Z</time>
      </trkpt>
      <trkpt lat="46.51456" lon="2.52456">
        <ele>258.6</ele>
        <time>2020-07-12T07:56:06Z</time>
      </trkpt>
      <trkpt lat="46.51446" lon="2.52449">
        <ele>258.8</ele>
        <time>2020-07-12T07:56:09Z</time>
      </trkpt>
      <trkpt lat="46.5144" lon="2.52444">
        <ele>258.7</ele>
        <time>2020-07-12T07:56:11Z</time>
      </trkpt>
      <trkpt lat="46.51433" lon="2.5244">
        <ele>258.6</ele>
        <time>2020-07-12T07:56:13Z</time>
      </trkpt>
      <trkpt lat="46.51427" lon="2.52435">
        <ele>259.4</ele>
        <time>2020-07-12T07:56:15Z</time>
      </trkpt>
      <trkpt lat="46.51421" lon="2.5243">
        <ele>259.5</ele>
        <time>2020-07-12T07:56:17Z</time>
      </trkpt>
      <trkpt lat="46.51414" lon="2.52426">
        <ele>259.5</ele>
        <time>2020-07-12T07:56:19Z</time>
      </trkpt>
      <trkpt lat="46.51407" lon="2.52422">
        <ele>259.2</ele>
        <time>2020-07-12T07:56:21Z</time>
      </trkpt>
      <trkpt lat="46.514" lon="2.52417">
        <ele>259</ele>
        <time>2020-07-12T07:56:23Z</time>
      </trkpt>
      <trkpt lat="46.51393" lon="2.52412">
        <ele>259</ele>
        <time>2020-07-12T07:56:25Z</time>
      </trkpt>
      <trkpt lat="46.51385" lon="2.52407">
        <ele>259.3</ele>
        <time>2020-07-12T07:56:27Z</time>
      </trkpt>
      <trkpt lat="46.51378" lon="2.52402">
        <ele>258.8</ele>
        <time>2020-07-12T07:56:29Z</time>
      </trkpt>
      <trkpt lat="46.5137" lon="2.52397">
        <ele>258.5</ele>
        <time>2020-07-12T07:56:31Z</time>
      </trkpt>
      <trkpt lat="46.51362" lon="2.52391">
        <ele>258.6</ele>
        <time>2020-07-12T07:56:33Z</time>
      </trkpt>
      <trkpt lat="46.51355" lon="2.52387">
        <ele>259.5</ele>
        <time>2020-07-12T07:56:35Z</time>
      </trkpt>
      <trkpt lat="46.51347" lon="2.52382">
        <ele>260.6</ele>
        <time>2020-07-12T07:56:37Z</time>
      </trkpt>
      <trkpt lat="46.51339" lon="2.52378">
        <ele>260.3</ele>
        <time>2020-07-12T07:56:39Z</time>
      </trkpt>
      <trkpt lat="46.51332" lon="2.52375">
        <ele>259.8</ele>
        <time>2020-07-12T07:56:41Z</time>
      </trkpt>
      <trkpt lat="46.51325" lon="2.52371">
        <ele>259.3</ele>
        <time>2020-07-12T07:56:43Z</time>
      </trkpt>
      <trkpt lat="46.51318" lon="2.52367">
        <ele>258.8</ele>
        <time>2020-07-12T07:56:45Z</time>
      </trkpt>
      <trkpt lat="46.51311" lon="2.52363">
        <ele>259</ele>
        <time>2020-07-12T07:56:47Z</time>
      </trkpt>
      <trkpt lat="46.51303" lon="2.52359">
        <ele>259.7</ele>
        <time>2020-07-12T07:56:49Z</time>
      </trkpt>
      <trkpt lat="46.51296" lon="2.52355">
        <ele>260.2</ele>
        <time>2020-07-12T07:56:51Z</time>
      </trkpt>
      <trkpt lat="46.51288" lon="2.52351">
        <ele>260.3</ele>
        <time>2020-07-12T07:56:53Z</time>
      </trkpt>
      <trkpt lat="46.5128" lon="2.52345">
        <ele>260.4</ele>
        <time>2020-07-12T07:56:55Z</time>
      </trkpt>
      <trkpt lat="46.51279" lon="2.52333">
        <ele>260.2</ele>
        <time>2020-07-12T07:56:57Z</time>
      </trkpt>
      <trkpt lat="46.51284" lon="2.52324">
        <ele>259.9</ele>
        <time>2020-07-12T07:56:59Z</time>
      </trkpt>
      <trkpt lat="46.51289" lon="2.52316">
        <ele>259.7</ele>
        <time>2020-07-12T07:57:01Z</time>
      </trkpt>
      <trkpt lat="46.51294" lon="2.52308">
        <ele>259.7</ele>
        <time>2020-07-12T07:57:03Z</time>
      </trkpt>
      <trkpt lat="46.513" lon="2.52301">
        <ele>259.9</ele>
        <time>2020-07-12T07:57:05Z</time>
      </trkpt>
      <trkpt lat="46.51306" lon="2.52294">
        <ele>260.3</ele>
        <time>2020-07-12T07:57:07Z</time>
      </trkpt>
      <trkpt lat="46.51309" lon="2.52291">
        <ele>260.4</ele>
        <time>2020-07-12T07:57:08Z</time>
      </trkpt>
      <trkpt lat="46.51319" lon="2.52282">
        <ele>260.7</ele>
        <time>2020-07-12T07:57:11Z</time>
      </trkpt>
      <trkpt lat="46.51325" lon="2.52275">
        <ele>260.8</ele>
        <time>2020-07-12T07:57:13Z</time>
      </trkpt>
      <trkpt lat="46.51332" lon="2.52268">
        <ele>261.1</ele>
        <time>2020-07-12T07:57:15Z</time>
      </trkpt>
      <trkpt lat="46.51339" lon="2.52261">
        <ele>261</ele>
        <time>2020-07-12T07:57:17Z</time>
      </trkpt>
      <trkpt lat="46.51344" lon="2.52255">
        <ele>260.1</ele>
        <time>2020-07-12T07:57:19Z</time>
      </trkpt>
      <trkpt lat="46.51349" lon="2.52248">
        <ele>260.2</ele>
        <time>2020-07-12T07:57:21Z</time>
      </trkpt>
      <trkpt lat="46.51355" lon="2.5224">
        <ele>259.7</ele>
        <time>2020-07-12T07:57:23Z</time>
      </trkpt>
      <trkpt lat="46.51354" lon="2.52231">
        <ele>259.5</ele>
        <time>2020-07-12T07:57:25Z</time>
      </trkpt>
      <trkpt lat="46.5135" lon="2.52224">
        <ele>259.8</ele>
        <time>2020-07-12T07:57:27Z</time>
      </trkpt>
      <trkpt lat="46.51345" lon="2.52217">
        <ele>259.7</ele>
        <time>2020-07-12T07:57:29Z</time>
      </trkpt>
      <trkpt lat="46.5134" lon="2.5221">
        <ele>259.9</ele>
        <time>2020-07-12T07:57:31Z</time>
      </trkpt>
      <trkpt lat="46.51335" lon="2.52203">
        <ele>259.8</ele>
        <time>2020-07-12T07:57:33Z</time>
      </trkpt>
      <trkpt lat="46.5133" lon="2.52196">
        <ele>259.9</ele>
        <time>2020-07-12T07:57:35Z</time>
      </trkpt>
      <trkpt lat="46.51325" lon="2.52189">
        <ele>260.5</ele>
        <time>2020-07-12T07:57:37Z</time>
      </trkpt>
      <trkpt lat="46.5132" lon="2.52182">
        <ele>261</ele>
        <time>2020-07-12T07:57:39Z</time>
      </trkpt>
      <trkpt lat="46.51315" lon="2.52175">
        <ele>261.3</ele>
        <time>2020-07-12T07:57:41Z</time>
      </trkpt>
      <trkpt lat="46.5131" lon="2.52169">
        <ele>260.9</ele>
        <time>2020-07-12T07:57:43Z</time>
      </trkpt>
      <trkpt lat="46.51305" lon="2.52161">
        <ele>260.5</ele>
        <time>2020-07-12T07:57:45Z</time>
      </trkpt>
      <trkpt lat="46.513" lon="2.52154">
        <ele>260.1</ele>
        <time>2020-07-12T07:57:47Z</time>
      </trkpt>
      <trkpt lat="46.51295" lon="2.52147">
        <ele>260.4</ele>
        <time>2020-07-12T07:57:49Z</time>
      </trkpt>
      <trkpt lat="46.5129" lon="2.5214">
        <ele>260.8</ele>
        <time>2020-07-12T07:57:51Z</time>
      </trkpt>
      <trkpt lat="46.51285" lon="2.52134">
        <ele>260.9</ele>
        <time>2020-07-12T07:57:53Z</time>
      </trkpt>
      <trkpt lat="46.5128" lon="2.52128">
        <ele>261.3</ele>
        <time>2020-07-12T07:57:55Z</time>
      </trkpt>
      <trkpt lat="46.51274" lon="2.52122">
        <ele>261.7</ele>
        <time>2020-07-12T07:57:57Z</time>
      </trkpt>
      <trkpt lat="46.51268" lon="2.52114">
        <ele>262.5</ele>
        <time>2020-07-12T07:57:59Z</time>
      </trkpt>
      <trkpt lat="46.51263" lon="2.52107">
        <ele>262.7</ele>
        <time>2020-07-12T07:58:01Z</time>
      </trkpt>
      <trkpt lat="46.51258" lon="2.521">
        <ele>262.6</ele>
        <time>2020-07-12T07:58:03Z</time>
      </trkpt>
      <trkpt lat="46.51252" lon="2.52093">
        <ele>262.6</ele>
        <time>2020-07-12T07:58:05Z</time>
      </trkpt>
      <trkpt lat="46.51247" lon="2.52086">
        <ele>263.3</ele>
        <time>2020-07-12T07:58:07Z</time>
      </trkpt>
      <trkpt lat="46.51241" lon="2.52079">
        <ele>262.7</ele>
        <time>2020-07-12T07:58:09Z</time>
      </trkpt>
      <trkpt lat="46.51238" lon="2.52075">
        <ele>262.7</ele>
        <time>2020-07-12T07:58:10Z</time>
      </trkpt>
      <trkpt lat="46.5123" lon="2.52064">
        <ele>262.8</ele>
        <time>2020-07-12T07:58:13Z</time>
      </trkpt>
      <trkpt lat="46.51224" lon="2.52057">
        <ele>262.8</ele>
        <time>2020-07-12T07:58:15Z</time>
      </trkpt>
      <trkpt lat="46.51218" lon="2.5205">
        <ele>263.1</ele>
        <time>2020-07-12T07:58:17Z</time>
      </trkpt>
      <trkpt lat="46.51213" lon="2.52042">
        <ele>263.5</ele>
        <time>2020-07-12T07:58:19Z</time>
      </trkpt>
      <trkpt lat="46.51207" lon="2.52035">
        <ele>263.1</ele>
        <time>2020-07-12T07:58:21Z</time>
      </trkpt>
      <trkpt lat="46.51202" lon="2.52027">
        <ele>263.4</ele>
        <time>2020-07-12T07:58:23Z</time>
      </trkpt>
      <trkpt lat="46.51196" lon="2.5202">
        <ele>263.6</ele>
        <time>2020-07-12T07:58:25Z</time>
      </trkpt>
      <trkpt lat="46.51191" lon="2.52012">
        <ele>263.3</ele>
        <time>2020-07-12T07:58:27Z</time>
      </trkpt>
      <trkpt lat="46.51185" lon="2.52005">
        <ele>263.5</ele>
        <time>2020-07-12T07:58:29Z</time>
      </trkpt>
      <trkpt lat="46.5118" lon="2.51998">
        <ele>264</ele>
        <time>2020-07-12T07:58:31Z</time>
      </trkpt>
      <trkpt lat="46.51174" lon="2.5199">
        <ele>264.2</ele>
        <time>2020-07-12T07:58:33Z</time>
      </trkpt>
      <trkpt lat="46.51169" lon="2.51983">
        <ele>264.6</ele>
        <time>2020-07-12T07:58:35Z</time>
      </trkpt>
      <trkpt lat="46.51164" lon="2.51976">
        <ele>264.6</ele>
        <time>2020-07-12T07:58:37Z</time>
      </trkpt>
      <trkpt lat="46.51158" lon="2.51969">
        <ele>264.7</ele>
        <time>2020-07-12T07:58:39Z</time>
      </trkpt>
      <trkpt lat="46.51153" lon="2.51962">
        <ele>264.5</ele>
        <time>2020-07-12T07:58:41Z</time>
      </trkpt>
      <trkpt lat="46.51148" lon="2.51954">
        <ele>264.1</ele>
        <time>2020-07-12T07:58:43Z</time>
      </trkpt>
      <trkpt lat="46.51142" lon="2.51947">
        <ele>263.9</ele>
        <time>2020-07-12T07:58:45Z</time>
      </trkpt>
      <trkpt lat="46.51136" lon="2.5194">
        <ele>264.5</ele>
        <time>2020-07-12T07:58:47Z</time>
      </trkpt>
      <trkpt lat="46.51131" lon="2.51932">
        <ele>265.1</ele>
        <time>2020-07-12T07:58:49Z</time>
      </trkpt>
      <trkpt lat="46.51125" lon="2.51925">
        <ele>265.2</ele>
        <time>2020-07-12T07:58:51Z</time>
      </trkpt>
      <trkpt lat="46.51119" lon="2.51917">
        <ele>265.2</ele>
        <time>2020-07-12T07:58:53Z</time>
      </trkpt>
      <trkpt lat="46.51114" lon="2.5191">
        <ele>265.4</ele>
        <time>2020-07-12T07:58:55Z</time>
      </trkpt>
      <trkpt lat="46.51109" lon="2.51903">
        <ele>265.5</ele>
        <time>2020-07-12T07:58:57Z</time>
      </trkpt>
      <trkpt lat="46.51103" lon="2.51895">
        <ele>264.9</ele>
        <time>2020-07-12T07:58:59Z</time>
      </trkpt>
      <trkpt lat="46.51097" lon="2.51888">
        <ele>265.7</ele>
        <time>2020-07-12T07:59:01Z</time>
      </trkpt>
      <trkpt lat="46.51092" lon="2.5188">
        <ele>265.7</ele>
        <time>2020-07-12T07:59:03Z</time>
      </trkpt>
      <trkpt lat="46.51086" lon="2.51872">
        <ele>265.6</ele>
        <time>2020-07-12T07:59:05Z</time>
      </trkpt>
      <trkpt lat="46.5108" lon="2.51865">
        <ele>265.2</ele>
        <time>2020-07-12T07:59:07Z</time>
      </trkpt>
      <trkpt lat="46.51074" lon="2.51857">
        <ele>264.6</ele>
        <time>2020-07-12T07:59:09Z</time>
      </trkpt>
      <trkpt lat="46.51068" lon="2.51849">
        <ele>264.6</ele>
        <time>2020-07-12T07:59:11Z</time>
      </trkpt>
      <trkpt lat="46.51066" lon="2.51845">
        <ele>264.5</ele>
        <time>2020-07-12T07:59:12Z</time>
      </trkpt>
      <trkpt lat="46.51057" lon="2.51833">
        <ele>265.6</ele>
        <time>2020-07-12T07:59:15Z</time>
      </trkpt>
      <trkpt lat="46.51051" lon="2.51825">
        <ele>266</ele>
        <time>2020-07-12T07:59:17Z</time>
      </trkpt>
      <trkpt lat="46.51045" lon="2.51817">
        <ele>265.8</ele>
        <time>2020-07-12T07:59:19Z</time>
      </trkpt>
      <trkpt lat="46.51039" lon="2.51808">
        <ele>265.5</ele>
        <time>2020-07-12T07:59:21Z</time>
      </trkpt>
      <trkpt lat="46.51034" lon="2.518">
        <ele>265.8</ele>
        <time>2020-07-12T07:59:23Z</time>
      </trkpt>
      <trkpt lat="46.51028" lon="2.51791">
        <ele>265.7</ele>
        <time>2020-07-12T07:59:25Z</time>
      </trkpt>
      <trkpt lat="46.51022" lon="2.51782">
        <ele>265.8</ele>
        <time>2020-07-12T07:59:27Z</time>
      </trkpt>
      <trkpt lat="46.51016" lon="2.51773">
        <ele>266</ele>
        <time>2020-07-12T07:59:29Z</time>
      </trkpt>
      <trkpt lat="46.5101" lon="2.51764">
        <ele>266.5</ele>
        <time>2020-07-12T07:59:31Z</time>
      </trkpt>
      <trkpt lat="46.51004" lon="2.51756">
        <ele>266.6</ele>
        <time>2020-07-12T07:59:33Z</time>
      </trkpt>
      <trkpt lat="46.50998" lon="2.51746">
        <ele>266.6</ele>
        <time>2020-07-12T07:59:35Z</time>
      </trkpt>
      <trkpt lat="46.50992" lon="2.51737">
        <ele>267.1</ele>
        <time>2020-07-12T07:59:37Z</time>
      </trkpt>
      <trkpt lat="46.50987" lon="2.51728">
        <ele>267.2</ele>
        <time>2020-07-12T07:59:39Z</time>
      </trkpt>
      <trkpt lat="46.50981" lon="2.51718">
        <ele>267.2</ele>
        <time>2020-07-12T07:59:41Z</time>
      </trkpt>
      <trkpt lat="46.50975" lon="2.51709">
        <ele>266.9</ele>
        <time>2020-07-12T07:59:43Z</time>
      </trkpt>
      <trkpt lat="46.50969" lon="2.517">
        <ele>266.9</ele>
        <time>2020-07-12T07:59:45Z</time>
      </trkpt>
      <trkpt lat="46.50963" lon="2.51692">
        <ele>266.9</ele>
        <time>2020-07-12T07:59:47Z</time>
      </trkpt>
      <trkpt lat="46.50958" lon="2.51683">
        <ele>266.7</ele>
        <time>2020-07-12T07:59:49Z</time>
      </trkpt>
      <trkpt lat="46.50953" lon="2.51675">
        <ele>266.6</ele>
        <time>2020-07-12T07:59:51Z</time>
      </trkpt>
      <trkpt lat="46.50948" lon="2.51668">
        <ele>266.7</ele>
        <time>2020-07-12T07:59:53Z</time>
      </trkpt>
      <trkpt lat="46.50943" lon="2.51659">
        <ele>267.4</ele>
        <time>2020-07-12T07:59:57Z</time>
      </trkpt>
      <trkpt lat="46.50936" lon="2.51654">
        <ele>267.5</ele>
        <time>2020-07-12T08:00:00Z</time>
      </trkpt>
      <trkpt lat="46.50929" lon="2.51653">
        <ele>267.6</ele>
        <time>2020-07-12T08:00:02Z</time>
      </trkpt>
      <trkpt lat="46.50922" lon="2.51653">
        <ele>267.1</ele>
        <time>2020-07-12T08:00:04Z</time>
      </trkpt>
      <trkpt lat="46.50915" lon="2.51653">
        <ele>266.3</ele>
        <time>2020-07-12T08:00:06Z</time>
      </trkpt>
      <trkpt lat="46.50907" lon="2.51653">
        <ele>266.4</ele>
        <time>2020-07-12T08:00:08Z</time>
      </trkpt>
      <trkpt lat="46.50899" lon="2.51654">
        <ele>266.2</ele>
        <time>2020-07-12T08:00:10Z</time>
      </trkpt>
      <trkpt lat="46.5089" lon="2.51654">
        <ele>266.9</ele>
        <time>2020-07-12T08:00:12Z</time>
      </trkpt>
      <trkpt lat="46.50886" lon="2.51655">
        <ele>267.2</ele>
        <time>2020-07-12T08:00:13Z</time>
      </trkpt>
      <trkpt lat="46.50874" lon="2.51655">
        <ele>267.5</ele>
        <time>2020-07-12T08:00:16Z</time>
      </trkpt>
      <trkpt lat="46.50865" lon="2.51656">
        <ele>267.6</ele>
        <time>2020-07-12T08:00:18Z</time>
      </trkpt>
      <trkpt lat="46.50856" lon="2.51656">
        <ele>267.4</ele>
        <time>2020-07-12T08:00:20Z</time>
      </trkpt>
      <trkpt lat="46.50847" lon="2.51657">
        <ele>267.7</ele>
        <time>2020-07-12T08:00:22Z</time>
      </trkpt>
      <trkpt lat="46.50843" lon="2.51657">
        <ele>267.9</ele>
        <time>2020-07-12T08:00:23Z</time>
      </trkpt>
      <trkpt lat="46.50838" lon="2.51658">
        <ele>268.1</ele>
        <time>2020-07-12T08:00:24Z</time>
      </trkpt>
      <trkpt lat="46.50834" lon="2.51658">
        <ele>268.2</ele>
        <time>2020-07-12T08:00:25Z</time>
      </trkpt>
      <trkpt lat="46.50829" lon="2.51659">
        <ele>268.2</ele>
        <time>2020-07-12T08:00:26Z</time>
      </trkpt>
      <trkpt lat="46.50824" lon="2.51659">
        <ele>268.1</ele>
        <time>2020-07-12T08:00:27Z</time>
      </trkpt>
      <trkpt lat="46.5082" lon="2.51659">
        <ele>268.2</ele>
        <time>2020-07-12T08:00:28Z</time>
      </trkpt>
      <trkpt lat="46.50815" lon="2.5166">
        <ele>268.2</ele>
        <time>2020-07-12T08:00:29Z</time>
      </trkpt>
      <trkpt lat="46.5081" lon="2.5166">
        <ele>268</ele>
        <time>2020-07-12T08:00:30Z</time>
      </trkpt>
      <trkpt lat="46.50806" lon="2.5166">
        <ele>267.9</ele>
        <time>2020-07-12T08:00:31Z</time>
      </trkpt>
      <trkpt lat="46.50801" lon="2.51661">
        <ele>267.8</ele>
        <time>2020-07-12T08:00:32Z</time>
      </trkpt>
      <trkpt lat="46.50796" lon="2.51661">
        <ele>267.9</ele>
        <time>2020-07-12T08:00:33Z</time>
      </trkpt>
      <trkpt lat="46.50792" lon="2.51661">
        <ele>267.9</ele>
        <time>2020-07-12T08:00:34Z</time>
      </trkpt>
      <trkpt lat="46.50787" lon="2.51661">
        <ele>267.8</ele>
        <time>2020-07-12T08:00:35Z</time>
      </trkpt>
      <trkpt lat="46.50782" lon="2.51662">
        <ele>267.7</ele>
        <time>2020-07-12T08:00:36Z</time>
      </trkpt>
      <trkpt lat="46.50777" lon="2.51662">
        <ele>267.7</ele>
        <time>2020-07-12T08:00:37Z</time>
      </trkpt>
      <trkpt lat="46.50773" lon="2.51662">
        <ele>267.7</ele>
        <time>2020-07-12T08:00:38Z</time>
      </trkpt>
      <trkpt lat="46.50768" lon="2.51663">
        <ele>267.7</ele>
        <time>2020-07-12T08:00:39Z</time>
      </trkpt>
      <trkpt lat="46.50764" lon="2.51663">
        <ele>267.8</ele>
        <time>2020-07-12T08:00:40Z</time>
      </trkpt>
      <trkpt lat="46.50755" lon="2.51664">
        <ele>268.2</ele>
        <time>2020-07-12T08:00:42Z</time>
      </trkpt>
      <trkpt lat="46.5075" lon="2.51665">
        <ele>268.5</ele>
        <time>2020-07-12T08:00:43Z</time>
      </trkpt>
      <trkpt lat="46.50746" lon="2.51665">
        <ele>268.7</ele>
        <time>2020-07-12T08:00:44Z</time>
      </trkpt>
      <trkpt lat="46.50741" lon="2.51665">
        <ele>268.2</ele>
        <time>2020-07-12T08:00:45Z</time>
      </trkpt>
      <trkpt lat="46.50737" lon="2.51666">
        <ele>267.9</ele>
        <time>2020-07-12T08:00:46Z</time>
      </trkpt>
      <trkpt lat="46.50732" lon="2.51666">
        <ele>268</ele>
        <time>2020-07-12T08:00:47Z</time>
      </trkpt>
      <trkpt lat="46.50724" lon="2.51667">
        <ele>268.1</ele>
        <time>2020-07-12T08:00:49Z</time>
      </trkpt>
      <trkpt lat="46.50715" lon="2.51668">
        <ele>268.1</ele>
        <time>2020-07-12T08:00:51Z</time>
      </trkpt>
      <trkpt lat="46.50706" lon="2.51669">
        <ele>268.4</ele>
        <time>2020-07-12T08:00:53Z</time>
      </trkpt>
      <trkpt lat="46.50697" lon="2.51669">
        <ele>268.6</ele>
        <time>2020-07-12T08:00:55Z</time>
      </trkpt>
      <trkpt lat="46.50688" lon="2.5167">
        <ele>268</ele>
        <time>2020-07-12T08:00:57Z</time>
      </trkpt>
      <trkpt lat="46.5068" lon="2.51671">
        <ele>267.6</ele>
        <time>2020-07-12T08:00:59Z</time>
      </trkpt>
      <trkpt lat="46.50672" lon="2.51671">
        <ele>267.7</ele>
        <time>2020-07-12T08:01:01Z</time>
      </trkpt>
      <trkpt lat="46.50664" lon="2.51671">
        <ele>268</ele>
        <time>2020-07-12T08:01:03Z</time>
      </trkpt>
      <trkpt lat="46.50657" lon="2.51669">
        <ele>267.7</ele>
        <time>2020-07-12T08:01:05Z</time>
      </trkpt>
      <trkpt lat="46.50652" lon="2.5166">
        <ele>267.4</ele>
        <time>2020-07-12T08:01:07Z</time>
      </trkpt>
      <trkpt lat="46.50651" lon="2.5165">
        <ele>267.8</ele>
        <time>2020-07-12T08:01:09Z</time>
      </trkpt>
      <trkpt lat="46.5065" lon="2.51638">
        <ele>267.8</ele>
        <time>2020-07-12T08:01:11Z</time>
      </trkpt>
      <trkpt lat="46.5065" lon="2.51627">
        <ele>268.2</ele>
        <time>2020-07-12T08:01:13Z</time>
      </trkpt>
      <trkpt lat="46.5065" lon="2.51621">
        <ele>268.6</ele>
        <time>2020-07-12T08:01:14Z</time>
      </trkpt>
      <trkpt lat="46.50649" lon="2.51604">
        <ele>268.7</ele>
        <time>2020-07-12T08:01:17Z</time>
      </trkpt>
      <trkpt lat="46.50648" lon="2.51592">
        <ele>268.7</ele>
        <time>2020-07-12T08:01:19Z</time>
      </trkpt>
      <trkpt lat="46.50648" lon="2.51581">
        <ele>268.2</ele>
        <time>2020-07-12T08:01:21Z</time>
      </trkpt>
      <trkpt lat="46.50648" lon="2.5157">
        <ele>268.3</ele>
        <time>2020-07-12T08:01:23Z</time>
      </trkpt>
      <trkpt lat="46.50647" lon="2.51558">
        <ele>268.8</ele>
        <time>2020-07-12T08:01:25Z</time>
      </trkpt>
      <trkpt lat="46.50646" lon="2.51547">
        <ele>269.2</ele>
        <time>2020-07-12T08:01:27Z</time>
      </trkpt>
      <trkpt lat="46.50646" lon="2.51535">
        <ele>269.2</ele>
        <time>2020-07-12T08:01:29Z</time>
      </trkpt>
      <trkpt lat="46.50646" lon="2.51523">
        <ele>268.1</ele>
        <time>2020-07-12T08:01:31Z</time>
      </trkpt>
      <trkpt lat="46.50645" lon="2.51511">
        <ele>268.6</ele>
        <time>2020-07-12T08:01:33Z</time>
      </trkpt>
      <trkpt lat="46.50645" lon="2.51499">
        <ele>269.1</ele>
        <time>2020-07-12T08:01:35Z</time>
      </trkpt>
      <trkpt lat="46.50644" lon="2.51488">
        <ele>269.4</ele>
        <time>2020-07-12T08:01:37Z</time>
      </trkpt>
      <trkpt lat="46.50644" lon="2.51476">
        <ele>269.2</ele>
        <time>2020-07-12T08:01:39Z</time>
      </trkpt>
      <trkpt lat="46.50644" lon="2.51464">
        <ele>268.9</ele>
        <time>2020-07-12T08:01:41Z</time>
      </trkpt>
      <trkpt lat="46.50643" lon="2.51452">
        <ele>270.2</ele>
        <time>2020-07-12T08:01:43Z</time>
      </trkpt>
      <trkpt lat="46.50643" lon="2.5144">
        <ele>270.6</ele>
        <time>2020-07-12T08:01:45Z</time>
      </trkpt>
      <trkpt lat="46.50643" lon="2.51429">
        <ele>269.9</ele>
        <time>2020-07-12T08:01:47Z</time>
      </trkpt>
      <trkpt lat="46.50642" lon="2.51417">
        <ele>269.8</ele>
        <time>2020-07-12T08:01:49Z</time>
      </trkpt>
      <trkpt lat="46.50642" lon="2.51405">
        <ele>270.1</ele>
        <time>2020-07-12T08:01:51Z</time>
      </trkpt>
      <trkpt lat="46.5064" lon="2.51377">
        <ele>270</ele>
        <time>2020-07-12T08:01:55Z</time>
      </trkpt>
      <trkpt lat="46.5064" lon="2.51368">
        <ele>270.1</ele>
        <time>2020-07-12T08:01:57Z</time>
      </trkpt>
      <trkpt lat="46.50639" lon="2.51356">
        <ele>269.6</ele>
        <time>2020-07-12T08:01:59Z</time>
      </trkpt>
      <trkpt lat="46.50639" lon="2.51344">
        <ele>270.2</ele>
        <time>2020-07-12T08:02:01Z</time>
      </trkpt>
      <trkpt lat="46.50638" lon="2.51332">
        <ele>270.7</ele>
        <time>2020-07-12T08:02:03Z</time>
      </trkpt>
      <trkpt lat="46.50637" lon="2.51319">
        <ele>271.3</ele>
        <time>2020-07-12T08:02:05Z</time>
      </trkpt>
      <trkpt lat="46.50637" lon="2.51307">
        <ele>271.7</ele>
        <time>2020-07-12T08:02:07Z</time>
      </trkpt>
      <trkpt lat="46.50636" lon="2.51295">
        <ele>270.9</ele>
        <time>2020-07-12T08:02:09Z</time>
      </trkpt>
      <trkpt lat="46.50636" lon="2.51283">
        <ele>270.9</ele>
        <time>2020-07-12T08:02:11Z</time>
      </trkpt>
      <trkpt lat="46.50635" lon="2.51271">
        <ele>271.6</ele>
        <time>2020-07-12T08:02:13Z</time>
      </trkpt>
      <trkpt lat="46.50634" lon="2.51259">
        <ele>271.7</ele>
        <time>2020-07-12T08:02:15Z</time>
      </trkpt>
      <trkpt lat="46.50634" lon="2.51254">
        <ele>271.7</ele>
        <time>2020-07-12T08:02:16Z</time>
      </trkpt>
      <trkpt lat="46.50632" lon="2.51237">
        <ele>271.9</ele>
        <time>2020-07-12T08:02:19Z</time>
      </trkpt>
      <trkpt lat="46.5063" lon="2.51226">
        <ele>272.1</ele>
        <time>2020-07-12T08:02:21Z</time>
      </trkpt>
      <trkpt lat="46.50627" lon="2.51216">
        <ele>273</ele>
        <time>2020-07-12T08:02:23Z</time>
      </trkpt>
      <trkpt lat="46.50625" lon="2.51205">
        <ele>272.7</ele>
        <time>2020-07-12T08:02:25Z</time>
      </trkpt>
      <trkpt lat="46.50623" lon="2.51194">
        <ele>272.7</ele>
        <time>2020-07-12T08:02:27Z</time>
      </trkpt>
      <trkpt lat="46.50622" lon="2.51182">
        <ele>272.8</ele>
        <time>2020-07-12T08:02:29Z</time>
      </trkpt>
      <trkpt lat="46.5062" lon="2.51171">
        <ele>272.7</ele>
        <time>2020-07-12T08:02:31Z</time>
      </trkpt>
      <trkpt lat="46.50618" lon="2.5116">
        <ele>272.4</ele>
        <time>2020-07-12T08:02:33Z</time>
      </trkpt>
      <trkpt lat="46.50617" lon="2.51149">
        <ele>273.1</ele>
        <time>2020-07-12T08:02:35Z</time>
      </trkpt>
      <trkpt lat="46.50615" lon="2.51138">
        <ele>273.3</ele>
        <time>2020-07-12T08:02:37Z</time>
      </trkpt>
      <trkpt lat="46.50614" lon="2.51126">
        <ele>273</ele>
        <time>2020-07-12T08:02:39Z</time>
      </trkpt>
      <trkpt lat="46.50612" lon="2.51115">
        <ele>273.3</ele>
        <time>2020-07-12T08:02:41Z</time>
      </trkpt>
      <trkpt lat="46.5061" lon="2.51104">
        <ele>273.4</ele>
        <time>2020-07-12T08:02:43Z</time>
      </trkpt>
      <trkpt lat="46.50609" lon="2.51093">
        <ele>273.1</ele>
        <time>2020-07-12T08:02:45Z</time>
      </trkpt>
      <trkpt lat="46.50607" lon="2.51081">
        <ele>273.8</ele>
        <time>2020-07-12T08:02:47Z</time>
      </trkpt>
      <trkpt lat="46.50605" lon="2.5107">
        <ele>273.7</ele>
        <time>2020-07-12T08:02:49Z</time>
      </trkpt>
      <trkpt lat="46.50604" lon="2.51059">
        <ele>273</ele>
        <time>2020-07-12T08:02:51Z</time>
      </trkpt>
      <trkpt lat="46.50602" lon="2.51048">
        <ele>273.4</ele>
        <time>2020-07-12T08:02:53Z</time>
      </trkpt>
      <trkpt lat="46.506" lon="2.51036">
        <ele>274.1</ele>
        <time>2020-07-12T08:02:55Z</time>
      </trkpt>
      <trkpt lat="46.50599" lon="2.51025">
        <ele>274.7</ele>
        <time>2020-07-12T08:02:57Z</time>
      </trkpt>
      <trkpt lat="46.50596" lon="2.51016">
        <ele>275.2</ele>
        <time>2020-07-12T08:02:59Z</time>
      </trkpt>
      <trkpt lat="46.50591" lon="2.51011">
        <ele>274.6</ele>
        <time>2020-07-12T08:03:01Z</time>
      </trkpt>
      <trkpt lat="46.50586" lon="2.51006">
        <ele>275.7</ele>
        <time>2020-07-12T08:03:03Z</time>
      </trkpt>
      <trkpt lat="46.5058" lon="2.51">
        <ele>276</ele>
        <time>2020-07-12T08:03:05Z</time>
      </trkpt>
      <trkpt lat="46.50574" lon="2.50993">
        <ele>275.8</ele>
        <time>2020-07-12T08:03:07Z</time>
      </trkpt>
      <trkpt lat="46.50568" lon="2.50987">
        <ele>275.9</ele>
        <time>2020-07-12T08:03:09Z</time>
      </trkpt>
      <trkpt lat="46.50562" lon="2.5098">
        <ele>276.1</ele>
        <time>2020-07-12T08:03:11Z</time>
      </trkpt>
      <trkpt lat="46.50556" lon="2.50973">
        <ele>276</ele>
        <time>2020-07-12T08:03:13Z</time>
      </trkpt>
      <trkpt lat="46.5055" lon="2.50966">
        <ele>275.7</ele>
        <time>2020-07-12T08:03:15Z</time>
      </trkpt>
      <trkpt lat="46.50543" lon="2.50958">
        <ele>275.9</ele>
        <time>2020-07-12T08:03:17Z</time>
      </trkpt>
      <trkpt lat="46.5054" lon="2.50954">
        <ele>276</ele>
        <time>2020-07-12T08:03:18Z</time>
      </trkpt>
      <trkpt lat="46.50531" lon="2.50943">
        <ele>276.4</ele>
        <time>2020-07-12T08:03:21Z</time>
      </trkpt>
      <trkpt lat="46.50524" lon="2.50936">
        <ele>276.2</ele>
        <time>2020-07-12T08:03:23Z</time>
      </trkpt>
      <trkpt lat="46.50518" lon="2.50929">
        <ele>276.3</ele>
        <time>2020-07-12T08:03:25Z</time>
      </trkpt>
      <trkpt lat="46.50512" lon="2.50921">
        <ele>276.7</ele>
        <time>2020-07-12T08:03:27Z</time>
      </trkpt>
      <trkpt lat="46.50506" lon="2.50913">
        <ele>276.6</ele>
        <time>2020-07-12T08:03:29Z</time>
      </trkpt>
      <trkpt lat="46.50499" lon="2.50906">
        <ele>276.4</ele>
        <time>2020-07-12T08:03:31Z</time>
      </trkpt>
      <trkpt lat="46.50493" lon="2.50898">
        <ele>277.1</ele>
        <time>2020-07-12T08:03:33Z</time>
      </trkpt>
      <trkpt lat="46.50486" lon="2.5089">
        <ele>277</ele>
        <time>2020-07-12T08:03:35Z</time>
      </trkpt>
      <trkpt lat="46.5048" lon="2.50882">
        <ele>276.2</ele>
        <time>2020-07-12T08:03:37Z</time>
      </trkpt>
      <trkpt lat="46.50474" lon="2.50873">
        <ele>276.8</ele>
        <time>2020-07-12T08:03:39Z</time>
      </trkpt>
      <trkpt lat="46.50468" lon="2.50866">
        <ele>277.5</ele>
        <time>2020-07-12T08:03:41Z</time>
      </trkpt>
      <trkpt lat="46.50461" lon="2.50858">
        <ele>277.7</ele>
        <time>2020-07-12T08:03:43Z</time>
      </trkpt>
      <trkpt lat="46.50455" lon="2.5085">
        <ele>277.6</ele>
        <time>2020-07-12T08:03:45Z</time>
      </trkpt>
      <trkpt lat="46.50449" lon="2.50841">
        <ele>277.6</ele>
        <time>2020-07-12T08:03:47Z</time>
      </trkpt>
      <trkpt lat="46.50443" lon="2.50834">
        <ele>277.6</ele>
        <time>2020-07-12T08:03:49Z</time>
      </trkpt>
      <trkpt lat="46.50437" lon="2.50826">
        <ele>277.4</ele>
        <time>2020-07-12T08:03:51Z</time>
      </trkpt>
      <trkpt lat="46.50432" lon="2.5082">
        <ele>277.5</ele>
        <time>2020-07-12T08:03:53Z</time>
      </trkpt>
      <trkpt lat="46.50427" lon="2.5081">
        <ele>277.4</ele>
        <time>2020-07-12T08:03:56Z</time>
      </trkpt>
      <trkpt lat="46.50431" lon="2.50802">
        <ele>277.4</ele>
        <time>2020-07-12T08:03:59Z</time>
      </trkpt>
      <trkpt lat="46.50437" lon="2.50799">
        <ele>277.5</ele>
        <time>2020-07-12T08:04:01Z</time>
      </trkpt>
      <trkpt lat="46.50445" lon="2.50794">
        <ele>277.8</ele>
        <time>2020-07-12T08:04:03Z</time>
      </trkpt>
      <trkpt lat="46.50452" lon="2.50789">
        <ele>277.7</ele>
        <time>2020-07-12T08:04:05Z</time>
      </trkpt>
      <trkpt lat="46.50459" lon="2.50785">
        <ele>277.4</ele>
        <time>2020-07-12T08:04:07Z</time>
      </trkpt>
      <trkpt lat="46.50466" lon="2.50779">
        <ele>277.4</ele>
        <time>2020-07-12T08:04:09Z</time>
      </trkpt>
      <trkpt lat="46.50473" lon="2.50775">
        <ele>277.3</ele>
        <time>2020-07-12T08:04:11Z</time>
      </trkpt>
      <trkpt lat="46.50481" lon="2.50771">
        <ele>277.1</ele>
        <time>2020-07-12T08:04:13Z</time>
      </trkpt>
      <trkpt lat="46.50489" lon="2.50766">
        <ele>277</ele>
        <time>2020-07-12T08:04:15Z</time>
      </trkpt>
      <trkpt lat="46.50496" lon="2.50759">
        <ele>276.5</ele>
        <time>2020-07-12T08:04:17Z</time>
      </trkpt>
      <trkpt lat="46.50503" lon="2.50752">
        <ele>276.2</ele>
        <time>2020-07-12T08:04:19Z</time>
      </trkpt>
      <trkpt lat="46.50507" lon="2.50747">
        <ele>276.1</ele>
        <time>2020-07-12T08:04:20Z</time>
      </trkpt>
      <trkpt lat="46.50509" lon="2.50741">
        <ele>275.8</ele>
        <time>2020-07-12T08:04:21Z</time>
      </trkpt>
      <trkpt lat="46.50511" lon="2.50734">
        <ele>275.6</ele>
        <time>2020-07-12T08:04:22Z</time>
      </trkpt>
      <trkpt lat="46.50511" lon="2.50726">
        <ele>275.1</ele>
        <time>2020-07-12T08:04:23Z</time>
      </trkpt>
      <trkpt lat="46.50511" lon="2.50718">
        <ele>274.7</ele>
        <time>2020-07-12T08:04:24Z</time>
      </trkpt>
      <trkpt lat="46.50511" lon="2.5071">
        <ele>275</ele>
        <time>2020-07-12T08:04:25Z</time>
      </trkpt>
      <trkpt lat="46.50511" lon="2.50702">
        <ele>275.2</ele>
        <time>2020-07-12T08:04:26Z</time>
      </trkpt>
      <trkpt lat="46.5051" lon="2.50694">
        <ele>275.4</ele>
        <time>2020-07-12T08:04:27Z</time>
      </trkpt>
      <trkpt lat="46.5051" lon="2.50686">
        <ele>275</ele>
        <time>2020-07-12T08:04:28Z</time>
      </trkpt>
      <trkpt lat="46.5051" lon="2.50678">
        <ele>274.8</ele>
        <time>2020-07-12T08:04:29Z</time>
      </trkpt>
      <trkpt lat="46.5051" lon="2.50669">
        <ele>274.2</ele>
        <time>2020-07-12T08:04:30Z</time>
      </trkpt>
      <trkpt lat="46.5051" lon="2.50661">
        <ele>273.7</ele>
        <time>2020-07-12T08:04:31Z</time>
      </trkpt>
      <trkpt lat="46.50511" lon="2.50652">
        <ele>273.5</ele>
        <time>2020-07-12T08:04:32Z</time>
      </trkpt>
      <trkpt lat="46.50512" lon="2.50643">
        <ele>273.4</ele>
        <time>2020-07-12T08:04:33Z</time>
      </trkpt>
      <trkpt lat="46.50514" lon="2.50635">
        <ele>273.3</ele>
        <time>2020-07-12T08:04:34Z</time>
      </trkpt>
      <trkpt lat="46.50516" lon="2.50626">
        <ele>272.7</ele>
        <time>2020-07-12T08:04:35Z</time>
      </trkpt>
      <trkpt lat="46.50518" lon="2.50618">
        <ele>272.3</ele>
        <time>2020-07-12T08:04:36Z</time>
      </trkpt>
      <trkpt lat="46.5052" lon="2.5061">
        <ele>272.5</ele>
        <time>2020-07-12T08:04:37Z</time>
      </trkpt>
      <trkpt lat="46.50521" lon="2.50602">
        <ele>272.6</ele>
        <time>2020-07-12T08:04:38Z</time>
      </trkpt>
      <trkpt lat="46.50523" lon="2.50594">
        <ele>272.7</ele>
        <time>2020-07-12T08:04:39Z</time>
      </trkpt>
      <trkpt lat="46.50525" lon="2.50586">
        <ele>272.8</ele>
        <time>2020-07-12T08:04:40Z</time>
      </trkpt>
      <trkpt lat="46.50526" lon="2.50578">
        <ele>272.9</ele>
        <time>2020-07-12T08:04:41Z</time>
      </trkpt>
      <trkpt lat="46.50528" lon="2.5057">
        <ele>273.1</ele>
        <time>2020-07-12T08:04:42Z</time>
      </trkpt>
      <trkpt lat="46.50529" lon="2.50562">
        <ele>273.2</ele>
        <time>2020-07-12T08:04:43Z</time>
      </trkpt>
      <trkpt lat="46.50531" lon="2.50554">
        <ele>272.6</ele>
        <time>2020-07-12T08:04:44Z</time>
      </trkpt>
      <trkpt lat="46.50533" lon="2.50546">
        <ele>272.2</ele>
        <time>2020-07-12T08:04:45Z</time>
      </trkpt>
      <trkpt lat="46.50534" lon="2.50538">
        <ele>271.9</ele>
        <time>2020-07-12T08:04:46Z</time>
      </trkpt>
      <trkpt lat="46.50536" lon="2.50529">
        <ele>271.4</ele>
        <time>2020-07-12T08:04:47Z</time>
      </trkpt>
      <trkpt lat="46.50537" lon="2.50521">
        <ele>271</ele>
        <time>2020-07-12T08:04:48Z</time>
      </trkpt>
      <trkpt lat="46.50539" lon="2.50512">
        <ele>270.6</ele>
        <time>2020-07-12T08:04:49Z</time>
      </trkpt>
      <trkpt lat="46.50541" lon="2.50504">
        <ele>270.3</ele>
        <time>2020-07-12T08:04:50Z</time>
      </trkpt>
      <trkpt lat="46.50543" lon="2.50495">
        <ele>270.4</ele>
        <time>2020-07-12T08:04:51Z</time>
      </trkpt>
      <trkpt lat="46.50545" lon="2.50486">
        <ele>270.4</ele>
        <time>2020-07-12T08:04:52Z</time>
      </trkpt>
      <trkpt lat="46.50547" lon="2.50477">
        <ele>270.4</ele>
        <time>2020-07-12T08:04:53Z</time>
      </trkpt>
      <trkpt lat="46.50549" lon="2.50468">
        <ele>270.6</ele>
        <time>2020-07-12T08:04:54Z</time>
      </trkpt>
      <trkpt lat="46.5055" lon="2.50459">
        <ele>270.8</ele>
        <time>2020-07-12T08:04:55Z</time>
      </trkpt>
      <trkpt lat="46.50552" lon="2.5045">
        <ele>270.3</ele>
        <time>2020-07-12T08:04:56Z</time>
      </trkpt>
      <trkpt lat="46.50554" lon="2.5044">
        <ele>269.9</ele>
        <time>2020-07-12T08:04:57Z</time>
      </trkpt>
      <trkpt lat="46.50556" lon="2.50431">
        <ele>269.5</ele>
        <time>2020-07-12T08:04:58Z</time>
      </trkpt>
      <trkpt lat="46.50558" lon="2.50422">
        <ele>269.2</ele>
        <time>2020-07-12T08:04:59Z</time>
      </trkpt>
      <trkpt lat="46.5056" lon="2.50413">
        <ele>269</ele>
        <time>2020-07-12T08:05:00Z</time>
      </trkpt>
      <trkpt lat="46.50561" lon="2.50403">
        <ele>268.4</ele>
        <time>2020-07-12T08:05:01Z</time>
      </trkpt>
      <trkpt lat="46.50563" lon="2.50394">
        <ele>268</ele>
        <time>2020-07-12T08:05:02Z</time>
      </trkpt>
      <trkpt lat="46.50565" lon="2.50384">
        <ele>267.4</ele>
        <time>2020-07-12T08:05:03Z</time>
      </trkpt>
      <trkpt lat="46.50567" lon="2.50373">
        <ele>266.9</ele>
        <time>2020-07-12T08:05:04Z</time>
      </trkpt>
      <trkpt lat="46.50569" lon="2.50363">
        <ele>266.6</ele>
        <time>2020-07-12T08:05:05Z</time>
      </trkpt>
      <trkpt lat="46.50571" lon="2.50352">
        <ele>266.2</ele>
        <time>2020-07-12T08:05:06Z</time>
      </trkpt>
      <trkpt lat="46.50573" lon="2.50341">
        <ele>266</ele>
        <time>2020-07-12T08:05:07Z</time>
      </trkpt>
      <trkpt lat="46.50575" lon="2.5033">
        <ele>265.6</ele>
        <time>2020-07-12T08:05:08Z</time>
      </trkpt>
      <trkpt lat="46.50577" lon="2.50318">
        <ele>265.3</ele>
        <time>2020-07-12T08:05:09Z</time>
      </trkpt>
      <trkpt lat="46.5058" lon="2.50307">
        <ele>264.9</ele>
        <time>2020-07-12T08:05:10Z</time>
      </trkpt>
      <trkpt lat="46.50583" lon="2.50295">
        <ele>264.7</ele>
        <time>2020-07-12T08:05:11Z</time>
      </trkpt>
      <trkpt lat="46.50586" lon="2.50284">
        <ele>264.5</ele>
        <time>2020-07-12T08:05:12Z</time>
      </trkpt>
      <trkpt lat="46.50589" lon="2.50273">
        <ele>264.4</ele>
        <time>2020-07-12T08:05:13Z</time>
      </trkpt>
      <trkpt lat="46.50592" lon="2.50262">
        <ele>264.3</ele>
        <time>2020-07-12T08:05:14Z</time>
      </trkpt>
      <trkpt lat="46.50596" lon="2.50251">
        <ele>263.3</ele>
        <time>2020-07-12T08:05:15Z</time>
      </trkpt>
      <trkpt lat="46.506" lon="2.5024">
        <ele>262.6</ele>
        <time>2020-07-12T08:05:16Z</time>
      </trkpt>
      <trkpt lat="46.50605" lon="2.50229">
        <ele>262.1</ele>
        <time>2020-07-12T08:05:17Z</time>
      </trkpt>
      <trkpt lat="46.5061" lon="2.5022">
        <ele>260.9</ele>
        <time>2020-07-12T08:05:18Z</time>
      </trkpt>
      <trkpt lat="46.50615" lon="2.50211">
        <ele>260.1</ele>
        <time>2020-07-12T08:05:19Z</time>
      </trkpt>
      <trkpt lat="46.5062" lon="2.50202">
        <ele>259.6</ele>
        <time>2020-07-12T08:05:20Z</time>
      </trkpt>
      <trkpt lat="46.50626" lon="2.50194">
        <ele>259.3</ele>
        <time>2020-07-12T08:05:21Z</time>
      </trkpt>
      <trkpt lat="46.50631" lon="2.50187">
        <ele>258.8</ele>
        <time>2020-07-12T08:05:22Z</time>
      </trkpt>
      <trkpt lat="46.50636" lon="2.50179">
        <ele>258.5</ele>
        <time>2020-07-12T08:05:23Z</time>
      </trkpt>
      <trkpt lat="46.50641" lon="2.50173">
        <ele>258.2</ele>
        <time>2020-07-12T08:05:24Z</time>
      </trkpt>
      <trkpt lat="46.50647" lon="2.50166">
        <ele>257.8</ele>
        <time>2020-07-12T08:05:25Z</time>
      </trkpt>
      <trkpt lat="46.50653" lon="2.5016">
        <ele>257.6</ele>
        <time>2020-07-12T08:05:26Z</time>
      </trkpt>
      <trkpt lat="46.50659" lon="2.50153">
        <ele>257.1</ele>
        <time>2020-07-12T08:05:27Z</time>
      </trkpt>
      <trkpt lat="46.50665" lon="2.50145">
        <ele>256.7</ele>
        <time>2020-07-12T08:05:28Z</time>
      </trkpt>
      <trkpt lat="46.5067" lon="2.50136">
        <ele>256.2</ele>
        <time>2020-07-12T08:05:29Z</time>
      </trkpt>
      <trkpt lat="46.50675" lon="2.50127">
        <ele>255.9</ele>
        <time>2020-07-12T08:05:30Z</time>
      </trkpt>
      <trkpt lat="46.50679" lon="2.50119">
        <ele>255.6</ele>
        <time>2020-07-12T08:05:31Z</time>
      </trkpt>
      <trkpt lat="46.50684" lon="2.50108">
        <ele>252.5</ele>
        <time>2020-07-12T08:05:34Z</time>
      </trkpt>
      <trkpt lat="46.50677" lon="2.501">
        <ele>250.3</ele>
        <time>2020-07-12T08:05:40Z</time>
      </trkpt>
      <trkpt lat="46.50671" lon="2.50095">
        <ele>249.9</ele>
        <time>2020-07-12T08:05:42Z</time>
      </trkpt>
      <trkpt lat="46.50665" lon="2.50089">
        <ele>249.4</ele>
        <time>2020-07-12T08:05:44Z</time>
      </trkpt>
      <trkpt lat="46.50659" lon="2.50082">
        <ele>249.4</ele>
        <time>2020-07-12T08:05:46Z</time>
      </trkpt>
      <trkpt lat="46.50653" lon="2.50076">
        <ele>248.8</ele>
        <time>2020-07-12T08:05:48Z</time>
      </trkpt>
      <trkpt lat="46.50646" lon="2.50069">
        <ele>248.3</ele>
        <time>2020-07-12T08:05:51Z</time>
      </trkpt>
      <trkpt lat="46.5064" lon="2.50062">
        <ele>249.5</ele>
        <time>2020-07-12T08:05:54Z</time>
      </trkpt>
      <trkpt lat="46.50635" lon="2.50055">
        <ele>250.8</ele>
        <time>2020-07-12T08:05:57Z</time>
      </trkpt>
      <trkpt lat="46.50628" lon="2.50047">
        <ele>252.2</ele>
        <time>2020-07-12T08:06:01Z</time>
      </trkpt>
      <trkpt lat="46.50621" lon="2.5004">
        <ele>253.2</ele>
        <time>2020-07-12T08:06:05Z</time>
      </trkpt>
      <trkpt lat="46.50615" lon="2.50034">
        <ele>254.4</ele>
        <time>2020-07-12T08:06:08Z</time>
      </trkpt>
      <trkpt lat="46.50607" lon="2.50027">
        <ele>254.6</ele>
        <time>2020-07-12T08:06:11Z</time>
      </trkpt>
      <trkpt lat="46.506" lon="2.50021">
        <ele>254.9</ele>
        <time>2020-07-12T08:06:14Z</time>
      </trkpt>
      <trkpt lat="46.50593" lon="2.50015">
        <ele>254.7</ele>
        <time>2020-07-12T08:06:17Z</time>
      </trkpt>
      <trkpt lat="46.50585" lon="2.50008">
        <ele>254.7</ele>
        <time>2020-07-12T08:06:20Z</time>
      </trkpt>
      <trkpt lat="46.50579" lon="2.5">
        <ele>255.1</ele>
        <time>2020-07-12T08:06:23Z</time>
      </trkpt>
      <trkpt lat="46.50577" lon="2.49997">
        <ele>255.6</ele>
        <time>2020-07-12T08:06:24Z</time>
      </trkpt>
      <trkpt lat="46.5057" lon="2.49983">
        <ele>255.7</ele>
        <time>2020-07-12T08:06:27Z</time>
      </trkpt>
      <trkpt lat="46.50567" lon="2.49976">
        <ele>255.5</ele>
        <time>2020-07-12T08:06:28Z</time>
      </trkpt>
      <trkpt lat="46.50564" lon="2.49969">
        <ele>254.8</ele>
        <time>2020-07-12T08:06:29Z</time>
      </trkpt>
      <trkpt lat="46.5056" lon="2.49962">
        <ele>254.3</ele>
        <time>2020-07-12T08:06:30Z</time>
      </trkpt>
      <trkpt lat="46.50556" lon="2.49955">
        <ele>253.9</ele>
        <time>2020-07-12T08:06:31Z</time>
      </trkpt>
      <trkpt lat="46.50551" lon="2.4995">
        <ele>253.5</ele>
        <time>2020-07-12T08:06:32Z</time>
      </trkpt>
      <trkpt lat="46.50545" lon="2.49945">
        <ele>253.1</ele>
        <time>2020-07-12T08:06:33Z</time>
      </trkpt>
      <trkpt lat="46.50538" lon="2.49941">
        <ele>252.8</ele>
        <time>2020-07-12T08:06:34Z</time>
      </trkpt>
      <trkpt lat="46.50532" lon="2.49937">
        <ele>252.5</ele>
        <time>2020-07-12T08:06:35Z</time>
      </trkpt>
      <trkpt lat="46.50525" lon="2.49933">
        <ele>251.8</ele>
        <time>2020-07-12T08:06:36Z</time>
      </trkpt>
      <trkpt lat="46.50518" lon="2.49929">
        <ele>251.3</ele>
        <time>2020-07-12T08:06:37Z</time>
      </trkpt>
      <trkpt lat="46.50511" lon="2.49925">
        <ele>250.3</ele>
        <time>2020-07-12T08:06:38Z</time>
      </trkpt>
      <trkpt lat="46.50504" lon="2.49921">
        <ele>249.6</ele>
        <time>2020-07-12T08:06:39Z</time>
      </trkpt>
      <trkpt lat="46.50496" lon="2.49917">
        <ele>249</ele>
        <time>2020-07-12T08:06:40Z</time>
      </trkpt>
      <trkpt lat="46.50488" lon="2.49913">
        <ele>248.6</ele>
        <time>2020-07-12T08:06:41Z</time>
      </trkpt>
      <trkpt lat="46.50481" lon="2.49908">
        <ele>248.2</ele>
        <time>2020-07-12T08:06:42Z</time>
      </trkpt>
      <trkpt lat="46.50473" lon="2.49904">
        <ele>247.7</ele>
        <time>2020-07-12T08:06:43Z</time>
      </trkpt>
      <trkpt lat="46.50466" lon="2.49899">
        <ele>247.4</ele>
        <time>2020-07-12T08:06:44Z</time>
      </trkpt>
      <trkpt lat="46.50458" lon="2.49893">
        <ele>246.8</ele>
        <time>2020-07-12T08:06:45Z</time>
      </trkpt>
      <trkpt lat="46.50452" lon="2.49885">
        <ele>246.4</ele>
        <time>2020-07-12T08:06:46Z</time>
      </trkpt>
      <trkpt lat="46.50446" lon="2.49876">
        <ele>246</ele>
        <time>2020-07-12T08:06:47Z</time>
      </trkpt>
      <trkpt lat="46.50441" lon="2.49867">
        <ele>245.9</ele>
        <time>2020-07-12T08:06:48Z</time>
      </trkpt>
      <trkpt lat="46.50436" lon="2.49857">
        <ele>245.9</ele>
        <time>2020-07-12T08:06:49Z</time>
      </trkpt>
      <trkpt lat="46.50431" lon="2.49848">
        <ele>245.5</ele>
        <time>2020-07-12T08:06:50Z</time>
      </trkpt>
      <trkpt lat="46.50427" lon="2.49839">
        <ele>245.2</ele>
        <time>2020-07-12T08:06:51Z</time>
      </trkpt>
      <trkpt lat="46.50423" lon="2.49831">
        <ele>244.6</ele>
        <time>2020-07-12T08:06:52Z</time>
      </trkpt>
      <trkpt lat="46.5042" lon="2.49823">
        <ele>244.1</ele>
        <time>2020-07-12T08:06:53Z</time>
      </trkpt>
      <trkpt lat="46.5042" lon="2.49816">
        <ele>243.8</ele>
        <time>2020-07-12T08:06:54Z</time>
      </trkpt>
      <trkpt lat="46.50421" lon="2.49808">
        <ele>243.3</ele>
        <time>2020-07-12T08:06:55Z</time>
      </trkpt>
      <trkpt lat="46.50423" lon="2.49801">
        <ele>242.9</ele>
        <time>2020-07-12T08:06:56Z</time>
      </trkpt>
      <trkpt lat="46.50425" lon="2.49793">
        <ele>242.2</ele>
        <time>2020-07-12T08:06:57Z</time>
      </trkpt>
      <trkpt lat="46.50428" lon="2.49785">
        <ele>241.7</ele>
        <time>2020-07-12T08:06:58Z</time>
      </trkpt>
      <trkpt lat="46.50429" lon="2.49777">
        <ele>241.3</ele>
        <time>2020-07-12T08:06:59Z</time>
      </trkpt>
      <trkpt lat="46.50431" lon="2.49769">
        <ele>240.8</ele>
        <time>2020-07-12T08:07:00Z</time>
      </trkpt>
      <trkpt lat="46.50432" lon="2.49762">
        <ele>240.5</ele>
        <time>2020-07-12T08:07:01Z</time>
      </trkpt>
      <trkpt lat="46.50433" lon="2.49754">
        <ele>239.9</ele>
        <time>2020-07-12T08:07:02Z</time>
      </trkpt>
      <trkpt lat="46.50436" lon="2.49743">
        <ele>239.2</ele>
        <time>2020-07-12T08:07:04Z</time>
      </trkpt>
      <trkpt lat="46.50438" lon="2.49734">
        <ele>238.9</ele>
        <time>2020-07-12T08:07:06Z</time>
      </trkpt>
      <trkpt lat="46.50442" lon="2.49724">
        <ele>238.5</ele>
        <time>2020-07-12T08:07:09Z</time>
      </trkpt>
      <trkpt lat="46.50443" lon="2.49712">
        <ele>238.4</ele>
        <time>2020-07-12T08:07:12Z</time>
      </trkpt>
      <trkpt lat="46.50443" lon="2.49701">
        <ele>238.5</ele>
        <time>2020-07-12T08:07:15Z</time>
      </trkpt>
      <trkpt lat="46.50444" lon="2.49689">
        <ele>237.4</ele>
        <time>2020-07-12T08:07:18Z</time>
      </trkpt>
      <trkpt lat="46.50445" lon="2.49679">
        <ele>237.7</ele>
        <time>2020-07-12T08:07:21Z</time>
      </trkpt>
      <trkpt lat="46.50447" lon="2.49667">
        <ele>237.9</ele>
        <time>2020-07-12T08:07:25Z</time>
      </trkpt>
      <trkpt lat="46.50448" lon="2.49664">
        <ele>238.3</ele>
        <time>2020-07-12T08:07:26Z</time>
      </trkpt>
      <trkpt lat="46.5045" lon="2.49645">
        <ele>240.6</ele>
        <time>2020-07-12T08:07:32Z</time>
      </trkpt>
      <trkpt lat="46.50451" lon="2.49634">
        <ele>240.7</ele>
        <time>2020-07-12T08:07:35Z</time>
      </trkpt>
      <trkpt lat="46.50451" lon="2.49624">
        <ele>241.1</ele>
        <time>2020-07-12T08:07:38Z</time>
      </trkpt>
      <trkpt lat="46.50451" lon="2.49613">
        <ele>241.6</ele>
        <time>2020-07-12T08:07:41Z</time>
      </trkpt>
      <trkpt lat="46.5045" lon="2.49602">
        <ele>244.2</ele>
        <time>2020-07-12T08:07:45Z</time>
      </trkpt>
      <trkpt lat="46.50449" lon="2.4959">
        <ele>245.1</ele>
        <time>2020-07-12T08:07:49Z</time>
      </trkpt>
      <trkpt lat="46.50447" lon="2.49578">
        <ele>246.6</ele>
        <time>2020-07-12T08:07:53Z</time>
      </trkpt>
      <trkpt lat="46.50444" lon="2.49566">
        <ele>246</ele>
        <time>2020-07-12T08:07:57Z</time>
      </trkpt>
      <trkpt lat="46.50441" lon="2.49556">
        <ele>246.9</ele>
        <time>2020-07-12T08:08:00Z</time>
      </trkpt>
      <trkpt lat="46.50437" lon="2.49548">
        <ele>247.6</ele>
        <time>2020-07-12T08:08:03Z</time>
      </trkpt>
      <trkpt lat="46.50433" lon="2.49539">
        <ele>247.5</ele>
        <time>2020-07-12T08:08:06Z</time>
      </trkpt>
      <trkpt lat="46.50429" lon="2.49531">
        <ele>248.6</ele>
        <time>2020-07-12T08:08:09Z</time>
      </trkpt>
      <trkpt lat="46.50425" lon="2.49522">
        <ele>249.1</ele>
        <time>2020-07-12T08:08:12Z</time>
      </trkpt>
      <trkpt lat="46.50419" lon="2.49513">
        <ele>249.5</ele>
        <time>2020-07-12T08:08:16Z</time>
      </trkpt>
      <trkpt lat="46.50413" lon="2.49505">
        <ele>250</ele>
        <time>2020-07-12T08:08:19Z</time>
      </trkpt>
      <trkpt lat="46.50407" lon="2.49497">
        <ele>251</ele>
        <time>2020-07-12T08:08:22Z</time>
      </trkpt>
      <trkpt lat="46.504" lon="2.4949">
        <ele>251.7</ele>
        <time>2020-07-12T08:08:25Z</time>
      </trkpt>
      <trkpt lat="46.50394" lon="2.49482">
        <ele>251.8</ele>
        <time>2020-07-12T08:08:28Z</time>
      </trkpt>
      <trkpt lat="46.50391" lon="2.4948">
        <ele>251.9</ele>
        <time>2020-07-12T08:08:29Z</time>
      </trkpt>
      <trkpt lat="46.50382" lon="2.4947">
        <ele>252.4</ele>
        <time>2020-07-12T08:08:33Z</time>
      </trkpt>
      <trkpt lat="46.50375" lon="2.49462">
        <ele>252.9</ele>
        <time>2020-07-12T08:08:36Z</time>
      </trkpt>
      <trkpt lat="46.50369" lon="2.49455">
        <ele>253.9</ele>
        <time>2020-07-12T08:08:39Z</time>
      </trkpt>
      <trkpt lat="46.50362" lon="2.49447">
        <ele>254.9</ele>
        <time>2020-07-12T08:08:42Z</time>
      </trkpt>
      <trkpt lat="46.50356" lon="2.49439">
        <ele>255</ele>
        <time>2020-07-12T08:08:45Z</time>
      </trkpt>
      <trkpt lat="46.5035" lon="2.4943">
        <ele>255.4</ele>
        <time>2020-07-12T08:08:48Z</time>
      </trkpt>
      <trkpt lat="46.50345" lon="2.49421">
        <ele>256.4</ele>
        <time>2020-07-12T08:08:51Z</time>
      </trkpt>
      <trkpt lat="46.50339" lon="2.49412">
        <ele>257.1</ele>
        <time>2020-07-12T08:08:54Z</time>
      </trkpt>
      <trkpt lat="46.50333" lon="2.49402">
        <ele>257.2</ele>
        <time>2020-07-12T08:08:57Z</time>
      </trkpt>
      <trkpt lat="46.50328" lon="2.49393">
        <ele>257.8</ele>
        <time>2020-07-12T08:09:00Z</time>
      </trkpt>
      <trkpt lat="46.50323" lon="2.49384">
        <ele>258</ele>
        <time>2020-07-12T08:09:03Z</time>
      </trkpt>
      <trkpt lat="46.50317" lon="2.49374">
        <ele>258.2</ele>
        <time>2020-07-12T08:09:06Z</time>
      </trkpt>
      <trkpt lat="46.50312" lon="2.49364">
        <ele>258.1</ele>
        <time>2020-07-12T08:09:09Z</time>
      </trkpt>
      <trkpt lat="46.50306" lon="2.49354">
        <ele>259.3</ele>
        <time>2020-07-12T08:09:12Z</time>
      </trkpt>
      <trkpt lat="46.50302" lon="2.49344">
        <ele>260.2</ele>
        <time>2020-07-12T08:09:15Z</time>
      </trkpt>
      <trkpt lat="46.50298" lon="2.49332">
        <ele>260.9</ele>
        <time>2020-07-12T08:09:18Z</time>
      </trkpt>
      <trkpt lat="46.50295" lon="2.49321">
        <ele>260.9</ele>
        <time>2020-07-12T08:09:21Z</time>
      </trkpt>
      <trkpt lat="46.50291" lon="2.49309">
        <ele>262.1</ele>
        <time>2020-07-12T08:09:24Z</time>
      </trkpt>
      <trkpt lat="46.50288" lon="2.49298">
        <ele>262.3</ele>
        <time>2020-07-12T08:09:27Z</time>
      </trkpt>
      <trkpt lat="46.50284" lon="2.49287">
        <ele>262.3</ele>
        <time>2020-07-12T08:09:30Z</time>
      </trkpt>
      <trkpt lat="46.50283" lon="2.49283">
        <ele>262.6</ele>
        <time>2020-07-12T08:09:31Z</time>
      </trkpt>
      <trkpt lat="46.50278" lon="2.49268">
        <ele>263.5</ele>
        <time>2020-07-12T08:09:35Z</time>
      </trkpt>
      <trkpt lat="46.50275" lon="2.49256">
        <ele>264.1</ele>
        <time>2020-07-12T08:09:38Z</time>
      </trkpt>
      <trkpt lat="46.50273" lon="2.49248">
        <ele>264.7</ele>
        <time>2020-07-12T08:09:40Z</time>
      </trkpt>
      <trkpt lat="46.5027" lon="2.4924">
        <ele>264.9</ele>
        <time>2020-07-12T08:09:42Z</time>
      </trkpt>
      <trkpt lat="46.50268" lon="2.49232">
        <ele>264.8</ele>
        <time>2020-07-12T08:09:44Z</time>
      </trkpt>
      <trkpt lat="46.50265" lon="2.49224">
        <ele>265</ele>
        <time>2020-07-12T08:09:46Z</time>
      </trkpt>
      <trkpt lat="46.50263" lon="2.49216">
        <ele>265.3</ele>
        <time>2020-07-12T08:09:48Z</time>
      </trkpt>
      <trkpt lat="46.50261" lon="2.49207">
        <ele>265.7</ele>
        <time>2020-07-12T08:09:50Z</time>
      </trkpt>
      <trkpt lat="46.50258" lon="2.49198">
        <ele>266.2</ele>
        <time>2020-07-12T08:09:52Z</time>
      </trkpt>
      <trkpt lat="46.50256" lon="2.4919">
        <ele>266.3</ele>
        <time>2020-07-12T08:09:54Z</time>
      </trkpt>
      <trkpt lat="46.50253" lon="2.49181">
        <ele>266.8</ele>
        <time>2020-07-12T08:09:56Z</time>
      </trkpt>
      <trkpt lat="46.50251" lon="2.49172">
        <ele>267.3</ele>
        <time>2020-07-12T08:09:58Z</time>
      </trkpt>
      <trkpt lat="46.50249" lon="2.49164">
        <ele>267.9</ele>
        <time>2020-07-12T08:10:00Z</time>
      </trkpt>
      <trkpt lat="46.50246" lon="2.49155">
        <ele>268.4</ele>
        <time>2020-07-12T08:10:02Z</time>
      </trkpt>
      <trkpt lat="46.50244" lon="2.49147">
        <ele>268.6</ele>
        <time>2020-07-12T08:10:04Z</time>
      </trkpt>
      <trkpt lat="46.50242" lon="2.49138">
        <ele>268.6</ele>
        <time>2020-07-12T08:10:06Z</time>
      </trkpt>
      <trkpt lat="46.50239" lon="2.49126">
        <ele>269</ele>
        <time>2020-07-12T08:10:09Z</time>
      </trkpt>
      <trkpt lat="46.50235" lon="2.49115">
        <ele>269.4</ele>
        <time>2020-07-12T08:10:12Z</time>
      </trkpt>
      <trkpt lat="46.50233" lon="2.49106">
        <ele>269.8</ele>
        <time>2020-07-12T08:10:14Z</time>
      </trkpt>
      <trkpt lat="46.5023" lon="2.49098">
        <ele>269.6</ele>
        <time>2020-07-12T08:10:16Z</time>
      </trkpt>
      <trkpt lat="46.50228" lon="2.4909">
        <ele>270</ele>
        <time>2020-07-12T08:10:18Z</time>
      </trkpt>
      <trkpt lat="46.50226" lon="2.49082">
        <ele>270.7</ele>
        <time>2020-07-12T08:10:20Z</time>
      </trkpt>
      <trkpt lat="46.50223" lon="2.49073">
        <ele>271.9</ele>
        <time>2020-07-12T08:10:22Z</time>
      </trkpt>
      <trkpt lat="46.5022" lon="2.49065">
        <ele>272.5</ele>
        <time>2020-07-12T08:10:24Z</time>
      </trkpt>
      <trkpt lat="46.50217" lon="2.49054">
        <ele>272.8</ele>
        <time>2020-07-12T08:10:27Z</time>
      </trkpt>
      <trkpt lat="46.50213" lon="2.49043">
        <ele>272.4</ele>
        <time>2020-07-12T08:10:30Z</time>
      </trkpt>
      <trkpt lat="46.50209" lon="2.49032">
        <ele>272.9</ele>
        <time>2020-07-12T08:10:33Z</time>
      </trkpt>
      <trkpt lat="46.50208" lon="2.49028">
        <ele>273.1</ele>
        <time>2020-07-12T08:10:34Z</time>
      </trkpt>
      <trkpt lat="46.50201" lon="2.49009">
        <ele>273</ele>
        <time>2020-07-12T08:10:39Z</time>
      </trkpt>
      <trkpt lat="46.50198" lon="2.48998">
        <ele>273.4</ele>
        <time>2020-07-12T08:10:42Z</time>
      </trkpt>
      <trkpt lat="46.50193" lon="2.48985">
        <ele>273</ele>
        <time>2020-07-12T08:10:45Z</time>
      </trkpt>
      <trkpt lat="46.50187" lon="2.4897">
        <ele>273</ele>
        <time>2020-07-12T08:10:49Z</time>
      </trkpt>
      <trkpt lat="46.50183" lon="2.48961">
        <ele>274</ele>
        <time>2020-07-12T08:10:52Z</time>
      </trkpt>
      <trkpt lat="46.5018" lon="2.48953">
        <ele>274.4</ele>
        <time>2020-07-12T08:10:54Z</time>
      </trkpt>
      <trkpt lat="46.50177" lon="2.48945">
        <ele>274.8</ele>
        <time>2020-07-12T08:10:56Z</time>
      </trkpt>
      <trkpt lat="46.50174" lon="2.48937">
        <ele>275.9</ele>
        <time>2020-07-12T08:10:58Z</time>
      </trkpt>
      <trkpt lat="46.5017" lon="2.48929">
        <ele>276</ele>
        <time>2020-07-12T08:11:00Z</time>
      </trkpt>
      <trkpt lat="46.50167" lon="2.48921">
        <ele>276.4</ele>
        <time>2020-07-12T08:11:02Z</time>
      </trkpt>
      <trkpt lat="46.50165" lon="2.48913">
        <ele>276.7</ele>
        <time>2020-07-12T08:11:04Z</time>
      </trkpt>
      <trkpt lat="46.50162" lon="2.48905">
        <ele>276.6</ele>
        <time>2020-07-12T08:11:06Z</time>
      </trkpt>
      <trkpt lat="46.50159" lon="2.48896">
        <ele>276.3</ele>
        <time>2020-07-12T08:11:08Z</time>
      </trkpt>
      <trkpt lat="46.50156" lon="2.48888">
        <ele>277</ele>
        <time>2020-07-12T08:11:10Z</time>
      </trkpt>
      <trkpt lat="46.50154" lon="2.48879">
        <ele>277.4</ele>
        <time>2020-07-12T08:11:12Z</time>
      </trkpt>
      <trkpt lat="46.50151" lon="2.48871">
        <ele>277.1</ele>
        <time>2020-07-12T08:11:14Z</time>
      </trkpt>
      <trkpt lat="46.50148" lon="2.48862">
        <ele>277</ele>
        <time>2020-07-12T08:11:16Z</time>
      </trkpt>
      <trkpt lat="46.50145" lon="2.48854">
        <ele>277</ele>
        <time>2020-07-12T08:11:18Z</time>
      </trkpt>
      <trkpt lat="46.50142" lon="2.48845">
        <ele>276.9</ele>
        <time>2020-07-12T08:11:20Z</time>
      </trkpt>
      <trkpt lat="46.50138" lon="2.48837">
        <ele>277</ele>
        <time>2020-07-12T08:11:22Z</time>
      </trkpt>
      <trkpt lat="46.50136" lon="2.48828">
        <ele>277.7</ele>
        <time>2020-07-12T08:11:24Z</time>
      </trkpt>
      <trkpt lat="46.50133" lon="2.48819">
        <ele>277.9</ele>
        <time>2020-07-12T08:11:26Z</time>
      </trkpt>
      <trkpt lat="46.5013" lon="2.48809">
        <ele>278</ele>
        <time>2020-07-12T08:11:28Z</time>
      </trkpt>
      <trkpt lat="46.50126" lon="2.488">
        <ele>278.4</ele>
        <time>2020-07-12T08:11:30Z</time>
      </trkpt>
      <trkpt lat="46.50123" lon="2.48791">
        <ele>279</ele>
        <time>2020-07-12T08:11:32Z</time>
      </trkpt>
      <trkpt lat="46.50121" lon="2.48783">
        <ele>279.4</ele>
        <time>2020-07-12T08:11:34Z</time>
      </trkpt>
      <trkpt lat="46.50119" lon="2.48778">
        <ele>279.1</ele>
        <time>2020-07-12T08:11:35Z</time>
      </trkpt>
      <trkpt lat="46.50115" lon="2.48765">
        <ele>278.9</ele>
        <time>2020-07-12T08:11:38Z</time>
      </trkpt>
      <trkpt lat="46.50113" lon="2.48757">
        <ele>279.4</ele>
        <time>2020-07-12T08:11:40Z</time>
      </trkpt>
      <trkpt lat="46.5011" lon="2.48749">
        <ele>279.9</ele>
        <time>2020-07-12T08:11:42Z</time>
      </trkpt>
      <trkpt lat="46.50107" lon="2.4874">
        <ele>280.1</ele>
        <time>2020-07-12T08:11:44Z</time>
      </trkpt>
      <trkpt lat="46.50103" lon="2.48729">
        <ele>280.1</ele>
        <time>2020-07-12T08:11:47Z</time>
      </trkpt>
      <trkpt lat="46.50099" lon="2.48719">
        <ele>279.6</ele>
        <time>2020-07-12T08:11:50Z</time>
      </trkpt>
      <trkpt lat="46.50096" lon="2.48709">
        <ele>280.8</ele>
        <time>2020-07-12T08:11:54Z</time>
      </trkpt>
      <trkpt lat="46.50094" lon="2.48699">
        <ele>280.6</ele>
        <time>2020-07-12T08:11:57Z</time>
      </trkpt>
      <trkpt lat="46.5009" lon="2.48689">
        <ele>280.8</ele>
        <time>2020-07-12T08:12:00Z</time>
      </trkpt>
      <trkpt lat="46.50087" lon="2.48682">
        <ele>280.4</ele>
        <time>2020-07-12T08:12:02Z</time>
      </trkpt>
      <trkpt lat="46.50084" lon="2.48673">
        <ele>280.1</ele>
        <time>2020-07-12T08:12:04Z</time>
      </trkpt>
      <trkpt lat="46.50081" lon="2.48663">
        <ele>280</ele>
        <time>2020-07-12T08:12:06Z</time>
      </trkpt>
      <trkpt lat="46.50078" lon="2.48654">
        <ele>279.9</ele>
        <time>2020-07-12T08:12:08Z</time>
      </trkpt>
      <trkpt lat="46.50075" lon="2.48645">
        <ele>280</ele>
        <time>2020-07-12T08:12:10Z</time>
      </trkpt>
      <trkpt lat="46.50072" lon="2.48636">
        <ele>280</ele>
        <time>2020-07-12T08:12:12Z</time>
      </trkpt>
      <trkpt lat="46.50069" lon="2.48627">
        <ele>280.4</ele>
        <time>2020-07-12T08:12:14Z</time>
      </trkpt>
      <trkpt lat="46.50065" lon="2.48618">
        <ele>280.2</ele>
        <time>2020-07-12T08:12:16Z</time>
      </trkpt>
      <trkpt lat="46.50062" lon="2.48607">
        <ele>279.8</ele>
        <time>2020-07-12T08:12:18Z</time>
      </trkpt>
      <trkpt lat="46.50058" lon="2.48596">
        <ele>279.6</ele>
        <time>2020-07-12T08:12:20Z</time>
      </trkpt>
      <trkpt lat="46.50056" lon="2.4859">
        <ele>279.7</ele>
        <time>2020-07-12T08:12:21Z</time>
      </trkpt>
      <trkpt lat="46.50053" lon="2.48583">
        <ele>279.6</ele>
        <time>2020-07-12T08:12:22Z</time>
      </trkpt>
      <trkpt lat="46.5005" lon="2.48577">
        <ele>279.6</ele>
        <time>2020-07-12T08:12:23Z</time>
      </trkpt>
      <trkpt lat="46.50048" lon="2.4857">
        <ele>279.6</ele>
        <time>2020-07-12T08:12:24Z</time>
      </trkpt>
      <trkpt lat="46.50045" lon="2.48563">
        <ele>279.4</ele>
        <time>2020-07-12T08:12:25Z</time>
      </trkpt>
      <trkpt lat="46.50042" lon="2.48555">
        <ele>279.2</ele>
        <time>2020-07-12T08:12:26Z</time>
      </trkpt>
      <trkpt lat="46.50039" lon="2.48547">
        <ele>278.5</ele>
        <time>2020-07-12T08:12:27Z</time>
      </trkpt>
      <trkpt lat="46.50036" lon="2.48539">
        <ele>278</ele>
        <time>2020-07-12T08:12:28Z</time>
      </trkpt>
      <trkpt lat="46.50032" lon="2.4853">
        <ele>277.8</ele>
        <time>2020-07-12T08:12:29Z</time>
      </trkpt>
      <trkpt lat="46.50029" lon="2.48522">
        <ele>277.6</ele>
        <time>2020-07-12T08:12:30Z</time>
      </trkpt>
      <trkpt lat="46.50025" lon="2.48513">
        <ele>277.5</ele>
        <time>2020-07-12T08:12:31Z</time>
      </trkpt>
      <trkpt lat="46.50021" lon="2.48504">
        <ele>277</ele>
        <time>2020-07-12T08:12:32Z</time>
      </trkpt>
      <trkpt lat="46.50017" lon="2.48494">
        <ele>276.6</ele>
        <time>2020-07-12T08:12:33Z</time>
      </trkpt>
      <trkpt lat="46.50012" lon="2.48485">
        <ele>276.4</ele>
        <time>2020-07-12T08:12:34Z</time>
      </trkpt>
      <trkpt lat="46.50008" lon="2.48476">
        <ele>276.3</ele>
        <time>2020-07-12T08:12:35Z</time>
      </trkpt>
      <trkpt lat="46.50004" lon="2.48466">
        <ele>276.2</ele>
        <time>2020-07-12T08:12:36Z</time>
      </trkpt>
      <trkpt lat="46.49999" lon="2.48456">
        <ele>275.9</ele>
        <time>2020-07-12T08:12:37Z</time>
      </trkpt>
      <trkpt lat="46.49995" lon="2.48445">
        <ele>275.6</ele>
        <time>2020-07-12T08:12:38Z</time>
      </trkpt>
      <trkpt lat="46.4999" lon="2.48434">
        <ele>274.7</ele>
        <time>2020-07-12T08:12:39Z</time>
      </trkpt>
      <trkpt lat="46.49984" lon="2.48423">
        <ele>274</ele>
        <time>2020-07-12T08:12:40Z</time>
      </trkpt>
      <trkpt lat="46.49978" lon="2.48412">
        <ele>273.4</ele>
        <time>2020-07-12T08:12:41Z</time>
      </trkpt>
      <trkpt lat="46.49972" lon="2.48401">
        <ele>273</ele>
        <time>2020-07-12T08:12:42Z</time>
      </trkpt>
      <trkpt lat="46.49965" lon="2.48391">
        <ele>272.7</ele>
        <time>2020-07-12T08:12:43Z</time>
      </trkpt>
      <trkpt lat="46.49958" lon="2.48381">
        <ele>271.8</ele>
        <time>2020-07-12T08:12:44Z</time>
      </trkpt>
      <trkpt lat="46.4995" lon="2.48372">
        <ele>271.1</ele>
        <time>2020-07-12T08:12:45Z</time>
      </trkpt>
      <trkpt lat="46.49943" lon="2.48363">
        <ele>270.7</ele>
        <time>2020-07-12T08:12:46Z</time>
      </trkpt>
      <trkpt lat="46.49937" lon="2.48354">
        <ele>270.5</ele>
        <time>2020-07-12T08:12:47Z</time>
      </trkpt>
      <trkpt lat="46.49932" lon="2.48344">
        <ele>270.6</ele>
        <time>2020-07-12T08:12:48Z</time>
      </trkpt>
      <trkpt lat="46.49927" lon="2.48334">
        <ele>270.7</ele>
        <time>2020-07-12T08:12:49Z</time>
      </trkpt>
      <trkpt lat="46.49923" lon="2.48325">
        <ele>270.7</ele>
        <time>2020-07-12T08:12:50Z</time>
      </trkpt>
      <trkpt lat="46.49919" lon="2.48318">
        <ele>270.1</ele>
        <time>2020-07-12T08:12:51Z</time>
      </trkpt>
      <trkpt lat="46.49914" lon="2.48312">
        <ele>269.7</ele>
        <time>2020-07-12T08:12:52Z</time>
      </trkpt>
      <trkpt lat="46.4991" lon="2.48307">
        <ele>269.4</ele>
        <time>2020-07-12T08:12:53Z</time>
      </trkpt>
      <trkpt lat="46.49906" lon="2.48303">
        <ele>269.2</ele>
        <time>2020-07-12T08:12:54Z</time>
      </trkpt>
      <trkpt lat="46.49902" lon="2.48298">
        <ele>269.5</ele>
        <time>2020-07-12T08:12:55Z</time>
      </trkpt>
      <trkpt lat="46.499" lon="2.48292">
        <ele>269.7</ele>
        <time>2020-07-12T08:12:56Z</time>
      </trkpt>
      <trkpt lat="46.49898" lon="2.48286">
        <ele>269.8</ele>
        <time>2020-07-12T08:12:57Z</time>
      </trkpt>
      <trkpt lat="46.49898" lon="2.48279">
        <ele>269.6</ele>
        <time>2020-07-12T08:12:58Z</time>
      </trkpt>
      <trkpt lat="46.49898" lon="2.48272">
        <ele>269.4</ele>
        <time>2020-07-12T08:12:59Z</time>
      </trkpt>
      <trkpt lat="46.499" lon="2.48259">
        <ele>270.5</ele>
        <time>2020-07-12T08:13:01Z</time>
      </trkpt>
      <trkpt lat="46.49899" lon="2.48247">
        <ele>270.8</ele>
        <time>2020-07-12T08:13:03Z</time>
      </trkpt>
      <trkpt lat="46.49898" lon="2.48234">
        <ele>270.6</ele>
        <time>2020-07-12T08:13:05Z</time>
      </trkpt>
      <trkpt lat="46.49896" lon="2.48222">
        <ele>270.7</ele>
        <time>2020-07-12T08:13:07Z</time>
      </trkpt>
      <trkpt lat="46.49894" lon="2.4821">
        <ele>271</ele>
        <time>2020-07-12T08:13:09Z</time>
      </trkpt>
      <trkpt lat="46.49893" lon="2.48199">
        <ele>271.1</ele>
        <time>2020-07-12T08:13:11Z</time>
      </trkpt>
      <trkpt lat="46.49891" lon="2.48188">
        <ele>271</ele>
        <time>2020-07-12T08:13:13Z</time>
      </trkpt>
      <trkpt lat="46.49889" lon="2.48177">
        <ele>270.7</ele>
        <time>2020-07-12T08:13:15Z</time>
      </trkpt>
      <trkpt lat="46.49886" lon="2.48167">
        <ele>270.3</ele>
        <time>2020-07-12T08:13:17Z</time>
      </trkpt>
      <trkpt lat="46.49884" lon="2.48156">
        <ele>270.7</ele>
        <time>2020-07-12T08:13:19Z</time>
      </trkpt>
      <trkpt lat="46.49882" lon="2.48146">
        <ele>271.6</ele>
        <time>2020-07-12T08:13:21Z</time>
      </trkpt>
      <trkpt lat="46.49879" lon="2.48134">
        <ele>272.1</ele>
        <time>2020-07-12T08:13:23Z</time>
      </trkpt>
      <trkpt lat="46.49877" lon="2.48123">
        <ele>271.9</ele>
        <time>2020-07-12T08:13:25Z</time>
      </trkpt>
      <trkpt lat="46.49875" lon="2.48112">
        <ele>272.4</ele>
        <time>2020-07-12T08:13:27Z</time>
      </trkpt>
      <trkpt lat="46.49873" lon="2.48102">
        <ele>272.4</ele>
        <time>2020-07-12T08:13:29Z</time>
      </trkpt>
      <trkpt lat="46.49871" lon="2.48092">
        <ele>272.6</ele>
        <time>2020-07-12T08:13:31Z</time>
      </trkpt>
      <trkpt lat="46.49869" lon="2.48081">
        <ele>272.9</ele>
        <time>2020-07-12T08:13:33Z</time>
      </trkpt>
      <trkpt lat="46.49867" lon="2.48071">
        <ele>272.9</ele>
        <time>2020-07-12T08:13:35Z</time>
      </trkpt>
      <trkpt lat="46.49864" lon="2.48061">
        <ele>273.2</ele>
        <time>2020-07-12T08:13:37Z</time>
      </trkpt>
      <trkpt lat="46.49863" lon="2.48056">
        <ele>273.4</ele>
        <time>2020-07-12T08:13:38Z</time>
      </trkpt>
      <trkpt lat="46.4986" lon="2.48042">
        <ele>273.5</ele>
        <time>2020-07-12T08:13:41Z</time>
      </trkpt>
      <trkpt lat="46.49857" lon="2.48033">
        <ele>273.7</ele>
        <time>2020-07-12T08:13:43Z</time>
      </trkpt>
      <trkpt lat="46.49854" lon="2.48024">
        <ele>274.4</ele>
        <time>2020-07-12T08:13:45Z</time>
      </trkpt>
      <trkpt lat="46.49851" lon="2.48014">
        <ele>274.9</ele>
        <time>2020-07-12T08:13:47Z</time>
      </trkpt>
      <trkpt lat="46.49849" lon="2.48006">
        <ele>274.9</ele>
        <time>2020-07-12T08:13:49Z</time>
      </trkpt>
      <trkpt lat="46.49846" lon="2.47997">
        <ele>274.7</ele>
        <time>2020-07-12T08:13:51Z</time>
      </trkpt>
      <trkpt lat="46.49844" lon="2.47988">
        <ele>275.4</ele>
        <time>2020-07-12T08:13:53Z</time>
      </trkpt>
      <trkpt lat="46.49842" lon="2.47979">
        <ele>275.8</ele>
        <time>2020-07-12T08:13:55Z</time>
      </trkpt>
      <trkpt lat="46.49839" lon="2.47971">
        <ele>275.7</ele>
        <time>2020-07-12T08:13:57Z</time>
      </trkpt>
      <trkpt lat="46.49837" lon="2.47961">
        <ele>275.3</ele>
        <time>2020-07-12T08:13:59Z</time>
      </trkpt>
      <trkpt lat="46.49834" lon="2.47952">
        <ele>276.1</ele>
        <time>2020-07-12T08:14:01Z</time>
      </trkpt>
      <trkpt lat="46.49832" lon="2.47943">
        <ele>277</ele>
        <time>2020-07-12T08:14:03Z</time>
      </trkpt>
      <trkpt lat="46.49829" lon="2.47934">
        <ele>276.8</ele>
        <time>2020-07-12T08:14:05Z</time>
      </trkpt>
      <trkpt lat="46.49827" lon="2.47925">
        <ele>277.2</ele>
        <time>2020-07-12T08:14:07Z</time>
      </trkpt>
      <trkpt lat="46.49825" lon="2.47916">
        <ele>278.1</ele>
        <time>2020-07-12T08:14:09Z</time>
      </trkpt>
      <trkpt lat="46.49822" lon="2.47907">
        <ele>278.2</ele>
        <time>2020-07-12T08:14:11Z</time>
      </trkpt>
      <trkpt lat="46.4982" lon="2.47898">
        <ele>278</ele>
        <time>2020-07-12T08:14:13Z</time>
      </trkpt>
      <trkpt lat="46.49817" lon="2.47889">
        <ele>278.3</ele>
        <time>2020-07-12T08:14:15Z</time>
      </trkpt>
      <trkpt lat="46.49814" lon="2.47879">
        <ele>279</ele>
        <time>2020-07-12T08:14:17Z</time>
      </trkpt>
      <trkpt lat="46.49812" lon="2.4787">
        <ele>279.9</ele>
        <time>2020-07-12T08:14:19Z</time>
      </trkpt>
      <trkpt lat="46.49809" lon="2.47861">
        <ele>280.3</ele>
        <time>2020-07-12T08:14:21Z</time>
      </trkpt>
      <trkpt lat="46.49806" lon="2.47852">
        <ele>280.3</ele>
        <time>2020-07-12T08:14:23Z</time>
      </trkpt>
      <trkpt lat="46.49803" lon="2.47842">
        <ele>280.3</ele>
        <time>2020-07-12T08:14:25Z</time>
      </trkpt>
      <trkpt lat="46.49801" lon="2.47833">
        <ele>280.6</ele>
        <time>2020-07-12T08:14:27Z</time>
      </trkpt>
      <trkpt lat="46.49798" lon="2.47824">
        <ele>280.8</ele>
        <time>2020-07-12T08:14:29Z</time>
      </trkpt>
      <trkpt lat="46.49795" lon="2.47814">
        <ele>281.1</ele>
        <time>2020-07-12T08:14:31Z</time>
      </trkpt>
      <trkpt lat="46.49792" lon="2.47804">
        <ele>281.2</ele>
        <time>2020-07-12T08:14:33Z</time>
      </trkpt>
      <trkpt lat="46.49789" lon="2.47795">
        <ele>281.5</ele>
        <time>2020-07-12T08:14:35Z</time>
      </trkpt>
      <trkpt lat="46.49786" lon="2.47786">
        <ele>281.9</ele>
        <time>2020-07-12T08:14:37Z</time>
      </trkpt>
      <trkpt lat="46.49783" lon="2.47776">
        <ele>281.5</ele>
        <time>2020-07-12T08:14:39Z</time>
      </trkpt>
      <trkpt lat="46.49782" lon="2.47771">
        <ele>281.7</ele>
        <time>2020-07-12T08:14:40Z</time>
      </trkpt>
      <trkpt lat="46.49777" lon="2.47757">
        <ele>282.1</ele>
        <time>2020-07-12T08:14:43Z</time>
      </trkpt>
      <trkpt lat="46.49775" lon="2.47747">
        <ele>282.3</ele>
        <time>2020-07-12T08:14:45Z</time>
      </trkpt>
      <trkpt lat="46.49772" lon="2.47738">
        <ele>282.1</ele>
        <time>2020-07-12T08:14:47Z</time>
      </trkpt>
      <trkpt lat="46.49769" lon="2.47729">
        <ele>281.8</ele>
        <time>2020-07-12T08:14:49Z</time>
      </trkpt>
      <trkpt lat="46.49766" lon="2.4772">
        <ele>281.7</ele>
        <time>2020-07-12T08:14:51Z</time>
      </trkpt>
      <trkpt lat="46.49763" lon="2.47711">
        <ele>281.7</ele>
        <time>2020-07-12T08:14:53Z</time>
      </trkpt>
      <trkpt lat="46.4976" lon="2.47702">
        <ele>282.8</ele>
        <time>2020-07-12T08:14:55Z</time>
      </trkpt>
      <trkpt lat="46.49758" lon="2.47693">
        <ele>283</ele>
        <time>2020-07-12T08:14:57Z</time>
      </trkpt>
      <trkpt lat="46.49755" lon="2.47684">
        <ele>283.1</ele>
        <time>2020-07-12T08:14:59Z</time>
      </trkpt>
      <trkpt lat="46.49752" lon="2.47675">
        <ele>283.4</ele>
        <time>2020-07-12T08:15:01Z</time>
      </trkpt>
      <trkpt lat="46.49749" lon="2.47666">
        <ele>283.3</ele>
        <time>2020-07-12T08:15:03Z</time>
      </trkpt>
      <trkpt lat="46.49746" lon="2.47658">
        <ele>283.8</ele>
        <time>2020-07-12T08:15:05Z</time>
      </trkpt>
      <trkpt lat="46.49743" lon="2.47649">
        <ele>283.5</ele>
        <time>2020-07-12T08:15:07Z</time>
      </trkpt>
      <trkpt lat="46.4974" lon="2.4764">
        <ele>284.9</ele>
        <time>2020-07-12T08:15:09Z</time>
      </trkpt>
      <trkpt lat="46.49738" lon="2.47632">
        <ele>285.7</ele>
        <time>2020-07-12T08:15:11Z</time>
      </trkpt>
      <trkpt lat="46.49735" lon="2.47623">
        <ele>286.1</ele>
        <time>2020-07-12T08:15:13Z</time>
      </trkpt>
      <trkpt lat="46.49732" lon="2.47615">
        <ele>286.2</ele>
        <time>2020-07-12T08:15:15Z</time>
      </trkpt>
      <trkpt lat="46.4973" lon="2.47606">
        <ele>286.2</ele>
        <time>2020-07-12T08:15:17Z</time>
      </trkpt>
      <trkpt lat="46.49727" lon="2.47597">
        <ele>285.5</ele>
        <time>2020-07-12T08:15:19Z</time>
      </trkpt>
      <trkpt lat="46.49724" lon="2.47589">
        <ele>286</ele>
        <time>2020-07-12T08:15:21Z</time>
      </trkpt>
      <trkpt lat="46.49721" lon="2.4758">
        <ele>286.2</ele>
        <time>2020-07-12T08:15:23Z</time>
      </trkpt>
      <trkpt lat="46.49719" lon="2.47571">
        <ele>286</ele>
        <time>2020-07-12T08:15:25Z</time>
      </trkpt>
      <trkpt lat="46.49717" lon="2.47562">
        <ele>286.6</ele>
        <time>2020-07-12T08:15:27Z</time>
      </trkpt>
      <trkpt lat="46.49715" lon="2.47553">
        <ele>287.6</ele>
        <time>2020-07-12T08:15:29Z</time>
      </trkpt>
      <trkpt lat="46.49713" lon="2.47543">
        <ele>288.1</ele>
        <time>2020-07-12T08:15:31Z</time>
      </trkpt>
      <trkpt lat="46.49712" lon="2.47534">
        <ele>287.9</ele>
        <time>2020-07-12T08:15:33Z</time>
      </trkpt>
      <trkpt lat="46.49711" lon="2.47525">
        <ele>287.6</ele>
        <time>2020-07-12T08:15:35Z</time>
      </trkpt>
      <trkpt lat="46.4971" lon="2.47516">
        <ele>287.7</ele>
        <time>2020-07-12T08:15:37Z</time>
      </trkpt>
      <trkpt lat="46.49709" lon="2.47507">
        <ele>288.6</ele>
        <time>2020-07-12T08:15:39Z</time>
      </trkpt>
      <trkpt lat="46.49708" lon="2.47498">
        <ele>289.6</ele>
        <time>2020-07-12T08:15:41Z</time>
      </trkpt>
      <trkpt lat="46.49708" lon="2.47494">
        <ele>289.3</ele>
        <time>2020-07-12T08:15:42Z</time>
      </trkpt>
      <trkpt lat="46.49705" lon="2.47473">
        <ele>291.1</ele>
        <time>2020-07-12T08:15:47Z</time>
      </trkpt>
      <trkpt lat="46.49703" lon="2.47465">
        <ele>291.7</ele>
        <time>2020-07-12T08:15:49Z</time>
      </trkpt>
      <trkpt lat="46.497" lon="2.47453">
        <ele>292.6</ele>
        <time>2020-07-12T08:15:52Z</time>
      </trkpt>
      <trkpt lat="46.49698" lon="2.47441">
        <ele>293.5</ele>
        <time>2020-07-12T08:15:55Z</time>
      </trkpt>
      <trkpt lat="46.49696" lon="2.47429">
        <ele>293.9</ele>
        <time>2020-07-12T08:15:58Z</time>
      </trkpt>
      <trkpt lat="46.49693" lon="2.47417">
        <ele>294.8</ele>
        <time>2020-07-12T08:16:01Z</time>
      </trkpt>
      <trkpt lat="46.49691" lon="2.47408">
        <ele>294.7</ele>
        <time>2020-07-12T08:16:03Z</time>
      </trkpt>
      <trkpt lat="46.49689" lon="2.47396">
        <ele>295</ele>
        <time>2020-07-12T08:16:06Z</time>
      </trkpt>
      <trkpt lat="46.49686" lon="2.47384">
        <ele>295.7</ele>
        <time>2020-07-12T08:16:09Z</time>
      </trkpt>
      <trkpt lat="46.49684" lon="2.47372">
        <ele>296.8</ele>
        <time>2020-07-12T08:16:12Z</time>
      </trkpt>
      <trkpt lat="46.49682" lon="2.47359">
        <ele>297.7</ele>
        <time>2020-07-12T08:16:15Z</time>
      </trkpt>
      <trkpt lat="46.4968" lon="2.47347">
        <ele>298.6</ele>
        <time>2020-07-12T08:16:18Z</time>
      </trkpt>
      <trkpt lat="46.49678" lon="2.47339">
        <ele>298.6</ele>
        <time>2020-07-12T08:16:20Z</time>
      </trkpt>
      <trkpt lat="46.49677" lon="2.4733">
        <ele>298.8</ele>
        <time>2020-07-12T08:16:22Z</time>
      </trkpt>
      <trkpt lat="46.49675" lon="2.47321">
        <ele>299.7</ele>
        <time>2020-07-12T08:16:24Z</time>
      </trkpt>
      <trkpt lat="46.49673" lon="2.47312">
        <ele>300.7</ele>
        <time>2020-07-12T08:16:26Z</time>
      </trkpt>
      <trkpt lat="46.49671" lon="2.47303">
        <ele>300.4</ele>
        <time>2020-07-12T08:16:28Z</time>
      </trkpt>
      <trkpt lat="46.4967" lon="2.47294">
        <ele>300.5</ele>
        <time>2020-07-12T08:16:30Z</time>
      </trkpt>
      <trkpt lat="46.49668" lon="2.47285">
        <ele>300.8</ele>
        <time>2020-07-12T08:16:32Z</time>
      </trkpt>
      <trkpt lat="46.49666" lon="2.47276">
        <ele>301</ele>
        <time>2020-07-12T08:16:34Z</time>
      </trkpt>
      <trkpt lat="46.49664" lon="2.47268">
        <ele>301.8</ele>
        <time>2020-07-12T08:16:36Z</time>
      </trkpt>
      <trkpt lat="46.49662" lon="2.47259">
        <ele>302.8</ele>
        <time>2020-07-12T08:16:38Z</time>
      </trkpt>
      <trkpt lat="46.4966" lon="2.47247">
        <ele>303.4</ele>
        <time>2020-07-12T08:16:41Z</time>
      </trkpt>
      <trkpt lat="46.49658" lon="2.47234">
        <ele>303.8</ele>
        <time>2020-07-12T08:16:44Z</time>
      </trkpt>
      <trkpt lat="46.49657" lon="2.4723">
        <ele>303.8</ele>
        <time>2020-07-12T08:16:45Z</time>
      </trkpt>
      <trkpt lat="46.49653" lon="2.4721">
        <ele>305.1</ele>
        <time>2020-07-12T08:16:50Z</time>
      </trkpt>
      <trkpt lat="46.49651" lon="2.47198">
        <ele>305.9</ele>
        <time>2020-07-12T08:16:53Z</time>
      </trkpt>
      <trkpt lat="46.49648" lon="2.47185">
        <ele>306.9</ele>
        <time>2020-07-12T08:16:56Z</time>
      </trkpt>
      <trkpt lat="46.49646" lon="2.47174">
        <ele>307.3</ele>
        <time>2020-07-12T08:16:59Z</time>
      </trkpt>
      <trkpt lat="46.49644" lon="2.47161">
        <ele>307.8</ele>
        <time>2020-07-12T08:17:02Z</time>
      </trkpt>
      <trkpt lat="46.49641" lon="2.47149">
        <ele>308.3</ele>
        <time>2020-07-12T08:17:05Z</time>
      </trkpt>
      <trkpt lat="46.49639" lon="2.47137">
        <ele>308.7</ele>
        <time>2020-07-12T08:17:08Z</time>
      </trkpt>
      <trkpt lat="46.49636" lon="2.47125">
        <ele>309.5</ele>
        <time>2020-07-12T08:17:11Z</time>
      </trkpt>
      <trkpt lat="46.49634" lon="2.47113">
        <ele>310</ele>
        <time>2020-07-12T08:17:14Z</time>
      </trkpt>
      <trkpt lat="46.49632" lon="2.47102">
        <ele>310.3</ele>
        <time>2020-07-12T08:17:17Z</time>
      </trkpt>
      <trkpt lat="46.4963" lon="2.4709">
        <ele>310</ele>
        <time>2020-07-12T08:17:20Z</time>
      </trkpt>
      <trkpt lat="46.49628" lon="2.47079">
        <ele>311.2</ele>
        <time>2020-07-12T08:17:23Z</time>
      </trkpt>
      <trkpt lat="46.49625" lon="2.47067">
        <ele>311.9</ele>
        <time>2020-07-12T08:17:26Z</time>
      </trkpt>
      <trkpt lat="46.49623" lon="2.47055">
        <ele>312.6</ele>
        <time>2020-07-12T08:17:29Z</time>
      </trkpt>
      <trkpt lat="46.49621" lon="2.47044">
        <ele>312.6</ele>
        <time>2020-07-12T08:17:32Z</time>
      </trkpt>
      <trkpt lat="46.49618" lon="2.47032">
        <ele>313.7</ele>
        <time>2020-07-12T08:17:35Z</time>
      </trkpt>
      <trkpt lat="46.49616" lon="2.47021">
        <ele>313.8</ele>
        <time>2020-07-12T08:17:38Z</time>
      </trkpt>
      <trkpt lat="46.49614" lon="2.4701">
        <ele>313.7</ele>
        <time>2020-07-12T08:17:41Z</time>
      </trkpt>
      <trkpt lat="46.49612" lon="2.46988">
        <ele>315</ele>
        <time>2020-07-12T08:17:46Z</time>
      </trkpt>
      <trkpt lat="46.49612" lon="2.46982">
        <ele>315.7</ele>
        <time>2020-07-12T08:17:48Z</time>
      </trkpt>
      <trkpt lat="46.49612" lon="2.46967">
        <ele>316.6</ele>
        <time>2020-07-12T08:17:52Z</time>
      </trkpt>
      <trkpt lat="46.49612" lon="2.46955">
        <ele>317.1</ele>
        <time>2020-07-12T08:17:55Z</time>
      </trkpt>
      <trkpt lat="46.49612" lon="2.46943">
        <ele>316.9</ele>
        <time>2020-07-12T08:17:58Z</time>
      </trkpt>
      <trkpt lat="46.49613" lon="2.46931">
        <ele>317.2</ele>
        <time>2020-07-12T08:18:01Z</time>
      </trkpt>
      <trkpt lat="46.49613" lon="2.46919">
        <ele>317.8</ele>
        <time>2020-07-12T08:18:04Z</time>
      </trkpt>
      <trkpt lat="46.49614" lon="2.46907">
        <ele>318.1</ele>
        <time>2020-07-12T08:18:07Z</time>
      </trkpt>
      <trkpt lat="46.49615" lon="2.46896">
        <ele>318.2</ele>
        <time>2020-07-12T08:18:10Z</time>
      </trkpt>
      <trkpt lat="46.49616" lon="2.46885">
        <ele>319.8</ele>
        <time>2020-07-12T08:18:13Z</time>
      </trkpt>
      <trkpt lat="46.49618" lon="2.46874">
        <ele>319.5</ele>
        <time>2020-07-12T08:18:16Z</time>
      </trkpt>
      <trkpt lat="46.49622" lon="2.46864">
        <ele>320.5</ele>
        <time>2020-07-12T08:18:19Z</time>
      </trkpt>
      <trkpt lat="46.49627" lon="2.46855">
        <ele>322.4</ele>
        <time>2020-07-12T08:18:22Z</time>
      </trkpt>
      <trkpt lat="46.49632" lon="2.46848">
        <ele>322.8</ele>
        <time>2020-07-12T08:18:25Z</time>
      </trkpt>
      <trkpt lat="46.49638" lon="2.46841">
        <ele>323.1</ele>
        <time>2020-07-12T08:18:28Z</time>
      </trkpt>
      <trkpt lat="46.49644" lon="2.46834">
        <ele>323.6</ele>
        <time>2020-07-12T08:18:31Z</time>
      </trkpt>
      <trkpt lat="46.4965" lon="2.46826">
        <ele>323.8</ele>
        <time>2020-07-12T08:18:34Z</time>
      </trkpt>
      <trkpt lat="46.49656" lon="2.46818">
        <ele>324.3</ele>
        <time>2020-07-12T08:18:37Z</time>
      </trkpt>
      <trkpt lat="46.49662" lon="2.46811">
        <ele>324.2</ele>
        <time>2020-07-12T08:18:40Z</time>
      </trkpt>
      <trkpt lat="46.49669" lon="2.46803">
        <ele>325.3</ele>
        <time>2020-07-12T08:18:43Z</time>
      </trkpt>
      <trkpt lat="46.49676" lon="2.46795">
        <ele>325.2</ele>
        <time>2020-07-12T08:18:46Z</time>
      </trkpt>
      <trkpt lat="46.49681" lon="2.4679">
        <ele>325.5</ele>
        <time>2020-07-12T08:18:48Z</time>
      </trkpt>
      <trkpt lat="46.49683" lon="2.46787">
        <ele>325.3</ele>
        <time>2020-07-12T08:18:49Z</time>
      </trkpt>
      <trkpt lat="46.49691" lon="2.46778">
        <ele>324.7</ele>
        <time>2020-07-12T08:18:52Z</time>
      </trkpt>
      <trkpt lat="46.49696" lon="2.46772">
        <ele>324.8</ele>
        <time>2020-07-12T08:18:54Z</time>
      </trkpt>
      <trkpt lat="46.497" lon="2.46765">
        <ele>324.8</ele>
        <time>2020-07-12T08:18:56Z</time>
      </trkpt>
      <trkpt lat="46.49705" lon="2.46759">
        <ele>324.6</ele>
        <time>2020-07-12T08:18:58Z</time>
      </trkpt>
      <trkpt lat="46.49709" lon="2.46752">
        <ele>324.6</ele>
        <time>2020-07-12T08:19:00Z</time>
      </trkpt>
      <trkpt lat="46.49714" lon="2.46745">
        <ele>325.3</ele>
        <time>2020-07-12T08:19:02Z</time>
      </trkpt>
      <trkpt lat="46.49719" lon="2.46738">
        <ele>325</ele>
        <time>2020-07-12T08:19:04Z</time>
      </trkpt>
      <trkpt lat="46.49723" lon="2.46732">
        <ele>325.5</ele>
        <time>2020-07-12T08:19:06Z</time>
      </trkpt>
      <trkpt lat="46.49728" lon="2.46725">
        <ele>325.9</ele>
        <time>2020-07-12T08:19:08Z</time>
      </trkpt>
      <trkpt lat="46.4973" lon="2.46717">
        <ele>326.1</ele>
        <time>2020-07-12T08:19:10Z</time>
      </trkpt>
      <trkpt lat="46.49733" lon="2.46705">
        <ele>326.4</ele>
        <time>2020-07-12T08:19:13Z</time>
      </trkpt>
      <trkpt lat="46.49736" lon="2.46694">
        <ele>326</ele>
        <time>2020-07-12T08:19:16Z</time>
      </trkpt>
      <trkpt lat="46.49739" lon="2.46682">
        <ele>326.6</ele>
        <time>2020-07-12T08:19:19Z</time>
      </trkpt>
      <trkpt lat="46.49743" lon="2.46671">
        <ele>326.5</ele>
        <time>2020-07-12T08:19:22Z</time>
      </trkpt>
      <trkpt lat="46.49746" lon="2.46661">
        <ele>327</ele>
        <time>2020-07-12T08:19:25Z</time>
      </trkpt>
      <trkpt lat="46.4975" lon="2.46651">
        <ele>327.9</ele>
        <time>2020-07-12T08:19:29Z</time>
      </trkpt>
      <trkpt lat="46.49755" lon="2.4664">
        <ele>328.8</ele>
        <time>2020-07-12T08:19:34Z</time>
      </trkpt>
      <trkpt lat="46.49759" lon="2.46632">
        <ele>330.1</ele>
        <time>2020-07-12T08:19:38Z</time>
      </trkpt>
      <trkpt lat="46.49764" lon="2.46622">
        <ele>330.6</ele>
        <time>2020-07-12T08:19:42Z</time>
      </trkpt>
      <trkpt lat="46.49769" lon="2.46611">
        <ele>331.4</ele>
        <time>2020-07-12T08:19:46Z</time>
      </trkpt>
      <trkpt lat="46.49774" lon="2.46602">
        <ele>331.8</ele>
        <time>2020-07-12T08:19:50Z</time>
      </trkpt>
      <trkpt lat="46.49775" lon="2.46599">
        <ele>332.2</ele>
        <time>2020-07-12T08:19:51Z</time>
      </trkpt>
      <trkpt lat="46.49783" lon="2.46584">
        <ele>333.1</ele>
        <time>2020-07-12T08:19:57Z</time>
      </trkpt>
      <trkpt lat="46.49788" lon="2.46573">
        <ele>334.2</ele>
        <time>2020-07-12T08:20:01Z</time>
      </trkpt>
      <trkpt lat="46.49793" lon="2.46562">
        <ele>335.2</ele>
        <time>2020-07-12T08:20:05Z</time>
      </trkpt>
      <trkpt lat="46.49797" lon="2.46554">
        <ele>335.5</ele>
        <time>2020-07-12T08:20:08Z</time>
      </trkpt>
      <trkpt lat="46.49801" lon="2.46542">
        <ele>336.6</ele>
        <time>2020-07-12T08:20:12Z</time>
      </trkpt>
      <trkpt lat="46.49805" lon="2.46531">
        <ele>336.6</ele>
        <time>2020-07-12T08:20:16Z</time>
      </trkpt>
      <trkpt lat="46.49809" lon="2.4652">
        <ele>338.1</ele>
        <time>2020-07-12T08:20:20Z</time>
      </trkpt>
      <trkpt lat="46.49813" lon="2.4651">
        <ele>338.7</ele>
        <time>2020-07-12T08:20:24Z</time>
      </trkpt>
      <trkpt lat="46.49816" lon="2.46498">
        <ele>339.5</ele>
        <time>2020-07-12T08:20:28Z</time>
      </trkpt>
      <trkpt lat="46.4982" lon="2.46487">
        <ele>340.5</ele>
        <time>2020-07-12T08:20:32Z</time>
      </trkpt>
      <trkpt lat="46.49823" lon="2.46475">
        <ele>341.1</ele>
        <time>2020-07-12T08:20:36Z</time>
      </trkpt>
      <trkpt lat="46.49824" lon="2.46464">
        <ele>342.7</ele>
        <time>2020-07-12T08:20:40Z</time>
      </trkpt>
      <trkpt lat="46.49826" lon="2.46454">
        <ele>343.7</ele>
        <time>2020-07-12T08:20:43Z</time>
      </trkpt>
      <trkpt lat="46.49827" lon="2.46441">
        <ele>343.8</ele>
        <time>2020-07-12T08:20:47Z</time>
      </trkpt>
      <trkpt lat="46.49827" lon="2.46431">
        <ele>344.2</ele>
        <time>2020-07-12T08:20:50Z</time>
      </trkpt>
      <trkpt lat="46.49828" lon="2.46421">
        <ele>345</ele>
        <time>2020-07-12T08:20:53Z</time>
      </trkpt>
      <trkpt lat="46.49828" lon="2.46418">
        <ele>344.9</ele>
        <time>2020-07-12T08:20:54Z</time>
      </trkpt>
      <trkpt lat="46.49828" lon="2.46401">
        <ele>346.4</ele>
        <time>2020-07-12T08:20:59Z</time>
      </trkpt>
      <trkpt lat="46.49827" lon="2.4639">
        <ele>347.6</ele>
        <time>2020-07-12T08:21:02Z</time>
      </trkpt>
      <trkpt lat="46.49826" lon="2.4638">
        <ele>347.8</ele>
        <time>2020-07-12T08:21:05Z</time>
      </trkpt>
      <trkpt lat="46.49824" lon="2.4637">
        <ele>347.6</ele>
        <time>2020-07-12T08:21:08Z</time>
      </trkpt>
      <trkpt lat="46.49826" lon="2.46358">
        <ele>349.4</ele>
        <time>2020-07-12T08:21:11Z</time>
      </trkpt>
      <trkpt lat="46.49832" lon="2.46352">
        <ele>350</ele>
        <time>2020-07-12T08:21:14Z</time>
      </trkpt>
      <trkpt lat="46.49839" lon="2.46347">
        <ele>350.1</ele>
        <time>2020-07-12T08:21:17Z</time>
      </trkpt>
      <trkpt lat="46.49845" lon="2.46341">
        <ele>350.3</ele>
        <time>2020-07-12T08:21:20Z</time>
      </trkpt>
      <trkpt lat="46.49853" lon="2.46336">
        <ele>351.7</ele>
        <time>2020-07-12T08:21:23Z</time>
      </trkpt>
      <trkpt lat="46.4986" lon="2.46331">
        <ele>351.2</ele>
        <time>2020-07-12T08:21:26Z</time>
      </trkpt>
      <trkpt lat="46.49867" lon="2.46326">
        <ele>351.7</ele>
        <time>2020-07-12T08:21:29Z</time>
      </trkpt>
      <trkpt lat="46.49875" lon="2.46321">
        <ele>352.5</ele>
        <time>2020-07-12T08:21:32Z</time>
      </trkpt>
      <trkpt lat="46.49883" lon="2.46316">
        <ele>353.6</ele>
        <time>2020-07-12T08:21:35Z</time>
      </trkpt>
      <trkpt lat="46.4989" lon="2.46311">
        <ele>353.8</ele>
        <time>2020-07-12T08:21:38Z</time>
      </trkpt>
      <trkpt lat="46.49898" lon="2.46307">
        <ele>354</ele>
        <time>2020-07-12T08:21:41Z</time>
      </trkpt>
      <trkpt lat="46.49906" lon="2.46305">
        <ele>354.3</ele>
        <time>2020-07-12T08:21:44Z</time>
      </trkpt>
      <trkpt lat="46.49913" lon="2.46305">
        <ele>355.5</ele>
        <time>2020-07-12T08:21:47Z</time>
      </trkpt>
      <trkpt lat="46.4992" lon="2.46302">
        <ele>355.6</ele>
        <time>2020-07-12T08:21:50Z</time>
      </trkpt>
      <trkpt lat="46.49912" lon="2.46303">
        <ele>355.7</ele>
        <time>2020-07-12T08:24:39Z</time>
      </trkpt>
      <trkpt lat="46.4991" lon="2.46302">
        <ele>355.6</ele>
        <time>2020-07-12T08:24:40Z</time>
      </trkpt>
      <trkpt lat="46.49898" lon="2.46304">
        <ele>355.1</ele>
        <time>2020-07-12T08:24:44Z</time>
      </trkpt>
      <trkpt lat="46.49892" lon="2.46307">
        <ele>354.4</ele>
        <time>2020-07-12T08:24:46Z</time>
      </trkpt>
      <trkpt lat="46.49885" lon="2.46311">
        <ele>354.4</ele>
        <time>2020-07-12T08:24:48Z</time>
      </trkpt>
      <trkpt lat="46.49878" lon="2.46316">
        <ele>353.2</ele>
        <time>2020-07-12T08:24:51Z</time>
      </trkpt>
      <trkpt lat="46.49871" lon="2.46321">
        <ele>353.4</ele>
        <time>2020-07-12T08:24:54Z</time>
      </trkpt>
      <trkpt lat="46.49864" lon="2.46325">
        <ele>353.5</ele>
        <time>2020-07-12T08:24:57Z</time>
      </trkpt>
      <trkpt lat="46.49856" lon="2.46331">
        <ele>353.3</ele>
        <time>2020-07-12T08:25:00Z</time>
      </trkpt>
      <trkpt lat="46.4985" lon="2.46334">
        <ele>352.8</ele>
        <time>2020-07-12T08:25:02Z</time>
      </trkpt>
      <trkpt lat="46.49843" lon="2.46339">
        <ele>352.3</ele>
        <time>2020-07-12T08:25:04Z</time>
      </trkpt>
      <trkpt lat="46.49836" lon="2.46343">
        <ele>352</ele>
        <time>2020-07-12T08:25:06Z</time>
      </trkpt>
      <trkpt lat="46.49829" lon="2.46345">
        <ele>351.7</ele>
        <time>2020-07-12T08:25:08Z</time>
      </trkpt>
      <trkpt lat="46.49821" lon="2.46342">
        <ele>352.3</ele>
        <time>2020-07-12T08:25:10Z</time>
      </trkpt>
      <trkpt lat="46.49816" lon="2.46334">
        <ele>351.4</ele>
        <time>2020-07-12T08:25:12Z</time>
      </trkpt>
      <trkpt lat="46.49814" lon="2.46325">
        <ele>351</ele>
        <time>2020-07-12T08:25:14Z</time>
      </trkpt>
      <trkpt lat="46.49811" lon="2.46316">
        <ele>351.3</ele>
        <time>2020-07-12T08:25:16Z</time>
      </trkpt>
      <trkpt lat="46.49808" lon="2.46307">
        <ele>351.3</ele>
        <time>2020-07-12T08:25:18Z</time>
      </trkpt>
      <trkpt lat="46.49807" lon="2.46298">
        <ele>351</ele>
        <time>2020-07-12T08:25:20Z</time>
      </trkpt>
      <trkpt lat="46.49803" lon="2.46288">
        <ele>351.5</ele>
        <time>2020-07-12T08:25:23Z</time>
      </trkpt>
      <trkpt lat="46.498" lon="2.46279">
        <ele>351.4</ele>
        <time>2020-07-12T08:25:26Z</time>
      </trkpt>
      <trkpt lat="46.49797" lon="2.46269">
        <ele>350.9</ele>
        <time>2020-07-12T08:25:29Z</time>
      </trkpt>
      <trkpt lat="46.49793" lon="2.46258">
        <ele>350.4</ele>
        <time>2020-07-12T08:25:32Z</time>
      </trkpt>
      <trkpt lat="46.4979" lon="2.4625">
        <ele>351.1</ele>
        <time>2020-07-12T08:25:34Z</time>
      </trkpt>
      <trkpt lat="46.49787" lon="2.46242">
        <ele>351.7</ele>
        <time>2020-07-12T08:25:36Z</time>
      </trkpt>
      <trkpt lat="46.49784" lon="2.46234">
        <ele>352.2</ele>
        <time>2020-07-12T08:25:38Z</time>
      </trkpt>
      <trkpt lat="46.49781" lon="2.46226">
        <ele>352.5</ele>
        <time>2020-07-12T08:25:40Z</time>
      </trkpt>
      <trkpt lat="46.49779" lon="2.46221">
        <ele>352.6</ele>
        <time>2020-07-12T08:25:41Z</time>
      </trkpt>
      <trkpt lat="46.49775" lon="2.46209">
        <ele>352.7</ele>
        <time>2020-07-12T08:25:44Z</time>
      </trkpt>
      <trkpt lat="46.49771" lon="2.46201">
        <ele>353.2</ele>
        <time>2020-07-12T08:25:46Z</time>
      </trkpt>
      <trkpt lat="46.49768" lon="2.46192">
        <ele>353</ele>
        <time>2020-07-12T08:25:48Z</time>
      </trkpt>
      <trkpt lat="46.49764" lon="2.46184">
        <ele>352.5</ele>
        <time>2020-07-12T08:25:50Z</time>
      </trkpt>
      <trkpt lat="46.49761" lon="2.46175">
        <ele>352.6</ele>
        <time>2020-07-12T08:25:52Z</time>
      </trkpt>
      <trkpt lat="46.49757" lon="2.46167">
        <ele>352.6</ele>
        <time>2020-07-12T08:25:54Z</time>
      </trkpt>
      <trkpt lat="46.49754" lon="2.46157">
        <ele>352.9</ele>
        <time>2020-07-12T08:25:56Z</time>
      </trkpt>
      <trkpt lat="46.4975" lon="2.46147">
        <ele>353.2</ele>
        <time>2020-07-12T08:25:58Z</time>
      </trkpt>
      <trkpt lat="46.49747" lon="2.46137">
        <ele>353.2</ele>
        <time>2020-07-12T08:26:00Z</time>
      </trkpt>
      <trkpt lat="46.49744" lon="2.46126">
        <ele>353.2</ele>
        <time>2020-07-12T08:26:02Z</time>
      </trkpt>
      <trkpt lat="46.49742" lon="2.46115">
        <ele>352.4</ele>
        <time>2020-07-12T08:26:04Z</time>
      </trkpt>
      <trkpt lat="46.49739" lon="2.46104">
        <ele>352.8</ele>
        <time>2020-07-12T08:26:06Z</time>
      </trkpt>
      <trkpt lat="46.49736" lon="2.46092">
        <ele>353.1</ele>
        <time>2020-07-12T08:26:08Z</time>
      </trkpt>
      <trkpt lat="46.49733" lon="2.4608">
        <ele>352.8</ele>
        <time>2020-07-12T08:26:10Z</time>
      </trkpt>
      <trkpt lat="46.49732" lon="2.46074">
        <ele>353</ele>
        <time>2020-07-12T08:26:11Z</time>
      </trkpt>
      <trkpt lat="46.4973" lon="2.46068">
        <ele>353.1</ele>
        <time>2020-07-12T08:26:12Z</time>
      </trkpt>
      <trkpt lat="46.49729" lon="2.46061">
        <ele>353.1</ele>
        <time>2020-07-12T08:26:13Z</time>
      </trkpt>
      <trkpt lat="46.49727" lon="2.46055">
        <ele>353</ele>
        <time>2020-07-12T08:26:14Z</time>
      </trkpt>
      <trkpt lat="46.49726" lon="2.46048">
        <ele>352.9</ele>
        <time>2020-07-12T08:26:15Z</time>
      </trkpt>
      <trkpt lat="46.49724" lon="2.46041">
        <ele>352.8</ele>
        <time>2020-07-12T08:26:16Z</time>
      </trkpt>
      <trkpt lat="46.49723" lon="2.46034">
        <ele>352.7</ele>
        <time>2020-07-12T08:26:17Z</time>
      </trkpt>
      <trkpt lat="46.49721" lon="2.46027">
        <ele>352.3</ele>
        <time>2020-07-12T08:26:18Z</time>
      </trkpt>
      <trkpt lat="46.4972" lon="2.4602">
        <ele>352</ele>
        <time>2020-07-12T08:26:19Z</time>
      </trkpt>
      <trkpt lat="46.49718" lon="2.46013">
        <ele>352</ele>
        <time>2020-07-12T08:26:20Z</time>
      </trkpt>
      <trkpt lat="46.49716" lon="2.46006">
        <ele>352</ele>
        <time>2020-07-12T08:26:21Z</time>
      </trkpt>
      <trkpt lat="46.49714" lon="2.45998">
        <ele>351.6</ele>
        <time>2020-07-12T08:26:22Z</time>
      </trkpt>
      <trkpt lat="46.49713" lon="2.45991">
        <ele>351.3</ele>
        <time>2020-07-12T08:26:23Z</time>
      </trkpt>
      <trkpt lat="46.49712" lon="2.45984">
        <ele>351.1</ele>
        <time>2020-07-12T08:26:24Z</time>
      </trkpt>
      <trkpt lat="46.49708" lon="2.45973">
        <ele>350</ele>
        <time>2020-07-12T08:26:26Z</time>
      </trkpt>
      <trkpt lat="46.49701" lon="2.45973">
        <ele>349.7</ele>
        <time>2020-07-12T08:26:28Z</time>
      </trkpt>
      <trkpt lat="46.49693" lon="2.45977">
        <ele>349.4</ele>
        <time>2020-07-12T08:26:30Z</time>
      </trkpt>
      <trkpt lat="46.49686" lon="2.45982">
        <ele>348.9</ele>
        <time>2020-07-12T08:26:32Z</time>
      </trkpt>
      <trkpt lat="46.49679" lon="2.45987">
        <ele>348.5</ele>
        <time>2020-07-12T08:26:34Z</time>
      </trkpt>
      <trkpt lat="46.49672" lon="2.45991">
        <ele>348.5</ele>
        <time>2020-07-12T08:26:36Z</time>
      </trkpt>
      <trkpt lat="46.49665" lon="2.45996">
        <ele>348.4</ele>
        <time>2020-07-12T08:26:38Z</time>
      </trkpt>
      <trkpt lat="46.49657" lon="2.46">
        <ele>349.2</ele>
        <time>2020-07-12T08:26:40Z</time>
      </trkpt>
      <trkpt lat="46.4965" lon="2.46005">
        <ele>349.3</ele>
        <time>2020-07-12T08:26:42Z</time>
      </trkpt>
      <trkpt lat="46.49646" lon="2.46006">
        <ele>349.4</ele>
        <time>2020-07-12T08:26:43Z</time>
      </trkpt>
      <trkpt lat="46.49634" lon="2.46011">
        <ele>349.4</ele>
        <time>2020-07-12T08:26:46Z</time>
      </trkpt>
      <trkpt lat="46.49626" lon="2.46015">
        <ele>349.3</ele>
        <time>2020-07-12T08:26:48Z</time>
      </trkpt>
      <trkpt lat="46.49618" lon="2.46019">
        <ele>349</ele>
        <time>2020-07-12T08:26:50Z</time>
      </trkpt>
      <trkpt lat="46.4961" lon="2.46022">
        <ele>349.2</ele>
        <time>2020-07-12T08:26:52Z</time>
      </trkpt>
      <trkpt lat="46.49602" lon="2.46026">
        <ele>348.9</ele>
        <time>2020-07-12T08:26:54Z</time>
      </trkpt>
      <trkpt lat="46.49594" lon="2.4603">
        <ele>348.8</ele>
        <time>2020-07-12T08:26:56Z</time>
      </trkpt>
      <trkpt lat="46.49585" lon="2.46034">
        <ele>348.7</ele>
        <time>2020-07-12T08:26:58Z</time>
      </trkpt>
      <trkpt lat="46.49577" lon="2.46038">
        <ele>348.8</ele>
        <time>2020-07-12T08:27:00Z</time>
      </trkpt>
      <trkpt lat="46.49569" lon="2.46042">
        <ele>349</ele>
        <time>2020-07-12T08:27:02Z</time>
      </trkpt>
      <trkpt lat="46.49561" lon="2.46045">
        <ele>349.1</ele>
        <time>2020-07-12T08:27:04Z</time>
      </trkpt>
      <trkpt lat="46.49553" lon="2.46048">
        <ele>349</ele>
        <time>2020-07-12T08:27:06Z</time>
      </trkpt>
      <trkpt lat="46.49544" lon="2.46049">
        <ele>348.9</ele>
        <time>2020-07-12T08:27:08Z</time>
      </trkpt>
      <trkpt lat="46.4954" lon="2.4605">
        <ele>348.8</ele>
        <time>2020-07-12T08:27:09Z</time>
      </trkpt>
      <trkpt lat="46.49535" lon="2.46051">
        <ele>348.9</ele>
        <time>2020-07-12T08:27:10Z</time>
      </trkpt>
      <trkpt lat="46.49531" lon="2.46052">
        <ele>349</ele>
        <time>2020-07-12T08:27:11Z</time>
      </trkpt>
      <trkpt lat="46.49526" lon="2.46052">
        <ele>348.8</ele>
        <time>2020-07-12T08:27:12Z</time>
      </trkpt>
      <trkpt lat="46.49522" lon="2.46052">
        <ele>348.7</ele>
        <time>2020-07-12T08:27:13Z</time>
      </trkpt>
      <trkpt lat="46.49517" lon="2.46053">
        <ele>348.6</ele>
        <time>2020-07-12T08:27:14Z</time>
      </trkpt>
      <trkpt lat="46.49513" lon="2.46053">
        <ele>348.5</ele>
        <time>2020-07-12T08:27:15Z</time>
      </trkpt>
      <trkpt lat="46.49508" lon="2.46053">
        <ele>348.4</ele>
        <time>2020-07-12T08:27:16Z</time>
      </trkpt>
      <trkpt lat="46.49499" lon="2.46053">
        <ele>348.2</ele>
        <time>2020-07-12T08:27:18Z</time>
      </trkpt>
      <trkpt lat="46.49495" lon="2.46052">
        <ele>348.1</ele>
        <time>2020-07-12T08:27:19Z</time>
      </trkpt>
      <trkpt lat="46.4949" lon="2.46052">
        <ele>348.1</ele>
        <time>2020-07-12T08:27:20Z</time>
      </trkpt>
      <trkpt lat="46.49485" lon="2.46051">
        <ele>348</ele>
        <time>2020-07-12T08:27:21Z</time>
      </trkpt>
      <trkpt lat="46.49481" lon="2.46051">
        <ele>348</ele>
        <time>2020-07-12T08:27:22Z</time>
      </trkpt>
      <trkpt lat="46.49476" lon="2.4605">
        <ele>348</ele>
        <time>2020-07-12T08:27:23Z</time>
      </trkpt>
      <trkpt lat="46.49471" lon="2.4605">
        <ele>348</ele>
        <time>2020-07-12T08:27:24Z</time>
      </trkpt>
      <trkpt lat="46.49467" lon="2.46049">
        <ele>348.1</ele>
        <time>2020-07-12T08:27:25Z</time>
      </trkpt>
      <trkpt lat="46.49462" lon="2.46048">
        <ele>347.7</ele>
        <time>2020-07-12T08:27:26Z</time>
      </trkpt>
      <trkpt lat="46.49457" lon="2.46048">
        <ele>347.4</ele>
        <time>2020-07-12T08:27:27Z</time>
      </trkpt>
      <trkpt lat="46.49448" lon="2.46047">
        <ele>346.9</ele>
        <time>2020-07-12T08:27:29Z</time>
      </trkpt>
      <trkpt lat="46.49444" lon="2.46047">
        <ele>346.7</ele>
        <time>2020-07-12T08:27:30Z</time>
      </trkpt>
      <trkpt lat="46.49439" lon="2.46047">
        <ele>346.5</ele>
        <time>2020-07-12T08:27:31Z</time>
      </trkpt>
      <trkpt lat="46.49434" lon="2.46047">
        <ele>346.4</ele>
        <time>2020-07-12T08:27:32Z</time>
      </trkpt>
      <trkpt lat="46.49429" lon="2.46047">
        <ele>346.3</ele>
        <time>2020-07-12T08:27:33Z</time>
      </trkpt>
      <trkpt lat="46.49424" lon="2.46048">
        <ele>346.5</ele>
        <time>2020-07-12T08:27:34Z</time>
      </trkpt>
      <trkpt lat="46.49419" lon="2.46048">
        <ele>346.6</ele>
        <time>2020-07-12T08:27:35Z</time>
      </trkpt>
      <trkpt lat="46.49414" lon="2.46049">
        <ele>346.5</ele>
        <time>2020-07-12T08:27:36Z</time>
      </trkpt>
      <trkpt lat="46.49409" lon="2.46049">
        <ele>346.5</ele>
        <time>2020-07-12T08:27:37Z</time>
      </trkpt>
      <trkpt lat="46.49404" lon="2.46049">
        <ele>346.5</ele>
        <time>2020-07-12T08:27:38Z</time>
      </trkpt>
      <trkpt lat="46.49399" lon="2.4605">
        <ele>346.5</ele>
        <time>2020-07-12T08:27:39Z</time>
      </trkpt>
      <trkpt lat="46.49395" lon="2.4605">
        <ele>346.5</ele>
        <time>2020-07-12T08:27:40Z</time>
      </trkpt>
      <trkpt lat="46.4939" lon="2.4605">
        <ele>346</ele>
        <time>2020-07-12T08:27:41Z</time>
      </trkpt>
      <trkpt lat="46.49381" lon="2.46051">
        <ele>345.8</ele>
        <time>2020-07-12T08:27:43Z</time>
      </trkpt>
      <trkpt lat="46.49377" lon="2.46052">
        <ele>346</ele>
        <time>2020-07-12T08:27:44Z</time>
      </trkpt>
      <trkpt lat="46.49364" lon="2.46054">
        <ele>345.9</ele>
        <time>2020-07-12T08:27:47Z</time>
      </trkpt>
      <trkpt lat="46.49356" lon="2.46055">
        <ele>346</ele>
        <time>2020-07-12T08:27:49Z</time>
      </trkpt>
      <trkpt lat="46.49348" lon="2.46057">
        <ele>345.8</ele>
        <time>2020-07-12T08:27:51Z</time>
      </trkpt>
      <trkpt lat="46.4934" lon="2.46058">
        <ele>346</ele>
        <time>2020-07-12T08:27:53Z</time>
      </trkpt>
      <trkpt lat="46.49332" lon="2.4606">
        <ele>345.9</ele>
        <time>2020-07-12T08:27:55Z</time>
      </trkpt>
      <trkpt lat="46.49324" lon="2.46061">
        <ele>345.1</ele>
        <time>2020-07-12T08:27:57Z</time>
      </trkpt>
      <trkpt lat="46.49316" lon="2.46062">
        <ele>344.4</ele>
        <time>2020-07-12T08:27:59Z</time>
      </trkpt>
      <trkpt lat="46.49309" lon="2.46063">
        <ele>345</ele>
        <time>2020-07-12T08:28:01Z</time>
      </trkpt>
      <trkpt lat="46.49301" lon="2.46063">
        <ele>345.5</ele>
        <time>2020-07-12T08:28:03Z</time>
      </trkpt>
      <trkpt lat="46.49294" lon="2.46064">
        <ele>345.5</ele>
        <time>2020-07-12T08:28:05Z</time>
      </trkpt>
      <trkpt lat="46.49286" lon="2.46065">
        <ele>344.7</ele>
        <time>2020-07-12T08:28:07Z</time>
      </trkpt>
      <trkpt lat="46.49278" lon="2.46066">
        <ele>344.2</ele>
        <time>2020-07-12T08:28:09Z</time>
      </trkpt>
      <trkpt lat="46.49271" lon="2.46066">
        <ele>344.3</ele>
        <time>2020-07-12T08:28:11Z</time>
      </trkpt>
      <trkpt lat="46.49263" lon="2.46066">
        <ele>345.2</ele>
        <time>2020-07-12T08:28:13Z</time>
      </trkpt>
      <trkpt lat="46.49255" lon="2.46065">
        <ele>345.3</ele>
        <time>2020-07-12T08:28:15Z</time>
      </trkpt>
      <trkpt lat="46.49247" lon="2.46066">
        <ele>345.2</ele>
        <time>2020-07-12T08:28:17Z</time>
      </trkpt>
      <trkpt lat="46.49242" lon="2.46066">
        <ele>345.1</ele>
        <time>2020-07-12T08:28:18Z</time>
      </trkpt>
      <trkpt lat="46.49237" lon="2.46066">
        <ele>344.7</ele>
        <time>2020-07-12T08:28:19Z</time>
      </trkpt>
      <trkpt lat="46.49233" lon="2.46066">
        <ele>344.3</ele>
        <time>2020-07-12T08:28:20Z</time>
      </trkpt>
      <trkpt lat="46.49228" lon="2.46066">
        <ele>344.2</ele>
        <time>2020-07-12T08:28:21Z</time>
      </trkpt>
      <trkpt lat="46.49223" lon="2.46067">
        <ele>344.1</ele>
        <time>2020-07-12T08:28:22Z</time>
      </trkpt>
      <trkpt lat="46.49218" lon="2.46067">
        <ele>344.2</ele>
        <time>2020-07-12T08:28:23Z</time>
      </trkpt>
      <trkpt lat="46.49201" lon="2.46068">
        <ele>344</ele>
        <time>2020-07-12T08:28:26Z</time>
      </trkpt>
      <trkpt lat="46.49194" lon="2.46069">
        <ele>344.3</ele>
        <time>2020-07-12T08:28:28Z</time>
      </trkpt>
      <trkpt lat="46.4919" lon="2.4607">
        <ele>344.4</ele>
        <time>2020-07-12T08:28:29Z</time>
      </trkpt>
      <trkpt lat="46.49185" lon="2.4607">
        <ele>344.5</ele>
        <time>2020-07-12T08:28:30Z</time>
      </trkpt>
      <trkpt lat="46.4918" lon="2.46071">
        <ele>344.5</ele>
        <time>2020-07-12T08:28:31Z</time>
      </trkpt>
      <trkpt lat="46.49175" lon="2.46071">
        <ele>344.6</ele>
        <time>2020-07-12T08:28:32Z</time>
      </trkpt>
      <trkpt lat="46.4917" lon="2.46071">
        <ele>344.1</ele>
        <time>2020-07-12T08:28:33Z</time>
      </trkpt>
      <trkpt lat="46.49165" lon="2.46071">
        <ele>343.7</ele>
        <time>2020-07-12T08:28:34Z</time>
      </trkpt>
      <trkpt lat="46.4916" lon="2.46071">
        <ele>343.2</ele>
        <time>2020-07-12T08:28:35Z</time>
      </trkpt>
      <trkpt lat="46.49155" lon="2.46071">
        <ele>342.9</ele>
        <time>2020-07-12T08:28:36Z</time>
      </trkpt>
      <trkpt lat="46.4915" lon="2.4607">
        <ele>342.6</ele>
        <time>2020-07-12T08:28:37Z</time>
      </trkpt>
      <trkpt lat="46.49145" lon="2.46069">
        <ele>342.7</ele>
        <time>2020-07-12T08:28:38Z</time>
      </trkpt>
      <trkpt lat="46.4914" lon="2.46068">
        <ele>342.7</ele>
        <time>2020-07-12T08:28:39Z</time>
      </trkpt>
      <trkpt lat="46.49134" lon="2.46067">
        <ele>342.4</ele>
        <time>2020-07-12T08:28:40Z</time>
      </trkpt>
      <trkpt lat="46.49129" lon="2.46066">
        <ele>342.1</ele>
        <time>2020-07-12T08:28:41Z</time>
      </trkpt>
      <trkpt lat="46.49123" lon="2.46065">
        <ele>341.4</ele>
        <time>2020-07-12T08:28:42Z</time>
      </trkpt>
      <trkpt lat="46.49117" lon="2.46064">
        <ele>340.9</ele>
        <time>2020-07-12T08:28:43Z</time>
      </trkpt>
      <trkpt lat="46.49111" lon="2.46063">
        <ele>340.5</ele>
        <time>2020-07-12T08:28:44Z</time>
      </trkpt>
      <trkpt lat="46.49105" lon="2.46062">
        <ele>340.7</ele>
        <time>2020-07-12T08:28:45Z</time>
      </trkpt>
      <trkpt lat="46.49098" lon="2.46062">
        <ele>340.8</ele>
        <time>2020-07-12T08:28:46Z</time>
      </trkpt>
      <trkpt lat="46.49092" lon="2.46061">
        <ele>340.4</ele>
        <time>2020-07-12T08:28:47Z</time>
      </trkpt>
      <trkpt lat="46.49085" lon="2.4606">
        <ele>340.1</ele>
        <time>2020-07-12T08:28:48Z</time>
      </trkpt>
      <trkpt lat="46.49078" lon="2.46059">
        <ele>339.9</ele>
        <time>2020-07-12T08:28:49Z</time>
      </trkpt>
      <trkpt lat="46.49072" lon="2.46058">
        <ele>339.5</ele>
        <time>2020-07-12T08:28:50Z</time>
      </trkpt>
      <trkpt lat="46.49065" lon="2.46056">
        <ele>339.2</ele>
        <time>2020-07-12T08:28:51Z</time>
      </trkpt>
      <trkpt lat="46.49058" lon="2.46055">
        <ele>338.8</ele>
        <time>2020-07-12T08:28:52Z</time>
      </trkpt>
      <trkpt lat="46.49051" lon="2.46053">
        <ele>338.4</ele>
        <time>2020-07-12T08:28:53Z</time>
      </trkpt>
      <trkpt lat="46.49044" lon="2.46052">
        <ele>337.6</ele>
        <time>2020-07-12T08:28:54Z</time>
      </trkpt>
      <trkpt lat="46.49037" lon="2.4605">
        <ele>337</ele>
        <time>2020-07-12T08:28:55Z</time>
      </trkpt>
      <trkpt lat="46.4903" lon="2.46048">
        <ele>336.6</ele>
        <time>2020-07-12T08:28:56Z</time>
      </trkpt>
      <trkpt lat="46.49024" lon="2.46046">
        <ele>336.1</ele>
        <time>2020-07-12T08:28:57Z</time>
      </trkpt>
      <trkpt lat="46.49018" lon="2.46045">
        <ele>335.7</ele>
        <time>2020-07-12T08:28:58Z</time>
      </trkpt>
      <trkpt lat="46.49012" lon="2.46044">
        <ele>335.4</ele>
        <time>2020-07-12T08:28:59Z</time>
      </trkpt>
      <trkpt lat="46.49006" lon="2.46043">
        <ele>335.2</ele>
        <time>2020-07-12T08:29:00Z</time>
      </trkpt>
      <trkpt lat="46.49001" lon="2.46043">
        <ele>334.8</ele>
        <time>2020-07-12T08:29:01Z</time>
      </trkpt>
      <trkpt lat="46.48993" lon="2.46042">
        <ele>334.3</ele>
        <time>2020-07-12T08:29:03Z</time>
      </trkpt>
      <trkpt lat="46.48985" lon="2.46038">
        <ele>333</ele>
        <time>2020-07-12T08:29:06Z</time>
      </trkpt>
      <trkpt lat="46.48976" lon="2.46033">
        <ele>332.1</ele>
        <time>2020-07-12T08:29:09Z</time>
      </trkpt>
      <trkpt lat="46.4897" lon="2.46028">
        <ele>331.7</ele>
        <time>2020-07-12T08:29:11Z</time>
      </trkpt>
      <trkpt lat="46.48964" lon="2.4602">
        <ele>331.3</ele>
        <time>2020-07-12T08:29:13Z</time>
      </trkpt>
      <trkpt lat="46.48956" lon="2.46019">
        <ele>331.2</ele>
        <time>2020-07-12T08:29:20Z</time>
      </trkpt>
      <trkpt lat="46.48951" lon="2.46026">
        <ele>331.5</ele>
        <time>2020-07-12T08:29:23Z</time>
      </trkpt>
      <trkpt lat="46.48945" lon="2.46028">
        <ele>331.8</ele>
        <time>2020-07-12T08:29:25Z</time>
      </trkpt>
      <trkpt lat="46.48938" lon="2.4603">
        <ele>331.8</ele>
        <time>2020-07-12T08:29:27Z</time>
      </trkpt>
      <trkpt lat="46.48931" lon="2.46033">
        <ele>331.7</ele>
        <time>2020-07-12T08:29:29Z</time>
      </trkpt>
      <trkpt lat="46.48924" lon="2.46036">
        <ele>331</ele>
        <time>2020-07-12T08:29:31Z</time>
      </trkpt>
      <trkpt lat="46.48917" lon="2.4604">
        <ele>331.1</ele>
        <time>2020-07-12T08:29:33Z</time>
      </trkpt>
      <trkpt lat="46.48912" lon="2.46042">
        <ele>331.2</ele>
        <time>2020-07-12T08:29:34Z</time>
      </trkpt>
      <trkpt lat="46.48908" lon="2.46044">
        <ele>330.9</ele>
        <time>2020-07-12T08:29:35Z</time>
      </trkpt>
      <trkpt lat="46.48903" lon="2.46047">
        <ele>330.7</ele>
        <time>2020-07-12T08:29:36Z</time>
      </trkpt>
      <trkpt lat="46.48898" lon="2.4605">
        <ele>330.5</ele>
        <time>2020-07-12T08:29:37Z</time>
      </trkpt>
      <trkpt lat="46.48894" lon="2.46053">
        <ele>330.4</ele>
        <time>2020-07-12T08:29:38Z</time>
      </trkpt>
      <trkpt lat="46.48889" lon="2.46056">
        <ele>330.1</ele>
        <time>2020-07-12T08:29:39Z</time>
      </trkpt>
      <trkpt lat="46.48885" lon="2.46059">
        <ele>329.9</ele>
        <time>2020-07-12T08:29:40Z</time>
      </trkpt>
      <trkpt lat="46.48877" lon="2.46065">
        <ele>329.6</ele>
        <time>2020-07-12T08:29:42Z</time>
      </trkpt>
      <trkpt lat="46.48873" lon="2.46069">
        <ele>329.5</ele>
        <time>2020-07-12T08:29:43Z</time>
      </trkpt>
      <trkpt lat="46.48869" lon="2.46073">
        <ele>329.4</ele>
        <time>2020-07-12T08:29:44Z</time>
      </trkpt>
      <trkpt lat="46.48864" lon="2.46077">
        <ele>329.4</ele>
        <time>2020-07-12T08:29:45Z</time>
      </trkpt>
      <trkpt lat="46.48859" lon="2.46081">
        <ele>328.9</ele>
        <time>2020-07-12T08:29:46Z</time>
      </trkpt>
      <trkpt lat="46.48855" lon="2.46085">
        <ele>328.6</ele>
        <time>2020-07-12T08:29:47Z</time>
      </trkpt>
      <trkpt lat="46.48851" lon="2.46089">
        <ele>328.4</ele>
        <time>2020-07-12T08:29:48Z</time>
      </trkpt>
      <trkpt lat="46.48846" lon="2.46093">
        <ele>328.4</ele>
        <time>2020-07-12T08:29:49Z</time>
      </trkpt>
      <trkpt lat="46.48841" lon="2.46097">
        <ele>328.4</ele>
        <time>2020-07-12T08:29:50Z</time>
      </trkpt>
      <trkpt lat="46.48835" lon="2.461">
        <ele>328</ele>
        <time>2020-07-12T08:29:51Z</time>
      </trkpt>
      <trkpt lat="46.48829" lon="2.46103">
        <ele>327.6</ele>
        <time>2020-07-12T08:29:52Z</time>
      </trkpt>
      <trkpt lat="46.48823" lon="2.46107">
        <ele>327.4</ele>
        <time>2020-07-12T08:29:53Z</time>
      </trkpt>
      <trkpt lat="46.48817" lon="2.4611">
        <ele>326.8</ele>
        <time>2020-07-12T08:29:54Z</time>
      </trkpt>
      <trkpt lat="46.48811" lon="2.46113">
        <ele>326.3</ele>
        <time>2020-07-12T08:29:55Z</time>
      </trkpt>
      <trkpt lat="46.48805" lon="2.46116">
        <ele>326.2</ele>
        <time>2020-07-12T08:29:56Z</time>
      </trkpt>
      <trkpt lat="46.48798" lon="2.4612">
        <ele>326.2</ele>
        <time>2020-07-12T08:29:57Z</time>
      </trkpt>
      <trkpt lat="46.48792" lon="2.46123">
        <ele>325.8</ele>
        <time>2020-07-12T08:29:58Z</time>
      </trkpt>
      <trkpt lat="46.48786" lon="2.46126">
        <ele>325.6</ele>
        <time>2020-07-12T08:29:59Z</time>
      </trkpt>
      <trkpt lat="46.48779" lon="2.4613">
        <ele>325.4</ele>
        <time>2020-07-12T08:30:00Z</time>
      </trkpt>
      <trkpt lat="46.48773" lon="2.46133">
        <ele>325.5</ele>
        <time>2020-07-12T08:30:01Z</time>
      </trkpt>
      <trkpt lat="46.48767" lon="2.46137">
        <ele>325.5</ele>
        <time>2020-07-12T08:30:02Z</time>
      </trkpt>
      <trkpt lat="46.4876" lon="2.4614">
        <ele>325.2</ele>
        <time>2020-07-12T08:30:03Z</time>
      </trkpt>
      <trkpt lat="46.48754" lon="2.46144">
        <ele>325</ele>
        <time>2020-07-12T08:30:04Z</time>
      </trkpt>
      <trkpt lat="46.48747" lon="2.46147">
        <ele>324.5</ele>
        <time>2020-07-12T08:30:05Z</time>
      </trkpt>
      <trkpt lat="46.48741" lon="2.4615">
        <ele>324.1</ele>
        <time>2020-07-12T08:30:06Z</time>
      </trkpt>
      <trkpt lat="46.48734" lon="2.46153">
        <ele>323.8</ele>
        <time>2020-07-12T08:30:07Z</time>
      </trkpt>
      <trkpt lat="46.48727" lon="2.46156">
        <ele>323.2</ele>
        <time>2020-07-12T08:30:08Z</time>
      </trkpt>
      <trkpt lat="46.48721" lon="2.4616">
        <ele>322.7</ele>
        <time>2020-07-12T08:30:09Z</time>
      </trkpt>
      <trkpt lat="46.48714" lon="2.46163">
        <ele>322.2</ele>
        <time>2020-07-12T08:30:10Z</time>
      </trkpt>
      <trkpt lat="46.48707" lon="2.46167">
        <ele>321.9</ele>
        <time>2020-07-12T08:30:11Z</time>
      </trkpt>
      <trkpt lat="46.48701" lon="2.46172">
        <ele>321.7</ele>
        <time>2020-07-12T08:30:12Z</time>
      </trkpt>
      <trkpt lat="46.48694" lon="2.46175">
        <ele>321.4</ele>
        <time>2020-07-12T08:30:13Z</time>
      </trkpt>
      <trkpt lat="46.48688" lon="2.46179">
        <ele>321.1</ele>
        <time>2020-07-12T08:30:14Z</time>
      </trkpt>
      <trkpt lat="46.48681" lon="2.46182">
        <ele>320.7</ele>
        <time>2020-07-12T08:30:15Z</time>
      </trkpt>
      <trkpt lat="46.48674" lon="2.46184">
        <ele>320.4</ele>
        <time>2020-07-12T08:30:16Z</time>
      </trkpt>
      <trkpt lat="46.48668" lon="2.46186">
        <ele>320.1</ele>
        <time>2020-07-12T08:30:17Z</time>
      </trkpt>
      <trkpt lat="46.4866" lon="2.46188">
        <ele>319.8</ele>
        <time>2020-07-12T08:30:18Z</time>
      </trkpt>
      <trkpt lat="46.48654" lon="2.46191">
        <ele>319.6</ele>
        <time>2020-07-12T08:30:19Z</time>
      </trkpt>
      <trkpt lat="46.48646" lon="2.46194">
        <ele>319.6</ele>
        <time>2020-07-12T08:30:20Z</time>
      </trkpt>
      <trkpt lat="46.48639" lon="2.46197">
        <ele>319.6</ele>
        <time>2020-07-12T08:30:21Z</time>
      </trkpt>
      <trkpt lat="46.48631" lon="2.46201">
        <ele>319.3</ele>
        <time>2020-07-12T08:30:22Z</time>
      </trkpt>
      <trkpt lat="46.48623" lon="2.46205">
        <ele>319</ele>
        <time>2020-07-12T08:30:23Z</time>
      </trkpt>
      <trkpt lat="46.48615" lon="2.4621">
        <ele>318.6</ele>
        <time>2020-07-12T08:30:24Z</time>
      </trkpt>
      <trkpt lat="46.48606" lon="2.46215">
        <ele>318.2</ele>
        <time>2020-07-12T08:30:25Z</time>
      </trkpt>
      <trkpt lat="46.48598" lon="2.4622">
        <ele>317.9</ele>
        <time>2020-07-12T08:30:26Z</time>
      </trkpt>
      <trkpt lat="46.48589" lon="2.46225">
        <ele>317.2</ele>
        <time>2020-07-12T08:30:27Z</time>
      </trkpt>
      <trkpt lat="46.48582" lon="2.46233">
        <ele>316.6</ele>
        <time>2020-07-12T08:30:28Z</time>
      </trkpt>
      <trkpt lat="46.48575" lon="2.46241">
        <ele>316</ele>
        <time>2020-07-12T08:30:29Z</time>
      </trkpt>
      <trkpt lat="46.48568" lon="2.4625">
        <ele>315.5</ele>
        <time>2020-07-12T08:30:30Z</time>
      </trkpt>
      <trkpt lat="46.48562" lon="2.46258">
        <ele>315.1</ele>
        <time>2020-07-12T08:30:31Z</time>
      </trkpt>
      <trkpt lat="46.48557" lon="2.46265">
        <ele>314.9</ele>
        <time>2020-07-12T08:30:32Z</time>
      </trkpt>
      <trkpt lat="46.48553" lon="2.46271">
        <ele>314.7</ele>
        <time>2020-07-12T08:30:33Z</time>
      </trkpt>
      <trkpt lat="46.48548" lon="2.46276">
        <ele>314.8</ele>
        <time>2020-07-12T08:30:34Z</time>
      </trkpt>
      <trkpt lat="46.48543" lon="2.4628">
        <ele>314.8</ele>
        <time>2020-07-12T08:30:35Z</time>
      </trkpt>
      <trkpt lat="46.48538" lon="2.46284">
        <ele>314.8</ele>
        <time>2020-07-12T08:30:36Z</time>
      </trkpt>
      <trkpt lat="46.48533" lon="2.46288">
        <ele>314.8</ele>
        <time>2020-07-12T08:30:37Z</time>
      </trkpt>
      <trkpt lat="46.48529" lon="2.46291">
        <ele>314.8</ele>
        <time>2020-07-12T08:30:38Z</time>
      </trkpt>
      <trkpt lat="46.48524" lon="2.46295">
        <ele>315</ele>
        <time>2020-07-12T08:30:39Z</time>
      </trkpt>
      <trkpt lat="46.4852" lon="2.46298">
        <ele>315.2</ele>
        <time>2020-07-12T08:30:40Z</time>
      </trkpt>
      <trkpt lat="46.48512" lon="2.46304">
        <ele>315.4</ele>
        <time>2020-07-12T08:30:42Z</time>
      </trkpt>
      <trkpt lat="46.48504" lon="2.46309">
        <ele>315.2</ele>
        <time>2020-07-12T08:30:44Z</time>
      </trkpt>
      <trkpt lat="46.48497" lon="2.46315">
        <ele>315.1</ele>
        <time>2020-07-12T08:30:46Z</time>
      </trkpt>
      <trkpt lat="46.48494" lon="2.46318">
        <ele>315.1</ele>
        <time>2020-07-12T08:30:47Z</time>
      </trkpt>
      <trkpt lat="46.48484" lon="2.46327">
        <ele>315.5</ele>
        <time>2020-07-12T08:30:50Z</time>
      </trkpt>
      <trkpt lat="46.48477" lon="2.46332">
        <ele>315.7</ele>
        <time>2020-07-12T08:30:52Z</time>
      </trkpt>
      <trkpt lat="46.48471" lon="2.46337">
        <ele>316</ele>
        <time>2020-07-12T08:30:54Z</time>
      </trkpt>
      <trkpt lat="46.48465" lon="2.46342">
        <ele>315</ele>
        <time>2020-07-12T08:30:56Z</time>
      </trkpt>
      <trkpt lat="46.48458" lon="2.46348">
        <ele>314.8</ele>
        <time>2020-07-12T08:30:58Z</time>
      </trkpt>
      <trkpt lat="46.48451" lon="2.46354">
        <ele>315.1</ele>
        <time>2020-07-12T08:31:00Z</time>
      </trkpt>
      <trkpt lat="46.48447" lon="2.46357">
        <ele>315.2</ele>
        <time>2020-07-12T08:31:01Z</time>
      </trkpt>
      <trkpt lat="46.48442" lon="2.4636">
        <ele>315.3</ele>
        <time>2020-07-12T08:31:02Z</time>
      </trkpt>
      <trkpt lat="46.48438" lon="2.46364">
        <ele>315.3</ele>
        <time>2020-07-12T08:31:03Z</time>
      </trkpt>
      <trkpt lat="46.48433" lon="2.46368">
        <ele>315.3</ele>
        <time>2020-07-12T08:31:04Z</time>
      </trkpt>
      <trkpt lat="46.48427" lon="2.46372">
        <ele>314.9</ele>
        <time>2020-07-12T08:31:05Z</time>
      </trkpt>
      <trkpt lat="46.48422" lon="2.46376">
        <ele>314.6</ele>
        <time>2020-07-12T08:31:06Z</time>
      </trkpt>
      <trkpt lat="46.48417" lon="2.4638">
        <ele>314.4</ele>
        <time>2020-07-12T08:31:07Z</time>
      </trkpt>
      <trkpt lat="46.48412" lon="2.46384">
        <ele>314.2</ele>
        <time>2020-07-12T08:31:08Z</time>
      </trkpt>
      <trkpt lat="46.48407" lon="2.46388">
        <ele>314.1</ele>
        <time>2020-07-12T08:31:09Z</time>
      </trkpt>
      <trkpt lat="46.48402" lon="2.46391">
        <ele>314.1</ele>
        <time>2020-07-12T08:31:10Z</time>
      </trkpt>
      <trkpt lat="46.48398" lon="2.46395">
        <ele>314</ele>
        <time>2020-07-12T08:31:11Z</time>
      </trkpt>
      <trkpt lat="46.48393" lon="2.46399">
        <ele>314</ele>
        <time>2020-07-12T08:31:12Z</time>
      </trkpt>
      <trkpt lat="46.48389" lon="2.46403">
        <ele>314</ele>
        <time>2020-07-12T08:31:13Z</time>
      </trkpt>
      <trkpt lat="46.48384" lon="2.46406">
        <ele>314</ele>
        <time>2020-07-12T08:31:14Z</time>
      </trkpt>
      <trkpt lat="46.4838" lon="2.4641">
        <ele>314</ele>
        <time>2020-07-12T08:31:15Z</time>
      </trkpt>
      <trkpt lat="46.48376" lon="2.46413">
        <ele>314</ele>
        <time>2020-07-12T08:31:16Z</time>
      </trkpt>
      <trkpt lat="46.48372" lon="2.46416">
        <ele>313.8</ele>
        <time>2020-07-12T08:31:17Z</time>
      </trkpt>
      <trkpt lat="46.48364" lon="2.46422">
        <ele>313.7</ele>
        <time>2020-07-12T08:31:19Z</time>
      </trkpt>
      <trkpt lat="46.48356" lon="2.46427">
        <ele>314.2</ele>
        <time>2020-07-12T08:31:21Z</time>
      </trkpt>
      <trkpt lat="46.48347" lon="2.46432">
        <ele>314.6</ele>
        <time>2020-07-12T08:31:23Z</time>
      </trkpt>
      <trkpt lat="46.48343" lon="2.46434">
        <ele>314.1</ele>
        <time>2020-07-12T08:31:24Z</time>
      </trkpt>
      <trkpt lat="46.48339" lon="2.46436">
        <ele>313.8</ele>
        <time>2020-07-12T08:31:25Z</time>
      </trkpt>
      <trkpt lat="46.48335" lon="2.46439">
        <ele>314</ele>
        <time>2020-07-12T08:31:26Z</time>
      </trkpt>
      <trkpt lat="46.4833" lon="2.46441">
        <ele>314.3</ele>
        <time>2020-07-12T08:31:27Z</time>
      </trkpt>
      <trkpt lat="46.48326" lon="2.46444">
        <ele>314.4</ele>
        <time>2020-07-12T08:31:28Z</time>
      </trkpt>
      <trkpt lat="46.48321" lon="2.46447">
        <ele>314.4</ele>
        <time>2020-07-12T08:31:29Z</time>
      </trkpt>
      <trkpt lat="46.48317" lon="2.4645">
        <ele>314.3</ele>
        <time>2020-07-12T08:31:30Z</time>
      </trkpt>
      <trkpt lat="46.48313" lon="2.46453">
        <ele>314.6</ele>
        <time>2020-07-12T08:31:31Z</time>
      </trkpt>
      <trkpt lat="46.48309" lon="2.46457">
        <ele>314.8</ele>
        <time>2020-07-12T08:31:32Z</time>
      </trkpt>
      <trkpt lat="46.48304" lon="2.46461">
        <ele>314.5</ele>
        <time>2020-07-12T08:31:33Z</time>
      </trkpt>
      <trkpt lat="46.483" lon="2.46464">
        <ele>314.3</ele>
        <time>2020-07-12T08:31:34Z</time>
      </trkpt>
      <trkpt lat="46.48296" lon="2.46468">
        <ele>314.2</ele>
        <time>2020-07-12T08:31:35Z</time>
      </trkpt>
      <trkpt lat="46.48292" lon="2.46471">
        <ele>314.1</ele>
        <time>2020-07-12T08:31:36Z</time>
      </trkpt>
      <trkpt lat="46.48288" lon="2.46475">
        <ele>314.1</ele>
        <time>2020-07-12T08:31:37Z</time>
      </trkpt>
      <trkpt lat="46.48284" lon="2.46479">
        <ele>314.1</ele>
        <time>2020-07-12T08:31:38Z</time>
      </trkpt>
      <trkpt lat="46.4828" lon="2.46484">
        <ele>314.1</ele>
        <time>2020-07-12T08:31:39Z</time>
      </trkpt>
      <trkpt lat="46.48276" lon="2.46488">
        <ele>313.7</ele>
        <time>2020-07-12T08:31:40Z</time>
      </trkpt>
      <trkpt lat="46.48272" lon="2.46492">
        <ele>313.4</ele>
        <time>2020-07-12T08:31:41Z</time>
      </trkpt>
      <trkpt lat="46.48268" lon="2.46496">
        <ele>313.1</ele>
        <time>2020-07-12T08:31:42Z</time>
      </trkpt>
      <trkpt lat="46.48264" lon="2.465">
        <ele>313.3</ele>
        <time>2020-07-12T08:31:43Z</time>
      </trkpt>
      <trkpt lat="46.4826" lon="2.46504">
        <ele>313.3</ele>
        <time>2020-07-12T08:31:44Z</time>
      </trkpt>
      <trkpt lat="46.48255" lon="2.46508">
        <ele>313.1</ele>
        <time>2020-07-12T08:31:45Z</time>
      </trkpt>
      <trkpt lat="46.48251" lon="2.46511">
        <ele>312.9</ele>
        <time>2020-07-12T08:31:46Z</time>
      </trkpt>
      <trkpt lat="46.48246" lon="2.46514">
        <ele>312.9</ele>
        <time>2020-07-12T08:31:47Z</time>
      </trkpt>
      <trkpt lat="46.48241" lon="2.46518">
        <ele>312.8</ele>
        <time>2020-07-12T08:31:48Z</time>
      </trkpt>
      <trkpt lat="46.48236" lon="2.46522">
        <ele>312.8</ele>
        <time>2020-07-12T08:31:49Z</time>
      </trkpt>
      <trkpt lat="46.48231" lon="2.46526">
        <ele>312.4</ele>
        <time>2020-07-12T08:31:50Z</time>
      </trkpt>
      <trkpt lat="46.48227" lon="2.46531">
        <ele>312.1</ele>
        <time>2020-07-12T08:31:51Z</time>
      </trkpt>
      <trkpt lat="46.48222" lon="2.46536">
        <ele>311.8</ele>
        <time>2020-07-12T08:31:52Z</time>
      </trkpt>
      <trkpt lat="46.48217" lon="2.4654">
        <ele>311.6</ele>
        <time>2020-07-12T08:31:53Z</time>
      </trkpt>
      <trkpt lat="46.48212" lon="2.46545">
        <ele>311.5</ele>
        <time>2020-07-12T08:31:54Z</time>
      </trkpt>
      <trkpt lat="46.48207" lon="2.4655">
        <ele>311.2</ele>
        <time>2020-07-12T08:31:55Z</time>
      </trkpt>
      <trkpt lat="46.48202" lon="2.46555">
        <ele>311</ele>
        <time>2020-07-12T08:31:56Z</time>
      </trkpt>
      <trkpt lat="46.48196" lon="2.46559">
        <ele>310.8</ele>
        <time>2020-07-12T08:31:57Z</time>
      </trkpt>
      <trkpt lat="46.48191" lon="2.46564">
        <ele>310.7</ele>
        <time>2020-07-12T08:31:58Z</time>
      </trkpt>
      <trkpt lat="46.48186" lon="2.46568">
        <ele>310.5</ele>
        <time>2020-07-12T08:31:59Z</time>
      </trkpt>
      <trkpt lat="46.48181" lon="2.46574">
        <ele>310.3</ele>
        <time>2020-07-12T08:32:00Z</time>
      </trkpt>
      <trkpt lat="46.48175" lon="2.46579">
        <ele>310.2</ele>
        <time>2020-07-12T08:32:01Z</time>
      </trkpt>
      <trkpt lat="46.4817" lon="2.46584">
        <ele>309.9</ele>
        <time>2020-07-12T08:32:02Z</time>
      </trkpt>
      <trkpt lat="46.48165" lon="2.46588">
        <ele>309.7</ele>
        <time>2020-07-12T08:32:03Z</time>
      </trkpt>
      <trkpt lat="46.4816" lon="2.46593">
        <ele>309.6</ele>
        <time>2020-07-12T08:32:04Z</time>
      </trkpt>
      <trkpt lat="46.48155" lon="2.46598">
        <ele>309.5</ele>
        <time>2020-07-12T08:32:05Z</time>
      </trkpt>
      <trkpt lat="46.4815" lon="2.46603">
        <ele>309.4</ele>
        <time>2020-07-12T08:32:06Z</time>
      </trkpt>
      <trkpt lat="46.48145" lon="2.46607">
        <ele>309.2</ele>
        <time>2020-07-12T08:32:07Z</time>
      </trkpt>
      <trkpt lat="46.4814" lon="2.46612">
        <ele>309.1</ele>
        <time>2020-07-12T08:32:08Z</time>
      </trkpt>
      <trkpt lat="46.48135" lon="2.46616">
        <ele>308.4</ele>
        <time>2020-07-12T08:32:09Z</time>
      </trkpt>
      <trkpt lat="46.48131" lon="2.46621">
        <ele>307.9</ele>
        <time>2020-07-12T08:32:10Z</time>
      </trkpt>
      <trkpt lat="46.48126" lon="2.46625">
        <ele>307.8</ele>
        <time>2020-07-12T08:32:11Z</time>
      </trkpt>
      <trkpt lat="46.48122" lon="2.46629">
        <ele>307.7</ele>
        <time>2020-07-12T08:32:12Z</time>
      </trkpt>
      <trkpt lat="46.48117" lon="2.46634">
        <ele>307.7</ele>
        <time>2020-07-12T08:32:13Z</time>
      </trkpt>
      <trkpt lat="46.48113" lon="2.46638">
        <ele>307.6</ele>
        <time>2020-07-12T08:32:14Z</time>
      </trkpt>
      <trkpt lat="46.48109" lon="2.46642">
        <ele>307.5</ele>
        <time>2020-07-12T08:32:15Z</time>
      </trkpt>
      <trkpt lat="46.48105" lon="2.46646">
        <ele>307.1</ele>
        <time>2020-07-12T08:32:16Z</time>
      </trkpt>
      <trkpt lat="46.48101" lon="2.46651">
        <ele>306.9</ele>
        <time>2020-07-12T08:32:17Z</time>
      </trkpt>
      <trkpt lat="46.48096" lon="2.46655">
        <ele>306.7</ele>
        <time>2020-07-12T08:32:18Z</time>
      </trkpt>
      <trkpt lat="46.48091" lon="2.4666">
        <ele>306.6</ele>
        <time>2020-07-12T08:32:19Z</time>
      </trkpt>
      <trkpt lat="46.48086" lon="2.46664">
        <ele>306.5</ele>
        <time>2020-07-12T08:32:20Z</time>
      </trkpt>
      <trkpt lat="46.48082" lon="2.46668">
        <ele>306.6</ele>
        <time>2020-07-12T08:32:21Z</time>
      </trkpt>
      <trkpt lat="46.48077" lon="2.46673">
        <ele>306.6</ele>
        <time>2020-07-12T08:32:22Z</time>
      </trkpt>
      <trkpt lat="46.48073" lon="2.46677">
        <ele>306.4</ele>
        <time>2020-07-12T08:32:23Z</time>
      </trkpt>
      <trkpt lat="46.48068" lon="2.46681">
        <ele>306.2</ele>
        <time>2020-07-12T08:32:24Z</time>
      </trkpt>
      <trkpt lat="46.48064" lon="2.46685">
        <ele>306.1</ele>
        <time>2020-07-12T08:32:25Z</time>
      </trkpt>
      <trkpt lat="46.4806" lon="2.4669">
        <ele>306</ele>
        <time>2020-07-12T08:32:26Z</time>
      </trkpt>
      <trkpt lat="46.48055" lon="2.46694">
        <ele>306</ele>
        <time>2020-07-12T08:32:27Z</time>
      </trkpt>
      <trkpt lat="46.48051" lon="2.46699">
        <ele>305.7</ele>
        <time>2020-07-12T08:32:28Z</time>
      </trkpt>
      <trkpt lat="46.48046" lon="2.46703">
        <ele>305.5</ele>
        <time>2020-07-12T08:32:29Z</time>
      </trkpt>
      <trkpt lat="46.48042" lon="2.46707">
        <ele>305.6</ele>
        <time>2020-07-12T08:32:30Z</time>
      </trkpt>
      <trkpt lat="46.48037" lon="2.46711">
        <ele>305.7</ele>
        <time>2020-07-12T08:32:31Z</time>
      </trkpt>
      <trkpt lat="46.48032" lon="2.46714">
        <ele>305.7</ele>
        <time>2020-07-12T08:32:32Z</time>
      </trkpt>
      <trkpt lat="46.48028" lon="2.46718">
        <ele>305.6</ele>
        <time>2020-07-12T08:32:33Z</time>
      </trkpt>
      <trkpt lat="46.48023" lon="2.46723">
        <ele>305.5</ele>
        <time>2020-07-12T08:32:34Z</time>
      </trkpt>
      <trkpt lat="46.48019" lon="2.46727">
        <ele>305.1</ele>
        <time>2020-07-12T08:32:35Z</time>
      </trkpt>
      <trkpt lat="46.48015" lon="2.46731">
        <ele>304.9</ele>
        <time>2020-07-12T08:32:36Z</time>
      </trkpt>
      <trkpt lat="46.4801" lon="2.46734">
        <ele>304.8</ele>
        <time>2020-07-12T08:32:37Z</time>
      </trkpt>
      <trkpt lat="46.48006" lon="2.46738">
        <ele>304.8</ele>
        <time>2020-07-12T08:32:38Z</time>
      </trkpt>
      <trkpt lat="46.48002" lon="2.46742">
        <ele>304.8</ele>
        <time>2020-07-12T08:32:39Z</time>
      </trkpt>
      <trkpt lat="46.47998" lon="2.46745">
        <ele>304.4</ele>
        <time>2020-07-12T08:32:40Z</time>
      </trkpt>
      <trkpt lat="46.47994" lon="2.46749">
        <ele>304.1</ele>
        <time>2020-07-12T08:32:41Z</time>
      </trkpt>
      <trkpt lat="46.47987" lon="2.46756">
        <ele>303.6</ele>
        <time>2020-07-12T08:32:43Z</time>
      </trkpt>
      <trkpt lat="46.47979" lon="2.46763">
        <ele>303.2</ele>
        <time>2020-07-12T08:32:45Z</time>
      </trkpt>
      <trkpt lat="46.47972" lon="2.46769">
        <ele>302.9</ele>
        <time>2020-07-12T08:32:47Z</time>
      </trkpt>
      <trkpt lat="46.47964" lon="2.46773">
        <ele>302.5</ele>
        <time>2020-07-12T08:32:49Z</time>
      </trkpt>
      <trkpt lat="46.4796" lon="2.46775">
        <ele>302.3</ele>
        <time>2020-07-12T08:32:50Z</time>
      </trkpt>
      <trkpt lat="46.47947" lon="2.46774">
        <ele>302.1</ele>
        <time>2020-07-12T08:32:53Z</time>
      </trkpt>
      <trkpt lat="46.47939" lon="2.46773">
        <ele>301.9</ele>
        <time>2020-07-12T08:32:55Z</time>
      </trkpt>
      <trkpt lat="46.47932" lon="2.46771">
        <ele>301.8</ele>
        <time>2020-07-12T08:32:57Z</time>
      </trkpt>
      <trkpt lat="46.47925" lon="2.46769">
        <ele>301.4</ele>
        <time>2020-07-12T08:32:59Z</time>
      </trkpt>
      <trkpt lat="46.47918" lon="2.46769">
        <ele>301.6</ele>
        <time>2020-07-12T08:33:01Z</time>
      </trkpt>
      <trkpt lat="46.47913" lon="2.46769">
        <ele>301.9</ele>
        <time>2020-07-12T08:33:02Z</time>
      </trkpt>
      <trkpt lat="46.47908" lon="2.46768">
        <ele>302.1</ele>
        <time>2020-07-12T08:33:03Z</time>
      </trkpt>
      <trkpt lat="46.47903" lon="2.46767">
        <ele>301.7</ele>
        <time>2020-07-12T08:33:04Z</time>
      </trkpt>
      <trkpt lat="46.47897" lon="2.46766">
        <ele>301.5</ele>
        <time>2020-07-12T08:33:05Z</time>
      </trkpt>
      <trkpt lat="46.4789" lon="2.46765">
        <ele>300.7</ele>
        <time>2020-07-12T08:33:06Z</time>
      </trkpt>
      <trkpt lat="46.47882" lon="2.46764">
        <ele>300.2</ele>
        <time>2020-07-12T08:33:07Z</time>
      </trkpt>
      <trkpt lat="46.47874" lon="2.46764">
        <ele>299.6</ele>
        <time>2020-07-12T08:33:08Z</time>
      </trkpt>
      <trkpt lat="46.47865" lon="2.46763">
        <ele>299.2</ele>
        <time>2020-07-12T08:33:09Z</time>
      </trkpt>
      <trkpt lat="46.47855" lon="2.46762">
        <ele>298.9</ele>
        <time>2020-07-12T08:33:10Z</time>
      </trkpt>
      <trkpt lat="46.47845" lon="2.4676">
        <ele>298.6</ele>
        <time>2020-07-12T08:33:11Z</time>
      </trkpt>
      <trkpt lat="46.47834" lon="2.46758">
        <ele>298.3</ele>
        <time>2020-07-12T08:33:12Z</time>
      </trkpt>
      <trkpt lat="46.47822" lon="2.46755">
        <ele>296.8</ele>
        <time>2020-07-12T08:33:13Z</time>
      </trkpt>
      <trkpt lat="46.47811" lon="2.46753">
        <ele>295.6</ele>
        <time>2020-07-12T08:33:14Z</time>
      </trkpt>
      <trkpt lat="46.47798" lon="2.46751">
        <ele>294.2</ele>
        <time>2020-07-12T08:33:15Z</time>
      </trkpt>
      <trkpt lat="46.47786" lon="2.46749">
        <ele>293.2</ele>
        <time>2020-07-12T08:33:16Z</time>
      </trkpt>
      <trkpt lat="46.47774" lon="2.46748">
        <ele>292.4</ele>
        <time>2020-07-12T08:33:17Z</time>
      </trkpt>
      <trkpt lat="46.47763" lon="2.46748">
        <ele>290.9</ele>
        <time>2020-07-12T08:33:18Z</time>
      </trkpt>
      <trkpt lat="46.47752" lon="2.46751">
        <ele>289.7</ele>
        <time>2020-07-12T08:33:19Z</time>
      </trkpt>
      <trkpt lat="46.47742" lon="2.46756">
        <ele>287.7</ele>
        <time>2020-07-12T08:33:20Z</time>
      </trkpt>
      <trkpt lat="46.47731" lon="2.46761">
        <ele>286.2</ele>
        <time>2020-07-12T08:33:21Z</time>
      </trkpt>
      <trkpt lat="46.47721" lon="2.46766">
        <ele>285</ele>
        <time>2020-07-12T08:33:22Z</time>
      </trkpt>
      <trkpt lat="46.47711" lon="2.4677">
        <ele>284.2</ele>
        <time>2020-07-12T08:33:23Z</time>
      </trkpt>
      <trkpt lat="46.477" lon="2.46774">
        <ele>283.6</ele>
        <time>2020-07-12T08:33:24Z</time>
      </trkpt>
      <trkpt lat="46.47689" lon="2.46776">
        <ele>282.4</ele>
        <time>2020-07-12T08:33:25Z</time>
      </trkpt>
      <trkpt lat="46.47678" lon="2.46776">
        <ele>281.6</ele>
        <time>2020-07-12T08:33:26Z</time>
      </trkpt>
      <trkpt lat="46.47667" lon="2.46778">
        <ele>280.4</ele>
        <time>2020-07-12T08:33:27Z</time>
      </trkpt>
      <trkpt lat="46.47657" lon="2.4678">
        <ele>279.5</ele>
        <time>2020-07-12T08:33:28Z</time>
      </trkpt>
      <trkpt lat="46.47648" lon="2.46784">
        <ele>278.9</ele>
        <time>2020-07-12T08:33:29Z</time>
      </trkpt>
      <trkpt lat="46.4764" lon="2.46789">
        <ele>278.2</ele>
        <time>2020-07-12T08:33:30Z</time>
      </trkpt>
      <trkpt lat="46.47632" lon="2.46793">
        <ele>277.7</ele>
        <time>2020-07-12T08:33:31Z</time>
      </trkpt>
      <trkpt lat="46.47625" lon="2.46798">
        <ele>277.5</ele>
        <time>2020-07-12T08:33:32Z</time>
      </trkpt>
      <trkpt lat="46.4762" lon="2.46803">
        <ele>277.3</ele>
        <time>2020-07-12T08:33:33Z</time>
      </trkpt>
      <trkpt lat="46.47617" lon="2.46809">
        <ele>277.4</ele>
        <time>2020-07-12T08:33:34Z</time>
      </trkpt>
      <trkpt lat="46.47614" lon="2.46815">
        <ele>277.4</ele>
        <time>2020-07-12T08:33:35Z</time>
      </trkpt>
      <trkpt lat="46.47612" lon="2.46821">
        <ele>277.5</ele>
        <time>2020-07-12T08:33:36Z</time>
      </trkpt>
      <trkpt lat="46.47607" lon="2.46831">
        <ele>277.7</ele>
        <time>2020-07-12T08:33:38Z</time>
      </trkpt>
      <trkpt lat="46.47603" lon="2.46839">
        <ele>277.4</ele>
        <time>2020-07-12T08:33:40Z</time>
      </trkpt>
      <trkpt lat="46.47597" lon="2.46845">
        <ele>278.7</ele>
        <time>2020-07-12T08:33:42Z</time>
      </trkpt>
      <trkpt lat="46.47591" lon="2.46847">
        <ele>279.7</ele>
        <time>2020-07-12T08:33:44Z</time>
      </trkpt>
      <trkpt lat="46.47584" lon="2.46847">
        <ele>280.7</ele>
        <time>2020-07-12T08:33:46Z</time>
      </trkpt>
      <trkpt lat="46.47577" lon="2.46844">
        <ele>281.5</ele>
        <time>2020-07-12T08:33:48Z</time>
      </trkpt>
      <trkpt lat="46.47569" lon="2.46841">
        <ele>282.5</ele>
        <time>2020-07-12T08:33:50Z</time>
      </trkpt>
      <trkpt lat="46.47565" lon="2.46841">
        <ele>282.8</ele>
        <time>2020-07-12T08:33:51Z</time>
      </trkpt>
      <trkpt lat="46.47554" lon="2.4684">
        <ele>283.4</ele>
        <time>2020-07-12T08:33:54Z</time>
      </trkpt>
      <trkpt lat="46.47546" lon="2.46841">
        <ele>283.7</ele>
        <time>2020-07-12T08:33:56Z</time>
      </trkpt>
      <trkpt lat="46.47539" lon="2.46842">
        <ele>284.3</ele>
        <time>2020-07-12T08:33:58Z</time>
      </trkpt>
      <trkpt lat="46.47531" lon="2.46844">
        <ele>284.8</ele>
        <time>2020-07-12T08:34:01Z</time>
      </trkpt>
      <trkpt lat="46.47524" lon="2.46846">
        <ele>284.5</ele>
        <time>2020-07-12T08:34:04Z</time>
      </trkpt>
      <trkpt lat="46.47515" lon="2.46846">
        <ele>284.7</ele>
        <time>2020-07-12T08:34:07Z</time>
      </trkpt>
      <trkpt lat="46.47507" lon="2.46848">
        <ele>285.3</ele>
        <time>2020-07-12T08:34:10Z</time>
      </trkpt>
      <trkpt lat="46.475" lon="2.46848">
        <ele>284.8</ele>
        <time>2020-07-12T08:34:12Z</time>
      </trkpt>
      <trkpt lat="46.47493" lon="2.46849">
        <ele>284.1</ele>
        <time>2020-07-12T08:34:14Z</time>
      </trkpt>
      <trkpt lat="46.47486" lon="2.46849">
        <ele>283.9</ele>
        <time>2020-07-12T08:34:16Z</time>
      </trkpt>
      <trkpt lat="46.47478" lon="2.46849">
        <ele>283.7</ele>
        <time>2020-07-12T08:34:18Z</time>
      </trkpt>
      <trkpt lat="46.47473" lon="2.4685">
        <ele>283.8</ele>
        <time>2020-07-12T08:34:19Z</time>
      </trkpt>
      <trkpt lat="46.47469" lon="2.46854">
        <ele>283.8</ele>
        <time>2020-07-12T08:34:20Z</time>
      </trkpt>
      <trkpt lat="46.47466" lon="2.4686">
        <ele>283.8</ele>
        <time>2020-07-12T08:34:21Z</time>
      </trkpt>
      <trkpt lat="46.47464" lon="2.46867">
        <ele>283.8</ele>
        <time>2020-07-12T08:34:22Z</time>
      </trkpt>
      <trkpt lat="46.47463" lon="2.46875">
        <ele>283.7</ele>
        <time>2020-07-12T08:34:23Z</time>
      </trkpt>
      <trkpt lat="46.47463" lon="2.46884">
        <ele>283</ele>
        <time>2020-07-12T08:34:24Z</time>
      </trkpt>
      <trkpt lat="46.47462" lon="2.46893">
        <ele>282.5</ele>
        <time>2020-07-12T08:34:25Z</time>
      </trkpt>
      <trkpt lat="46.47462" lon="2.46902">
        <ele>282.1</ele>
        <time>2020-07-12T08:34:26Z</time>
      </trkpt>
      <trkpt lat="46.47461" lon="2.46912">
        <ele>282.4</ele>
        <time>2020-07-12T08:34:27Z</time>
      </trkpt>
      <trkpt lat="46.4746" lon="2.46922">
        <ele>282.7</ele>
        <time>2020-07-12T08:34:28Z</time>
      </trkpt>
      <trkpt lat="46.4746" lon="2.46932">
        <ele>282.6</ele>
        <time>2020-07-12T08:34:29Z</time>
      </trkpt>
      <trkpt lat="46.47459" lon="2.46942">
        <ele>282.5</ele>
        <time>2020-07-12T08:34:30Z</time>
      </trkpt>
      <trkpt lat="46.47458" lon="2.46953">
        <ele>282</ele>
        <time>2020-07-12T08:34:31Z</time>
      </trkpt>
      <trkpt lat="46.47457" lon="2.46964">
        <ele>281.7</ele>
        <time>2020-07-12T08:34:32Z</time>
      </trkpt>
      <trkpt lat="46.47456" lon="2.46975">
        <ele>281.4</ele>
        <time>2020-07-12T08:34:33Z</time>
      </trkpt>
      <trkpt lat="46.47455" lon="2.46986">
        <ele>281.1</ele>
        <time>2020-07-12T08:34:34Z</time>
      </trkpt>
      <trkpt lat="46.47454" lon="2.46998">
        <ele>280.8</ele>
        <time>2020-07-12T08:34:35Z</time>
      </trkpt>
      <trkpt lat="46.47453" lon="2.47009">
        <ele>280.3</ele>
        <time>2020-07-12T08:34:36Z</time>
      </trkpt>
      <trkpt lat="46.47452" lon="2.47021">
        <ele>279.8</ele>
        <time>2020-07-12T08:34:37Z</time>
      </trkpt>
      <trkpt lat="46.47451" lon="2.47034">
        <ele>278.8</ele>
        <time>2020-07-12T08:34:38Z</time>
      </trkpt>
      <trkpt lat="46.47449" lon="2.47046">
        <ele>278.1</ele>
        <time>2020-07-12T08:34:39Z</time>
      </trkpt>
      <trkpt lat="46.47446" lon="2.47059">
        <ele>277.6</ele>
        <time>2020-07-12T08:34:40Z</time>
      </trkpt>
      <trkpt lat="46.47444" lon="2.47071">
        <ele>277.2</ele>
        <time>2020-07-12T08:34:41Z</time>
      </trkpt>
      <trkpt lat="46.4744" lon="2.47084">
        <ele>276.9</ele>
        <time>2020-07-12T08:34:42Z</time>
      </trkpt>
      <trkpt lat="46.47437" lon="2.47096">
        <ele>276.3</ele>
        <time>2020-07-12T08:34:43Z</time>
      </trkpt>
      <trkpt lat="46.47433" lon="2.47109">
        <ele>275.8</ele>
        <time>2020-07-12T08:34:44Z</time>
      </trkpt>
      <trkpt lat="46.47429" lon="2.47121">
        <ele>275.5</ele>
        <time>2020-07-12T08:34:45Z</time>
      </trkpt>
      <trkpt lat="46.47425" lon="2.47133">
        <ele>275.2</ele>
        <time>2020-07-12T08:34:46Z</time>
      </trkpt>
      <trkpt lat="46.47421" lon="2.47145">
        <ele>275</ele>
        <time>2020-07-12T08:34:47Z</time>
      </trkpt>
      <trkpt lat="46.47417" lon="2.47157">
        <ele>274.7</ele>
        <time>2020-07-12T08:34:48Z</time>
      </trkpt>
      <trkpt lat="46.47414" lon="2.47169">
        <ele>274.4</ele>
        <time>2020-07-12T08:34:49Z</time>
      </trkpt>
      <trkpt lat="46.4741" lon="2.47181">
        <ele>274</ele>
        <time>2020-07-12T08:34:50Z</time>
      </trkpt>
      <trkpt lat="46.47407" lon="2.47192">
        <ele>273.6</ele>
        <time>2020-07-12T08:34:51Z</time>
      </trkpt>
      <trkpt lat="46.47404" lon="2.47203">
        <ele>273.3</ele>
        <time>2020-07-12T08:34:52Z</time>
      </trkpt>
      <trkpt lat="46.47401" lon="2.47214">
        <ele>273</ele>
        <time>2020-07-12T08:34:53Z</time>
      </trkpt>
      <trkpt lat="46.47399" lon="2.47225">
        <ele>272.8</ele>
        <time>2020-07-12T08:34:54Z</time>
      </trkpt>
      <trkpt lat="46.47397" lon="2.47235">
        <ele>272.8</ele>
        <time>2020-07-12T08:34:55Z</time>
      </trkpt>
      <trkpt lat="46.47396" lon="2.47245">
        <ele>272.8</ele>
        <time>2020-07-12T08:34:56Z</time>
      </trkpt>
      <trkpt lat="46.47395" lon="2.47254">
        <ele>272.8</ele>
        <time>2020-07-12T08:34:57Z</time>
      </trkpt>
      <trkpt lat="46.47395" lon="2.47263">
        <ele>272.8</ele>
        <time>2020-07-12T08:34:58Z</time>
      </trkpt>
      <trkpt lat="46.47394" lon="2.47271">
        <ele>272.8</ele>
        <time>2020-07-12T08:34:59Z</time>
      </trkpt>
      <trkpt lat="46.47394" lon="2.47278">
        <ele>272.5</ele>
        <time>2020-07-12T08:35:00Z</time>
      </trkpt>
      <trkpt lat="46.47395" lon="2.47285">
        <ele>272.4</ele>
        <time>2020-07-12T08:35:01Z</time>
      </trkpt>
      <trkpt lat="46.47395" lon="2.47292">
        <ele>272.6</ele>
        <time>2020-07-12T08:35:02Z</time>
      </trkpt>
      <trkpt lat="46.47395" lon="2.47299">
        <ele>272.8</ele>
        <time>2020-07-12T08:35:03Z</time>
      </trkpt>
      <trkpt lat="46.47396" lon="2.47306">
        <ele>273.1</ele>
        <time>2020-07-12T08:35:04Z</time>
      </trkpt>
      <trkpt lat="46.47397" lon="2.47313">
        <ele>273.4</ele>
        <time>2020-07-12T08:35:05Z</time>
      </trkpt>
      <trkpt lat="46.47398" lon="2.4732">
        <ele>273.6</ele>
        <time>2020-07-12T08:35:06Z</time>
      </trkpt>
      <trkpt lat="46.47399" lon="2.47326">
        <ele>273.7</ele>
        <time>2020-07-12T08:35:07Z</time>
      </trkpt>
      <trkpt lat="46.474" lon="2.47333">
        <ele>273.8</ele>
        <time>2020-07-12T08:35:08Z</time>
      </trkpt>
      <trkpt lat="46.47401" lon="2.4734">
        <ele>273.7</ele>
        <time>2020-07-12T08:35:09Z</time>
      </trkpt>
      <trkpt lat="46.47403" lon="2.47346">
        <ele>273.7</ele>
        <time>2020-07-12T08:35:10Z</time>
      </trkpt>
      <trkpt lat="46.47404" lon="2.47352">
        <ele>273.7</ele>
        <time>2020-07-12T08:35:11Z</time>
      </trkpt>
      <trkpt lat="46.47405" lon="2.47359">
        <ele>274.1</ele>
        <time>2020-07-12T08:35:12Z</time>
      </trkpt>
      <trkpt lat="46.47406" lon="2.47365">
        <ele>274.4</ele>
        <time>2020-07-12T08:35:13Z</time>
      </trkpt>
      <trkpt lat="46.47408" lon="2.47372">
        <ele>274.6</ele>
        <time>2020-07-12T08:35:14Z</time>
      </trkpt>
      <trkpt lat="46.47409" lon="2.47378">
        <ele>274.8</ele>
        <time>2020-07-12T08:35:15Z</time>
      </trkpt>
      <trkpt lat="46.47411" lon="2.47384">
        <ele>274.4</ele>
        <time>2020-07-12T08:35:16Z</time>
      </trkpt>
      <trkpt lat="46.47412" lon="2.4739">
        <ele>274.1</ele>
        <time>2020-07-12T08:35:17Z</time>
      </trkpt>
      <trkpt lat="46.47414" lon="2.47397">
        <ele>273.9</ele>
        <time>2020-07-12T08:35:18Z</time>
      </trkpt>
      <trkpt lat="46.47416" lon="2.47409">
        <ele>274.1</ele>
        <time>2020-07-12T08:35:20Z</time>
      </trkpt>
      <trkpt lat="46.47419" lon="2.47421">
        <ele>274.6</ele>
        <time>2020-07-12T08:35:22Z</time>
      </trkpt>
      <trkpt lat="46.47422" lon="2.47433">
        <ele>275.1</ele>
        <time>2020-07-12T08:35:24Z</time>
      </trkpt>
      <trkpt lat="46.47425" lon="2.47446">
        <ele>276</ele>
        <time>2020-07-12T08:35:26Z</time>
      </trkpt>
      <trkpt lat="46.47428" lon="2.47458">
        <ele>276.5</ele>
        <time>2020-07-12T08:35:28Z</time>
      </trkpt>
      <trkpt lat="46.4743" lon="2.4747">
        <ele>276.4</ele>
        <time>2020-07-12T08:35:30Z</time>
      </trkpt>
      <trkpt lat="46.47433" lon="2.47482">
        <ele>276.3</ele>
        <time>2020-07-12T08:35:32Z</time>
      </trkpt>
      <trkpt lat="46.47436" lon="2.47494">
        <ele>276.4</ele>
        <time>2020-07-12T08:35:34Z</time>
      </trkpt>
      <trkpt lat="46.47439" lon="2.47505">
        <ele>277.2</ele>
        <time>2020-07-12T08:35:36Z</time>
      </trkpt>
      <trkpt lat="46.47442" lon="2.47517">
        <ele>277.3</ele>
        <time>2020-07-12T08:35:38Z</time>
      </trkpt>
      <trkpt lat="46.47444" lon="2.47529">
        <ele>277.5</ele>
        <time>2020-07-12T08:35:40Z</time>
      </trkpt>
      <trkpt lat="46.47447" lon="2.47541">
        <ele>277.4</ele>
        <time>2020-07-12T08:35:42Z</time>
      </trkpt>
      <trkpt lat="46.4745" lon="2.47553">
        <ele>277</ele>
        <time>2020-07-12T08:35:44Z</time>
      </trkpt>
      <trkpt lat="46.47453" lon="2.47565">
        <ele>276.9</ele>
        <time>2020-07-12T08:35:46Z</time>
      </trkpt>
      <trkpt lat="46.47455" lon="2.47577">
        <ele>276.7</ele>
        <time>2020-07-12T08:35:48Z</time>
      </trkpt>
      <trkpt lat="46.47458" lon="2.47589">
        <ele>277.1</ele>
        <time>2020-07-12T08:35:50Z</time>
      </trkpt>
      <trkpt lat="46.4746" lon="2.47595">
        <ele>277.5</ele>
        <time>2020-07-12T08:35:51Z</time>
      </trkpt>
      <trkpt lat="46.47461" lon="2.47601">
        <ele>277.9</ele>
        <time>2020-07-12T08:35:52Z</time>
      </trkpt>
      <trkpt lat="46.47463" lon="2.47607">
        <ele>278.2</ele>
        <time>2020-07-12T08:35:53Z</time>
      </trkpt>
      <trkpt lat="46.47465" lon="2.47614">
        <ele>278</ele>
        <time>2020-07-12T08:35:54Z</time>
      </trkpt>
      <trkpt lat="46.47466" lon="2.4762">
        <ele>277.9</ele>
        <time>2020-07-12T08:35:55Z</time>
      </trkpt>
      <trkpt lat="46.47468" lon="2.47627">
        <ele>277.8</ele>
        <time>2020-07-12T08:35:56Z</time>
      </trkpt>
      <trkpt lat="46.47469" lon="2.47633">
        <ele>277.5</ele>
        <time>2020-07-12T08:35:57Z</time>
      </trkpt>
      <trkpt lat="46.47471" lon="2.4764">
        <ele>277.3</ele>
        <time>2020-07-12T08:35:58Z</time>
      </trkpt>
      <trkpt lat="46.47472" lon="2.47646">
        <ele>277.9</ele>
        <time>2020-07-12T08:35:59Z</time>
      </trkpt>
      <trkpt lat="46.47474" lon="2.47653">
        <ele>278.2</ele>
        <time>2020-07-12T08:36:00Z</time>
      </trkpt>
      <trkpt lat="46.47475" lon="2.47659">
        <ele>278.4</ele>
        <time>2020-07-12T08:36:01Z</time>
      </trkpt>
      <trkpt lat="46.47477" lon="2.47666">
        <ele>278.4</ele>
        <time>2020-07-12T08:36:02Z</time>
      </trkpt>
      <trkpt lat="46.47478" lon="2.47673">
        <ele>278.5</ele>
        <time>2020-07-12T08:36:03Z</time>
      </trkpt>
      <trkpt lat="46.4748" lon="2.47679">
        <ele>278.4</ele>
        <time>2020-07-12T08:36:04Z</time>
      </trkpt>
      <trkpt lat="46.47482" lon="2.47686">
        <ele>278.2</ele>
        <time>2020-07-12T08:36:05Z</time>
      </trkpt>
      <trkpt lat="46.47483" lon="2.47693">
        <ele>278.2</ele>
        <time>2020-07-12T08:36:06Z</time>
      </trkpt>
      <trkpt lat="46.47485" lon="2.47699">
        <ele>278.1</ele>
        <time>2020-07-12T08:36:07Z</time>
      </trkpt>
      <trkpt lat="46.47487" lon="2.47706">
        <ele>278</ele>
        <time>2020-07-12T08:36:08Z</time>
      </trkpt>
      <trkpt lat="46.47488" lon="2.47713">
        <ele>277.4</ele>
        <time>2020-07-12T08:36:09Z</time>
      </trkpt>
      <trkpt lat="46.4749" lon="2.47721">
        <ele>276.8</ele>
        <time>2020-07-12T08:36:10Z</time>
      </trkpt>
      <trkpt lat="46.47491" lon="2.47728">
        <ele>277.1</ele>
        <time>2020-07-12T08:36:11Z</time>
      </trkpt>
      <trkpt lat="46.47493" lon="2.47736">
        <ele>277.4</ele>
        <time>2020-07-12T08:36:12Z</time>
      </trkpt>
      <trkpt lat="46.47494" lon="2.47744">
        <ele>277.1</ele>
        <time>2020-07-12T08:36:13Z</time>
      </trkpt>
      <trkpt lat="46.47495" lon="2.47752">
        <ele>276.9</ele>
        <time>2020-07-12T08:36:14Z</time>
      </trkpt>
      <trkpt lat="46.47496" lon="2.4776">
        <ele>276.8</ele>
        <time>2020-07-12T08:36:15Z</time>
      </trkpt>
      <trkpt lat="46.47498" lon="2.47769">
        <ele>276.9</ele>
        <time>2020-07-12T08:36:16Z</time>
      </trkpt>
      <trkpt lat="46.47499" lon="2.47777">
        <ele>277</ele>
        <time>2020-07-12T08:36:17Z</time>
      </trkpt>
      <trkpt lat="46.47499" lon="2.47785">
        <ele>276.9</ele>
        <time>2020-07-12T08:36:18Z</time>
      </trkpt>
      <trkpt lat="46.475" lon="2.47793">
        <ele>276.9</ele>
        <time>2020-07-12T08:36:19Z</time>
      </trkpt>
      <trkpt lat="46.47501" lon="2.47801">
        <ele>276.5</ele>
        <time>2020-07-12T08:36:20Z</time>
      </trkpt>
      <trkpt lat="46.47501" lon="2.47808">
        <ele>276.2</ele>
        <time>2020-07-12T08:36:21Z</time>
      </trkpt>
      <trkpt lat="46.47502" lon="2.47816">
        <ele>276</ele>
        <time>2020-07-12T08:36:22Z</time>
      </trkpt>
      <trkpt lat="46.47502" lon="2.47824">
        <ele>276.2</ele>
        <time>2020-07-12T08:36:23Z</time>
      </trkpt>
      <trkpt lat="46.47502" lon="2.47831">
        <ele>276.4</ele>
        <time>2020-07-12T08:36:24Z</time>
      </trkpt>
      <trkpt lat="46.47503" lon="2.47839">
        <ele>276.2</ele>
        <time>2020-07-12T08:36:25Z</time>
      </trkpt>
      <trkpt lat="46.47503" lon="2.47847">
        <ele>276</ele>
        <time>2020-07-12T08:36:26Z</time>
      </trkpt>
      <trkpt lat="46.47503" lon="2.47855">
        <ele>276.1</ele>
        <time>2020-07-12T08:36:27Z</time>
      </trkpt>
      <trkpt lat="46.47504" lon="2.47863">
        <ele>276.2</ele>
        <time>2020-07-12T08:36:28Z</time>
      </trkpt>
      <trkpt lat="46.47504" lon="2.47871">
        <ele>276.2</ele>
        <time>2020-07-12T08:36:29Z</time>
      </trkpt>
      <trkpt lat="46.47504" lon="2.47879">
        <ele>276</ele>
        <time>2020-07-12T08:36:30Z</time>
      </trkpt>
      <trkpt lat="46.47505" lon="2.47887">
        <ele>275.9</ele>
        <time>2020-07-12T08:36:31Z</time>
      </trkpt>
      <trkpt lat="46.47505" lon="2.47895">
        <ele>275.8</ele>
        <time>2020-07-12T08:36:32Z</time>
      </trkpt>
      <trkpt lat="46.47506" lon="2.47902">
        <ele>275.7</ele>
        <time>2020-07-12T08:36:33Z</time>
      </trkpt>
      <trkpt lat="46.47506" lon="2.4791">
        <ele>275.6</ele>
        <time>2020-07-12T08:36:34Z</time>
      </trkpt>
      <trkpt lat="46.47506" lon="2.47917">
        <ele>275.5</ele>
        <time>2020-07-12T08:36:35Z</time>
      </trkpt>
      <trkpt lat="46.47507" lon="2.47925">
        <ele>275.4</ele>
        <time>2020-07-12T08:36:36Z</time>
      </trkpt>
      <trkpt lat="46.47507" lon="2.47932">
        <ele>275.3</ele>
        <time>2020-07-12T08:36:37Z</time>
      </trkpt>
      <trkpt lat="46.47507" lon="2.47939">
        <ele>275.2</ele>
        <time>2020-07-12T08:36:38Z</time>
      </trkpt>
      <trkpt lat="46.47507" lon="2.47947">
        <ele>275</ele>
        <time>2020-07-12T08:36:39Z</time>
      </trkpt>
      <trkpt lat="46.47507" lon="2.47954">
        <ele>274.8</ele>
        <time>2020-07-12T08:36:40Z</time>
      </trkpt>
      <trkpt lat="46.47508" lon="2.47962">
        <ele>274.7</ele>
        <time>2020-07-12T08:36:41Z</time>
      </trkpt>
      <trkpt lat="46.47508" lon="2.47969">
        <ele>274.6</ele>
        <time>2020-07-12T08:36:42Z</time>
      </trkpt>
      <trkpt lat="46.47508" lon="2.47976">
        <ele>274.5</ele>
        <time>2020-07-12T08:36:43Z</time>
      </trkpt>
      <trkpt lat="46.47509" lon="2.47983">
        <ele>274.4</ele>
        <time>2020-07-12T08:36:44Z</time>
      </trkpt>
      <trkpt lat="46.47509" lon="2.47991">
        <ele>274.3</ele>
        <time>2020-07-12T08:36:45Z</time>
      </trkpt>
      <trkpt lat="46.47509" lon="2.47998">
        <ele>274.3</ele>
        <time>2020-07-12T08:36:46Z</time>
      </trkpt>
      <trkpt lat="46.47509" lon="2.48006">
        <ele>274.5</ele>
        <time>2020-07-12T08:36:47Z</time>
      </trkpt>
      <trkpt lat="46.4751" lon="2.48013">
        <ele>274.7</ele>
        <time>2020-07-12T08:36:48Z</time>
      </trkpt>
      <trkpt lat="46.4751" lon="2.4802">
        <ele>274.5</ele>
        <time>2020-07-12T08:36:49Z</time>
      </trkpt>
      <trkpt lat="46.4751" lon="2.48028">
        <ele>274.4</ele>
        <time>2020-07-12T08:36:50Z</time>
      </trkpt>
      <trkpt lat="46.47511" lon="2.48035">
        <ele>273.9</ele>
        <time>2020-07-12T08:36:51Z</time>
      </trkpt>
      <trkpt lat="46.47511" lon="2.48043">
        <ele>273.5</ele>
        <time>2020-07-12T08:36:52Z</time>
      </trkpt>
      <trkpt lat="46.47511" lon="2.4805">
        <ele>273.2</ele>
        <time>2020-07-12T08:36:53Z</time>
      </trkpt>
      <trkpt lat="46.47511" lon="2.48057">
        <ele>273.3</ele>
        <time>2020-07-12T08:36:54Z</time>
      </trkpt>
      <trkpt lat="46.47512" lon="2.48064">
        <ele>273.4</ele>
        <time>2020-07-12T08:36:55Z</time>
      </trkpt>
      <trkpt lat="46.47512" lon="2.48071">
        <ele>273.4</ele>
        <time>2020-07-12T08:36:56Z</time>
      </trkpt>
      <trkpt lat="46.47512" lon="2.48078">
        <ele>273.3</ele>
        <time>2020-07-12T08:36:57Z</time>
      </trkpt>
      <trkpt lat="46.47513" lon="2.48085">
        <ele>273.1</ele>
        <time>2020-07-12T08:36:58Z</time>
      </trkpt>
      <trkpt lat="46.47513" lon="2.48092">
        <ele>272.9</ele>
        <time>2020-07-12T08:36:59Z</time>
      </trkpt>
      <trkpt lat="46.47514" lon="2.48098">
        <ele>272.8</ele>
        <time>2020-07-12T08:37:00Z</time>
      </trkpt>
      <trkpt lat="46.47514" lon="2.48105">
        <ele>273</ele>
        <time>2020-07-12T08:37:01Z</time>
      </trkpt>
      <trkpt lat="46.47514" lon="2.48112">
        <ele>273.2</ele>
        <time>2020-07-12T08:37:02Z</time>
      </trkpt>
      <trkpt lat="46.47514" lon="2.48119">
        <ele>273.3</ele>
        <time>2020-07-12T08:37:03Z</time>
      </trkpt>
      <trkpt lat="46.47509" lon="2.48129">
        <ele>273.2</ele>
        <time>2020-07-12T08:37:05Z</time>
      </trkpt>
      <trkpt lat="46.47501" lon="2.48133">
        <ele>272.8</ele>
        <time>2020-07-12T08:37:07Z</time>
      </trkpt>
      <trkpt lat="46.47494" lon="2.48135">
        <ele>272.7</ele>
        <time>2020-07-12T08:37:09Z</time>
      </trkpt>
      <trkpt lat="46.47487" lon="2.48137">
        <ele>273.2</ele>
        <time>2020-07-12T08:37:11Z</time>
      </trkpt>
      <trkpt lat="46.4748" lon="2.4814">
        <ele>273.6</ele>
        <time>2020-07-12T08:37:13Z</time>
      </trkpt>
      <trkpt lat="46.47473" lon="2.48143">
        <ele>273.7</ele>
        <time>2020-07-12T08:37:15Z</time>
      </trkpt>
      <trkpt lat="46.47465" lon="2.48146">
        <ele>273.2</ele>
        <time>2020-07-12T08:37:17Z</time>
      </trkpt>
      <trkpt lat="46.47459" lon="2.4815">
        <ele>272.6</ele>
        <time>2020-07-12T08:37:19Z</time>
      </trkpt>
      <trkpt lat="46.47452" lon="2.48154">
        <ele>273.2</ele>
        <time>2020-07-12T08:37:21Z</time>
      </trkpt>
      <trkpt lat="46.47445" lon="2.48157">
        <ele>273.1</ele>
        <time>2020-07-12T08:37:23Z</time>
      </trkpt>
      <trkpt lat="46.47437" lon="2.48159">
        <ele>271.9</ele>
        <time>2020-07-12T08:37:25Z</time>
      </trkpt>
      <trkpt lat="46.4743" lon="2.48162">
        <ele>271.4</ele>
        <time>2020-07-12T08:37:27Z</time>
      </trkpt>
      <trkpt lat="46.47424" lon="2.48164">
        <ele>271.3</ele>
        <time>2020-07-12T08:37:29Z</time>
      </trkpt>
      <trkpt lat="46.47418" lon="2.48166">
        <ele>271.3</ele>
        <time>2020-07-12T08:37:31Z</time>
      </trkpt>
      <trkpt lat="46.47409" lon="2.48169">
        <ele>271.2</ele>
        <time>2020-07-12T08:37:35Z</time>
      </trkpt>
      <trkpt lat="46.47403" lon="2.48174">
        <ele>270.3</ele>
        <time>2020-07-12T08:38:26Z</time>
      </trkpt>
      <trkpt lat="46.47401" lon="2.48175">
        <ele>270.5</ele>
        <time>2020-07-12T08:38:27Z</time>
      </trkpt>
      <trkpt lat="46.47388" lon="2.4818">
        <ele>270</ele>
        <time>2020-07-12T08:38:31Z</time>
      </trkpt>
      <trkpt lat="46.47383" lon="2.48182">
        <ele>270</ele>
        <time>2020-07-12T08:38:32Z</time>
      </trkpt>
      <trkpt lat="46.47378" lon="2.48184">
        <ele>269.8</ele>
        <time>2020-07-12T08:38:33Z</time>
      </trkpt>
      <trkpt lat="46.47373" lon="2.48186">
        <ele>269.6</ele>
        <time>2020-07-12T08:38:34Z</time>
      </trkpt>
      <trkpt lat="46.47367" lon="2.48188">
        <ele>269.5</ele>
        <time>2020-07-12T08:38:35Z</time>
      </trkpt>
      <trkpt lat="46.47362" lon="2.4819">
        <ele>269.7</ele>
        <time>2020-07-12T08:38:36Z</time>
      </trkpt>
      <trkpt lat="46.47357" lon="2.48193">
        <ele>269.9</ele>
        <time>2020-07-12T08:38:37Z</time>
      </trkpt>
      <trkpt lat="46.47352" lon="2.48195">
        <ele>269.5</ele>
        <time>2020-07-12T08:38:38Z</time>
      </trkpt>
      <trkpt lat="46.47347" lon="2.48197">
        <ele>269.3</ele>
        <time>2020-07-12T08:38:39Z</time>
      </trkpt>
      <trkpt lat="46.47341" lon="2.48199">
        <ele>268.8</ele>
        <time>2020-07-12T08:38:40Z</time>
      </trkpt>
      <trkpt lat="46.47336" lon="2.48201">
        <ele>268.4</ele>
        <time>2020-07-12T08:38:41Z</time>
      </trkpt>
      <trkpt lat="46.47331" lon="2.48203">
        <ele>268.1</ele>
        <time>2020-07-12T08:38:42Z</time>
      </trkpt>
      <trkpt lat="46.47325" lon="2.48205">
        <ele>268.1</ele>
        <time>2020-07-12T08:38:43Z</time>
      </trkpt>
      <trkpt lat="46.4732" lon="2.48207">
        <ele>268.2</ele>
        <time>2020-07-12T08:38:44Z</time>
      </trkpt>
      <trkpt lat="46.47315" lon="2.48209">
        <ele>268</ele>
        <time>2020-07-12T08:38:45Z</time>
      </trkpt>
      <trkpt lat="46.47311" lon="2.48211">
        <ele>267.9</ele>
        <time>2020-07-12T08:38:46Z</time>
      </trkpt>
      <trkpt lat="46.47306" lon="2.48213">
        <ele>267.4</ele>
        <time>2020-07-12T08:38:47Z</time>
      </trkpt>
      <trkpt lat="46.473" lon="2.48215">
        <ele>267</ele>
        <time>2020-07-12T08:38:48Z</time>
      </trkpt>
      <trkpt lat="46.47295" lon="2.48218">
        <ele>266.7</ele>
        <time>2020-07-12T08:38:49Z</time>
      </trkpt>
      <trkpt lat="46.47289" lon="2.4822">
        <ele>266.7</ele>
        <time>2020-07-12T08:38:50Z</time>
      </trkpt>
      <trkpt lat="46.47283" lon="2.48222">
        <ele>266.7</ele>
        <time>2020-07-12T08:38:51Z</time>
      </trkpt>
      <trkpt lat="46.47277" lon="2.48225">
        <ele>266.5</ele>
        <time>2020-07-12T08:38:52Z</time>
      </trkpt>
      <trkpt lat="46.47271" lon="2.48228">
        <ele>266.4</ele>
        <time>2020-07-12T08:38:53Z</time>
      </trkpt>
      <trkpt lat="46.47265" lon="2.4823">
        <ele>266.3</ele>
        <time>2020-07-12T08:38:54Z</time>
      </trkpt>
      <trkpt lat="46.47259" lon="2.48233">
        <ele>265.9</ele>
        <time>2020-07-12T08:38:55Z</time>
      </trkpt>
      <trkpt lat="46.47253" lon="2.48236">
        <ele>265.7</ele>
        <time>2020-07-12T08:38:56Z</time>
      </trkpt>
      <trkpt lat="46.47246" lon="2.48238">
        <ele>265.6</ele>
        <time>2020-07-12T08:38:57Z</time>
      </trkpt>
      <trkpt lat="46.4724" lon="2.48241">
        <ele>265.5</ele>
        <time>2020-07-12T08:38:58Z</time>
      </trkpt>
      <trkpt lat="46.47234" lon="2.48244">
        <ele>265.4</ele>
        <time>2020-07-12T08:38:59Z</time>
      </trkpt>
      <trkpt lat="46.47228" lon="2.48247">
        <ele>265.2</ele>
        <time>2020-07-12T08:39:00Z</time>
      </trkpt>
      <trkpt lat="46.47221" lon="2.48249">
        <ele>265.1</ele>
        <time>2020-07-12T08:39:01Z</time>
      </trkpt>
      <trkpt lat="46.47215" lon="2.48252">
        <ele>264.9</ele>
        <time>2020-07-12T08:39:02Z</time>
      </trkpt>
      <trkpt lat="46.47209" lon="2.48254">
        <ele>264.7</ele>
        <time>2020-07-12T08:39:03Z</time>
      </trkpt>
      <trkpt lat="46.47204" lon="2.48257">
        <ele>265</ele>
        <time>2020-07-12T08:39:04Z</time>
      </trkpt>
      <trkpt lat="46.47198" lon="2.4826">
        <ele>265.2</ele>
        <time>2020-07-12T08:39:05Z</time>
      </trkpt>
      <trkpt lat="46.47193" lon="2.48263">
        <ele>265.4</ele>
        <time>2020-07-12T08:39:06Z</time>
      </trkpt>
      <trkpt lat="46.47188" lon="2.48266">
        <ele>265.1</ele>
        <time>2020-07-12T08:39:07Z</time>
      </trkpt>
      <trkpt lat="46.47183" lon="2.4827">
        <ele>264.8</ele>
        <time>2020-07-12T08:39:08Z</time>
      </trkpt>
      <trkpt lat="46.47179" lon="2.48274">
        <ele>264.5</ele>
        <time>2020-07-12T08:39:09Z</time>
      </trkpt>
      <trkpt lat="46.47175" lon="2.48278">
        <ele>264.2</ele>
        <time>2020-07-12T08:39:10Z</time>
      </trkpt>
      <trkpt lat="46.47172" lon="2.48282">
        <ele>264</ele>
        <time>2020-07-12T08:39:11Z</time>
      </trkpt>
      <trkpt lat="46.47168" lon="2.48287">
        <ele>263.9</ele>
        <time>2020-07-12T08:39:12Z</time>
      </trkpt>
      <trkpt lat="46.47161" lon="2.48295">
        <ele>263.8</ele>
        <time>2020-07-12T08:39:14Z</time>
      </trkpt>
      <trkpt lat="46.47155" lon="2.48302">
        <ele>263.1</ele>
        <time>2020-07-12T08:39:16Z</time>
      </trkpt>
      <trkpt lat="46.47149" lon="2.48308">
        <ele>262.8</ele>
        <time>2020-07-12T08:39:18Z</time>
      </trkpt>
      <trkpt lat="46.47143" lon="2.48315">
        <ele>263</ele>
        <time>2020-07-12T08:39:20Z</time>
      </trkpt>
      <trkpt lat="46.47137" lon="2.4832">
        <ele>263.6</ele>
        <time>2020-07-12T08:39:23Z</time>
      </trkpt>
      <trkpt lat="46.4713" lon="2.48327">
        <ele>264.2</ele>
        <time>2020-07-12T08:39:26Z</time>
      </trkpt>
      <trkpt lat="46.47125" lon="2.48334">
        <ele>265.1</ele>
        <time>2020-07-12T08:39:29Z</time>
      </trkpt>
      <trkpt lat="46.47123" lon="2.48337">
        <ele>265.6</ele>
        <time>2020-07-12T08:39:30Z</time>
      </trkpt>
      <trkpt lat="46.47112" lon="2.48348">
        <ele>267.2</ele>
        <time>2020-07-12T08:39:35Z</time>
      </trkpt>
      <trkpt lat="46.47107" lon="2.48353">
        <ele>268.1</ele>
        <time>2020-07-12T08:39:37Z</time>
      </trkpt>
      <trkpt lat="46.47101" lon="2.48357">
        <ele>268.8</ele>
        <time>2020-07-12T08:39:39Z</time>
      </trkpt>
      <trkpt lat="46.47095" lon="2.48362">
        <ele>270.1</ele>
        <time>2020-07-12T08:39:42Z</time>
      </trkpt>
      <trkpt lat="46.47087" lon="2.48363">
        <ele>271.1</ele>
        <time>2020-07-12T08:39:46Z</time>
      </trkpt>
      <trkpt lat="46.4708" lon="2.4836">
        <ele>272</ele>
        <time>2020-07-12T08:39:50Z</time>
      </trkpt>
      <trkpt lat="46.47072" lon="2.48355">
        <ele>273.4</ele>
        <time>2020-07-12T08:39:54Z</time>
      </trkpt>
      <trkpt lat="46.47065" lon="2.48348">
        <ele>273.8</ele>
        <time>2020-07-12T08:39:58Z</time>
      </trkpt>
      <trkpt lat="46.47059" lon="2.48339">
        <ele>275.5</ele>
        <time>2020-07-12T08:40:03Z</time>
      </trkpt>
      <trkpt lat="46.47054" lon="2.48331">
        <ele>276.8</ele>
        <time>2020-07-12T08:40:07Z</time>
      </trkpt>
      <trkpt lat="46.4705" lon="2.4832">
        <ele>277.3</ele>
        <time>2020-07-12T08:40:11Z</time>
      </trkpt>
      <trkpt lat="46.47045" lon="2.48311">
        <ele>277.4</ele>
        <time>2020-07-12T08:40:14Z</time>
      </trkpt>
      <trkpt lat="46.4704" lon="2.48302">
        <ele>277.6</ele>
        <time>2020-07-12T08:40:17Z</time>
      </trkpt>
      <trkpt lat="46.47035" lon="2.48292">
        <ele>277.8</ele>
        <time>2020-07-12T08:40:20Z</time>
      </trkpt>
      <trkpt lat="46.47029" lon="2.48285">
        <ele>277.5</ele>
        <time>2020-07-12T08:40:23Z</time>
      </trkpt>
      <trkpt lat="46.47022" lon="2.48277">
        <ele>278.6</ele>
        <time>2020-07-12T08:40:27Z</time>
      </trkpt>
      <trkpt lat="46.47015" lon="2.4827">
        <ele>279.3</ele>
        <time>2020-07-12T08:40:31Z</time>
      </trkpt>
      <trkpt lat="46.47013" lon="2.48269">
        <ele>279.5</ele>
        <time>2020-07-12T08:40:32Z</time>
      </trkpt>
      <trkpt lat="46.47" lon="2.48261">
        <ele>279.7</ele>
        <time>2020-07-12T08:40:39Z</time>
      </trkpt>
      <trkpt lat="46.46991" lon="2.48258">
        <ele>280.5</ele>
        <time>2020-07-12T08:40:43Z</time>
      </trkpt>
      <trkpt lat="46.46984" lon="2.48253">
        <ele>280.4</ele>
        <time>2020-07-12T08:40:46Z</time>
      </trkpt>
      <trkpt lat="46.46978" lon="2.4825">
        <ele>280.9</ele>
        <time>2020-07-12T08:40:48Z</time>
      </trkpt>
      <trkpt lat="46.46971" lon="2.48248">
        <ele>280.2</ele>
        <time>2020-07-12T08:40:50Z</time>
      </trkpt>
      <trkpt lat="46.46964" lon="2.48248">
        <ele>280.5</ele>
        <time>2020-07-12T08:40:52Z</time>
      </trkpt>
      <trkpt lat="46.46958" lon="2.4825">
        <ele>279.9</ele>
        <time>2020-07-12T08:40:54Z</time>
      </trkpt>
      <trkpt lat="46.46951" lon="2.48253">
        <ele>279.7</ele>
        <time>2020-07-12T08:40:56Z</time>
      </trkpt>
      <trkpt lat="46.46944" lon="2.48256">
        <ele>279.8</ele>
        <time>2020-07-12T08:40:58Z</time>
      </trkpt>
      <trkpt lat="46.46937" lon="2.48259">
        <ele>279.9</ele>
        <time>2020-07-12T08:41:00Z</time>
      </trkpt>
      <trkpt lat="46.46931" lon="2.48261">
        <ele>279.9</ele>
        <time>2020-07-12T08:41:02Z</time>
      </trkpt>
      <trkpt lat="46.46924" lon="2.48265">
        <ele>280.4</ele>
        <time>2020-07-12T08:41:04Z</time>
      </trkpt>
      <trkpt lat="46.46918" lon="2.48268">
        <ele>280.6</ele>
        <time>2020-07-12T08:41:06Z</time>
      </trkpt>
      <trkpt lat="46.4691" lon="2.48272">
        <ele>280.5</ele>
        <time>2020-07-12T08:41:08Z</time>
      </trkpt>
      <trkpt lat="46.46903" lon="2.48275">
        <ele>280.5</ele>
        <time>2020-07-12T08:41:10Z</time>
      </trkpt>
      <trkpt lat="46.46896" lon="2.48278">
        <ele>280.2</ele>
        <time>2020-07-12T08:41:12Z</time>
      </trkpt>
      <trkpt lat="46.46889" lon="2.4828">
        <ele>279.7</ele>
        <time>2020-07-12T08:41:14Z</time>
      </trkpt>
      <trkpt lat="46.46881" lon="2.48284">
        <ele>280.2</ele>
        <time>2020-07-12T08:41:16Z</time>
      </trkpt>
      <trkpt lat="46.46873" lon="2.48287">
        <ele>280.3</ele>
        <time>2020-07-12T08:41:18Z</time>
      </trkpt>
      <trkpt lat="46.46864" lon="2.48291">
        <ele>280.1</ele>
        <time>2020-07-12T08:41:20Z</time>
      </trkpt>
      <trkpt lat="46.46856" lon="2.48295">
        <ele>280</ele>
        <time>2020-07-12T08:41:22Z</time>
      </trkpt>
      <trkpt lat="46.46848" lon="2.48299">
        <ele>279.8</ele>
        <time>2020-07-12T08:41:24Z</time>
      </trkpt>
      <trkpt lat="46.4684" lon="2.48302">
        <ele>279.9</ele>
        <time>2020-07-12T08:41:26Z</time>
      </trkpt>
      <trkpt lat="46.46832" lon="2.48306">
        <ele>280.1</ele>
        <time>2020-07-12T08:41:28Z</time>
      </trkpt>
      <trkpt lat="46.46824" lon="2.4831">
        <ele>279.5</ele>
        <time>2020-07-12T08:41:30Z</time>
      </trkpt>
      <trkpt lat="46.46817" lon="2.48312">
        <ele>279.1</ele>
        <time>2020-07-12T08:41:32Z</time>
      </trkpt>
      <trkpt lat="46.46813" lon="2.48314">
        <ele>279</ele>
        <time>2020-07-12T08:41:33Z</time>
      </trkpt>
      <trkpt lat="46.46801" lon="2.48315">
        <ele>278.7</ele>
        <time>2020-07-12T08:41:36Z</time>
      </trkpt>
      <trkpt lat="46.46793" lon="2.48315">
        <ele>278.4</ele>
        <time>2020-07-12T08:41:38Z</time>
      </trkpt>
      <trkpt lat="46.46785" lon="2.48315">
        <ele>278.4</ele>
        <time>2020-07-12T08:41:40Z</time>
      </trkpt>
      <trkpt lat="46.46777" lon="2.48313">
        <ele>278.6</ele>
        <time>2020-07-12T08:41:42Z</time>
      </trkpt>
      <trkpt lat="46.46769" lon="2.48312">
        <ele>278.7</ele>
        <time>2020-07-12T08:41:44Z</time>
      </trkpt>
      <trkpt lat="46.46761" lon="2.48311">
        <ele>278</ele>
        <time>2020-07-12T08:41:46Z</time>
      </trkpt>
      <trkpt lat="46.46754" lon="2.48309">
        <ele>278</ele>
        <time>2020-07-12T08:41:48Z</time>
      </trkpt>
      <trkpt lat="46.46747" lon="2.48308">
        <ele>277.4</ele>
        <time>2020-07-12T08:41:50Z</time>
      </trkpt>
      <trkpt lat="46.46739" lon="2.48307">
        <ele>276.6</ele>
        <time>2020-07-12T08:41:52Z</time>
      </trkpt>
      <trkpt lat="46.46732" lon="2.48305">
        <ele>277.4</ele>
        <time>2020-07-12T08:41:54Z</time>
      </trkpt>
      <trkpt lat="46.46725" lon="2.48305">
        <ele>278.2</ele>
        <time>2020-07-12T08:41:56Z</time>
      </trkpt>
      <trkpt lat="46.46717" lon="2.48304">
        <ele>277.9</ele>
        <time>2020-07-12T08:42:20Z</time>
      </trkpt>
      <trkpt lat="46.46709" lon="2.48302">
        <ele>278.4</ele>
        <time>2020-07-12T08:42:51Z</time>
      </trkpt>
      <trkpt lat="46.46707" lon="2.48302">
        <ele>278.4</ele>
        <time>2020-07-12T08:42:52Z</time>
      </trkpt>
      <trkpt lat="46.46695" lon="2.48305">
        <ele>278.6</ele>
        <time>2020-07-12T08:42:57Z</time>
      </trkpt>
      <trkpt lat="46.46687" lon="2.48307">
        <ele>279.3</ele>
        <time>2020-07-12T08:43:00Z</time>
      </trkpt>
      <trkpt lat="46.46679" lon="2.4831">
        <ele>280.6</ele>
        <time>2020-07-12T08:43:03Z</time>
      </trkpt>
      <trkpt lat="46.4667" lon="2.48314">
        <ele>281.1</ele>
        <time>2020-07-12T08:43:06Z</time>
      </trkpt>
      <trkpt lat="46.46662" lon="2.48317">
        <ele>281</ele>
        <time>2020-07-12T08:43:09Z</time>
      </trkpt>
      <trkpt lat="46.46655" lon="2.4832">
        <ele>280.8</ele>
        <time>2020-07-12T08:43:12Z</time>
      </trkpt>
      <trkpt lat="46.46646" lon="2.48323">
        <ele>282.4</ele>
        <time>2020-07-12T08:43:16Z</time>
      </trkpt>
      <trkpt lat="46.46639" lon="2.48326">
        <ele>283.6</ele>
        <time>2020-07-12T08:43:19Z</time>
      </trkpt>
      <trkpt lat="46.46632" lon="2.48328">
        <ele>283.8</ele>
        <time>2020-07-12T08:43:22Z</time>
      </trkpt>
      <trkpt lat="46.46624" lon="2.48331">
        <ele>285.8</ele>
        <time>2020-07-12T08:43:26Z</time>
      </trkpt>
      <trkpt lat="46.46615" lon="2.48334">
        <ele>286.4</ele>
        <time>2020-07-12T08:43:30Z</time>
      </trkpt>
      <trkpt lat="46.46608" lon="2.48336">
        <ele>286.6</ele>
        <time>2020-07-12T08:43:33Z</time>
      </trkpt>
      <trkpt lat="46.46602" lon="2.48339">
        <ele>287.1</ele>
        <time>2020-07-12T08:43:36Z</time>
      </trkpt>
      <trkpt lat="46.46595" lon="2.48341">
        <ele>287.7</ele>
        <time>2020-07-12T08:43:39Z</time>
      </trkpt>
      <trkpt lat="46.46587" lon="2.48343">
        <ele>288</ele>
        <time>2020-07-12T08:43:42Z</time>
      </trkpt>
      <trkpt lat="46.4658" lon="2.48343">
        <ele>288.7</ele>
        <time>2020-07-12T08:43:45Z</time>
      </trkpt>
      <trkpt lat="46.46573" lon="2.48345">
        <ele>288.3</ele>
        <time>2020-07-12T08:43:48Z</time>
      </trkpt>
      <trkpt lat="46.46565" lon="2.48348">
        <ele>289.3</ele>
        <time>2020-07-12T08:43:51Z</time>
      </trkpt>
      <trkpt lat="46.46558" lon="2.48351">
        <ele>290</ele>
        <time>2020-07-12T08:43:54Z</time>
      </trkpt>
      <trkpt lat="46.46555" lon="2.48353">
        <ele>290.2</ele>
        <time>2020-07-12T08:43:55Z</time>
      </trkpt>
      <trkpt lat="46.46542" lon="2.48358">
        <ele>291.5</ele>
        <time>2020-07-12T08:44:00Z</time>
      </trkpt>
      <trkpt lat="46.46535" lon="2.4836">
        <ele>292.2</ele>
        <time>2020-07-12T08:44:03Z</time>
      </trkpt>
      <trkpt lat="46.46528" lon="2.48363">
        <ele>292.2</ele>
        <time>2020-07-12T08:44:06Z</time>
      </trkpt>
      <trkpt lat="46.46519" lon="2.48366">
        <ele>294</ele>
        <time>2020-07-12T08:44:09Z</time>
      </trkpt>
      <trkpt lat="46.46511" lon="2.48368">
        <ele>293.4</ele>
        <time>2020-07-12T08:44:12Z</time>
      </trkpt>
      <trkpt lat="46.46503" lon="2.48371">
        <ele>293.8</ele>
        <time>2020-07-12T08:44:15Z</time>
      </trkpt>
      <trkpt lat="46.46496" lon="2.48374">
        <ele>294.9</ele>
        <time>2020-07-12T08:44:18Z</time>
      </trkpt>
      <trkpt lat="46.46489" lon="2.48377">
        <ele>295.3</ele>
        <time>2020-07-12T08:44:21Z</time>
      </trkpt>
      <trkpt lat="46.46482" lon="2.48379">
        <ele>295.7</ele>
        <time>2020-07-12T08:44:24Z</time>
      </trkpt>
      <trkpt lat="46.46477" lon="2.48383">
        <ele>296</ele>
        <time>2020-07-12T08:44:27Z</time>
      </trkpt>
      <trkpt lat="46.4647" lon="2.48388">
        <ele>296.7</ele>
        <time>2020-07-12T08:44:30Z</time>
      </trkpt>
      <trkpt lat="46.46462" lon="2.48389">
        <ele>297.1</ele>
        <time>2020-07-12T08:44:33Z</time>
      </trkpt>
      <trkpt lat="46.46453" lon="2.48392">
        <ele>298.4</ele>
        <time>2020-07-12T08:44:36Z</time>
      </trkpt>
      <trkpt lat="46.46445" lon="2.48396">
        <ele>298.6</ele>
        <time>2020-07-12T08:44:39Z</time>
      </trkpt>
      <trkpt lat="46.46437" lon="2.48398">
        <ele>298.8</ele>
        <time>2020-07-12T08:44:42Z</time>
      </trkpt>
      <trkpt lat="46.46429" lon="2.48399">
        <ele>300.3</ele>
        <time>2020-07-12T08:44:45Z</time>
      </trkpt>
      <trkpt lat="46.46421" lon="2.48401">
        <ele>300.5</ele>
        <time>2020-07-12T08:44:48Z</time>
      </trkpt>
      <trkpt lat="46.46413" lon="2.48404">
        <ele>300.8</ele>
        <time>2020-07-12T08:44:51Z</time>
      </trkpt>
      <trkpt lat="46.46404" lon="2.48406">
        <ele>300.3</ele>
        <time>2020-07-12T08:44:54Z</time>
      </trkpt>
      <trkpt lat="46.46395" lon="2.48409">
        <ele>301</ele>
        <time>2020-07-12T08:44:57Z</time>
      </trkpt>
      <trkpt lat="46.46393" lon="2.48409">
        <ele>300.8</ele>
        <time>2020-07-12T08:44:58Z</time>
      </trkpt>
      <trkpt lat="46.46381" lon="2.48415">
        <ele>301</ele>
        <time>2020-07-12T08:45:02Z</time>
      </trkpt>
      <trkpt lat="46.46373" lon="2.48419">
        <ele>301.4</ele>
        <time>2020-07-12T08:45:05Z</time>
      </trkpt>
      <trkpt lat="46.46365" lon="2.48424">
        <ele>302.2</ele>
        <time>2020-07-12T08:45:08Z</time>
      </trkpt>
      <trkpt lat="46.46359" lon="2.48429">
        <ele>302.3</ele>
        <time>2020-07-12T08:45:10Z</time>
      </trkpt>
      <trkpt lat="46.46353" lon="2.48433">
        <ele>302</ele>
        <time>2020-07-12T08:45:12Z</time>
      </trkpt>
      <trkpt lat="46.46347" lon="2.48438">
        <ele>301.6</ele>
        <time>2020-07-12T08:45:14Z</time>
      </trkpt>
      <trkpt lat="46.46341" lon="2.48442">
        <ele>301.4</ele>
        <time>2020-07-12T08:45:16Z</time>
      </trkpt>
      <trkpt lat="46.46335" lon="2.48445">
        <ele>301.7</ele>
        <time>2020-07-12T08:45:18Z</time>
      </trkpt>
      <trkpt lat="46.46329" lon="2.48448">
        <ele>302.3</ele>
        <time>2020-07-12T08:45:20Z</time>
      </trkpt>
      <trkpt lat="46.46322" lon="2.48451">
        <ele>302.3</ele>
        <time>2020-07-12T08:45:22Z</time>
      </trkpt>
      <trkpt lat="46.46316" lon="2.48454">
        <ele>301.9</ele>
        <time>2020-07-12T08:45:24Z</time>
      </trkpt>
      <trkpt lat="46.4631" lon="2.48456">
        <ele>301.5</ele>
        <time>2020-07-12T08:45:26Z</time>
      </trkpt>
      <trkpt lat="46.46304" lon="2.48458">
        <ele>301.3</ele>
        <time>2020-07-12T08:45:28Z</time>
      </trkpt>
      <trkpt lat="46.46297" lon="2.48459">
        <ele>301.4</ele>
        <time>2020-07-12T08:45:30Z</time>
      </trkpt>
      <trkpt lat="46.46291" lon="2.48461">
        <ele>301.8</ele>
        <time>2020-07-12T08:45:32Z</time>
      </trkpt>
      <trkpt lat="46.46282" lon="2.48463">
        <ele>303</ele>
        <time>2020-07-12T08:45:35Z</time>
      </trkpt>
      <trkpt lat="46.46274" lon="2.48462">
        <ele>302.9</ele>
        <time>2020-07-12T08:45:39Z</time>
      </trkpt>
      <trkpt lat="46.46268" lon="2.48455">
        <ele>302.6</ele>
        <time>2020-07-12T08:45:43Z</time>
      </trkpt>
      <trkpt lat="46.46262" lon="2.48446">
        <ele>303</ele>
        <time>2020-07-12T08:45:47Z</time>
      </trkpt>
      <trkpt lat="46.46256" lon="2.48438">
        <ele>303.3</ele>
        <time>2020-07-12T08:45:52Z</time>
      </trkpt>
      <trkpt lat="46.46251" lon="2.4843">
        <ele>303.6</ele>
        <time>2020-07-12T08:45:56Z</time>
      </trkpt>
      <trkpt lat="46.46245" lon="2.4842">
        <ele>304</ele>
        <time>2020-07-12T08:46:00Z</time>
      </trkpt>
      <trkpt lat="46.46243" lon="2.48417">
        <ele>304</ele>
        <time>2020-07-12T08:46:01Z</time>
      </trkpt>
      <trkpt lat="46.46235" lon="2.48405">
        <ele>304.2</ele>
        <time>2020-07-12T08:46:05Z</time>
      </trkpt>
      <trkpt lat="46.46231" lon="2.48398">
        <ele>304.5</ele>
        <time>2020-07-12T08:46:07Z</time>
      </trkpt>
      <trkpt lat="46.46227" lon="2.4839">
        <ele>304.3</ele>
        <time>2020-07-12T08:46:09Z</time>
      </trkpt>
      <trkpt lat="46.46222" lon="2.48383">
        <ele>304.1</ele>
        <time>2020-07-12T08:46:11Z</time>
      </trkpt>
      <trkpt lat="46.46217" lon="2.48376">
        <ele>304.1</ele>
        <time>2020-07-12T08:46:13Z</time>
      </trkpt>
      <trkpt lat="46.46211" lon="2.48369">
        <ele>303.8</ele>
        <time>2020-07-12T08:46:15Z</time>
      </trkpt>
      <trkpt lat="46.46205" lon="2.48362">
        <ele>304</ele>
        <time>2020-07-12T08:46:17Z</time>
      </trkpt>
      <trkpt lat="46.46199" lon="2.48357">
        <ele>304.8</ele>
        <time>2020-07-12T08:46:19Z</time>
      </trkpt>
      <trkpt lat="46.46192" lon="2.48352">
        <ele>304.8</ele>
        <time>2020-07-12T08:46:21Z</time>
      </trkpt>
      <trkpt lat="46.46185" lon="2.48347">
        <ele>304.6</ele>
        <time>2020-07-12T08:46:23Z</time>
      </trkpt>
      <trkpt lat="46.46179" lon="2.48343">
        <ele>304.6</ele>
        <time>2020-07-12T08:46:25Z</time>
      </trkpt>
      <trkpt lat="46.46172" lon="2.48339">
        <ele>304.7</ele>
        <time>2020-07-12T08:46:27Z</time>
      </trkpt>
      <trkpt lat="46.46166" lon="2.48334">
        <ele>304.9</ele>
        <time>2020-07-12T08:46:29Z</time>
      </trkpt>
      <trkpt lat="46.46159" lon="2.48329">
        <ele>305</ele>
        <time>2020-07-12T08:46:31Z</time>
      </trkpt>
      <trkpt lat="46.46152" lon="2.48323">
        <ele>305.3</ele>
        <time>2020-07-12T08:46:33Z</time>
      </trkpt>
      <trkpt lat="46.46145" lon="2.48319">
        <ele>305.4</ele>
        <time>2020-07-12T08:46:35Z</time>
      </trkpt>
      <trkpt lat="46.46139" lon="2.48314">
        <ele>305.3</ele>
        <time>2020-07-12T08:46:37Z</time>
      </trkpt>
      <trkpt lat="46.46132" lon="2.48309">
        <ele>305.2</ele>
        <time>2020-07-12T08:46:39Z</time>
      </trkpt>
      <trkpt lat="46.46128" lon="2.48302">
        <ele>304.8</ele>
        <time>2020-07-12T08:46:41Z</time>
      </trkpt>
      <trkpt lat="46.46124" lon="2.48293">
        <ele>305.5</ele>
        <time>2020-07-12T08:46:43Z</time>
      </trkpt>
      <trkpt lat="46.4612" lon="2.48284">
        <ele>305.6</ele>
        <time>2020-07-12T08:46:45Z</time>
      </trkpt>
      <trkpt lat="46.46116" lon="2.48274">
        <ele>305.3</ele>
        <time>2020-07-12T08:46:47Z</time>
      </trkpt>
      <trkpt lat="46.46112" lon="2.48264">
        <ele>305.7</ele>
        <time>2020-07-12T08:46:49Z</time>
      </trkpt>
      <trkpt lat="46.46109" lon="2.48253">
        <ele>306.3</ele>
        <time>2020-07-12T08:46:51Z</time>
      </trkpt>
      <trkpt lat="46.46106" lon="2.48241">
        <ele>306.6</ele>
        <time>2020-07-12T08:46:53Z</time>
      </trkpt>
      <trkpt lat="46.46103" lon="2.48229">
        <ele>306.8</ele>
        <time>2020-07-12T08:46:55Z</time>
      </trkpt>
      <trkpt lat="46.46101" lon="2.48217">
        <ele>306.6</ele>
        <time>2020-07-12T08:46:57Z</time>
      </trkpt>
      <trkpt lat="46.46098" lon="2.48206">
        <ele>306.5</ele>
        <time>2020-07-12T08:46:59Z</time>
      </trkpt>
      <trkpt lat="46.46095" lon="2.48195">
        <ele>306.2</ele>
        <time>2020-07-12T08:47:01Z</time>
      </trkpt>
      <trkpt lat="46.46094" lon="2.48189">
        <ele>306.1</ele>
        <time>2020-07-12T08:47:02Z</time>
      </trkpt>
      <trkpt lat="46.4609" lon="2.48172">
        <ele>305.5</ele>
        <time>2020-07-12T08:47:05Z</time>
      </trkpt>
      <trkpt lat="46.46087" lon="2.4816">
        <ele>305.7</ele>
        <time>2020-07-12T08:47:07Z</time>
      </trkpt>
      <trkpt lat="46.46085" lon="2.48148">
        <ele>306.8</ele>
        <time>2020-07-12T08:47:09Z</time>
      </trkpt>
      <trkpt lat="46.46083" lon="2.48142">
        <ele>307.1</ele>
        <time>2020-07-12T08:47:10Z</time>
      </trkpt>
      <trkpt lat="46.46081" lon="2.48136">
        <ele>306.8</ele>
        <time>2020-07-12T08:47:11Z</time>
      </trkpt>
      <trkpt lat="46.46078" lon="2.48124">
        <ele>306.4</ele>
        <time>2020-07-12T08:47:13Z</time>
      </trkpt>
      <trkpt lat="46.46075" lon="2.48112">
        <ele>306.4</ele>
        <time>2020-07-12T08:47:15Z</time>
      </trkpt>
      <trkpt lat="46.46072" lon="2.48101">
        <ele>306.4</ele>
        <time>2020-07-12T08:47:17Z</time>
      </trkpt>
      <trkpt lat="46.46069" lon="2.48089">
        <ele>306.7</ele>
        <time>2020-07-12T08:47:19Z</time>
      </trkpt>
      <trkpt lat="46.46066" lon="2.48078">
        <ele>307.1</ele>
        <time>2020-07-12T08:47:21Z</time>
      </trkpt>
      <trkpt lat="46.46061" lon="2.48068">
        <ele>306.9</ele>
        <time>2020-07-12T08:47:23Z</time>
      </trkpt>
      <trkpt lat="46.46056" lon="2.48059">
        <ele>306.8</ele>
        <time>2020-07-12T08:47:25Z</time>
      </trkpt>
      <trkpt lat="46.46052" lon="2.48051">
        <ele>306.8</ele>
        <time>2020-07-12T08:47:27Z</time>
      </trkpt>
      <trkpt lat="46.46048" lon="2.48043">
        <ele>306.9</ele>
        <time>2020-07-12T08:47:29Z</time>
      </trkpt>
      <trkpt lat="46.46043" lon="2.48034">
        <ele>306.7</ele>
        <time>2020-07-12T08:47:31Z</time>
      </trkpt>
      <trkpt lat="46.46039" lon="2.48024">
        <ele>306.7</ele>
        <time>2020-07-12T08:47:33Z</time>
      </trkpt>
      <trkpt lat="46.46035" lon="2.48014">
        <ele>306.1</ele>
        <time>2020-07-12T08:47:35Z</time>
      </trkpt>
      <trkpt lat="46.46031" lon="2.48003">
        <ele>306</ele>
        <time>2020-07-12T08:47:37Z</time>
      </trkpt>
      <trkpt lat="46.46027" lon="2.47992">
        <ele>306.8</ele>
        <time>2020-07-12T08:47:39Z</time>
      </trkpt>
      <trkpt lat="46.46024" lon="2.47982">
        <ele>307.3</ele>
        <time>2020-07-12T08:47:41Z</time>
      </trkpt>
      <trkpt lat="46.46021" lon="2.47972">
        <ele>307.4</ele>
        <time>2020-07-12T08:47:43Z</time>
      </trkpt>
      <trkpt lat="46.46018" lon="2.47962">
        <ele>307.6</ele>
        <time>2020-07-12T08:47:45Z</time>
      </trkpt>
      <trkpt lat="46.46015" lon="2.47952">
        <ele>308.1</ele>
        <time>2020-07-12T08:47:47Z</time>
      </trkpt>
      <trkpt lat="46.46012" lon="2.47943">
        <ele>307.8</ele>
        <time>2020-07-12T08:47:49Z</time>
      </trkpt>
      <trkpt lat="46.46009" lon="2.47933">
        <ele>307.4</ele>
        <time>2020-07-12T08:47:51Z</time>
      </trkpt>
      <trkpt lat="46.46005" lon="2.47922">
        <ele>307.4</ele>
        <time>2020-07-12T08:47:53Z</time>
      </trkpt>
      <trkpt lat="46.46001" lon="2.47912">
        <ele>307.3</ele>
        <time>2020-07-12T08:47:55Z</time>
      </trkpt>
      <trkpt lat="46.45997" lon="2.47901">
        <ele>308</ele>
        <time>2020-07-12T08:47:57Z</time>
      </trkpt>
      <trkpt lat="46.45994" lon="2.4789">
        <ele>308.2</ele>
        <time>2020-07-12T08:47:59Z</time>
      </trkpt>
      <trkpt lat="46.4599" lon="2.4788">
        <ele>308.5</ele>
        <time>2020-07-12T08:48:01Z</time>
      </trkpt>
      <trkpt lat="46.45987" lon="2.47869">
        <ele>308.2</ele>
        <time>2020-07-12T08:48:03Z</time>
      </trkpt>
      <trkpt lat="46.45985" lon="2.47864">
        <ele>307.8</ele>
        <time>2020-07-12T08:48:04Z</time>
      </trkpt>
      <trkpt lat="46.45981" lon="2.47852">
        <ele>307.6</ele>
        <time>2020-07-12T08:48:06Z</time>
      </trkpt>
      <trkpt lat="46.45978" lon="2.47846">
        <ele>307.6</ele>
        <time>2020-07-12T08:48:07Z</time>
      </trkpt>
      <trkpt lat="46.45975" lon="2.4784">
        <ele>307.4</ele>
        <time>2020-07-12T08:48:08Z</time>
      </trkpt>
      <trkpt lat="46.45972" lon="2.47829">
        <ele>307.7</ele>
        <time>2020-07-12T08:48:10Z</time>
      </trkpt>
      <trkpt lat="46.4597" lon="2.47818">
        <ele>308.5</ele>
        <time>2020-07-12T08:48:12Z</time>
      </trkpt>
      <trkpt lat="46.45967" lon="2.47807">
        <ele>309.1</ele>
        <time>2020-07-12T08:48:14Z</time>
      </trkpt>
      <trkpt lat="46.45965" lon="2.47796">
        <ele>308.7</ele>
        <time>2020-07-12T08:48:16Z</time>
      </trkpt>
      <trkpt lat="46.45962" lon="2.47785">
        <ele>309.2</ele>
        <time>2020-07-12T08:48:18Z</time>
      </trkpt>
      <trkpt lat="46.4596" lon="2.47774">
        <ele>309.4</ele>
        <time>2020-07-12T08:48:20Z</time>
      </trkpt>
      <trkpt lat="46.45957" lon="2.47763">
        <ele>309.4</ele>
        <time>2020-07-12T08:48:22Z</time>
      </trkpt>
      <trkpt lat="46.45954" lon="2.47753">
        <ele>309.6</ele>
        <time>2020-07-12T08:48:24Z</time>
      </trkpt>
      <trkpt lat="46.45952" lon="2.47742">
        <ele>310</ele>
        <time>2020-07-12T08:48:26Z</time>
      </trkpt>
      <trkpt lat="46.45949" lon="2.47731">
        <ele>310.1</ele>
        <time>2020-07-12T08:48:28Z</time>
      </trkpt>
      <trkpt lat="46.45947" lon="2.4772">
        <ele>309.9</ele>
        <time>2020-07-12T08:48:30Z</time>
      </trkpt>
      <trkpt lat="46.45944" lon="2.4771">
        <ele>310</ele>
        <time>2020-07-12T08:48:32Z</time>
      </trkpt>
      <trkpt lat="46.45942" lon="2.477">
        <ele>310</ele>
        <time>2020-07-12T08:48:34Z</time>
      </trkpt>
      <trkpt lat="46.4594" lon="2.47689">
        <ele>310.1</ele>
        <time>2020-07-12T08:48:36Z</time>
      </trkpt>
      <trkpt lat="46.45938" lon="2.47679">
        <ele>310.7</ele>
        <time>2020-07-12T08:48:38Z</time>
      </trkpt>
      <trkpt lat="46.45936" lon="2.47669">
        <ele>311.3</ele>
        <time>2020-07-12T08:48:40Z</time>
      </trkpt>
      <trkpt lat="46.45934" lon="2.47659">
        <ele>310.9</ele>
        <time>2020-07-12T08:48:42Z</time>
      </trkpt>
      <trkpt lat="46.45932" lon="2.47649">
        <ele>310.6</ele>
        <time>2020-07-12T08:48:44Z</time>
      </trkpt>
      <trkpt lat="46.4593" lon="2.47638">
        <ele>310.8</ele>
        <time>2020-07-12T08:48:46Z</time>
      </trkpt>
      <trkpt lat="46.45928" lon="2.47628">
        <ele>311.5</ele>
        <time>2020-07-12T08:48:48Z</time>
      </trkpt>
      <trkpt lat="46.45925" lon="2.47617">
        <ele>312.2</ele>
        <time>2020-07-12T08:48:50Z</time>
      </trkpt>
      <trkpt lat="46.45923" lon="2.47606">
        <ele>312.7</ele>
        <time>2020-07-12T08:48:52Z</time>
      </trkpt>
      <trkpt lat="46.4592" lon="2.47596">
        <ele>313.1</ele>
        <time>2020-07-12T08:48:54Z</time>
      </trkpt>
      <trkpt lat="46.45918" lon="2.47586">
        <ele>313.1</ele>
        <time>2020-07-12T08:48:56Z</time>
      </trkpt>
      <trkpt lat="46.45915" lon="2.47576">
        <ele>313.1</ele>
        <time>2020-07-12T08:48:58Z</time>
      </trkpt>
      <trkpt lat="46.45913" lon="2.47567">
        <ele>313.3</ele>
        <time>2020-07-12T08:49:00Z</time>
      </trkpt>
      <trkpt lat="46.45911" lon="2.47557">
        <ele>313.3</ele>
        <time>2020-07-12T08:49:02Z</time>
      </trkpt>
      <trkpt lat="46.45908" lon="2.47548">
        <ele>313.6</ele>
        <time>2020-07-12T08:49:04Z</time>
      </trkpt>
      <trkpt lat="46.45907" lon="2.47543">
        <ele>313.9</ele>
        <time>2020-07-12T08:49:05Z</time>
      </trkpt>
      <trkpt lat="46.45904" lon="2.47528">
        <ele>313.8</ele>
        <time>2020-07-12T08:49:08Z</time>
      </trkpt>
      <trkpt lat="46.45902" lon="2.47519">
        <ele>314.6</ele>
        <time>2020-07-12T08:49:10Z</time>
      </trkpt>
      <trkpt lat="46.459" lon="2.47509">
        <ele>314.8</ele>
        <time>2020-07-12T08:49:12Z</time>
      </trkpt>
      <trkpt lat="46.45898" lon="2.475">
        <ele>314.6</ele>
        <time>2020-07-12T08:49:14Z</time>
      </trkpt>
      <trkpt lat="46.45896" lon="2.4749">
        <ele>314.9</ele>
        <time>2020-07-12T08:49:16Z</time>
      </trkpt>
      <trkpt lat="46.45894" lon="2.4748">
        <ele>315.3</ele>
        <time>2020-07-12T08:49:18Z</time>
      </trkpt>
      <trkpt lat="46.45892" lon="2.4747">
        <ele>315.9</ele>
        <time>2020-07-12T08:49:20Z</time>
      </trkpt>
      <trkpt lat="46.4589" lon="2.47461">
        <ele>316.1</ele>
        <time>2020-07-12T08:49:22Z</time>
      </trkpt>
      <trkpt lat="46.45888" lon="2.47452">
        <ele>316.2</ele>
        <time>2020-07-12T08:49:24Z</time>
      </trkpt>
      <trkpt lat="46.45886" lon="2.47441">
        <ele>316.2</ele>
        <time>2020-07-12T08:49:26Z</time>
      </trkpt>
      <trkpt lat="46.45884" lon="2.47431">
        <ele>316.2</ele>
        <time>2020-07-12T08:49:28Z</time>
      </trkpt>
      <trkpt lat="46.45881" lon="2.47421">
        <ele>316.4</ele>
        <time>2020-07-12T08:49:30Z</time>
      </trkpt>
      <trkpt lat="46.45878" lon="2.47412">
        <ele>317.2</ele>
        <time>2020-07-12T08:49:32Z</time>
      </trkpt>
      <trkpt lat="46.45874" lon="2.47404">
        <ele>317.7</ele>
        <time>2020-07-12T08:49:34Z</time>
      </trkpt>
      <trkpt lat="46.4587" lon="2.47397">
        <ele>317.8</ele>
        <time>2020-07-12T08:49:36Z</time>
      </trkpt>
      <trkpt lat="46.45865" lon="2.47389">
        <ele>318.1</ele>
        <time>2020-07-12T08:49:38Z</time>
      </trkpt>
      <trkpt lat="46.4586" lon="2.47382">
        <ele>318.4</ele>
        <time>2020-07-12T08:49:40Z</time>
      </trkpt>
      <trkpt lat="46.45855" lon="2.47374">
        <ele>318.7</ele>
        <time>2020-07-12T08:49:42Z</time>
      </trkpt>
      <trkpt lat="46.45851" lon="2.47366">
        <ele>319.1</ele>
        <time>2020-07-12T08:49:44Z</time>
      </trkpt>
      <trkpt lat="46.45847" lon="2.47358">
        <ele>319.1</ele>
        <time>2020-07-12T08:49:46Z</time>
      </trkpt>
      <trkpt lat="46.45842" lon="2.4735">
        <ele>319.4</ele>
        <time>2020-07-12T08:49:48Z</time>
      </trkpt>
      <trkpt lat="46.45837" lon="2.47341">
        <ele>319.1</ele>
        <time>2020-07-12T08:49:50Z</time>
      </trkpt>
      <trkpt lat="46.45832" lon="2.47332">
        <ele>318.8</ele>
        <time>2020-07-12T08:49:52Z</time>
      </trkpt>
      <trkpt lat="46.45827" lon="2.47324">
        <ele>319</ele>
        <time>2020-07-12T08:49:54Z</time>
      </trkpt>
      <trkpt lat="46.45822" lon="2.47314">
        <ele>319.3</ele>
        <time>2020-07-12T08:49:56Z</time>
      </trkpt>
      <trkpt lat="46.45817" lon="2.47305">
        <ele>319.1</ele>
        <time>2020-07-12T08:49:58Z</time>
      </trkpt>
      <trkpt lat="46.45812" lon="2.47296">
        <ele>318.8</ele>
        <time>2020-07-12T08:50:00Z</time>
      </trkpt>
      <trkpt lat="46.45807" lon="2.47288">
        <ele>319.6</ele>
        <time>2020-07-12T08:50:02Z</time>
      </trkpt>
      <trkpt lat="46.45799" lon="2.47283">
        <ele>319.9</ele>
        <time>2020-07-12T08:50:04Z</time>
      </trkpt>
      <trkpt lat="46.4579" lon="2.47283">
        <ele>320.3</ele>
        <time>2020-07-12T08:50:06Z</time>
      </trkpt>
      <trkpt lat="46.45786" lon="2.47284">
        <ele>320.5</ele>
        <time>2020-07-12T08:50:07Z</time>
      </trkpt>
      <trkpt lat="46.45781" lon="2.47286">
        <ele>320.6</ele>
        <time>2020-07-12T08:50:08Z</time>
      </trkpt>
      <trkpt lat="46.45776" lon="2.47288">
        <ele>320.6</ele>
        <time>2020-07-12T08:50:09Z</time>
      </trkpt>
      <trkpt lat="46.45771" lon="2.4729">
        <ele>320.5</ele>
        <time>2020-07-12T08:50:10Z</time>
      </trkpt>
      <trkpt lat="46.45766" lon="2.47292">
        <ele>320.5</ele>
        <time>2020-07-12T08:50:11Z</time>
      </trkpt>
      <trkpt lat="46.45761" lon="2.47294">
        <ele>320.4</ele>
        <time>2020-07-12T08:50:12Z</time>
      </trkpt>
      <trkpt lat="46.45756" lon="2.47296">
        <ele>320.7</ele>
        <time>2020-07-12T08:50:13Z</time>
      </trkpt>
      <trkpt lat="46.45751" lon="2.47298">
        <ele>320.8</ele>
        <time>2020-07-12T08:50:14Z</time>
      </trkpt>
      <trkpt lat="46.45746" lon="2.473">
        <ele>321</ele>
        <time>2020-07-12T08:50:15Z</time>
      </trkpt>
      <trkpt lat="46.45742" lon="2.47302">
        <ele>320.8</ele>
        <time>2020-07-12T08:50:16Z</time>
      </trkpt>
      <trkpt lat="46.45737" lon="2.47304">
        <ele>320.7</ele>
        <time>2020-07-12T08:50:17Z</time>
      </trkpt>
      <trkpt lat="46.45732" lon="2.47307">
        <ele>320.2</ele>
        <time>2020-07-12T08:50:18Z</time>
      </trkpt>
      <trkpt lat="46.45727" lon="2.4731">
        <ele>319.8</ele>
        <time>2020-07-12T08:50:19Z</time>
      </trkpt>
      <trkpt lat="46.45723" lon="2.47315">
        <ele>319.6</ele>
        <time>2020-07-12T08:50:20Z</time>
      </trkpt>
      <trkpt lat="46.45719" lon="2.4732">
        <ele>319.5</ele>
        <time>2020-07-12T08:50:21Z</time>
      </trkpt>
      <trkpt lat="46.45715" lon="2.47326">
        <ele>319.3</ele>
        <time>2020-07-12T08:50:22Z</time>
      </trkpt>
      <trkpt lat="46.45712" lon="2.47333">
        <ele>319.2</ele>
        <time>2020-07-12T08:50:23Z</time>
      </trkpt>
      <trkpt lat="46.45708" lon="2.47339">
        <ele>319</ele>
        <time>2020-07-12T08:50:24Z</time>
      </trkpt>
      <trkpt lat="46.45705" lon="2.47345">
        <ele>319.2</ele>
        <time>2020-07-12T08:50:25Z</time>
      </trkpt>
      <trkpt lat="46.45702" lon="2.47351">
        <ele>319.3</ele>
        <time>2020-07-12T08:50:26Z</time>
      </trkpt>
      <trkpt lat="46.45699" lon="2.47357">
        <ele>319.3</ele>
        <time>2020-07-12T08:50:27Z</time>
      </trkpt>
      <trkpt lat="46.45696" lon="2.47363">
        <ele>319.3</ele>
        <time>2020-07-12T08:50:28Z</time>
      </trkpt>
      <trkpt lat="46.45693" lon="2.47369">
        <ele>319.3</ele>
        <time>2020-07-12T08:50:29Z</time>
      </trkpt>
      <trkpt lat="46.4569" lon="2.47375">
        <ele>319.3</ele>
        <time>2020-07-12T08:50:30Z</time>
      </trkpt>
      <trkpt lat="46.45687" lon="2.47381">
        <ele>319.2</ele>
        <time>2020-07-12T08:50:31Z</time>
      </trkpt>
      <trkpt lat="46.45685" lon="2.47387">
        <ele>318.8</ele>
        <time>2020-07-12T08:50:32Z</time>
      </trkpt>
      <trkpt lat="46.45682" lon="2.47393">
        <ele>318.4</ele>
        <time>2020-07-12T08:50:33Z</time>
      </trkpt>
      <trkpt lat="46.45678" lon="2.47399">
        <ele>318.1</ele>
        <time>2020-07-12T08:50:34Z</time>
      </trkpt>
      <trkpt lat="46.45674" lon="2.47403">
        <ele>318</ele>
        <time>2020-07-12T08:50:35Z</time>
      </trkpt>
      <trkpt lat="46.45669" lon="2.47406">
        <ele>317.9</ele>
        <time>2020-07-12T08:50:36Z</time>
      </trkpt>
      <trkpt lat="46.45663" lon="2.47406">
        <ele>317.6</ele>
        <time>2020-07-12T08:50:37Z</time>
      </trkpt>
      <trkpt lat="46.45658" lon="2.47405">
        <ele>317.4</ele>
        <time>2020-07-12T08:50:38Z</time>
      </trkpt>
      <trkpt lat="46.45653" lon="2.47405">
        <ele>317.6</ele>
        <time>2020-07-12T08:50:39Z</time>
      </trkpt>
      <trkpt lat="46.45647" lon="2.47405">
        <ele>317.8</ele>
        <time>2020-07-12T08:50:40Z</time>
      </trkpt>
      <trkpt lat="46.45642" lon="2.47405">
        <ele>317.9</ele>
        <time>2020-07-12T08:50:41Z</time>
      </trkpt>
      <trkpt lat="46.45637" lon="2.47406">
        <ele>318.1</ele>
        <time>2020-07-12T08:50:42Z</time>
      </trkpt>
      <trkpt lat="46.45632" lon="2.47406">
        <ele>318.3</ele>
        <time>2020-07-12T08:50:43Z</time>
      </trkpt>
      <trkpt lat="46.45627" lon="2.47407">
        <ele>318.2</ele>
        <time>2020-07-12T08:50:44Z</time>
      </trkpt>
      <trkpt lat="46.45622" lon="2.47408">
        <ele>318.1</ele>
        <time>2020-07-12T08:50:45Z</time>
      </trkpt>
      <trkpt lat="46.45617" lon="2.47408">
        <ele>318</ele>
        <time>2020-07-12T08:50:46Z</time>
      </trkpt>
      <trkpt lat="46.45611" lon="2.47409">
        <ele>317.7</ele>
        <time>2020-07-12T08:50:47Z</time>
      </trkpt>
      <trkpt lat="46.45606" lon="2.4741">
        <ele>317.4</ele>
        <time>2020-07-12T08:50:48Z</time>
      </trkpt>
      <trkpt lat="46.45601" lon="2.47411">
        <ele>317.4</ele>
        <time>2020-07-12T08:50:49Z</time>
      </trkpt>
      <trkpt lat="46.45596" lon="2.47412">
        <ele>317.4</ele>
        <time>2020-07-12T08:50:50Z</time>
      </trkpt>
      <trkpt lat="46.45591" lon="2.47413">
        <ele>317.3</ele>
        <time>2020-07-12T08:50:51Z</time>
      </trkpt>
      <trkpt lat="46.45586" lon="2.47414">
        <ele>317.2</ele>
        <time>2020-07-12T08:50:52Z</time>
      </trkpt>
      <trkpt lat="46.4558" lon="2.47415">
        <ele>317.1</ele>
        <time>2020-07-12T08:50:53Z</time>
      </trkpt>
      <trkpt lat="46.45575" lon="2.47416">
        <ele>317.2</ele>
        <time>2020-07-12T08:50:54Z</time>
      </trkpt>
      <trkpt lat="46.4557" lon="2.47418">
        <ele>317.3</ele>
        <time>2020-07-12T08:50:55Z</time>
      </trkpt>
      <trkpt lat="46.45565" lon="2.47418">
        <ele>317.1</ele>
        <time>2020-07-12T08:50:56Z</time>
      </trkpt>
      <trkpt lat="46.45559" lon="2.47419">
        <ele>317</ele>
        <time>2020-07-12T08:50:57Z</time>
      </trkpt>
      <trkpt lat="46.45554" lon="2.4742">
        <ele>316.8</ele>
        <time>2020-07-12T08:50:58Z</time>
      </trkpt>
      <trkpt lat="46.45549" lon="2.47421">
        <ele>316.7</ele>
        <time>2020-07-12T08:50:59Z</time>
      </trkpt>
      <trkpt lat="46.45544" lon="2.47421">
        <ele>316.6</ele>
        <time>2020-07-12T08:51:00Z</time>
      </trkpt>
      <trkpt lat="46.4554" lon="2.47422">
        <ele>316.2</ele>
        <time>2020-07-12T08:51:01Z</time>
      </trkpt>
      <trkpt lat="46.45535" lon="2.47423">
        <ele>315.8</ele>
        <time>2020-07-12T08:51:02Z</time>
      </trkpt>
      <trkpt lat="46.4553" lon="2.47424">
        <ele>315.9</ele>
        <time>2020-07-12T08:51:03Z</time>
      </trkpt>
      <trkpt lat="46.45525" lon="2.47424">
        <ele>316</ele>
        <time>2020-07-12T08:51:04Z</time>
      </trkpt>
      <trkpt lat="46.4552" lon="2.47425">
        <ele>316</ele>
        <time>2020-07-12T08:51:05Z</time>
      </trkpt>
      <trkpt lat="46.45515" lon="2.47426">
        <ele>315.7</ele>
        <time>2020-07-12T08:51:06Z</time>
      </trkpt>
      <trkpt lat="46.4551" lon="2.47427">
        <ele>315.4</ele>
        <time>2020-07-12T08:51:07Z</time>
      </trkpt>
      <trkpt lat="46.45505" lon="2.47429">
        <ele>315.2</ele>
        <time>2020-07-12T08:51:08Z</time>
      </trkpt>
      <trkpt lat="46.455" lon="2.47429">
        <ele>315</ele>
        <time>2020-07-12T08:51:09Z</time>
      </trkpt>
      <trkpt lat="46.45496" lon="2.4743">
        <ele>315.2</ele>
        <time>2020-07-12T08:51:10Z</time>
      </trkpt>
      <trkpt lat="46.45491" lon="2.47431">
        <ele>315.4</ele>
        <time>2020-07-12T08:51:11Z</time>
      </trkpt>
      <trkpt lat="46.45486" lon="2.47432">
        <ele>315.5</ele>
        <time>2020-07-12T08:51:12Z</time>
      </trkpt>
      <trkpt lat="46.45482" lon="2.47433">
        <ele>316</ele>
        <time>2020-07-12T08:51:13Z</time>
      </trkpt>
      <trkpt lat="46.45473" lon="2.47435">
        <ele>316.7</ele>
        <time>2020-07-12T08:51:15Z</time>
      </trkpt>
      <trkpt lat="46.45465" lon="2.47438">
        <ele>316.6</ele>
        <time>2020-07-12T08:51:17Z</time>
      </trkpt>
      <trkpt lat="46.45457" lon="2.47439">
        <ele>316.3</ele>
        <time>2020-07-12T08:51:19Z</time>
      </trkpt>
      <trkpt lat="46.45449" lon="2.47441">
        <ele>316.3</ele>
        <time>2020-07-12T08:51:21Z</time>
      </trkpt>
      <trkpt lat="46.45441" lon="2.47443">
        <ele>317.4</ele>
        <time>2020-07-12T08:51:23Z</time>
      </trkpt>
      <trkpt lat="46.45434" lon="2.47445">
        <ele>317.3</ele>
        <time>2020-07-12T08:51:25Z</time>
      </trkpt>
      <trkpt lat="46.45427" lon="2.47449">
        <ele>317</ele>
        <time>2020-07-12T08:51:27Z</time>
      </trkpt>
      <trkpt lat="46.4542" lon="2.47453">
        <ele>317</ele>
        <time>2020-07-12T08:51:29Z</time>
      </trkpt>
      <trkpt lat="46.45413" lon="2.47456">
        <ele>317.1</ele>
        <time>2020-07-12T08:51:31Z</time>
      </trkpt>
      <trkpt lat="46.45407" lon="2.4746">
        <ele>317</ele>
        <time>2020-07-12T08:51:33Z</time>
      </trkpt>
      <trkpt lat="46.454" lon="2.47464">
        <ele>317</ele>
        <time>2020-07-12T08:51:35Z</time>
      </trkpt>
      <trkpt lat="46.45394" lon="2.47468">
        <ele>317.8</ele>
        <time>2020-07-12T08:51:37Z</time>
      </trkpt>
      <trkpt lat="46.45388" lon="2.47472">
        <ele>318.2</ele>
        <time>2020-07-12T08:51:39Z</time>
      </trkpt>
      <trkpt lat="46.45381" lon="2.47475">
        <ele>317.6</ele>
        <time>2020-07-12T08:51:41Z</time>
      </trkpt>
      <trkpt lat="46.45375" lon="2.4748">
        <ele>317.5</ele>
        <time>2020-07-12T08:51:43Z</time>
      </trkpt>
      <trkpt lat="46.45369" lon="2.47484">
        <ele>318</ele>
        <time>2020-07-12T08:51:45Z</time>
      </trkpt>
      <trkpt lat="46.45362" lon="2.47488">
        <ele>318.7</ele>
        <time>2020-07-12T08:51:47Z</time>
      </trkpt>
      <trkpt lat="46.45355" lon="2.47493">
        <ele>319.3</ele>
        <time>2020-07-12T08:51:49Z</time>
      </trkpt>
      <trkpt lat="46.45349" lon="2.47498">
        <ele>319.5</ele>
        <time>2020-07-12T08:51:51Z</time>
      </trkpt>
      <trkpt lat="46.45342" lon="2.47503">
        <ele>319.7</ele>
        <time>2020-07-12T08:51:53Z</time>
      </trkpt>
      <trkpt lat="46.45336" lon="2.47508">
        <ele>319.6</ele>
        <time>2020-07-12T08:51:55Z</time>
      </trkpt>
      <trkpt lat="46.45329" lon="2.47514">
        <ele>319.4</ele>
        <time>2020-07-12T08:51:57Z</time>
      </trkpt>
      <trkpt lat="46.45322" lon="2.47519">
        <ele>319.8</ele>
        <time>2020-07-12T08:51:59Z</time>
      </trkpt>
      <trkpt lat="46.45316" lon="2.47525">
        <ele>319.4</ele>
        <time>2020-07-12T08:52:01Z</time>
      </trkpt>
      <trkpt lat="46.4531" lon="2.47531">
        <ele>319.4</ele>
        <time>2020-07-12T08:52:03Z</time>
      </trkpt>
      <trkpt lat="46.45303" lon="2.47537">
        <ele>319.6</ele>
        <time>2020-07-12T08:52:05Z</time>
      </trkpt>
      <trkpt lat="46.45296" lon="2.47543">
        <ele>319.8</ele>
        <time>2020-07-12T08:52:07Z</time>
      </trkpt>
      <trkpt lat="46.45289" lon="2.4755">
        <ele>319.8</ele>
        <time>2020-07-12T08:52:09Z</time>
      </trkpt>
      <trkpt lat="46.45286" lon="2.47553">
        <ele>319.7</ele>
        <time>2020-07-12T08:52:10Z</time>
      </trkpt>
      <trkpt lat="46.45275" lon="2.47563">
        <ele>320</ele>
        <time>2020-07-12T08:52:13Z</time>
      </trkpt>
      <trkpt lat="46.45271" lon="2.47567">
        <ele>319.8</ele>
        <time>2020-07-12T08:52:14Z</time>
      </trkpt>
      <trkpt lat="46.45267" lon="2.47571">
        <ele>319.6</ele>
        <time>2020-07-12T08:52:15Z</time>
      </trkpt>
      <trkpt lat="46.45264" lon="2.47575">
        <ele>319.5</ele>
        <time>2020-07-12T08:52:16Z</time>
      </trkpt>
      <trkpt lat="46.45256" lon="2.47582">
        <ele>319.2</ele>
        <time>2020-07-12T08:52:18Z</time>
      </trkpt>
      <trkpt lat="46.45253" lon="2.47586">
        <ele>319.6</ele>
        <time>2020-07-12T08:52:19Z</time>
      </trkpt>
      <trkpt lat="46.45249" lon="2.4759">
        <ele>319.9</ele>
        <time>2020-07-12T08:52:20Z</time>
      </trkpt>
      <trkpt lat="46.45245" lon="2.47594">
        <ele>319.2</ele>
        <time>2020-07-12T08:52:21Z</time>
      </trkpt>
      <trkpt lat="46.45241" lon="2.47597">
        <ele>318.8</ele>
        <time>2020-07-12T08:52:22Z</time>
      </trkpt>
      <trkpt lat="46.45236" lon="2.47601">
        <ele>318.4</ele>
        <time>2020-07-12T08:52:23Z</time>
      </trkpt>
      <trkpt lat="46.45232" lon="2.47605">
        <ele>317.7</ele>
        <time>2020-07-12T08:52:24Z</time>
      </trkpt>
      <trkpt lat="46.45227" lon="2.47609">
        <ele>317.3</ele>
        <time>2020-07-12T08:52:25Z</time>
      </trkpt>
      <trkpt lat="46.45223" lon="2.47613">
        <ele>317.2</ele>
        <time>2020-07-12T08:52:26Z</time>
      </trkpt>
      <trkpt lat="46.45218" lon="2.47617">
        <ele>317.1</ele>
        <time>2020-07-12T08:52:27Z</time>
      </trkpt>
      <trkpt lat="46.45213" lon="2.47621">
        <ele>317.1</ele>
        <time>2020-07-12T08:52:28Z</time>
      </trkpt>
      <trkpt lat="46.45209" lon="2.47625">
        <ele>317.2</ele>
        <time>2020-07-12T08:52:29Z</time>
      </trkpt>
      <trkpt lat="46.45201" lon="2.47631">
        <ele>317.3</ele>
        <time>2020-07-12T08:52:31Z</time>
      </trkpt>
      <trkpt lat="46.45194" lon="2.47635">
        <ele>316.8</ele>
        <time>2020-07-12T08:52:33Z</time>
      </trkpt>
      <trkpt lat="46.45191" lon="2.47643">
        <ele>316.2</ele>
        <time>2020-07-12T08:52:35Z</time>
      </trkpt>
      <trkpt lat="46.45192" lon="2.47653">
        <ele>315.3</ele>
        <time>2020-07-12T08:52:37Z</time>
      </trkpt>
      <trkpt lat="46.45193" lon="2.47663">
        <ele>315.3</ele>
        <time>2020-07-12T08:52:39Z</time>
      </trkpt>
      <trkpt lat="46.45195" lon="2.47675">
        <ele>314.7</ele>
        <time>2020-07-12T08:52:41Z</time>
      </trkpt>
      <trkpt lat="46.45197" lon="2.47686">
        <ele>314.9</ele>
        <time>2020-07-12T08:52:43Z</time>
      </trkpt>
      <trkpt lat="46.45199" lon="2.47698">
        <ele>315.3</ele>
        <time>2020-07-12T08:52:45Z</time>
      </trkpt>
      <trkpt lat="46.452" lon="2.47704">
        <ele>315.3</ele>
        <time>2020-07-12T08:52:46Z</time>
      </trkpt>
      <trkpt lat="46.45201" lon="2.47711">
        <ele>315.3</ele>
        <time>2020-07-12T08:52:47Z</time>
      </trkpt>
      <trkpt lat="46.45202" lon="2.47718">
        <ele>315.3</ele>
        <time>2020-07-12T08:52:48Z</time>
      </trkpt>
      <trkpt lat="46.45203" lon="2.47725">
        <ele>315.2</ele>
        <time>2020-07-12T08:52:49Z</time>
      </trkpt>
      <trkpt lat="46.45204" lon="2.47733">
        <ele>315.3</ele>
        <time>2020-07-12T08:52:50Z</time>
      </trkpt>
      <trkpt lat="46.45205" lon="2.4774">
        <ele>315.3</ele>
        <time>2020-07-12T08:52:51Z</time>
      </trkpt>
      <trkpt lat="46.45206" lon="2.47748">
        <ele>315.2</ele>
        <time>2020-07-12T08:52:52Z</time>
      </trkpt>
      <trkpt lat="46.45207" lon="2.47756">
        <ele>315.1</ele>
        <time>2020-07-12T08:52:53Z</time>
      </trkpt>
      <trkpt lat="46.45208" lon="2.47764">
        <ele>315</ele>
        <time>2020-07-12T08:52:54Z</time>
      </trkpt>
      <trkpt lat="46.45209" lon="2.47772">
        <ele>314.8</ele>
        <time>2020-07-12T08:52:55Z</time>
      </trkpt>
      <trkpt lat="46.4521" lon="2.47779">
        <ele>314.6</ele>
        <time>2020-07-12T08:52:56Z</time>
      </trkpt>
      <trkpt lat="46.45211" lon="2.47786">
        <ele>314.1</ele>
        <time>2020-07-12T08:52:57Z</time>
      </trkpt>
      <trkpt lat="46.45212" lon="2.47793">
        <ele>313.6</ele>
        <time>2020-07-12T08:52:58Z</time>
      </trkpt>
      <trkpt lat="46.45214" lon="2.47801">
        <ele>313.6</ele>
        <time>2020-07-12T08:52:59Z</time>
      </trkpt>
      <trkpt lat="46.45215" lon="2.47808">
        <ele>313.7</ele>
        <time>2020-07-12T08:53:00Z</time>
      </trkpt>
      <trkpt lat="46.45216" lon="2.47814">
        <ele>313.7</ele>
        <time>2020-07-12T08:53:01Z</time>
      </trkpt>
      <trkpt lat="46.45218" lon="2.47821">
        <ele>313.7</ele>
        <time>2020-07-12T08:53:02Z</time>
      </trkpt>
      <trkpt lat="46.45219" lon="2.47828">
        <ele>313.7</ele>
        <time>2020-07-12T08:53:03Z</time>
      </trkpt>
      <trkpt lat="46.45221" lon="2.47834">
        <ele>313.8</ele>
        <time>2020-07-12T08:53:04Z</time>
      </trkpt>
      <trkpt lat="46.45223" lon="2.47841">
        <ele>313.9</ele>
        <time>2020-07-12T08:53:05Z</time>
      </trkpt>
      <trkpt lat="46.45225" lon="2.47848">
        <ele>313.9</ele>
        <time>2020-07-12T08:53:06Z</time>
      </trkpt>
      <trkpt lat="46.45227" lon="2.47854">
        <ele>313.7</ele>
        <time>2020-07-12T08:53:07Z</time>
      </trkpt>
      <trkpt lat="46.45229" lon="2.47861">
        <ele>313.5</ele>
        <time>2020-07-12T08:53:08Z</time>
      </trkpt>
      <trkpt lat="46.45232" lon="2.47868">
        <ele>313.4</ele>
        <time>2020-07-12T08:53:09Z</time>
      </trkpt>
      <trkpt lat="46.45234" lon="2.47874">
        <ele>313.4</ele>
        <time>2020-07-12T08:53:10Z</time>
      </trkpt>
      <trkpt lat="46.45236" lon="2.47881">
        <ele>313.4</ele>
        <time>2020-07-12T08:53:11Z</time>
      </trkpt>
      <trkpt lat="46.45239" lon="2.47887">
        <ele>313.3</ele>
        <time>2020-07-12T08:53:12Z</time>
      </trkpt>
      <trkpt lat="46.45241" lon="2.47894">
        <ele>313.3</ele>
        <time>2020-07-12T08:53:13Z</time>
      </trkpt>
      <trkpt lat="46.45243" lon="2.479">
        <ele>313</ele>
        <time>2020-07-12T08:53:14Z</time>
      </trkpt>
      <trkpt lat="46.45246" lon="2.47907">
        <ele>312.8</ele>
        <time>2020-07-12T08:53:15Z</time>
      </trkpt>
      <trkpt lat="46.45248" lon="2.47914">
        <ele>312.5</ele>
        <time>2020-07-12T08:53:16Z</time>
      </trkpt>
      <trkpt lat="46.4525" lon="2.4792">
        <ele>312.3</ele>
        <time>2020-07-12T08:53:17Z</time>
      </trkpt>
      <trkpt lat="46.45252" lon="2.47927">
        <ele>312.4</ele>
        <time>2020-07-12T08:53:18Z</time>
      </trkpt>
      <trkpt lat="46.45255" lon="2.47934">
        <ele>312.4</ele>
        <time>2020-07-12T08:53:19Z</time>
      </trkpt>
      <trkpt lat="46.45257" lon="2.4794">
        <ele>312.4</ele>
        <time>2020-07-12T08:53:20Z</time>
      </trkpt>
      <trkpt lat="46.45259" lon="2.47947">
        <ele>312.4</ele>
        <time>2020-07-12T08:53:21Z</time>
      </trkpt>
      <trkpt lat="46.45261" lon="2.47954">
        <ele>312.4</ele>
        <time>2020-07-12T08:53:22Z</time>
      </trkpt>
      <trkpt lat="46.45263" lon="2.47961">
        <ele>312.5</ele>
        <time>2020-07-12T08:53:23Z</time>
      </trkpt>
      <trkpt lat="46.45265" lon="2.47967">
        <ele>312.5</ele>
        <time>2020-07-12T08:53:24Z</time>
      </trkpt>
      <trkpt lat="46.45267" lon="2.47974">
        <ele>312.6</ele>
        <time>2020-07-12T08:53:25Z</time>
      </trkpt>
      <trkpt lat="46.45269" lon="2.47981">
        <ele>312.6</ele>
        <time>2020-07-12T08:53:26Z</time>
      </trkpt>
      <trkpt lat="46.4527" lon="2.47988">
        <ele>312.6</ele>
        <time>2020-07-12T08:53:27Z</time>
      </trkpt>
      <trkpt lat="46.45272" lon="2.47994">
        <ele>312.6</ele>
        <time>2020-07-12T08:53:28Z</time>
      </trkpt>
      <trkpt lat="46.45274" lon="2.48001">
        <ele>312.6</ele>
        <time>2020-07-12T08:53:29Z</time>
      </trkpt>
      <trkpt lat="46.45275" lon="2.48008">
        <ele>312.7</ele>
        <time>2020-07-12T08:53:30Z</time>
      </trkpt>
      <trkpt lat="46.45277" lon="2.48015">
        <ele>312.9</ele>
        <time>2020-07-12T08:53:31Z</time>
      </trkpt>
      <trkpt lat="46.45279" lon="2.48021">
        <ele>313</ele>
        <time>2020-07-12T08:53:32Z</time>
      </trkpt>
      <trkpt lat="46.45281" lon="2.48028">
        <ele>313.1</ele>
        <time>2020-07-12T08:53:33Z</time>
      </trkpt>
      <trkpt lat="46.45283" lon="2.48035">
        <ele>313.2</ele>
        <time>2020-07-12T08:53:34Z</time>
      </trkpt>
      <trkpt lat="46.45284" lon="2.48041">
        <ele>313</ele>
        <time>2020-07-12T08:53:35Z</time>
      </trkpt>
      <trkpt lat="46.45286" lon="2.48048">
        <ele>312.8</ele>
        <time>2020-07-12T08:53:36Z</time>
      </trkpt>
      <trkpt lat="46.45288" lon="2.48054">
        <ele>313.4</ele>
        <time>2020-07-12T08:53:37Z</time>
      </trkpt>
      <trkpt lat="46.4529" lon="2.4806">
        <ele>313.8</ele>
        <time>2020-07-12T08:53:38Z</time>
      </trkpt>
      <trkpt lat="46.45292" lon="2.48066">
        <ele>314.2</ele>
        <time>2020-07-12T08:53:39Z</time>
      </trkpt>
      <trkpt lat="46.45293" lon="2.48073">
        <ele>313.7</ele>
        <time>2020-07-12T08:53:40Z</time>
      </trkpt>
      <trkpt lat="46.45295" lon="2.48079">
        <ele>313.4</ele>
        <time>2020-07-12T08:53:41Z</time>
      </trkpt>
      <trkpt lat="46.45297" lon="2.48086">
        <ele>313.2</ele>
        <time>2020-07-12T08:53:42Z</time>
      </trkpt>
      <trkpt lat="46.45298" lon="2.48093">
        <ele>313</ele>
        <time>2020-07-12T08:53:43Z</time>
      </trkpt>
      <trkpt lat="46.453" lon="2.48099">
        <ele>312.9</ele>
        <time>2020-07-12T08:53:44Z</time>
      </trkpt>
      <trkpt lat="46.45302" lon="2.48106">
        <ele>312.9</ele>
        <time>2020-07-12T08:53:45Z</time>
      </trkpt>
      <trkpt lat="46.45303" lon="2.48112">
        <ele>313</ele>
        <time>2020-07-12T08:53:46Z</time>
      </trkpt>
      <trkpt lat="46.45305" lon="2.48119">
        <ele>313.5</ele>
        <time>2020-07-12T08:53:47Z</time>
      </trkpt>
      <trkpt lat="46.45307" lon="2.48125">
        <ele>313.8</ele>
        <time>2020-07-12T08:53:48Z</time>
      </trkpt>
      <trkpt lat="46.45309" lon="2.48132">
        <ele>313.3</ele>
        <time>2020-07-12T08:53:49Z</time>
      </trkpt>
      <trkpt lat="46.45311" lon="2.48138">
        <ele>312.9</ele>
        <time>2020-07-12T08:53:50Z</time>
      </trkpt>
      <trkpt lat="46.45314" lon="2.48144">
        <ele>312.6</ele>
        <time>2020-07-12T08:53:51Z</time>
      </trkpt>
      <trkpt lat="46.45317" lon="2.4815">
        <ele>312.9</ele>
        <time>2020-07-12T08:53:52Z</time>
      </trkpt>
      <trkpt lat="46.45319" lon="2.48155">
        <ele>313.2</ele>
        <time>2020-07-12T08:53:53Z</time>
      </trkpt>
      <trkpt lat="46.45322" lon="2.48161">
        <ele>313.3</ele>
        <time>2020-07-12T08:53:54Z</time>
      </trkpt>
      <trkpt lat="46.45325" lon="2.48167">
        <ele>313.3</ele>
        <time>2020-07-12T08:53:55Z</time>
      </trkpt>
      <trkpt lat="46.45328" lon="2.48173">
        <ele>313.4</ele>
        <time>2020-07-12T08:53:56Z</time>
      </trkpt>
      <trkpt lat="46.45331" lon="2.48178">
        <ele>313.5</ele>
        <time>2020-07-12T08:53:57Z</time>
      </trkpt>
      <trkpt lat="46.45334" lon="2.48184">
        <ele>313.6</ele>
        <time>2020-07-12T08:53:58Z</time>
      </trkpt>
      <trkpt lat="46.45336" lon="2.4819">
        <ele>313.2</ele>
        <time>2020-07-12T08:53:59Z</time>
      </trkpt>
      <trkpt lat="46.45339" lon="2.48195">
        <ele>312.9</ele>
        <time>2020-07-12T08:54:00Z</time>
      </trkpt>
      <trkpt lat="46.45342" lon="2.48201">
        <ele>313</ele>
        <time>2020-07-12T08:54:01Z</time>
      </trkpt>
      <trkpt lat="46.45345" lon="2.48206">
        <ele>313</ele>
        <time>2020-07-12T08:54:02Z</time>
      </trkpt>
      <trkpt lat="46.45348" lon="2.48212">
        <ele>313.2</ele>
        <time>2020-07-12T08:54:03Z</time>
      </trkpt>
      <trkpt lat="46.45351" lon="2.48218">
        <ele>313.3</ele>
        <time>2020-07-12T08:54:04Z</time>
      </trkpt>
      <trkpt lat="46.45354" lon="2.48223">
        <ele>313.4</ele>
        <time>2020-07-12T08:54:05Z</time>
      </trkpt>
      <trkpt lat="46.45357" lon="2.48229">
        <ele>313.4</ele>
        <time>2020-07-12T08:54:06Z</time>
      </trkpt>
      <trkpt lat="46.4536" lon="2.48234">
        <ele>313.4</ele>
        <time>2020-07-12T08:54:07Z</time>
      </trkpt>
      <trkpt lat="46.45363" lon="2.4824">
        <ele>313.2</ele>
        <time>2020-07-12T08:54:08Z</time>
      </trkpt>
      <trkpt lat="46.45366" lon="2.48245">
        <ele>313</ele>
        <time>2020-07-12T08:54:09Z</time>
      </trkpt>
      <trkpt lat="46.45368" lon="2.48251">
        <ele>312.8</ele>
        <time>2020-07-12T08:54:10Z</time>
      </trkpt>
      <trkpt lat="46.45371" lon="2.48256">
        <ele>313.1</ele>
        <time>2020-07-12T08:54:11Z</time>
      </trkpt>
      <trkpt lat="46.45374" lon="2.48262">
        <ele>313.3</ele>
        <time>2020-07-12T08:54:12Z</time>
      </trkpt>
      <trkpt lat="46.45377" lon="2.48267">
        <ele>313.3</ele>
        <time>2020-07-12T08:54:13Z</time>
      </trkpt>
      <trkpt lat="46.4538" lon="2.48273">
        <ele>313.2</ele>
        <time>2020-07-12T08:54:14Z</time>
      </trkpt>
      <trkpt lat="46.45382" lon="2.48278">
        <ele>313.1</ele>
        <time>2020-07-12T08:54:15Z</time>
      </trkpt>
      <trkpt lat="46.45385" lon="2.48284">
        <ele>313.1</ele>
        <time>2020-07-12T08:54:16Z</time>
      </trkpt>
      <trkpt lat="46.45388" lon="2.48289">
        <ele>313</ele>
        <time>2020-07-12T08:54:17Z</time>
      </trkpt>
      <trkpt lat="46.45391" lon="2.48295">
        <ele>313</ele>
        <time>2020-07-12T08:54:18Z</time>
      </trkpt>
      <trkpt lat="46.45394" lon="2.483">
        <ele>313</ele>
        <time>2020-07-12T08:54:19Z</time>
      </trkpt>
      <trkpt lat="46.45396" lon="2.48306">
        <ele>313</ele>
        <time>2020-07-12T08:54:20Z</time>
      </trkpt>
      <trkpt lat="46.45399" lon="2.48311">
        <ele>313</ele>
        <time>2020-07-12T08:54:21Z</time>
      </trkpt>
      <trkpt lat="46.45402" lon="2.48317">
        <ele>313.2</ele>
        <time>2020-07-12T08:54:22Z</time>
      </trkpt>
      <trkpt lat="46.45405" lon="2.48322">
        <ele>313.4</ele>
        <time>2020-07-12T08:54:23Z</time>
      </trkpt>
      <trkpt lat="46.45408" lon="2.48328">
        <ele>313.6</ele>
        <time>2020-07-12T08:54:24Z</time>
      </trkpt>
      <trkpt lat="46.45411" lon="2.48334">
        <ele>313.5</ele>
        <time>2020-07-12T08:54:25Z</time>
      </trkpt>
      <trkpt lat="46.45414" lon="2.48339">
        <ele>313.4</ele>
        <time>2020-07-12T08:54:26Z</time>
      </trkpt>
      <trkpt lat="46.45417" lon="2.48345">
        <ele>313.7</ele>
        <time>2020-07-12T08:54:27Z</time>
      </trkpt>
      <trkpt lat="46.4542" lon="2.48351">
        <ele>313.9</ele>
        <time>2020-07-12T08:54:28Z</time>
      </trkpt>
      <trkpt lat="46.45423" lon="2.48356">
        <ele>314</ele>
        <time>2020-07-12T08:54:29Z</time>
      </trkpt>
      <trkpt lat="46.45426" lon="2.48362">
        <ele>314</ele>
        <time>2020-07-12T08:54:30Z</time>
      </trkpt>
      <trkpt lat="46.45428" lon="2.48368">
        <ele>314</ele>
        <time>2020-07-12T08:54:31Z</time>
      </trkpt>
      <trkpt lat="46.45431" lon="2.48374">
        <ele>313.8</ele>
        <time>2020-07-12T08:54:32Z</time>
      </trkpt>
      <trkpt lat="46.45434" lon="2.4838">
        <ele>313.6</ele>
        <time>2020-07-12T08:54:33Z</time>
      </trkpt>
      <trkpt lat="46.45437" lon="2.48385">
        <ele>313.5</ele>
        <time>2020-07-12T08:54:34Z</time>
      </trkpt>
      <trkpt lat="46.4544" lon="2.48391">
        <ele>313.4</ele>
        <time>2020-07-12T08:54:35Z</time>
      </trkpt>
      <trkpt lat="46.45443" lon="2.48396">
        <ele>313.3</ele>
        <time>2020-07-12T08:54:36Z</time>
      </trkpt>
      <trkpt lat="46.45448" lon="2.48406">
        <ele>312.4</ele>
        <time>2020-07-12T08:54:38Z</time>
      </trkpt>
      <trkpt lat="46.45454" lon="2.48416">
        <ele>312.2</ele>
        <time>2020-07-12T08:54:40Z</time>
      </trkpt>
      <trkpt lat="46.45459" lon="2.48426">
        <ele>312.6</ele>
        <time>2020-07-12T08:54:42Z</time>
      </trkpt>
      <trkpt lat="46.45462" lon="2.48431">
        <ele>312.8</ele>
        <time>2020-07-12T08:54:43Z</time>
      </trkpt>
      <trkpt lat="46.45464" lon="2.48437">
        <ele>313</ele>
        <time>2020-07-12T08:54:44Z</time>
      </trkpt>
      <trkpt lat="46.45467" lon="2.48442">
        <ele>313.1</ele>
        <time>2020-07-12T08:54:45Z</time>
      </trkpt>
      <trkpt lat="46.4547" lon="2.48448">
        <ele>312.8</ele>
        <time>2020-07-12T08:54:46Z</time>
      </trkpt>
      <trkpt lat="46.45475" lon="2.48458">
        <ele>312.4</ele>
        <time>2020-07-12T08:54:48Z</time>
      </trkpt>
      <trkpt lat="46.45478" lon="2.48463">
        <ele>312.2</ele>
        <time>2020-07-12T08:54:49Z</time>
      </trkpt>
      <trkpt lat="46.45481" lon="2.48469">
        <ele>312</ele>
        <time>2020-07-12T08:54:50Z</time>
      </trkpt>
      <trkpt lat="46.45484" lon="2.48474">
        <ele>312.3</ele>
        <time>2020-07-12T08:54:51Z</time>
      </trkpt>
      <trkpt lat="46.45489" lon="2.48484">
        <ele>312.5</ele>
        <time>2020-07-12T08:54:53Z</time>
      </trkpt>
      <trkpt lat="46.45494" lon="2.48495">
        <ele>312.7</ele>
        <time>2020-07-12T08:54:55Z</time>
      </trkpt>
      <trkpt lat="46.45497" lon="2.485">
        <ele>312.3</ele>
        <time>2020-07-12T08:54:56Z</time>
      </trkpt>
      <trkpt lat="46.455" lon="2.48506">
        <ele>312</ele>
        <time>2020-07-12T08:54:57Z</time>
      </trkpt>
      <trkpt lat="46.45503" lon="2.48511">
        <ele>312</ele>
        <time>2020-07-12T08:54:58Z</time>
      </trkpt>
      <trkpt lat="46.45506" lon="2.48517">
        <ele>311.9</ele>
        <time>2020-07-12T08:54:59Z</time>
      </trkpt>
      <trkpt lat="46.45509" lon="2.48522">
        <ele>311.6</ele>
        <time>2020-07-12T08:55:00Z</time>
      </trkpt>
      <trkpt lat="46.45512" lon="2.48528">
        <ele>311.4</ele>
        <time>2020-07-12T08:55:01Z</time>
      </trkpt>
      <trkpt lat="46.45515" lon="2.48533">
        <ele>311.2</ele>
        <time>2020-07-12T08:55:02Z</time>
      </trkpt>
      <trkpt lat="46.45517" lon="2.48539">
        <ele>311</ele>
        <time>2020-07-12T08:55:03Z</time>
      </trkpt>
      <trkpt lat="46.4552" lon="2.48544">
        <ele>310.8</ele>
        <time>2020-07-12T08:55:04Z</time>
      </trkpt>
      <trkpt lat="46.45523" lon="2.4855">
        <ele>310.5</ele>
        <time>2020-07-12T08:55:05Z</time>
      </trkpt>
      <trkpt lat="46.45526" lon="2.48556">
        <ele>310.2</ele>
        <time>2020-07-12T08:55:06Z</time>
      </trkpt>
      <trkpt lat="46.45529" lon="2.48561">
        <ele>310</ele>
        <time>2020-07-12T08:55:07Z</time>
      </trkpt>
      <trkpt lat="46.45532" lon="2.48567">
        <ele>310.3</ele>
        <time>2020-07-12T08:55:08Z</time>
      </trkpt>
      <trkpt lat="46.45535" lon="2.48573">
        <ele>310.5</ele>
        <time>2020-07-12T08:55:09Z</time>
      </trkpt>
      <trkpt lat="46.45538" lon="2.48579">
        <ele>310.7</ele>
        <time>2020-07-12T08:55:10Z</time>
      </trkpt>
      <trkpt lat="46.4554" lon="2.48584">
        <ele>310.9</ele>
        <time>2020-07-12T08:55:11Z</time>
      </trkpt>
      <trkpt lat="46.45543" lon="2.4859">
        <ele>310.9</ele>
        <time>2020-07-12T08:55:12Z</time>
      </trkpt>
      <trkpt lat="46.45545" lon="2.48596">
        <ele>310.9</ele>
        <time>2020-07-12T08:55:13Z</time>
      </trkpt>
      <trkpt lat="46.45547" lon="2.48602">
        <ele>310.9</ele>
        <time>2020-07-12T08:55:14Z</time>
      </trkpt>
      <trkpt lat="46.4555" lon="2.48608">
        <ele>310.8</ele>
        <time>2020-07-12T08:55:15Z</time>
      </trkpt>
      <trkpt lat="46.45553" lon="2.48613">
        <ele>310.7</ele>
        <time>2020-07-12T08:55:16Z</time>
      </trkpt>
      <trkpt lat="46.45556" lon="2.48619">
        <ele>310.3</ele>
        <time>2020-07-12T08:55:17Z</time>
      </trkpt>
      <trkpt lat="46.4556" lon="2.48625">
        <ele>310</ele>
        <time>2020-07-12T08:55:18Z</time>
      </trkpt>
      <trkpt lat="46.45563" lon="2.48631">
        <ele>310.3</ele>
        <time>2020-07-12T08:55:19Z</time>
      </trkpt>
      <trkpt lat="46.45566" lon="2.48636">
        <ele>310.5</ele>
        <time>2020-07-12T08:55:20Z</time>
      </trkpt>
      <trkpt lat="46.4557" lon="2.48642">
        <ele>310.6</ele>
        <time>2020-07-12T08:55:21Z</time>
      </trkpt>
      <trkpt lat="46.45573" lon="2.48648">
        <ele>310.7</ele>
        <time>2020-07-12T08:55:22Z</time>
      </trkpt>
      <trkpt lat="46.45576" lon="2.48655">
        <ele>310.8</ele>
        <time>2020-07-12T08:55:23Z</time>
      </trkpt>
      <trkpt lat="46.45579" lon="2.48661">
        <ele>310.6</ele>
        <time>2020-07-12T08:55:24Z</time>
      </trkpt>
      <trkpt lat="46.45582" lon="2.48667">
        <ele>310.5</ele>
        <time>2020-07-12T08:55:25Z</time>
      </trkpt>
      <trkpt lat="46.45585" lon="2.48673">
        <ele>310.4</ele>
        <time>2020-07-12T08:55:26Z</time>
      </trkpt>
      <trkpt lat="46.45588" lon="2.48679">
        <ele>310</ele>
        <time>2020-07-12T08:55:27Z</time>
      </trkpt>
      <trkpt lat="46.45591" lon="2.48685">
        <ele>309.8</ele>
        <time>2020-07-12T08:55:28Z</time>
      </trkpt>
      <trkpt lat="46.45594" lon="2.48691">
        <ele>310.2</ele>
        <time>2020-07-12T08:55:29Z</time>
      </trkpt>
      <trkpt lat="46.45597" lon="2.48697">
        <ele>310.4</ele>
        <time>2020-07-12T08:55:30Z</time>
      </trkpt>
      <trkpt lat="46.456" lon="2.48703">
        <ele>310.5</ele>
        <time>2020-07-12T08:55:31Z</time>
      </trkpt>
      <trkpt lat="46.45603" lon="2.48709">
        <ele>310.6</ele>
        <time>2020-07-12T08:55:32Z</time>
      </trkpt>
      <trkpt lat="46.45606" lon="2.48715">
        <ele>310.7</ele>
        <time>2020-07-12T08:55:33Z</time>
      </trkpt>
      <trkpt lat="46.45609" lon="2.4872">
        <ele>310.8</ele>
        <time>2020-07-12T08:55:34Z</time>
      </trkpt>
      <trkpt lat="46.45613" lon="2.48726">
        <ele>310.8</ele>
        <time>2020-07-12T08:55:35Z</time>
      </trkpt>
      <trkpt lat="46.45616" lon="2.48731">
        <ele>310.9</ele>
        <time>2020-07-12T08:55:36Z</time>
      </trkpt>
      <trkpt lat="46.45619" lon="2.48737">
        <ele>311</ele>
        <time>2020-07-12T08:55:37Z</time>
      </trkpt>
      <trkpt lat="46.45622" lon="2.48743">
        <ele>311.1</ele>
        <time>2020-07-12T08:55:38Z</time>
      </trkpt>
      <trkpt lat="46.45625" lon="2.48749">
        <ele>311.1</ele>
        <time>2020-07-12T08:55:39Z</time>
      </trkpt>
      <trkpt lat="46.45628" lon="2.48755">
        <ele>311.1</ele>
        <time>2020-07-12T08:55:40Z</time>
      </trkpt>
      <trkpt lat="46.45631" lon="2.48761">
        <ele>310.9</ele>
        <time>2020-07-12T08:55:41Z</time>
      </trkpt>
      <trkpt lat="46.45634" lon="2.48768">
        <ele>310.7</ele>
        <time>2020-07-12T08:55:42Z</time>
      </trkpt>
      <trkpt lat="46.45637" lon="2.48774">
        <ele>310.5</ele>
        <time>2020-07-12T08:55:43Z</time>
      </trkpt>
      <trkpt lat="46.4564" lon="2.4878">
        <ele>310.4</ele>
        <time>2020-07-12T08:55:44Z</time>
      </trkpt>
      <trkpt lat="46.45643" lon="2.48786">
        <ele>310.3</ele>
        <time>2020-07-12T08:55:45Z</time>
      </trkpt>
      <trkpt lat="46.45646" lon="2.48792">
        <ele>310.2</ele>
        <time>2020-07-12T08:55:46Z</time>
      </trkpt>
      <trkpt lat="46.45649" lon="2.48798">
        <ele>310.1</ele>
        <time>2020-07-12T08:55:47Z</time>
      </trkpt>
      <trkpt lat="46.45653" lon="2.48804">
        <ele>310.2</ele>
        <time>2020-07-12T08:55:48Z</time>
      </trkpt>
      <trkpt lat="46.45656" lon="2.4881">
        <ele>310.3</ele>
        <time>2020-07-12T08:55:49Z</time>
      </trkpt>
      <trkpt lat="46.45659" lon="2.48816">
        <ele>310.1</ele>
        <time>2020-07-12T08:55:50Z</time>
      </trkpt>
      <trkpt lat="46.45662" lon="2.48822">
        <ele>310</ele>
        <time>2020-07-12T08:55:51Z</time>
      </trkpt>
      <trkpt lat="46.45665" lon="2.48828">
        <ele>309.8</ele>
        <time>2020-07-12T08:55:52Z</time>
      </trkpt>
      <trkpt lat="46.45669" lon="2.48834">
        <ele>309.3</ele>
        <time>2020-07-12T08:55:53Z</time>
      </trkpt>
      <trkpt lat="46.45672" lon="2.4884">
        <ele>309</ele>
        <time>2020-07-12T08:55:54Z</time>
      </trkpt>
      <trkpt lat="46.45675" lon="2.48847">
        <ele>308.8</ele>
        <time>2020-07-12T08:55:55Z</time>
      </trkpt>
      <trkpt lat="46.45678" lon="2.48852">
        <ele>308.8</ele>
        <time>2020-07-12T08:55:56Z</time>
      </trkpt>
      <trkpt lat="46.45681" lon="2.48859">
        <ele>309.2</ele>
        <time>2020-07-12T08:55:57Z</time>
      </trkpt>
      <trkpt lat="46.45685" lon="2.48864">
        <ele>309.6</ele>
        <time>2020-07-12T08:55:58Z</time>
      </trkpt>
      <trkpt lat="46.45688" lon="2.4887">
        <ele>309.8</ele>
        <time>2020-07-12T08:55:59Z</time>
      </trkpt>
      <trkpt lat="46.45691" lon="2.48876">
        <ele>309.5</ele>
        <time>2020-07-12T08:56:00Z</time>
      </trkpt>
      <trkpt lat="46.45694" lon="2.48882">
        <ele>309.2</ele>
        <time>2020-07-12T08:56:01Z</time>
      </trkpt>
      <trkpt lat="46.45697" lon="2.48888">
        <ele>309.4</ele>
        <time>2020-07-12T08:56:02Z</time>
      </trkpt>
      <trkpt lat="46.457" lon="2.48894">
        <ele>309.5</ele>
        <time>2020-07-12T08:56:03Z</time>
      </trkpt>
      <trkpt lat="46.45703" lon="2.489">
        <ele>309.6</ele>
        <time>2020-07-12T08:56:04Z</time>
      </trkpt>
      <trkpt lat="46.45706" lon="2.48905">
        <ele>309.4</ele>
        <time>2020-07-12T08:56:05Z</time>
      </trkpt>
      <trkpt lat="46.45709" lon="2.48911">
        <ele>309.3</ele>
        <time>2020-07-12T08:56:06Z</time>
      </trkpt>
      <trkpt lat="46.45712" lon="2.48916">
        <ele>309.8</ele>
        <time>2020-07-12T08:56:07Z</time>
      </trkpt>
      <trkpt lat="46.45715" lon="2.48922">
        <ele>310.1</ele>
        <time>2020-07-12T08:56:08Z</time>
      </trkpt>
      <trkpt lat="46.45718" lon="2.48927">
        <ele>309.8</ele>
        <time>2020-07-12T08:56:09Z</time>
      </trkpt>
      <trkpt lat="46.45721" lon="2.48933">
        <ele>309.6</ele>
        <time>2020-07-12T08:56:10Z</time>
      </trkpt>
      <trkpt lat="46.45724" lon="2.48939">
        <ele>309.5</ele>
        <time>2020-07-12T08:56:11Z</time>
      </trkpt>
      <trkpt lat="46.45727" lon="2.48944">
        <ele>309.4</ele>
        <time>2020-07-12T08:56:12Z</time>
      </trkpt>
      <trkpt lat="46.4573" lon="2.4895">
        <ele>309.4</ele>
        <time>2020-07-12T08:56:13Z</time>
      </trkpt>
      <trkpt lat="46.45733" lon="2.48955">
        <ele>309.2</ele>
        <time>2020-07-12T08:56:14Z</time>
      </trkpt>
      <trkpt lat="46.45736" lon="2.4896">
        <ele>309.1</ele>
        <time>2020-07-12T08:56:15Z</time>
      </trkpt>
      <trkpt lat="46.45738" lon="2.48966">
        <ele>309.1</ele>
        <time>2020-07-12T08:56:16Z</time>
      </trkpt>
      <trkpt lat="46.45741" lon="2.48971">
        <ele>309</ele>
        <time>2020-07-12T08:56:17Z</time>
      </trkpt>
      <trkpt lat="46.45744" lon="2.48977">
        <ele>309</ele>
        <time>2020-07-12T08:56:18Z</time>
      </trkpt>
      <trkpt lat="46.45747" lon="2.48982">
        <ele>309</ele>
        <time>2020-07-12T08:56:19Z</time>
      </trkpt>
      <trkpt lat="46.4575" lon="2.48988">
        <ele>308.9</ele>
        <time>2020-07-12T08:56:20Z</time>
      </trkpt>
      <trkpt lat="46.45753" lon="2.48993">
        <ele>308.7</ele>
        <time>2020-07-12T08:56:21Z</time>
      </trkpt>
      <trkpt lat="46.45756" lon="2.48998">
        <ele>308.5</ele>
        <time>2020-07-12T08:56:22Z</time>
      </trkpt>
      <trkpt lat="46.45758" lon="2.49004">
        <ele>308.7</ele>
        <time>2020-07-12T08:56:23Z</time>
      </trkpt>
      <trkpt lat="46.45761" lon="2.49009">
        <ele>308.8</ele>
        <time>2020-07-12T08:56:24Z</time>
      </trkpt>
      <trkpt lat="46.45764" lon="2.49015">
        <ele>308.9</ele>
        <time>2020-07-12T08:56:25Z</time>
      </trkpt>
      <trkpt lat="46.45767" lon="2.4902">
        <ele>308.8</ele>
        <time>2020-07-12T08:56:26Z</time>
      </trkpt>
      <trkpt lat="46.45769" lon="2.49026">
        <ele>308.7</ele>
        <time>2020-07-12T08:56:27Z</time>
      </trkpt>
      <trkpt lat="46.45772" lon="2.49031">
        <ele>308.6</ele>
        <time>2020-07-12T08:56:28Z</time>
      </trkpt>
      <trkpt lat="46.45775" lon="2.49037">
        <ele>308.5</ele>
        <time>2020-07-12T08:56:29Z</time>
      </trkpt>
      <trkpt lat="46.45778" lon="2.49042">
        <ele>308.4</ele>
        <time>2020-07-12T08:56:30Z</time>
      </trkpt>
      <trkpt lat="46.45781" lon="2.49048">
        <ele>308.2</ele>
        <time>2020-07-12T08:56:31Z</time>
      </trkpt>
      <trkpt lat="46.45783" lon="2.49054">
        <ele>308</ele>
        <time>2020-07-12T08:56:32Z</time>
      </trkpt>
      <trkpt lat="46.45786" lon="2.49059">
        <ele>307.5</ele>
        <time>2020-07-12T08:56:33Z</time>
      </trkpt>
      <trkpt lat="46.45789" lon="2.49065">
        <ele>307.1</ele>
        <time>2020-07-12T08:56:34Z</time>
      </trkpt>
      <trkpt lat="46.45792" lon="2.4907">
        <ele>307.4</ele>
        <time>2020-07-12T08:56:35Z</time>
      </trkpt>
      <trkpt lat="46.45795" lon="2.49076">
        <ele>307.5</ele>
        <time>2020-07-12T08:56:36Z</time>
      </trkpt>
      <trkpt lat="46.45798" lon="2.49082">
        <ele>307.7</ele>
        <time>2020-07-12T08:56:37Z</time>
      </trkpt>
      <trkpt lat="46.45801" lon="2.49088">
        <ele>307.7</ele>
        <time>2020-07-12T08:56:38Z</time>
      </trkpt>
      <trkpt lat="46.45804" lon="2.49094">
        <ele>307.8</ele>
        <time>2020-07-12T08:56:39Z</time>
      </trkpt>
      <trkpt lat="46.45807" lon="2.491">
        <ele>307.5</ele>
        <time>2020-07-12T08:56:40Z</time>
      </trkpt>
      <trkpt lat="46.4581" lon="2.49106">
        <ele>307.4</ele>
        <time>2020-07-12T08:56:41Z</time>
      </trkpt>
      <trkpt lat="46.45813" lon="2.49112">
        <ele>307.2</ele>
        <time>2020-07-12T08:56:42Z</time>
      </trkpt>
      <trkpt lat="46.45816" lon="2.49118">
        <ele>307.1</ele>
        <time>2020-07-12T08:56:43Z</time>
      </trkpt>
      <trkpt lat="46.45819" lon="2.49124">
        <ele>307.1</ele>
        <time>2020-07-12T08:56:44Z</time>
      </trkpt>
      <trkpt lat="46.45822" lon="2.49129">
        <ele>307</ele>
        <time>2020-07-12T08:56:45Z</time>
      </trkpt>
      <trkpt lat="46.45825" lon="2.49135">
        <ele>306.9</ele>
        <time>2020-07-12T08:56:46Z</time>
      </trkpt>
      <trkpt lat="46.45827" lon="2.49141">
        <ele>306.8</ele>
        <time>2020-07-12T08:56:47Z</time>
      </trkpt>
      <trkpt lat="46.4583" lon="2.49147">
        <ele>306.7</ele>
        <time>2020-07-12T08:56:48Z</time>
      </trkpt>
      <trkpt lat="46.45833" lon="2.49153">
        <ele>306.7</ele>
        <time>2020-07-12T08:56:49Z</time>
      </trkpt>
      <trkpt lat="46.45836" lon="2.49159">
        <ele>306.4</ele>
        <time>2020-07-12T08:56:50Z</time>
      </trkpt>
      <trkpt lat="46.45839" lon="2.49165">
        <ele>306.1</ele>
        <time>2020-07-12T08:56:51Z</time>
      </trkpt>
      <trkpt lat="46.45842" lon="2.4917">
        <ele>306.2</ele>
        <time>2020-07-12T08:56:52Z</time>
      </trkpt>
      <trkpt lat="46.45845" lon="2.49176">
        <ele>306.3</ele>
        <time>2020-07-12T08:56:53Z</time>
      </trkpt>
      <trkpt lat="46.45847" lon="2.49182">
        <ele>306.1</ele>
        <time>2020-07-12T08:56:54Z</time>
      </trkpt>
      <trkpt lat="46.4585" lon="2.49188">
        <ele>306</ele>
        <time>2020-07-12T08:56:55Z</time>
      </trkpt>
      <trkpt lat="46.45853" lon="2.49194">
        <ele>305.9</ele>
        <time>2020-07-12T08:56:56Z</time>
      </trkpt>
      <trkpt lat="46.45856" lon="2.49199">
        <ele>305.9</ele>
        <time>2020-07-12T08:56:57Z</time>
      </trkpt>
      <trkpt lat="46.45859" lon="2.49205">
        <ele>305.9</ele>
        <time>2020-07-12T08:56:58Z</time>
      </trkpt>
      <trkpt lat="46.45862" lon="2.49211">
        <ele>305.9</ele>
        <time>2020-07-12T08:56:59Z</time>
      </trkpt>
      <trkpt lat="46.45865" lon="2.49217">
        <ele>305.8</ele>
        <time>2020-07-12T08:57:00Z</time>
      </trkpt>
      <trkpt lat="46.45868" lon="2.49223">
        <ele>306</ele>
        <time>2020-07-12T08:57:01Z</time>
      </trkpt>
      <trkpt lat="46.45871" lon="2.4923">
        <ele>306.2</ele>
        <time>2020-07-12T08:57:02Z</time>
      </trkpt>
      <trkpt lat="46.45873" lon="2.49236">
        <ele>306.3</ele>
        <time>2020-07-12T08:57:03Z</time>
      </trkpt>
      <trkpt lat="46.45876" lon="2.49242">
        <ele>306.2</ele>
        <time>2020-07-12T08:57:04Z</time>
      </trkpt>
      <trkpt lat="46.45879" lon="2.49249">
        <ele>306.1</ele>
        <time>2020-07-12T08:57:05Z</time>
      </trkpt>
      <trkpt lat="46.45882" lon="2.49255">
        <ele>305.8</ele>
        <time>2020-07-12T08:57:06Z</time>
      </trkpt>
      <trkpt lat="46.45885" lon="2.49261">
        <ele>305.7</ele>
        <time>2020-07-12T08:57:07Z</time>
      </trkpt>
      <trkpt lat="46.45888" lon="2.49268">
        <ele>305.5</ele>
        <time>2020-07-12T08:57:08Z</time>
      </trkpt>
      <trkpt lat="46.45891" lon="2.49274">
        <ele>305.4</ele>
        <time>2020-07-12T08:57:09Z</time>
      </trkpt>
      <trkpt lat="46.45894" lon="2.4928">
        <ele>305.3</ele>
        <time>2020-07-12T08:57:10Z</time>
      </trkpt>
      <trkpt lat="46.45897" lon="2.49287">
        <ele>305</ele>
        <time>2020-07-12T08:57:11Z</time>
      </trkpt>
      <trkpt lat="46.459" lon="2.49293">
        <ele>304.8</ele>
        <time>2020-07-12T08:57:12Z</time>
      </trkpt>
      <trkpt lat="46.45903" lon="2.493">
        <ele>304.7</ele>
        <time>2020-07-12T08:57:13Z</time>
      </trkpt>
      <trkpt lat="46.45906" lon="2.49306">
        <ele>304.6</ele>
        <time>2020-07-12T08:57:14Z</time>
      </trkpt>
      <trkpt lat="46.45909" lon="2.49312">
        <ele>304.6</ele>
        <time>2020-07-12T08:57:15Z</time>
      </trkpt>
      <trkpt lat="46.45912" lon="2.49318">
        <ele>304.4</ele>
        <time>2020-07-12T08:57:16Z</time>
      </trkpt>
      <trkpt lat="46.45915" lon="2.49324">
        <ele>304.3</ele>
        <time>2020-07-12T08:57:17Z</time>
      </trkpt>
      <trkpt lat="46.45918" lon="2.49329">
        <ele>304.5</ele>
        <time>2020-07-12T08:57:18Z</time>
      </trkpt>
      <trkpt lat="46.45921" lon="2.49336">
        <ele>304.7</ele>
        <time>2020-07-12T08:57:19Z</time>
      </trkpt>
      <trkpt lat="46.45923" lon="2.49342">
        <ele>304.5</ele>
        <time>2020-07-12T08:57:20Z</time>
      </trkpt>
      <trkpt lat="46.45926" lon="2.49349">
        <ele>304.3</ele>
        <time>2020-07-12T08:57:21Z</time>
      </trkpt>
      <trkpt lat="46.45929" lon="2.49355">
        <ele>304.2</ele>
        <time>2020-07-12T08:57:22Z</time>
      </trkpt>
      <trkpt lat="46.45932" lon="2.49361">
        <ele>304</ele>
        <time>2020-07-12T08:57:23Z</time>
      </trkpt>
      <trkpt lat="46.45936" lon="2.49368">
        <ele>303.8</ele>
        <time>2020-07-12T08:57:24Z</time>
      </trkpt>
      <trkpt lat="46.45939" lon="2.49374">
        <ele>303.9</ele>
        <time>2020-07-12T08:57:25Z</time>
      </trkpt>
      <trkpt lat="46.45942" lon="2.49381">
        <ele>303.9</ele>
        <time>2020-07-12T08:57:26Z</time>
      </trkpt>
      <trkpt lat="46.45945" lon="2.49387">
        <ele>303.9</ele>
        <time>2020-07-12T08:57:27Z</time>
      </trkpt>
      <trkpt lat="46.45948" lon="2.49394">
        <ele>303.7</ele>
        <time>2020-07-12T08:57:28Z</time>
      </trkpt>
      <trkpt lat="46.45951" lon="2.494">
        <ele>303.6</ele>
        <time>2020-07-12T08:57:29Z</time>
      </trkpt>
      <trkpt lat="46.45954" lon="2.49406">
        <ele>303.6</ele>
        <time>2020-07-12T08:57:30Z</time>
      </trkpt>
      <trkpt lat="46.45957" lon="2.49412">
        <ele>303.6</ele>
        <time>2020-07-12T08:57:31Z</time>
      </trkpt>
      <trkpt lat="46.4596" lon="2.49419">
        <ele>303.3</ele>
        <time>2020-07-12T08:57:32Z</time>
      </trkpt>
      <trkpt lat="46.45963" lon="2.49425">
        <ele>303.1</ele>
        <time>2020-07-12T08:57:33Z</time>
      </trkpt>
      <trkpt lat="46.45966" lon="2.49432">
        <ele>302.9</ele>
        <time>2020-07-12T08:57:34Z</time>
      </trkpt>
      <trkpt lat="46.45969" lon="2.49438">
        <ele>302.9</ele>
        <time>2020-07-12T08:57:35Z</time>
      </trkpt>
      <trkpt lat="46.45972" lon="2.49444">
        <ele>302.8</ele>
        <time>2020-07-12T08:57:36Z</time>
      </trkpt>
      <trkpt lat="46.45976" lon="2.4945">
        <ele>302.6</ele>
        <time>2020-07-12T08:57:37Z</time>
      </trkpt>
      <trkpt lat="46.45979" lon="2.49457">
        <ele>302.5</ele>
        <time>2020-07-12T08:57:38Z</time>
      </trkpt>
      <trkpt lat="46.45983" lon="2.49463">
        <ele>302.5</ele>
        <time>2020-07-12T08:57:39Z</time>
      </trkpt>
      <trkpt lat="46.45986" lon="2.49469">
        <ele>302.6</ele>
        <time>2020-07-12T08:57:40Z</time>
      </trkpt>
      <trkpt lat="46.4599" lon="2.49475">
        <ele>302.6</ele>
        <time>2020-07-12T08:57:41Z</time>
      </trkpt>
      <trkpt lat="46.45993" lon="2.49482">
        <ele>302.9</ele>
        <time>2020-07-12T08:57:42Z</time>
      </trkpt>
      <trkpt lat="46.45997" lon="2.49488">
        <ele>303.1</ele>
        <time>2020-07-12T08:57:43Z</time>
      </trkpt>
      <trkpt lat="46.46" lon="2.49494">
        <ele>302.9</ele>
        <time>2020-07-12T08:57:44Z</time>
      </trkpt>
      <trkpt lat="46.46004" lon="2.495">
        <ele>302.8</ele>
        <time>2020-07-12T08:57:45Z</time>
      </trkpt>
      <trkpt lat="46.46007" lon="2.49506">
        <ele>302.7</ele>
        <time>2020-07-12T08:57:46Z</time>
      </trkpt>
      <trkpt lat="46.4601" lon="2.49512">
        <ele>302.7</ele>
        <time>2020-07-12T08:57:47Z</time>
      </trkpt>
      <trkpt lat="46.46014" lon="2.49518">
        <ele>302.8</ele>
        <time>2020-07-12T08:57:48Z</time>
      </trkpt>
      <trkpt lat="46.46017" lon="2.49525">
        <ele>302.2</ele>
        <time>2020-07-12T08:57:49Z</time>
      </trkpt>
      <trkpt lat="46.46021" lon="2.49531">
        <ele>301.8</ele>
        <time>2020-07-12T08:57:50Z</time>
      </trkpt>
      <trkpt lat="46.46024" lon="2.49537">
        <ele>301.8</ele>
        <time>2020-07-12T08:57:51Z</time>
      </trkpt>
      <trkpt lat="46.46028" lon="2.49543">
        <ele>301.7</ele>
        <time>2020-07-12T08:57:52Z</time>
      </trkpt>
      <trkpt lat="46.46031" lon="2.49549">
        <ele>301.7</ele>
        <time>2020-07-12T08:57:53Z</time>
      </trkpt>
      <trkpt lat="46.46034" lon="2.49556">
        <ele>301.8</ele>
        <time>2020-07-12T08:57:54Z</time>
      </trkpt>
      <trkpt lat="46.46038" lon="2.49562">
        <ele>301.8</ele>
        <time>2020-07-12T08:57:55Z</time>
      </trkpt>
      <trkpt lat="46.46041" lon="2.49569">
        <ele>301.3</ele>
        <time>2020-07-12T08:57:56Z</time>
      </trkpt>
      <trkpt lat="46.46045" lon="2.49575">
        <ele>301</ele>
        <time>2020-07-12T08:57:57Z</time>
      </trkpt>
      <trkpt lat="46.46048" lon="2.49581">
        <ele>301.3</ele>
        <time>2020-07-12T08:57:58Z</time>
      </trkpt>
      <trkpt lat="46.46051" lon="2.49588">
        <ele>301.4</ele>
        <time>2020-07-12T08:57:59Z</time>
      </trkpt>
      <trkpt lat="46.46055" lon="2.49594">
        <ele>301.6</ele>
        <time>2020-07-12T08:58:00Z</time>
      </trkpt>
      <trkpt lat="46.46058" lon="2.496">
        <ele>301.3</ele>
        <time>2020-07-12T08:58:01Z</time>
      </trkpt>
      <trkpt lat="46.46061" lon="2.49607">
        <ele>301</ele>
        <time>2020-07-12T08:58:02Z</time>
      </trkpt>
      <trkpt lat="46.46064" lon="2.49613">
        <ele>300.8</ele>
        <time>2020-07-12T08:58:03Z</time>
      </trkpt>
      <trkpt lat="46.46067" lon="2.4962">
        <ele>300.6</ele>
        <time>2020-07-12T08:58:04Z</time>
      </trkpt>
      <trkpt lat="46.46069" lon="2.49627">
        <ele>300.4</ele>
        <time>2020-07-12T08:58:05Z</time>
      </trkpt>
      <trkpt lat="46.46072" lon="2.49634">
        <ele>300.3</ele>
        <time>2020-07-12T08:58:06Z</time>
      </trkpt>
      <trkpt lat="46.46074" lon="2.49641">
        <ele>300.3</ele>
        <time>2020-07-12T08:58:07Z</time>
      </trkpt>
      <trkpt lat="46.46076" lon="2.49648">
        <ele>300.2</ele>
        <time>2020-07-12T08:58:08Z</time>
      </trkpt>
      <trkpt lat="46.46079" lon="2.49655">
        <ele>300.1</ele>
        <time>2020-07-12T08:58:09Z</time>
      </trkpt>
      <trkpt lat="46.46081" lon="2.49662">
        <ele>300.2</ele>
        <time>2020-07-12T08:58:10Z</time>
      </trkpt>
      <trkpt lat="46.46083" lon="2.49669">
        <ele>300.3</ele>
        <time>2020-07-12T08:58:11Z</time>
      </trkpt>
      <trkpt lat="46.46086" lon="2.49676">
        <ele>300.4</ele>
        <time>2020-07-12T08:58:12Z</time>
      </trkpt>
      <trkpt lat="46.46088" lon="2.49682">
        <ele>300.1</ele>
        <time>2020-07-12T08:58:13Z</time>
      </trkpt>
      <trkpt lat="46.46091" lon="2.49689">
        <ele>299.8</ele>
        <time>2020-07-12T08:58:14Z</time>
      </trkpt>
      <trkpt lat="46.46093" lon="2.49695">
        <ele>299.6</ele>
        <time>2020-07-12T08:58:15Z</time>
      </trkpt>
      <trkpt lat="46.46095" lon="2.49702">
        <ele>299.5</ele>
        <time>2020-07-12T08:58:16Z</time>
      </trkpt>
      <trkpt lat="46.46097" lon="2.49708">
        <ele>300</ele>
        <time>2020-07-12T08:58:17Z</time>
      </trkpt>
      <trkpt lat="46.46099" lon="2.49714">
        <ele>300.5</ele>
        <time>2020-07-12T08:58:18Z</time>
      </trkpt>
      <trkpt lat="46.461" lon="2.49721">
        <ele>300.8</ele>
        <time>2020-07-12T08:58:19Z</time>
      </trkpt>
      <trkpt lat="46.46102" lon="2.49727">
        <ele>300.6</ele>
        <time>2020-07-12T08:58:20Z</time>
      </trkpt>
      <trkpt lat="46.46104" lon="2.49733">
        <ele>300.4</ele>
        <time>2020-07-12T08:58:21Z</time>
      </trkpt>
      <trkpt lat="46.46108" lon="2.49744">
        <ele>299.6</ele>
        <time>2020-07-12T08:58:23Z</time>
      </trkpt>
      <trkpt lat="46.46112" lon="2.49755">
        <ele>299.5</ele>
        <time>2020-07-12T08:58:25Z</time>
      </trkpt>
      <trkpt lat="46.46116" lon="2.49764">
        <ele>299.5</ele>
        <time>2020-07-12T08:58:27Z</time>
      </trkpt>
      <trkpt lat="46.46121" lon="2.49772">
        <ele>299.7</ele>
        <time>2020-07-12T08:58:29Z</time>
      </trkpt>
      <trkpt lat="46.46126" lon="2.49779">
        <ele>300</ele>
        <time>2020-07-12T08:58:31Z</time>
      </trkpt>
      <trkpt lat="46.46132" lon="2.49786">
        <ele>299.8</ele>
        <time>2020-07-12T08:58:33Z</time>
      </trkpt>
      <trkpt lat="46.46138" lon="2.49793">
        <ele>299.5</ele>
        <time>2020-07-12T08:58:35Z</time>
      </trkpt>
      <trkpt lat="46.46141" lon="2.49797">
        <ele>299.8</ele>
        <time>2020-07-12T08:58:36Z</time>
      </trkpt>
      <trkpt lat="46.46144" lon="2.49801">
        <ele>300.1</ele>
        <time>2020-07-12T08:58:37Z</time>
      </trkpt>
      <trkpt lat="46.46148" lon="2.49806">
        <ele>300.3</ele>
        <time>2020-07-12T08:58:38Z</time>
      </trkpt>
      <trkpt lat="46.46152" lon="2.49811">
        <ele>299.9</ele>
        <time>2020-07-12T08:58:39Z</time>
      </trkpt>
      <trkpt lat="46.46155" lon="2.49816">
        <ele>299.6</ele>
        <time>2020-07-12T08:58:40Z</time>
      </trkpt>
      <trkpt lat="46.46159" lon="2.49821">
        <ele>299.2</ele>
        <time>2020-07-12T08:58:41Z</time>
      </trkpt>
      <trkpt lat="46.46162" lon="2.49826">
        <ele>298.9</ele>
        <time>2020-07-12T08:58:42Z</time>
      </trkpt>
      <trkpt lat="46.46165" lon="2.49832">
        <ele>298.7</ele>
        <time>2020-07-12T08:58:43Z</time>
      </trkpt>
      <trkpt lat="46.46168" lon="2.49837">
        <ele>298.5</ele>
        <time>2020-07-12T08:58:44Z</time>
      </trkpt>
      <trkpt lat="46.46171" lon="2.49842">
        <ele>298.3</ele>
        <time>2020-07-12T08:58:45Z</time>
      </trkpt>
      <trkpt lat="46.46174" lon="2.49847">
        <ele>298.4</ele>
        <time>2020-07-12T08:58:46Z</time>
      </trkpt>
      <trkpt lat="46.46177" lon="2.49853">
        <ele>298.4</ele>
        <time>2020-07-12T08:58:47Z</time>
      </trkpt>
      <trkpt lat="46.4618" lon="2.49858">
        <ele>298.7</ele>
        <time>2020-07-12T08:58:48Z</time>
      </trkpt>
      <trkpt lat="46.46183" lon="2.49863">
        <ele>299</ele>
        <time>2020-07-12T08:58:49Z</time>
      </trkpt>
      <trkpt lat="46.46186" lon="2.49868">
        <ele>299.2</ele>
        <time>2020-07-12T08:58:50Z</time>
      </trkpt>
      <trkpt lat="46.46191" lon="2.49878">
        <ele>298.6</ele>
        <time>2020-07-12T08:58:52Z</time>
      </trkpt>
      <trkpt lat="46.46194" lon="2.49884">
        <ele>298.5</ele>
        <time>2020-07-12T08:58:53Z</time>
      </trkpt>
      <trkpt lat="46.46197" lon="2.49889">
        <ele>298.4</ele>
        <time>2020-07-12T08:58:54Z</time>
      </trkpt>
      <trkpt lat="46.462" lon="2.49894">
        <ele>298.4</ele>
        <time>2020-07-12T08:58:55Z</time>
      </trkpt>
      <trkpt lat="46.46203" lon="2.49899">
        <ele>298.4</ele>
        <time>2020-07-12T08:58:56Z</time>
      </trkpt>
      <trkpt lat="46.46205" lon="2.49905">
        <ele>298.4</ele>
        <time>2020-07-12T08:58:57Z</time>
      </trkpt>
      <trkpt lat="46.46211" lon="2.49915">
        <ele>297.7</ele>
        <time>2020-07-12T08:58:59Z</time>
      </trkpt>
      <trkpt lat="46.46216" lon="2.49925">
        <ele>297.5</ele>
        <time>2020-07-12T08:59:01Z</time>
      </trkpt>
      <trkpt lat="46.46221" lon="2.49935">
        <ele>297.3</ele>
        <time>2020-07-12T08:59:03Z</time>
      </trkpt>
      <trkpt lat="46.46227" lon="2.49945">
        <ele>297.5</ele>
        <time>2020-07-12T08:59:05Z</time>
      </trkpt>
      <trkpt lat="46.46232" lon="2.49955">
        <ele>297.5</ele>
        <time>2020-07-12T08:59:07Z</time>
      </trkpt>
      <trkpt lat="46.46235" lon="2.4996">
        <ele>297.4</ele>
        <time>2020-07-12T08:59:08Z</time>
      </trkpt>
      <trkpt lat="46.46238" lon="2.49965">
        <ele>297.3</ele>
        <time>2020-07-12T08:59:09Z</time>
      </trkpt>
      <trkpt lat="46.46241" lon="2.49971">
        <ele>297.4</ele>
        <time>2020-07-12T08:59:10Z</time>
      </trkpt>
      <trkpt lat="46.46244" lon="2.49976">
        <ele>297.5</ele>
        <time>2020-07-12T08:59:11Z</time>
      </trkpt>
      <trkpt lat="46.46247" lon="2.49981">
        <ele>296.8</ele>
        <time>2020-07-12T08:59:12Z</time>
      </trkpt>
      <trkpt lat="46.4625" lon="2.49987">
        <ele>296.3</ele>
        <time>2020-07-12T08:59:13Z</time>
      </trkpt>
      <trkpt lat="46.46253" lon="2.49992">
        <ele>296.4</ele>
        <time>2020-07-12T08:59:14Z</time>
      </trkpt>
      <trkpt lat="46.46256" lon="2.49998">
        <ele>296.5</ele>
        <time>2020-07-12T08:59:15Z</time>
      </trkpt>
      <trkpt lat="46.46259" lon="2.50003">
        <ele>296.6</ele>
        <time>2020-07-12T08:59:16Z</time>
      </trkpt>
      <trkpt lat="46.46261" lon="2.50009">
        <ele>297</ele>
        <time>2020-07-12T08:59:17Z</time>
      </trkpt>
      <trkpt lat="46.46264" lon="2.50014">
        <ele>297.3</ele>
        <time>2020-07-12T08:59:18Z</time>
      </trkpt>
      <trkpt lat="46.46267" lon="2.5002">
        <ele>297.4</ele>
        <time>2020-07-12T08:59:19Z</time>
      </trkpt>
      <trkpt lat="46.4627" lon="2.50025">
        <ele>297.4</ele>
        <time>2020-07-12T08:59:20Z</time>
      </trkpt>
      <trkpt lat="46.46273" lon="2.50031">
        <ele>297.5</ele>
        <time>2020-07-12T08:59:21Z</time>
      </trkpt>
      <trkpt lat="46.46276" lon="2.50037">
        <ele>297.1</ele>
        <time>2020-07-12T08:59:22Z</time>
      </trkpt>
      <trkpt lat="46.46279" lon="2.50043">
        <ele>296.9</ele>
        <time>2020-07-12T08:59:23Z</time>
      </trkpt>
      <trkpt lat="46.46282" lon="2.50049">
        <ele>297</ele>
        <time>2020-07-12T08:59:24Z</time>
      </trkpt>
      <trkpt lat="46.46285" lon="2.50054">
        <ele>297.1</ele>
        <time>2020-07-12T08:59:25Z</time>
      </trkpt>
      <trkpt lat="46.46288" lon="2.5006">
        <ele>297.3</ele>
        <time>2020-07-12T08:59:26Z</time>
      </trkpt>
      <trkpt lat="46.46292" lon="2.50066">
        <ele>297.4</ele>
        <time>2020-07-12T08:59:27Z</time>
      </trkpt>
      <trkpt lat="46.46295" lon="2.50072">
        <ele>297.5</ele>
        <time>2020-07-12T08:59:28Z</time>
      </trkpt>
      <trkpt lat="46.46298" lon="2.50078">
        <ele>297.4</ele>
        <time>2020-07-12T08:59:29Z</time>
      </trkpt>
      <trkpt lat="46.46301" lon="2.50084">
        <ele>297.3</ele>
        <time>2020-07-12T08:59:30Z</time>
      </trkpt>
      <trkpt lat="46.46304" lon="2.50091">
        <ele>296.7</ele>
        <time>2020-07-12T08:59:31Z</time>
      </trkpt>
      <trkpt lat="46.46307" lon="2.50097">
        <ele>296.3</ele>
        <time>2020-07-12T08:59:32Z</time>
      </trkpt>
      <trkpt lat="46.46309" lon="2.50104">
        <ele>296</ele>
        <time>2020-07-12T08:59:33Z</time>
      </trkpt>
      <trkpt lat="46.46312" lon="2.50111">
        <ele>295.7</ele>
        <time>2020-07-12T08:59:34Z</time>
      </trkpt>
      <trkpt lat="46.46314" lon="2.50117">
        <ele>295.5</ele>
        <time>2020-07-12T08:59:35Z</time>
      </trkpt>
      <trkpt lat="46.46316" lon="2.50124">
        <ele>295.7</ele>
        <time>2020-07-12T08:59:36Z</time>
      </trkpt>
      <trkpt lat="46.46318" lon="2.50131">
        <ele>295.8</ele>
        <time>2020-07-12T08:59:37Z</time>
      </trkpt>
      <trkpt lat="46.4632" lon="2.50137">
        <ele>296.4</ele>
        <time>2020-07-12T08:59:38Z</time>
      </trkpt>
      <trkpt lat="46.46322" lon="2.50144">
        <ele>296.9</ele>
        <time>2020-07-12T08:59:39Z</time>
      </trkpt>
      <trkpt lat="46.46324" lon="2.5015">
        <ele>297</ele>
        <time>2020-07-12T08:59:40Z</time>
      </trkpt>
      <trkpt lat="46.46326" lon="2.50157">
        <ele>297.1</ele>
        <time>2020-07-12T08:59:41Z</time>
      </trkpt>
      <trkpt lat="46.46327" lon="2.50164">
        <ele>297.1</ele>
        <time>2020-07-12T08:59:42Z</time>
      </trkpt>
      <trkpt lat="46.46329" lon="2.50171">
        <ele>296.9</ele>
        <time>2020-07-12T08:59:43Z</time>
      </trkpt>
      <trkpt lat="46.46331" lon="2.50178">
        <ele>296.7</ele>
        <time>2020-07-12T08:59:44Z</time>
      </trkpt>
      <trkpt lat="46.46333" lon="2.50184">
        <ele>297.2</ele>
        <time>2020-07-12T08:59:45Z</time>
      </trkpt>
      <trkpt lat="46.46334" lon="2.50191">
        <ele>297.5</ele>
        <time>2020-07-12T08:59:46Z</time>
      </trkpt>
      <trkpt lat="46.46336" lon="2.50197">
        <ele>297.8</ele>
        <time>2020-07-12T08:59:47Z</time>
      </trkpt>
      <trkpt lat="46.46338" lon="2.50204">
        <ele>297.3</ele>
        <time>2020-07-12T08:59:48Z</time>
      </trkpt>
      <trkpt lat="46.46339" lon="2.5021">
        <ele>296.9</ele>
        <time>2020-07-12T08:59:49Z</time>
      </trkpt>
      <trkpt lat="46.46341" lon="2.50217">
        <ele>296.7</ele>
        <time>2020-07-12T08:59:50Z</time>
      </trkpt>
      <trkpt lat="46.46343" lon="2.50223">
        <ele>296.5</ele>
        <time>2020-07-12T08:59:51Z</time>
      </trkpt>
      <trkpt lat="46.46345" lon="2.5023">
        <ele>296.6</ele>
        <time>2020-07-12T08:59:52Z</time>
      </trkpt>
      <trkpt lat="46.46346" lon="2.50237">
        <ele>296.7</ele>
        <time>2020-07-12T08:59:53Z</time>
      </trkpt>
      <trkpt lat="46.46348" lon="2.50243">
        <ele>296.8</ele>
        <time>2020-07-12T08:59:54Z</time>
      </trkpt>
      <trkpt lat="46.46349" lon="2.5025">
        <ele>296.8</ele>
        <time>2020-07-12T08:59:55Z</time>
      </trkpt>
      <trkpt lat="46.4635" lon="2.50257">
        <ele>296.8</ele>
        <time>2020-07-12T08:59:56Z</time>
      </trkpt>
      <trkpt lat="46.4635" lon="2.50265">
        <ele>296.9</ele>
        <time>2020-07-12T08:59:57Z</time>
      </trkpt>
      <trkpt lat="46.46351" lon="2.50272">
        <ele>297</ele>
        <time>2020-07-12T08:59:58Z</time>
      </trkpt>
      <trkpt lat="46.4635" lon="2.50279">
        <ele>296.8</ele>
        <time>2020-07-12T08:59:59Z</time>
      </trkpt>
      <trkpt lat="46.4635" lon="2.50287">
        <ele>296.7</ele>
        <time>2020-07-12T09:00:00Z</time>
      </trkpt>
      <trkpt lat="46.4635" lon="2.50294">
        <ele>296.6</ele>
        <time>2020-07-12T09:00:01Z</time>
      </trkpt>
      <trkpt lat="46.4635" lon="2.50302">
        <ele>296.6</ele>
        <time>2020-07-12T09:00:02Z</time>
      </trkpt>
      <trkpt lat="46.46349" lon="2.50309">
        <ele>296.6</ele>
        <time>2020-07-12T09:00:03Z</time>
      </trkpt>
      <trkpt lat="46.46349" lon="2.50317">
        <ele>296.5</ele>
        <time>2020-07-12T09:00:04Z</time>
      </trkpt>
      <trkpt lat="46.46348" lon="2.50324">
        <ele>296.5</ele>
        <time>2020-07-12T09:00:05Z</time>
      </trkpt>
      <trkpt lat="46.46347" lon="2.50331">
        <ele>296.4</ele>
        <time>2020-07-12T09:00:06Z</time>
      </trkpt>
      <trkpt lat="46.46346" lon="2.50338">
        <ele>296.2</ele>
        <time>2020-07-12T09:00:07Z</time>
      </trkpt>
      <trkpt lat="46.46344" lon="2.50345">
        <ele>296.1</ele>
        <time>2020-07-12T09:00:08Z</time>
      </trkpt>
      <trkpt lat="46.46343" lon="2.50352">
        <ele>295.9</ele>
        <time>2020-07-12T09:00:09Z</time>
      </trkpt>
      <trkpt lat="46.46341" lon="2.50359">
        <ele>295.7</ele>
        <time>2020-07-12T09:00:10Z</time>
      </trkpt>
      <trkpt lat="46.46339" lon="2.50365">
        <ele>295.8</ele>
        <time>2020-07-12T09:00:11Z</time>
      </trkpt>
      <trkpt lat="46.46336" lon="2.50372">
        <ele>295.9</ele>
        <time>2020-07-12T09:00:12Z</time>
      </trkpt>
      <trkpt lat="46.46334" lon="2.50378">
        <ele>296</ele>
        <time>2020-07-12T09:00:13Z</time>
      </trkpt>
      <trkpt lat="46.46331" lon="2.50384">
        <ele>296</ele>
        <time>2020-07-12T09:00:14Z</time>
      </trkpt>
      <trkpt lat="46.46327" lon="2.5039">
        <ele>296.1</ele>
        <time>2020-07-12T09:00:15Z</time>
      </trkpt>
      <trkpt lat="46.46324" lon="2.50395">
        <ele>296.1</ele>
        <time>2020-07-12T09:00:16Z</time>
      </trkpt>
      <trkpt lat="46.46321" lon="2.50401">
        <ele>296.1</ele>
        <time>2020-07-12T09:00:17Z</time>
      </trkpt>
      <trkpt lat="46.46317" lon="2.50406">
        <ele>295.8</ele>
        <time>2020-07-12T09:00:18Z</time>
      </trkpt>
      <trkpt lat="46.46314" lon="2.50411">
        <ele>295.7</ele>
        <time>2020-07-12T09:00:19Z</time>
      </trkpt>
      <trkpt lat="46.4631" lon="2.50416">
        <ele>295.5</ele>
        <time>2020-07-12T09:00:20Z</time>
      </trkpt>
      <trkpt lat="46.46307" lon="2.50421">
        <ele>295.6</ele>
        <time>2020-07-12T09:00:21Z</time>
      </trkpt>
      <trkpt lat="46.46304" lon="2.50426">
        <ele>295.6</ele>
        <time>2020-07-12T09:00:22Z</time>
      </trkpt>
      <trkpt lat="46.46298" lon="2.50436">
        <ele>296.3</ele>
        <time>2020-07-12T09:00:24Z</time>
      </trkpt>
      <trkpt lat="46.46294" lon="2.50446">
        <ele>296.9</ele>
        <time>2020-07-12T09:00:26Z</time>
      </trkpt>
      <trkpt lat="46.46289" lon="2.50456">
        <ele>297.2</ele>
        <time>2020-07-12T09:00:28Z</time>
      </trkpt>
      <trkpt lat="46.46284" lon="2.50466">
        <ele>297.5</ele>
        <time>2020-07-12T09:00:30Z</time>
      </trkpt>
      <trkpt lat="46.46281" lon="2.50476">
        <ele>297.7</ele>
        <time>2020-07-12T09:00:32Z</time>
      </trkpt>
      <trkpt lat="46.46278" lon="2.50486">
        <ele>298.2</ele>
        <time>2020-07-12T09:00:34Z</time>
      </trkpt>
      <trkpt lat="46.46276" lon="2.50496">
        <ele>298.3</ele>
        <time>2020-07-12T09:00:36Z</time>
      </trkpt>
      <trkpt lat="46.46276" lon="2.50506">
        <ele>299.2</ele>
        <time>2020-07-12T09:00:38Z</time>
      </trkpt>
      <trkpt lat="46.46277" lon="2.50516">
        <ele>299.4</ele>
        <time>2020-07-12T09:00:40Z</time>
      </trkpt>
      <trkpt lat="46.46278" lon="2.50526">
        <ele>299.3</ele>
        <time>2020-07-12T09:00:42Z</time>
      </trkpt>
      <trkpt lat="46.46278" lon="2.50536">
        <ele>299.2</ele>
        <time>2020-07-12T09:00:44Z</time>
      </trkpt>
      <trkpt lat="46.46278" lon="2.50546">
        <ele>299.6</ele>
        <time>2020-07-12T09:00:46Z</time>
      </trkpt>
      <trkpt lat="46.46277" lon="2.50556">
        <ele>299.4</ele>
        <time>2020-07-12T09:00:48Z</time>
      </trkpt>
      <trkpt lat="46.46276" lon="2.50566">
        <ele>299.7</ele>
        <time>2020-07-12T09:00:50Z</time>
      </trkpt>
      <trkpt lat="46.46275" lon="2.50575">
        <ele>300.3</ele>
        <time>2020-07-12T09:00:52Z</time>
      </trkpt>
      <trkpt lat="46.46273" lon="2.50584">
        <ele>300.8</ele>
        <time>2020-07-12T09:00:54Z</time>
      </trkpt>
      <trkpt lat="46.4627" lon="2.50592">
        <ele>300.7</ele>
        <time>2020-07-12T09:00:56Z</time>
      </trkpt>
      <trkpt lat="46.46265" lon="2.506">
        <ele>300.4</ele>
        <time>2020-07-12T09:00:58Z</time>
      </trkpt>
      <trkpt lat="46.4626" lon="2.50607">
        <ele>300.7</ele>
        <time>2020-07-12T09:01:00Z</time>
      </trkpt>
      <trkpt lat="46.46254" lon="2.50614">
        <ele>300.9</ele>
        <time>2020-07-12T09:01:02Z</time>
      </trkpt>
      <trkpt lat="46.46248" lon="2.50622">
        <ele>300.8</ele>
        <time>2020-07-12T09:01:04Z</time>
      </trkpt>
      <trkpt lat="46.46243" lon="2.50629">
        <ele>300.4</ele>
        <time>2020-07-12T09:01:06Z</time>
      </trkpt>
      <trkpt lat="46.46236" lon="2.50634">
        <ele>300.4</ele>
        <time>2020-07-12T09:01:08Z</time>
      </trkpt>
      <trkpt lat="46.46228" lon="2.50638">
        <ele>300.8</ele>
        <time>2020-07-12T09:01:10Z</time>
      </trkpt>
      <trkpt lat="46.4622" lon="2.50643">
        <ele>300</ele>
        <time>2020-07-12T09:01:12Z</time>
      </trkpt>
      <trkpt lat="46.46216" lon="2.50646">
        <ele>300.1</ele>
        <time>2020-07-12T09:01:13Z</time>
      </trkpt>
      <trkpt lat="46.46211" lon="2.50648">
        <ele>300.2</ele>
        <time>2020-07-12T09:01:14Z</time>
      </trkpt>
      <trkpt lat="46.46207" lon="2.50651">
        <ele>299.9</ele>
        <time>2020-07-12T09:01:15Z</time>
      </trkpt>
      <trkpt lat="46.46203" lon="2.50655">
        <ele>299.7</ele>
        <time>2020-07-12T09:01:16Z</time>
      </trkpt>
      <trkpt lat="46.46199" lon="2.50659">
        <ele>299.5</ele>
        <time>2020-07-12T09:01:17Z</time>
      </trkpt>
      <trkpt lat="46.46195" lon="2.50664">
        <ele>299.3</ele>
        <time>2020-07-12T09:01:18Z</time>
      </trkpt>
      <trkpt lat="46.46191" lon="2.5067">
        <ele>299.2</ele>
        <time>2020-07-12T09:01:19Z</time>
      </trkpt>
      <trkpt lat="46.46187" lon="2.50676">
        <ele>299.3</ele>
        <time>2020-07-12T09:01:20Z</time>
      </trkpt>
      <trkpt lat="46.46182" lon="2.50681">
        <ele>299.3</ele>
        <time>2020-07-12T09:01:21Z</time>
      </trkpt>
      <trkpt lat="46.46177" lon="2.50686">
        <ele>299</ele>
        <time>2020-07-12T09:01:22Z</time>
      </trkpt>
      <trkpt lat="46.46172" lon="2.50692">
        <ele>298.8</ele>
        <time>2020-07-12T09:01:23Z</time>
      </trkpt>
      <trkpt lat="46.46167" lon="2.50699">
        <ele>298.6</ele>
        <time>2020-07-12T09:01:24Z</time>
      </trkpt>
      <trkpt lat="46.46162" lon="2.50706">
        <ele>298.3</ele>
        <time>2020-07-12T09:01:25Z</time>
      </trkpt>
      <trkpt lat="46.46156" lon="2.50713">
        <ele>298</ele>
        <time>2020-07-12T09:01:26Z</time>
      </trkpt>
      <trkpt lat="46.46151" lon="2.50719">
        <ele>297.2</ele>
        <time>2020-07-12T09:01:27Z</time>
      </trkpt>
      <trkpt lat="46.46144" lon="2.50726">
        <ele>296.7</ele>
        <time>2020-07-12T09:01:28Z</time>
      </trkpt>
      <trkpt lat="46.46138" lon="2.50733">
        <ele>296.2</ele>
        <time>2020-07-12T09:01:29Z</time>
      </trkpt>
      <trkpt lat="46.46131" lon="2.50739">
        <ele>295.8</ele>
        <time>2020-07-12T09:01:30Z</time>
      </trkpt>
      <trkpt lat="46.46124" lon="2.50744">
        <ele>295.5</ele>
        <time>2020-07-12T09:01:31Z</time>
      </trkpt>
      <trkpt lat="46.46116" lon="2.50748">
        <ele>294.6</ele>
        <time>2020-07-12T09:01:32Z</time>
      </trkpt>
      <trkpt lat="46.46108" lon="2.50752">
        <ele>294</ele>
        <time>2020-07-12T09:01:33Z</time>
      </trkpt>
      <trkpt lat="46.461" lon="2.50757">
        <ele>292.8</ele>
        <time>2020-07-12T09:01:34Z</time>
      </trkpt>
      <trkpt lat="46.46091" lon="2.50761">
        <ele>291.9</ele>
        <time>2020-07-12T09:01:35Z</time>
      </trkpt>
      <trkpt lat="46.46082" lon="2.50765">
        <ele>291.2</ele>
        <time>2020-07-12T09:01:36Z</time>
      </trkpt>
      <trkpt lat="46.46072" lon="2.5077">
        <ele>289.9</ele>
        <time>2020-07-12T09:01:37Z</time>
      </trkpt>
      <trkpt lat="46.46062" lon="2.50775">
        <ele>289</ele>
        <time>2020-07-12T09:01:38Z</time>
      </trkpt>
      <trkpt lat="46.46051" lon="2.50781">
        <ele>287.6</ele>
        <time>2020-07-12T09:01:39Z</time>
      </trkpt>
      <trkpt lat="46.4604" lon="2.50786">
        <ele>286.5</ele>
        <time>2020-07-12T09:01:40Z</time>
      </trkpt>
      <trkpt lat="46.46028" lon="2.5079">
        <ele>285.7</ele>
        <time>2020-07-12T09:01:41Z</time>
      </trkpt>
      <trkpt lat="46.46015" lon="2.50794">
        <ele>284.1</ele>
        <time>2020-07-12T09:01:42Z</time>
      </trkpt>
      <trkpt lat="46.46002" lon="2.50797">
        <ele>282.8</ele>
        <time>2020-07-12T09:01:43Z</time>
      </trkpt>
      <trkpt lat="46.45989" lon="2.508">
        <ele>280.9</ele>
        <time>2020-07-12T09:01:44Z</time>
      </trkpt>
      <trkpt lat="46.45976" lon="2.50803">
        <ele>279.5</ele>
        <time>2020-07-12T09:01:45Z</time>
      </trkpt>
      <trkpt lat="46.45963" lon="2.50805">
        <ele>278</ele>
        <time>2020-07-12T09:01:46Z</time>
      </trkpt>
      <trkpt lat="46.45952" lon="2.50807">
        <ele>276.9</ele>
        <time>2020-07-12T09:01:47Z</time>
      </trkpt>
      <trkpt lat="46.45943" lon="2.50808">
        <ele>276</ele>
        <time>2020-07-12T09:01:48Z</time>
      </trkpt>
      <trkpt lat="46.45934" lon="2.50807">
        <ele>274.9</ele>
        <time>2020-07-12T09:01:49Z</time>
      </trkpt>
      <trkpt lat="46.45925" lon="2.50803">
        <ele>274</ele>
        <time>2020-07-12T09:01:50Z</time>
      </trkpt>
      <trkpt lat="46.45918" lon="2.50796">
        <ele>273</ele>
        <time>2020-07-12T09:01:51Z</time>
      </trkpt>
      <trkpt lat="46.45912" lon="2.5079">
        <ele>272.3</ele>
        <time>2020-07-12T09:01:52Z</time>
      </trkpt>
      <trkpt lat="46.45906" lon="2.50784">
        <ele>271.8</ele>
        <time>2020-07-12T09:01:53Z</time>
      </trkpt>
      <trkpt lat="46.459" lon="2.50779">
        <ele>271.4</ele>
        <time>2020-07-12T09:01:54Z</time>
      </trkpt>
      <trkpt lat="46.45894" lon="2.50774">
        <ele>271.1</ele>
        <time>2020-07-12T09:01:55Z</time>
      </trkpt>
      <trkpt lat="46.45889" lon="2.50769">
        <ele>270.8</ele>
        <time>2020-07-12T09:01:56Z</time>
      </trkpt>
      <trkpt lat="46.45884" lon="2.50766">
        <ele>270.6</ele>
        <time>2020-07-12T09:01:57Z</time>
      </trkpt>
      <trkpt lat="46.45879" lon="2.50762">
        <ele>270.6</ele>
        <time>2020-07-12T09:01:58Z</time>
      </trkpt>
      <trkpt lat="46.45874" lon="2.50758">
        <ele>270.6</ele>
        <time>2020-07-12T09:01:59Z</time>
      </trkpt>
      <trkpt lat="46.4587" lon="2.50756">
        <ele>270.6</ele>
        <time>2020-07-12T09:02:00Z</time>
      </trkpt>
      <trkpt lat="46.45862" lon="2.50752">
        <ele>271</ele>
        <time>2020-07-12T09:02:02Z</time>
      </trkpt>
      <trkpt lat="46.45854" lon="2.50751">
        <ele>272.3</ele>
        <time>2020-07-12T09:02:04Z</time>
      </trkpt>
      <trkpt lat="46.45847" lon="2.50749">
        <ele>272.6</ele>
        <time>2020-07-12T09:02:06Z</time>
      </trkpt>
      <trkpt lat="46.45839" lon="2.50749">
        <ele>273</ele>
        <time>2020-07-12T09:02:08Z</time>
      </trkpt>
      <trkpt lat="46.45831" lon="2.50751">
        <ele>272.9</ele>
        <time>2020-07-12T09:02:10Z</time>
      </trkpt>
      <trkpt lat="46.45824" lon="2.50753">
        <ele>273</ele>
        <time>2020-07-12T09:02:12Z</time>
      </trkpt>
      <trkpt lat="46.45816" lon="2.50755">
        <ele>273.7</ele>
        <time>2020-07-12T09:02:14Z</time>
      </trkpt>
      <trkpt lat="46.45808" lon="2.50758">
        <ele>274.3</ele>
        <time>2020-07-12T09:02:16Z</time>
      </trkpt>
      <trkpt lat="46.458" lon="2.50761">
        <ele>273.5</ele>
        <time>2020-07-12T09:02:18Z</time>
      </trkpt>
      <trkpt lat="46.45793" lon="2.50765">
        <ele>273.8</ele>
        <time>2020-07-12T09:02:20Z</time>
      </trkpt>
      <trkpt lat="46.45785" lon="2.50768">
        <ele>273.9</ele>
        <time>2020-07-12T09:02:22Z</time>
      </trkpt>
      <trkpt lat="46.45778" lon="2.50772">
        <ele>274</ele>
        <time>2020-07-12T09:02:24Z</time>
      </trkpt>
      <trkpt lat="46.4577" lon="2.50775">
        <ele>274.2</ele>
        <time>2020-07-12T09:02:26Z</time>
      </trkpt>
      <trkpt lat="46.45766" lon="2.50776">
        <ele>273.9</ele>
        <time>2020-07-12T09:02:27Z</time>
      </trkpt>
      <trkpt lat="46.45754" lon="2.50779">
        <ele>274.3</ele>
        <time>2020-07-12T09:02:30Z</time>
      </trkpt>
      <trkpt lat="46.45746" lon="2.5078">
        <ele>274.9</ele>
        <time>2020-07-12T09:02:32Z</time>
      </trkpt>
      <trkpt lat="46.45739" lon="2.50781">
        <ele>275.2</ele>
        <time>2020-07-12T09:02:34Z</time>
      </trkpt>
      <trkpt lat="46.45731" lon="2.50781">
        <ele>275.4</ele>
        <time>2020-07-12T09:02:36Z</time>
      </trkpt>
      <trkpt lat="46.45723" lon="2.5078">
        <ele>275.5</ele>
        <time>2020-07-12T09:02:38Z</time>
      </trkpt>
      <trkpt lat="46.45715" lon="2.5078">
        <ele>275.8</ele>
        <time>2020-07-12T09:02:40Z</time>
      </trkpt>
      <trkpt lat="46.45708" lon="2.50779">
        <ele>276.6</ele>
        <time>2020-07-12T09:02:42Z</time>
      </trkpt>
      <trkpt lat="46.457" lon="2.50779">
        <ele>276.8</ele>
        <time>2020-07-12T09:02:44Z</time>
      </trkpt>
      <trkpt lat="46.45693" lon="2.50779">
        <ele>276.5</ele>
        <time>2020-07-12T09:02:46Z</time>
      </trkpt>
      <trkpt lat="46.45685" lon="2.50778">
        <ele>276.7</ele>
        <time>2020-07-12T09:02:48Z</time>
      </trkpt>
      <trkpt lat="46.45678" lon="2.50778">
        <ele>277.1</ele>
        <time>2020-07-12T09:02:50Z</time>
      </trkpt>
      <trkpt lat="46.45671" lon="2.50776">
        <ele>277.3</ele>
        <time>2020-07-12T09:02:52Z</time>
      </trkpt>
      <trkpt lat="46.45663" lon="2.50775">
        <ele>277.6</ele>
        <time>2020-07-12T09:02:54Z</time>
      </trkpt>
      <trkpt lat="46.45655" lon="2.50774">
        <ele>278.1</ele>
        <time>2020-07-12T09:02:56Z</time>
      </trkpt>
      <trkpt lat="46.45647" lon="2.50774">
        <ele>279.7</ele>
        <time>2020-07-12T09:02:58Z</time>
      </trkpt>
      <trkpt lat="46.4564" lon="2.50774">
        <ele>280.5</ele>
        <time>2020-07-12T09:03:00Z</time>
      </trkpt>
      <trkpt lat="46.45632" lon="2.50774">
        <ele>280.9</ele>
        <time>2020-07-12T09:03:02Z</time>
      </trkpt>
      <trkpt lat="46.45624" lon="2.50773">
        <ele>281.2</ele>
        <time>2020-07-12T09:03:04Z</time>
      </trkpt>
      <trkpt lat="46.45615" lon="2.50774">
        <ele>280.5</ele>
        <time>2020-07-12T09:03:06Z</time>
      </trkpt>
      <trkpt lat="46.45606" lon="2.50773">
        <ele>280.1</ele>
        <time>2020-07-12T09:03:08Z</time>
      </trkpt>
      <trkpt lat="46.45598" lon="2.50773">
        <ele>280.2</ele>
        <time>2020-07-12T09:03:10Z</time>
      </trkpt>
      <trkpt lat="46.45589" lon="2.50772">
        <ele>280.5</ele>
        <time>2020-07-12T09:03:12Z</time>
      </trkpt>
      <trkpt lat="46.45581" lon="2.50771">
        <ele>280.6</ele>
        <time>2020-07-12T09:03:14Z</time>
      </trkpt>
      <trkpt lat="46.45573" lon="2.5077">
        <ele>280.6</ele>
        <time>2020-07-12T09:03:16Z</time>
      </trkpt>
      <trkpt lat="46.45565" lon="2.50768">
        <ele>280.8</ele>
        <time>2020-07-12T09:03:18Z</time>
      </trkpt>
      <trkpt lat="46.45557" lon="2.50767">
        <ele>281.1</ele>
        <time>2020-07-12T09:03:20Z</time>
      </trkpt>
      <trkpt lat="46.45549" lon="2.50766">
        <ele>280.7</ele>
        <time>2020-07-12T09:03:22Z</time>
      </trkpt>
      <trkpt lat="46.45541" lon="2.50765">
        <ele>280.4</ele>
        <time>2020-07-12T09:03:24Z</time>
      </trkpt>
      <trkpt lat="46.45533" lon="2.50764">
        <ele>280.3</ele>
        <time>2020-07-12T09:03:26Z</time>
      </trkpt>
      <trkpt lat="46.45526" lon="2.50764">
        <ele>279.9</ele>
        <time>2020-07-12T09:03:28Z</time>
      </trkpt>
      <trkpt lat="46.45523" lon="2.50763">
        <ele>279.7</ele>
        <time>2020-07-12T09:03:29Z</time>
      </trkpt>
      <trkpt lat="46.45512" lon="2.50763">
        <ele>280.2</ele>
        <time>2020-07-12T09:03:32Z</time>
      </trkpt>
      <trkpt lat="46.45504" lon="2.50763">
        <ele>281</ele>
        <time>2020-07-12T09:03:34Z</time>
      </trkpt>
      <trkpt lat="46.45495" lon="2.50762">
        <ele>280.6</ele>
        <time>2020-07-12T09:03:36Z</time>
      </trkpt>
      <trkpt lat="46.45491" lon="2.50762">
        <ele>280.5</ele>
        <time>2020-07-12T09:03:37Z</time>
      </trkpt>
      <trkpt lat="46.45486" lon="2.50761">
        <ele>280.4</ele>
        <time>2020-07-12T09:03:38Z</time>
      </trkpt>
      <trkpt lat="46.45481" lon="2.50761">
        <ele>280.4</ele>
        <time>2020-07-12T09:03:39Z</time>
      </trkpt>
      <trkpt lat="46.45476" lon="2.5076">
        <ele>280.3</ele>
        <time>2020-07-12T09:03:40Z</time>
      </trkpt>
      <trkpt lat="46.45471" lon="2.5076">
        <ele>280.2</ele>
        <time>2020-07-12T09:03:41Z</time>
      </trkpt>
      <trkpt lat="46.45466" lon="2.50761">
        <ele>280.3</ele>
        <time>2020-07-12T09:03:42Z</time>
      </trkpt>
      <trkpt lat="46.45461" lon="2.50761">
        <ele>280.3</ele>
        <time>2020-07-12T09:03:43Z</time>
      </trkpt>
      <trkpt lat="46.45456" lon="2.50762">
        <ele>280.4</ele>
        <time>2020-07-12T09:03:44Z</time>
      </trkpt>
      <trkpt lat="46.45451" lon="2.50763">
        <ele>280.4</ele>
        <time>2020-07-12T09:03:45Z</time>
      </trkpt>
      <trkpt lat="46.45446" lon="2.50764">
        <ele>280.3</ele>
        <time>2020-07-12T09:03:46Z</time>
      </trkpt>
      <trkpt lat="46.4544" lon="2.50765">
        <ele>280.3</ele>
        <time>2020-07-12T09:03:47Z</time>
      </trkpt>
      <trkpt lat="46.45435" lon="2.50765">
        <ele>280.3</ele>
        <time>2020-07-12T09:03:48Z</time>
      </trkpt>
      <trkpt lat="46.45429" lon="2.50766">
        <ele>280.3</ele>
        <time>2020-07-12T09:03:49Z</time>
      </trkpt>
      <trkpt lat="46.45423" lon="2.50767">
        <ele>280</ele>
        <time>2020-07-12T09:03:50Z</time>
      </trkpt>
      <trkpt lat="46.45417" lon="2.50767">
        <ele>279.8</ele>
        <time>2020-07-12T09:03:51Z</time>
      </trkpt>
      <trkpt lat="46.45411" lon="2.50768">
        <ele>279.6</ele>
        <time>2020-07-12T09:03:52Z</time>
      </trkpt>
      <trkpt lat="46.45406" lon="2.50769">
        <ele>279.6</ele>
        <time>2020-07-12T09:03:53Z</time>
      </trkpt>
      <trkpt lat="46.454" lon="2.50769">
        <ele>279.6</ele>
        <time>2020-07-12T09:03:54Z</time>
      </trkpt>
      <trkpt lat="46.45395" lon="2.5077">
        <ele>279.6</ele>
        <time>2020-07-12T09:03:55Z</time>
      </trkpt>
      <trkpt lat="46.4539" lon="2.50771">
        <ele>279.6</ele>
        <time>2020-07-12T09:03:56Z</time>
      </trkpt>
      <trkpt lat="46.45385" lon="2.50773">
        <ele>279.3</ele>
        <time>2020-07-12T09:03:57Z</time>
      </trkpt>
      <trkpt lat="46.45379" lon="2.50774">
        <ele>279.1</ele>
        <time>2020-07-12T09:03:58Z</time>
      </trkpt>
      <trkpt lat="46.45374" lon="2.50775">
        <ele>279.2</ele>
        <time>2020-07-12T09:03:59Z</time>
      </trkpt>
      <trkpt lat="46.45369" lon="2.50775">
        <ele>279.4</ele>
        <time>2020-07-12T09:04:00Z</time>
      </trkpt>
      <trkpt lat="46.45364" lon="2.50776">
        <ele>279.8</ele>
        <time>2020-07-12T09:04:01Z</time>
      </trkpt>
      <trkpt lat="46.45358" lon="2.50777">
        <ele>280.2</ele>
        <time>2020-07-12T09:04:02Z</time>
      </trkpt>
      <trkpt lat="46.45352" lon="2.50778">
        <ele>280.5</ele>
        <time>2020-07-12T09:04:03Z</time>
      </trkpt>
      <trkpt lat="46.45347" lon="2.50779">
        <ele>279.9</ele>
        <time>2020-07-12T09:04:04Z</time>
      </trkpt>
      <trkpt lat="46.45342" lon="2.50779">
        <ele>279.5</ele>
        <time>2020-07-12T09:04:05Z</time>
      </trkpt>
      <trkpt lat="46.45336" lon="2.5078">
        <ele>279.3</ele>
        <time>2020-07-12T09:04:06Z</time>
      </trkpt>
      <trkpt lat="46.45331" lon="2.50781">
        <ele>279.1</ele>
        <time>2020-07-12T09:04:07Z</time>
      </trkpt>
      <trkpt lat="46.45325" lon="2.50781">
        <ele>279</ele>
        <time>2020-07-12T09:04:08Z</time>
      </trkpt>
      <trkpt lat="46.4532" lon="2.50782">
        <ele>279</ele>
        <time>2020-07-12T09:04:09Z</time>
      </trkpt>
      <trkpt lat="46.45314" lon="2.50783">
        <ele>279.1</ele>
        <time>2020-07-12T09:04:10Z</time>
      </trkpt>
      <trkpt lat="46.45308" lon="2.50783">
        <ele>278.8</ele>
        <time>2020-07-12T09:04:11Z</time>
      </trkpt>
      <trkpt lat="46.45302" lon="2.50784">
        <ele>278.6</ele>
        <time>2020-07-12T09:04:12Z</time>
      </trkpt>
      <trkpt lat="46.45297" lon="2.50785">
        <ele>278.8</ele>
        <time>2020-07-12T09:04:13Z</time>
      </trkpt>
      <trkpt lat="46.45292" lon="2.50786">
        <ele>279</ele>
        <time>2020-07-12T09:04:14Z</time>
      </trkpt>
      <trkpt lat="46.45286" lon="2.50787">
        <ele>279.1</ele>
        <time>2020-07-12T09:04:15Z</time>
      </trkpt>
      <trkpt lat="46.45281" lon="2.50789">
        <ele>278.7</ele>
        <time>2020-07-12T09:04:16Z</time>
      </trkpt>
      <trkpt lat="46.45276" lon="2.50789">
        <ele>278.4</ele>
        <time>2020-07-12T09:04:17Z</time>
      </trkpt>
      <trkpt lat="46.45271" lon="2.5079">
        <ele>278.2</ele>
        <time>2020-07-12T09:04:18Z</time>
      </trkpt>
      <trkpt lat="46.45265" lon="2.5079">
        <ele>278.1</ele>
        <time>2020-07-12T09:04:19Z</time>
      </trkpt>
      <trkpt lat="46.4526" lon="2.50791">
        <ele>278</ele>
        <time>2020-07-12T09:04:20Z</time>
      </trkpt>
      <trkpt lat="46.45254" lon="2.50791">
        <ele>278</ele>
        <time>2020-07-12T09:04:21Z</time>
      </trkpt>
      <trkpt lat="46.45249" lon="2.5079">
        <ele>277.9</ele>
        <time>2020-07-12T09:04:22Z</time>
      </trkpt>
      <trkpt lat="46.45243" lon="2.50789">
        <ele>278</ele>
        <time>2020-07-12T09:04:23Z</time>
      </trkpt>
      <trkpt lat="46.45238" lon="2.50788">
        <ele>278.1</ele>
        <time>2020-07-12T09:04:24Z</time>
      </trkpt>
      <trkpt lat="46.45232" lon="2.50787">
        <ele>278.4</ele>
        <time>2020-07-12T09:04:25Z</time>
      </trkpt>
      <trkpt lat="46.45227" lon="2.50786">
        <ele>278.6</ele>
        <time>2020-07-12T09:04:26Z</time>
      </trkpt>
      <trkpt lat="46.45222" lon="2.50784">
        <ele>278.8</ele>
        <time>2020-07-12T09:04:27Z</time>
      </trkpt>
      <trkpt lat="46.45217" lon="2.50782">
        <ele>278.3</ele>
        <time>2020-07-12T09:04:28Z</time>
      </trkpt>
      <trkpt lat="46.45212" lon="2.5078">
        <ele>277.9</ele>
        <time>2020-07-12T09:04:29Z</time>
      </trkpt>
      <trkpt lat="46.45206" lon="2.50779">
        <ele>277.9</ele>
        <time>2020-07-12T09:04:30Z</time>
      </trkpt>
      <trkpt lat="46.45201" lon="2.50776">
        <ele>277.9</ele>
        <time>2020-07-12T09:04:31Z</time>
      </trkpt>
      <trkpt lat="46.45196" lon="2.50774">
        <ele>278.1</ele>
        <time>2020-07-12T09:04:32Z</time>
      </trkpt>
      <trkpt lat="46.45191" lon="2.50772">
        <ele>278.2</ele>
        <time>2020-07-12T09:04:33Z</time>
      </trkpt>
      <trkpt lat="46.45185" lon="2.5077">
        <ele>278.3</ele>
        <time>2020-07-12T09:04:34Z</time>
      </trkpt>
      <trkpt lat="46.45179" lon="2.50768">
        <ele>277.6</ele>
        <time>2020-07-12T09:04:35Z</time>
      </trkpt>
      <trkpt lat="46.45173" lon="2.50766">
        <ele>277</ele>
        <time>2020-07-12T09:04:36Z</time>
      </trkpt>
      <trkpt lat="46.45168" lon="2.50765">
        <ele>276.7</ele>
        <time>2020-07-12T09:04:37Z</time>
      </trkpt>
      <trkpt lat="46.45162" lon="2.50763">
        <ele>276.5</ele>
        <time>2020-07-12T09:04:38Z</time>
      </trkpt>
      <trkpt lat="46.45156" lon="2.50762">
        <ele>276.4</ele>
        <time>2020-07-12T09:04:39Z</time>
      </trkpt>
      <trkpt lat="46.45149" lon="2.5076">
        <ele>275.9</ele>
        <time>2020-07-12T09:04:40Z</time>
      </trkpt>
      <trkpt lat="46.45143" lon="2.50758">
        <ele>275.6</ele>
        <time>2020-07-12T09:04:41Z</time>
      </trkpt>
      <trkpt lat="46.45137" lon="2.50755">
        <ele>275.4</ele>
        <time>2020-07-12T09:04:42Z</time>
      </trkpt>
      <trkpt lat="46.45132" lon="2.5075">
        <ele>275.2</ele>
        <time>2020-07-12T09:04:43Z</time>
      </trkpt>
      <trkpt lat="46.45129" lon="2.50745">
        <ele>275.5</ele>
        <time>2020-07-12T09:04:44Z</time>
      </trkpt>
      <trkpt lat="46.45125" lon="2.5074">
        <ele>275.8</ele>
        <time>2020-07-12T09:04:45Z</time>
      </trkpt>
      <trkpt lat="46.45121" lon="2.50734">
        <ele>275.9</ele>
        <time>2020-07-12T09:04:46Z</time>
      </trkpt>
      <trkpt lat="46.45117" lon="2.50729">
        <ele>275.6</ele>
        <time>2020-07-12T09:04:47Z</time>
      </trkpt>
      <trkpt lat="46.45113" lon="2.50723">
        <ele>275.3</ele>
        <time>2020-07-12T09:04:48Z</time>
      </trkpt>
      <trkpt lat="46.45109" lon="2.50717">
        <ele>275.2</ele>
        <time>2020-07-12T09:04:49Z</time>
      </trkpt>
      <trkpt lat="46.45105" lon="2.50712">
        <ele>275.1</ele>
        <time>2020-07-12T09:04:50Z</time>
      </trkpt>
      <trkpt lat="46.45101" lon="2.50709">
        <ele>275.1</ele>
        <time>2020-07-12T09:04:51Z</time>
      </trkpt>
      <trkpt lat="46.45096" lon="2.50705">
        <ele>275</ele>
        <time>2020-07-12T09:04:52Z</time>
      </trkpt>
      <trkpt lat="46.45092" lon="2.50702">
        <ele>275</ele>
        <time>2020-07-12T09:04:53Z</time>
      </trkpt>
      <trkpt lat="46.45085" lon="2.50695">
        <ele>274.9</ele>
        <time>2020-07-12T09:04:55Z</time>
      </trkpt>
      <trkpt lat="46.45077" lon="2.50689">
        <ele>275.1</ele>
        <time>2020-07-12T09:04:57Z</time>
      </trkpt>
      <trkpt lat="46.45073" lon="2.50685">
        <ele>274.9</ele>
        <time>2020-07-12T09:04:58Z</time>
      </trkpt>
      <trkpt lat="46.45069" lon="2.50682">
        <ele>274.8</ele>
        <time>2020-07-12T09:04:59Z</time>
      </trkpt>
      <trkpt lat="46.45065" lon="2.50679">
        <ele>274.7</ele>
        <time>2020-07-12T09:05:00Z</time>
      </trkpt>
      <trkpt lat="46.4506" lon="2.50675">
        <ele>274.7</ele>
        <time>2020-07-12T09:05:01Z</time>
      </trkpt>
      <trkpt lat="46.45056" lon="2.50671">
        <ele>274.6</ele>
        <time>2020-07-12T09:05:02Z</time>
      </trkpt>
      <trkpt lat="46.45052" lon="2.50667">
        <ele>274.4</ele>
        <time>2020-07-12T09:05:03Z</time>
      </trkpt>
      <trkpt lat="46.45044" lon="2.50662">
        <ele>274</ele>
        <time>2020-07-12T09:05:05Z</time>
      </trkpt>
      <trkpt lat="46.45039" lon="2.5066">
        <ele>274.2</ele>
        <time>2020-07-12T09:05:06Z</time>
      </trkpt>
      <trkpt lat="46.4503" lon="2.50659">
        <ele>274</ele>
        <time>2020-07-12T09:05:08Z</time>
      </trkpt>
      <trkpt lat="46.45026" lon="2.50658">
        <ele>273.7</ele>
        <time>2020-07-12T09:05:09Z</time>
      </trkpt>
      <trkpt lat="46.45017" lon="2.50657">
        <ele>274</ele>
        <time>2020-07-12T09:05:11Z</time>
      </trkpt>
      <trkpt lat="46.4501" lon="2.50656">
        <ele>274.4</ele>
        <time>2020-07-12T09:05:13Z</time>
      </trkpt>
      <trkpt lat="46.45002" lon="2.50655">
        <ele>275</ele>
        <time>2020-07-12T09:05:15Z</time>
      </trkpt>
      <trkpt lat="46.44995" lon="2.50655">
        <ele>275.6</ele>
        <time>2020-07-12T09:05:17Z</time>
      </trkpt>
      <trkpt lat="46.44987" lon="2.50655">
        <ele>275.9</ele>
        <time>2020-07-12T09:05:19Z</time>
      </trkpt>
      <trkpt lat="46.4498" lon="2.50655">
        <ele>276.1</ele>
        <time>2020-07-12T09:05:21Z</time>
      </trkpt>
      <trkpt lat="46.44972" lon="2.50654">
        <ele>276.3</ele>
        <time>2020-07-12T09:05:23Z</time>
      </trkpt>
      <trkpt lat="46.44963" lon="2.50653">
        <ele>276.4</ele>
        <time>2020-07-12T09:05:25Z</time>
      </trkpt>
      <trkpt lat="46.44955" lon="2.50653">
        <ele>276.6</ele>
        <time>2020-07-12T09:05:27Z</time>
      </trkpt>
      <trkpt lat="46.44946" lon="2.50653">
        <ele>276.8</ele>
        <time>2020-07-12T09:05:29Z</time>
      </trkpt>
      <trkpt lat="46.44938" lon="2.50652">
        <ele>276.9</ele>
        <time>2020-07-12T09:05:31Z</time>
      </trkpt>
      <trkpt lat="46.44935" lon="2.50652">
        <ele>277</ele>
        <time>2020-07-12T09:05:32Z</time>
      </trkpt>
      <trkpt lat="46.44923" lon="2.50652">
        <ele>278.1</ele>
        <time>2020-07-12T09:05:35Z</time>
      </trkpt>
      <trkpt lat="46.44915" lon="2.50651">
        <ele>278.5</ele>
        <time>2020-07-12T09:05:37Z</time>
      </trkpt>
      <trkpt lat="46.44908" lon="2.5065">
        <ele>279.2</ele>
        <time>2020-07-12T09:05:39Z</time>
      </trkpt>
      <trkpt lat="46.44901" lon="2.50651">
        <ele>279.7</ele>
        <time>2020-07-12T09:05:41Z</time>
      </trkpt>
      <trkpt lat="46.44895" lon="2.5065">
        <ele>279.9</ele>
        <time>2020-07-12T09:05:43Z</time>
      </trkpt>
      <trkpt lat="46.44889" lon="2.50649">
        <ele>280.7</ele>
        <time>2020-07-12T09:05:45Z</time>
      </trkpt>
      <trkpt lat="46.44883" lon="2.50649">
        <ele>281.4</ele>
        <time>2020-07-12T09:05:47Z</time>
      </trkpt>
      <trkpt lat="46.44876" lon="2.50649">
        <ele>281.1</ele>
        <time>2020-07-12T09:05:49Z</time>
      </trkpt>
      <trkpt lat="46.4487" lon="2.50649">
        <ele>281.8</ele>
        <time>2020-07-12T09:05:51Z</time>
      </trkpt>
      <trkpt lat="46.44864" lon="2.50647">
        <ele>282.7</ele>
        <time>2020-07-12T09:05:53Z</time>
      </trkpt>
      <trkpt lat="46.44857" lon="2.50647">
        <ele>283</ele>
        <time>2020-07-12T09:05:55Z</time>
      </trkpt>
      <trkpt lat="46.4485" lon="2.50647">
        <ele>283.2</ele>
        <time>2020-07-12T09:05:57Z</time>
      </trkpt>
      <trkpt lat="46.44843" lon="2.50646">
        <ele>284.3</ele>
        <time>2020-07-12T09:05:59Z</time>
      </trkpt>
      <trkpt lat="46.44836" lon="2.50645">
        <ele>284.4</ele>
        <time>2020-07-12T09:06:01Z</time>
      </trkpt>
      <trkpt lat="46.44829" lon="2.50643">
        <ele>284.8</ele>
        <time>2020-07-12T09:06:03Z</time>
      </trkpt>
      <trkpt lat="46.44823" lon="2.50642">
        <ele>285.1</ele>
        <time>2020-07-12T09:06:05Z</time>
      </trkpt>
      <trkpt lat="46.44816" lon="2.5064">
        <ele>285.5</ele>
        <time>2020-07-12T09:06:07Z</time>
      </trkpt>
      <trkpt lat="46.44809" lon="2.50638">
        <ele>285.9</ele>
        <time>2020-07-12T09:06:09Z</time>
      </trkpt>
      <trkpt lat="46.44802" lon="2.50635">
        <ele>286.2</ele>
        <time>2020-07-12T09:06:11Z</time>
      </trkpt>
      <trkpt lat="46.44795" lon="2.50634">
        <ele>286.1</ele>
        <time>2020-07-12T09:06:13Z</time>
      </trkpt>
      <trkpt lat="46.44787" lon="2.50632">
        <ele>285.9</ele>
        <time>2020-07-12T09:06:15Z</time>
      </trkpt>
      <trkpt lat="46.4478" lon="2.5063">
        <ele>285.8</ele>
        <time>2020-07-12T09:06:17Z</time>
      </trkpt>
      <trkpt lat="46.44772" lon="2.50628">
        <ele>286.3</ele>
        <time>2020-07-12T09:06:19Z</time>
      </trkpt>
      <trkpt lat="46.44764" lon="2.50625">
        <ele>287</ele>
        <time>2020-07-12T09:06:21Z</time>
      </trkpt>
      <trkpt lat="46.44756" lon="2.50623">
        <ele>286.9</ele>
        <time>2020-07-12T09:06:23Z</time>
      </trkpt>
      <trkpt lat="46.44748" lon="2.5062">
        <ele>287.4</ele>
        <time>2020-07-12T09:06:25Z</time>
      </trkpt>
      <trkpt lat="46.44743" lon="2.50618">
        <ele>287.2</ele>
        <time>2020-07-12T09:06:26Z</time>
      </trkpt>
      <trkpt lat="46.44738" lon="2.50617">
        <ele>287</ele>
        <time>2020-07-12T09:06:27Z</time>
      </trkpt>
      <trkpt lat="46.44734" lon="2.50615">
        <ele>286.9</ele>
        <time>2020-07-12T09:06:28Z</time>
      </trkpt>
      <trkpt lat="46.44729" lon="2.50613">
        <ele>286.9</ele>
        <time>2020-07-12T09:06:29Z</time>
      </trkpt>
      <trkpt lat="46.44724" lon="2.50611">
        <ele>286.9</ele>
        <time>2020-07-12T09:06:30Z</time>
      </trkpt>
      <trkpt lat="46.44718" lon="2.50609">
        <ele>286.8</ele>
        <time>2020-07-12T09:06:31Z</time>
      </trkpt>
      <trkpt lat="46.44712" lon="2.50607">
        <ele>286.6</ele>
        <time>2020-07-12T09:06:32Z</time>
      </trkpt>
      <trkpt lat="46.44706" lon="2.50605">
        <ele>286.7</ele>
        <time>2020-07-12T09:06:33Z</time>
      </trkpt>
      <trkpt lat="46.447" lon="2.50602">
        <ele>286.7</ele>
        <time>2020-07-12T09:06:34Z</time>
      </trkpt>
      <trkpt lat="46.44694" lon="2.506">
        <ele>286.7</ele>
        <time>2020-07-12T09:06:35Z</time>
      </trkpt>
      <trkpt lat="46.44688" lon="2.50597">
        <ele>286.8</ele>
        <time>2020-07-12T09:06:36Z</time>
      </trkpt>
      <trkpt lat="46.44682" lon="2.50595">
        <ele>286.8</ele>
        <time>2020-07-12T09:06:37Z</time>
      </trkpt>
      <trkpt lat="46.44676" lon="2.50593">
        <ele>286.7</ele>
        <time>2020-07-12T09:06:38Z</time>
      </trkpt>
      <trkpt lat="46.4467" lon="2.5059">
        <ele>286.5</ele>
        <time>2020-07-12T09:06:39Z</time>
      </trkpt>
      <trkpt lat="46.44664" lon="2.50587">
        <ele>286.4</ele>
        <time>2020-07-12T09:06:40Z</time>
      </trkpt>
      <trkpt lat="46.44658" lon="2.50585">
        <ele>286.3</ele>
        <time>2020-07-12T09:06:41Z</time>
      </trkpt>
      <trkpt lat="46.44652" lon="2.50583">
        <ele>286.2</ele>
        <time>2020-07-12T09:06:42Z</time>
      </trkpt>
      <trkpt lat="46.44647" lon="2.5058">
        <ele>285.8</ele>
        <time>2020-07-12T09:06:43Z</time>
      </trkpt>
      <trkpt lat="46.44642" lon="2.50578">
        <ele>285.5</ele>
        <time>2020-07-12T09:06:44Z</time>
      </trkpt>
      <trkpt lat="46.44637" lon="2.50576">
        <ele>285.2</ele>
        <time>2020-07-12T09:06:45Z</time>
      </trkpt>
      <trkpt lat="46.44631" lon="2.50574">
        <ele>285</ele>
        <time>2020-07-12T09:06:46Z</time>
      </trkpt>
      <trkpt lat="46.44626" lon="2.50572">
        <ele>284.8</ele>
        <time>2020-07-12T09:06:47Z</time>
      </trkpt>
      <trkpt lat="46.44621" lon="2.5057">
        <ele>284.7</ele>
        <time>2020-07-12T09:06:48Z</time>
      </trkpt>
      <trkpt lat="46.44615" lon="2.50567">
        <ele>284.6</ele>
        <time>2020-07-12T09:06:49Z</time>
      </trkpt>
      <trkpt lat="46.44611" lon="2.50565">
        <ele>284.7</ele>
        <time>2020-07-12T09:06:50Z</time>
      </trkpt>
      <trkpt lat="46.44603" lon="2.50562">
        <ele>284.6</ele>
        <time>2020-07-12T09:06:52Z</time>
      </trkpt>
      <trkpt lat="46.44595" lon="2.50558">
        <ele>284.4</ele>
        <time>2020-07-12T09:06:54Z</time>
      </trkpt>
      <trkpt lat="46.4459" lon="2.50557">
        <ele>284.1</ele>
        <time>2020-07-12T09:06:55Z</time>
      </trkpt>
      <trkpt lat="46.44585" lon="2.50556">
        <ele>283.8</ele>
        <time>2020-07-12T09:06:56Z</time>
      </trkpt>
      <trkpt lat="46.4458" lon="2.50556">
        <ele>283.8</ele>
        <time>2020-07-12T09:06:57Z</time>
      </trkpt>
      <trkpt lat="46.44575" lon="2.50556">
        <ele>283.9</ele>
        <time>2020-07-12T09:06:58Z</time>
      </trkpt>
      <trkpt lat="46.4457" lon="2.50556">
        <ele>283.9</ele>
        <time>2020-07-12T09:06:59Z</time>
      </trkpt>
      <trkpt lat="46.44564" lon="2.50556">
        <ele>284</ele>
        <time>2020-07-12T09:07:00Z</time>
      </trkpt>
      <trkpt lat="46.44559" lon="2.50556">
        <ele>284.1</ele>
        <time>2020-07-12T09:07:01Z</time>
      </trkpt>
      <trkpt lat="46.44553" lon="2.50556">
        <ele>284.5</ele>
        <time>2020-07-12T09:07:02Z</time>
      </trkpt>
      <trkpt lat="46.44548" lon="2.50556">
        <ele>284.9</ele>
        <time>2020-07-12T09:07:03Z</time>
      </trkpt>
      <trkpt lat="46.44542" lon="2.50557">
        <ele>284.8</ele>
        <time>2020-07-12T09:07:04Z</time>
      </trkpt>
      <trkpt lat="46.44536" lon="2.50556">
        <ele>284.8</ele>
        <time>2020-07-12T09:07:05Z</time>
      </trkpt>
      <trkpt lat="46.4453" lon="2.50556">
        <ele>284.8</ele>
        <time>2020-07-12T09:07:06Z</time>
      </trkpt>
      <trkpt lat="46.44524" lon="2.50555">
        <ele>284.3</ele>
        <time>2020-07-12T09:07:07Z</time>
      </trkpt>
      <trkpt lat="46.44518" lon="2.50554">
        <ele>284</ele>
        <time>2020-07-12T09:07:08Z</time>
      </trkpt>
      <trkpt lat="46.44512" lon="2.50554">
        <ele>284</ele>
        <time>2020-07-12T09:07:09Z</time>
      </trkpt>
      <trkpt lat="46.44507" lon="2.50553">
        <ele>284</ele>
        <time>2020-07-12T09:07:10Z</time>
      </trkpt>
      <trkpt lat="46.44501" lon="2.50553">
        <ele>283.9</ele>
        <time>2020-07-12T09:07:11Z</time>
      </trkpt>
      <trkpt lat="46.44495" lon="2.50553">
        <ele>283.8</ele>
        <time>2020-07-12T09:07:12Z</time>
      </trkpt>
      <trkpt lat="46.4449" lon="2.50553">
        <ele>283.8</ele>
        <time>2020-07-12T09:07:13Z</time>
      </trkpt>
      <trkpt lat="46.44484" lon="2.50553">
        <ele>283.7</ele>
        <time>2020-07-12T09:07:14Z</time>
      </trkpt>
      <trkpt lat="46.44479" lon="2.50553">
        <ele>283.6</ele>
        <time>2020-07-12T09:07:15Z</time>
      </trkpt>
      <trkpt lat="46.44474" lon="2.50552">
        <ele>283.7</ele>
        <time>2020-07-12T09:07:16Z</time>
      </trkpt>
      <trkpt lat="46.44468" lon="2.50552">
        <ele>283.8</ele>
        <time>2020-07-12T09:07:17Z</time>
      </trkpt>
      <trkpt lat="46.44463" lon="2.50551">
        <ele>283.9</ele>
        <time>2020-07-12T09:07:18Z</time>
      </trkpt>
      <trkpt lat="46.44457" lon="2.50549">
        <ele>283.3</ele>
        <time>2020-07-12T09:07:19Z</time>
      </trkpt>
      <trkpt lat="46.44451" lon="2.50548">
        <ele>282.9</ele>
        <time>2020-07-12T09:07:20Z</time>
      </trkpt>
      <trkpt lat="46.44445" lon="2.50547">
        <ele>282.8</ele>
        <time>2020-07-12T09:07:21Z</time>
      </trkpt>
      <trkpt lat="46.44439" lon="2.50547">
        <ele>282.8</ele>
        <time>2020-07-12T09:07:22Z</time>
      </trkpt>
      <trkpt lat="46.44433" lon="2.50547">
        <ele>282.4</ele>
        <time>2020-07-12T09:07:23Z</time>
      </trkpt>
      <trkpt lat="46.44428" lon="2.50547">
        <ele>282.1</ele>
        <time>2020-07-12T09:07:24Z</time>
      </trkpt>
      <trkpt lat="46.44422" lon="2.50548">
        <ele>281.9</ele>
        <time>2020-07-12T09:07:25Z</time>
      </trkpt>
      <trkpt lat="46.44416" lon="2.50548">
        <ele>282.1</ele>
        <time>2020-07-12T09:07:26Z</time>
      </trkpt>
      <trkpt lat="46.44411" lon="2.50549">
        <ele>282.2</ele>
        <time>2020-07-12T09:07:27Z</time>
      </trkpt>
      <trkpt lat="46.44405" lon="2.5055">
        <ele>282.1</ele>
        <time>2020-07-12T09:07:28Z</time>
      </trkpt>
      <trkpt lat="46.44397" lon="2.50552">
        <ele>282.1</ele>
        <time>2020-07-12T09:07:29Z</time>
      </trkpt>
      <trkpt lat="46.44392" lon="2.50553">
        <ele>281.8</ele>
        <time>2020-07-12T09:07:30Z</time>
      </trkpt>
      <trkpt lat="46.44386" lon="2.50556">
        <ele>281.5</ele>
        <time>2020-07-12T09:07:31Z</time>
      </trkpt>
      <trkpt lat="46.44381" lon="2.50558">
        <ele>281.3</ele>
        <time>2020-07-12T09:07:32Z</time>
      </trkpt>
      <trkpt lat="46.44376" lon="2.50561">
        <ele>281.3</ele>
        <time>2020-07-12T09:07:33Z</time>
      </trkpt>
      <trkpt lat="46.44371" lon="2.50564">
        <ele>281.2</ele>
        <time>2020-07-12T09:07:34Z</time>
      </trkpt>
      <trkpt lat="46.44366" lon="2.50566">
        <ele>281.7</ele>
        <time>2020-07-12T09:07:35Z</time>
      </trkpt>
      <trkpt lat="46.4436" lon="2.50567">
        <ele>282.1</ele>
        <time>2020-07-12T09:07:36Z</time>
      </trkpt>
      <trkpt lat="46.44356" lon="2.50569">
        <ele>282.4</ele>
        <time>2020-07-12T09:07:37Z</time>
      </trkpt>
      <trkpt lat="46.44351" lon="2.50571">
        <ele>282.5</ele>
        <time>2020-07-12T09:07:38Z</time>
      </trkpt>
      <trkpt lat="46.44342" lon="2.50573">
        <ele>282.7</ele>
        <time>2020-07-12T09:07:40Z</time>
      </trkpt>
      <trkpt lat="46.44335" lon="2.50574">
        <ele>282.6</ele>
        <time>2020-07-12T09:07:42Z</time>
      </trkpt>
      <trkpt lat="46.44327" lon="2.50576">
        <ele>282.5</ele>
        <time>2020-07-12T09:07:44Z</time>
      </trkpt>
      <trkpt lat="46.44319" lon="2.50578">
        <ele>282</ele>
        <time>2020-07-12T09:07:46Z</time>
      </trkpt>
      <trkpt lat="46.44311" lon="2.50578">
        <ele>282</ele>
        <time>2020-07-12T09:07:48Z</time>
      </trkpt>
      <trkpt lat="46.44302" lon="2.50578">
        <ele>283</ele>
        <time>2020-07-12T09:07:50Z</time>
      </trkpt>
      <trkpt lat="46.44294" lon="2.50577">
        <ele>283.6</ele>
        <time>2020-07-12T09:07:52Z</time>
      </trkpt>
      <trkpt lat="46.44286" lon="2.50576">
        <ele>283.6</ele>
        <time>2020-07-12T09:07:54Z</time>
      </trkpt>
      <trkpt lat="46.44278" lon="2.50576">
        <ele>283.9</ele>
        <time>2020-07-12T09:07:56Z</time>
      </trkpt>
      <trkpt lat="46.44269" lon="2.50576">
        <ele>284.5</ele>
        <time>2020-07-12T09:07:58Z</time>
      </trkpt>
      <trkpt lat="46.44262" lon="2.50576">
        <ele>284.4</ele>
        <time>2020-07-12T09:08:00Z</time>
      </trkpt>
      <trkpt lat="46.44253" lon="2.50575">
        <ele>284.5</ele>
        <time>2020-07-12T09:08:02Z</time>
      </trkpt>
      <trkpt lat="46.44245" lon="2.50575">
        <ele>284.9</ele>
        <time>2020-07-12T09:08:04Z</time>
      </trkpt>
      <trkpt lat="46.44236" lon="2.50575">
        <ele>285.2</ele>
        <time>2020-07-12T09:08:06Z</time>
      </trkpt>
      <trkpt lat="46.44227" lon="2.50576">
        <ele>285.6</ele>
        <time>2020-07-12T09:08:08Z</time>
      </trkpt>
      <trkpt lat="46.44223" lon="2.50576">
        <ele>286</ele>
        <time>2020-07-12T09:08:09Z</time>
      </trkpt>
      <trkpt lat="46.44218" lon="2.50576">
        <ele>286.2</ele>
        <time>2020-07-12T09:08:10Z</time>
      </trkpt>
      <trkpt lat="46.44214" lon="2.50576">
        <ele>286.3</ele>
        <time>2020-07-12T09:08:11Z</time>
      </trkpt>
      <trkpt lat="46.44205" lon="2.50576">
        <ele>286.1</ele>
        <time>2020-07-12T09:08:13Z</time>
      </trkpt>
      <trkpt lat="46.44201" lon="2.50575">
        <ele>285.8</ele>
        <time>2020-07-12T09:08:14Z</time>
      </trkpt>
      <trkpt lat="46.44196" lon="2.50575">
        <ele>285.5</ele>
        <time>2020-07-12T09:08:15Z</time>
      </trkpt>
      <trkpt lat="46.44192" lon="2.50575">
        <ele>285.2</ele>
        <time>2020-07-12T09:08:16Z</time>
      </trkpt>
      <trkpt lat="46.44187" lon="2.50575">
        <ele>285</ele>
        <time>2020-07-12T09:08:17Z</time>
      </trkpt>
      <trkpt lat="46.44182" lon="2.50574">
        <ele>285.3</ele>
        <time>2020-07-12T09:08:18Z</time>
      </trkpt>
      <trkpt lat="46.44177" lon="2.50574">
        <ele>285.5</ele>
        <time>2020-07-12T09:08:19Z</time>
      </trkpt>
      <trkpt lat="46.44173" lon="2.50573">
        <ele>285.2</ele>
        <time>2020-07-12T09:08:20Z</time>
      </trkpt>
      <trkpt lat="46.44168" lon="2.50573">
        <ele>284.9</ele>
        <time>2020-07-12T09:08:21Z</time>
      </trkpt>
      <trkpt lat="46.44163" lon="2.50573">
        <ele>284.7</ele>
        <time>2020-07-12T09:08:22Z</time>
      </trkpt>
      <trkpt lat="46.44159" lon="2.50573">
        <ele>284.8</ele>
        <time>2020-07-12T09:08:23Z</time>
      </trkpt>
      <trkpt lat="46.44154" lon="2.50572">
        <ele>284.9</ele>
        <time>2020-07-12T09:08:24Z</time>
      </trkpt>
      <trkpt lat="46.4415" lon="2.50571">
        <ele>285.2</ele>
        <time>2020-07-12T09:08:25Z</time>
      </trkpt>
      <trkpt lat="46.44145" lon="2.50571">
        <ele>285.4</ele>
        <time>2020-07-12T09:08:26Z</time>
      </trkpt>
      <trkpt lat="46.4414" lon="2.5057">
        <ele>285.1</ele>
        <time>2020-07-12T09:08:27Z</time>
      </trkpt>
      <trkpt lat="46.44135" lon="2.50569">
        <ele>284.8</ele>
        <time>2020-07-12T09:08:28Z</time>
      </trkpt>
      <trkpt lat="46.4413" lon="2.50569">
        <ele>284.7</ele>
        <time>2020-07-12T09:08:29Z</time>
      </trkpt>
      <trkpt lat="46.44125" lon="2.50568">
        <ele>284.6</ele>
        <time>2020-07-12T09:08:30Z</time>
      </trkpt>
      <trkpt lat="46.4412" lon="2.50567">
        <ele>284.5</ele>
        <time>2020-07-12T09:08:31Z</time>
      </trkpt>
      <trkpt lat="46.44114" lon="2.50565">
        <ele>284.2</ele>
        <time>2020-07-12T09:08:32Z</time>
      </trkpt>
      <trkpt lat="46.44109" lon="2.50564">
        <ele>284</ele>
        <time>2020-07-12T09:08:33Z</time>
      </trkpt>
      <trkpt lat="46.44104" lon="2.50563">
        <ele>283.5</ele>
        <time>2020-07-12T09:08:34Z</time>
      </trkpt>
      <trkpt lat="46.44099" lon="2.50561">
        <ele>283.1</ele>
        <time>2020-07-12T09:08:35Z</time>
      </trkpt>
      <trkpt lat="46.44094" lon="2.5056">
        <ele>282.8</ele>
        <time>2020-07-12T09:08:36Z</time>
      </trkpt>
      <trkpt lat="46.44089" lon="2.50558">
        <ele>282.7</ele>
        <time>2020-07-12T09:08:37Z</time>
      </trkpt>
      <trkpt lat="46.44084" lon="2.50557">
        <ele>282.6</ele>
        <time>2020-07-12T09:08:38Z</time>
      </trkpt>
      <trkpt lat="46.44079" lon="2.50555">
        <ele>282.5</ele>
        <time>2020-07-12T09:08:39Z</time>
      </trkpt>
      <trkpt lat="46.44074" lon="2.50554">
        <ele>282.4</ele>
        <time>2020-07-12T09:08:40Z</time>
      </trkpt>
      <trkpt lat="46.44069" lon="2.50553">
        <ele>282.3</ele>
        <time>2020-07-12T09:08:41Z</time>
      </trkpt>
      <trkpt lat="46.44064" lon="2.50551">
        <ele>281.9</ele>
        <time>2020-07-12T09:08:42Z</time>
      </trkpt>
      <trkpt lat="46.44059" lon="2.5055">
        <ele>281.6</ele>
        <time>2020-07-12T09:08:43Z</time>
      </trkpt>
      <trkpt lat="46.44054" lon="2.50548">
        <ele>281.6</ele>
        <time>2020-07-12T09:08:44Z</time>
      </trkpt>
      <trkpt lat="46.44049" lon="2.50547">
        <ele>281.6</ele>
        <time>2020-07-12T09:08:45Z</time>
      </trkpt>
      <trkpt lat="46.44044" lon="2.50546">
        <ele>281.8</ele>
        <time>2020-07-12T09:08:46Z</time>
      </trkpt>
      <trkpt lat="46.44039" lon="2.50544">
        <ele>281.9</ele>
        <time>2020-07-12T09:08:47Z</time>
      </trkpt>
      <trkpt lat="46.44034" lon="2.50543">
        <ele>282</ele>
        <time>2020-07-12T09:08:48Z</time>
      </trkpt>
      <trkpt lat="46.44029" lon="2.50541">
        <ele>281.8</ele>
        <time>2020-07-12T09:08:49Z</time>
      </trkpt>
      <trkpt lat="46.44024" lon="2.5054">
        <ele>281.6</ele>
        <time>2020-07-12T09:08:50Z</time>
      </trkpt>
      <trkpt lat="46.4402" lon="2.50539">
        <ele>281.4</ele>
        <time>2020-07-12T09:08:51Z</time>
      </trkpt>
      <trkpt lat="46.44015" lon="2.50537">
        <ele>281.3</ele>
        <time>2020-07-12T09:08:52Z</time>
      </trkpt>
      <trkpt lat="46.4401" lon="2.50536">
        <ele>281.4</ele>
        <time>2020-07-12T09:08:53Z</time>
      </trkpt>
      <trkpt lat="46.44005" lon="2.50534">
        <ele>281.5</ele>
        <time>2020-07-12T09:08:54Z</time>
      </trkpt>
      <trkpt lat="46.44001" lon="2.50532">
        <ele>281.6</ele>
        <time>2020-07-12T09:08:55Z</time>
      </trkpt>
      <trkpt lat="46.43996" lon="2.50531">
        <ele>281.1</ele>
        <time>2020-07-12T09:08:56Z</time>
      </trkpt>
      <trkpt lat="46.43991" lon="2.50529">
        <ele>280.8</ele>
        <time>2020-07-12T09:08:57Z</time>
      </trkpt>
      <trkpt lat="46.43986" lon="2.50527">
        <ele>280.4</ele>
        <time>2020-07-12T09:08:58Z</time>
      </trkpt>
      <trkpt lat="46.43981" lon="2.50526">
        <ele>280.1</ele>
        <time>2020-07-12T09:08:59Z</time>
      </trkpt>
      <trkpt lat="46.43976" lon="2.50525">
        <ele>279.9</ele>
        <time>2020-07-12T09:09:00Z</time>
      </trkpt>
      <trkpt lat="46.43972" lon="2.50524">
        <ele>279.9</ele>
        <time>2020-07-12T09:09:01Z</time>
      </trkpt>
      <trkpt lat="46.43967" lon="2.50523">
        <ele>279.9</ele>
        <time>2020-07-12T09:09:02Z</time>
      </trkpt>
      <trkpt lat="46.43958" lon="2.50522">
        <ele>280.2</ele>
        <time>2020-07-12T09:09:04Z</time>
      </trkpt>
      <trkpt lat="46.43954" lon="2.50521">
        <ele>279.9</ele>
        <time>2020-07-12T09:09:05Z</time>
      </trkpt>
      <trkpt lat="46.43949" lon="2.50521">
        <ele>279.6</ele>
        <time>2020-07-12T09:09:06Z</time>
      </trkpt>
      <trkpt lat="46.43945" lon="2.5052">
        <ele>279.4</ele>
        <time>2020-07-12T09:09:07Z</time>
      </trkpt>
      <trkpt lat="46.4394" lon="2.5052">
        <ele>280.3</ele>
        <time>2020-07-12T09:09:08Z</time>
      </trkpt>
      <trkpt lat="46.43931" lon="2.50519">
        <ele>281.4</ele>
        <time>2020-07-12T09:09:10Z</time>
      </trkpt>
      <trkpt lat="46.43923" lon="2.50518">
        <ele>281.9</ele>
        <time>2020-07-12T09:09:12Z</time>
      </trkpt>
      <trkpt lat="46.43918" lon="2.50518">
        <ele>282.1</ele>
        <time>2020-07-12T09:09:13Z</time>
      </trkpt>
      <trkpt lat="46.43914" lon="2.50517">
        <ele>282.2</ele>
        <time>2020-07-12T09:09:14Z</time>
      </trkpt>
      <trkpt lat="46.43909" lon="2.50517">
        <ele>282.4</ele>
        <time>2020-07-12T09:09:15Z</time>
      </trkpt>
      <trkpt lat="46.43904" lon="2.50516">
        <ele>282.6</ele>
        <time>2020-07-12T09:09:16Z</time>
      </trkpt>
      <trkpt lat="46.43899" lon="2.50515">
        <ele>281.7</ele>
        <time>2020-07-12T09:09:17Z</time>
      </trkpt>
      <trkpt lat="46.43894" lon="2.50515">
        <ele>281</ele>
        <time>2020-07-12T09:09:18Z</time>
      </trkpt>
      <trkpt lat="46.4389" lon="2.50515">
        <ele>280.5</ele>
        <time>2020-07-12T09:09:19Z</time>
      </trkpt>
      <trkpt lat="46.43885" lon="2.50514">
        <ele>281.2</ele>
        <time>2020-07-12T09:09:20Z</time>
      </trkpt>
      <trkpt lat="46.4388" lon="2.50514">
        <ele>281.6</ele>
        <time>2020-07-12T09:09:21Z</time>
      </trkpt>
      <trkpt lat="46.43875" lon="2.50514">
        <ele>282</ele>
        <time>2020-07-12T09:09:22Z</time>
      </trkpt>
      <trkpt lat="46.43871" lon="2.50513">
        <ele>282.2</ele>
        <time>2020-07-12T09:09:23Z</time>
      </trkpt>
      <trkpt lat="46.43866" lon="2.50513">
        <ele>282.6</ele>
        <time>2020-07-12T09:09:24Z</time>
      </trkpt>
      <trkpt lat="46.43861" lon="2.50513">
        <ele>282.8</ele>
        <time>2020-07-12T09:09:25Z</time>
      </trkpt>
      <trkpt lat="46.43857" lon="2.50513">
        <ele>283</ele>
        <time>2020-07-12T09:09:26Z</time>
      </trkpt>
      <trkpt lat="46.43852" lon="2.50512">
        <ele>283</ele>
        <time>2020-07-12T09:09:27Z</time>
      </trkpt>
      <trkpt lat="46.43847" lon="2.50512">
        <ele>283</ele>
        <time>2020-07-12T09:09:28Z</time>
      </trkpt>
      <trkpt lat="46.43843" lon="2.50511">
        <ele>283.2</ele>
        <time>2020-07-12T09:09:29Z</time>
      </trkpt>
      <trkpt lat="46.43838" lon="2.50511">
        <ele>283.3</ele>
        <time>2020-07-12T09:09:30Z</time>
      </trkpt>
      <trkpt lat="46.43833" lon="2.5051">
        <ele>283.3</ele>
        <time>2020-07-12T09:09:31Z</time>
      </trkpt>
      <trkpt lat="46.43829" lon="2.5051">
        <ele>283.3</ele>
        <time>2020-07-12T09:09:32Z</time>
      </trkpt>
      <trkpt lat="46.43824" lon="2.5051">
        <ele>283.3</ele>
        <time>2020-07-12T09:09:33Z</time>
      </trkpt>
      <trkpt lat="46.43819" lon="2.50509">
        <ele>283.5</ele>
        <time>2020-07-12T09:09:34Z</time>
      </trkpt>
      <trkpt lat="46.43814" lon="2.50509">
        <ele>283.6</ele>
        <time>2020-07-12T09:09:35Z</time>
      </trkpt>
      <trkpt lat="46.43809" lon="2.50509">
        <ele>283.7</ele>
        <time>2020-07-12T09:09:36Z</time>
      </trkpt>
      <trkpt lat="46.43805" lon="2.50509">
        <ele>283.8</ele>
        <time>2020-07-12T09:09:37Z</time>
      </trkpt>
      <trkpt lat="46.438" lon="2.50509">
        <ele>283.4</ele>
        <time>2020-07-12T09:09:38Z</time>
      </trkpt>
      <trkpt lat="46.43795" lon="2.50509">
        <ele>283.1</ele>
        <time>2020-07-12T09:09:39Z</time>
      </trkpt>
      <trkpt lat="46.4379" lon="2.50509">
        <ele>282.8</ele>
        <time>2020-07-12T09:09:40Z</time>
      </trkpt>
      <trkpt lat="46.43786" lon="2.50509">
        <ele>283.2</ele>
        <time>2020-07-12T09:09:41Z</time>
      </trkpt>
      <trkpt lat="46.43781" lon="2.50509">
        <ele>283.4</ele>
        <time>2020-07-12T09:09:42Z</time>
      </trkpt>
      <trkpt lat="46.43776" lon="2.50509">
        <ele>283.6</ele>
        <time>2020-07-12T09:09:43Z</time>
      </trkpt>
      <trkpt lat="46.43772" lon="2.50509">
        <ele>283.8</ele>
        <time>2020-07-12T09:09:44Z</time>
      </trkpt>
      <trkpt lat="46.43763" lon="2.50508">
        <ele>283.7</ele>
        <time>2020-07-12T09:09:46Z</time>
      </trkpt>
      <trkpt lat="46.43755" lon="2.50507">
        <ele>283.1</ele>
        <time>2020-07-12T09:09:48Z</time>
      </trkpt>
      <trkpt lat="46.43747" lon="2.50506">
        <ele>282.5</ele>
        <time>2020-07-12T09:09:50Z</time>
      </trkpt>
      <trkpt lat="46.43739" lon="2.50505">
        <ele>282.2</ele>
        <time>2020-07-12T09:09:52Z</time>
      </trkpt>
      <trkpt lat="46.43732" lon="2.50503">
        <ele>282.7</ele>
        <time>2020-07-12T09:09:54Z</time>
      </trkpt>
      <trkpt lat="46.43725" lon="2.50502">
        <ele>283.3</ele>
        <time>2020-07-12T09:09:56Z</time>
      </trkpt>
      <trkpt lat="46.43718" lon="2.505">
        <ele>282.8</ele>
        <time>2020-07-12T09:09:58Z</time>
      </trkpt>
      <trkpt lat="46.43711" lon="2.50498">
        <ele>282.8</ele>
        <time>2020-07-12T09:10:00Z</time>
      </trkpt>
      <trkpt lat="46.43704" lon="2.50496">
        <ele>282.7</ele>
        <time>2020-07-12T09:10:02Z</time>
      </trkpt>
      <trkpt lat="46.43698" lon="2.50493">
        <ele>282.5</ele>
        <time>2020-07-12T09:10:04Z</time>
      </trkpt>
      <trkpt lat="46.4369" lon="2.50491">
        <ele>281.9</ele>
        <time>2020-07-12T09:10:06Z</time>
      </trkpt>
      <trkpt lat="46.43683" lon="2.50488">
        <ele>281.5</ele>
        <time>2020-07-12T09:10:08Z</time>
      </trkpt>
      <trkpt lat="46.43674" lon="2.50486">
        <ele>281.6</ele>
        <time>2020-07-12T09:10:10Z</time>
      </trkpt>
      <trkpt lat="46.4367" lon="2.50484">
        <ele>281.6</ele>
        <time>2020-07-12T09:10:11Z</time>
      </trkpt>
      <trkpt lat="46.43665" lon="2.50483">
        <ele>281.4</ele>
        <time>2020-07-12T09:10:12Z</time>
      </trkpt>
      <trkpt lat="46.4366" lon="2.50481">
        <ele>281.3</ele>
        <time>2020-07-12T09:10:13Z</time>
      </trkpt>
      <trkpt lat="46.43654" lon="2.5048">
        <ele>281.2</ele>
        <time>2020-07-12T09:10:14Z</time>
      </trkpt>
      <trkpt lat="46.43647" lon="2.50478">
        <ele>281.1</ele>
        <time>2020-07-12T09:10:15Z</time>
      </trkpt>
      <trkpt lat="46.43641" lon="2.50475">
        <ele>280.6</ele>
        <time>2020-07-12T09:10:16Z</time>
      </trkpt>
      <trkpt lat="46.43634" lon="2.50473">
        <ele>280.1</ele>
        <time>2020-07-12T09:10:17Z</time>
      </trkpt>
      <trkpt lat="46.43626" lon="2.50471">
        <ele>279.8</ele>
        <time>2020-07-12T09:10:18Z</time>
      </trkpt>
      <trkpt lat="46.43618" lon="2.50468">
        <ele>279.5</ele>
        <time>2020-07-12T09:10:19Z</time>
      </trkpt>
      <trkpt lat="46.4361" lon="2.50465">
        <ele>279.3</ele>
        <time>2020-07-12T09:10:20Z</time>
      </trkpt>
      <trkpt lat="46.43602" lon="2.50462">
        <ele>278.4</ele>
        <time>2020-07-12T09:10:21Z</time>
      </trkpt>
      <trkpt lat="46.43593" lon="2.50458">
        <ele>277.7</ele>
        <time>2020-07-12T09:10:22Z</time>
      </trkpt>
      <trkpt lat="46.43585" lon="2.50455">
        <ele>277.2</ele>
        <time>2020-07-12T09:10:23Z</time>
      </trkpt>
      <trkpt lat="46.43576" lon="2.50453">
        <ele>276.5</ele>
        <time>2020-07-12T09:10:24Z</time>
      </trkpt>
      <trkpt lat="46.43566" lon="2.50452">
        <ele>276.1</ele>
        <time>2020-07-12T09:10:25Z</time>
      </trkpt>
      <trkpt lat="46.43557" lon="2.50451">
        <ele>275.1</ele>
        <time>2020-07-12T09:10:26Z</time>
      </trkpt>
      <trkpt lat="46.43547" lon="2.5045">
        <ele>274.4</ele>
        <time>2020-07-12T09:10:27Z</time>
      </trkpt>
      <trkpt lat="46.43536" lon="2.50449">
        <ele>273.5</ele>
        <time>2020-07-12T09:10:28Z</time>
      </trkpt>
      <trkpt lat="46.43526" lon="2.50448">
        <ele>272.8</ele>
        <time>2020-07-12T09:10:29Z</time>
      </trkpt>
      <trkpt lat="46.43514" lon="2.50448">
        <ele>272.2</ele>
        <time>2020-07-12T09:10:30Z</time>
      </trkpt>
      <trkpt lat="46.43503" lon="2.50448">
        <ele>271.5</ele>
        <time>2020-07-12T09:10:31Z</time>
      </trkpt>
      <trkpt lat="46.43491" lon="2.50448">
        <ele>270.9</ele>
        <time>2020-07-12T09:10:32Z</time>
      </trkpt>
      <trkpt lat="46.43479" lon="2.50447">
        <ele>270.4</ele>
        <time>2020-07-12T09:10:33Z</time>
      </trkpt>
      <trkpt lat="46.43467" lon="2.50446">
        <ele>270.1</ele>
        <time>2020-07-12T09:10:34Z</time>
      </trkpt>
      <trkpt lat="46.43456" lon="2.50445">
        <ele>269.6</ele>
        <time>2020-07-12T09:10:35Z</time>
      </trkpt>
      <trkpt lat="46.43445" lon="2.50445">
        <ele>269.2</ele>
        <time>2020-07-12T09:10:36Z</time>
      </trkpt>
      <trkpt lat="46.43434" lon="2.50444">
        <ele>268.9</ele>
        <time>2020-07-12T09:10:37Z</time>
      </trkpt>
      <trkpt lat="46.43422" lon="2.50444">
        <ele>268.6</ele>
        <time>2020-07-12T09:10:38Z</time>
      </trkpt>
      <trkpt lat="46.43412" lon="2.50444">
        <ele>268.3</ele>
        <time>2020-07-12T09:10:39Z</time>
      </trkpt>
      <trkpt lat="46.43401" lon="2.50444">
        <ele>267.6</ele>
        <time>2020-07-12T09:10:40Z</time>
      </trkpt>
      <trkpt lat="46.43391" lon="2.50444">
        <ele>267.2</ele>
        <time>2020-07-12T09:10:41Z</time>
      </trkpt>
      <trkpt lat="46.4338" lon="2.50444">
        <ele>266</ele>
        <time>2020-07-12T09:10:42Z</time>
      </trkpt>
      <trkpt lat="46.43371" lon="2.50443">
        <ele>265.2</ele>
        <time>2020-07-12T09:10:43Z</time>
      </trkpt>
      <trkpt lat="46.43361" lon="2.50442">
        <ele>264.5</ele>
        <time>2020-07-12T09:10:44Z</time>
      </trkpt>
      <trkpt lat="46.43352" lon="2.50441">
        <ele>265.2</ele>
        <time>2020-07-12T09:10:45Z</time>
      </trkpt>
      <trkpt lat="46.43343" lon="2.5044">
        <ele>265.7</ele>
        <time>2020-07-12T09:10:46Z</time>
      </trkpt>
      <trkpt lat="46.43335" lon="2.50439">
        <ele>265.7</ele>
        <time>2020-07-12T09:10:47Z</time>
      </trkpt>
      <trkpt lat="46.43327" lon="2.50438">
        <ele>265.7</ele>
        <time>2020-07-12T09:10:48Z</time>
      </trkpt>
      <trkpt lat="46.4332" lon="2.50437">
        <ele>265.7</ele>
        <time>2020-07-12T09:10:49Z</time>
      </trkpt>
      <trkpt lat="46.43313" lon="2.50436">
        <ele>265.7</ele>
        <time>2020-07-12T09:10:50Z</time>
      </trkpt>
      <trkpt lat="46.43307" lon="2.50435">
        <ele>265.7</ele>
        <time>2020-07-12T09:10:51Z</time>
      </trkpt>
      <trkpt lat="46.43301" lon="2.50435">
        <ele>265.5</ele>
        <time>2020-07-12T09:10:52Z</time>
      </trkpt>
      <trkpt lat="46.43296" lon="2.50434">
        <ele>265.4</ele>
        <time>2020-07-12T09:10:53Z</time>
      </trkpt>
      <trkpt lat="46.43291" lon="2.50434">
        <ele>265.8</ele>
        <time>2020-07-12T09:10:54Z</time>
      </trkpt>
      <trkpt lat="46.43285" lon="2.50433">
        <ele>266</ele>
        <time>2020-07-12T09:10:55Z</time>
      </trkpt>
      <trkpt lat="46.4328" lon="2.50433">
        <ele>266.2</ele>
        <time>2020-07-12T09:10:56Z</time>
      </trkpt>
      <trkpt lat="46.43275" lon="2.50432">
        <ele>266.9</ele>
        <time>2020-07-12T09:10:57Z</time>
      </trkpt>
      <trkpt lat="46.43271" lon="2.50431">
        <ele>267.5</ele>
        <time>2020-07-12T09:10:58Z</time>
      </trkpt>
      <trkpt lat="46.43266" lon="2.50431">
        <ele>267.7</ele>
        <time>2020-07-12T09:10:59Z</time>
      </trkpt>
      <trkpt lat="46.43257" lon="2.5043">
        <ele>268.1</ele>
        <time>2020-07-12T09:11:01Z</time>
      </trkpt>
      <trkpt lat="46.43249" lon="2.50429">
        <ele>268.6</ele>
        <time>2020-07-12T09:11:03Z</time>
      </trkpt>
      <trkpt lat="46.43241" lon="2.50428">
        <ele>269.7</ele>
        <time>2020-07-12T09:11:05Z</time>
      </trkpt>
      <trkpt lat="46.43233" lon="2.50427">
        <ele>270.9</ele>
        <time>2020-07-12T09:11:07Z</time>
      </trkpt>
      <trkpt lat="46.43226" lon="2.50427">
        <ele>271.6</ele>
        <time>2020-07-12T09:11:09Z</time>
      </trkpt>
      <trkpt lat="46.43218" lon="2.50426">
        <ele>271.9</ele>
        <time>2020-07-12T09:11:11Z</time>
      </trkpt>
      <trkpt lat="46.43211" lon="2.50425">
        <ele>272</ele>
        <time>2020-07-12T09:11:13Z</time>
      </trkpt>
      <trkpt lat="46.43204" lon="2.50425">
        <ele>272</ele>
        <time>2020-07-12T09:11:15Z</time>
      </trkpt>
      <trkpt lat="46.43196" lon="2.50425">
        <ele>272.5</ele>
        <time>2020-07-12T09:11:17Z</time>
      </trkpt>
      <trkpt lat="46.43189" lon="2.50424">
        <ele>273.6</ele>
        <time>2020-07-12T09:11:19Z</time>
      </trkpt>
      <trkpt lat="46.43182" lon="2.50424">
        <ele>273.7</ele>
        <time>2020-07-12T09:11:21Z</time>
      </trkpt>
      <trkpt lat="46.43174" lon="2.50423">
        <ele>273.6</ele>
        <time>2020-07-12T09:11:23Z</time>
      </trkpt>
      <trkpt lat="46.43167" lon="2.50422">
        <ele>273.5</ele>
        <time>2020-07-12T09:11:25Z</time>
      </trkpt>
      <trkpt lat="46.4316" lon="2.50422">
        <ele>273.4</ele>
        <time>2020-07-12T09:11:27Z</time>
      </trkpt>
      <trkpt lat="46.43153" lon="2.50421">
        <ele>274.7</ele>
        <time>2020-07-12T09:11:29Z</time>
      </trkpt>
      <trkpt lat="46.43146" lon="2.5042">
        <ele>274.2</ele>
        <time>2020-07-12T09:11:31Z</time>
      </trkpt>
      <trkpt lat="46.43138" lon="2.5042">
        <ele>275.2</ele>
        <time>2020-07-12T09:11:33Z</time>
      </trkpt>
      <trkpt lat="46.43131" lon="2.50419">
        <ele>275.7</ele>
        <time>2020-07-12T09:11:35Z</time>
      </trkpt>
      <trkpt lat="46.43124" lon="2.50419">
        <ele>275.8</ele>
        <time>2020-07-12T09:11:37Z</time>
      </trkpt>
      <trkpt lat="46.43117" lon="2.50418">
        <ele>275.7</ele>
        <time>2020-07-12T09:11:39Z</time>
      </trkpt>
      <trkpt lat="46.43111" lon="2.50418">
        <ele>276.9</ele>
        <time>2020-07-12T09:11:41Z</time>
      </trkpt>
      <trkpt lat="46.43108" lon="2.50418">
        <ele>277.2</ele>
        <time>2020-07-12T09:11:42Z</time>
      </trkpt>
      <trkpt lat="46.43096" lon="2.50417">
        <ele>277.2</ele>
        <time>2020-07-12T09:11:46Z</time>
      </trkpt>
      <trkpt lat="46.43089" lon="2.50417">
        <ele>277.8</ele>
        <time>2020-07-12T09:11:48Z</time>
      </trkpt>
      <trkpt lat="46.43082" lon="2.50417">
        <ele>278.6</ele>
        <time>2020-07-12T09:11:50Z</time>
      </trkpt>
      <trkpt lat="46.43076" lon="2.50416">
        <ele>279</ele>
        <time>2020-07-12T09:11:52Z</time>
      </trkpt>
      <trkpt lat="46.43069" lon="2.50416">
        <ele>279.7</ele>
        <time>2020-07-12T09:11:54Z</time>
      </trkpt>
      <trkpt lat="46.43062" lon="2.50415">
        <ele>279.9</ele>
        <time>2020-07-12T09:11:56Z</time>
      </trkpt>
      <trkpt lat="46.43055" lon="2.50415">
        <ele>279.7</ele>
        <time>2020-07-12T09:11:58Z</time>
      </trkpt>
      <trkpt lat="46.43049" lon="2.50414">
        <ele>280.1</ele>
        <time>2020-07-12T09:12:00Z</time>
      </trkpt>
      <trkpt lat="46.43042" lon="2.50414">
        <ele>280.8</ele>
        <time>2020-07-12T09:12:02Z</time>
      </trkpt>
      <trkpt lat="46.43036" lon="2.50413">
        <ele>281.8</ele>
        <time>2020-07-12T09:12:04Z</time>
      </trkpt>
      <trkpt lat="46.43029" lon="2.50413">
        <ele>282.2</ele>
        <time>2020-07-12T09:12:06Z</time>
      </trkpt>
      <trkpt lat="46.43023" lon="2.50412">
        <ele>282.5</ele>
        <time>2020-07-12T09:12:08Z</time>
      </trkpt>
      <trkpt lat="46.43016" lon="2.50412">
        <ele>282.9</ele>
        <time>2020-07-12T09:12:10Z</time>
      </trkpt>
      <trkpt lat="46.43009" lon="2.50411">
        <ele>283.3</ele>
        <time>2020-07-12T09:12:12Z</time>
      </trkpt>
      <trkpt lat="46.43003" lon="2.50411">
        <ele>283.6</ele>
        <time>2020-07-12T09:12:14Z</time>
      </trkpt>
      <trkpt lat="46.42996" lon="2.50412">
        <ele>284.6</ele>
        <time>2020-07-12T09:12:16Z</time>
      </trkpt>
      <trkpt lat="46.4299" lon="2.50412">
        <ele>284.7</ele>
        <time>2020-07-12T09:12:18Z</time>
      </trkpt>
      <trkpt lat="46.42983" lon="2.50412">
        <ele>285.3</ele>
        <time>2020-07-12T09:12:20Z</time>
      </trkpt>
      <trkpt lat="46.42977" lon="2.50413">
        <ele>286.4</ele>
        <time>2020-07-12T09:12:22Z</time>
      </trkpt>
      <trkpt lat="46.4297" lon="2.50414">
        <ele>287.2</ele>
        <time>2020-07-12T09:12:24Z</time>
      </trkpt>
      <trkpt lat="46.42964" lon="2.50415">
        <ele>287.9</ele>
        <time>2020-07-12T09:12:26Z</time>
      </trkpt>
      <trkpt lat="46.42957" lon="2.50416">
        <ele>287.7</ele>
        <time>2020-07-12T09:12:28Z</time>
      </trkpt>
      <trkpt lat="46.42951" lon="2.50417">
        <ele>287.8</ele>
        <time>2020-07-12T09:12:30Z</time>
      </trkpt>
      <trkpt lat="46.42944" lon="2.50419">
        <ele>288.8</ele>
        <time>2020-07-12T09:12:32Z</time>
      </trkpt>
      <trkpt lat="46.42938" lon="2.50421">
        <ele>289.8</ele>
        <time>2020-07-12T09:12:34Z</time>
      </trkpt>
      <trkpt lat="46.42931" lon="2.50424">
        <ele>290.2</ele>
        <time>2020-07-12T09:12:36Z</time>
      </trkpt>
      <trkpt lat="46.42925" lon="2.50427">
        <ele>290.5</ele>
        <time>2020-07-12T09:12:38Z</time>
      </trkpt>
      <trkpt lat="46.42919" lon="2.5043">
        <ele>291.2</ele>
        <time>2020-07-12T09:12:40Z</time>
      </trkpt>
      <trkpt lat="46.42913" lon="2.50434">
        <ele>292.3</ele>
        <time>2020-07-12T09:12:42Z</time>
      </trkpt>
      <trkpt lat="46.42907" lon="2.50438">
        <ele>292.4</ele>
        <time>2020-07-12T09:12:44Z</time>
      </trkpt>
      <trkpt lat="46.42904" lon="2.50441">
        <ele>292.2</ele>
        <time>2020-07-12T09:12:45Z</time>
      </trkpt>
      <trkpt lat="46.42894" lon="2.50447">
        <ele>292.1</ele>
        <time>2020-07-12T09:12:48Z</time>
      </trkpt>
      <trkpt lat="46.42888" lon="2.50451">
        <ele>292.3</ele>
        <time>2020-07-12T09:12:50Z</time>
      </trkpt>
      <trkpt lat="46.42882" lon="2.50455">
        <ele>293.4</ele>
        <time>2020-07-12T09:12:52Z</time>
      </trkpt>
      <trkpt lat="46.42874" lon="2.5046">
        <ele>293.6</ele>
        <time>2020-07-12T09:12:55Z</time>
      </trkpt>
      <trkpt lat="46.42869" lon="2.50463">
        <ele>293.1</ele>
        <time>2020-07-12T09:12:57Z</time>
      </trkpt>
      <trkpt lat="46.42862" lon="2.50466">
        <ele>293.3</ele>
        <time>2020-07-12T09:12:59Z</time>
      </trkpt>
      <trkpt lat="46.42858" lon="2.50468">
        <ele>293.2</ele>
        <time>2020-07-12T09:13:00Z</time>
      </trkpt>
      <trkpt lat="46.42853" lon="2.5047">
        <ele>293.1</ele>
        <time>2020-07-12T09:13:01Z</time>
      </trkpt>
      <trkpt lat="46.42848" lon="2.50472">
        <ele>293.1</ele>
        <time>2020-07-12T09:13:02Z</time>
      </trkpt>
      <trkpt lat="46.42843" lon="2.50473">
        <ele>292.9</ele>
        <time>2020-07-12T09:13:03Z</time>
      </trkpt>
      <trkpt lat="46.42837" lon="2.50475">
        <ele>292.8</ele>
        <time>2020-07-12T09:13:04Z</time>
      </trkpt>
      <trkpt lat="46.42831" lon="2.50476">
        <ele>292.1</ele>
        <time>2020-07-12T09:13:05Z</time>
      </trkpt>
      <trkpt lat="46.42825" lon="2.50477">
        <ele>291.5</ele>
        <time>2020-07-12T09:13:06Z</time>
      </trkpt>
      <trkpt lat="46.42818" lon="2.50478">
        <ele>291.1</ele>
        <time>2020-07-12T09:13:07Z</time>
      </trkpt>
      <trkpt lat="46.42811" lon="2.50478">
        <ele>290.8</ele>
        <time>2020-07-12T09:13:08Z</time>
      </trkpt>
      <trkpt lat="46.42804" lon="2.50479">
        <ele>290.6</ele>
        <time>2020-07-12T09:13:09Z</time>
      </trkpt>
      <trkpt lat="46.42796" lon="2.50479">
        <ele>290.6</ele>
        <time>2020-07-12T09:13:10Z</time>
      </trkpt>
      <trkpt lat="46.42789" lon="2.50478">
        <ele>290.6</ele>
        <time>2020-07-12T09:13:11Z</time>
      </trkpt>
      <trkpt lat="46.42781" lon="2.50478">
        <ele>289.8</ele>
        <time>2020-07-12T09:13:12Z</time>
      </trkpt>
      <trkpt lat="46.42773" lon="2.50477">
        <ele>289.1</ele>
        <time>2020-07-12T09:13:13Z</time>
      </trkpt>
      <trkpt lat="46.42765" lon="2.50477">
        <ele>288.3</ele>
        <time>2020-07-12T09:13:14Z</time>
      </trkpt>
      <trkpt lat="46.42756" lon="2.50476">
        <ele>287.6</ele>
        <time>2020-07-12T09:13:15Z</time>
      </trkpt>
      <trkpt lat="46.42747" lon="2.50476">
        <ele>287.1</ele>
        <time>2020-07-12T09:13:16Z</time>
      </trkpt>
      <trkpt lat="46.42737" lon="2.50477">
        <ele>286</ele>
        <time>2020-07-12T09:13:17Z</time>
      </trkpt>
      <trkpt lat="46.42727" lon="2.50477">
        <ele>285.2</ele>
        <time>2020-07-12T09:13:18Z</time>
      </trkpt>
      <trkpt lat="46.42718" lon="2.50478">
        <ele>284.4</ele>
        <time>2020-07-12T09:13:19Z</time>
      </trkpt>
      <trkpt lat="46.42708" lon="2.50479">
        <ele>283.9</ele>
        <time>2020-07-12T09:13:20Z</time>
      </trkpt>
      <trkpt lat="46.42699" lon="2.5048">
        <ele>283.5</ele>
        <time>2020-07-12T09:13:21Z</time>
      </trkpt>
      <trkpt lat="46.42689" lon="2.50481">
        <ele>282.1</ele>
        <time>2020-07-12T09:13:22Z</time>
      </trkpt>
      <trkpt lat="46.4268" lon="2.50483">
        <ele>281.1</ele>
        <time>2020-07-12T09:13:23Z</time>
      </trkpt>
      <trkpt lat="46.42672" lon="2.50486">
        <ele>280.2</ele>
        <time>2020-07-12T09:13:24Z</time>
      </trkpt>
      <trkpt lat="46.42663" lon="2.50488">
        <ele>279.5</ele>
        <time>2020-07-12T09:13:25Z</time>
      </trkpt>
      <trkpt lat="46.42656" lon="2.5049">
        <ele>278.9</ele>
        <time>2020-07-12T09:13:26Z</time>
      </trkpt>
      <trkpt lat="46.42649" lon="2.50492">
        <ele>278.4</ele>
        <time>2020-07-12T09:13:27Z</time>
      </trkpt>
      <trkpt lat="46.42642" lon="2.50493">
        <ele>278.1</ele>
        <time>2020-07-12T09:13:28Z</time>
      </trkpt>
      <trkpt lat="46.42636" lon="2.50494">
        <ele>277.7</ele>
        <time>2020-07-12T09:13:29Z</time>
      </trkpt>
      <trkpt lat="46.4263" lon="2.50495">
        <ele>277.3</ele>
        <time>2020-07-12T09:13:30Z</time>
      </trkpt>
      <trkpt lat="46.42621" lon="2.50494">
        <ele>276.9</ele>
        <time>2020-07-12T09:13:32Z</time>
      </trkpt>
      <trkpt lat="46.42618" lon="2.50482">
        <ele>275.4</ele>
        <time>2020-07-12T09:13:37Z</time>
      </trkpt>
      <trkpt lat="46.42611" lon="2.50477">
        <ele>275.2</ele>
        <time>2020-07-12T09:13:41Z</time>
      </trkpt>
      <trkpt lat="46.42605" lon="2.50484">
        <ele>274.9</ele>
        <time>2020-07-12T09:13:45Z</time>
      </trkpt>
      <trkpt lat="46.42604" lon="2.50494">
        <ele>274.9</ele>
        <time>2020-07-12T09:13:47Z</time>
      </trkpt>
      <trkpt lat="46.42601" lon="2.50497">
        <ele>274.4</ele>
        <time>2020-07-12T09:13:48Z</time>
      </trkpt>
      <trkpt lat="46.42592" lon="2.5051">
        <ele>272.6</ele>
        <time>2020-07-12T09:13:55Z</time>
      </trkpt>
      <trkpt lat="46.42593" lon="2.50523">
        <ele>271.3</ele>
        <time>2020-07-12T09:13:58Z</time>
      </trkpt>
      <trkpt lat="46.42591" lon="2.50535">
        <ele>272</ele>
        <time>2020-07-12T09:14:07Z</time>
      </trkpt>
      <trkpt lat="46.42589" lon="2.50545">
        <ele>271.4</ele>
        <time>2020-07-12T09:14:10Z</time>
      </trkpt>
      <trkpt lat="46.42586" lon="2.50553">
        <ele>271.4</ele>
        <time>2020-07-12T09:14:12Z</time>
      </trkpt>
      <trkpt lat="46.42582" lon="2.50562">
        <ele>271.3</ele>
        <time>2020-07-12T09:14:14Z</time>
      </trkpt>
      <trkpt lat="46.42576" lon="2.50572">
        <ele>271</ele>
        <time>2020-07-12T09:14:16Z</time>
      </trkpt>
      <trkpt lat="46.42573" lon="2.50576">
        <ele>270.8</ele>
        <time>2020-07-12T09:14:17Z</time>
      </trkpt>
      <trkpt lat="46.42569" lon="2.50581">
        <ele>270.7</ele>
        <time>2020-07-12T09:14:18Z</time>
      </trkpt>
      <trkpt lat="46.42565" lon="2.50586">
        <ele>270.4</ele>
        <time>2020-07-12T09:14:19Z</time>
      </trkpt>
      <trkpt lat="46.42561" lon="2.5059">
        <ele>270.2</ele>
        <time>2020-07-12T09:14:20Z</time>
      </trkpt>
      <trkpt lat="46.42557" lon="2.50595">
        <ele>270.2</ele>
        <time>2020-07-12T09:14:21Z</time>
      </trkpt>
      <trkpt lat="46.42552" lon="2.50601">
        <ele>270.1</ele>
        <time>2020-07-12T09:14:22Z</time>
      </trkpt>
      <trkpt lat="46.42548" lon="2.50606">
        <ele>269.9</ele>
        <time>2020-07-12T09:14:23Z</time>
      </trkpt>
      <trkpt lat="46.42544" lon="2.50612">
        <ele>269.7</ele>
        <time>2020-07-12T09:14:24Z</time>
      </trkpt>
      <trkpt lat="46.42539" lon="2.50617">
        <ele>269.5</ele>
        <time>2020-07-12T09:14:25Z</time>
      </trkpt>
      <trkpt lat="46.42535" lon="2.50623">
        <ele>269.3</ele>
        <time>2020-07-12T09:14:26Z</time>
      </trkpt>
      <trkpt lat="46.4253" lon="2.50628">
        <ele>269.2</ele>
        <time>2020-07-12T09:14:27Z</time>
      </trkpt>
      <trkpt lat="46.42526" lon="2.50634">
        <ele>268.7</ele>
        <time>2020-07-12T09:14:28Z</time>
      </trkpt>
      <trkpt lat="46.42521" lon="2.5064">
        <ele>268.4</ele>
        <time>2020-07-12T09:14:29Z</time>
      </trkpt>
      <trkpt lat="46.42516" lon="2.50646">
        <ele>267.9</ele>
        <time>2020-07-12T09:14:30Z</time>
      </trkpt>
      <trkpt lat="46.42511" lon="2.50651">
        <ele>267.6</ele>
        <time>2020-07-12T09:14:31Z</time>
      </trkpt>
      <trkpt lat="46.42506" lon="2.50657">
        <ele>267.3</ele>
        <time>2020-07-12T09:14:32Z</time>
      </trkpt>
      <trkpt lat="46.42501" lon="2.50664">
        <ele>267.2</ele>
        <time>2020-07-12T09:14:33Z</time>
      </trkpt>
      <trkpt lat="46.42496" lon="2.5067">
        <ele>267.2</ele>
        <time>2020-07-12T09:14:34Z</time>
      </trkpt>
      <trkpt lat="46.42491" lon="2.50676">
        <ele>267</ele>
        <time>2020-07-12T09:14:35Z</time>
      </trkpt>
      <trkpt lat="46.42486" lon="2.50683">
        <ele>266.9</ele>
        <time>2020-07-12T09:14:36Z</time>
      </trkpt>
      <trkpt lat="46.42481" lon="2.50689">
        <ele>266.4</ele>
        <time>2020-07-12T09:14:37Z</time>
      </trkpt>
      <trkpt lat="46.42476" lon="2.50695">
        <ele>266</ele>
        <time>2020-07-12T09:14:38Z</time>
      </trkpt>
      <trkpt lat="46.42471" lon="2.50701">
        <ele>265.7</ele>
        <time>2020-07-12T09:14:39Z</time>
      </trkpt>
      <trkpt lat="46.42466" lon="2.50707">
        <ele>265.5</ele>
        <time>2020-07-12T09:14:40Z</time>
      </trkpt>
      <trkpt lat="46.42461" lon="2.50713">
        <ele>265.3</ele>
        <time>2020-07-12T09:14:41Z</time>
      </trkpt>
      <trkpt lat="46.42456" lon="2.50719">
        <ele>265.3</ele>
        <time>2020-07-12T09:14:42Z</time>
      </trkpt>
      <trkpt lat="46.42452" lon="2.50723">
        <ele>265.3</ele>
        <time>2020-07-12T09:14:43Z</time>
      </trkpt>
      <trkpt lat="46.42448" lon="2.50729">
        <ele>265.3</ele>
        <time>2020-07-12T09:14:44Z</time>
      </trkpt>
      <trkpt lat="46.42443" lon="2.50734">
        <ele>264.7</ele>
        <time>2020-07-12T09:14:45Z</time>
      </trkpt>
      <trkpt lat="46.42438" lon="2.5074">
        <ele>264.3</ele>
        <time>2020-07-12T09:14:46Z</time>
      </trkpt>
      <trkpt lat="46.42433" lon="2.50746">
        <ele>263.8</ele>
        <time>2020-07-12T09:14:47Z</time>
      </trkpt>
      <trkpt lat="46.42428" lon="2.50752">
        <ele>263.4</ele>
        <time>2020-07-12T09:14:48Z</time>
      </trkpt>
      <trkpt lat="46.42423" lon="2.50758">
        <ele>262.6</ele>
        <time>2020-07-12T09:14:49Z</time>
      </trkpt>
      <trkpt lat="46.42418" lon="2.50764">
        <ele>262</ele>
        <time>2020-07-12T09:14:50Z</time>
      </trkpt>
      <trkpt lat="46.42413" lon="2.50769">
        <ele>261.6</ele>
        <time>2020-07-12T09:14:51Z</time>
      </trkpt>
      <trkpt lat="46.42408" lon="2.50775">
        <ele>261.3</ele>
        <time>2020-07-12T09:14:52Z</time>
      </trkpt>
      <trkpt lat="46.42402" lon="2.5078">
        <ele>261</ele>
        <time>2020-07-12T09:14:53Z</time>
      </trkpt>
      <trkpt lat="46.42396" lon="2.50784">
        <ele>261</ele>
        <time>2020-07-12T09:14:54Z</time>
      </trkpt>
      <trkpt lat="46.4239" lon="2.50789">
        <ele>261</ele>
        <time>2020-07-12T09:14:55Z</time>
      </trkpt>
      <trkpt lat="46.42384" lon="2.50793">
        <ele>260.4</ele>
        <time>2020-07-12T09:14:56Z</time>
      </trkpt>
      <trkpt lat="46.42377" lon="2.50797">
        <ele>260</ele>
        <time>2020-07-12T09:14:57Z</time>
      </trkpt>
      <trkpt lat="46.4237" lon="2.50799">
        <ele>259.7</ele>
        <time>2020-07-12T09:14:58Z</time>
      </trkpt>
      <trkpt lat="46.42363" lon="2.50802">
        <ele>259.5</ele>
        <time>2020-07-12T09:14:59Z</time>
      </trkpt>
      <trkpt lat="46.42356" lon="2.50804">
        <ele>259.3</ele>
        <time>2020-07-12T09:15:00Z</time>
      </trkpt>
      <trkpt lat="46.42349" lon="2.50805">
        <ele>258.8</ele>
        <time>2020-07-12T09:15:01Z</time>
      </trkpt>
      <trkpt lat="46.42342" lon="2.50805">
        <ele>258.5</ele>
        <time>2020-07-12T09:15:02Z</time>
      </trkpt>
      <trkpt lat="46.42335" lon="2.50805">
        <ele>258.2</ele>
        <time>2020-07-12T09:15:03Z</time>
      </trkpt>
      <trkpt lat="46.42327" lon="2.50804">
        <ele>258</ele>
        <time>2020-07-12T09:15:04Z</time>
      </trkpt>
      <trkpt lat="46.4232" lon="2.50802">
        <ele>257.8</ele>
        <time>2020-07-12T09:15:05Z</time>
      </trkpt>
      <trkpt lat="46.42314" lon="2.508">
        <ele>256.9</ele>
        <time>2020-07-12T09:15:06Z</time>
      </trkpt>
      <trkpt lat="46.42309" lon="2.50797">
        <ele>256.2</ele>
        <time>2020-07-12T09:15:07Z</time>
      </trkpt>
      <trkpt lat="46.42304" lon="2.50795">
        <ele>255.8</ele>
        <time>2020-07-12T09:15:08Z</time>
      </trkpt>
      <trkpt lat="46.42299" lon="2.50793">
        <ele>255.4</ele>
        <time>2020-07-12T09:15:09Z</time>
      </trkpt>
      <trkpt lat="46.42295" lon="2.5079">
        <ele>255.2</ele>
        <time>2020-07-12T09:15:10Z</time>
      </trkpt>
      <trkpt lat="46.42286" lon="2.50787">
        <ele>254</ele>
        <time>2020-07-12T09:15:12Z</time>
      </trkpt>
      <trkpt lat="46.42278" lon="2.50787">
        <ele>253.5</ele>
        <time>2020-07-12T09:15:14Z</time>
      </trkpt>
      <trkpt lat="46.4227" lon="2.50787">
        <ele>252.4</ele>
        <time>2020-07-12T09:15:17Z</time>
      </trkpt>
      <trkpt lat="46.42263" lon="2.5078">
        <ele>252</ele>
        <time>2020-07-12T09:15:21Z</time>
      </trkpt>
      <trkpt lat="46.42256" lon="2.50772">
        <ele>252.1</ele>
        <time>2020-07-12T09:15:24Z</time>
      </trkpt>
      <trkpt lat="46.42249" lon="2.50779">
        <ele>252.2</ele>
        <time>2020-07-12T09:15:27Z</time>
      </trkpt>
      <trkpt lat="46.42246" lon="2.50787">
        <ele>252.6</ele>
        <time>2020-07-12T09:15:29Z</time>
      </trkpt>
      <trkpt lat="46.4224" lon="2.50793">
        <ele>252.3</ele>
        <time>2020-07-12T09:15:31Z</time>
      </trkpt>
      <trkpt lat="46.42233" lon="2.50799">
        <ele>251.7</ele>
        <time>2020-07-12T09:15:33Z</time>
      </trkpt>
      <trkpt lat="46.42228" lon="2.50802">
        <ele>251.4</ele>
        <time>2020-07-12T09:15:34Z</time>
      </trkpt>
      <trkpt lat="46.42224" lon="2.50806">
        <ele>251.2</ele>
        <time>2020-07-12T09:15:35Z</time>
      </trkpt>
      <trkpt lat="46.42221" lon="2.50812">
        <ele>251</ele>
        <time>2020-07-12T09:15:36Z</time>
      </trkpt>
      <trkpt lat="46.42219" lon="2.5082">
        <ele>250.9</ele>
        <time>2020-07-12T09:15:37Z</time>
      </trkpt>
      <trkpt lat="46.42217" lon="2.50829">
        <ele>250.8</ele>
        <time>2020-07-12T09:15:38Z</time>
      </trkpt>
      <trkpt lat="46.42217" lon="2.50839">
        <ele>250.6</ele>
        <time>2020-07-12T09:15:39Z</time>
      </trkpt>
      <trkpt lat="46.42217" lon="2.50849">
        <ele>250.5</ele>
        <time>2020-07-12T09:15:40Z</time>
      </trkpt>
      <trkpt lat="46.42217" lon="2.50861">
        <ele>250.3</ele>
        <time>2020-07-12T09:15:41Z</time>
      </trkpt>
      <trkpt lat="46.42218" lon="2.50872">
        <ele>249.5</ele>
        <time>2020-07-12T09:15:42Z</time>
      </trkpt>
      <trkpt lat="46.42219" lon="2.50884">
        <ele>248.8</ele>
        <time>2020-07-12T09:15:43Z</time>
      </trkpt>
      <trkpt lat="46.42219" lon="2.50897">
        <ele>247.8</ele>
        <time>2020-07-12T09:15:44Z</time>
      </trkpt>
      <trkpt lat="46.4222" lon="2.5091">
        <ele>247.1</ele>
        <time>2020-07-12T09:15:45Z</time>
      </trkpt>
      <trkpt lat="46.42221" lon="2.50924">
        <ele>246.3</ele>
        <time>2020-07-12T09:15:46Z</time>
      </trkpt>
      <trkpt lat="46.42222" lon="2.50938">
        <ele>245.7</ele>
        <time>2020-07-12T09:15:47Z</time>
      </trkpt>
      <trkpt lat="46.42223" lon="2.50952">
        <ele>245.2</ele>
        <time>2020-07-12T09:15:48Z</time>
      </trkpt>
      <trkpt lat="46.42224" lon="2.50966">
        <ele>244.2</ele>
        <time>2020-07-12T09:15:49Z</time>
      </trkpt>
      <trkpt lat="46.42225" lon="2.5098">
        <ele>243.5</ele>
        <time>2020-07-12T09:15:50Z</time>
      </trkpt>
      <trkpt lat="46.42227" lon="2.50993">
        <ele>242.6</ele>
        <time>2020-07-12T09:15:51Z</time>
      </trkpt>
      <trkpt lat="46.42227" lon="2.51005">
        <ele>241.9</ele>
        <time>2020-07-12T09:15:52Z</time>
      </trkpt>
      <trkpt lat="46.42227" lon="2.51015">
        <ele>241.4</ele>
        <time>2020-07-12T09:15:53Z</time>
      </trkpt>
      <trkpt lat="46.42224" lon="2.51025">
        <ele>240.1</ele>
        <time>2020-07-12T09:15:54Z</time>
      </trkpt>
      <trkpt lat="46.4222" lon="2.51033">
        <ele>239.1</ele>
        <time>2020-07-12T09:15:55Z</time>
      </trkpt>
      <trkpt lat="46.42216" lon="2.51041">
        <ele>238.4</ele>
        <time>2020-07-12T09:15:56Z</time>
      </trkpt>
      <trkpt lat="46.42211" lon="2.51049">
        <ele>237.8</ele>
        <time>2020-07-12T09:15:57Z</time>
      </trkpt>
      <trkpt lat="46.42208" lon="2.51056">
        <ele>236.8</ele>
        <time>2020-07-12T09:15:58Z</time>
      </trkpt>
      <trkpt lat="46.42205" lon="2.51063">
        <ele>236</ele>
        <time>2020-07-12T09:15:59Z</time>
      </trkpt>
      <trkpt lat="46.42204" lon="2.51071">
        <ele>235.4</ele>
        <time>2020-07-12T09:16:00Z</time>
      </trkpt>
      <trkpt lat="46.42206" lon="2.51082">
        <ele>234.9</ele>
        <time>2020-07-12T09:16:02Z</time>
      </trkpt>
      <trkpt lat="46.42202" lon="2.51091">
        <ele>233.2</ele>
        <time>2020-07-12T09:16:05Z</time>
      </trkpt>
      <trkpt lat="46.42199" lon="2.51103">
        <ele>233</ele>
        <time>2020-07-12T09:16:13Z</time>
      </trkpt>
      <trkpt lat="46.42198" lon="2.51113">
        <ele>232.2</ele>
        <time>2020-07-12T09:16:23Z</time>
      </trkpt>
      <trkpt lat="46.42199" lon="2.51122">
        <ele>232.2</ele>
        <time>2020-07-12T09:16:25Z</time>
      </trkpt>
      <trkpt lat="46.42203" lon="2.51132">
        <ele>231.9</ele>
        <time>2020-07-12T09:16:28Z</time>
      </trkpt>
      <trkpt lat="46.42205" lon="2.51142">
        <ele>232</ele>
        <time>2020-07-12T09:16:30Z</time>
      </trkpt>
      <trkpt lat="46.42209" lon="2.5115">
        <ele>232.9</ele>
        <time>2020-07-12T09:16:34Z</time>
      </trkpt>
      <trkpt lat="46.42215" lon="2.5116">
        <ele>233.5</ele>
        <time>2020-07-12T09:16:36Z</time>
      </trkpt>
      <trkpt lat="46.42218" lon="2.51168">
        <ele>233.7</ele>
        <time>2020-07-12T09:16:38Z</time>
      </trkpt>
      <trkpt lat="46.42221" lon="2.51176">
        <ele>234.2</ele>
        <time>2020-07-12T09:16:40Z</time>
      </trkpt>
      <trkpt lat="46.42225" lon="2.51185">
        <ele>233.4</ele>
        <time>2020-07-12T09:16:42Z</time>
      </trkpt>
      <trkpt lat="46.42227" lon="2.51196">
        <ele>233</ele>
        <time>2020-07-12T09:16:44Z</time>
      </trkpt>
      <trkpt lat="46.42228" lon="2.51208">
        <ele>233.2</ele>
        <time>2020-07-12T09:16:46Z</time>
      </trkpt>
      <trkpt lat="46.4223" lon="2.5122">
        <ele>233.3</ele>
        <time>2020-07-12T09:16:48Z</time>
      </trkpt>
      <trkpt lat="46.42231" lon="2.51232">
        <ele>233.1</ele>
        <time>2020-07-12T09:16:50Z</time>
      </trkpt>
      <trkpt lat="46.42232" lon="2.51244">
        <ele>232.8</ele>
        <time>2020-07-12T09:16:52Z</time>
      </trkpt>
      <trkpt lat="46.42233" lon="2.5125">
        <ele>233</ele>
        <time>2020-07-12T09:16:53Z</time>
      </trkpt>
      <trkpt lat="46.42235" lon="2.51266">
        <ele>232.5</ele>
        <time>2020-07-12T09:16:56Z</time>
      </trkpt>
      <trkpt lat="46.42236" lon="2.51277">
        <ele>233</ele>
        <time>2020-07-12T09:16:58Z</time>
      </trkpt>
      <trkpt lat="46.42238" lon="2.51287">
        <ele>233.3</ele>
        <time>2020-07-12T09:17:00Z</time>
      </trkpt>
      <trkpt lat="46.42241" lon="2.51297">
        <ele>232.9</ele>
        <time>2020-07-12T09:17:02Z</time>
      </trkpt>
      <trkpt lat="46.42246" lon="2.51307">
        <ele>232.2</ele>
        <time>2020-07-12T09:17:04Z</time>
      </trkpt>
      <trkpt lat="46.42252" lon="2.51315">
        <ele>233.4</ele>
        <time>2020-07-12T09:17:06Z</time>
      </trkpt>
      <trkpt lat="46.42258" lon="2.51323">
        <ele>233.8</ele>
        <time>2020-07-12T09:17:08Z</time>
      </trkpt>
      <trkpt lat="46.42264" lon="2.51331">
        <ele>233.5</ele>
        <time>2020-07-12T09:17:10Z</time>
      </trkpt>
      <trkpt lat="46.42271" lon="2.51338">
        <ele>233.4</ele>
        <time>2020-07-12T09:17:12Z</time>
      </trkpt>
      <trkpt lat="46.42278" lon="2.51345">
        <ele>233.4</ele>
        <time>2020-07-12T09:17:14Z</time>
      </trkpt>
      <trkpt lat="46.42286" lon="2.51351">
        <ele>233.5</ele>
        <time>2020-07-12T09:17:16Z</time>
      </trkpt>
      <trkpt lat="46.42293" lon="2.51357">
        <ele>234.1</ele>
        <time>2020-07-12T09:17:18Z</time>
      </trkpt>
      <trkpt lat="46.42301" lon="2.51363">
        <ele>233.2</ele>
        <time>2020-07-12T09:17:20Z</time>
      </trkpt>
      <trkpt lat="46.42309" lon="2.51369">
        <ele>233.6</ele>
        <time>2020-07-12T09:17:22Z</time>
      </trkpt>
      <trkpt lat="46.42317" lon="2.51374">
        <ele>233.6</ele>
        <time>2020-07-12T09:17:24Z</time>
      </trkpt>
      <trkpt lat="46.42325" lon="2.51379">
        <ele>233.7</ele>
        <time>2020-07-12T09:17:26Z</time>
      </trkpt>
      <trkpt lat="46.42333" lon="2.51384">
        <ele>233.4</ele>
        <time>2020-07-12T09:17:28Z</time>
      </trkpt>
      <trkpt lat="46.42341" lon="2.51389">
        <ele>232.9</ele>
        <time>2020-07-12T09:17:30Z</time>
      </trkpt>
      <trkpt lat="46.42349" lon="2.51395">
        <ele>233.3</ele>
        <time>2020-07-12T09:17:32Z</time>
      </trkpt>
      <trkpt lat="46.42357" lon="2.514">
        <ele>232.9</ele>
        <time>2020-07-12T09:17:34Z</time>
      </trkpt>
      <trkpt lat="46.42361" lon="2.51403">
        <ele>232.6</ele>
        <time>2020-07-12T09:17:35Z</time>
      </trkpt>
      <trkpt lat="46.42364" lon="2.51408">
        <ele>232.4</ele>
        <time>2020-07-12T09:17:36Z</time>
      </trkpt>
      <trkpt lat="46.42367" lon="2.51413">
        <ele>232.2</ele>
        <time>2020-07-12T09:17:37Z</time>
      </trkpt>
      <trkpt lat="46.4237" lon="2.51419">
        <ele>232.7</ele>
        <time>2020-07-12T09:17:38Z</time>
      </trkpt>
      <trkpt lat="46.42372" lon="2.51425">
        <ele>233.1</ele>
        <time>2020-07-12T09:17:39Z</time>
      </trkpt>
      <trkpt lat="46.42374" lon="2.51432">
        <ele>233.8</ele>
        <time>2020-07-12T09:17:40Z</time>
      </trkpt>
      <trkpt lat="46.42375" lon="2.51439">
        <ele>234.3</ele>
        <time>2020-07-12T09:17:41Z</time>
      </trkpt>
      <trkpt lat="46.42376" lon="2.51446">
        <ele>234.7</ele>
        <time>2020-07-12T09:17:42Z</time>
      </trkpt>
      <trkpt lat="46.42377" lon="2.51453">
        <ele>234.1</ele>
        <time>2020-07-12T09:17:43Z</time>
      </trkpt>
      <trkpt lat="46.42377" lon="2.5146">
        <ele>233.7</ele>
        <time>2020-07-12T09:17:44Z</time>
      </trkpt>
      <trkpt lat="46.42377" lon="2.51466">
        <ele>234.1</ele>
        <time>2020-07-12T09:17:45Z</time>
      </trkpt>
      <trkpt lat="46.42377" lon="2.51473">
        <ele>234.4</ele>
        <time>2020-07-12T09:17:46Z</time>
      </trkpt>
      <trkpt lat="46.42377" lon="2.5148">
        <ele>234.6</ele>
        <time>2020-07-12T09:17:47Z</time>
      </trkpt>
      <trkpt lat="46.42378" lon="2.51487">
        <ele>234.8</ele>
        <time>2020-07-12T09:17:48Z</time>
      </trkpt>
      <trkpt lat="46.42378" lon="2.51494">
        <ele>234.9</ele>
        <time>2020-07-12T09:17:49Z</time>
      </trkpt>
      <trkpt lat="46.42378" lon="2.51501">
        <ele>235</ele>
        <time>2020-07-12T09:17:50Z</time>
      </trkpt>
      <trkpt lat="46.42379" lon="2.51508">
        <ele>235</ele>
        <time>2020-07-12T09:17:51Z</time>
      </trkpt>
      <trkpt lat="46.42379" lon="2.51515">
        <ele>234.6</ele>
        <time>2020-07-12T09:17:52Z</time>
      </trkpt>
      <trkpt lat="46.4238" lon="2.51522">
        <ele>234.2</ele>
        <time>2020-07-12T09:17:53Z</time>
      </trkpt>
      <trkpt lat="46.42381" lon="2.5153">
        <ele>233.6</ele>
        <time>2020-07-12T09:17:54Z</time>
      </trkpt>
      <trkpt lat="46.42382" lon="2.51538">
        <ele>233.1</ele>
        <time>2020-07-12T09:17:55Z</time>
      </trkpt>
      <trkpt lat="46.42383" lon="2.51546">
        <ele>232.7</ele>
        <time>2020-07-12T09:17:56Z</time>
      </trkpt>
      <trkpt lat="46.42384" lon="2.51553">
        <ele>233</ele>
        <time>2020-07-12T09:17:57Z</time>
      </trkpt>
      <trkpt lat="46.42385" lon="2.51561">
        <ele>233.2</ele>
        <time>2020-07-12T09:17:58Z</time>
      </trkpt>
      <trkpt lat="46.42386" lon="2.51569">
        <ele>233</ele>
        <time>2020-07-12T09:17:59Z</time>
      </trkpt>
      <trkpt lat="46.42387" lon="2.51577">
        <ele>232.8</ele>
        <time>2020-07-12T09:18:00Z</time>
      </trkpt>
      <trkpt lat="46.42388" lon="2.51584">
        <ele>232.7</ele>
        <time>2020-07-12T09:18:01Z</time>
      </trkpt>
      <trkpt lat="46.4239" lon="2.51592">
        <ele>232.4</ele>
        <time>2020-07-12T09:18:02Z</time>
      </trkpt>
      <trkpt lat="46.42391" lon="2.51599">
        <ele>232.3</ele>
        <time>2020-07-12T09:18:03Z</time>
      </trkpt>
      <trkpt lat="46.42392" lon="2.51607">
        <ele>232.2</ele>
        <time>2020-07-12T09:18:04Z</time>
      </trkpt>
      <trkpt lat="46.42393" lon="2.51614">
        <ele>232.2</ele>
        <time>2020-07-12T09:18:05Z</time>
      </trkpt>
      <trkpt lat="46.42394" lon="2.51622">
        <ele>231.7</ele>
        <time>2020-07-12T09:18:06Z</time>
      </trkpt>
      <trkpt lat="46.42394" lon="2.51629">
        <ele>231.4</ele>
        <time>2020-07-12T09:18:07Z</time>
      </trkpt>
      <trkpt lat="46.42395" lon="2.51637">
        <ele>231.1</ele>
        <time>2020-07-12T09:18:08Z</time>
      </trkpt>
      <trkpt lat="46.42395" lon="2.51645">
        <ele>231.6</ele>
        <time>2020-07-12T09:18:09Z</time>
      </trkpt>
      <trkpt lat="46.42395" lon="2.51652">
        <ele>231.9</ele>
        <time>2020-07-12T09:18:10Z</time>
      </trkpt>
      <trkpt lat="46.42395" lon="2.5166">
        <ele>232.1</ele>
        <time>2020-07-12T09:18:11Z</time>
      </trkpt>
      <trkpt lat="46.42395" lon="2.51667">
        <ele>232.2</ele>
        <time>2020-07-12T09:18:12Z</time>
      </trkpt>
      <trkpt lat="46.42395" lon="2.51675">
        <ele>232</ele>
        <time>2020-07-12T09:18:13Z</time>
      </trkpt>
      <trkpt lat="46.42395" lon="2.51682">
        <ele>231.8</ele>
        <time>2020-07-12T09:18:14Z</time>
      </trkpt>
      <trkpt lat="46.42394" lon="2.5169">
        <ele>231.7</ele>
        <time>2020-07-12T09:18:15Z</time>
      </trkpt>
      <trkpt lat="46.42394" lon="2.51697">
        <ele>231.3</ele>
        <time>2020-07-12T09:18:16Z</time>
      </trkpt>
      <trkpt lat="46.42394" lon="2.51704">
        <ele>230.9</ele>
        <time>2020-07-12T09:18:17Z</time>
      </trkpt>
      <trkpt lat="46.42393" lon="2.51712">
        <ele>231.2</ele>
        <time>2020-07-12T09:18:18Z</time>
      </trkpt>
      <trkpt lat="46.42392" lon="2.51719">
        <ele>231.4</ele>
        <time>2020-07-12T09:18:19Z</time>
      </trkpt>
      <trkpt lat="46.42392" lon="2.51726">
        <ele>231.5</ele>
        <time>2020-07-12T09:18:20Z</time>
      </trkpt>
      <trkpt lat="46.42391" lon="2.51733">
        <ele>231.7</ele>
        <time>2020-07-12T09:18:21Z</time>
      </trkpt>
      <trkpt lat="46.4239" lon="2.5174">
        <ele>231.8</ele>
        <time>2020-07-12T09:18:22Z</time>
      </trkpt>
      <trkpt lat="46.42389" lon="2.51747">
        <ele>231.5</ele>
        <time>2020-07-12T09:18:23Z</time>
      </trkpt>
      <trkpt lat="46.42387" lon="2.51753">
        <ele>231.2</ele>
        <time>2020-07-12T09:18:24Z</time>
      </trkpt>
      <trkpt lat="46.42386" lon="2.5176">
        <ele>230.9</ele>
        <time>2020-07-12T09:18:25Z</time>
      </trkpt>
      <trkpt lat="46.42385" lon="2.51767">
        <ele>230.6</ele>
        <time>2020-07-12T09:18:26Z</time>
      </trkpt>
      <trkpt lat="46.42384" lon="2.51774">
        <ele>230.4</ele>
        <time>2020-07-12T09:18:27Z</time>
      </trkpt>
      <trkpt lat="46.42383" lon="2.51781">
        <ele>230.6</ele>
        <time>2020-07-12T09:18:28Z</time>
      </trkpt>
      <trkpt lat="46.42381" lon="2.51787">
        <ele>230.8</ele>
        <time>2020-07-12T09:18:29Z</time>
      </trkpt>
      <trkpt lat="46.4238" lon="2.51794">
        <ele>230.8</ele>
        <time>2020-07-12T09:18:30Z</time>
      </trkpt>
      <trkpt lat="46.42379" lon="2.51802">
        <ele>230.8</ele>
        <time>2020-07-12T09:18:31Z</time>
      </trkpt>
      <trkpt lat="46.42378" lon="2.51809">
        <ele>230.2</ele>
        <time>2020-07-12T09:18:32Z</time>
      </trkpt>
      <trkpt lat="46.42377" lon="2.51816">
        <ele>229.8</ele>
        <time>2020-07-12T09:18:33Z</time>
      </trkpt>
      <trkpt lat="46.42377" lon="2.51824">
        <ele>229.5</ele>
        <time>2020-07-12T09:18:34Z</time>
      </trkpt>
      <trkpt lat="46.42376" lon="2.51831">
        <ele>229.4</ele>
        <time>2020-07-12T09:18:35Z</time>
      </trkpt>
      <trkpt lat="46.42376" lon="2.51838">
        <ele>229.4</ele>
        <time>2020-07-12T09:18:36Z</time>
      </trkpt>
      <trkpt lat="46.42375" lon="2.51846">
        <ele>230.1</ele>
        <time>2020-07-12T09:18:37Z</time>
      </trkpt>
      <trkpt lat="46.42375" lon="2.51853">
        <ele>230.6</ele>
        <time>2020-07-12T09:18:38Z</time>
      </trkpt>
      <trkpt lat="46.42374" lon="2.5186">
        <ele>231</ele>
        <time>2020-07-12T09:18:39Z</time>
      </trkpt>
      <trkpt lat="46.42374" lon="2.51868">
        <ele>230.6</ele>
        <time>2020-07-12T09:18:40Z</time>
      </trkpt>
      <trkpt lat="46.42374" lon="2.51875">
        <ele>230.3</ele>
        <time>2020-07-12T09:18:41Z</time>
      </trkpt>
      <trkpt lat="46.42374" lon="2.51882">
        <ele>229.9</ele>
        <time>2020-07-12T09:18:42Z</time>
      </trkpt>
      <trkpt lat="46.42373" lon="2.5189">
        <ele>229.6</ele>
        <time>2020-07-12T09:18:43Z</time>
      </trkpt>
      <trkpt lat="46.42374" lon="2.51897">
        <ele>229.6</ele>
        <time>2020-07-12T09:18:44Z</time>
      </trkpt>
      <trkpt lat="46.42375" lon="2.51904">
        <ele>229.6</ele>
        <time>2020-07-12T09:18:45Z</time>
      </trkpt>
      <trkpt lat="46.42376" lon="2.51911">
        <ele>229.6</ele>
        <time>2020-07-12T09:18:46Z</time>
      </trkpt>
      <trkpt lat="46.42378" lon="2.51918">
        <ele>229.9</ele>
        <time>2020-07-12T09:18:47Z</time>
      </trkpt>
      <trkpt lat="46.4238" lon="2.51924">
        <ele>230.2</ele>
        <time>2020-07-12T09:18:48Z</time>
      </trkpt>
      <trkpt lat="46.42383" lon="2.5193">
        <ele>229.9</ele>
        <time>2020-07-12T09:18:49Z</time>
      </trkpt>
      <trkpt lat="46.42385" lon="2.51936">
        <ele>229.6</ele>
        <time>2020-07-12T09:18:50Z</time>
      </trkpt>
      <trkpt lat="46.42387" lon="2.51943">
        <ele>229.6</ele>
        <time>2020-07-12T09:18:51Z</time>
      </trkpt>
      <trkpt lat="46.4239" lon="2.51949">
        <ele>229.6</ele>
        <time>2020-07-12T09:18:52Z</time>
      </trkpt>
      <trkpt lat="46.42393" lon="2.51955">
        <ele>229.6</ele>
        <time>2020-07-12T09:18:53Z</time>
      </trkpt>
      <trkpt lat="46.42395" lon="2.51961">
        <ele>229.5</ele>
        <time>2020-07-12T09:18:54Z</time>
      </trkpt>
      <trkpt lat="46.42398" lon="2.51968">
        <ele>229.5</ele>
        <time>2020-07-12T09:18:55Z</time>
      </trkpt>
      <trkpt lat="46.42401" lon="2.51974">
        <ele>229.5</ele>
        <time>2020-07-12T09:18:56Z</time>
      </trkpt>
      <trkpt lat="46.42404" lon="2.5198">
        <ele>229.6</ele>
        <time>2020-07-12T09:18:57Z</time>
      </trkpt>
      <trkpt lat="46.42407" lon="2.51987">
        <ele>229.6</ele>
        <time>2020-07-12T09:18:58Z</time>
      </trkpt>
      <trkpt lat="46.4241" lon="2.51993">
        <ele>229.6</ele>
        <time>2020-07-12T09:18:59Z</time>
      </trkpt>
      <trkpt lat="46.42413" lon="2.51999">
        <ele>229.6</ele>
        <time>2020-07-12T09:19:00Z</time>
      </trkpt>
      <trkpt lat="46.42415" lon="2.52005">
        <ele>229.5</ele>
        <time>2020-07-12T09:19:01Z</time>
      </trkpt>
      <trkpt lat="46.42418" lon="2.52012">
        <ele>229.5</ele>
        <time>2020-07-12T09:19:02Z</time>
      </trkpt>
      <trkpt lat="46.42421" lon="2.52018">
        <ele>229.5</ele>
        <time>2020-07-12T09:19:03Z</time>
      </trkpt>
      <trkpt lat="46.42424" lon="2.52024">
        <ele>229.4</ele>
        <time>2020-07-12T09:19:04Z</time>
      </trkpt>
      <trkpt lat="46.42426" lon="2.52031">
        <ele>229.4</ele>
        <time>2020-07-12T09:19:05Z</time>
      </trkpt>
      <trkpt lat="46.42429" lon="2.52037">
        <ele>229.4</ele>
        <time>2020-07-12T09:19:06Z</time>
      </trkpt>
      <trkpt lat="46.42431" lon="2.52043">
        <ele>229.4</ele>
        <time>2020-07-12T09:19:07Z</time>
      </trkpt>
      <trkpt lat="46.42434" lon="2.5205">
        <ele>229.2</ele>
        <time>2020-07-12T09:19:08Z</time>
      </trkpt>
      <trkpt lat="46.42436" lon="2.52057">
        <ele>229</ele>
        <time>2020-07-12T09:19:09Z</time>
      </trkpt>
      <trkpt lat="46.42438" lon="2.52064">
        <ele>229.4</ele>
        <time>2020-07-12T09:19:10Z</time>
      </trkpt>
      <trkpt lat="46.4244" lon="2.52071">
        <ele>229.8</ele>
        <time>2020-07-12T09:19:11Z</time>
      </trkpt>
      <trkpt lat="46.42441" lon="2.52078">
        <ele>230</ele>
        <time>2020-07-12T09:19:12Z</time>
      </trkpt>
      <trkpt lat="46.42443" lon="2.52085">
        <ele>229.7</ele>
        <time>2020-07-12T09:19:13Z</time>
      </trkpt>
      <trkpt lat="46.42445" lon="2.52092">
        <ele>229.5</ele>
        <time>2020-07-12T09:19:14Z</time>
      </trkpt>
      <trkpt lat="46.42447" lon="2.521">
        <ele>229.3</ele>
        <time>2020-07-12T09:19:15Z</time>
      </trkpt>
      <trkpt lat="46.42449" lon="2.52107">
        <ele>229.1</ele>
        <time>2020-07-12T09:19:16Z</time>
      </trkpt>
      <trkpt lat="46.4245" lon="2.52114">
        <ele>229</ele>
        <time>2020-07-12T09:19:17Z</time>
      </trkpt>
      <trkpt lat="46.42452" lon="2.52122">
        <ele>229.2</ele>
        <time>2020-07-12T09:19:18Z</time>
      </trkpt>
      <trkpt lat="46.42454" lon="2.52129">
        <ele>229.4</ele>
        <time>2020-07-12T09:19:19Z</time>
      </trkpt>
      <trkpt lat="46.42456" lon="2.52136">
        <ele>229.8</ele>
        <time>2020-07-12T09:19:20Z</time>
      </trkpt>
      <trkpt lat="46.42457" lon="2.52143">
        <ele>230.1</ele>
        <time>2020-07-12T09:19:21Z</time>
      </trkpt>
      <trkpt lat="46.42459" lon="2.52151">
        <ele>229.8</ele>
        <time>2020-07-12T09:19:22Z</time>
      </trkpt>
      <trkpt lat="46.42461" lon="2.52159">
        <ele>229.7</ele>
        <time>2020-07-12T09:19:23Z</time>
      </trkpt>
      <trkpt lat="46.42463" lon="2.52166">
        <ele>229.5</ele>
        <time>2020-07-12T09:19:24Z</time>
      </trkpt>
      <trkpt lat="46.42464" lon="2.52174">
        <ele>229.3</ele>
        <time>2020-07-12T09:19:25Z</time>
      </trkpt>
      <trkpt lat="46.42466" lon="2.52182">
        <ele>229.2</ele>
        <time>2020-07-12T09:19:26Z</time>
      </trkpt>
      <trkpt lat="46.42468" lon="2.52189">
        <ele>229.2</ele>
        <time>2020-07-12T09:19:27Z</time>
      </trkpt>
      <trkpt lat="46.42469" lon="2.52197">
        <ele>229.2</ele>
        <time>2020-07-12T09:19:28Z</time>
      </trkpt>
      <trkpt lat="46.42471" lon="2.52204">
        <ele>229.4</ele>
        <time>2020-07-12T09:19:29Z</time>
      </trkpt>
      <trkpt lat="46.42473" lon="2.52212">
        <ele>229.5</ele>
        <time>2020-07-12T09:19:30Z</time>
      </trkpt>
      <trkpt lat="46.42475" lon="2.5222">
        <ele>229.6</ele>
        <time>2020-07-12T09:19:31Z</time>
      </trkpt>
      <trkpt lat="46.42477" lon="2.52227">
        <ele>229.4</ele>
        <time>2020-07-12T09:19:32Z</time>
      </trkpt>
      <trkpt lat="46.42478" lon="2.52235">
        <ele>229.2</ele>
        <time>2020-07-12T09:19:33Z</time>
      </trkpt>
      <trkpt lat="46.4248" lon="2.52243">
        <ele>229</ele>
        <time>2020-07-12T09:19:34Z</time>
      </trkpt>
      <trkpt lat="46.42482" lon="2.5225">
        <ele>228.8</ele>
        <time>2020-07-12T09:19:35Z</time>
      </trkpt>
      <trkpt lat="46.42483" lon="2.52258">
        <ele>228.7</ele>
        <time>2020-07-12T09:19:36Z</time>
      </trkpt>
      <trkpt lat="46.42484" lon="2.52266">
        <ele>229.1</ele>
        <time>2020-07-12T09:19:37Z</time>
      </trkpt>
      <trkpt lat="46.42486" lon="2.52274">
        <ele>229.3</ele>
        <time>2020-07-12T09:19:38Z</time>
      </trkpt>
      <trkpt lat="46.42487" lon="2.52283">
        <ele>229.3</ele>
        <time>2020-07-12T09:19:39Z</time>
      </trkpt>
      <trkpt lat="46.42489" lon="2.52291">
        <ele>229.3</ele>
        <time>2020-07-12T09:19:40Z</time>
      </trkpt>
      <trkpt lat="46.4249" lon="2.52299">
        <ele>228.9</ele>
        <time>2020-07-12T09:19:41Z</time>
      </trkpt>
      <trkpt lat="46.42491" lon="2.52307">
        <ele>228.6</ele>
        <time>2020-07-12T09:19:42Z</time>
      </trkpt>
      <trkpt lat="46.42492" lon="2.52316">
        <ele>228.4</ele>
        <time>2020-07-12T09:19:43Z</time>
      </trkpt>
      <trkpt lat="46.42493" lon="2.52324">
        <ele>228.7</ele>
        <time>2020-07-12T09:19:44Z</time>
      </trkpt>
      <trkpt lat="46.42495" lon="2.52332">
        <ele>228.9</ele>
        <time>2020-07-12T09:19:45Z</time>
      </trkpt>
      <trkpt lat="46.42496" lon="2.52341">
        <ele>228.6</ele>
        <time>2020-07-12T09:19:46Z</time>
      </trkpt>
      <trkpt lat="46.42497" lon="2.52349">
        <ele>228.4</ele>
        <time>2020-07-12T09:19:47Z</time>
      </trkpt>
      <trkpt lat="46.42498" lon="2.52358">
        <ele>228.6</ele>
        <time>2020-07-12T09:19:48Z</time>
      </trkpt>
      <trkpt lat="46.425" lon="2.52366">
        <ele>228.8</ele>
        <time>2020-07-12T09:19:49Z</time>
      </trkpt>
      <trkpt lat="46.42501" lon="2.52374">
        <ele>229</ele>
        <time>2020-07-12T09:19:50Z</time>
      </trkpt>
      <trkpt lat="46.42503" lon="2.52383">
        <ele>228.5</ele>
        <time>2020-07-12T09:19:51Z</time>
      </trkpt>
      <trkpt lat="46.42504" lon="2.52391">
        <ele>228.1</ele>
        <time>2020-07-12T09:19:52Z</time>
      </trkpt>
      <trkpt lat="46.42505" lon="2.52399">
        <ele>228.2</ele>
        <time>2020-07-12T09:19:53Z</time>
      </trkpt>
      <trkpt lat="46.42507" lon="2.52407">
        <ele>228.2</ele>
        <time>2020-07-12T09:19:54Z</time>
      </trkpt>
      <trkpt lat="46.42509" lon="2.52415">
        <ele>228.2</ele>
        <time>2020-07-12T09:19:55Z</time>
      </trkpt>
      <trkpt lat="46.42511" lon="2.52423">
        <ele>228.5</ele>
        <time>2020-07-12T09:19:56Z</time>
      </trkpt>
      <trkpt lat="46.42513" lon="2.52431">
        <ele>228.8</ele>
        <time>2020-07-12T09:19:57Z</time>
      </trkpt>
      <trkpt lat="46.42515" lon="2.52439">
        <ele>228.2</ele>
        <time>2020-07-12T09:19:58Z</time>
      </trkpt>
      <trkpt lat="46.42518" lon="2.52447">
        <ele>227.8</ele>
        <time>2020-07-12T09:19:59Z</time>
      </trkpt>
      <trkpt lat="46.4252" lon="2.52455">
        <ele>228.2</ele>
        <time>2020-07-12T09:20:00Z</time>
      </trkpt>
      <trkpt lat="46.42522" lon="2.52462">
        <ele>228.5</ele>
        <time>2020-07-12T09:20:01Z</time>
      </trkpt>
      <trkpt lat="46.42524" lon="2.5247">
        <ele>228.7</ele>
        <time>2020-07-12T09:20:02Z</time>
      </trkpt>
      <trkpt lat="46.42526" lon="2.52477">
        <ele>229.3</ele>
        <time>2020-07-12T09:20:03Z</time>
      </trkpt>
      <trkpt lat="46.42528" lon="2.52485">
        <ele>229.8</ele>
        <time>2020-07-12T09:20:04Z</time>
      </trkpt>
      <trkpt lat="46.4253" lon="2.52492">
        <ele>229.2</ele>
        <time>2020-07-12T09:20:05Z</time>
      </trkpt>
      <trkpt lat="46.42532" lon="2.525">
        <ele>228.7</ele>
        <time>2020-07-12T09:20:06Z</time>
      </trkpt>
      <trkpt lat="46.42534" lon="2.52507">
        <ele>228.5</ele>
        <time>2020-07-12T09:20:07Z</time>
      </trkpt>
      <trkpt lat="46.42536" lon="2.52515">
        <ele>228.3</ele>
        <time>2020-07-12T09:20:08Z</time>
      </trkpt>
      <trkpt lat="46.42538" lon="2.52523">
        <ele>228.2</ele>
        <time>2020-07-12T09:20:09Z</time>
      </trkpt>
      <trkpt lat="46.4254" lon="2.5253">
        <ele>228</ele>
        <time>2020-07-12T09:20:10Z</time>
      </trkpt>
      <trkpt lat="46.42543" lon="2.52537">
        <ele>227.9</ele>
        <time>2020-07-12T09:20:11Z</time>
      </trkpt>
      <trkpt lat="46.42545" lon="2.52545">
        <ele>227.9</ele>
        <time>2020-07-12T09:20:12Z</time>
      </trkpt>
      <trkpt lat="46.42547" lon="2.52553">
        <ele>227.8</ele>
        <time>2020-07-12T09:20:13Z</time>
      </trkpt>
      <trkpt lat="46.42549" lon="2.5256">
        <ele>227.8</ele>
        <time>2020-07-12T09:20:14Z</time>
      </trkpt>
      <trkpt lat="46.42551" lon="2.52568">
        <ele>227.2</ele>
        <time>2020-07-12T09:20:15Z</time>
      </trkpt>
      <trkpt lat="46.42553" lon="2.52576">
        <ele>226.8</ele>
        <time>2020-07-12T09:20:16Z</time>
      </trkpt>
      <trkpt lat="46.42555" lon="2.52585">
        <ele>227.5</ele>
        <time>2020-07-12T09:20:17Z</time>
      </trkpt>
      <trkpt lat="46.42557" lon="2.52593">
        <ele>228</ele>
        <time>2020-07-12T09:20:18Z</time>
      </trkpt>
      <trkpt lat="46.4256" lon="2.52601">
        <ele>228.2</ele>
        <time>2020-07-12T09:20:19Z</time>
      </trkpt>
      <trkpt lat="46.42562" lon="2.52608">
        <ele>228.3</ele>
        <time>2020-07-12T09:20:20Z</time>
      </trkpt>
      <trkpt lat="46.42564" lon="2.52616">
        <ele>228.5</ele>
        <time>2020-07-12T09:20:21Z</time>
      </trkpt>
      <trkpt lat="46.42565" lon="2.52624">
        <ele>228.3</ele>
        <time>2020-07-12T09:20:22Z</time>
      </trkpt>
      <trkpt lat="46.42567" lon="2.52632">
        <ele>228.2</ele>
        <time>2020-07-12T09:20:23Z</time>
      </trkpt>
      <trkpt lat="46.42568" lon="2.5264">
        <ele>227.6</ele>
        <time>2020-07-12T09:20:24Z</time>
      </trkpt>
      <trkpt lat="46.4257" lon="2.52648">
        <ele>227.1</ele>
        <time>2020-07-12T09:20:25Z</time>
      </trkpt>
      <trkpt lat="46.42571" lon="2.52656">
        <ele>226.9</ele>
        <time>2020-07-12T09:20:26Z</time>
      </trkpt>
      <trkpt lat="46.42572" lon="2.52664">
        <ele>226.8</ele>
        <time>2020-07-12T09:20:27Z</time>
      </trkpt>
      <trkpt lat="46.42573" lon="2.52672">
        <ele>226.7</ele>
        <time>2020-07-12T09:20:28Z</time>
      </trkpt>
      <trkpt lat="46.42573" lon="2.5268">
        <ele>226.8</ele>
        <time>2020-07-12T09:20:29Z</time>
      </trkpt>
      <trkpt lat="46.42574" lon="2.52689">
        <ele>226.9</ele>
        <time>2020-07-12T09:20:30Z</time>
      </trkpt>
      <trkpt lat="46.42575" lon="2.52696">
        <ele>227</ele>
        <time>2020-07-12T09:20:31Z</time>
      </trkpt>
      <trkpt lat="46.42577" lon="2.52704">
        <ele>227.1</ele>
        <time>2020-07-12T09:20:32Z</time>
      </trkpt>
      <trkpt lat="46.42579" lon="2.52712">
        <ele>227.2</ele>
        <time>2020-07-12T09:20:33Z</time>
      </trkpt>
      <trkpt lat="46.42581" lon="2.52719">
        <ele>226.6</ele>
        <time>2020-07-12T09:20:34Z</time>
      </trkpt>
      <trkpt lat="46.42582" lon="2.52726">
        <ele>226.2</ele>
        <time>2020-07-12T09:20:35Z</time>
      </trkpt>
      <trkpt lat="46.42582" lon="2.52733">
        <ele>226.1</ele>
        <time>2020-07-12T09:20:36Z</time>
      </trkpt>
      <trkpt lat="46.4258" lon="2.5274">
        <ele>226</ele>
        <time>2020-07-12T09:20:37Z</time>
      </trkpt>
      <trkpt lat="46.42576" lon="2.52746">
        <ele>225.9</ele>
        <time>2020-07-12T09:20:38Z</time>
      </trkpt>
      <trkpt lat="46.4257" lon="2.5275">
        <ele>225.8</ele>
        <time>2020-07-12T09:20:39Z</time>
      </trkpt>
      <trkpt lat="46.42564" lon="2.52753">
        <ele>225.7</ele>
        <time>2020-07-12T09:20:40Z</time>
      </trkpt>
      <trkpt lat="46.42559" lon="2.52757">
        <ele>225.4</ele>
        <time>2020-07-12T09:20:41Z</time>
      </trkpt>
      <trkpt lat="46.42553" lon="2.5276">
        <ele>225.2</ele>
        <time>2020-07-12T09:20:42Z</time>
      </trkpt>
      <trkpt lat="46.42548" lon="2.52763">
        <ele>224.9</ele>
        <time>2020-07-12T09:20:43Z</time>
      </trkpt>
      <trkpt lat="46.42542" lon="2.52766">
        <ele>224.7</ele>
        <time>2020-07-12T09:20:44Z</time>
      </trkpt>
      <trkpt lat="46.42537" lon="2.52769">
        <ele>224.6</ele>
        <time>2020-07-12T09:20:45Z</time>
      </trkpt>
      <trkpt lat="46.42531" lon="2.52772">
        <ele>224.5</ele>
        <time>2020-07-12T09:20:46Z</time>
      </trkpt>
      <trkpt lat="46.42526" lon="2.52774">
        <ele>224.5</ele>
        <time>2020-07-12T09:20:47Z</time>
      </trkpt>
      <trkpt lat="46.4252" lon="2.52777">
        <ele>224</ele>
        <time>2020-07-12T09:20:48Z</time>
      </trkpt>
      <trkpt lat="46.42514" lon="2.5278">
        <ele>223.6</ele>
        <time>2020-07-12T09:20:49Z</time>
      </trkpt>
      <trkpt lat="46.42509" lon="2.52783">
        <ele>224</ele>
        <time>2020-07-12T09:20:50Z</time>
      </trkpt>
      <trkpt lat="46.42503" lon="2.52786">
        <ele>224.3</ele>
        <time>2020-07-12T09:20:51Z</time>
      </trkpt>
      <trkpt lat="46.42498" lon="2.52789">
        <ele>224.5</ele>
        <time>2020-07-12T09:20:52Z</time>
      </trkpt>
      <trkpt lat="46.42492" lon="2.52792">
        <ele>224.7</ele>
        <time>2020-07-12T09:20:53Z</time>
      </trkpt>
      <trkpt lat="46.42487" lon="2.52794">
        <ele>224.9</ele>
        <time>2020-07-12T09:20:54Z</time>
      </trkpt>
      <trkpt lat="46.42482" lon="2.52797">
        <ele>225</ele>
        <time>2020-07-12T09:20:55Z</time>
      </trkpt>
      <trkpt lat="46.42478" lon="2.52801">
        <ele>225</ele>
        <time>2020-07-12T09:20:56Z</time>
      </trkpt>
      <trkpt lat="46.42473" lon="2.52804">
        <ele>224.7</ele>
        <time>2020-07-12T09:20:57Z</time>
      </trkpt>
      <trkpt lat="46.42468" lon="2.52808">
        <ele>224.5</ele>
        <time>2020-07-12T09:20:58Z</time>
      </trkpt>
      <trkpt lat="46.42464" lon="2.52813">
        <ele>224.4</ele>
        <time>2020-07-12T09:20:59Z</time>
      </trkpt>
      <trkpt lat="46.42459" lon="2.52817">
        <ele>224.8</ele>
        <time>2020-07-12T09:21:00Z</time>
      </trkpt>
      <trkpt lat="46.42454" lon="2.52821">
        <ele>225.1</ele>
        <time>2020-07-12T09:21:01Z</time>
      </trkpt>
      <trkpt lat="46.4245" lon="2.52826">
        <ele>225.3</ele>
        <time>2020-07-12T09:21:02Z</time>
      </trkpt>
      <trkpt lat="46.42445" lon="2.5283">
        <ele>225.5</ele>
        <time>2020-07-12T09:21:03Z</time>
      </trkpt>
      <trkpt lat="46.42441" lon="2.52834">
        <ele>225.3</ele>
        <time>2020-07-12T09:21:04Z</time>
      </trkpt>
      <trkpt lat="46.42436" lon="2.52839">
        <ele>225.1</ele>
        <time>2020-07-12T09:21:05Z</time>
      </trkpt>
      <trkpt lat="46.42432" lon="2.52843">
        <ele>225</ele>
        <time>2020-07-12T09:21:06Z</time>
      </trkpt>
      <trkpt lat="46.42428" lon="2.52847">
        <ele>225.2</ele>
        <time>2020-07-12T09:21:07Z</time>
      </trkpt>
      <trkpt lat="46.42423" lon="2.52851">
        <ele>225.2</ele>
        <time>2020-07-12T09:21:08Z</time>
      </trkpt>
      <trkpt lat="46.42419" lon="2.52856">
        <ele>225.5</ele>
        <time>2020-07-12T09:21:09Z</time>
      </trkpt>
      <trkpt lat="46.42415" lon="2.5286">
        <ele>225.8</ele>
        <time>2020-07-12T09:21:10Z</time>
      </trkpt>
      <trkpt lat="46.42411" lon="2.52864">
        <ele>225.5</ele>
        <time>2020-07-12T09:21:11Z</time>
      </trkpt>
      <trkpt lat="46.42406" lon="2.52869">
        <ele>225.3</ele>
        <time>2020-07-12T09:21:12Z</time>
      </trkpt>
      <trkpt lat="46.42402" lon="2.52873">
        <ele>225.2</ele>
        <time>2020-07-12T09:21:13Z</time>
      </trkpt>
      <trkpt lat="46.42398" lon="2.52878">
        <ele>225.1</ele>
        <time>2020-07-12T09:21:14Z</time>
      </trkpt>
      <trkpt lat="46.42394" lon="2.52882">
        <ele>225.1</ele>
        <time>2020-07-12T09:21:15Z</time>
      </trkpt>
      <trkpt lat="46.4239" lon="2.52887">
        <ele>224.5</ele>
        <time>2020-07-12T09:21:16Z</time>
      </trkpt>
      <trkpt lat="46.42387" lon="2.52892">
        <ele>224.1</ele>
        <time>2020-07-12T09:21:17Z</time>
      </trkpt>
      <trkpt lat="46.42383" lon="2.52896">
        <ele>223.8</ele>
        <time>2020-07-12T09:21:18Z</time>
      </trkpt>
      <trkpt lat="46.42379" lon="2.529">
        <ele>224.2</ele>
        <time>2020-07-12T09:21:19Z</time>
      </trkpt>
      <trkpt lat="46.42374" lon="2.52904">
        <ele>224.5</ele>
        <time>2020-07-12T09:21:20Z</time>
      </trkpt>
      <trkpt lat="46.4237" lon="2.52908">
        <ele>224.4</ele>
        <time>2020-07-12T09:21:21Z</time>
      </trkpt>
      <trkpt lat="46.42367" lon="2.52913">
        <ele>224.3</ele>
        <time>2020-07-12T09:21:22Z</time>
      </trkpt>
      <trkpt lat="46.42362" lon="2.52916">
        <ele>224.5</ele>
        <time>2020-07-12T09:21:23Z</time>
      </trkpt>
      <trkpt lat="46.42354" lon="2.52922">
        <ele>224.6</ele>
        <time>2020-07-12T09:21:25Z</time>
      </trkpt>
      <trkpt lat="46.42346" lon="2.52925">
        <ele>225.6</ele>
        <time>2020-07-12T09:21:27Z</time>
      </trkpt>
      <trkpt lat="46.42338" lon="2.52929">
        <ele>225.8</ele>
        <time>2020-07-12T09:21:29Z</time>
      </trkpt>
      <trkpt lat="46.42334" lon="2.5293">
        <ele>225.9</ele>
        <time>2020-07-12T09:21:30Z</time>
      </trkpt>
      <trkpt lat="46.42329" lon="2.52932">
        <ele>225.9</ele>
        <time>2020-07-12T09:21:31Z</time>
      </trkpt>
      <trkpt lat="46.42324" lon="2.52935">
        <ele>225.8</ele>
        <time>2020-07-12T09:21:32Z</time>
      </trkpt>
      <trkpt lat="46.42319" lon="2.52937">
        <ele>225.7</ele>
        <time>2020-07-12T09:21:33Z</time>
      </trkpt>
      <trkpt lat="46.42313" lon="2.52939">
        <ele>225.5</ele>
        <time>2020-07-12T09:21:34Z</time>
      </trkpt>
      <trkpt lat="46.42307" lon="2.52942">
        <ele>225.4</ele>
        <time>2020-07-12T09:21:35Z</time>
      </trkpt>
      <trkpt lat="46.42302" lon="2.52944">
        <ele>225.3</ele>
        <time>2020-07-12T09:21:36Z</time>
      </trkpt>
      <trkpt lat="46.42296" lon="2.52947">
        <ele>225.3</ele>
        <time>2020-07-12T09:21:37Z</time>
      </trkpt>
      <trkpt lat="46.4229" lon="2.52949">
        <ele>225.3</ele>
        <time>2020-07-12T09:21:38Z</time>
      </trkpt>
      <trkpt lat="46.42284" lon="2.52952">
        <ele>225.3</ele>
        <time>2020-07-12T09:21:39Z</time>
      </trkpt>
      <trkpt lat="46.42278" lon="2.52955">
        <ele>225.8</ele>
        <time>2020-07-12T09:21:40Z</time>
      </trkpt>
      <trkpt lat="46.42272" lon="2.52958">
        <ele>226.1</ele>
        <time>2020-07-12T09:21:41Z</time>
      </trkpt>
      <trkpt lat="46.42267" lon="2.5296">
        <ele>226.1</ele>
        <time>2020-07-12T09:21:42Z</time>
      </trkpt>
      <trkpt lat="46.42261" lon="2.52963">
        <ele>226</ele>
        <time>2020-07-12T09:21:43Z</time>
      </trkpt>
      <trkpt lat="46.42256" lon="2.52965">
        <ele>226</ele>
        <time>2020-07-12T09:21:44Z</time>
      </trkpt>
      <trkpt lat="46.42251" lon="2.52968">
        <ele>226.4</ele>
        <time>2020-07-12T09:21:45Z</time>
      </trkpt>
      <trkpt lat="46.42246" lon="2.52971">
        <ele>226.7</ele>
        <time>2020-07-12T09:21:46Z</time>
      </trkpt>
      <trkpt lat="46.42241" lon="2.52973">
        <ele>226.6</ele>
        <time>2020-07-12T09:21:47Z</time>
      </trkpt>
      <trkpt lat="46.42236" lon="2.52976">
        <ele>226.5</ele>
        <time>2020-07-12T09:21:48Z</time>
      </trkpt>
      <trkpt lat="46.42232" lon="2.52978">
        <ele>226.5</ele>
        <time>2020-07-12T09:21:49Z</time>
      </trkpt>
      <trkpt lat="46.42227" lon="2.52981">
        <ele>226.4</ele>
        <time>2020-07-12T09:21:50Z</time>
      </trkpt>
      <trkpt lat="46.42223" lon="2.52984">
        <ele>226.4</ele>
        <time>2020-07-12T09:21:51Z</time>
      </trkpt>
      <trkpt lat="46.42215" lon="2.52989">
        <ele>226.9</ele>
        <time>2020-07-12T09:21:53Z</time>
      </trkpt>
      <trkpt lat="46.42207" lon="2.52994">
        <ele>227.5</ele>
        <time>2020-07-12T09:21:55Z</time>
      </trkpt>
      <trkpt lat="46.422" lon="2.53">
        <ele>227.7</ele>
        <time>2020-07-12T09:21:57Z</time>
      </trkpt>
      <trkpt lat="46.42192" lon="2.53006">
        <ele>228.2</ele>
        <time>2020-07-12T09:21:59Z</time>
      </trkpt>
      <trkpt lat="46.42184" lon="2.53011">
        <ele>228.4</ele>
        <time>2020-07-12T09:22:01Z</time>
      </trkpt>
      <trkpt lat="46.42177" lon="2.53017">
        <ele>228.1</ele>
        <time>2020-07-12T09:22:03Z</time>
      </trkpt>
      <trkpt lat="46.42174" lon="2.53019">
        <ele>228.7</ele>
        <time>2020-07-12T09:22:04Z</time>
      </trkpt>
      <trkpt lat="46.42164" lon="2.53027">
        <ele>228.8</ele>
        <time>2020-07-12T09:22:07Z</time>
      </trkpt>
      <trkpt lat="46.42157" lon="2.53033">
        <ele>229.4</ele>
        <time>2020-07-12T09:22:09Z</time>
      </trkpt>
      <trkpt lat="46.4215" lon="2.53038">
        <ele>229.8</ele>
        <time>2020-07-12T09:22:11Z</time>
      </trkpt>
      <trkpt lat="46.42143" lon="2.53044">
        <ele>230.5</ele>
        <time>2020-07-12T09:22:13Z</time>
      </trkpt>
      <trkpt lat="46.42137" lon="2.5305">
        <ele>231</ele>
        <time>2020-07-12T09:22:15Z</time>
      </trkpt>
      <trkpt lat="46.42133" lon="2.53059">
        <ele>231.3</ele>
        <time>2020-07-12T09:22:17Z</time>
      </trkpt>
      <trkpt lat="46.42131" lon="2.53069">
        <ele>232.6</ele>
        <time>2020-07-12T09:22:19Z</time>
      </trkpt>
      <trkpt lat="46.42132" lon="2.53078">
        <ele>233.5</ele>
        <time>2020-07-12T09:22:21Z</time>
      </trkpt>
      <trkpt lat="46.42135" lon="2.53088">
        <ele>233.6</ele>
        <time>2020-07-12T09:22:23Z</time>
      </trkpt>
      <trkpt lat="46.42138" lon="2.53097">
        <ele>233.6</ele>
        <time>2020-07-12T09:22:25Z</time>
      </trkpt>
      <trkpt lat="46.42142" lon="2.53107">
        <ele>233.8</ele>
        <time>2020-07-12T09:22:27Z</time>
      </trkpt>
      <trkpt lat="46.42146" lon="2.53117">
        <ele>233.8</ele>
        <time>2020-07-12T09:22:29Z</time>
      </trkpt>
      <trkpt lat="46.4215" lon="2.53128">
        <ele>233.5</ele>
        <time>2020-07-12T09:22:31Z</time>
      </trkpt>
      <trkpt lat="46.42155" lon="2.53138">
        <ele>232.7</ele>
        <time>2020-07-12T09:22:33Z</time>
      </trkpt>
      <trkpt lat="46.42157" lon="2.53144">
        <ele>232.5</ele>
        <time>2020-07-12T09:22:34Z</time>
      </trkpt>
      <trkpt lat="46.4216" lon="2.53149">
        <ele>232.8</ele>
        <time>2020-07-12T09:22:35Z</time>
      </trkpt>
      <trkpt lat="46.42162" lon="2.53155">
        <ele>233</ele>
        <time>2020-07-12T09:22:36Z</time>
      </trkpt>
      <trkpt lat="46.42164" lon="2.53162">
        <ele>232.8</ele>
        <time>2020-07-12T09:22:37Z</time>
      </trkpt>
      <trkpt lat="46.42165" lon="2.53169">
        <ele>232.6</ele>
        <time>2020-07-12T09:22:38Z</time>
      </trkpt>
      <trkpt lat="46.42165" lon="2.53176">
        <ele>232.3</ele>
        <time>2020-07-12T09:22:39Z</time>
      </trkpt>
      <trkpt lat="46.42164" lon="2.53183">
        <ele>232.1</ele>
        <time>2020-07-12T09:22:40Z</time>
      </trkpt>
      <trkpt lat="46.42161" lon="2.53189">
        <ele>231.9</ele>
        <time>2020-07-12T09:22:41Z</time>
      </trkpt>
      <trkpt lat="46.42159" lon="2.53195">
        <ele>232.3</ele>
        <time>2020-07-12T09:22:42Z</time>
      </trkpt>
      <trkpt lat="46.42155" lon="2.532">
        <ele>232.6</ele>
        <time>2020-07-12T09:22:43Z</time>
      </trkpt>
      <trkpt lat="46.42149" lon="2.53209">
        <ele>232.7</ele>
        <time>2020-07-12T09:22:45Z</time>
      </trkpt>
      <trkpt lat="46.42142" lon="2.53217">
        <ele>232.5</ele>
        <time>2020-07-12T09:22:47Z</time>
      </trkpt>
      <trkpt lat="46.42136" lon="2.53225">
        <ele>232.5</ele>
        <time>2020-07-12T09:22:49Z</time>
      </trkpt>
      <trkpt lat="46.42129" lon="2.53233">
        <ele>232.4</ele>
        <time>2020-07-12T09:22:51Z</time>
      </trkpt>
      <trkpt lat="46.42122" lon="2.53241">
        <ele>232.2</ele>
        <time>2020-07-12T09:22:53Z</time>
      </trkpt>
      <trkpt lat="46.42115" lon="2.53248">
        <ele>232.8</ele>
        <time>2020-07-12T09:22:55Z</time>
      </trkpt>
      <trkpt lat="46.42107" lon="2.53254">
        <ele>233</ele>
        <time>2020-07-12T09:22:57Z</time>
      </trkpt>
      <trkpt lat="46.42099" lon="2.5326">
        <ele>233.5</ele>
        <time>2020-07-12T09:22:59Z</time>
      </trkpt>
      <trkpt lat="46.42092" lon="2.53267">
        <ele>233.5</ele>
        <time>2020-07-12T09:23:01Z</time>
      </trkpt>
      <trkpt lat="46.42086" lon="2.53274">
        <ele>233.9</ele>
        <time>2020-07-12T09:23:03Z</time>
      </trkpt>
      <trkpt lat="46.42081" lon="2.53283">
        <ele>234.9</ele>
        <time>2020-07-12T09:23:05Z</time>
      </trkpt>
      <trkpt lat="46.42079" lon="2.53288">
        <ele>235.3</ele>
        <time>2020-07-12T09:23:06Z</time>
      </trkpt>
      <trkpt lat="46.42078" lon="2.533">
        <ele>235.3</ele>
        <time>2020-07-12T09:23:08Z</time>
      </trkpt>
      <trkpt lat="46.42078" lon="2.53307">
        <ele>235</ele>
        <time>2020-07-12T09:23:09Z</time>
      </trkpt>
      <trkpt lat="46.42079" lon="2.53314">
        <ele>235.4</ele>
        <time>2020-07-12T09:23:10Z</time>
      </trkpt>
      <trkpt lat="46.42081" lon="2.53321">
        <ele>235.7</ele>
        <time>2020-07-12T09:23:11Z</time>
      </trkpt>
      <trkpt lat="46.42083" lon="2.53328">
        <ele>234.9</ele>
        <time>2020-07-12T09:23:12Z</time>
      </trkpt>
      <trkpt lat="46.42085" lon="2.53336">
        <ele>234.4</ele>
        <time>2020-07-12T09:23:13Z</time>
      </trkpt>
      <trkpt lat="46.42087" lon="2.53342">
        <ele>233.9</ele>
        <time>2020-07-12T09:23:14Z</time>
      </trkpt>
      <trkpt lat="46.42089" lon="2.53349">
        <ele>233.3</ele>
        <time>2020-07-12T09:23:15Z</time>
      </trkpt>
      <trkpt lat="46.42092" lon="2.53356">
        <ele>232.8</ele>
        <time>2020-07-12T09:23:16Z</time>
      </trkpt>
      <trkpt lat="46.42094" lon="2.53363">
        <ele>232.9</ele>
        <time>2020-07-12T09:23:17Z</time>
      </trkpt>
      <trkpt lat="46.42096" lon="2.5337">
        <ele>233</ele>
        <time>2020-07-12T09:23:18Z</time>
      </trkpt>
      <trkpt lat="46.42099" lon="2.53376">
        <ele>233</ele>
        <time>2020-07-12T09:23:19Z</time>
      </trkpt>
      <trkpt lat="46.42101" lon="2.53383">
        <ele>233.2</ele>
        <time>2020-07-12T09:23:20Z</time>
      </trkpt>
      <trkpt lat="46.42103" lon="2.5339">
        <ele>233.3</ele>
        <time>2020-07-12T09:23:21Z</time>
      </trkpt>
      <trkpt lat="46.42106" lon="2.53397">
        <ele>233.4</ele>
        <time>2020-07-12T09:23:22Z</time>
      </trkpt>
      <trkpt lat="46.42108" lon="2.53404">
        <ele>233.5</ele>
        <time>2020-07-12T09:23:23Z</time>
      </trkpt>
      <trkpt lat="46.4211" lon="2.53411">
        <ele>233.2</ele>
        <time>2020-07-12T09:23:24Z</time>
      </trkpt>
      <trkpt lat="46.42113" lon="2.53417">
        <ele>233</ele>
        <time>2020-07-12T09:23:25Z</time>
      </trkpt>
      <trkpt lat="46.42115" lon="2.53424">
        <ele>232.9</ele>
        <time>2020-07-12T09:23:26Z</time>
      </trkpt>
      <trkpt lat="46.42117" lon="2.5343">
        <ele>232.7</ele>
        <time>2020-07-12T09:23:27Z</time>
      </trkpt>
      <trkpt lat="46.42119" lon="2.53437">
        <ele>232.5</ele>
        <time>2020-07-12T09:23:28Z</time>
      </trkpt>
      <trkpt lat="46.42121" lon="2.53444">
        <ele>232.7</ele>
        <time>2020-07-12T09:23:29Z</time>
      </trkpt>
      <trkpt lat="46.42123" lon="2.5345">
        <ele>232.8</ele>
        <time>2020-07-12T09:23:30Z</time>
      </trkpt>
      <trkpt lat="46.42125" lon="2.53456">
        <ele>232.7</ele>
        <time>2020-07-12T09:23:31Z</time>
      </trkpt>
      <trkpt lat="46.42127" lon="2.53463">
        <ele>232.6</ele>
        <time>2020-07-12T09:23:32Z</time>
      </trkpt>
      <trkpt lat="46.42129" lon="2.53469">
        <ele>232.5</ele>
        <time>2020-07-12T09:23:33Z</time>
      </trkpt>
      <trkpt lat="46.42132" lon="2.53476">
        <ele>232.6</ele>
        <time>2020-07-12T09:23:34Z</time>
      </trkpt>
      <trkpt lat="46.42134" lon="2.53482">
        <ele>232.7</ele>
        <time>2020-07-12T09:23:35Z</time>
      </trkpt>
      <trkpt lat="46.42136" lon="2.53489">
        <ele>232.5</ele>
        <time>2020-07-12T09:23:36Z</time>
      </trkpt>
      <trkpt lat="46.42138" lon="2.53496">
        <ele>232.3</ele>
        <time>2020-07-12T09:23:37Z</time>
      </trkpt>
      <trkpt lat="46.4214" lon="2.53503">
        <ele>232.2</ele>
        <time>2020-07-12T09:23:38Z</time>
      </trkpt>
      <trkpt lat="46.42142" lon="2.53511">
        <ele>232</ele>
        <time>2020-07-12T09:23:39Z</time>
      </trkpt>
      <trkpt lat="46.42144" lon="2.53518">
        <ele>231.8</ele>
        <time>2020-07-12T09:23:40Z</time>
      </trkpt>
      <trkpt lat="46.42147" lon="2.53525">
        <ele>232</ele>
        <time>2020-07-12T09:23:41Z</time>
      </trkpt>
      <trkpt lat="46.42149" lon="2.53532">
        <ele>232.3</ele>
        <time>2020-07-12T09:23:42Z</time>
      </trkpt>
      <trkpt lat="46.42152" lon="2.5354">
        <ele>231.9</ele>
        <time>2020-07-12T09:23:43Z</time>
      </trkpt>
      <trkpt lat="46.42154" lon="2.53547">
        <ele>231.6</ele>
        <time>2020-07-12T09:23:44Z</time>
      </trkpt>
      <trkpt lat="46.42157" lon="2.53554">
        <ele>231.4</ele>
        <time>2020-07-12T09:23:45Z</time>
      </trkpt>
      <trkpt lat="46.42159" lon="2.53561">
        <ele>231.3</ele>
        <time>2020-07-12T09:23:46Z</time>
      </trkpt>
      <trkpt lat="46.42161" lon="2.53568">
        <ele>231.2</ele>
        <time>2020-07-12T09:23:47Z</time>
      </trkpt>
      <trkpt lat="46.42164" lon="2.53575">
        <ele>231.1</ele>
        <time>2020-07-12T09:23:48Z</time>
      </trkpt>
      <trkpt lat="46.42166" lon="2.53582">
        <ele>231.1</ele>
        <time>2020-07-12T09:23:49Z</time>
      </trkpt>
      <trkpt lat="46.42169" lon="2.53589">
        <ele>231</ele>
        <time>2020-07-12T09:23:50Z</time>
      </trkpt>
      <trkpt lat="46.42171" lon="2.53596">
        <ele>231.2</ele>
        <time>2020-07-12T09:23:51Z</time>
      </trkpt>
      <trkpt lat="46.42173" lon="2.53602">
        <ele>231.4</ele>
        <time>2020-07-12T09:23:52Z</time>
      </trkpt>
      <trkpt lat="46.42174" lon="2.53609">
        <ele>231</ele>
        <time>2020-07-12T09:23:53Z</time>
      </trkpt>
      <trkpt lat="46.42177" lon="2.53616">
        <ele>230.6</ele>
        <time>2020-07-12T09:23:54Z</time>
      </trkpt>
      <trkpt lat="46.42179" lon="2.53623">
        <ele>230.8</ele>
        <time>2020-07-12T09:23:55Z</time>
      </trkpt>
      <trkpt lat="46.4218" lon="2.53629">
        <ele>231</ele>
        <time>2020-07-12T09:23:56Z</time>
      </trkpt>
      <trkpt lat="46.42182" lon="2.53636">
        <ele>231.1</ele>
        <time>2020-07-12T09:23:57Z</time>
      </trkpt>
      <trkpt lat="46.42184" lon="2.53643">
        <ele>230.7</ele>
        <time>2020-07-12T09:23:58Z</time>
      </trkpt>
      <trkpt lat="46.42186" lon="2.5365">
        <ele>230.4</ele>
        <time>2020-07-12T09:23:59Z</time>
      </trkpt>
      <trkpt lat="46.42188" lon="2.53656">
        <ele>230.2</ele>
        <time>2020-07-12T09:24:00Z</time>
      </trkpt>
      <trkpt lat="46.4219" lon="2.53663">
        <ele>230</ele>
        <time>2020-07-12T09:24:01Z</time>
      </trkpt>
      <trkpt lat="46.42192" lon="2.53669">
        <ele>230</ele>
        <time>2020-07-12T09:24:02Z</time>
      </trkpt>
      <trkpt lat="46.42196" lon="2.53681">
        <ele>230</ele>
        <time>2020-07-12T09:24:04Z</time>
      </trkpt>
      <trkpt lat="46.422" lon="2.53692">
        <ele>230</ele>
        <time>2020-07-12T09:24:06Z</time>
      </trkpt>
      <trkpt lat="46.42202" lon="2.53698">
        <ele>230.4</ele>
        <time>2020-07-12T09:24:07Z</time>
      </trkpt>
      <trkpt lat="46.42204" lon="2.53704">
        <ele>230.7</ele>
        <time>2020-07-12T09:24:08Z</time>
      </trkpt>
      <trkpt lat="46.42206" lon="2.5371">
        <ele>230.8</ele>
        <time>2020-07-12T09:24:09Z</time>
      </trkpt>
      <trkpt lat="46.42208" lon="2.53717">
        <ele>230.9</ele>
        <time>2020-07-12T09:24:10Z</time>
      </trkpt>
      <trkpt lat="46.42209" lon="2.53723">
        <ele>231</ele>
        <time>2020-07-12T09:24:11Z</time>
      </trkpt>
      <trkpt lat="46.42211" lon="2.53729">
        <ele>230.7</ele>
        <time>2020-07-12T09:24:12Z</time>
      </trkpt>
      <trkpt lat="46.42213" lon="2.53736">
        <ele>230.5</ele>
        <time>2020-07-12T09:24:13Z</time>
      </trkpt>
      <trkpt lat="46.42216" lon="2.53742">
        <ele>231</ele>
        <time>2020-07-12T09:24:14Z</time>
      </trkpt>
      <trkpt lat="46.42218" lon="2.53749">
        <ele>231.3</ele>
        <time>2020-07-12T09:24:15Z</time>
      </trkpt>
      <trkpt lat="46.42219" lon="2.53756">
        <ele>231.6</ele>
        <time>2020-07-12T09:24:16Z</time>
      </trkpt>
      <trkpt lat="46.42221" lon="2.53763">
        <ele>231.7</ele>
        <time>2020-07-12T09:24:17Z</time>
      </trkpt>
      <trkpt lat="46.42223" lon="2.5377">
        <ele>231.7</ele>
        <time>2020-07-12T09:24:18Z</time>
      </trkpt>
      <trkpt lat="46.42225" lon="2.53777">
        <ele>231.7</ele>
        <time>2020-07-12T09:24:19Z</time>
      </trkpt>
      <trkpt lat="46.42227" lon="2.53784">
        <ele>231.8</ele>
        <time>2020-07-12T09:24:20Z</time>
      </trkpt>
      <trkpt lat="46.42229" lon="2.5379">
        <ele>231.7</ele>
        <time>2020-07-12T09:24:21Z</time>
      </trkpt>
      <trkpt lat="46.42231" lon="2.53797">
        <ele>231.7</ele>
        <time>2020-07-12T09:24:22Z</time>
      </trkpt>
      <trkpt lat="46.42234" lon="2.53803">
        <ele>231.6</ele>
        <time>2020-07-12T09:24:23Z</time>
      </trkpt>
      <trkpt lat="46.42236" lon="2.5381">
        <ele>231.8</ele>
        <time>2020-07-12T09:24:24Z</time>
      </trkpt>
      <trkpt lat="46.42238" lon="2.53817">
        <ele>231.9</ele>
        <time>2020-07-12T09:24:25Z</time>
      </trkpt>
      <trkpt lat="46.4224" lon="2.53824">
        <ele>231.6</ele>
        <time>2020-07-12T09:24:26Z</time>
      </trkpt>
      <trkpt lat="46.42242" lon="2.53831">
        <ele>231.4</ele>
        <time>2020-07-12T09:24:27Z</time>
      </trkpt>
      <trkpt lat="46.42243" lon="2.53838">
        <ele>231.4</ele>
        <time>2020-07-12T09:24:28Z</time>
      </trkpt>
      <trkpt lat="46.42245" lon="2.53845">
        <ele>231.4</ele>
        <time>2020-07-12T09:24:29Z</time>
      </trkpt>
      <trkpt lat="46.42247" lon="2.53852">
        <ele>231.4</ele>
        <time>2020-07-12T09:24:30Z</time>
      </trkpt>
      <trkpt lat="46.42248" lon="2.53859">
        <ele>231.7</ele>
        <time>2020-07-12T09:24:31Z</time>
      </trkpt>
      <trkpt lat="46.42249" lon="2.53866">
        <ele>231.9</ele>
        <time>2020-07-12T09:24:32Z</time>
      </trkpt>
      <trkpt lat="46.4225" lon="2.53873">
        <ele>231.9</ele>
        <time>2020-07-12T09:24:33Z</time>
      </trkpt>
      <trkpt lat="46.42251" lon="2.53881">
        <ele>231.9</ele>
        <time>2020-07-12T09:24:34Z</time>
      </trkpt>
      <trkpt lat="46.42252" lon="2.53889">
        <ele>231.9</ele>
        <time>2020-07-12T09:24:35Z</time>
      </trkpt>
      <trkpt lat="46.42252" lon="2.53897">
        <ele>231.5</ele>
        <time>2020-07-12T09:24:36Z</time>
      </trkpt>
      <trkpt lat="46.42253" lon="2.53906">
        <ele>231.2</ele>
        <time>2020-07-12T09:24:37Z</time>
      </trkpt>
      <trkpt lat="46.42254" lon="2.53915">
        <ele>231.3</ele>
        <time>2020-07-12T09:24:38Z</time>
      </trkpt>
      <trkpt lat="46.42254" lon="2.53924">
        <ele>231.4</ele>
        <time>2020-07-12T09:24:39Z</time>
      </trkpt>
      <trkpt lat="46.42254" lon="2.53933">
        <ele>230.4</ele>
        <time>2020-07-12T09:24:40Z</time>
      </trkpt>
      <trkpt lat="46.42254" lon="2.53941">
        <ele>229.6</ele>
        <time>2020-07-12T09:24:41Z</time>
      </trkpt>
      <trkpt lat="46.42255" lon="2.5395">
        <ele>229</ele>
        <time>2020-07-12T09:24:42Z</time>
      </trkpt>
      <trkpt lat="46.42255" lon="2.53958">
        <ele>229.4</ele>
        <time>2020-07-12T09:24:43Z</time>
      </trkpt>
      <trkpt lat="46.42255" lon="2.53967">
        <ele>229.7</ele>
        <time>2020-07-12T09:24:44Z</time>
      </trkpt>
      <trkpt lat="46.42256" lon="2.53974">
        <ele>229.8</ele>
        <time>2020-07-12T09:24:45Z</time>
      </trkpt>
      <trkpt lat="46.42256" lon="2.53983">
        <ele>229.9</ele>
        <time>2020-07-12T09:24:46Z</time>
      </trkpt>
      <trkpt lat="46.42256" lon="2.53992">
        <ele>229.3</ele>
        <time>2020-07-12T09:24:47Z</time>
      </trkpt>
      <trkpt lat="46.42256" lon="2.54001">
        <ele>228.8</ele>
        <time>2020-07-12T09:24:48Z</time>
      </trkpt>
      <trkpt lat="46.42257" lon="2.5401">
        <ele>228.4</ele>
        <time>2020-07-12T09:24:49Z</time>
      </trkpt>
      <trkpt lat="46.42257" lon="2.54019">
        <ele>228.2</ele>
        <time>2020-07-12T09:24:50Z</time>
      </trkpt>
      <trkpt lat="46.42257" lon="2.54029">
        <ele>228</ele>
        <time>2020-07-12T09:24:51Z</time>
      </trkpt>
      <trkpt lat="46.42258" lon="2.54038">
        <ele>227.4</ele>
        <time>2020-07-12T09:24:52Z</time>
      </trkpt>
      <trkpt lat="46.42258" lon="2.54047">
        <ele>227</ele>
        <time>2020-07-12T09:24:53Z</time>
      </trkpt>
      <trkpt lat="46.42259" lon="2.54056">
        <ele>226.7</ele>
        <time>2020-07-12T09:24:54Z</time>
      </trkpt>
      <trkpt lat="46.42259" lon="2.54065">
        <ele>226.6</ele>
        <time>2020-07-12T09:24:55Z</time>
      </trkpt>
      <trkpt lat="46.42259" lon="2.54074">
        <ele>226.4</ele>
        <time>2020-07-12T09:24:56Z</time>
      </trkpt>
      <trkpt lat="46.42259" lon="2.54082">
        <ele>226.4</ele>
        <time>2020-07-12T09:24:57Z</time>
      </trkpt>
      <trkpt lat="46.42259" lon="2.54091">
        <ele>226.3</ele>
        <time>2020-07-12T09:24:58Z</time>
      </trkpt>
      <trkpt lat="46.42259" lon="2.54099">
        <ele>226.2</ele>
        <time>2020-07-12T09:24:59Z</time>
      </trkpt>
      <trkpt lat="46.42258" lon="2.54107">
        <ele>226.1</ele>
        <time>2020-07-12T09:25:00Z</time>
      </trkpt>
      <trkpt lat="46.42258" lon="2.54114">
        <ele>226.1</ele>
        <time>2020-07-12T09:25:01Z</time>
      </trkpt>
      <trkpt lat="46.42258" lon="2.54121">
        <ele>226.1</ele>
        <time>2020-07-12T09:25:02Z</time>
      </trkpt>
      <trkpt lat="46.42258" lon="2.54129">
        <ele>226</ele>
        <time>2020-07-12T09:25:03Z</time>
      </trkpt>
      <trkpt lat="46.42257" lon="2.54136">
        <ele>226</ele>
        <time>2020-07-12T09:25:04Z</time>
      </trkpt>
      <trkpt lat="46.42257" lon="2.54142">
        <ele>226</ele>
        <time>2020-07-12T09:25:05Z</time>
      </trkpt>
      <trkpt lat="46.42257" lon="2.54149">
        <ele>226.2</ele>
        <time>2020-07-12T09:25:06Z</time>
      </trkpt>
      <trkpt lat="46.42257" lon="2.54157">
        <ele>226.4</ele>
        <time>2020-07-12T09:25:07Z</time>
      </trkpt>
      <trkpt lat="46.42257" lon="2.54164">
        <ele>226.6</ele>
        <time>2020-07-12T09:25:08Z</time>
      </trkpt>
      <trkpt lat="46.42257" lon="2.54171">
        <ele>226.9</ele>
        <time>2020-07-12T09:25:09Z</time>
      </trkpt>
      <trkpt lat="46.42257" lon="2.54177">
        <ele>227.1</ele>
        <time>2020-07-12T09:25:10Z</time>
      </trkpt>
      <trkpt lat="46.42257" lon="2.5419">
        <ele>227.1</ele>
        <time>2020-07-12T09:25:12Z</time>
      </trkpt>
      <trkpt lat="46.42257" lon="2.54202">
        <ele>227.2</ele>
        <time>2020-07-12T09:25:14Z</time>
      </trkpt>
      <trkpt lat="46.42257" lon="2.54213">
        <ele>227</ele>
        <time>2020-07-12T09:25:16Z</time>
      </trkpt>
      <trkpt lat="46.42256" lon="2.54224">
        <ele>226.9</ele>
        <time>2020-07-12T09:25:18Z</time>
      </trkpt>
      <trkpt lat="46.42257" lon="2.54236">
        <ele>227</ele>
        <time>2020-07-12T09:25:20Z</time>
      </trkpt>
      <trkpt lat="46.42257" lon="2.54248">
        <ele>227.8</ele>
        <time>2020-07-12T09:25:22Z</time>
      </trkpt>
      <trkpt lat="46.42257" lon="2.54261">
        <ele>227.4</ele>
        <time>2020-07-12T09:25:24Z</time>
      </trkpt>
      <trkpt lat="46.42257" lon="2.54273">
        <ele>227.7</ele>
        <time>2020-07-12T09:25:26Z</time>
      </trkpt>
      <trkpt lat="46.42257" lon="2.54284">
        <ele>227.7</ele>
        <time>2020-07-12T09:25:28Z</time>
      </trkpt>
      <trkpt lat="46.42258" lon="2.54294">
        <ele>228</ele>
        <time>2020-07-12T09:25:30Z</time>
      </trkpt>
      <trkpt lat="46.42259" lon="2.54305">
        <ele>228.4</ele>
        <time>2020-07-12T09:25:32Z</time>
      </trkpt>
      <trkpt lat="46.42259" lon="2.54317">
        <ele>228.8</ele>
        <time>2020-07-12T09:25:34Z</time>
      </trkpt>
      <trkpt lat="46.42259" lon="2.54323">
        <ele>228.5</ele>
        <time>2020-07-12T09:25:35Z</time>
      </trkpt>
      <trkpt lat="46.42259" lon="2.5433">
        <ele>228.3</ele>
        <time>2020-07-12T09:25:36Z</time>
      </trkpt>
      <trkpt lat="46.42259" lon="2.54343">
        <ele>227.7</ele>
        <time>2020-07-12T09:25:38Z</time>
      </trkpt>
      <trkpt lat="46.42259" lon="2.54349">
        <ele>227.5</ele>
        <time>2020-07-12T09:25:39Z</time>
      </trkpt>
      <trkpt lat="46.4226" lon="2.54356">
        <ele>227.3</ele>
        <time>2020-07-12T09:25:40Z</time>
      </trkpt>
      <trkpt lat="46.42261" lon="2.54368">
        <ele>227.5</ele>
        <time>2020-07-12T09:25:42Z</time>
      </trkpt>
      <trkpt lat="46.42262" lon="2.5438">
        <ele>228.1</ele>
        <time>2020-07-12T09:25:44Z</time>
      </trkpt>
      <trkpt lat="46.42264" lon="2.54391">
        <ele>228.5</ele>
        <time>2020-07-12T09:25:46Z</time>
      </trkpt>
      <trkpt lat="46.42265" lon="2.54404">
        <ele>229.7</ele>
        <time>2020-07-12T09:25:48Z</time>
      </trkpt>
      <trkpt lat="46.42268" lon="2.54415">
        <ele>230.1</ele>
        <time>2020-07-12T09:25:50Z</time>
      </trkpt>
      <trkpt lat="46.42268" lon="2.54427">
        <ele>230.6</ele>
        <time>2020-07-12T09:25:52Z</time>
      </trkpt>
      <trkpt lat="46.42268" lon="2.54439">
        <ele>230.6</ele>
        <time>2020-07-12T09:25:54Z</time>
      </trkpt>
      <trkpt lat="46.42268" lon="2.5445">
        <ele>230.8</ele>
        <time>2020-07-12T09:25:56Z</time>
      </trkpt>
      <trkpt lat="46.42269" lon="2.54462">
        <ele>231.4</ele>
        <time>2020-07-12T09:25:58Z</time>
      </trkpt>
      <trkpt lat="46.42269" lon="2.54472">
        <ele>231.5</ele>
        <time>2020-07-12T09:26:00Z</time>
      </trkpt>
      <trkpt lat="46.42268" lon="2.54482">
        <ele>231.8</ele>
        <time>2020-07-12T09:26:02Z</time>
      </trkpt>
      <trkpt lat="46.42269" lon="2.54493">
        <ele>232</ele>
        <time>2020-07-12T09:26:04Z</time>
      </trkpt>
      <trkpt lat="46.4227" lon="2.54504">
        <ele>232.2</ele>
        <time>2020-07-12T09:26:06Z</time>
      </trkpt>
      <trkpt lat="46.42271" lon="2.54516">
        <ele>232.5</ele>
        <time>2020-07-12T09:26:08Z</time>
      </trkpt>
      <trkpt lat="46.42272" lon="2.54526">
        <ele>232.7</ele>
        <time>2020-07-12T09:26:10Z</time>
      </trkpt>
      <trkpt lat="46.42273" lon="2.54537">
        <ele>232.7</ele>
        <time>2020-07-12T09:26:12Z</time>
      </trkpt>
      <trkpt lat="46.42273" lon="2.54542">
        <ele>233</ele>
        <time>2020-07-12T09:26:13Z</time>
      </trkpt>
      <trkpt lat="46.42274" lon="2.5456">
        <ele>233.7</ele>
        <time>2020-07-12T09:26:16Z</time>
      </trkpt>
      <trkpt lat="46.42274" lon="2.54573">
        <ele>234.3</ele>
        <time>2020-07-12T09:26:18Z</time>
      </trkpt>
      <trkpt lat="46.42275" lon="2.54586">
        <ele>234.9</ele>
        <time>2020-07-12T09:26:20Z</time>
      </trkpt>
      <trkpt lat="46.42275" lon="2.54598">
        <ele>234.8</ele>
        <time>2020-07-12T09:26:22Z</time>
      </trkpt>
      <trkpt lat="46.42277" lon="2.5461">
        <ele>234.4</ele>
        <time>2020-07-12T09:26:24Z</time>
      </trkpt>
      <trkpt lat="46.42277" lon="2.54622">
        <ele>234.3</ele>
        <time>2020-07-12T09:26:26Z</time>
      </trkpt>
      <trkpt lat="46.42279" lon="2.54635">
        <ele>234.9</ele>
        <time>2020-07-12T09:26:28Z</time>
      </trkpt>
      <trkpt lat="46.42279" lon="2.54647">
        <ele>235.2</ele>
        <time>2020-07-12T09:26:30Z</time>
      </trkpt>
      <trkpt lat="46.42279" lon="2.5466">
        <ele>235.5</ele>
        <time>2020-07-12T09:26:32Z</time>
      </trkpt>
      <trkpt lat="46.42279" lon="2.54673">
        <ele>235.8</ele>
        <time>2020-07-12T09:26:34Z</time>
      </trkpt>
      <trkpt lat="46.4228" lon="2.54685">
        <ele>235.8</ele>
        <time>2020-07-12T09:26:36Z</time>
      </trkpt>
      <trkpt lat="46.42279" lon="2.54697">
        <ele>235.7</ele>
        <time>2020-07-12T09:26:38Z</time>
      </trkpt>
      <trkpt lat="46.4228" lon="2.5471">
        <ele>235.4</ele>
        <time>2020-07-12T09:26:40Z</time>
      </trkpt>
      <trkpt lat="46.42281" lon="2.54723">
        <ele>235.5</ele>
        <time>2020-07-12T09:26:42Z</time>
      </trkpt>
      <trkpt lat="46.42281" lon="2.54736">
        <ele>235.2</ele>
        <time>2020-07-12T09:26:44Z</time>
      </trkpt>
      <trkpt lat="46.42281" lon="2.54743">
        <ele>235.1</ele>
        <time>2020-07-12T09:26:45Z</time>
      </trkpt>
      <trkpt lat="46.42284" lon="2.54756">
        <ele>235.1</ele>
        <time>2020-07-12T09:26:47Z</time>
      </trkpt>
      <trkpt lat="46.42285" lon="2.54769">
        <ele>235.3</ele>
        <time>2020-07-12T09:26:49Z</time>
      </trkpt>
      <trkpt lat="46.42287" lon="2.54781">
        <ele>235.1</ele>
        <time>2020-07-12T09:26:51Z</time>
      </trkpt>
      <trkpt lat="46.42289" lon="2.54791">
        <ele>235</ele>
        <time>2020-07-12T09:26:53Z</time>
      </trkpt>
      <trkpt lat="46.4229" lon="2.54803">
        <ele>235.1</ele>
        <time>2020-07-12T09:26:55Z</time>
      </trkpt>
      <trkpt lat="46.4229" lon="2.54809">
        <ele>235</ele>
        <time>2020-07-12T09:26:56Z</time>
      </trkpt>
      <trkpt lat="46.4229" lon="2.54816">
        <ele>235</ele>
        <time>2020-07-12T09:26:57Z</time>
      </trkpt>
      <trkpt lat="46.4229" lon="2.54829">
        <ele>235.3</ele>
        <time>2020-07-12T09:26:59Z</time>
      </trkpt>
      <trkpt lat="46.42291" lon="2.5484">
        <ele>236.1</ele>
        <time>2020-07-12T09:27:01Z</time>
      </trkpt>
      <trkpt lat="46.42291" lon="2.54853">
        <ele>235.9</ele>
        <time>2020-07-12T09:27:03Z</time>
      </trkpt>
      <trkpt lat="46.4229" lon="2.54865">
        <ele>235.3</ele>
        <time>2020-07-12T09:27:05Z</time>
      </trkpt>
      <trkpt lat="46.4229" lon="2.54878">
        <ele>235</ele>
        <time>2020-07-12T09:27:07Z</time>
      </trkpt>
      <trkpt lat="46.42291" lon="2.54889">
        <ele>235</ele>
        <time>2020-07-12T09:27:09Z</time>
      </trkpt>
      <trkpt lat="46.42292" lon="2.54902">
        <ele>234.6</ele>
        <time>2020-07-12T09:27:11Z</time>
      </trkpt>
      <trkpt lat="46.42292" lon="2.54909">
        <ele>234</ele>
        <time>2020-07-12T09:27:12Z</time>
      </trkpt>
      <trkpt lat="46.42293" lon="2.54917">
        <ele>233.6</ele>
        <time>2020-07-12T09:27:13Z</time>
      </trkpt>
      <trkpt lat="46.42293" lon="2.54924">
        <ele>233.3</ele>
        <time>2020-07-12T09:27:14Z</time>
      </trkpt>
      <trkpt lat="46.42293" lon="2.54931">
        <ele>232.9</ele>
        <time>2020-07-12T09:27:15Z</time>
      </trkpt>
      <trkpt lat="46.42294" lon="2.54938">
        <ele>232.6</ele>
        <time>2020-07-12T09:27:16Z</time>
      </trkpt>
      <trkpt lat="46.42295" lon="2.54944">
        <ele>232.3</ele>
        <time>2020-07-12T09:27:17Z</time>
      </trkpt>
      <trkpt lat="46.42295" lon="2.54951">
        <ele>232.1</ele>
        <time>2020-07-12T09:27:18Z</time>
      </trkpt>
      <trkpt lat="46.42296" lon="2.54958">
        <ele>231.9</ele>
        <time>2020-07-12T09:27:19Z</time>
      </trkpt>
      <trkpt lat="46.42296" lon="2.54965">
        <ele>231.7</ele>
        <time>2020-07-12T09:27:20Z</time>
      </trkpt>
      <trkpt lat="46.42296" lon="2.54972">
        <ele>231.6</ele>
        <time>2020-07-12T09:27:21Z</time>
      </trkpt>
      <trkpt lat="46.42296" lon="2.5498">
        <ele>231.8</ele>
        <time>2020-07-12T09:27:22Z</time>
      </trkpt>
      <trkpt lat="46.42297" lon="2.54987">
        <ele>232</ele>
        <time>2020-07-12T09:27:23Z</time>
      </trkpt>
      <trkpt lat="46.42297" lon="2.54993">
        <ele>231.9</ele>
        <time>2020-07-12T09:27:24Z</time>
      </trkpt>
      <trkpt lat="46.42297" lon="2.55">
        <ele>231.8</ele>
        <time>2020-07-12T09:27:25Z</time>
      </trkpt>
      <trkpt lat="46.42298" lon="2.55007">
        <ele>231.9</ele>
        <time>2020-07-12T09:27:26Z</time>
      </trkpt>
      <trkpt lat="46.42298" lon="2.55014">
        <ele>232</ele>
        <time>2020-07-12T09:27:27Z</time>
      </trkpt>
      <trkpt lat="46.42298" lon="2.55022">
        <ele>232.1</ele>
        <time>2020-07-12T09:27:28Z</time>
      </trkpt>
      <trkpt lat="46.42298" lon="2.5503">
        <ele>231.7</ele>
        <time>2020-07-12T09:27:29Z</time>
      </trkpt>
      <trkpt lat="46.42297" lon="2.55037">
        <ele>231.3</ele>
        <time>2020-07-12T09:27:30Z</time>
      </trkpt>
      <trkpt lat="46.42295" lon="2.55045">
        <ele>231.7</ele>
        <time>2020-07-12T09:27:31Z</time>
      </trkpt>
      <trkpt lat="46.42293" lon="2.55051">
        <ele>231.9</ele>
        <time>2020-07-12T09:27:32Z</time>
      </trkpt>
      <trkpt lat="46.42289" lon="2.55055">
        <ele>232.1</ele>
        <time>2020-07-12T09:27:33Z</time>
      </trkpt>
      <trkpt lat="46.42284" lon="2.55058">
        <ele>231.9</ele>
        <time>2020-07-12T09:27:34Z</time>
      </trkpt>
      <trkpt lat="46.4228" lon="2.5506">
        <ele>231.7</ele>
        <time>2020-07-12T09:27:35Z</time>
      </trkpt>
      <trkpt lat="46.42275" lon="2.55063">
        <ele>231.7</ele>
        <time>2020-07-12T09:27:36Z</time>
      </trkpt>
      <trkpt lat="46.4227" lon="2.55065">
        <ele>231.6</ele>
        <time>2020-07-12T09:27:37Z</time>
      </trkpt>
      <trkpt lat="46.42265" lon="2.55067">
        <ele>231.5</ele>
        <time>2020-07-12T09:27:38Z</time>
      </trkpt>
      <trkpt lat="46.4226" lon="2.55068">
        <ele>231.3</ele>
        <time>2020-07-12T09:27:39Z</time>
      </trkpt>
      <trkpt lat="46.42255" lon="2.5507">
        <ele>231.2</ele>
        <time>2020-07-12T09:27:40Z</time>
      </trkpt>
      <trkpt lat="46.4225" lon="2.55071">
        <ele>231.3</ele>
        <time>2020-07-12T09:27:41Z</time>
      </trkpt>
      <trkpt lat="46.42245" lon="2.55072">
        <ele>231.3</ele>
        <time>2020-07-12T09:27:42Z</time>
      </trkpt>
      <trkpt lat="46.42239" lon="2.55072">
        <ele>231.1</ele>
        <time>2020-07-12T09:27:43Z</time>
      </trkpt>
      <trkpt lat="46.42234" lon="2.55071">
        <ele>230.9</ele>
        <time>2020-07-12T09:27:44Z</time>
      </trkpt>
      <trkpt lat="46.42229" lon="2.55071">
        <ele>230.8</ele>
        <time>2020-07-12T09:27:45Z</time>
      </trkpt>
      <trkpt lat="46.42223" lon="2.5507">
        <ele>230.8</ele>
        <time>2020-07-12T09:27:46Z</time>
      </trkpt>
      <trkpt lat="46.42218" lon="2.5507">
        <ele>230.8</ele>
        <time>2020-07-12T09:27:47Z</time>
      </trkpt>
      <trkpt lat="46.42212" lon="2.55069">
        <ele>230.6</ele>
        <time>2020-07-12T09:27:48Z</time>
      </trkpt>
      <trkpt lat="46.42205" lon="2.55069">
        <ele>230.4</ele>
        <time>2020-07-12T09:27:49Z</time>
      </trkpt>
      <trkpt lat="46.42199" lon="2.55068">
        <ele>230</ele>
        <time>2020-07-12T09:27:50Z</time>
      </trkpt>
      <trkpt lat="46.42193" lon="2.55066">
        <ele>229.8</ele>
        <time>2020-07-12T09:27:51Z</time>
      </trkpt>
      <trkpt lat="46.42186" lon="2.55065">
        <ele>229.6</ele>
        <time>2020-07-12T09:27:52Z</time>
      </trkpt>
      <trkpt lat="46.4218" lon="2.55064">
        <ele>229.2</ele>
        <time>2020-07-12T09:27:53Z</time>
      </trkpt>
      <trkpt lat="46.42173" lon="2.55063">
        <ele>229</ele>
        <time>2020-07-12T09:27:54Z</time>
      </trkpt>
      <trkpt lat="46.42166" lon="2.55062">
        <ele>228.5</ele>
        <time>2020-07-12T09:27:55Z</time>
      </trkpt>
      <trkpt lat="46.4216" lon="2.55062">
        <ele>228.1</ele>
        <time>2020-07-12T09:27:56Z</time>
      </trkpt>
      <trkpt lat="46.42153" lon="2.55062">
        <ele>227.8</ele>
        <time>2020-07-12T09:27:57Z</time>
      </trkpt>
      <trkpt lat="46.42145" lon="2.55062">
        <ele>227.5</ele>
        <time>2020-07-12T09:27:58Z</time>
      </trkpt>
      <trkpt lat="46.42138" lon="2.55063">
        <ele>227.3</ele>
        <time>2020-07-12T09:27:59Z</time>
      </trkpt>
      <trkpt lat="46.42131" lon="2.55063">
        <ele>227.2</ele>
        <time>2020-07-12T09:28:00Z</time>
      </trkpt>
      <trkpt lat="46.42124" lon="2.55063">
        <ele>227.1</ele>
        <time>2020-07-12T09:28:01Z</time>
      </trkpt>
      <trkpt lat="46.42117" lon="2.55064">
        <ele>226.6</ele>
        <time>2020-07-12T09:28:02Z</time>
      </trkpt>
      <trkpt lat="46.4211" lon="2.55064">
        <ele>226.3</ele>
        <time>2020-07-12T09:28:03Z</time>
      </trkpt>
      <trkpt lat="46.42103" lon="2.55064">
        <ele>225.5</ele>
        <time>2020-07-12T09:28:04Z</time>
      </trkpt>
      <trkpt lat="46.42096" lon="2.55064">
        <ele>224.9</ele>
        <time>2020-07-12T09:28:05Z</time>
      </trkpt>
      <trkpt lat="46.42089" lon="2.55065">
        <ele>224.4</ele>
        <time>2020-07-12T09:28:06Z</time>
      </trkpt>
      <trkpt lat="46.42082" lon="2.55065">
        <ele>224.1</ele>
        <time>2020-07-12T09:28:07Z</time>
      </trkpt>
      <trkpt lat="46.42074" lon="2.55065">
        <ele>223.8</ele>
        <time>2020-07-12T09:28:08Z</time>
      </trkpt>
      <trkpt lat="46.42067" lon="2.55065">
        <ele>223.4</ele>
        <time>2020-07-12T09:28:09Z</time>
      </trkpt>
      <trkpt lat="46.4206" lon="2.55065">
        <ele>223</ele>
        <time>2020-07-12T09:28:10Z</time>
      </trkpt>
      <trkpt lat="46.42052" lon="2.55065">
        <ele>222.8</ele>
        <time>2020-07-12T09:28:11Z</time>
      </trkpt>
      <trkpt lat="46.42045" lon="2.55065">
        <ele>222.9</ele>
        <time>2020-07-12T09:28:12Z</time>
      </trkpt>
      <trkpt lat="46.42038" lon="2.55065">
        <ele>222.9</ele>
        <time>2020-07-12T09:28:13Z</time>
      </trkpt>
      <trkpt lat="46.42031" lon="2.55065">
        <ele>223.2</ele>
        <time>2020-07-12T09:28:14Z</time>
      </trkpt>
      <trkpt lat="46.42024" lon="2.55065">
        <ele>223.4</ele>
        <time>2020-07-12T09:28:15Z</time>
      </trkpt>
      <trkpt lat="46.42017" lon="2.55065">
        <ele>223</ele>
        <time>2020-07-12T09:28:16Z</time>
      </trkpt>
      <trkpt lat="46.42011" lon="2.55065">
        <ele>222.7</ele>
        <time>2020-07-12T09:28:17Z</time>
      </trkpt>
      <trkpt lat="46.42004" lon="2.55065">
        <ele>222.5</ele>
        <time>2020-07-12T09:28:18Z</time>
      </trkpt>
      <trkpt lat="46.41998" lon="2.55065">
        <ele>222</ele>
        <time>2020-07-12T09:28:19Z</time>
      </trkpt>
      <trkpt lat="46.41991" lon="2.55065">
        <ele>221.7</ele>
        <time>2020-07-12T09:28:20Z</time>
      </trkpt>
      <trkpt lat="46.41985" lon="2.55065">
        <ele>221.9</ele>
        <time>2020-07-12T09:28:21Z</time>
      </trkpt>
      <trkpt lat="46.41978" lon="2.55065">
        <ele>222.1</ele>
        <time>2020-07-12T09:28:22Z</time>
      </trkpt>
      <trkpt lat="46.41971" lon="2.55065">
        <ele>221.8</ele>
        <time>2020-07-12T09:28:23Z</time>
      </trkpt>
      <trkpt lat="46.41965" lon="2.55064">
        <ele>221.5</ele>
        <time>2020-07-12T09:28:24Z</time>
      </trkpt>
      <trkpt lat="46.41958" lon="2.55064">
        <ele>221.3</ele>
        <time>2020-07-12T09:28:25Z</time>
      </trkpt>
      <trkpt lat="46.41952" lon="2.55063">
        <ele>221.2</ele>
        <time>2020-07-12T09:28:26Z</time>
      </trkpt>
      <trkpt lat="46.41945" lon="2.55062">
        <ele>221.1</ele>
        <time>2020-07-12T09:28:27Z</time>
      </trkpt>
      <trkpt lat="46.41938" lon="2.55061">
        <ele>220.9</ele>
        <time>2020-07-12T09:28:28Z</time>
      </trkpt>
      <trkpt lat="46.41932" lon="2.5506">
        <ele>220.8</ele>
        <time>2020-07-12T09:28:29Z</time>
      </trkpt>
      <trkpt lat="46.41925" lon="2.5506">
        <ele>220.7</ele>
        <time>2020-07-12T09:28:30Z</time>
      </trkpt>
      <trkpt lat="46.41918" lon="2.5506">
        <ele>220.2</ele>
        <time>2020-07-12T09:28:31Z</time>
      </trkpt>
      <trkpt lat="46.41912" lon="2.5506">
        <ele>219.7</ele>
        <time>2020-07-12T09:28:32Z</time>
      </trkpt>
      <trkpt lat="46.41905" lon="2.55061">
        <ele>219.9</ele>
        <time>2020-07-12T09:28:33Z</time>
      </trkpt>
      <trkpt lat="46.41899" lon="2.55063">
        <ele>220</ele>
        <time>2020-07-12T09:28:34Z</time>
      </trkpt>
      <trkpt lat="46.41892" lon="2.55064">
        <ele>220.1</ele>
        <time>2020-07-12T09:28:35Z</time>
      </trkpt>
      <trkpt lat="46.41886" lon="2.55067">
        <ele>220.2</ele>
        <time>2020-07-12T09:28:36Z</time>
      </trkpt>
      <trkpt lat="46.4188" lon="2.55069">
        <ele>220.2</ele>
        <time>2020-07-12T09:28:37Z</time>
      </trkpt>
      <trkpt lat="46.41873" lon="2.55072">
        <ele>220.2</ele>
        <time>2020-07-12T09:28:38Z</time>
      </trkpt>
      <trkpt lat="46.41867" lon="2.55076">
        <ele>220.2</ele>
        <time>2020-07-12T09:28:39Z</time>
      </trkpt>
      <trkpt lat="46.41861" lon="2.55079">
        <ele>220.1</ele>
        <time>2020-07-12T09:28:40Z</time>
      </trkpt>
      <trkpt lat="46.41855" lon="2.55083">
        <ele>220.1</ele>
        <time>2020-07-12T09:28:41Z</time>
      </trkpt>
      <trkpt lat="46.41849" lon="2.55087">
        <ele>219.7</ele>
        <time>2020-07-12T09:28:42Z</time>
      </trkpt>
      <trkpt lat="46.41843" lon="2.55091">
        <ele>219.5</ele>
        <time>2020-07-12T09:28:43Z</time>
      </trkpt>
      <trkpt lat="46.41837" lon="2.55094">
        <ele>219.3</ele>
        <time>2020-07-12T09:28:44Z</time>
      </trkpt>
      <trkpt lat="46.41831" lon="2.55098">
        <ele>219.3</ele>
        <time>2020-07-12T09:28:45Z</time>
      </trkpt>
      <trkpt lat="46.41825" lon="2.55102">
        <ele>219.3</ele>
        <time>2020-07-12T09:28:46Z</time>
      </trkpt>
      <trkpt lat="46.4182" lon="2.55105">
        <ele>219.5</ele>
        <time>2020-07-12T09:28:47Z</time>
      </trkpt>
      <trkpt lat="46.41814" lon="2.55108">
        <ele>219.7</ele>
        <time>2020-07-12T09:28:48Z</time>
      </trkpt>
      <trkpt lat="46.41808" lon="2.5511">
        <ele>219.8</ele>
        <time>2020-07-12T09:28:49Z</time>
      </trkpt>
      <trkpt lat="46.41802" lon="2.55112">
        <ele>219.2</ele>
        <time>2020-07-12T09:28:50Z</time>
      </trkpt>
      <trkpt lat="46.41796" lon="2.55114">
        <ele>218.7</ele>
        <time>2020-07-12T09:28:51Z</time>
      </trkpt>
      <trkpt lat="46.41791" lon="2.55115">
        <ele>218.7</ele>
        <time>2020-07-12T09:28:52Z</time>
      </trkpt>
      <trkpt lat="46.41785" lon="2.55116">
        <ele>218.7</ele>
        <time>2020-07-12T09:28:53Z</time>
      </trkpt>
      <trkpt lat="46.41779" lon="2.55116">
        <ele>218.7</ele>
        <time>2020-07-12T09:28:54Z</time>
      </trkpt>
      <trkpt lat="46.41774" lon="2.55116">
        <ele>218.8</ele>
        <time>2020-07-12T09:28:55Z</time>
      </trkpt>
      <trkpt lat="46.41768" lon="2.55115">
        <ele>218.8</ele>
        <time>2020-07-12T09:28:56Z</time>
      </trkpt>
      <trkpt lat="46.41762" lon="2.55116">
        <ele>218.6</ele>
        <time>2020-07-12T09:28:57Z</time>
      </trkpt>
      <trkpt lat="46.41757" lon="2.55117">
        <ele>218.4</ele>
        <time>2020-07-12T09:28:58Z</time>
      </trkpt>
      <trkpt lat="46.41751" lon="2.55117">
        <ele>217.9</ele>
        <time>2020-07-12T09:28:59Z</time>
      </trkpt>
      <trkpt lat="46.41745" lon="2.55118">
        <ele>217.5</ele>
        <time>2020-07-12T09:29:00Z</time>
      </trkpt>
      <trkpt lat="46.4174" lon="2.55119">
        <ele>217.2</ele>
        <time>2020-07-12T09:29:01Z</time>
      </trkpt>
      <trkpt lat="46.41734" lon="2.5512">
        <ele>217</ele>
        <time>2020-07-12T09:29:02Z</time>
      </trkpt>
      <trkpt lat="46.41728" lon="2.5512">
        <ele>216.8</ele>
        <time>2020-07-12T09:29:03Z</time>
      </trkpt>
      <trkpt lat="46.41722" lon="2.55121">
        <ele>217.2</ele>
        <time>2020-07-12T09:29:04Z</time>
      </trkpt>
      <trkpt lat="46.41717" lon="2.55122">
        <ele>217.5</ele>
        <time>2020-07-12T09:29:05Z</time>
      </trkpt>
      <trkpt lat="46.41711" lon="2.55122">
        <ele>217.8</ele>
        <time>2020-07-12T09:29:06Z</time>
      </trkpt>
      <trkpt lat="46.41705" lon="2.55123">
        <ele>218</ele>
        <time>2020-07-12T09:29:07Z</time>
      </trkpt>
      <trkpt lat="46.417" lon="2.55123">
        <ele>218.1</ele>
        <time>2020-07-12T09:29:08Z</time>
      </trkpt>
      <trkpt lat="46.41694" lon="2.55124">
        <ele>218.2</ele>
        <time>2020-07-12T09:29:09Z</time>
      </trkpt>
      <trkpt lat="46.41688" lon="2.55124">
        <ele>218.2</ele>
        <time>2020-07-12T09:29:10Z</time>
      </trkpt>
      <trkpt lat="46.41683" lon="2.55124">
        <ele>218.4</ele>
        <time>2020-07-12T09:29:11Z</time>
      </trkpt>
      <trkpt lat="46.41677" lon="2.55124">
        <ele>218.5</ele>
        <time>2020-07-12T09:29:12Z</time>
      </trkpt>
      <trkpt lat="46.41672" lon="2.55125">
        <ele>219.1</ele>
        <time>2020-07-12T09:29:13Z</time>
      </trkpt>
      <trkpt lat="46.41666" lon="2.55126">
        <ele>219.6</ele>
        <time>2020-07-12T09:29:14Z</time>
      </trkpt>
      <trkpt lat="46.41661" lon="2.55126">
        <ele>219.9</ele>
        <time>2020-07-12T09:29:15Z</time>
      </trkpt>
      <trkpt lat="46.41656" lon="2.55127">
        <ele>220.3</ele>
        <time>2020-07-12T09:29:16Z</time>
      </trkpt>
      <trkpt lat="46.41651" lon="2.55127">
        <ele>220.6</ele>
        <time>2020-07-12T09:29:17Z</time>
      </trkpt>
      <trkpt lat="46.41646" lon="2.55128">
        <ele>220.1</ele>
        <time>2020-07-12T09:29:18Z</time>
      </trkpt>
      <trkpt lat="46.41641" lon="2.55129">
        <ele>219.7</ele>
        <time>2020-07-12T09:29:19Z</time>
      </trkpt>
      <trkpt lat="46.41636" lon="2.5513">
        <ele>219.8</ele>
        <time>2020-07-12T09:29:20Z</time>
      </trkpt>
      <trkpt lat="46.41631" lon="2.55132">
        <ele>219.8</ele>
        <time>2020-07-12T09:29:21Z</time>
      </trkpt>
      <trkpt lat="46.41626" lon="2.55133">
        <ele>219.8</ele>
        <time>2020-07-12T09:29:22Z</time>
      </trkpt>
      <trkpt lat="46.41621" lon="2.55134">
        <ele>220.2</ele>
        <time>2020-07-12T09:29:23Z</time>
      </trkpt>
      <trkpt lat="46.41616" lon="2.55135">
        <ele>220.6</ele>
        <time>2020-07-12T09:29:24Z</time>
      </trkpt>
      <trkpt lat="46.41612" lon="2.55137">
        <ele>221.1</ele>
        <time>2020-07-12T09:29:25Z</time>
      </trkpt>
      <trkpt lat="46.41607" lon="2.55138">
        <ele>221.5</ele>
        <time>2020-07-12T09:29:26Z</time>
      </trkpt>
      <trkpt lat="46.41602" lon="2.55139">
        <ele>222.1</ele>
        <time>2020-07-12T09:29:27Z</time>
      </trkpt>
      <trkpt lat="46.41597" lon="2.55141">
        <ele>222.6</ele>
        <time>2020-07-12T09:29:28Z</time>
      </trkpt>
      <trkpt lat="46.41593" lon="2.55142">
        <ele>222.9</ele>
        <time>2020-07-12T09:29:29Z</time>
      </trkpt>
      <trkpt lat="46.41588" lon="2.55143">
        <ele>222.7</ele>
        <time>2020-07-12T09:29:30Z</time>
      </trkpt>
      <trkpt lat="46.41583" lon="2.55144">
        <ele>222.6</ele>
        <time>2020-07-12T09:29:31Z</time>
      </trkpt>
      <trkpt lat="46.41578" lon="2.55145">
        <ele>222.7</ele>
        <time>2020-07-12T09:29:32Z</time>
      </trkpt>
      <trkpt lat="46.41573" lon="2.55146">
        <ele>222.9</ele>
        <time>2020-07-12T09:29:33Z</time>
      </trkpt>
      <trkpt lat="46.41568" lon="2.55147">
        <ele>223</ele>
        <time>2020-07-12T09:29:34Z</time>
      </trkpt>
      <trkpt lat="46.41564" lon="2.55148">
        <ele>223.2</ele>
        <time>2020-07-12T09:29:35Z</time>
      </trkpt>
      <trkpt lat="46.41559" lon="2.55149">
        <ele>223.3</ele>
        <time>2020-07-12T09:29:36Z</time>
      </trkpt>
      <trkpt lat="46.41554" lon="2.5515">
        <ele>223.8</ele>
        <time>2020-07-12T09:29:37Z</time>
      </trkpt>
      <trkpt lat="46.4155" lon="2.55151">
        <ele>224.1</ele>
        <time>2020-07-12T09:29:38Z</time>
      </trkpt>
      <trkpt lat="46.41545" lon="2.55152">
        <ele>224.3</ele>
        <time>2020-07-12T09:29:39Z</time>
      </trkpt>
      <trkpt lat="46.4154" lon="2.55154">
        <ele>224.4</ele>
        <time>2020-07-12T09:29:40Z</time>
      </trkpt>
      <trkpt lat="46.41535" lon="2.55155">
        <ele>224.5</ele>
        <time>2020-07-12T09:29:41Z</time>
      </trkpt>
      <trkpt lat="46.41529" lon="2.55156">
        <ele>224</ele>
        <time>2020-07-12T09:29:42Z</time>
      </trkpt>
      <trkpt lat="46.41523" lon="2.55157">
        <ele>223.5</ele>
        <time>2020-07-12T09:29:43Z</time>
      </trkpt>
      <trkpt lat="46.41518" lon="2.55158">
        <ele>223.6</ele>
        <time>2020-07-12T09:29:44Z</time>
      </trkpt>
      <trkpt lat="46.41512" lon="2.55159">
        <ele>223.6</ele>
        <time>2020-07-12T09:29:45Z</time>
      </trkpt>
      <trkpt lat="46.41507" lon="2.5516">
        <ele>224</ele>
        <time>2020-07-12T09:29:46Z</time>
      </trkpt>
      <trkpt lat="46.41502" lon="2.55162">
        <ele>224.2</ele>
        <time>2020-07-12T09:29:47Z</time>
      </trkpt>
      <trkpt lat="46.41497" lon="2.55163">
        <ele>224.4</ele>
        <time>2020-07-12T09:29:48Z</time>
      </trkpt>
      <trkpt lat="46.41491" lon="2.55165">
        <ele>224.4</ele>
        <time>2020-07-12T09:29:49Z</time>
      </trkpt>
      <trkpt lat="46.41487" lon="2.55167">
        <ele>224.3</ele>
        <time>2020-07-12T09:29:50Z</time>
      </trkpt>
      <trkpt lat="46.41482" lon="2.5517">
        <ele>224.7</ele>
        <time>2020-07-12T09:29:51Z</time>
      </trkpt>
      <trkpt lat="46.41477" lon="2.55173">
        <ele>225.1</ele>
        <time>2020-07-12T09:29:52Z</time>
      </trkpt>
      <trkpt lat="46.41472" lon="2.55176">
        <ele>225.3</ele>
        <time>2020-07-12T09:29:53Z</time>
      </trkpt>
      <trkpt lat="46.41468" lon="2.55179">
        <ele>224.9</ele>
        <time>2020-07-12T09:29:54Z</time>
      </trkpt>
      <trkpt lat="46.41463" lon="2.55181">
        <ele>224.6</ele>
        <time>2020-07-12T09:29:55Z</time>
      </trkpt>
      <trkpt lat="46.41458" lon="2.55184">
        <ele>224.2</ele>
        <time>2020-07-12T09:29:56Z</time>
      </trkpt>
      <trkpt lat="46.41453" lon="2.55186">
        <ele>223.9</ele>
        <time>2020-07-12T09:29:57Z</time>
      </trkpt>
      <trkpt lat="46.41447" lon="2.55188">
        <ele>223.8</ele>
        <time>2020-07-12T09:29:58Z</time>
      </trkpt>
      <trkpt lat="46.41442" lon="2.5519">
        <ele>223.8</ele>
        <time>2020-07-12T09:29:59Z</time>
      </trkpt>
      <trkpt lat="46.41437" lon="2.55192">
        <ele>223.7</ele>
        <time>2020-07-12T09:30:00Z</time>
      </trkpt>
      <trkpt lat="46.41431" lon="2.55193">
        <ele>223.8</ele>
        <time>2020-07-12T09:30:01Z</time>
      </trkpt>
      <trkpt lat="46.41425" lon="2.55193">
        <ele>223.8</ele>
        <time>2020-07-12T09:30:02Z</time>
      </trkpt>
      <trkpt lat="46.41419" lon="2.55194">
        <ele>223.8</ele>
        <time>2020-07-12T09:30:03Z</time>
      </trkpt>
      <trkpt lat="46.41414" lon="2.55196">
        <ele>223.8</ele>
        <time>2020-07-12T09:30:04Z</time>
      </trkpt>
      <trkpt lat="46.41408" lon="2.55197">
        <ele>223.8</ele>
        <time>2020-07-12T09:30:05Z</time>
      </trkpt>
      <trkpt lat="46.41403" lon="2.55199">
        <ele>223.8</ele>
        <time>2020-07-12T09:30:06Z</time>
      </trkpt>
      <trkpt lat="46.41397" lon="2.55201">
        <ele>223.8</ele>
        <time>2020-07-12T09:30:07Z</time>
      </trkpt>
      <trkpt lat="46.41391" lon="2.55203">
        <ele>223.7</ele>
        <time>2020-07-12T09:30:08Z</time>
      </trkpt>
      <trkpt lat="46.41386" lon="2.55205">
        <ele>223.6</ele>
        <time>2020-07-12T09:30:09Z</time>
      </trkpt>
      <trkpt lat="46.4138" lon="2.55207">
        <ele>223.5</ele>
        <time>2020-07-12T09:30:10Z</time>
      </trkpt>
      <trkpt lat="46.41375" lon="2.5521">
        <ele>223.5</ele>
        <time>2020-07-12T09:30:11Z</time>
      </trkpt>
      <trkpt lat="46.41369" lon="2.55212">
        <ele>223.4</ele>
        <time>2020-07-12T09:30:12Z</time>
      </trkpt>
      <trkpt lat="46.41364" lon="2.55214">
        <ele>224</ele>
        <time>2020-07-12T09:30:13Z</time>
      </trkpt>
      <trkpt lat="46.41358" lon="2.55216">
        <ele>224.4</ele>
        <time>2020-07-12T09:30:14Z</time>
      </trkpt>
      <trkpt lat="46.41353" lon="2.55218">
        <ele>224.4</ele>
        <time>2020-07-12T09:30:15Z</time>
      </trkpt>
      <trkpt lat="46.41347" lon="2.5522">
        <ele>224.4</ele>
        <time>2020-07-12T09:30:16Z</time>
      </trkpt>
      <trkpt lat="46.41341" lon="2.55222">
        <ele>224.3</ele>
        <time>2020-07-12T09:30:17Z</time>
      </trkpt>
      <trkpt lat="46.41336" lon="2.55224">
        <ele>224.2</ele>
        <time>2020-07-12T09:30:18Z</time>
      </trkpt>
      <trkpt lat="46.41331" lon="2.55226">
        <ele>224.1</ele>
        <time>2020-07-12T09:30:19Z</time>
      </trkpt>
      <trkpt lat="46.41325" lon="2.55228">
        <ele>223.9</ele>
        <time>2020-07-12T09:30:20Z</time>
      </trkpt>
      <trkpt lat="46.41321" lon="2.55229">
        <ele>223.8</ele>
        <time>2020-07-12T09:30:21Z</time>
      </trkpt>
      <trkpt lat="46.41316" lon="2.55231">
        <ele>223.5</ele>
        <time>2020-07-12T09:30:22Z</time>
      </trkpt>
      <trkpt lat="46.41311" lon="2.55232">
        <ele>223.2</ele>
        <time>2020-07-12T09:30:23Z</time>
      </trkpt>
      <trkpt lat="46.41307" lon="2.55234">
        <ele>223</ele>
        <time>2020-07-12T09:30:24Z</time>
      </trkpt>
      <trkpt lat="46.41302" lon="2.55236">
        <ele>222.9</ele>
        <time>2020-07-12T09:30:25Z</time>
      </trkpt>
      <trkpt lat="46.41297" lon="2.55238">
        <ele>222.8</ele>
        <time>2020-07-12T09:30:26Z</time>
      </trkpt>
      <trkpt lat="46.41292" lon="2.55239">
        <ele>222.9</ele>
        <time>2020-07-12T09:30:27Z</time>
      </trkpt>
      <trkpt lat="46.41286" lon="2.55241">
        <ele>223</ele>
        <time>2020-07-12T09:30:28Z</time>
      </trkpt>
      <trkpt lat="46.41281" lon="2.55242">
        <ele>223.1</ele>
        <time>2020-07-12T09:30:29Z</time>
      </trkpt>
      <trkpt lat="46.41275" lon="2.55244">
        <ele>223.2</ele>
        <time>2020-07-12T09:30:30Z</time>
      </trkpt>
      <trkpt lat="46.4127" lon="2.55246">
        <ele>223.3</ele>
        <time>2020-07-12T09:30:31Z</time>
      </trkpt>
      <trkpt lat="46.41264" lon="2.55247">
        <ele>223</ele>
        <time>2020-07-12T09:30:32Z</time>
      </trkpt>
      <trkpt lat="46.41259" lon="2.55248">
        <ele>222.8</ele>
        <time>2020-07-12T09:30:33Z</time>
      </trkpt>
      <trkpt lat="46.41253" lon="2.5525">
        <ele>222.6</ele>
        <time>2020-07-12T09:30:34Z</time>
      </trkpt>
      <trkpt lat="46.41248" lon="2.55251">
        <ele>222.5</ele>
        <time>2020-07-12T09:30:35Z</time>
      </trkpt>
      <trkpt lat="46.41242" lon="2.55251">
        <ele>222.3</ele>
        <time>2020-07-12T09:30:36Z</time>
      </trkpt>
      <trkpt lat="46.41237" lon="2.55252">
        <ele>222.2</ele>
        <time>2020-07-12T09:30:37Z</time>
      </trkpt>
      <trkpt lat="46.41231" lon="2.55253">
        <ele>222.1</ele>
        <time>2020-07-12T09:30:38Z</time>
      </trkpt>
      <trkpt lat="46.41226" lon="2.55253">
        <ele>222</ele>
        <time>2020-07-12T09:30:39Z</time>
      </trkpt>
      <trkpt lat="46.41221" lon="2.55254">
        <ele>222</ele>
        <time>2020-07-12T09:30:40Z</time>
      </trkpt>
      <trkpt lat="46.41215" lon="2.55255">
        <ele>221.4</ele>
        <time>2020-07-12T09:30:41Z</time>
      </trkpt>
      <trkpt lat="46.4121" lon="2.55256">
        <ele>221</ele>
        <time>2020-07-12T09:30:42Z</time>
      </trkpt>
      <trkpt lat="46.41205" lon="2.55257">
        <ele>220.7</ele>
        <time>2020-07-12T09:30:43Z</time>
      </trkpt>
      <trkpt lat="46.412" lon="2.55257">
        <ele>220.7</ele>
        <time>2020-07-12T09:30:44Z</time>
      </trkpt>
      <trkpt lat="46.41194" lon="2.55257">
        <ele>220.7</ele>
        <time>2020-07-12T09:30:45Z</time>
      </trkpt>
      <trkpt lat="46.41188" lon="2.55258">
        <ele>220.6</ele>
        <time>2020-07-12T09:30:46Z</time>
      </trkpt>
      <trkpt lat="46.41183" lon="2.55258">
        <ele>220.5</ele>
        <time>2020-07-12T09:30:47Z</time>
      </trkpt>
      <trkpt lat="46.41177" lon="2.55259">
        <ele>220.8</ele>
        <time>2020-07-12T09:30:48Z</time>
      </trkpt>
      <trkpt lat="46.41171" lon="2.5526">
        <ele>221</ele>
        <time>2020-07-12T09:30:49Z</time>
      </trkpt>
      <trkpt lat="46.41166" lon="2.55261">
        <ele>221.2</ele>
        <time>2020-07-12T09:30:50Z</time>
      </trkpt>
      <trkpt lat="46.4116" lon="2.55262">
        <ele>220.9</ele>
        <time>2020-07-12T09:30:51Z</time>
      </trkpt>
      <trkpt lat="46.41154" lon="2.55263">
        <ele>220.6</ele>
        <time>2020-07-12T09:30:52Z</time>
      </trkpt>
      <trkpt lat="46.41149" lon="2.55264">
        <ele>220.7</ele>
        <time>2020-07-12T09:30:53Z</time>
      </trkpt>
      <trkpt lat="46.41143" lon="2.55264">
        <ele>220.8</ele>
        <time>2020-07-12T09:30:54Z</time>
      </trkpt>
      <trkpt lat="46.41137" lon="2.55265">
        <ele>221.2</ele>
        <time>2020-07-12T09:30:55Z</time>
      </trkpt>
      <trkpt lat="46.41131" lon="2.55266">
        <ele>221.4</ele>
        <time>2020-07-12T09:30:56Z</time>
      </trkpt>
      <trkpt lat="46.41126" lon="2.55267">
        <ele>221.6</ele>
        <time>2020-07-12T09:30:57Z</time>
      </trkpt>
      <trkpt lat="46.4112" lon="2.55268">
        <ele>221.4</ele>
        <time>2020-07-12T09:30:58Z</time>
      </trkpt>
      <trkpt lat="46.41114" lon="2.55269">
        <ele>221.2</ele>
        <time>2020-07-12T09:30:59Z</time>
      </trkpt>
      <trkpt lat="46.41108" lon="2.5527">
        <ele>220.7</ele>
        <time>2020-07-12T09:31:00Z</time>
      </trkpt>
      <trkpt lat="46.41102" lon="2.55271">
        <ele>220.2</ele>
        <time>2020-07-12T09:31:01Z</time>
      </trkpt>
      <trkpt lat="46.41097" lon="2.55272">
        <ele>220.1</ele>
        <time>2020-07-12T09:31:02Z</time>
      </trkpt>
      <trkpt lat="46.41091" lon="2.55273">
        <ele>220.1</ele>
        <time>2020-07-12T09:31:03Z</time>
      </trkpt>
      <trkpt lat="46.41086" lon="2.55273">
        <ele>220</ele>
        <time>2020-07-12T09:31:04Z</time>
      </trkpt>
      <trkpt lat="46.4108" lon="2.55274">
        <ele>220.6</ele>
        <time>2020-07-12T09:31:05Z</time>
      </trkpt>
      <trkpt lat="46.41074" lon="2.55275">
        <ele>221</ele>
        <time>2020-07-12T09:31:06Z</time>
      </trkpt>
      <trkpt lat="46.41069" lon="2.55276">
        <ele>220.9</ele>
        <time>2020-07-12T09:31:07Z</time>
      </trkpt>
      <trkpt lat="46.41064" lon="2.55277">
        <ele>220.8</ele>
        <time>2020-07-12T09:31:08Z</time>
      </trkpt>
      <trkpt lat="46.41058" lon="2.55278">
        <ele>220.8</ele>
        <time>2020-07-12T09:31:09Z</time>
      </trkpt>
      <trkpt lat="46.41053" lon="2.55279">
        <ele>220.8</ele>
        <time>2020-07-12T09:31:10Z</time>
      </trkpt>
      <trkpt lat="46.41048" lon="2.55279">
        <ele>220.8</ele>
        <time>2020-07-12T09:31:11Z</time>
      </trkpt>
      <trkpt lat="46.41043" lon="2.5528">
        <ele>220.5</ele>
        <time>2020-07-12T09:31:12Z</time>
      </trkpt>
      <trkpt lat="46.41038" lon="2.55281">
        <ele>220.3</ele>
        <time>2020-07-12T09:31:13Z</time>
      </trkpt>
      <trkpt lat="46.41033" lon="2.55282">
        <ele>220</ele>
        <time>2020-07-12T09:31:14Z</time>
      </trkpt>
      <trkpt lat="46.41028" lon="2.55283">
        <ele>219.8</ele>
        <time>2020-07-12T09:31:15Z</time>
      </trkpt>
      <trkpt lat="46.41023" lon="2.55284">
        <ele>219.6</ele>
        <time>2020-07-12T09:31:16Z</time>
      </trkpt>
      <trkpt lat="46.41018" lon="2.55285">
        <ele>219.7</ele>
        <time>2020-07-12T09:31:17Z</time>
      </trkpt>
      <trkpt lat="46.41013" lon="2.55286">
        <ele>219.7</ele>
        <time>2020-07-12T09:31:18Z</time>
      </trkpt>
      <trkpt lat="46.41008" lon="2.55287">
        <ele>219.6</ele>
        <time>2020-07-12T09:31:19Z</time>
      </trkpt>
      <trkpt lat="46.41002" lon="2.55288">
        <ele>219.6</ele>
        <time>2020-07-12T09:31:20Z</time>
      </trkpt>
      <trkpt lat="46.40997" lon="2.55288">
        <ele>219.3</ele>
        <time>2020-07-12T09:31:21Z</time>
      </trkpt>
      <trkpt lat="46.40992" lon="2.55289">
        <ele>219.1</ele>
        <time>2020-07-12T09:31:22Z</time>
      </trkpt>
      <trkpt lat="46.40986" lon="2.5529">
        <ele>218.9</ele>
        <time>2020-07-12T09:31:23Z</time>
      </trkpt>
      <trkpt lat="46.4098" lon="2.55291">
        <ele>219.2</ele>
        <time>2020-07-12T09:31:24Z</time>
      </trkpt>
      <trkpt lat="46.40975" lon="2.55292">
        <ele>219.4</ele>
        <time>2020-07-12T09:31:25Z</time>
      </trkpt>
      <trkpt lat="46.4097" lon="2.55293">
        <ele>219.5</ele>
        <time>2020-07-12T09:31:26Z</time>
      </trkpt>
      <trkpt lat="46.40964" lon="2.55294">
        <ele>219.6</ele>
        <time>2020-07-12T09:31:27Z</time>
      </trkpt>
      <trkpt lat="46.40959" lon="2.55295">
        <ele>219.6</ele>
        <time>2020-07-12T09:31:28Z</time>
      </trkpt>
      <trkpt lat="46.40954" lon="2.55296">
        <ele>219.3</ele>
        <time>2020-07-12T09:31:29Z</time>
      </trkpt>
      <trkpt lat="46.40949" lon="2.55298">
        <ele>219.1</ele>
        <time>2020-07-12T09:31:30Z</time>
      </trkpt>
      <trkpt lat="46.40945" lon="2.55301">
        <ele>219.4</ele>
        <time>2020-07-12T09:31:31Z</time>
      </trkpt>
      <trkpt lat="46.40941" lon="2.55304">
        <ele>219.6</ele>
        <time>2020-07-12T09:31:32Z</time>
      </trkpt>
      <trkpt lat="46.40936" lon="2.55307">
        <ele>219.6</ele>
        <time>2020-07-12T09:31:33Z</time>
      </trkpt>
      <trkpt lat="46.40931" lon="2.5531">
        <ele>219.6</ele>
        <time>2020-07-12T09:31:34Z</time>
      </trkpt>
      <trkpt lat="46.40926" lon="2.55314">
        <ele>219.6</ele>
        <time>2020-07-12T09:31:35Z</time>
      </trkpt>
      <trkpt lat="46.40921" lon="2.55318">
        <ele>219.4</ele>
        <time>2020-07-12T09:31:36Z</time>
      </trkpt>
      <trkpt lat="46.40916" lon="2.55322">
        <ele>219.3</ele>
        <time>2020-07-12T09:31:37Z</time>
      </trkpt>
      <trkpt lat="46.40911" lon="2.55325">
        <ele>218.8</ele>
        <time>2020-07-12T09:31:38Z</time>
      </trkpt>
      <trkpt lat="46.40906" lon="2.55329">
        <ele>218.5</ele>
        <time>2020-07-12T09:31:39Z</time>
      </trkpt>
      <trkpt lat="46.40901" lon="2.55333">
        <ele>218.4</ele>
        <time>2020-07-12T09:31:40Z</time>
      </trkpt>
      <trkpt lat="46.40896" lon="2.55337">
        <ele>218.3</ele>
        <time>2020-07-12T09:31:41Z</time>
      </trkpt>
      <trkpt lat="46.40891" lon="2.55342">
        <ele>218.3</ele>
        <time>2020-07-12T09:31:42Z</time>
      </trkpt>
      <trkpt lat="46.40886" lon="2.55346">
        <ele>218.1</ele>
        <time>2020-07-12T09:31:43Z</time>
      </trkpt>
      <trkpt lat="46.40881" lon="2.5535">
        <ele>218</ele>
        <time>2020-07-12T09:31:44Z</time>
      </trkpt>
      <trkpt lat="46.40876" lon="2.55353">
        <ele>218.3</ele>
        <time>2020-07-12T09:31:45Z</time>
      </trkpt>
      <trkpt lat="46.40871" lon="2.55357">
        <ele>218.5</ele>
        <time>2020-07-12T09:31:46Z</time>
      </trkpt>
      <trkpt lat="46.40866" lon="2.55362">
        <ele>218.7</ele>
        <time>2020-07-12T09:31:47Z</time>
      </trkpt>
      <trkpt lat="46.40861" lon="2.55366">
        <ele>218.9</ele>
        <time>2020-07-12T09:31:48Z</time>
      </trkpt>
      <trkpt lat="46.40856" lon="2.5537">
        <ele>219</ele>
        <time>2020-07-12T09:31:49Z</time>
      </trkpt>
      <trkpt lat="46.40851" lon="2.55374">
        <ele>218.6</ele>
        <time>2020-07-12T09:31:50Z</time>
      </trkpt>
      <trkpt lat="46.40846" lon="2.55378">
        <ele>218.3</ele>
        <time>2020-07-12T09:31:51Z</time>
      </trkpt>
      <trkpt lat="46.40841" lon="2.55382">
        <ele>218.3</ele>
        <time>2020-07-12T09:31:52Z</time>
      </trkpt>
      <trkpt lat="46.40837" lon="2.55386">
        <ele>218.4</ele>
        <time>2020-07-12T09:31:53Z</time>
      </trkpt>
      <trkpt lat="46.40832" lon="2.5539">
        <ele>218.4</ele>
        <time>2020-07-12T09:31:54Z</time>
      </trkpt>
      <trkpt lat="46.40827" lon="2.55394">
        <ele>218.2</ele>
        <time>2020-07-12T09:31:55Z</time>
      </trkpt>
      <trkpt lat="46.40822" lon="2.55398">
        <ele>218</ele>
        <time>2020-07-12T09:31:56Z</time>
      </trkpt>
      <trkpt lat="46.40817" lon="2.55402">
        <ele>218.2</ele>
        <time>2020-07-12T09:31:57Z</time>
      </trkpt>
      <trkpt lat="46.40812" lon="2.55405">
        <ele>218.3</ele>
        <time>2020-07-12T09:31:58Z</time>
      </trkpt>
      <trkpt lat="46.40807" lon="2.55409">
        <ele>217.7</ele>
        <time>2020-07-12T09:31:59Z</time>
      </trkpt>
      <trkpt lat="46.40803" lon="2.55413">
        <ele>217.3</ele>
        <time>2020-07-12T09:32:00Z</time>
      </trkpt>
      <trkpt lat="46.40798" lon="2.55417">
        <ele>217</ele>
        <time>2020-07-12T09:32:01Z</time>
      </trkpt>
      <trkpt lat="46.40794" lon="2.55421">
        <ele>216.9</ele>
        <time>2020-07-12T09:32:02Z</time>
      </trkpt>
      <trkpt lat="46.40789" lon="2.55425">
        <ele>216.8</ele>
        <time>2020-07-12T09:32:03Z</time>
      </trkpt>
      <trkpt lat="46.40784" lon="2.55429">
        <ele>216.8</ele>
        <time>2020-07-12T09:32:04Z</time>
      </trkpt>
      <trkpt lat="46.40779" lon="2.55433">
        <ele>216.9</ele>
        <time>2020-07-12T09:32:05Z</time>
      </trkpt>
      <trkpt lat="46.40774" lon="2.55437">
        <ele>216.9</ele>
        <time>2020-07-12T09:32:06Z</time>
      </trkpt>
      <trkpt lat="46.40769" lon="2.55442">
        <ele>216.9</ele>
        <time>2020-07-12T09:32:07Z</time>
      </trkpt>
      <trkpt lat="46.40763" lon="2.55446">
        <ele>216.9</ele>
        <time>2020-07-12T09:32:08Z</time>
      </trkpt>
      <trkpt lat="46.40758" lon="2.5545">
        <ele>216.9</ele>
        <time>2020-07-12T09:32:09Z</time>
      </trkpt>
      <trkpt lat="46.40744" lon="2.55462">
        <ele>217.4</ele>
        <time>2020-07-12T09:32:11Z</time>
      </trkpt>
      <trkpt lat="46.40719" lon="2.55481">
        <ele>215</ele>
        <time>2020-07-12T09:32:16Z</time>
      </trkpt>
      <trkpt lat="46.40702" lon="2.55523">
        <ele>214</ele>
        <time>2020-07-12T09:32:22Z</time>
      </trkpt>
      <trkpt lat="46.40701" lon="2.55537">
        <ele>214.6</ele>
        <time>2020-07-12T09:32:24Z</time>
      </trkpt>
      <trkpt lat="46.40698" lon="2.55598">
        <ele>212</ele>
        <time>2020-07-12T09:32:30Z</time>
      </trkpt>
      <trkpt lat="46.40696" lon="2.55633">
        <ele>212</ele>
        <time>2020-07-12T09:32:34Z</time>
      </trkpt>
      <trkpt lat="46.40697" lon="2.55675">
        <ele>213</ele>
        <time>2020-07-12T09:32:39Z</time>
      </trkpt>
      <trkpt lat="46.40701" lon="2.5572">
        <ele>212</ele>
        <time>2020-07-12T09:32:46Z</time>
      </trkpt>
      <trkpt lat="46.40702" lon="2.55743">
        <ele>212.5</ele>
        <time>2020-07-12T09:32:49Z</time>
      </trkpt>
      <trkpt lat="46.40704" lon="2.55786">
        <ele>211</ele>
        <time>2020-07-12T09:32:54Z</time>
      </trkpt>
      <trkpt lat="46.40701" lon="2.55846">
        <ele>211</ele>
        <time>2020-07-12T09:33:02Z</time>
      </trkpt>
      <trkpt lat="46.407" lon="2.55873">
        <ele>212.4</ele>
        <time>2020-07-12T09:33:06Z</time>
      </trkpt>
      <trkpt lat="46.40699" lon="2.55881">
        <ele>212.4</ele>
        <time>2020-07-12T09:33:07Z</time>
      </trkpt>
      <trkpt lat="46.40697" lon="2.55888">
        <ele>212</ele>
        <time>2020-07-12T09:33:08Z</time>
      </trkpt>
      <trkpt lat="46.40696" lon="2.55895">
        <ele>211.7</ele>
        <time>2020-07-12T09:33:09Z</time>
      </trkpt>
      <trkpt lat="46.40694" lon="2.55902">
        <ele>211.6</ele>
        <time>2020-07-12T09:33:10Z</time>
      </trkpt>
      <trkpt lat="46.40692" lon="2.55908">
        <ele>211.3</ele>
        <time>2020-07-12T09:33:11Z</time>
      </trkpt>
      <trkpt lat="46.4069" lon="2.55915">
        <ele>211.1</ele>
        <time>2020-07-12T09:33:12Z</time>
      </trkpt>
      <trkpt lat="46.40688" lon="2.55922">
        <ele>210.9</ele>
        <time>2020-07-12T09:33:13Z</time>
      </trkpt>
      <trkpt lat="46.40686" lon="2.55928">
        <ele>210.7</ele>
        <time>2020-07-12T09:33:14Z</time>
      </trkpt>
      <trkpt lat="46.40684" lon="2.55936">
        <ele>211.3</ele>
        <time>2020-07-12T09:33:15Z</time>
      </trkpt>
      <trkpt lat="46.40682" lon="2.55943">
        <ele>211.8</ele>
        <time>2020-07-12T09:33:16Z</time>
      </trkpt>
      <trkpt lat="46.4068" lon="2.5595">
        <ele>212.2</ele>
        <time>2020-07-12T09:33:17Z</time>
      </trkpt>
      <trkpt lat="46.40677" lon="2.55957">
        <ele>211.9</ele>
        <time>2020-07-12T09:33:18Z</time>
      </trkpt>
      <trkpt lat="46.40675" lon="2.55964">
        <ele>211.7</ele>
        <time>2020-07-12T09:33:19Z</time>
      </trkpt>
      <trkpt lat="46.40673" lon="2.5597">
        <ele>211.6</ele>
        <time>2020-07-12T09:33:20Z</time>
      </trkpt>
      <trkpt lat="46.40671" lon="2.55976">
        <ele>211.5</ele>
        <time>2020-07-12T09:33:21Z</time>
      </trkpt>
      <trkpt lat="46.40668" lon="2.55983">
        <ele>211.1</ele>
        <time>2020-07-12T09:33:22Z</time>
      </trkpt>
      <trkpt lat="46.40666" lon="2.55989">
        <ele>210.8</ele>
        <time>2020-07-12T09:33:23Z</time>
      </trkpt>
      <trkpt lat="46.40663" lon="2.55996">
        <ele>210.6</ele>
        <time>2020-07-12T09:33:24Z</time>
      </trkpt>
      <trkpt lat="46.4066" lon="2.56003">
        <ele>210.5</ele>
        <time>2020-07-12T09:33:25Z</time>
      </trkpt>
      <trkpt lat="46.40658" lon="2.56009">
        <ele>210.4</ele>
        <time>2020-07-12T09:33:26Z</time>
      </trkpt>
      <trkpt lat="46.40657" lon="2.56021">
        <ele>210.5</ele>
        <time>2020-07-12T09:33:28Z</time>
      </trkpt>
      <trkpt lat="46.40658" lon="2.56033">
        <ele>210.2</ele>
        <time>2020-07-12T09:33:30Z</time>
      </trkpt>
      <trkpt lat="46.4066" lon="2.56045">
        <ele>210</ele>
        <time>2020-07-12T09:33:32Z</time>
      </trkpt>
      <trkpt lat="46.40665" lon="2.56056">
        <ele>210.5</ele>
        <time>2020-07-12T09:33:34Z</time>
      </trkpt>
      <trkpt lat="46.40671" lon="2.56065">
        <ele>211.1</ele>
        <time>2020-07-12T09:33:36Z</time>
      </trkpt>
      <trkpt lat="46.40677" lon="2.56074">
        <ele>211.3</ele>
        <time>2020-07-12T09:33:38Z</time>
      </trkpt>
      <trkpt lat="46.40682" lon="2.56084">
        <ele>211</ele>
        <time>2020-07-12T09:33:40Z</time>
      </trkpt>
      <trkpt lat="46.40687" lon="2.56094">
        <ele>211.1</ele>
        <time>2020-07-12T09:33:42Z</time>
      </trkpt>
      <trkpt lat="46.40692" lon="2.56105">
        <ele>210.9</ele>
        <time>2020-07-12T09:33:44Z</time>
      </trkpt>
      <trkpt lat="46.40694" lon="2.5611">
        <ele>210.6</ele>
        <time>2020-07-12T09:33:45Z</time>
      </trkpt>
      <trkpt lat="46.40697" lon="2.56116">
        <ele>210.4</ele>
        <time>2020-07-12T09:33:46Z</time>
      </trkpt>
      <trkpt lat="46.40699" lon="2.56122">
        <ele>210.2</ele>
        <time>2020-07-12T09:33:47Z</time>
      </trkpt>
      <trkpt lat="46.40701" lon="2.56128">
        <ele>210.1</ele>
        <time>2020-07-12T09:33:48Z</time>
      </trkpt>
      <trkpt lat="46.40702" lon="2.56134">
        <ele>210.1</ele>
        <time>2020-07-12T09:33:49Z</time>
      </trkpt>
      <trkpt lat="46.40704" lon="2.5614">
        <ele>210.2</ele>
        <time>2020-07-12T09:33:50Z</time>
      </trkpt>
      <trkpt lat="46.40706" lon="2.56147">
        <ele>209.9</ele>
        <time>2020-07-12T09:33:51Z</time>
      </trkpt>
      <trkpt lat="46.40707" lon="2.56153">
        <ele>209.7</ele>
        <time>2020-07-12T09:33:52Z</time>
      </trkpt>
      <trkpt lat="46.40708" lon="2.56159">
        <ele>209.9</ele>
        <time>2020-07-12T09:33:53Z</time>
      </trkpt>
      <trkpt lat="46.40709" lon="2.56166">
        <ele>210.1</ele>
        <time>2020-07-12T09:33:54Z</time>
      </trkpt>
      <trkpt lat="46.4071" lon="2.56173">
        <ele>210.2</ele>
        <time>2020-07-12T09:33:55Z</time>
      </trkpt>
      <trkpt lat="46.4071" lon="2.56179">
        <ele>209.9</ele>
        <time>2020-07-12T09:33:56Z</time>
      </trkpt>
      <trkpt lat="46.40711" lon="2.56186">
        <ele>209.6</ele>
        <time>2020-07-12T09:33:57Z</time>
      </trkpt>
      <trkpt lat="46.40711" lon="2.56193">
        <ele>209.9</ele>
        <time>2020-07-12T09:33:58Z</time>
      </trkpt>
      <trkpt lat="46.40712" lon="2.562">
        <ele>210</ele>
        <time>2020-07-12T09:33:59Z</time>
      </trkpt>
      <trkpt lat="46.40712" lon="2.56206">
        <ele>210</ele>
        <time>2020-07-12T09:34:00Z</time>
      </trkpt>
      <trkpt lat="46.40712" lon="2.56213">
        <ele>210</ele>
        <time>2020-07-12T09:34:01Z</time>
      </trkpt>
      <trkpt lat="46.40712" lon="2.5622">
        <ele>209.9</ele>
        <time>2020-07-12T09:34:02Z</time>
      </trkpt>
      <trkpt lat="46.40712" lon="2.56226">
        <ele>209.7</ele>
        <time>2020-07-12T09:34:03Z</time>
      </trkpt>
      <trkpt lat="46.40712" lon="2.56233">
        <ele>209.6</ele>
        <time>2020-07-12T09:34:04Z</time>
      </trkpt>
      <trkpt lat="46.40712" lon="2.5624">
        <ele>209.4</ele>
        <time>2020-07-12T09:34:05Z</time>
      </trkpt>
      <trkpt lat="46.40712" lon="2.56246">
        <ele>209.2</ele>
        <time>2020-07-12T09:34:06Z</time>
      </trkpt>
      <trkpt lat="46.40712" lon="2.56253">
        <ele>209.1</ele>
        <time>2020-07-12T09:34:07Z</time>
      </trkpt>
      <trkpt lat="46.40711" lon="2.5626">
        <ele>209.4</ele>
        <time>2020-07-12T09:34:08Z</time>
      </trkpt>
      <trkpt lat="46.40711" lon="2.56266">
        <ele>209.7</ele>
        <time>2020-07-12T09:34:09Z</time>
      </trkpt>
      <trkpt lat="46.40711" lon="2.56273">
        <ele>209.7</ele>
        <time>2020-07-12T09:34:10Z</time>
      </trkpt>
      <trkpt lat="46.40711" lon="2.56279">
        <ele>209.7</ele>
        <time>2020-07-12T09:34:11Z</time>
      </trkpt>
      <trkpt lat="46.40711" lon="2.56286">
        <ele>209.9</ele>
        <time>2020-07-12T09:34:12Z</time>
      </trkpt>
      <trkpt lat="46.40711" lon="2.56293">
        <ele>210</ele>
        <time>2020-07-12T09:34:13Z</time>
      </trkpt>
      <trkpt lat="46.40711" lon="2.563">
        <ele>210.1</ele>
        <time>2020-07-12T09:34:14Z</time>
      </trkpt>
      <trkpt lat="46.40711" lon="2.56307">
        <ele>209.5</ele>
        <time>2020-07-12T09:34:15Z</time>
      </trkpt>
      <trkpt lat="46.40711" lon="2.5632">
        <ele>209.4</ele>
        <time>2020-07-12T09:34:17Z</time>
      </trkpt>
      <trkpt lat="46.4071" lon="2.56332">
        <ele>209.2</ele>
        <time>2020-07-12T09:34:19Z</time>
      </trkpt>
      <trkpt lat="46.4071" lon="2.56344">
        <ele>208.5</ele>
        <time>2020-07-12T09:34:21Z</time>
      </trkpt>
      <trkpt lat="46.4071" lon="2.56356">
        <ele>209.8</ele>
        <time>2020-07-12T09:34:23Z</time>
      </trkpt>
      <trkpt lat="46.4071" lon="2.56368">
        <ele>209.8</ele>
        <time>2020-07-12T09:34:25Z</time>
      </trkpt>
      <trkpt lat="46.4071" lon="2.56379">
        <ele>209.7</ele>
        <time>2020-07-12T09:34:27Z</time>
      </trkpt>
      <trkpt lat="46.4071" lon="2.56385">
        <ele>209.6</ele>
        <time>2020-07-12T09:34:28Z</time>
      </trkpt>
      <trkpt lat="46.40709" lon="2.56404">
        <ele>209.9</ele>
        <time>2020-07-12T09:34:31Z</time>
      </trkpt>
      <trkpt lat="46.40709" lon="2.56411">
        <ele>209.9</ele>
        <time>2020-07-12T09:34:32Z</time>
      </trkpt>
      <trkpt lat="46.40709" lon="2.56417">
        <ele>210</ele>
        <time>2020-07-12T09:34:33Z</time>
      </trkpt>
      <trkpt lat="46.40708" lon="2.56424">
        <ele>209.8</ele>
        <time>2020-07-12T09:34:34Z</time>
      </trkpt>
      <trkpt lat="46.40708" lon="2.56431">
        <ele>209.7</ele>
        <time>2020-07-12T09:34:35Z</time>
      </trkpt>
      <trkpt lat="46.40708" lon="2.56437">
        <ele>209.3</ele>
        <time>2020-07-12T09:34:36Z</time>
      </trkpt>
      <trkpt lat="46.40708" lon="2.5645">
        <ele>208.9</ele>
        <time>2020-07-12T09:34:38Z</time>
      </trkpt>
      <trkpt lat="46.40708" lon="2.56463">
        <ele>208.7</ele>
        <time>2020-07-12T09:34:40Z</time>
      </trkpt>
      <trkpt lat="46.40709" lon="2.56475">
        <ele>208.3</ele>
        <time>2020-07-12T09:34:42Z</time>
      </trkpt>
      <trkpt lat="46.40708" lon="2.56486">
        <ele>208.7</ele>
        <time>2020-07-12T09:34:44Z</time>
      </trkpt>
      <trkpt lat="46.40708" lon="2.56498">
        <ele>208.9</ele>
        <time>2020-07-12T09:34:46Z</time>
      </trkpt>
      <trkpt lat="46.40706" lon="2.5651">
        <ele>208.6</ele>
        <time>2020-07-12T09:34:48Z</time>
      </trkpt>
      <trkpt lat="46.40703" lon="2.56521">
        <ele>208.4</ele>
        <time>2020-07-12T09:34:50Z</time>
      </trkpt>
      <trkpt lat="46.40701" lon="2.56532">
        <ele>208.6</ele>
        <time>2020-07-12T09:34:52Z</time>
      </trkpt>
      <trkpt lat="46.40698" lon="2.56543">
        <ele>208.7</ele>
        <time>2020-07-12T09:34:54Z</time>
      </trkpt>
      <trkpt lat="46.40695" lon="2.56553">
        <ele>209.3</ele>
        <time>2020-07-12T09:34:56Z</time>
      </trkpt>
      <trkpt lat="46.40692" lon="2.56563">
        <ele>209.8</ele>
        <time>2020-07-12T09:34:58Z</time>
      </trkpt>
      <trkpt lat="46.4069" lon="2.56572">
        <ele>210.3</ele>
        <time>2020-07-12T09:35:00Z</time>
      </trkpt>
      <trkpt lat="46.40687" lon="2.56581">
        <ele>210.7</ele>
        <time>2020-07-12T09:35:02Z</time>
      </trkpt>
      <trkpt lat="46.40684" lon="2.56589">
        <ele>211.3</ele>
        <time>2020-07-12T09:35:04Z</time>
      </trkpt>
      <trkpt lat="46.40681" lon="2.56598">
        <ele>212</ele>
        <time>2020-07-12T09:35:06Z</time>
      </trkpt>
      <trkpt lat="46.40678" lon="2.56607">
        <ele>212</ele>
        <time>2020-07-12T09:35:08Z</time>
      </trkpt>
      <trkpt lat="46.40675" lon="2.56615">
        <ele>212.3</ele>
        <time>2020-07-12T09:35:10Z</time>
      </trkpt>
      <trkpt lat="46.40673" lon="2.56623">
        <ele>212.5</ele>
        <time>2020-07-12T09:35:12Z</time>
      </trkpt>
      <trkpt lat="46.40672" lon="2.56632">
        <ele>212.8</ele>
        <time>2020-07-12T09:35:14Z</time>
      </trkpt>
      <trkpt lat="46.40669" lon="2.56641">
        <ele>213.5</ele>
        <time>2020-07-12T09:35:16Z</time>
      </trkpt>
      <trkpt lat="46.40666" lon="2.5665">
        <ele>214.3</ele>
        <time>2020-07-12T09:35:18Z</time>
      </trkpt>
      <trkpt lat="46.40663" lon="2.56659">
        <ele>214.6</ele>
        <time>2020-07-12T09:35:20Z</time>
      </trkpt>
      <trkpt lat="46.40661" lon="2.56667">
        <ele>215.1</ele>
        <time>2020-07-12T09:35:22Z</time>
      </trkpt>
      <trkpt lat="46.40659" lon="2.56676">
        <ele>215.2</ele>
        <time>2020-07-12T09:35:24Z</time>
      </trkpt>
      <trkpt lat="46.40657" lon="2.56684">
        <ele>215.1</ele>
        <time>2020-07-12T09:35:26Z</time>
      </trkpt>
      <trkpt lat="46.40655" lon="2.56693">
        <ele>215.6</ele>
        <time>2020-07-12T09:35:28Z</time>
      </trkpt>
      <trkpt lat="46.40653" lon="2.56701">
        <ele>216.4</ele>
        <time>2020-07-12T09:35:30Z</time>
      </trkpt>
      <trkpt lat="46.40652" lon="2.56705">
        <ele>216.4</ele>
        <time>2020-07-12T09:35:31Z</time>
      </trkpt>
      <trkpt lat="46.4065" lon="2.56719">
        <ele>217.1</ele>
        <time>2020-07-12T09:35:34Z</time>
      </trkpt>
      <trkpt lat="46.40649" lon="2.56728">
        <ele>217.2</ele>
        <time>2020-07-12T09:35:36Z</time>
      </trkpt>
      <trkpt lat="46.40647" lon="2.56737">
        <ele>217.2</ele>
        <time>2020-07-12T09:35:38Z</time>
      </trkpt>
      <trkpt lat="46.40646" lon="2.56747">
        <ele>217.5</ele>
        <time>2020-07-12T09:35:40Z</time>
      </trkpt>
      <trkpt lat="46.40645" lon="2.56756">
        <ele>217.8</ele>
        <time>2020-07-12T09:35:42Z</time>
      </trkpt>
      <trkpt lat="46.40644" lon="2.56766">
        <ele>217.7</ele>
        <time>2020-07-12T09:35:44Z</time>
      </trkpt>
      <trkpt lat="46.40643" lon="2.56776">
        <ele>217.9</ele>
        <time>2020-07-12T09:35:46Z</time>
      </trkpt>
      <trkpt lat="46.40643" lon="2.56786">
        <ele>218</ele>
        <time>2020-07-12T09:35:48Z</time>
      </trkpt>
      <trkpt lat="46.40643" lon="2.56796">
        <ele>218.7</ele>
        <time>2020-07-12T09:35:50Z</time>
      </trkpt>
      <trkpt lat="46.40643" lon="2.56806">
        <ele>219.7</ele>
        <time>2020-07-12T09:35:52Z</time>
      </trkpt>
      <trkpt lat="46.40644" lon="2.56816">
        <ele>219.8</ele>
        <time>2020-07-12T09:35:54Z</time>
      </trkpt>
      <trkpt lat="46.40644" lon="2.56827">
        <ele>219.5</ele>
        <time>2020-07-12T09:35:56Z</time>
      </trkpt>
      <trkpt lat="46.40644" lon="2.56837">
        <ele>219.4</ele>
        <time>2020-07-12T09:35:58Z</time>
      </trkpt>
      <trkpt lat="46.40643" lon="2.56847">
        <ele>219.6</ele>
        <time>2020-07-12T09:36:00Z</time>
      </trkpt>
      <trkpt lat="46.40642" lon="2.56858">
        <ele>220.5</ele>
        <time>2020-07-12T09:36:02Z</time>
      </trkpt>
      <trkpt lat="46.40641" lon="2.56869">
        <ele>220.5</ele>
        <time>2020-07-12T09:36:04Z</time>
      </trkpt>
      <trkpt lat="46.40641" lon="2.5688">
        <ele>220.2</ele>
        <time>2020-07-12T09:36:06Z</time>
      </trkpt>
      <trkpt lat="46.4064" lon="2.56892">
        <ele>219.9</ele>
        <time>2020-07-12T09:36:08Z</time>
      </trkpt>
      <trkpt lat="46.40639" lon="2.56904">
        <ele>220.3</ele>
        <time>2020-07-12T09:36:10Z</time>
      </trkpt>
      <trkpt lat="46.40639" lon="2.56915">
        <ele>220.2</ele>
        <time>2020-07-12T09:36:12Z</time>
      </trkpt>
      <trkpt lat="46.40638" lon="2.56928">
        <ele>220.5</ele>
        <time>2020-07-12T09:36:14Z</time>
      </trkpt>
      <trkpt lat="46.40637" lon="2.5694">
        <ele>220.5</ele>
        <time>2020-07-12T09:36:16Z</time>
      </trkpt>
      <trkpt lat="46.40636" lon="2.56953">
        <ele>220.1</ele>
        <time>2020-07-12T09:36:18Z</time>
      </trkpt>
      <trkpt lat="46.40636" lon="2.56966">
        <ele>220.2</ele>
        <time>2020-07-12T09:36:20Z</time>
      </trkpt>
      <trkpt lat="46.40635" lon="2.56978">
        <ele>220.4</ele>
        <time>2020-07-12T09:36:22Z</time>
      </trkpt>
      <trkpt lat="46.40635" lon="2.56991">
        <ele>220.5</ele>
        <time>2020-07-12T09:36:24Z</time>
      </trkpt>
      <trkpt lat="46.40634" lon="2.57003">
        <ele>221.2</ele>
        <time>2020-07-12T09:36:26Z</time>
      </trkpt>
      <trkpt lat="46.40633" lon="2.57015">
        <ele>220.9</ele>
        <time>2020-07-12T09:36:28Z</time>
      </trkpt>
      <trkpt lat="46.40632" lon="2.57027">
        <ele>220.4</ele>
        <time>2020-07-12T09:36:30Z</time>
      </trkpt>
      <trkpt lat="46.40631" lon="2.57038">
        <ele>220.2</ele>
        <time>2020-07-12T09:36:32Z</time>
      </trkpt>
      <trkpt lat="46.40631" lon="2.57044">
        <ele>220.2</ele>
        <time>2020-07-12T09:36:33Z</time>
      </trkpt>
      <trkpt lat="46.40631" lon="2.57062">
        <ele>220.6</ele>
        <time>2020-07-12T09:36:36Z</time>
      </trkpt>
      <trkpt lat="46.40631" lon="2.57075">
        <ele>219.7</ele>
        <time>2020-07-12T09:36:38Z</time>
      </trkpt>
      <trkpt lat="46.4063" lon="2.57081">
        <ele>219.7</ele>
        <time>2020-07-12T09:36:39Z</time>
      </trkpt>
      <trkpt lat="46.4063" lon="2.57088">
        <ele>219.7</ele>
        <time>2020-07-12T09:36:40Z</time>
      </trkpt>
      <trkpt lat="46.40629" lon="2.57094">
        <ele>219.7</ele>
        <time>2020-07-12T09:36:41Z</time>
      </trkpt>
      <trkpt lat="46.40627" lon="2.57101">
        <ele>219.5</ele>
        <time>2020-07-12T09:36:42Z</time>
      </trkpt>
      <trkpt lat="46.40625" lon="2.57107">
        <ele>219.3</ele>
        <time>2020-07-12T09:36:43Z</time>
      </trkpt>
      <trkpt lat="46.40623" lon="2.57113">
        <ele>219.5</ele>
        <time>2020-07-12T09:36:44Z</time>
      </trkpt>
      <trkpt lat="46.40621" lon="2.57119">
        <ele>219.6</ele>
        <time>2020-07-12T09:36:45Z</time>
      </trkpt>
      <trkpt lat="46.40615" lon="2.57128">
        <ele>219.5</ele>
        <time>2020-07-12T09:36:47Z</time>
      </trkpt>
      <trkpt lat="46.40608" lon="2.57135">
        <ele>219.2</ele>
        <time>2020-07-12T09:36:49Z</time>
      </trkpt>
      <trkpt lat="46.406" lon="2.5714">
        <ele>219.1</ele>
        <time>2020-07-12T09:36:51Z</time>
      </trkpt>
      <trkpt lat="46.40592" lon="2.57146">
        <ele>218.9</ele>
        <time>2020-07-12T09:36:53Z</time>
      </trkpt>
      <trkpt lat="46.40584" lon="2.57151">
        <ele>219.1</ele>
        <time>2020-07-12T09:36:55Z</time>
      </trkpt>
      <trkpt lat="46.40576" lon="2.57157">
        <ele>219</ele>
        <time>2020-07-12T09:36:57Z</time>
      </trkpt>
      <trkpt lat="46.40568" lon="2.57163">
        <ele>219</ele>
        <time>2020-07-12T09:36:59Z</time>
      </trkpt>
      <trkpt lat="46.40561" lon="2.5717">
        <ele>219</ele>
        <time>2020-07-12T09:37:01Z</time>
      </trkpt>
      <trkpt lat="46.40555" lon="2.57179">
        <ele>219.3</ele>
        <time>2020-07-12T09:37:03Z</time>
      </trkpt>
      <trkpt lat="46.40549" lon="2.57188">
        <ele>219.5</ele>
        <time>2020-07-12T09:37:05Z</time>
      </trkpt>
      <trkpt lat="46.40544" lon="2.57198">
        <ele>219.9</ele>
        <time>2020-07-12T09:37:07Z</time>
      </trkpt>
      <trkpt lat="46.40541" lon="2.57204">
        <ele>219.9</ele>
        <time>2020-07-12T09:37:08Z</time>
      </trkpt>
      <trkpt lat="46.40536" lon="2.57214">
        <ele>219.6</ele>
        <time>2020-07-12T09:37:10Z</time>
      </trkpt>
      <trkpt lat="46.40531" lon="2.57223">
        <ele>219.4</ele>
        <time>2020-07-12T09:37:12Z</time>
      </trkpt>
      <trkpt lat="46.40525" lon="2.57233">
        <ele>219.8</ele>
        <time>2020-07-12T09:37:14Z</time>
      </trkpt>
      <trkpt lat="46.4052" lon="2.57243">
        <ele>219.3</ele>
        <time>2020-07-12T09:37:16Z</time>
      </trkpt>
      <trkpt lat="46.40515" lon="2.57252">
        <ele>219.9</ele>
        <time>2020-07-12T09:37:18Z</time>
      </trkpt>
      <trkpt lat="46.4051" lon="2.57261">
        <ele>220.3</ele>
        <time>2020-07-12T09:37:20Z</time>
      </trkpt>
      <trkpt lat="46.40505" lon="2.5727">
        <ele>220.7</ele>
        <time>2020-07-12T09:37:22Z</time>
      </trkpt>
      <trkpt lat="46.405" lon="2.57279">
        <ele>220.9</ele>
        <time>2020-07-12T09:37:24Z</time>
      </trkpt>
      <trkpt lat="46.40494" lon="2.57287">
        <ele>221.1</ele>
        <time>2020-07-12T09:37:26Z</time>
      </trkpt>
      <trkpt lat="46.4049" lon="2.57296">
        <ele>222.1</ele>
        <time>2020-07-12T09:37:28Z</time>
      </trkpt>
      <trkpt lat="46.40485" lon="2.57304">
        <ele>221.9</ele>
        <time>2020-07-12T09:37:30Z</time>
      </trkpt>
      <trkpt lat="46.40481" lon="2.57312">
        <ele>222</ele>
        <time>2020-07-12T09:37:32Z</time>
      </trkpt>
      <trkpt lat="46.40476" lon="2.57322">
        <ele>222.1</ele>
        <time>2020-07-12T09:37:34Z</time>
      </trkpt>
      <trkpt lat="46.40474" lon="2.57327">
        <ele>222.1</ele>
        <time>2020-07-12T09:37:35Z</time>
      </trkpt>
      <trkpt lat="46.40466" lon="2.57342">
        <ele>222.6</ele>
        <time>2020-07-12T09:37:38Z</time>
      </trkpt>
      <trkpt lat="46.40462" lon="2.57352">
        <ele>223.2</ele>
        <time>2020-07-12T09:37:40Z</time>
      </trkpt>
      <trkpt lat="46.40457" lon="2.57361">
        <ele>222.6</ele>
        <time>2020-07-12T09:37:42Z</time>
      </trkpt>
      <trkpt lat="46.40453" lon="2.57372">
        <ele>223.5</ele>
        <time>2020-07-12T09:37:44Z</time>
      </trkpt>
      <trkpt lat="46.40449" lon="2.57383">
        <ele>223.6</ele>
        <time>2020-07-12T09:37:46Z</time>
      </trkpt>
      <trkpt lat="46.40445" lon="2.57392">
        <ele>223.6</ele>
        <time>2020-07-12T09:37:48Z</time>
      </trkpt>
      <trkpt lat="46.40441" lon="2.57401">
        <ele>223.8</ele>
        <time>2020-07-12T09:37:50Z</time>
      </trkpt>
      <trkpt lat="46.40438" lon="2.5741">
        <ele>224</ele>
        <time>2020-07-12T09:37:52Z</time>
      </trkpt>
      <trkpt lat="46.40434" lon="2.57419">
        <ele>224.4</ele>
        <time>2020-07-12T09:37:54Z</time>
      </trkpt>
      <trkpt lat="46.4043" lon="2.57429">
        <ele>225</ele>
        <time>2020-07-12T09:37:56Z</time>
      </trkpt>
      <trkpt lat="46.40426" lon="2.57439">
        <ele>225.3</ele>
        <time>2020-07-12T09:37:58Z</time>
      </trkpt>
      <trkpt lat="46.40423" lon="2.57449">
        <ele>225.6</ele>
        <time>2020-07-12T09:38:00Z</time>
      </trkpt>
      <trkpt lat="46.40419" lon="2.57459">
        <ele>226.3</ele>
        <time>2020-07-12T09:38:02Z</time>
      </trkpt>
      <trkpt lat="46.40415" lon="2.57469">
        <ele>226.9</ele>
        <time>2020-07-12T09:38:04Z</time>
      </trkpt>
      <trkpt lat="46.4041" lon="2.57478">
        <ele>226.1</ele>
        <time>2020-07-12T09:38:06Z</time>
      </trkpt>
      <trkpt lat="46.40405" lon="2.57488">
        <ele>225.4</ele>
        <time>2020-07-12T09:38:08Z</time>
      </trkpt>
      <trkpt lat="46.404" lon="2.57498">
        <ele>225.2</ele>
        <time>2020-07-12T09:38:10Z</time>
      </trkpt>
      <trkpt lat="46.40396" lon="2.57508">
        <ele>225.1</ele>
        <time>2020-07-12T09:38:12Z</time>
      </trkpt>
      <trkpt lat="46.40392" lon="2.57517">
        <ele>225.5</ele>
        <time>2020-07-12T09:38:14Z</time>
      </trkpt>
      <trkpt lat="46.40388" lon="2.57525">
        <ele>226</ele>
        <time>2020-07-12T09:38:16Z</time>
      </trkpt>
      <trkpt lat="46.40384" lon="2.57534">
        <ele>226.4</ele>
        <time>2020-07-12T09:38:18Z</time>
      </trkpt>
      <trkpt lat="46.4038" lon="2.57544">
        <ele>226.8</ele>
        <time>2020-07-12T09:38:20Z</time>
      </trkpt>
      <trkpt lat="46.40375" lon="2.57554">
        <ele>226.7</ele>
        <time>2020-07-12T09:38:22Z</time>
      </trkpt>
      <trkpt lat="46.4037" lon="2.57563">
        <ele>226.9</ele>
        <time>2020-07-12T09:38:24Z</time>
      </trkpt>
      <trkpt lat="46.40365" lon="2.57572">
        <ele>227.5</ele>
        <time>2020-07-12T09:38:26Z</time>
      </trkpt>
      <trkpt lat="46.40359" lon="2.5758">
        <ele>227.8</ele>
        <time>2020-07-12T09:38:28Z</time>
      </trkpt>
      <trkpt lat="46.40354" lon="2.57589">
        <ele>227.6</ele>
        <time>2020-07-12T09:38:30Z</time>
      </trkpt>
      <trkpt lat="46.40349" lon="2.57598">
        <ele>228</ele>
        <time>2020-07-12T09:38:32Z</time>
      </trkpt>
      <trkpt lat="46.40344" lon="2.57607">
        <ele>227.8</ele>
        <time>2020-07-12T09:38:34Z</time>
      </trkpt>
      <trkpt lat="46.40339" lon="2.57617">
        <ele>228.1</ele>
        <time>2020-07-12T09:38:36Z</time>
      </trkpt>
      <trkpt lat="46.40336" lon="2.57622">
        <ele>228.4</ele>
        <time>2020-07-12T09:38:37Z</time>
      </trkpt>
      <trkpt lat="46.40328" lon="2.57636">
        <ele>228.9</ele>
        <time>2020-07-12T09:38:40Z</time>
      </trkpt>
      <trkpt lat="46.40323" lon="2.57646">
        <ele>229.4</ele>
        <time>2020-07-12T09:38:42Z</time>
      </trkpt>
      <trkpt lat="46.40318" lon="2.57655">
        <ele>229.5</ele>
        <time>2020-07-12T09:38:44Z</time>
      </trkpt>
      <trkpt lat="46.40313" lon="2.57664">
        <ele>229.7</ele>
        <time>2020-07-12T09:38:46Z</time>
      </trkpt>
      <trkpt lat="46.40308" lon="2.57674">
        <ele>229.4</ele>
        <time>2020-07-12T09:38:48Z</time>
      </trkpt>
      <trkpt lat="46.40303" lon="2.57683">
        <ele>229.4</ele>
        <time>2020-07-12T09:38:50Z</time>
      </trkpt>
      <trkpt lat="46.40298" lon="2.57693">
        <ele>229.9</ele>
        <time>2020-07-12T09:38:52Z</time>
      </trkpt>
      <trkpt lat="46.40293" lon="2.57703">
        <ele>230.3</ele>
        <time>2020-07-12T09:38:54Z</time>
      </trkpt>
      <trkpt lat="46.40287" lon="2.57712">
        <ele>230.2</ele>
        <time>2020-07-12T09:38:56Z</time>
      </trkpt>
      <trkpt lat="46.40282" lon="2.57722">
        <ele>230</ele>
        <time>2020-07-12T09:38:58Z</time>
      </trkpt>
      <trkpt lat="46.40277" lon="2.57732">
        <ele>230</ele>
        <time>2020-07-12T09:39:00Z</time>
      </trkpt>
      <trkpt lat="46.40271" lon="2.57741">
        <ele>229.8</ele>
        <time>2020-07-12T09:39:02Z</time>
      </trkpt>
      <trkpt lat="46.40266" lon="2.5775">
        <ele>230</ele>
        <time>2020-07-12T09:39:04Z</time>
      </trkpt>
      <trkpt lat="46.40261" lon="2.5776">
        <ele>230.6</ele>
        <time>2020-07-12T09:39:06Z</time>
      </trkpt>
      <trkpt lat="46.40256" lon="2.57769">
        <ele>230.9</ele>
        <time>2020-07-12T09:39:08Z</time>
      </trkpt>
      <trkpt lat="46.40251" lon="2.57778">
        <ele>231.2</ele>
        <time>2020-07-12T09:39:10Z</time>
      </trkpt>
      <trkpt lat="46.40246" lon="2.57787">
        <ele>231.7</ele>
        <time>2020-07-12T09:39:12Z</time>
      </trkpt>
      <trkpt lat="46.4024" lon="2.57797">
        <ele>232.1</ele>
        <time>2020-07-12T09:39:14Z</time>
      </trkpt>
      <trkpt lat="46.40235" lon="2.57806">
        <ele>232</ele>
        <time>2020-07-12T09:39:16Z</time>
      </trkpt>
      <trkpt lat="46.4023" lon="2.57815">
        <ele>232.4</ele>
        <time>2020-07-12T09:39:18Z</time>
      </trkpt>
      <trkpt lat="46.40225" lon="2.57824">
        <ele>233.2</ele>
        <time>2020-07-12T09:39:20Z</time>
      </trkpt>
      <trkpt lat="46.4022" lon="2.57834">
        <ele>232.5</ele>
        <time>2020-07-12T09:39:22Z</time>
      </trkpt>
      <trkpt lat="46.40215" lon="2.57843">
        <ele>232.6</ele>
        <time>2020-07-12T09:39:24Z</time>
      </trkpt>
      <trkpt lat="46.4021" lon="2.57853">
        <ele>232.7</ele>
        <time>2020-07-12T09:39:26Z</time>
      </trkpt>
      <trkpt lat="46.40205" lon="2.57862">
        <ele>233.2</ele>
        <time>2020-07-12T09:39:28Z</time>
      </trkpt>
      <trkpt lat="46.402" lon="2.57872">
        <ele>233.7</ele>
        <time>2020-07-12T09:39:30Z</time>
      </trkpt>
      <trkpt lat="46.40196" lon="2.57882">
        <ele>234</ele>
        <time>2020-07-12T09:39:32Z</time>
      </trkpt>
      <trkpt lat="46.40191" lon="2.57891">
        <ele>234.2</ele>
        <time>2020-07-12T09:39:34Z</time>
      </trkpt>
      <trkpt lat="46.40186" lon="2.57901">
        <ele>234.5</ele>
        <time>2020-07-12T09:39:36Z</time>
      </trkpt>
      <trkpt lat="46.40181" lon="2.5791">
        <ele>234.5</ele>
        <time>2020-07-12T09:39:38Z</time>
      </trkpt>
      <trkpt lat="46.40179" lon="2.57915">
        <ele>234.5</ele>
        <time>2020-07-12T09:39:39Z</time>
      </trkpt>
      <trkpt lat="46.40172" lon="2.57931">
        <ele>235.1</ele>
        <time>2020-07-12T09:39:42Z</time>
      </trkpt>
      <trkpt lat="46.40168" lon="2.57941">
        <ele>235.6</ele>
        <time>2020-07-12T09:39:44Z</time>
      </trkpt>
      <trkpt lat="46.40163" lon="2.5795">
        <ele>236</ele>
        <time>2020-07-12T09:39:46Z</time>
      </trkpt>
      <trkpt lat="46.40159" lon="2.57959">
        <ele>236.1</ele>
        <time>2020-07-12T09:39:48Z</time>
      </trkpt>
      <trkpt lat="46.40155" lon="2.57969">
        <ele>236.4</ele>
        <time>2020-07-12T09:39:50Z</time>
      </trkpt>
      <trkpt lat="46.4015" lon="2.57978">
        <ele>236.7</ele>
        <time>2020-07-12T09:39:52Z</time>
      </trkpt>
      <trkpt lat="46.40146" lon="2.57987">
        <ele>237.2</ele>
        <time>2020-07-12T09:39:54Z</time>
      </trkpt>
      <trkpt lat="46.40142" lon="2.57997">
        <ele>237.4</ele>
        <time>2020-07-12T09:39:56Z</time>
      </trkpt>
      <trkpt lat="46.40138" lon="2.58006">
        <ele>237.5</ele>
        <time>2020-07-12T09:39:58Z</time>
      </trkpt>
      <trkpt lat="46.40133" lon="2.58015">
        <ele>237.4</ele>
        <time>2020-07-12T09:40:00Z</time>
      </trkpt>
      <trkpt lat="46.40129" lon="2.58025">
        <ele>237.3</ele>
        <time>2020-07-12T09:40:02Z</time>
      </trkpt>
      <trkpt lat="46.40125" lon="2.58034">
        <ele>237.7</ele>
        <time>2020-07-12T09:40:04Z</time>
      </trkpt>
      <trkpt lat="46.40121" lon="2.58043">
        <ele>238.7</ele>
        <time>2020-07-12T09:40:06Z</time>
      </trkpt>
      <trkpt lat="46.40117" lon="2.58052">
        <ele>239</ele>
        <time>2020-07-12T09:40:08Z</time>
      </trkpt>
      <trkpt lat="46.40112" lon="2.58061">
        <ele>238.9</ele>
        <time>2020-07-12T09:40:10Z</time>
      </trkpt>
      <trkpt lat="46.40108" lon="2.58071">
        <ele>239.8</ele>
        <time>2020-07-12T09:40:12Z</time>
      </trkpt>
      <trkpt lat="46.40103" lon="2.58081">
        <ele>239.8</ele>
        <time>2020-07-12T09:40:14Z</time>
      </trkpt>
      <trkpt lat="46.40099" lon="2.5809">
        <ele>239.9</ele>
        <time>2020-07-12T09:40:16Z</time>
      </trkpt>
      <trkpt lat="46.40095" lon="2.58099">
        <ele>240.1</ele>
        <time>2020-07-12T09:40:18Z</time>
      </trkpt>
      <trkpt lat="46.40091" lon="2.58108">
        <ele>240.5</ele>
        <time>2020-07-12T09:40:20Z</time>
      </trkpt>
      <trkpt lat="46.40087" lon="2.58118">
        <ele>240.9</ele>
        <time>2020-07-12T09:40:22Z</time>
      </trkpt>
      <trkpt lat="46.40083" lon="2.58127">
        <ele>241.1</ele>
        <time>2020-07-12T09:40:24Z</time>
      </trkpt>
      <trkpt lat="46.4008" lon="2.58137">
        <ele>241.4</ele>
        <time>2020-07-12T09:40:26Z</time>
      </trkpt>
      <trkpt lat="46.40076" lon="2.58147">
        <ele>241.7</ele>
        <time>2020-07-12T09:40:28Z</time>
      </trkpt>
      <trkpt lat="46.40073" lon="2.58157">
        <ele>242.2</ele>
        <time>2020-07-12T09:40:30Z</time>
      </trkpt>
      <trkpt lat="46.4007" lon="2.58168">
        <ele>242.5</ele>
        <time>2020-07-12T09:40:32Z</time>
      </trkpt>
      <trkpt lat="46.40067" lon="2.58179">
        <ele>242.7</ele>
        <time>2020-07-12T09:40:34Z</time>
      </trkpt>
      <trkpt lat="46.40064" lon="2.58189">
        <ele>242.9</ele>
        <time>2020-07-12T09:40:36Z</time>
      </trkpt>
      <trkpt lat="46.40061" lon="2.58199">
        <ele>243.5</ele>
        <time>2020-07-12T09:40:38Z</time>
      </trkpt>
      <trkpt lat="46.40059" lon="2.58209">
        <ele>244.1</ele>
        <time>2020-07-12T09:40:40Z</time>
      </trkpt>
      <trkpt lat="46.40057" lon="2.58214">
        <ele>244.3</ele>
        <time>2020-07-12T09:40:41Z</time>
      </trkpt>
      <trkpt lat="46.40052" lon="2.58227">
        <ele>245.4</ele>
        <time>2020-07-12T09:40:44Z</time>
      </trkpt>
      <trkpt lat="46.40049" lon="2.58237">
        <ele>245.8</ele>
        <time>2020-07-12T09:40:46Z</time>
      </trkpt>
      <trkpt lat="46.40045" lon="2.58247">
        <ele>246.2</ele>
        <time>2020-07-12T09:40:48Z</time>
      </trkpt>
      <trkpt lat="46.40042" lon="2.58257">
        <ele>246.4</ele>
        <time>2020-07-12T09:40:50Z</time>
      </trkpt>
      <trkpt lat="46.40039" lon="2.58268">
        <ele>246.9</ele>
        <time>2020-07-12T09:40:52Z</time>
      </trkpt>
      <trkpt lat="46.40035" lon="2.58279">
        <ele>247.2</ele>
        <time>2020-07-12T09:40:54Z</time>
      </trkpt>
      <trkpt lat="46.40032" lon="2.58289">
        <ele>247.5</ele>
        <time>2020-07-12T09:40:56Z</time>
      </trkpt>
      <trkpt lat="46.40028" lon="2.58299">
        <ele>248.2</ele>
        <time>2020-07-12T09:40:58Z</time>
      </trkpt>
      <trkpt lat="46.40025" lon="2.5831">
        <ele>249.1</ele>
        <time>2020-07-12T09:41:00Z</time>
      </trkpt>
      <trkpt lat="46.40021" lon="2.5832">
        <ele>249.5</ele>
        <time>2020-07-12T09:41:02Z</time>
      </trkpt>
      <trkpt lat="46.40017" lon="2.58331">
        <ele>250.2</ele>
        <time>2020-07-12T09:41:04Z</time>
      </trkpt>
      <trkpt lat="46.40014" lon="2.58342">
        <ele>250.4</ele>
        <time>2020-07-12T09:41:06Z</time>
      </trkpt>
      <trkpt lat="46.4001" lon="2.58353">
        <ele>250.3</ele>
        <time>2020-07-12T09:41:08Z</time>
      </trkpt>
      <trkpt lat="46.40006" lon="2.58364">
        <ele>250.5</ele>
        <time>2020-07-12T09:41:10Z</time>
      </trkpt>
      <trkpt lat="46.40003" lon="2.58375">
        <ele>251</ele>
        <time>2020-07-12T09:41:12Z</time>
      </trkpt>
      <trkpt lat="46.39999" lon="2.58386">
        <ele>251.3</ele>
        <time>2020-07-12T09:41:14Z</time>
      </trkpt>
      <trkpt lat="46.39996" lon="2.58397">
        <ele>251.8</ele>
        <time>2020-07-12T09:41:16Z</time>
      </trkpt>
      <trkpt lat="46.39992" lon="2.58408">
        <ele>252</ele>
        <time>2020-07-12T09:41:18Z</time>
      </trkpt>
      <trkpt lat="46.39988" lon="2.58419">
        <ele>252.2</ele>
        <time>2020-07-12T09:41:20Z</time>
      </trkpt>
      <trkpt lat="46.39984" lon="2.5843">
        <ele>251.9</ele>
        <time>2020-07-12T09:41:22Z</time>
      </trkpt>
      <trkpt lat="46.3998" lon="2.58441">
        <ele>251.7</ele>
        <time>2020-07-12T09:41:24Z</time>
      </trkpt>
      <trkpt lat="46.39976" lon="2.58452">
        <ele>251.7</ele>
        <time>2020-07-12T09:41:26Z</time>
      </trkpt>
      <trkpt lat="46.39972" lon="2.58463">
        <ele>253.2</ele>
        <time>2020-07-12T09:41:28Z</time>
      </trkpt>
      <trkpt lat="46.39968" lon="2.58474">
        <ele>254.2</ele>
        <time>2020-07-12T09:41:30Z</time>
      </trkpt>
      <trkpt lat="46.39965" lon="2.58486">
        <ele>254.2</ele>
        <time>2020-07-12T09:41:32Z</time>
      </trkpt>
      <trkpt lat="46.39962" lon="2.58497">
        <ele>254.1</ele>
        <time>2020-07-12T09:41:34Z</time>
      </trkpt>
      <trkpt lat="46.39958" lon="2.58509">
        <ele>254.1</ele>
        <time>2020-07-12T09:41:36Z</time>
      </trkpt>
      <trkpt lat="46.39955" lon="2.58521">
        <ele>254.4</ele>
        <time>2020-07-12T09:41:38Z</time>
      </trkpt>
      <trkpt lat="46.39952" lon="2.58532">
        <ele>254.8</ele>
        <time>2020-07-12T09:41:40Z</time>
      </trkpt>
      <trkpt lat="46.3995" lon="2.58544">
        <ele>255.2</ele>
        <time>2020-07-12T09:41:42Z</time>
      </trkpt>
      <trkpt lat="46.3995" lon="2.5855">
        <ele>255.3</ele>
        <time>2020-07-12T09:41:43Z</time>
      </trkpt>
      <trkpt lat="46.39948" lon="2.58564">
        <ele>255.7</ele>
        <time>2020-07-12T09:41:46Z</time>
      </trkpt>
      <trkpt lat="46.39947" lon="2.58576">
        <ele>255.6</ele>
        <time>2020-07-12T09:41:49Z</time>
      </trkpt>
      <trkpt lat="46.39946" lon="2.58587">
        <ele>255.8</ele>
        <time>2020-07-12T09:41:52Z</time>
      </trkpt>
      <trkpt lat="46.39943" lon="2.58597">
        <ele>255.8</ele>
        <time>2020-07-12T09:41:55Z</time>
      </trkpt>
      <trkpt lat="46.39942" lon="2.58609">
        <ele>255.3</ele>
        <time>2020-07-12T09:41:58Z</time>
      </trkpt>
      <trkpt lat="46.3994" lon="2.5862">
        <ele>255.7</ele>
        <time>2020-07-12T09:42:01Z</time>
      </trkpt>
      <trkpt lat="46.39939" lon="2.58632">
        <ele>255.7</ele>
        <time>2020-07-12T09:42:04Z</time>
      </trkpt>
      <trkpt lat="46.39938" lon="2.58645">
        <ele>256.1</ele>
        <time>2020-07-12T09:42:07Z</time>
      </trkpt>
      <trkpt lat="46.39936" lon="2.58656">
        <ele>256.3</ele>
        <time>2020-07-12T09:42:10Z</time>
      </trkpt>
      <trkpt lat="46.39935" lon="2.58669">
        <ele>256.2</ele>
        <time>2020-07-12T09:42:13Z</time>
      </trkpt>
      <trkpt lat="46.39935" lon="2.58682">
        <ele>256.7</ele>
        <time>2020-07-12T09:42:16Z</time>
      </trkpt>
      <trkpt lat="46.39933" lon="2.5869">
        <ele>256.5</ele>
        <time>2020-07-12T09:42:18Z</time>
      </trkpt>
      <trkpt lat="46.39933" lon="2.58699">
        <ele>257</ele>
        <time>2020-07-12T09:42:20Z</time>
      </trkpt>
      <trkpt lat="46.39932" lon="2.58711">
        <ele>257</ele>
        <time>2020-07-12T09:42:23Z</time>
      </trkpt>
      <trkpt lat="46.39931" lon="2.58721">
        <ele>256.5</ele>
        <time>2020-07-12T09:42:26Z</time>
      </trkpt>
      <trkpt lat="46.39931" lon="2.58732">
        <ele>256.3</ele>
        <time>2020-07-12T09:42:29Z</time>
      </trkpt>
      <trkpt lat="46.3993" lon="2.58744">
        <ele>256.4</ele>
        <time>2020-07-12T09:42:32Z</time>
      </trkpt>
      <trkpt lat="46.3993" lon="2.58756">
        <ele>256.7</ele>
        <time>2020-07-12T09:42:37Z</time>
      </trkpt>
      <trkpt lat="46.39929" lon="2.58767">
        <ele>256.8</ele>
        <time>2020-07-12T09:42:41Z</time>
      </trkpt>
      <trkpt lat="46.39928" lon="2.58778">
        <ele>257.3</ele>
        <time>2020-07-12T09:42:44Z</time>
      </trkpt>
      <trkpt lat="46.39928" lon="2.58782">
        <ele>257.5</ele>
        <time>2020-07-12T09:42:45Z</time>
      </trkpt>
      <trkpt lat="46.39928" lon="2.58801">
        <ele>257.9</ele>
        <time>2020-07-12T09:42:50Z</time>
      </trkpt>
      <trkpt lat="46.39926" lon="2.58812">
        <ele>257.8</ele>
        <time>2020-07-12T09:42:53Z</time>
      </trkpt>
      <trkpt lat="46.39925" lon="2.58824">
        <ele>256.7</ele>
        <time>2020-07-12T09:42:56Z</time>
      </trkpt>
      <trkpt lat="46.39925" lon="2.58836">
        <ele>256.9</ele>
        <time>2020-07-12T09:42:59Z</time>
      </trkpt>
      <trkpt lat="46.39924" lon="2.58848">
        <ele>257</ele>
        <time>2020-07-12T09:43:02Z</time>
      </trkpt>
      <trkpt lat="46.39921" lon="2.5886">
        <ele>256.7</ele>
        <time>2020-07-12T09:43:05Z</time>
      </trkpt>
      <trkpt lat="46.39919" lon="2.58871">
        <ele>256.3</ele>
        <time>2020-07-12T09:43:08Z</time>
      </trkpt>
      <trkpt lat="46.3992" lon="2.58884">
        <ele>255.7</ele>
        <time>2020-07-12T09:43:36Z</time>
      </trkpt>
      <trkpt lat="46.3992" lon="2.58896">
        <ele>255.7</ele>
        <time>2020-07-12T09:43:44Z</time>
      </trkpt>
      <trkpt lat="46.39921" lon="2.58908">
        <ele>255.4</ele>
        <time>2020-07-12T09:43:51Z</time>
      </trkpt>
      <trkpt lat="46.39921" lon="2.58909">
        <ele>255.3</ele>
        <time>2020-07-12T09:43:52Z</time>
      </trkpt>
      <trkpt lat="46.39917" lon="2.5893">
        <ele>255.7</ele>
        <time>2020-07-12T09:44:01Z</time>
      </trkpt>
      <trkpt lat="46.39914" lon="2.5894">
        <ele>256.2</ele>
        <time>2020-07-12T09:44:04Z</time>
      </trkpt>
      <trkpt lat="46.39908" lon="2.58946">
        <ele>255.9</ele>
        <time>2020-07-12T09:44:07Z</time>
      </trkpt>
      <trkpt lat="46.399" lon="2.58949">
        <ele>255.4</ele>
        <time>2020-07-12T09:44:10Z</time>
      </trkpt>
      <trkpt lat="46.39892" lon="2.58951">
        <ele>254.8</ele>
        <time>2020-07-12T09:44:13Z</time>
      </trkpt>
      <trkpt lat="46.39886" lon="2.58953">
        <ele>254.6</ele>
        <time>2020-07-12T09:44:15Z</time>
      </trkpt>
      <trkpt lat="46.3988" lon="2.58956">
        <ele>254.7</ele>
        <time>2020-07-12T09:44:17Z</time>
      </trkpt>
      <trkpt lat="46.39874" lon="2.58963">
        <ele>255</ele>
        <time>2020-07-12T09:44:19Z</time>
      </trkpt>
      <trkpt lat="46.39868" lon="2.58971">
        <ele>254.7</ele>
        <time>2020-07-12T09:44:21Z</time>
      </trkpt>
      <trkpt lat="46.39861" lon="2.5898">
        <ele>255.5</ele>
        <time>2020-07-12T09:44:23Z</time>
      </trkpt>
      <trkpt lat="46.39858" lon="2.58985">
        <ele>255.8</ele>
        <time>2020-07-12T09:44:24Z</time>
      </trkpt>
      <trkpt lat="46.39854" lon="2.5899">
        <ele>255.5</ele>
        <time>2020-07-12T09:44:25Z</time>
      </trkpt>
      <trkpt lat="46.39851" lon="2.58996">
        <ele>255.3</ele>
        <time>2020-07-12T09:44:26Z</time>
      </trkpt>
      <trkpt lat="46.39847" lon="2.59002">
        <ele>254.7</ele>
        <time>2020-07-12T09:44:27Z</time>
      </trkpt>
      <trkpt lat="46.39843" lon="2.59008">
        <ele>254.2</ele>
        <time>2020-07-12T09:44:28Z</time>
      </trkpt>
      <trkpt lat="46.39838" lon="2.59013">
        <ele>253.9</ele>
        <time>2020-07-12T09:44:29Z</time>
      </trkpt>
      <trkpt lat="46.39833" lon="2.59019">
        <ele>253.6</ele>
        <time>2020-07-12T09:44:30Z</time>
      </trkpt>
      <trkpt lat="46.39828" lon="2.59025">
        <ele>253.5</ele>
        <time>2020-07-12T09:44:31Z</time>
      </trkpt>
      <trkpt lat="46.39824" lon="2.5903">
        <ele>253</ele>
        <time>2020-07-12T09:44:32Z</time>
      </trkpt>
      <trkpt lat="46.39819" lon="2.59036">
        <ele>252.7</ele>
        <time>2020-07-12T09:44:33Z</time>
      </trkpt>
      <trkpt lat="46.39814" lon="2.59042">
        <ele>251.7</ele>
        <time>2020-07-12T09:44:34Z</time>
      </trkpt>
      <trkpt lat="46.39808" lon="2.59048">
        <ele>250.9</ele>
        <time>2020-07-12T09:44:35Z</time>
      </trkpt>
      <trkpt lat="46.39803" lon="2.59054">
        <ele>250.3</ele>
        <time>2020-07-12T09:44:36Z</time>
      </trkpt>
      <trkpt lat="46.39797" lon="2.5906">
        <ele>249.9</ele>
        <time>2020-07-12T09:44:37Z</time>
      </trkpt>
      <trkpt lat="46.39791" lon="2.59066">
        <ele>249.5</ele>
        <time>2020-07-12T09:44:38Z</time>
      </trkpt>
      <trkpt lat="46.39783" lon="2.59072">
        <ele>248.9</ele>
        <time>2020-07-12T09:44:39Z</time>
      </trkpt>
      <trkpt lat="46.39776" lon="2.59076">
        <ele>248.4</ele>
        <time>2020-07-12T09:44:40Z</time>
      </trkpt>
      <trkpt lat="46.39767" lon="2.5908">
        <ele>247.7</ele>
        <time>2020-07-12T09:44:41Z</time>
      </trkpt>
      <trkpt lat="46.39758" lon="2.59084">
        <ele>247.2</ele>
        <time>2020-07-12T09:44:42Z</time>
      </trkpt>
      <trkpt lat="46.39749" lon="2.59087">
        <ele>246.8</ele>
        <time>2020-07-12T09:44:43Z</time>
      </trkpt>
      <trkpt lat="46.39739" lon="2.59089">
        <ele>246.5</ele>
        <time>2020-07-12T09:44:44Z</time>
      </trkpt>
      <trkpt lat="46.39728" lon="2.59091">
        <ele>246.2</ele>
        <time>2020-07-12T09:44:45Z</time>
      </trkpt>
      <trkpt lat="46.39718" lon="2.5909">
        <ele>245.5</ele>
        <time>2020-07-12T09:44:46Z</time>
      </trkpt>
      <trkpt lat="46.39707" lon="2.59088">
        <ele>245</ele>
        <time>2020-07-12T09:44:47Z</time>
      </trkpt>
      <trkpt lat="46.39696" lon="2.59086">
        <ele>243.7</ele>
        <time>2020-07-12T09:44:48Z</time>
      </trkpt>
      <trkpt lat="46.39684" lon="2.59084">
        <ele>242.8</ele>
        <time>2020-07-12T09:44:49Z</time>
      </trkpt>
      <trkpt lat="46.39673" lon="2.59083">
        <ele>242.1</ele>
        <time>2020-07-12T09:44:50Z</time>
      </trkpt>
      <trkpt lat="46.39661" lon="2.59083">
        <ele>241.9</ele>
        <time>2020-07-12T09:44:51Z</time>
      </trkpt>
      <trkpt lat="46.3965" lon="2.59082">
        <ele>241.8</ele>
        <time>2020-07-12T09:44:52Z</time>
      </trkpt>
      <trkpt lat="46.39638" lon="2.59079">
        <ele>240.6</ele>
        <time>2020-07-12T09:44:53Z</time>
      </trkpt>
      <trkpt lat="46.39628" lon="2.59077">
        <ele>239.7</ele>
        <time>2020-07-12T09:44:54Z</time>
      </trkpt>
      <trkpt lat="46.39618" lon="2.59074">
        <ele>238</ele>
        <time>2020-07-12T09:44:55Z</time>
      </trkpt>
      <trkpt lat="46.39609" lon="2.59073">
        <ele>236.7</ele>
        <time>2020-07-12T09:44:56Z</time>
      </trkpt>
      <trkpt lat="46.396" lon="2.59077">
        <ele>235.7</ele>
        <time>2020-07-12T09:44:57Z</time>
      </trkpt>
      <trkpt lat="46.39592" lon="2.59086">
        <ele>234.5</ele>
        <time>2020-07-12T09:44:58Z</time>
      </trkpt>
      <trkpt lat="46.39585" lon="2.59097">
        <ele>233.6</ele>
        <time>2020-07-12T09:44:59Z</time>
      </trkpt>
      <trkpt lat="46.39579" lon="2.59108">
        <ele>232.4</ele>
        <time>2020-07-12T09:45:00Z</time>
      </trkpt>
      <trkpt lat="46.39572" lon="2.5912">
        <ele>231.5</ele>
        <time>2020-07-12T09:45:01Z</time>
      </trkpt>
      <trkpt lat="46.39564" lon="2.59131">
        <ele>230.9</ele>
        <time>2020-07-12T09:45:02Z</time>
      </trkpt>
      <trkpt lat="46.39557" lon="2.59143">
        <ele>230</ele>
        <time>2020-07-12T09:45:03Z</time>
      </trkpt>
      <trkpt lat="46.3955" lon="2.59154">
        <ele>229.4</ele>
        <time>2020-07-12T09:45:04Z</time>
      </trkpt>
      <trkpt lat="46.39542" lon="2.59166">
        <ele>228.7</ele>
        <time>2020-07-12T09:45:05Z</time>
      </trkpt>
      <trkpt lat="46.39535" lon="2.59177">
        <ele>228.1</ele>
        <time>2020-07-12T09:45:06Z</time>
      </trkpt>
      <trkpt lat="46.39528" lon="2.59189">
        <ele>227.3</ele>
        <time>2020-07-12T09:45:07Z</time>
      </trkpt>
      <trkpt lat="46.39521" lon="2.592">
        <ele>226.6</ele>
        <time>2020-07-12T09:45:08Z</time>
      </trkpt>
      <trkpt lat="46.39514" lon="2.59211">
        <ele>226.1</ele>
        <time>2020-07-12T09:45:09Z</time>
      </trkpt>
      <trkpt lat="46.39509" lon="2.59224">
        <ele>225.6</ele>
        <time>2020-07-12T09:45:10Z</time>
      </trkpt>
      <trkpt lat="46.39504" lon="2.59236">
        <ele>225.2</ele>
        <time>2020-07-12T09:45:11Z</time>
      </trkpt>
      <trkpt lat="46.395" lon="2.59249">
        <ele>224.7</ele>
        <time>2020-07-12T09:45:12Z</time>
      </trkpt>
      <trkpt lat="46.39495" lon="2.59261">
        <ele>224.3</ele>
        <time>2020-07-12T09:45:13Z</time>
      </trkpt>
      <trkpt lat="46.39491" lon="2.59272">
        <ele>224.1</ele>
        <time>2020-07-12T09:45:14Z</time>
      </trkpt>
      <trkpt lat="46.39487" lon="2.59284">
        <ele>224</ele>
        <time>2020-07-12T09:45:15Z</time>
      </trkpt>
      <trkpt lat="46.39483" lon="2.59296">
        <ele>223.8</ele>
        <time>2020-07-12T09:45:16Z</time>
      </trkpt>
      <trkpt lat="46.39479" lon="2.59306">
        <ele>223.8</ele>
        <time>2020-07-12T09:45:17Z</time>
      </trkpt>
      <trkpt lat="46.39475" lon="2.59317">
        <ele>223.8</ele>
        <time>2020-07-12T09:45:18Z</time>
      </trkpt>
      <trkpt lat="46.3947" lon="2.59326">
        <ele>223.3</ele>
        <time>2020-07-12T09:45:19Z</time>
      </trkpt>
      <trkpt lat="46.39464" lon="2.59334">
        <ele>222.9</ele>
        <time>2020-07-12T09:45:20Z</time>
      </trkpt>
      <trkpt lat="46.39457" lon="2.5934">
        <ele>222.6</ele>
        <time>2020-07-12T09:45:21Z</time>
      </trkpt>
      <trkpt lat="46.3945" lon="2.59343">
        <ele>222.2</ele>
        <time>2020-07-12T09:45:22Z</time>
      </trkpt>
      <trkpt lat="46.39443" lon="2.59345">
        <ele>221.8</ele>
        <time>2020-07-12T09:45:23Z</time>
      </trkpt>
      <trkpt lat="46.39436" lon="2.59345">
        <ele>221.5</ele>
        <time>2020-07-12T09:45:24Z</time>
      </trkpt>
      <trkpt lat="46.39429" lon="2.59344">
        <ele>221.2</ele>
        <time>2020-07-12T09:45:25Z</time>
      </trkpt>
      <trkpt lat="46.39422" lon="2.59343">
        <ele>220.9</ele>
        <time>2020-07-12T09:45:26Z</time>
      </trkpt>
      <trkpt lat="46.39415" lon="2.59344">
        <ele>220.6</ele>
        <time>2020-07-12T09:45:27Z</time>
      </trkpt>
      <trkpt lat="46.39408" lon="2.59345">
        <ele>220.4</ele>
        <time>2020-07-12T09:45:28Z</time>
      </trkpt>
      <trkpt lat="46.39401" lon="2.59347">
        <ele>220.3</ele>
        <time>2020-07-12T09:45:29Z</time>
      </trkpt>
      <trkpt lat="46.39395" lon="2.5935">
        <ele>220.3</ele>
        <time>2020-07-12T09:45:30Z</time>
      </trkpt>
      <trkpt lat="46.39388" lon="2.59354">
        <ele>220.3</ele>
        <time>2020-07-12T09:45:31Z</time>
      </trkpt>
      <trkpt lat="46.39382" lon="2.59358">
        <ele>220.3</ele>
        <time>2020-07-12T09:45:32Z</time>
      </trkpt>
      <trkpt lat="46.39376" lon="2.59361">
        <ele>220.2</ele>
        <time>2020-07-12T09:45:33Z</time>
      </trkpt>
      <trkpt lat="46.3937" lon="2.59365">
        <ele>220.2</ele>
        <time>2020-07-12T09:45:34Z</time>
      </trkpt>
      <trkpt lat="46.39364" lon="2.59369">
        <ele>220.1</ele>
        <time>2020-07-12T09:45:35Z</time>
      </trkpt>
      <trkpt lat="46.39358" lon="2.59372">
        <ele>220.2</ele>
        <time>2020-07-12T09:45:36Z</time>
      </trkpt>
      <trkpt lat="46.39352" lon="2.59375">
        <ele>220.3</ele>
        <time>2020-07-12T09:45:37Z</time>
      </trkpt>
      <trkpt lat="46.39346" lon="2.59378">
        <ele>220.3</ele>
        <time>2020-07-12T09:45:38Z</time>
      </trkpt>
      <trkpt lat="46.39341" lon="2.59381">
        <ele>220.3</ele>
        <time>2020-07-12T09:45:39Z</time>
      </trkpt>
      <trkpt lat="46.39335" lon="2.59384">
        <ele>220.2</ele>
        <time>2020-07-12T09:45:40Z</time>
      </trkpt>
      <trkpt lat="46.3933" lon="2.59387">
        <ele>219.8</ele>
        <time>2020-07-12T09:45:41Z</time>
      </trkpt>
      <trkpt lat="46.39324" lon="2.59388">
        <ele>219.5</ele>
        <time>2020-07-12T09:45:42Z</time>
      </trkpt>
      <trkpt lat="46.39318" lon="2.59388">
        <ele>219.1</ele>
        <time>2020-07-12T09:45:43Z</time>
      </trkpt>
      <trkpt lat="46.39313" lon="2.59388">
        <ele>218.8</ele>
        <time>2020-07-12T09:45:44Z</time>
      </trkpt>
      <trkpt lat="46.39307" lon="2.59387">
        <ele>218.5</ele>
        <time>2020-07-12T09:45:45Z</time>
      </trkpt>
      <trkpt lat="46.39302" lon="2.59386">
        <ele>218.2</ele>
        <time>2020-07-12T09:45:46Z</time>
      </trkpt>
      <trkpt lat="46.39296" lon="2.59384">
        <ele>218</ele>
        <time>2020-07-12T09:45:47Z</time>
      </trkpt>
      <trkpt lat="46.3929" lon="2.59385">
        <ele>217.7</ele>
        <time>2020-07-12T09:45:48Z</time>
      </trkpt>
      <trkpt lat="46.39284" lon="2.59387">
        <ele>217.5</ele>
        <time>2020-07-12T09:45:49Z</time>
      </trkpt>
      <trkpt lat="46.39279" lon="2.59391">
        <ele>217.4</ele>
        <time>2020-07-12T09:45:50Z</time>
      </trkpt>
      <trkpt lat="46.39274" lon="2.59395">
        <ele>217.2</ele>
        <time>2020-07-12T09:45:51Z</time>
      </trkpt>
      <trkpt lat="46.39268" lon="2.59401">
        <ele>217</ele>
        <time>2020-07-12T09:45:52Z</time>
      </trkpt>
      <trkpt lat="46.39263" lon="2.59408">
        <ele>216.8</ele>
        <time>2020-07-12T09:45:53Z</time>
      </trkpt>
      <trkpt lat="46.39257" lon="2.59415">
        <ele>216.6</ele>
        <time>2020-07-12T09:45:54Z</time>
      </trkpt>
      <trkpt lat="46.39252" lon="2.59422">
        <ele>216.1</ele>
        <time>2020-07-12T09:45:55Z</time>
      </trkpt>
      <trkpt lat="46.39247" lon="2.59429">
        <ele>215.6</ele>
        <time>2020-07-12T09:45:56Z</time>
      </trkpt>
      <trkpt lat="46.39242" lon="2.59438">
        <ele>215.9</ele>
        <time>2020-07-12T09:45:57Z</time>
      </trkpt>
      <trkpt lat="46.39237" lon="2.59447">
        <ele>216.1</ele>
        <time>2020-07-12T09:45:58Z</time>
      </trkpt>
      <trkpt lat="46.39233" lon="2.59456">
        <ele>215.6</ele>
        <time>2020-07-12T09:45:59Z</time>
      </trkpt>
      <trkpt lat="46.39229" lon="2.59466">
        <ele>215.3</ele>
        <time>2020-07-12T09:46:00Z</time>
      </trkpt>
      <trkpt lat="46.39225" lon="2.59476">
        <ele>215</ele>
        <time>2020-07-12T09:46:01Z</time>
      </trkpt>
      <trkpt lat="46.39222" lon="2.59487">
        <ele>214.4</ele>
        <time>2020-07-12T09:46:02Z</time>
      </trkpt>
      <trkpt lat="46.39219" lon="2.59498">
        <ele>213.8</ele>
        <time>2020-07-12T09:46:03Z</time>
      </trkpt>
      <trkpt lat="46.39216" lon="2.59509">
        <ele>213.5</ele>
        <time>2020-07-12T09:46:04Z</time>
      </trkpt>
      <trkpt lat="46.39213" lon="2.5952">
        <ele>213.3</ele>
        <time>2020-07-12T09:46:05Z</time>
      </trkpt>
      <trkpt lat="46.3921" lon="2.5953">
        <ele>213.1</ele>
        <time>2020-07-12T09:46:06Z</time>
      </trkpt>
      <trkpt lat="46.39207" lon="2.59541">
        <ele>212.8</ele>
        <time>2020-07-12T09:46:07Z</time>
      </trkpt>
      <trkpt lat="46.39203" lon="2.59551">
        <ele>212.5</ele>
        <time>2020-07-12T09:46:08Z</time>
      </trkpt>
      <trkpt lat="46.39198" lon="2.5956">
        <ele>212</ele>
        <time>2020-07-12T09:46:09Z</time>
      </trkpt>
      <trkpt lat="46.39193" lon="2.59567">
        <ele>211.6</ele>
        <time>2020-07-12T09:46:10Z</time>
      </trkpt>
      <trkpt lat="46.39186" lon="2.59574">
        <ele>210.9</ele>
        <time>2020-07-12T09:46:11Z</time>
      </trkpt>
      <trkpt lat="46.3918" lon="2.59579">
        <ele>210.4</ele>
        <time>2020-07-12T09:46:12Z</time>
      </trkpt>
      <trkpt lat="46.39173" lon="2.59582">
        <ele>210.1</ele>
        <time>2020-07-12T09:46:13Z</time>
      </trkpt>
      <trkpt lat="46.39166" lon="2.59584">
        <ele>209.6</ele>
        <time>2020-07-12T09:46:14Z</time>
      </trkpt>
      <trkpt lat="46.39159" lon="2.59586">
        <ele>209.3</ele>
        <time>2020-07-12T09:46:15Z</time>
      </trkpt>
      <trkpt lat="46.39154" lon="2.59588">
        <ele>208.6</ele>
        <time>2020-07-12T09:46:16Z</time>
      </trkpt>
      <trkpt lat="46.39149" lon="2.5959">
        <ele>208.1</ele>
        <time>2020-07-12T09:46:17Z</time>
      </trkpt>
      <trkpt lat="46.39143" lon="2.59598">
        <ele>207.8</ele>
        <time>2020-07-12T09:46:19Z</time>
      </trkpt>
      <trkpt lat="46.39141" lon="2.59626">
        <ele>205</ele>
        <time>2020-07-12T09:46:24Z</time>
      </trkpt>
      <trkpt lat="46.39141" lon="2.59639">
        <ele>206</ele>
        <time>2020-07-12T09:46:28Z</time>
      </trkpt>
      <trkpt lat="46.39142" lon="2.59648">
        <ele>206.3</ele>
        <time>2020-07-12T09:46:31Z</time>
      </trkpt>
      <trkpt lat="46.39143" lon="2.59657">
        <ele>206.6</ele>
        <time>2020-07-12T09:46:33Z</time>
      </trkpt>
      <trkpt lat="46.39145" lon="2.59667">
        <ele>206.8</ele>
        <time>2020-07-12T09:46:35Z</time>
      </trkpt>
      <trkpt lat="46.39146" lon="2.5968">
        <ele>206.8</ele>
        <time>2020-07-12T09:46:38Z</time>
      </trkpt>
      <trkpt lat="46.39147" lon="2.59691">
        <ele>206.9</ele>
        <time>2020-07-12T09:46:41Z</time>
      </trkpt>
      <trkpt lat="46.3914" lon="2.597">
        <ele>207.1</ele>
        <time>2020-07-12T09:46:46Z</time>
      </trkpt>
      <trkpt lat="46.39134" lon="2.59701">
        <ele>206.5</ele>
        <time>2020-07-12T09:46:48Z</time>
      </trkpt>
      <trkpt lat="46.39127" lon="2.59701">
        <ele>206.5</ele>
        <time>2020-07-12T09:46:50Z</time>
      </trkpt>
      <trkpt lat="46.39122" lon="2.59702">
        <ele>206.5</ele>
        <time>2020-07-12T09:46:51Z</time>
      </trkpt>
      <trkpt lat="46.39117" lon="2.59703">
        <ele>206.2</ele>
        <time>2020-07-12T09:46:52Z</time>
      </trkpt>
      <trkpt lat="46.39112" lon="2.59705">
        <ele>206</ele>
        <time>2020-07-12T09:46:53Z</time>
      </trkpt>
      <trkpt lat="46.39107" lon="2.59708">
        <ele>205.6</ele>
        <time>2020-07-12T09:46:54Z</time>
      </trkpt>
      <trkpt lat="46.39103" lon="2.59711">
        <ele>205.2</ele>
        <time>2020-07-12T09:46:55Z</time>
      </trkpt>
      <trkpt lat="46.39099" lon="2.59715">
        <ele>205.4</ele>
        <time>2020-07-12T09:46:56Z</time>
      </trkpt>
      <trkpt lat="46.39095" lon="2.5972">
        <ele>205.5</ele>
        <time>2020-07-12T09:46:57Z</time>
      </trkpt>
      <trkpt lat="46.39089" lon="2.59726">
        <ele>205.5</ele>
        <time>2020-07-12T09:46:59Z</time>
      </trkpt>
      <trkpt lat="46.39084" lon="2.59726">
        <ele>205.5</ele>
        <time>2020-07-12T09:47:00Z</time>
      </trkpt>
      <trkpt lat="46.39079" lon="2.59726">
        <ele>205.4</ele>
        <time>2020-07-12T09:47:01Z</time>
      </trkpt>
      <trkpt lat="46.39074" lon="2.59724">
        <ele>205.3</ele>
        <time>2020-07-12T09:47:02Z</time>
      </trkpt>
      <trkpt lat="46.3907" lon="2.59722">
        <ele>205.3</ele>
        <time>2020-07-12T09:47:03Z</time>
      </trkpt>
      <trkpt lat="46.39066" lon="2.59719">
        <ele>205.7</ele>
        <time>2020-07-12T09:47:04Z</time>
      </trkpt>
      <trkpt lat="46.39062" lon="2.59716">
        <ele>205.9</ele>
        <time>2020-07-12T09:47:05Z</time>
      </trkpt>
      <trkpt lat="46.39058" lon="2.59713">
        <ele>205.9</ele>
        <time>2020-07-12T09:47:06Z</time>
      </trkpt>
      <trkpt lat="46.3905" lon="2.59707">
        <ele>206.2</ele>
        <time>2020-07-12T09:47:08Z</time>
      </trkpt>
      <trkpt lat="46.39041" lon="2.59703">
        <ele>206.5</ele>
        <time>2020-07-12T09:47:10Z</time>
      </trkpt>
      <trkpt lat="46.39037" lon="2.59702">
        <ele>206.4</ele>
        <time>2020-07-12T09:47:11Z</time>
      </trkpt>
      <trkpt lat="46.39032" lon="2.59701">
        <ele>206.2</ele>
        <time>2020-07-12T09:47:12Z</time>
      </trkpt>
      <trkpt lat="46.39027" lon="2.59701">
        <ele>206.3</ele>
        <time>2020-07-12T09:47:13Z</time>
      </trkpt>
      <trkpt lat="46.39022" lon="2.59702">
        <ele>206.4</ele>
        <time>2020-07-12T09:47:14Z</time>
      </trkpt>
      <trkpt lat="46.39017" lon="2.59702">
        <ele>206.4</ele>
        <time>2020-07-12T09:47:15Z</time>
      </trkpt>
      <trkpt lat="46.39012" lon="2.59702">
        <ele>206.3</ele>
        <time>2020-07-12T09:47:16Z</time>
      </trkpt>
      <trkpt lat="46.39007" lon="2.59702">
        <ele>206.3</ele>
        <time>2020-07-12T09:47:17Z</time>
      </trkpt>
      <trkpt lat="46.39002" lon="2.59703">
        <ele>206</ele>
        <time>2020-07-12T09:47:18Z</time>
      </trkpt>
      <trkpt lat="46.38997" lon="2.59703">
        <ele>205.8</ele>
        <time>2020-07-12T09:47:19Z</time>
      </trkpt>
      <trkpt lat="46.38992" lon="2.59703">
        <ele>206</ele>
        <time>2020-07-12T09:47:20Z</time>
      </trkpt>
      <trkpt lat="46.38987" lon="2.59703">
        <ele>206.2</ele>
        <time>2020-07-12T09:47:21Z</time>
      </trkpt>
      <trkpt lat="46.38982" lon="2.59704">
        <ele>206.3</ele>
        <time>2020-07-12T09:47:22Z</time>
      </trkpt>
      <trkpt lat="46.38977" lon="2.59704">
        <ele>205.8</ele>
        <time>2020-07-12T09:47:23Z</time>
      </trkpt>
      <trkpt lat="46.38972" lon="2.59704">
        <ele>205.5</ele>
        <time>2020-07-12T09:47:24Z</time>
      </trkpt>
      <trkpt lat="46.38967" lon="2.59704">
        <ele>205.7</ele>
        <time>2020-07-12T09:47:25Z</time>
      </trkpt>
      <trkpt lat="46.38962" lon="2.59705">
        <ele>205.8</ele>
        <time>2020-07-12T09:47:26Z</time>
      </trkpt>
      <trkpt lat="46.38957" lon="2.59705">
        <ele>205.9</ele>
        <time>2020-07-12T09:47:27Z</time>
      </trkpt>
      <trkpt lat="46.38952" lon="2.59705">
        <ele>206</ele>
        <time>2020-07-12T09:47:28Z</time>
      </trkpt>
      <trkpt lat="46.38947" lon="2.59705">
        <ele>206.1</ele>
        <time>2020-07-12T09:47:29Z</time>
      </trkpt>
      <trkpt lat="46.38942" lon="2.59705">
        <ele>206.2</ele>
        <time>2020-07-12T09:47:30Z</time>
      </trkpt>
      <trkpt lat="46.38937" lon="2.59706">
        <ele>206.3</ele>
        <time>2020-07-12T09:47:31Z</time>
      </trkpt>
      <trkpt lat="46.38932" lon="2.59706">
        <ele>206.2</ele>
        <time>2020-07-12T09:47:32Z</time>
      </trkpt>
      <trkpt lat="46.38928" lon="2.59706">
        <ele>206.1</ele>
        <time>2020-07-12T09:47:33Z</time>
      </trkpt>
      <trkpt lat="46.38923" lon="2.59706">
        <ele>205.7</ele>
        <time>2020-07-12T09:47:34Z</time>
      </trkpt>
      <trkpt lat="46.38918" lon="2.59706">
        <ele>205.3</ele>
        <time>2020-07-12T09:47:35Z</time>
      </trkpt>
      <trkpt lat="46.38913" lon="2.59707">
        <ele>205</ele>
        <time>2020-07-12T09:47:36Z</time>
      </trkpt>
      <trkpt lat="46.38908" lon="2.59707">
        <ele>205</ele>
        <time>2020-07-12T09:47:37Z</time>
      </trkpt>
      <trkpt lat="46.38904" lon="2.59708">
        <ele>205</ele>
        <time>2020-07-12T09:47:38Z</time>
      </trkpt>
      <trkpt lat="46.38899" lon="2.59708">
        <ele>204.9</ele>
        <time>2020-07-12T09:47:39Z</time>
      </trkpt>
      <trkpt lat="46.38894" lon="2.59708">
        <ele>204.8</ele>
        <time>2020-07-12T09:47:40Z</time>
      </trkpt>
      <trkpt lat="46.38889" lon="2.59708">
        <ele>204.7</ele>
        <time>2020-07-12T09:47:41Z</time>
      </trkpt>
      <trkpt lat="46.38884" lon="2.59708">
        <ele>205.3</ele>
        <time>2020-07-12T09:47:42Z</time>
      </trkpt>
      <trkpt lat="46.38879" lon="2.59708">
        <ele>205.8</ele>
        <time>2020-07-12T09:47:43Z</time>
      </trkpt>
      <trkpt lat="46.38874" lon="2.59709">
        <ele>205.4</ele>
        <time>2020-07-12T09:47:44Z</time>
      </trkpt>
      <trkpt lat="46.38869" lon="2.59709">
        <ele>205.2</ele>
        <time>2020-07-12T09:47:45Z</time>
      </trkpt>
      <trkpt lat="46.38864" lon="2.59709">
        <ele>205.4</ele>
        <time>2020-07-12T09:47:46Z</time>
      </trkpt>
      <trkpt lat="46.3886" lon="2.5971">
        <ele>205.6</ele>
        <time>2020-07-12T09:47:47Z</time>
      </trkpt>
      <trkpt lat="46.38855" lon="2.5971">
        <ele>205.7</ele>
        <time>2020-07-12T09:47:48Z</time>
      </trkpt>
      <trkpt lat="46.3885" lon="2.5971">
        <ele>205.8</ele>
        <time>2020-07-12T09:47:49Z</time>
      </trkpt>
      <trkpt lat="46.38845" lon="2.5971">
        <ele>205.9</ele>
        <time>2020-07-12T09:47:50Z</time>
      </trkpt>
      <trkpt lat="46.3884" lon="2.59711">
        <ele>206</ele>
        <time>2020-07-12T09:47:51Z</time>
      </trkpt>
      <trkpt lat="46.38835" lon="2.59711">
        <ele>206.1</ele>
        <time>2020-07-12T09:47:52Z</time>
      </trkpt>
      <trkpt lat="46.3883" lon="2.59711">
        <ele>206.1</ele>
        <time>2020-07-12T09:47:53Z</time>
      </trkpt>
      <trkpt lat="46.38825" lon="2.59711">
        <ele>206.1</ele>
        <time>2020-07-12T09:47:54Z</time>
      </trkpt>
      <trkpt lat="46.3882" lon="2.59711">
        <ele>206.2</ele>
        <time>2020-07-12T09:47:55Z</time>
      </trkpt>
      <trkpt lat="46.38816" lon="2.59712">
        <ele>206.1</ele>
        <time>2020-07-12T09:47:56Z</time>
      </trkpt>
      <trkpt lat="46.38811" lon="2.59712">
        <ele>206.1</ele>
        <time>2020-07-12T09:47:57Z</time>
      </trkpt>
      <trkpt lat="46.38806" lon="2.59713">
        <ele>206.3</ele>
        <time>2020-07-12T09:47:58Z</time>
      </trkpt>
      <trkpt lat="46.38801" lon="2.59713">
        <ele>206.4</ele>
        <time>2020-07-12T09:47:59Z</time>
      </trkpt>
      <trkpt lat="46.38796" lon="2.59713">
        <ele>206.5</ele>
        <time>2020-07-12T09:48:00Z</time>
      </trkpt>
      <trkpt lat="46.38791" lon="2.59713">
        <ele>206.3</ele>
        <time>2020-07-12T09:48:01Z</time>
      </trkpt>
      <trkpt lat="46.38786" lon="2.59713">
        <ele>206.1</ele>
        <time>2020-07-12T09:48:02Z</time>
      </trkpt>
      <trkpt lat="46.38781" lon="2.59713">
        <ele>205.6</ele>
        <time>2020-07-12T09:48:03Z</time>
      </trkpt>
      <trkpt lat="46.38776" lon="2.59714">
        <ele>205.3</ele>
        <time>2020-07-12T09:48:04Z</time>
      </trkpt>
      <trkpt lat="46.38771" lon="2.59714">
        <ele>205.5</ele>
        <time>2020-07-12T09:48:05Z</time>
      </trkpt>
      <trkpt lat="46.38766" lon="2.59714">
        <ele>205.7</ele>
        <time>2020-07-12T09:48:06Z</time>
      </trkpt>
      <trkpt lat="46.38761" lon="2.59714">
        <ele>205.8</ele>
        <time>2020-07-12T09:48:07Z</time>
      </trkpt>
      <trkpt lat="46.38757" lon="2.59715">
        <ele>205.8</ele>
        <time>2020-07-12T09:48:08Z</time>
      </trkpt>
      <trkpt lat="46.38752" lon="2.59715">
        <ele>205.8</ele>
        <time>2020-07-12T09:48:09Z</time>
      </trkpt>
      <trkpt lat="46.38747" lon="2.59715">
        <ele>205.8</ele>
        <time>2020-07-12T09:48:10Z</time>
      </trkpt>
      <trkpt lat="46.38742" lon="2.59716">
        <ele>205.8</ele>
        <time>2020-07-12T09:48:11Z</time>
      </trkpt>
      <trkpt lat="46.38737" lon="2.59716">
        <ele>205.5</ele>
        <time>2020-07-12T09:48:12Z</time>
      </trkpt>
      <trkpt lat="46.38732" lon="2.59716">
        <ele>205.3</ele>
        <time>2020-07-12T09:48:13Z</time>
      </trkpt>
      <trkpt lat="46.38727" lon="2.59716">
        <ele>205.2</ele>
        <time>2020-07-12T09:48:14Z</time>
      </trkpt>
      <trkpt lat="46.38722" lon="2.59716">
        <ele>205.1</ele>
        <time>2020-07-12T09:48:15Z</time>
      </trkpt>
      <trkpt lat="46.38717" lon="2.59717">
        <ele>205.1</ele>
        <time>2020-07-12T09:48:16Z</time>
      </trkpt>
      <trkpt lat="46.38712" lon="2.59717">
        <ele>205.6</ele>
        <time>2020-07-12T09:48:17Z</time>
      </trkpt>
      <trkpt lat="46.38707" lon="2.59717">
        <ele>205.9</ele>
        <time>2020-07-12T09:48:18Z</time>
      </trkpt>
      <trkpt lat="46.38702" lon="2.59717">
        <ele>205.7</ele>
        <time>2020-07-12T09:48:19Z</time>
      </trkpt>
      <trkpt lat="46.38697" lon="2.59718">
        <ele>205.5</ele>
        <time>2020-07-12T09:48:20Z</time>
      </trkpt>
      <trkpt lat="46.38692" lon="2.59718">
        <ele>205.4</ele>
        <time>2020-07-12T09:48:21Z</time>
      </trkpt>
      <trkpt lat="46.38687" lon="2.59718">
        <ele>205.4</ele>
        <time>2020-07-12T09:48:22Z</time>
      </trkpt>
      <trkpt lat="46.38682" lon="2.59718">
        <ele>205.3</ele>
        <time>2020-07-12T09:48:23Z</time>
      </trkpt>
      <trkpt lat="46.38677" lon="2.59719">
        <ele>205.7</ele>
        <time>2020-07-12T09:48:24Z</time>
      </trkpt>
      <trkpt lat="46.38672" lon="2.59719">
        <ele>206</ele>
        <time>2020-07-12T09:48:25Z</time>
      </trkpt>
      <trkpt lat="46.38667" lon="2.59719">
        <ele>206.3</ele>
        <time>2020-07-12T09:48:26Z</time>
      </trkpt>
      <trkpt lat="46.38662" lon="2.5972">
        <ele>206.3</ele>
        <time>2020-07-12T09:48:27Z</time>
      </trkpt>
      <trkpt lat="46.38657" lon="2.5972">
        <ele>206.4</ele>
        <time>2020-07-12T09:48:28Z</time>
      </trkpt>
      <trkpt lat="46.38652" lon="2.5972">
        <ele>206.1</ele>
        <time>2020-07-12T09:48:29Z</time>
      </trkpt>
      <trkpt lat="46.38647" lon="2.59721">
        <ele>206</ele>
        <time>2020-07-12T09:48:30Z</time>
      </trkpt>
      <trkpt lat="46.38642" lon="2.59721">
        <ele>205.8</ele>
        <time>2020-07-12T09:48:31Z</time>
      </trkpt>
      <trkpt lat="46.38637" lon="2.59721">
        <ele>205.7</ele>
        <time>2020-07-12T09:48:32Z</time>
      </trkpt>
      <trkpt lat="46.38633" lon="2.59722">
        <ele>205.7</ele>
        <time>2020-07-12T09:48:33Z</time>
      </trkpt>
      <trkpt lat="46.38628" lon="2.59722">
        <ele>205.7</ele>
        <time>2020-07-12T09:48:34Z</time>
      </trkpt>
      <trkpt lat="46.38623" lon="2.59722">
        <ele>205.7</ele>
        <time>2020-07-12T09:48:35Z</time>
      </trkpt>
      <trkpt lat="46.38618" lon="2.59723">
        <ele>205.6</ele>
        <time>2020-07-12T09:48:36Z</time>
      </trkpt>
      <trkpt lat="46.38613" lon="2.59723">
        <ele>205.5</ele>
        <time>2020-07-12T09:48:37Z</time>
      </trkpt>
      <trkpt lat="46.38608" lon="2.59723">
        <ele>205.9</ele>
        <time>2020-07-12T09:48:38Z</time>
      </trkpt>
      <trkpt lat="46.38603" lon="2.59723">
        <ele>206.1</ele>
        <time>2020-07-12T09:48:39Z</time>
      </trkpt>
      <trkpt lat="46.38598" lon="2.59723">
        <ele>206.3</ele>
        <time>2020-07-12T09:48:40Z</time>
      </trkpt>
      <trkpt lat="46.38593" lon="2.59723">
        <ele>206.4</ele>
        <time>2020-07-12T09:48:41Z</time>
      </trkpt>
      <trkpt lat="46.38588" lon="2.59723">
        <ele>206.5</ele>
        <time>2020-07-12T09:48:42Z</time>
      </trkpt>
      <trkpt lat="46.38583" lon="2.59724">
        <ele>206.1</ele>
        <time>2020-07-12T09:48:43Z</time>
      </trkpt>
      <trkpt lat="46.38578" lon="2.59724">
        <ele>205.9</ele>
        <time>2020-07-12T09:48:44Z</time>
      </trkpt>
      <trkpt lat="46.38573" lon="2.59724">
        <ele>205.7</ele>
        <time>2020-07-12T09:48:45Z</time>
      </trkpt>
      <trkpt lat="46.38568" lon="2.59724">
        <ele>205.9</ele>
        <time>2020-07-12T09:48:46Z</time>
      </trkpt>
      <trkpt lat="46.38563" lon="2.59725">
        <ele>206.1</ele>
        <time>2020-07-12T09:48:47Z</time>
      </trkpt>
      <trkpt lat="46.38558" lon="2.59725">
        <ele>206</ele>
        <time>2020-07-12T09:48:48Z</time>
      </trkpt>
      <trkpt lat="46.38553" lon="2.59725">
        <ele>206</ele>
        <time>2020-07-12T09:48:49Z</time>
      </trkpt>
      <trkpt lat="46.38549" lon="2.59725">
        <ele>205.8</ele>
        <time>2020-07-12T09:48:50Z</time>
      </trkpt>
      <trkpt lat="46.38544" lon="2.59726">
        <ele>205.6</ele>
        <time>2020-07-12T09:48:51Z</time>
      </trkpt>
      <trkpt lat="46.38539" lon="2.59726">
        <ele>205.5</ele>
        <time>2020-07-12T09:48:52Z</time>
      </trkpt>
      <trkpt lat="46.38534" lon="2.59726">
        <ele>205.5</ele>
        <time>2020-07-12T09:48:53Z</time>
      </trkpt>
      <trkpt lat="46.38529" lon="2.59726">
        <ele>205.4</ele>
        <time>2020-07-12T09:48:54Z</time>
      </trkpt>
      <trkpt lat="46.38524" lon="2.59726">
        <ele>205.5</ele>
        <time>2020-07-12T09:48:55Z</time>
      </trkpt>
      <trkpt lat="46.38519" lon="2.59727">
        <ele>205.6</ele>
        <time>2020-07-12T09:48:56Z</time>
      </trkpt>
      <trkpt lat="46.38514" lon="2.59727">
        <ele>205.4</ele>
        <time>2020-07-12T09:48:57Z</time>
      </trkpt>
      <trkpt lat="46.38509" lon="2.59727">
        <ele>205.3</ele>
        <time>2020-07-12T09:48:58Z</time>
      </trkpt>
      <trkpt lat="46.38504" lon="2.59728">
        <ele>205.2</ele>
        <time>2020-07-12T09:48:59Z</time>
      </trkpt>
      <trkpt lat="46.38499" lon="2.59728">
        <ele>205.2</ele>
        <time>2020-07-12T09:49:00Z</time>
      </trkpt>
      <trkpt lat="46.38494" lon="2.59728">
        <ele>205.3</ele>
        <time>2020-07-12T09:49:01Z</time>
      </trkpt>
      <trkpt lat="46.38488" lon="2.59728">
        <ele>205.3</ele>
        <time>2020-07-12T09:49:02Z</time>
      </trkpt>
      <trkpt lat="46.38483" lon="2.59729">
        <ele>205.3</ele>
        <time>2020-07-12T09:49:03Z</time>
      </trkpt>
      <trkpt lat="46.38478" lon="2.59729">
        <ele>205.3</ele>
        <time>2020-07-12T09:49:04Z</time>
      </trkpt>
      <trkpt lat="46.38473" lon="2.59729">
        <ele>205.3</ele>
        <time>2020-07-12T09:49:05Z</time>
      </trkpt>
      <trkpt lat="46.38468" lon="2.59729">
        <ele>205.3</ele>
        <time>2020-07-12T09:49:06Z</time>
      </trkpt>
      <trkpt lat="46.38462" lon="2.5973">
        <ele>205.6</ele>
        <time>2020-07-12T09:49:07Z</time>
      </trkpt>
      <trkpt lat="46.38457" lon="2.5973">
        <ele>205.8</ele>
        <time>2020-07-12T09:49:08Z</time>
      </trkpt>
      <trkpt lat="46.38452" lon="2.5973">
        <ele>205.1</ele>
        <time>2020-07-12T09:49:09Z</time>
      </trkpt>
      <trkpt lat="46.38447" lon="2.5973">
        <ele>204.7</ele>
        <time>2020-07-12T09:49:10Z</time>
      </trkpt>
      <trkpt lat="46.38441" lon="2.59731">
        <ele>204.3</ele>
        <time>2020-07-12T09:49:11Z</time>
      </trkpt>
      <trkpt lat="46.38436" lon="2.59731">
        <ele>204.3</ele>
        <time>2020-07-12T09:49:12Z</time>
      </trkpt>
      <trkpt lat="46.3843" lon="2.59731">
        <ele>204.4</ele>
        <time>2020-07-12T09:49:13Z</time>
      </trkpt>
      <trkpt lat="46.38425" lon="2.59732">
        <ele>204.8</ele>
        <time>2020-07-12T09:49:14Z</time>
      </trkpt>
      <trkpt lat="46.38419" lon="2.59732">
        <ele>205.2</ele>
        <time>2020-07-12T09:49:15Z</time>
      </trkpt>
      <trkpt lat="46.38414" lon="2.59733">
        <ele>205.1</ele>
        <time>2020-07-12T09:49:16Z</time>
      </trkpt>
      <trkpt lat="46.38408" lon="2.59733">
        <ele>205.1</ele>
        <time>2020-07-12T09:49:17Z</time>
      </trkpt>
      <trkpt lat="46.38403" lon="2.59733">
        <ele>205.1</ele>
        <time>2020-07-12T09:49:18Z</time>
      </trkpt>
      <trkpt lat="46.38397" lon="2.59734">
        <ele>205.3</ele>
        <time>2020-07-12T09:49:19Z</time>
      </trkpt>
      <trkpt lat="46.38392" lon="2.59734">
        <ele>205.5</ele>
        <time>2020-07-12T09:49:20Z</time>
      </trkpt>
      <trkpt lat="46.38386" lon="2.59734">
        <ele>206</ele>
        <time>2020-07-12T09:49:21Z</time>
      </trkpt>
      <trkpt lat="46.38381" lon="2.59734">
        <ele>206.3</ele>
        <time>2020-07-12T09:49:22Z</time>
      </trkpt>
      <trkpt lat="46.38375" lon="2.59735">
        <ele>206.6</ele>
        <time>2020-07-12T09:49:23Z</time>
      </trkpt>
      <trkpt lat="46.3837" lon="2.59735">
        <ele>206.4</ele>
        <time>2020-07-12T09:49:24Z</time>
      </trkpt>
      <trkpt lat="46.38364" lon="2.59736">
        <ele>206.2</ele>
        <time>2020-07-12T09:49:25Z</time>
      </trkpt>
      <trkpt lat="46.38359" lon="2.59736">
        <ele>206.1</ele>
        <time>2020-07-12T09:49:26Z</time>
      </trkpt>
      <trkpt lat="46.38353" lon="2.59736">
        <ele>206</ele>
        <time>2020-07-12T09:49:27Z</time>
      </trkpt>
      <trkpt lat="46.38348" lon="2.59736">
        <ele>206.1</ele>
        <time>2020-07-12T09:49:28Z</time>
      </trkpt>
      <trkpt lat="46.38342" lon="2.59737">
        <ele>206.2</ele>
        <time>2020-07-12T09:49:29Z</time>
      </trkpt>
      <trkpt lat="46.38337" lon="2.59737">
        <ele>206.3</ele>
        <time>2020-07-12T09:49:30Z</time>
      </trkpt>
      <trkpt lat="46.38331" lon="2.59737">
        <ele>206.4</ele>
        <time>2020-07-12T09:49:31Z</time>
      </trkpt>
      <trkpt lat="46.38325" lon="2.59737">
        <ele>206.5</ele>
        <time>2020-07-12T09:49:32Z</time>
      </trkpt>
      <trkpt lat="46.3832" lon="2.59738">
        <ele>206.7</ele>
        <time>2020-07-12T09:49:33Z</time>
      </trkpt>
      <trkpt lat="46.38315" lon="2.59738">
        <ele>206.9</ele>
        <time>2020-07-12T09:49:34Z</time>
      </trkpt>
      <trkpt lat="46.38309" lon="2.59738">
        <ele>206.4</ele>
        <time>2020-07-12T09:49:35Z</time>
      </trkpt>
      <trkpt lat="46.38304" lon="2.59738">
        <ele>206.1</ele>
        <time>2020-07-12T09:49:36Z</time>
      </trkpt>
      <trkpt lat="46.38298" lon="2.59739">
        <ele>205.9</ele>
        <time>2020-07-12T09:49:37Z</time>
      </trkpt>
      <trkpt lat="46.38293" lon="2.59739">
        <ele>205.8</ele>
        <time>2020-07-12T09:49:38Z</time>
      </trkpt>
      <trkpt lat="46.38287" lon="2.59739">
        <ele>205.8</ele>
        <time>2020-07-12T09:49:39Z</time>
      </trkpt>
      <trkpt lat="46.38282" lon="2.5974">
        <ele>205.9</ele>
        <time>2020-07-12T09:49:40Z</time>
      </trkpt>
      <trkpt lat="46.38276" lon="2.5974">
        <ele>205.9</ele>
        <time>2020-07-12T09:49:41Z</time>
      </trkpt>
      <trkpt lat="46.38271" lon="2.59741">
        <ele>206</ele>
        <time>2020-07-12T09:49:42Z</time>
      </trkpt>
      <trkpt lat="46.38265" lon="2.59741">
        <ele>205.8</ele>
        <time>2020-07-12T09:49:43Z</time>
      </trkpt>
      <trkpt lat="46.3826" lon="2.59741">
        <ele>205.7</ele>
        <time>2020-07-12T09:49:44Z</time>
      </trkpt>
      <trkpt lat="46.38254" lon="2.59741">
        <ele>205.8</ele>
        <time>2020-07-12T09:49:45Z</time>
      </trkpt>
      <trkpt lat="46.38249" lon="2.59741">
        <ele>205.9</ele>
        <time>2020-07-12T09:49:46Z</time>
      </trkpt>
      <trkpt lat="46.38243" lon="2.59741">
        <ele>206.1</ele>
        <time>2020-07-12T09:49:47Z</time>
      </trkpt>
      <trkpt lat="46.38238" lon="2.59742">
        <ele>206.2</ele>
        <time>2020-07-12T09:49:48Z</time>
      </trkpt>
      <trkpt lat="46.38232" lon="2.59742">
        <ele>206.3</ele>
        <time>2020-07-12T09:49:49Z</time>
      </trkpt>
      <trkpt lat="46.38227" lon="2.59742">
        <ele>205.9</ele>
        <time>2020-07-12T09:49:50Z</time>
      </trkpt>
      <trkpt lat="46.38221" lon="2.59743">
        <ele>205.5</ele>
        <time>2020-07-12T09:49:51Z</time>
      </trkpt>
      <trkpt lat="46.38216" lon="2.59743">
        <ele>205.7</ele>
        <time>2020-07-12T09:49:52Z</time>
      </trkpt>
      <trkpt lat="46.3821" lon="2.59743">
        <ele>205.9</ele>
        <time>2020-07-12T09:49:53Z</time>
      </trkpt>
      <trkpt lat="46.38205" lon="2.59743">
        <ele>205.8</ele>
        <time>2020-07-12T09:49:54Z</time>
      </trkpt>
      <trkpt lat="46.38199" lon="2.59743">
        <ele>205.7</ele>
        <time>2020-07-12T09:49:55Z</time>
      </trkpt>
      <trkpt lat="46.38194" lon="2.59744">
        <ele>205.6</ele>
        <time>2020-07-12T09:49:56Z</time>
      </trkpt>
      <trkpt lat="46.38189" lon="2.59744">
        <ele>205.7</ele>
        <time>2020-07-12T09:49:57Z</time>
      </trkpt>
      <trkpt lat="46.38183" lon="2.59744">
        <ele>205.8</ele>
        <time>2020-07-12T09:49:58Z</time>
      </trkpt>
      <trkpt lat="46.38178" lon="2.59745">
        <ele>205.6</ele>
        <time>2020-07-12T09:49:59Z</time>
      </trkpt>
      <trkpt lat="46.38172" lon="2.59745">
        <ele>205.5</ele>
        <time>2020-07-12T09:50:00Z</time>
      </trkpt>
      <trkpt lat="46.38167" lon="2.59745">
        <ele>205.4</ele>
        <time>2020-07-12T09:50:01Z</time>
      </trkpt>
      <trkpt lat="46.38161" lon="2.59746">
        <ele>206</ele>
        <time>2020-07-12T09:50:02Z</time>
      </trkpt>
      <trkpt lat="46.38156" lon="2.59746">
        <ele>206.3</ele>
        <time>2020-07-12T09:50:03Z</time>
      </trkpt>
      <trkpt lat="46.38151" lon="2.59746">
        <ele>206.4</ele>
        <time>2020-07-12T09:50:04Z</time>
      </trkpt>
      <trkpt lat="46.38145" lon="2.59747">
        <ele>206.5</ele>
        <time>2020-07-12T09:50:05Z</time>
      </trkpt>
      <trkpt lat="46.3814" lon="2.59747">
        <ele>206.3</ele>
        <time>2020-07-12T09:50:06Z</time>
      </trkpt>
      <trkpt lat="46.38135" lon="2.59747">
        <ele>206.1</ele>
        <time>2020-07-12T09:50:07Z</time>
      </trkpt>
      <trkpt lat="46.38129" lon="2.59748">
        <ele>206</ele>
        <time>2020-07-12T09:50:08Z</time>
      </trkpt>
      <trkpt lat="46.38124" lon="2.59748">
        <ele>206.1</ele>
        <time>2020-07-12T09:50:09Z</time>
      </trkpt>
      <trkpt lat="46.38118" lon="2.59748">
        <ele>206.2</ele>
        <time>2020-07-12T09:50:10Z</time>
      </trkpt>
      <trkpt lat="46.38113" lon="2.59748">
        <ele>206.1</ele>
        <time>2020-07-12T09:50:11Z</time>
      </trkpt>
      <trkpt lat="46.38107" lon="2.59749">
        <ele>206.1</ele>
        <time>2020-07-12T09:50:12Z</time>
      </trkpt>
      <trkpt lat="46.38102" lon="2.59749">
        <ele>206</ele>
        <time>2020-07-12T09:50:13Z</time>
      </trkpt>
      <trkpt lat="46.38096" lon="2.59749">
        <ele>205.9</ele>
        <time>2020-07-12T09:50:14Z</time>
      </trkpt>
      <trkpt lat="46.38091" lon="2.5975">
        <ele>205.8</ele>
        <time>2020-07-12T09:50:15Z</time>
      </trkpt>
      <trkpt lat="46.38085" lon="2.5975">
        <ele>205.8</ele>
        <time>2020-07-12T09:50:16Z</time>
      </trkpt>
      <trkpt lat="46.3808" lon="2.5975">
        <ele>205.8</ele>
        <time>2020-07-12T09:50:17Z</time>
      </trkpt>
      <trkpt lat="46.38074" lon="2.5975">
        <ele>205.9</ele>
        <time>2020-07-12T09:50:18Z</time>
      </trkpt>
      <trkpt lat="46.38069" lon="2.59751">
        <ele>205.9</ele>
        <time>2020-07-12T09:50:19Z</time>
      </trkpt>
      <trkpt lat="46.38063" lon="2.59751">
        <ele>206.1</ele>
        <time>2020-07-12T09:50:20Z</time>
      </trkpt>
      <trkpt lat="46.38058" lon="2.59751">
        <ele>206.2</ele>
        <time>2020-07-12T09:50:21Z</time>
      </trkpt>
      <trkpt lat="46.38052" lon="2.59751">
        <ele>206.2</ele>
        <time>2020-07-12T09:50:22Z</time>
      </trkpt>
      <trkpt lat="46.38046" lon="2.59752">
        <ele>205.9</ele>
        <time>2020-07-12T09:50:23Z</time>
      </trkpt>
      <trkpt lat="46.3804" lon="2.59752">
        <ele>205.7</ele>
        <time>2020-07-12T09:50:24Z</time>
      </trkpt>
      <trkpt lat="46.38035" lon="2.59752">
        <ele>205.6</ele>
        <time>2020-07-12T09:50:25Z</time>
      </trkpt>
      <trkpt lat="46.38029" lon="2.59752">
        <ele>205.6</ele>
        <time>2020-07-12T09:50:26Z</time>
      </trkpt>
      <trkpt lat="46.38023" lon="2.59753">
        <ele>205.5</ele>
        <time>2020-07-12T09:50:27Z</time>
      </trkpt>
      <trkpt lat="46.38018" lon="2.59753">
        <ele>206</ele>
        <time>2020-07-12T09:50:28Z</time>
      </trkpt>
      <trkpt lat="46.38012" lon="2.59753">
        <ele>206.4</ele>
        <time>2020-07-12T09:50:29Z</time>
      </trkpt>
      <trkpt lat="46.38007" lon="2.59754">
        <ele>206.3</ele>
        <time>2020-07-12T09:50:30Z</time>
      </trkpt>
      <trkpt lat="46.38001" lon="2.59754">
        <ele>206.3</ele>
        <time>2020-07-12T09:50:31Z</time>
      </trkpt>
      <trkpt lat="46.37995" lon="2.59754">
        <ele>206.2</ele>
        <time>2020-07-12T09:50:32Z</time>
      </trkpt>
      <trkpt lat="46.3799" lon="2.59754">
        <ele>206.1</ele>
        <time>2020-07-12T09:50:33Z</time>
      </trkpt>
      <trkpt lat="46.37984" lon="2.59755">
        <ele>206.1</ele>
        <time>2020-07-12T09:50:34Z</time>
      </trkpt>
      <trkpt lat="46.37978" lon="2.59755">
        <ele>206.5</ele>
        <time>2020-07-12T09:50:35Z</time>
      </trkpt>
      <trkpt lat="46.37973" lon="2.59755">
        <ele>206.7</ele>
        <time>2020-07-12T09:50:36Z</time>
      </trkpt>
      <trkpt lat="46.37967" lon="2.59755">
        <ele>207</ele>
        <time>2020-07-12T09:50:37Z</time>
      </trkpt>
      <trkpt lat="46.37961" lon="2.59755">
        <ele>207.3</ele>
        <time>2020-07-12T09:50:38Z</time>
      </trkpt>
      <trkpt lat="46.37956" lon="2.59755">
        <ele>207.5</ele>
        <time>2020-07-12T09:50:39Z</time>
      </trkpt>
      <trkpt lat="46.3795" lon="2.59755">
        <ele>207.7</ele>
        <time>2020-07-12T09:50:40Z</time>
      </trkpt>
      <trkpt lat="46.37944" lon="2.59755">
        <ele>207.8</ele>
        <time>2020-07-12T09:50:41Z</time>
      </trkpt>
      <trkpt lat="46.37938" lon="2.59755">
        <ele>208.1</ele>
        <time>2020-07-12T09:50:42Z</time>
      </trkpt>
      <trkpt lat="46.37932" lon="2.59755">
        <ele>208.3</ele>
        <time>2020-07-12T09:50:43Z</time>
      </trkpt>
      <trkpt lat="46.37926" lon="2.59755">
        <ele>208.3</ele>
        <time>2020-07-12T09:50:44Z</time>
      </trkpt>
      <trkpt lat="46.3792" lon="2.59755">
        <ele>208.3</ele>
        <time>2020-07-12T09:50:45Z</time>
      </trkpt>
      <trkpt lat="46.37914" lon="2.59755">
        <ele>208.3</ele>
        <time>2020-07-12T09:50:46Z</time>
      </trkpt>
      <trkpt lat="46.37908" lon="2.59756">
        <ele>208.3</ele>
        <time>2020-07-12T09:50:47Z</time>
      </trkpt>
      <trkpt lat="46.37901" lon="2.59756">
        <ele>208.3</ele>
        <time>2020-07-12T09:50:48Z</time>
      </trkpt>
      <trkpt lat="46.37895" lon="2.59757">
        <ele>208.5</ele>
        <time>2020-07-12T09:50:49Z</time>
      </trkpt>
      <trkpt lat="46.37889" lon="2.59758">
        <ele>208.6</ele>
        <time>2020-07-12T09:50:50Z</time>
      </trkpt>
      <trkpt lat="46.37883" lon="2.59758">
        <ele>208.5</ele>
        <time>2020-07-12T09:50:51Z</time>
      </trkpt>
      <trkpt lat="46.37877" lon="2.59758">
        <ele>208.5</ele>
        <time>2020-07-12T09:50:52Z</time>
      </trkpt>
      <trkpt lat="46.37871" lon="2.59759">
        <ele>208.4</ele>
        <time>2020-07-12T09:50:53Z</time>
      </trkpt>
      <trkpt lat="46.37865" lon="2.5976">
        <ele>208.5</ele>
        <time>2020-07-12T09:50:54Z</time>
      </trkpt>
      <trkpt lat="46.37859" lon="2.5976">
        <ele>208.5</ele>
        <time>2020-07-12T09:50:55Z</time>
      </trkpt>
      <trkpt lat="46.37854" lon="2.59761">
        <ele>208.5</ele>
        <time>2020-07-12T09:50:56Z</time>
      </trkpt>
      <trkpt lat="46.37848" lon="2.59761">
        <ele>208.4</ele>
        <time>2020-07-12T09:50:57Z</time>
      </trkpt>
      <trkpt lat="46.37842" lon="2.59761">
        <ele>208.4</ele>
        <time>2020-07-12T09:50:58Z</time>
      </trkpt>
      <trkpt lat="46.37836" lon="2.59761">
        <ele>208.7</ele>
        <time>2020-07-12T09:50:59Z</time>
      </trkpt>
      <trkpt lat="46.3783" lon="2.59761">
        <ele>208.9</ele>
        <time>2020-07-12T09:51:00Z</time>
      </trkpt>
      <trkpt lat="46.37825" lon="2.59761">
        <ele>208.8</ele>
        <time>2020-07-12T09:51:01Z</time>
      </trkpt>
      <trkpt lat="46.37819" lon="2.59762">
        <ele>208.8</ele>
        <time>2020-07-12T09:51:02Z</time>
      </trkpt>
      <trkpt lat="46.37813" lon="2.59762">
        <ele>208.9</ele>
        <time>2020-07-12T09:51:03Z</time>
      </trkpt>
      <trkpt lat="46.37808" lon="2.59763">
        <ele>209.1</ele>
        <time>2020-07-12T09:51:04Z</time>
      </trkpt>
      <trkpt lat="46.37802" lon="2.59763">
        <ele>209.1</ele>
        <time>2020-07-12T09:51:05Z</time>
      </trkpt>
      <trkpt lat="46.37797" lon="2.59763">
        <ele>209.1</ele>
        <time>2020-07-12T09:51:06Z</time>
      </trkpt>
      <trkpt lat="46.37791" lon="2.59763">
        <ele>209</ele>
        <time>2020-07-12T09:51:07Z</time>
      </trkpt>
      <trkpt lat="46.37786" lon="2.59763">
        <ele>209</ele>
        <time>2020-07-12T09:51:08Z</time>
      </trkpt>
      <trkpt lat="46.3778" lon="2.59764">
        <ele>209</ele>
        <time>2020-07-12T09:51:09Z</time>
      </trkpt>
      <trkpt lat="46.37775" lon="2.59765">
        <ele>208.8</ele>
        <time>2020-07-12T09:51:10Z</time>
      </trkpt>
      <trkpt lat="46.37769" lon="2.59765">
        <ele>208.6</ele>
        <time>2020-07-12T09:51:11Z</time>
      </trkpt>
      <trkpt lat="46.37763" lon="2.59765">
        <ele>208.5</ele>
        <time>2020-07-12T09:51:12Z</time>
      </trkpt>
      <trkpt lat="46.37758" lon="2.59766">
        <ele>208.7</ele>
        <time>2020-07-12T09:51:13Z</time>
      </trkpt>
      <trkpt lat="46.37753" lon="2.59766">
        <ele>208.9</ele>
        <time>2020-07-12T09:51:14Z</time>
      </trkpt>
      <trkpt lat="46.37747" lon="2.59767">
        <ele>208.5</ele>
        <time>2020-07-12T09:51:15Z</time>
      </trkpt>
      <trkpt lat="46.37741" lon="2.59767">
        <ele>208.2</ele>
        <time>2020-07-12T09:51:16Z</time>
      </trkpt>
      <trkpt lat="46.37736" lon="2.59768">
        <ele>208.5</ele>
        <time>2020-07-12T09:51:17Z</time>
      </trkpt>
      <trkpt lat="46.3773" lon="2.59769">
        <ele>208.8</ele>
        <time>2020-07-12T09:51:18Z</time>
      </trkpt>
      <trkpt lat="46.37725" lon="2.5977">
        <ele>209</ele>
        <time>2020-07-12T09:51:19Z</time>
      </trkpt>
      <trkpt lat="46.37719" lon="2.59772">
        <ele>209.1</ele>
        <time>2020-07-12T09:51:20Z</time>
      </trkpt>
      <trkpt lat="46.37714" lon="2.59775">
        <ele>209.3</ele>
        <time>2020-07-12T09:51:21Z</time>
      </trkpt>
      <trkpt lat="46.37708" lon="2.59779">
        <ele>209.5</ele>
        <time>2020-07-12T09:51:22Z</time>
      </trkpt>
      <trkpt lat="46.37703" lon="2.59783">
        <ele>209.7</ele>
        <time>2020-07-12T09:51:23Z</time>
      </trkpt>
      <trkpt lat="46.37697" lon="2.59788">
        <ele>209.8</ele>
        <time>2020-07-12T09:51:24Z</time>
      </trkpt>
      <trkpt lat="46.37673" lon="2.59802">
        <ele>208</ele>
        <time>2020-07-12T09:51:27Z</time>
      </trkpt>
      <trkpt lat="46.37664" lon="2.59803">
        <ele>208</ele>
        <time>2020-07-12T09:51:29Z</time>
      </trkpt>
      <trkpt lat="46.37659" lon="2.59798">
        <ele>207.7</ele>
        <time>2020-07-12T09:51:30Z</time>
      </trkpt>
      <trkpt lat="46.37654" lon="2.59791">
        <ele>207.6</ele>
        <time>2020-07-12T09:51:31Z</time>
      </trkpt>
      <trkpt lat="46.37649" lon="2.59784">
        <ele>207.5</ele>
        <time>2020-07-12T09:51:32Z</time>
      </trkpt>
      <trkpt lat="46.37644" lon="2.5978">
        <ele>207.4</ele>
        <time>2020-07-12T09:51:33Z</time>
      </trkpt>
      <trkpt lat="46.37638" lon="2.59778">
        <ele>207.4</ele>
        <time>2020-07-12T09:51:34Z</time>
      </trkpt>
      <trkpt lat="46.37632" lon="2.59777">
        <ele>207.4</ele>
        <time>2020-07-12T09:51:35Z</time>
      </trkpt>
      <trkpt lat="46.37626" lon="2.59776">
        <ele>207.4</ele>
        <time>2020-07-12T09:51:36Z</time>
      </trkpt>
      <trkpt lat="46.3762" lon="2.59775">
        <ele>207.4</ele>
        <time>2020-07-12T09:51:37Z</time>
      </trkpt>
      <trkpt lat="46.37614" lon="2.59775">
        <ele>207.5</ele>
        <time>2020-07-12T09:51:38Z</time>
      </trkpt>
      <trkpt lat="46.37608" lon="2.59776">
        <ele>208</ele>
        <time>2020-07-12T09:51:39Z</time>
      </trkpt>
      <trkpt lat="46.37601" lon="2.59776">
        <ele>208.4</ele>
        <time>2020-07-12T09:51:40Z</time>
      </trkpt>
      <trkpt lat="46.37595" lon="2.59776">
        <ele>208.3</ele>
        <time>2020-07-12T09:51:41Z</time>
      </trkpt>
      <trkpt lat="46.37589" lon="2.59776">
        <ele>208.3</ele>
        <time>2020-07-12T09:51:42Z</time>
      </trkpt>
      <trkpt lat="46.37583" lon="2.59776">
        <ele>208.3</ele>
        <time>2020-07-12T09:51:43Z</time>
      </trkpt>
      <trkpt lat="46.37577" lon="2.59776">
        <ele>208.5</ele>
        <time>2020-07-12T09:51:44Z</time>
      </trkpt>
      <trkpt lat="46.37571" lon="2.59777">
        <ele>208.8</ele>
        <time>2020-07-12T09:51:45Z</time>
      </trkpt>
      <trkpt lat="46.37565" lon="2.59777">
        <ele>208.9</ele>
        <time>2020-07-12T09:51:46Z</time>
      </trkpt>
      <trkpt lat="46.37559" lon="2.59777">
        <ele>209.1</ele>
        <time>2020-07-12T09:51:47Z</time>
      </trkpt>
      <trkpt lat="46.37553" lon="2.59777">
        <ele>209</ele>
        <time>2020-07-12T09:51:48Z</time>
      </trkpt>
      <trkpt lat="46.37547" lon="2.59777">
        <ele>209</ele>
        <time>2020-07-12T09:51:49Z</time>
      </trkpt>
      <trkpt lat="46.37541" lon="2.59778">
        <ele>209</ele>
        <time>2020-07-12T09:51:50Z</time>
      </trkpt>
      <trkpt lat="46.37535" lon="2.59778">
        <ele>209.4</ele>
        <time>2020-07-12T09:51:51Z</time>
      </trkpt>
      <trkpt lat="46.37529" lon="2.59778">
        <ele>209.7</ele>
        <time>2020-07-12T09:51:52Z</time>
      </trkpt>
      <trkpt lat="46.37523" lon="2.59778">
        <ele>209.5</ele>
        <time>2020-07-12T09:51:53Z</time>
      </trkpt>
      <trkpt lat="46.37517" lon="2.59778">
        <ele>209.3</ele>
        <time>2020-07-12T09:51:54Z</time>
      </trkpt>
      <trkpt lat="46.37511" lon="2.59779">
        <ele>209.1</ele>
        <time>2020-07-12T09:51:55Z</time>
      </trkpt>
      <trkpt lat="46.37504" lon="2.59779">
        <ele>209.1</ele>
        <time>2020-07-12T09:51:56Z</time>
      </trkpt>
      <trkpt lat="46.37498" lon="2.59779">
        <ele>209</ele>
        <time>2020-07-12T09:51:57Z</time>
      </trkpt>
      <trkpt lat="46.37492" lon="2.59779">
        <ele>209.2</ele>
        <time>2020-07-12T09:51:58Z</time>
      </trkpt>
      <trkpt lat="46.37486" lon="2.59779">
        <ele>209.3</ele>
        <time>2020-07-12T09:51:59Z</time>
      </trkpt>
      <trkpt lat="46.3748" lon="2.5978">
        <ele>209.3</ele>
        <time>2020-07-12T09:52:00Z</time>
      </trkpt>
      <trkpt lat="46.37474" lon="2.5978">
        <ele>209.3</ele>
        <time>2020-07-12T09:52:01Z</time>
      </trkpt>
      <trkpt lat="46.37468" lon="2.5978">
        <ele>209.2</ele>
        <time>2020-07-12T09:52:02Z</time>
      </trkpt>
      <trkpt lat="46.37461" lon="2.5978">
        <ele>209.1</ele>
        <time>2020-07-12T09:52:03Z</time>
      </trkpt>
      <trkpt lat="46.37455" lon="2.5978">
        <ele>209.1</ele>
        <time>2020-07-12T09:52:04Z</time>
      </trkpt>
      <trkpt lat="46.37449" lon="2.59781">
        <ele>209.2</ele>
        <time>2020-07-12T09:52:05Z</time>
      </trkpt>
      <trkpt lat="46.37443" lon="2.59781">
        <ele>209.3</ele>
        <time>2020-07-12T09:52:06Z</time>
      </trkpt>
      <trkpt lat="46.37437" lon="2.59781">
        <ele>209</ele>
        <time>2020-07-12T09:52:07Z</time>
      </trkpt>
      <trkpt lat="46.37431" lon="2.59782">
        <ele>208.8</ele>
        <time>2020-07-12T09:52:08Z</time>
      </trkpt>
      <trkpt lat="46.37425" lon="2.59782">
        <ele>208.7</ele>
        <time>2020-07-12T09:52:09Z</time>
      </trkpt>
      <trkpt lat="46.37419" lon="2.59782">
        <ele>208.7</ele>
        <time>2020-07-12T09:52:10Z</time>
      </trkpt>
      <trkpt lat="46.37413" lon="2.59782">
        <ele>208.7</ele>
        <time>2020-07-12T09:52:11Z</time>
      </trkpt>
      <trkpt lat="46.37406" lon="2.59783">
        <ele>208.7</ele>
        <time>2020-07-12T09:52:12Z</time>
      </trkpt>
      <trkpt lat="46.374" lon="2.59783">
        <ele>208.7</ele>
        <time>2020-07-12T09:52:13Z</time>
      </trkpt>
      <trkpt lat="46.37394" lon="2.59784">
        <ele>208.7</ele>
        <time>2020-07-12T09:52:14Z</time>
      </trkpt>
      <trkpt lat="46.37388" lon="2.59784">
        <ele>208.8</ele>
        <time>2020-07-12T09:52:15Z</time>
      </trkpt>
      <trkpt lat="46.37381" lon="2.59785">
        <ele>208.8</ele>
        <time>2020-07-12T09:52:16Z</time>
      </trkpt>
      <trkpt lat="46.37375" lon="2.59785">
        <ele>208.9</ele>
        <time>2020-07-12T09:52:17Z</time>
      </trkpt>
      <trkpt lat="46.37369" lon="2.59785">
        <ele>208.9</ele>
        <time>2020-07-12T09:52:18Z</time>
      </trkpt>
      <trkpt lat="46.37363" lon="2.59785">
        <ele>208.7</ele>
        <time>2020-07-12T09:52:19Z</time>
      </trkpt>
      <trkpt lat="46.37357" lon="2.59785">
        <ele>208.5</ele>
        <time>2020-07-12T09:52:20Z</time>
      </trkpt>
      <trkpt lat="46.37351" lon="2.59786">
        <ele>208.3</ele>
        <time>2020-07-12T09:52:21Z</time>
      </trkpt>
      <trkpt lat="46.37345" lon="2.59786">
        <ele>208.2</ele>
        <time>2020-07-12T09:52:22Z</time>
      </trkpt>
      <trkpt lat="46.37339" lon="2.59786">
        <ele>208.1</ele>
        <time>2020-07-12T09:52:23Z</time>
      </trkpt>
      <trkpt lat="46.37333" lon="2.59786">
        <ele>208.3</ele>
        <time>2020-07-12T09:52:24Z</time>
      </trkpt>
      <trkpt lat="46.37326" lon="2.59787">
        <ele>208.4</ele>
        <time>2020-07-12T09:52:25Z</time>
      </trkpt>
      <trkpt lat="46.3732" lon="2.59787">
        <ele>208.5</ele>
        <time>2020-07-12T09:52:26Z</time>
      </trkpt>
      <trkpt lat="46.37314" lon="2.59787">
        <ele>208.5</ele>
        <time>2020-07-12T09:52:27Z</time>
      </trkpt>
      <trkpt lat="46.37308" lon="2.59788">
        <ele>208.5</ele>
        <time>2020-07-12T09:52:28Z</time>
      </trkpt>
      <trkpt lat="46.37302" lon="2.59788">
        <ele>208.4</ele>
        <time>2020-07-12T09:52:29Z</time>
      </trkpt>
      <trkpt lat="46.37296" lon="2.59789">
        <ele>208.3</ele>
        <time>2020-07-12T09:52:30Z</time>
      </trkpt>
      <trkpt lat="46.3729" lon="2.59789">
        <ele>208.7</ele>
        <time>2020-07-12T09:52:31Z</time>
      </trkpt>
      <trkpt lat="46.37284" lon="2.59789">
        <ele>209</ele>
        <time>2020-07-12T09:52:32Z</time>
      </trkpt>
      <trkpt lat="46.37278" lon="2.59789">
        <ele>209.2</ele>
        <time>2020-07-12T09:52:33Z</time>
      </trkpt>
      <trkpt lat="46.37272" lon="2.59789">
        <ele>209.3</ele>
        <time>2020-07-12T09:52:34Z</time>
      </trkpt>
      <trkpt lat="46.37266" lon="2.5979">
        <ele>209.3</ele>
        <time>2020-07-12T09:52:35Z</time>
      </trkpt>
      <trkpt lat="46.37259" lon="2.5979">
        <ele>209.5</ele>
        <time>2020-07-12T09:52:36Z</time>
      </trkpt>
      <trkpt lat="46.37253" lon="2.5979">
        <ele>209.6</ele>
        <time>2020-07-12T09:52:37Z</time>
      </trkpt>
      <trkpt lat="46.37247" lon="2.59791">
        <ele>209.3</ele>
        <time>2020-07-12T09:52:38Z</time>
      </trkpt>
      <trkpt lat="46.37241" lon="2.59791">
        <ele>209.1</ele>
        <time>2020-07-12T09:52:39Z</time>
      </trkpt>
      <trkpt lat="46.37235" lon="2.59791">
        <ele>209.2</ele>
        <time>2020-07-12T09:52:40Z</time>
      </trkpt>
      <trkpt lat="46.37229" lon="2.59791">
        <ele>209.4</ele>
        <time>2020-07-12T09:52:41Z</time>
      </trkpt>
      <trkpt lat="46.37222" lon="2.59791">
        <ele>209.4</ele>
        <time>2020-07-12T09:52:42Z</time>
      </trkpt>
      <trkpt lat="46.37216" lon="2.59791">
        <ele>209.1</ele>
        <time>2020-07-12T09:52:43Z</time>
      </trkpt>
      <trkpt lat="46.3721" lon="2.59791">
        <ele>208.9</ele>
        <time>2020-07-12T09:52:44Z</time>
      </trkpt>
      <trkpt lat="46.37204" lon="2.5979">
        <ele>209.1</ele>
        <time>2020-07-12T09:52:45Z</time>
      </trkpt>
      <trkpt lat="46.37198" lon="2.5979">
        <ele>209.3</ele>
        <time>2020-07-12T09:52:46Z</time>
      </trkpt>
      <trkpt lat="46.37192" lon="2.59789">
        <ele>209.4</ele>
        <time>2020-07-12T09:52:47Z</time>
      </trkpt>
      <trkpt lat="46.37187" lon="2.59789">
        <ele>209</ele>
        <time>2020-07-12T09:52:48Z</time>
      </trkpt>
      <trkpt lat="46.37181" lon="2.59788">
        <ele>208.7</ele>
        <time>2020-07-12T09:52:49Z</time>
      </trkpt>
      <trkpt lat="46.37174" lon="2.59787">
        <ele>208.6</ele>
        <time>2020-07-12T09:52:50Z</time>
      </trkpt>
      <trkpt lat="46.37168" lon="2.59786">
        <ele>208.5</ele>
        <time>2020-07-12T09:52:51Z</time>
      </trkpt>
      <trkpt lat="46.37162" lon="2.59785">
        <ele>208.2</ele>
        <time>2020-07-12T09:52:52Z</time>
      </trkpt>
      <trkpt lat="46.37156" lon="2.59784">
        <ele>207.9</ele>
        <time>2020-07-12T09:52:53Z</time>
      </trkpt>
      <trkpt lat="46.3715" lon="2.59783">
        <ele>207.7</ele>
        <time>2020-07-12T09:52:54Z</time>
      </trkpt>
      <trkpt lat="46.37144" lon="2.59782">
        <ele>208</ele>
        <time>2020-07-12T09:52:55Z</time>
      </trkpt>
      <trkpt lat="46.37138" lon="2.5978">
        <ele>208.2</ele>
        <time>2020-07-12T09:52:56Z</time>
      </trkpt>
      <trkpt lat="46.37132" lon="2.59779">
        <ele>208.2</ele>
        <time>2020-07-12T09:52:57Z</time>
      </trkpt>
      <trkpt lat="46.37126" lon="2.59777">
        <ele>208.2</ele>
        <time>2020-07-12T09:52:58Z</time>
      </trkpt>
      <trkpt lat="46.3712" lon="2.59775">
        <ele>208.3</ele>
        <time>2020-07-12T09:52:59Z</time>
      </trkpt>
      <trkpt lat="46.37114" lon="2.59774">
        <ele>208.3</ele>
        <time>2020-07-12T09:53:00Z</time>
      </trkpt>
      <trkpt lat="46.37108" lon="2.59772">
        <ele>208.4</ele>
        <time>2020-07-12T09:53:01Z</time>
      </trkpt>
      <trkpt lat="46.37102" lon="2.5977">
        <ele>208</ele>
        <time>2020-07-12T09:53:02Z</time>
      </trkpt>
      <trkpt lat="46.37096" lon="2.59767">
        <ele>207.8</ele>
        <time>2020-07-12T09:53:03Z</time>
      </trkpt>
      <trkpt lat="46.37089" lon="2.59765">
        <ele>207.6</ele>
        <time>2020-07-12T09:53:04Z</time>
      </trkpt>
      <trkpt lat="46.37083" lon="2.59762">
        <ele>207.4</ele>
        <time>2020-07-12T09:53:05Z</time>
      </trkpt>
      <trkpt lat="46.37077" lon="2.59759">
        <ele>207.2</ele>
        <time>2020-07-12T09:53:06Z</time>
      </trkpt>
      <trkpt lat="46.37071" lon="2.59757">
        <ele>207.5</ele>
        <time>2020-07-12T09:53:07Z</time>
      </trkpt>
      <trkpt lat="46.37065" lon="2.59754">
        <ele>207.8</ele>
        <time>2020-07-12T09:53:08Z</time>
      </trkpt>
      <trkpt lat="46.3706" lon="2.59751">
        <ele>208</ele>
        <time>2020-07-12T09:53:09Z</time>
      </trkpt>
      <trkpt lat="46.37054" lon="2.59749">
        <ele>208.2</ele>
        <time>2020-07-12T09:53:10Z</time>
      </trkpt>
      <trkpt lat="46.37048" lon="2.59746">
        <ele>208.3</ele>
        <time>2020-07-12T09:53:11Z</time>
      </trkpt>
      <trkpt lat="46.37042" lon="2.59743">
        <ele>208.5</ele>
        <time>2020-07-12T09:53:12Z</time>
      </trkpt>
      <trkpt lat="46.37036" lon="2.59741">
        <ele>208.6</ele>
        <time>2020-07-12T09:53:13Z</time>
      </trkpt>
      <trkpt lat="46.3703" lon="2.59738">
        <ele>208.3</ele>
        <time>2020-07-12T09:53:14Z</time>
      </trkpt>
      <trkpt lat="46.37024" lon="2.59735">
        <ele>208.2</ele>
        <time>2020-07-12T09:53:15Z</time>
      </trkpt>
      <trkpt lat="46.37018" lon="2.59732">
        <ele>208.2</ele>
        <time>2020-07-12T09:53:16Z</time>
      </trkpt>
      <trkpt lat="46.37013" lon="2.59729">
        <ele>208.2</ele>
        <time>2020-07-12T09:53:17Z</time>
      </trkpt>
      <trkpt lat="46.37007" lon="2.59727">
        <ele>208.3</ele>
        <time>2020-07-12T09:53:18Z</time>
      </trkpt>
      <trkpt lat="46.37001" lon="2.59724">
        <ele>208.3</ele>
        <time>2020-07-12T09:53:19Z</time>
      </trkpt>
      <trkpt lat="46.36995" lon="2.59721">
        <ele>208.3</ele>
        <time>2020-07-12T09:53:20Z</time>
      </trkpt>
      <trkpt lat="46.3699" lon="2.59719">
        <ele>208.1</ele>
        <time>2020-07-12T09:53:21Z</time>
      </trkpt>
      <trkpt lat="46.36984" lon="2.59716">
        <ele>207.9</ele>
        <time>2020-07-12T09:53:22Z</time>
      </trkpt>
      <trkpt lat="46.36979" lon="2.59714">
        <ele>208.1</ele>
        <time>2020-07-12T09:53:23Z</time>
      </trkpt>
      <trkpt lat="46.36974" lon="2.59712">
        <ele>208.2</ele>
        <time>2020-07-12T09:53:24Z</time>
      </trkpt>
      <trkpt lat="46.36969" lon="2.5971">
        <ele>208.3</ele>
        <time>2020-07-12T09:53:25Z</time>
      </trkpt>
      <trkpt lat="46.36964" lon="2.59708">
        <ele>208.2</ele>
        <time>2020-07-12T09:53:26Z</time>
      </trkpt>
      <trkpt lat="46.3696" lon="2.59705">
        <ele>208.2</ele>
        <time>2020-07-12T09:53:27Z</time>
      </trkpt>
      <trkpt lat="46.36955" lon="2.59703">
        <ele>208.4</ele>
        <time>2020-07-12T09:53:28Z</time>
      </trkpt>
      <trkpt lat="46.36947" lon="2.597">
        <ele>208.3</ele>
        <time>2020-07-12T09:53:30Z</time>
      </trkpt>
      <trkpt lat="46.36939" lon="2.59697">
        <ele>208.1</ele>
        <time>2020-07-12T09:53:32Z</time>
      </trkpt>
      <trkpt lat="46.36932" lon="2.59694">
        <ele>208.3</ele>
        <time>2020-07-12T09:53:34Z</time>
      </trkpt>
      <trkpt lat="46.36925" lon="2.59688">
        <ele>208.2</ele>
        <time>2020-07-12T09:53:37Z</time>
      </trkpt>
      <trkpt lat="46.36917" lon="2.59686">
        <ele>208.8</ele>
        <time>2020-07-12T09:53:40Z</time>
      </trkpt>
      <trkpt lat="46.36911" lon="2.59683">
        <ele>209.2</ele>
        <time>2020-07-12T09:53:42Z</time>
      </trkpt>
      <trkpt lat="46.36903" lon="2.59679">
        <ele>209.4</ele>
        <time>2020-07-12T09:53:44Z</time>
      </trkpt>
      <trkpt lat="46.36895" lon="2.59677">
        <ele>209.1</ele>
        <time>2020-07-12T09:53:46Z</time>
      </trkpt>
      <trkpt lat="46.3689" lon="2.59675">
        <ele>209.6</ele>
        <time>2020-07-12T09:53:47Z</time>
      </trkpt>
      <trkpt lat="46.36885" lon="2.59673">
        <ele>209.9</ele>
        <time>2020-07-12T09:53:48Z</time>
      </trkpt>
      <trkpt lat="46.3688" lon="2.5967">
        <ele>209.9</ele>
        <time>2020-07-12T09:53:49Z</time>
      </trkpt>
      <trkpt lat="46.36875" lon="2.59668">
        <ele>210</ele>
        <time>2020-07-12T09:53:50Z</time>
      </trkpt>
      <trkpt lat="46.3687" lon="2.59666">
        <ele>210</ele>
        <time>2020-07-12T09:53:51Z</time>
      </trkpt>
      <trkpt lat="46.36864" lon="2.59663">
        <ele>210</ele>
        <time>2020-07-12T09:53:52Z</time>
      </trkpt>
      <trkpt lat="46.36859" lon="2.5966">
        <ele>210</ele>
        <time>2020-07-12T09:53:53Z</time>
      </trkpt>
      <trkpt lat="46.36853" lon="2.59657">
        <ele>210</ele>
        <time>2020-07-12T09:53:54Z</time>
      </trkpt>
      <trkpt lat="46.36848" lon="2.59655">
        <ele>210.1</ele>
        <time>2020-07-12T09:53:55Z</time>
      </trkpt>
      <trkpt lat="46.36842" lon="2.59652">
        <ele>210.2</ele>
        <time>2020-07-12T09:53:56Z</time>
      </trkpt>
      <trkpt lat="46.36837" lon="2.5965">
        <ele>210.3</ele>
        <time>2020-07-12T09:53:57Z</time>
      </trkpt>
      <trkpt lat="46.36832" lon="2.59648">
        <ele>210.3</ele>
        <time>2020-07-12T09:53:58Z</time>
      </trkpt>
      <trkpt lat="46.36827" lon="2.59646">
        <ele>210.3</ele>
        <time>2020-07-12T09:53:59Z</time>
      </trkpt>
      <trkpt lat="46.36822" lon="2.59643">
        <ele>210.3</ele>
        <time>2020-07-12T09:54:00Z</time>
      </trkpt>
      <trkpt lat="46.36817" lon="2.59641">
        <ele>210.6</ele>
        <time>2020-07-12T09:54:01Z</time>
      </trkpt>
      <trkpt lat="46.36812" lon="2.59639">
        <ele>210.8</ele>
        <time>2020-07-12T09:54:02Z</time>
      </trkpt>
      <trkpt lat="46.36806" lon="2.59636">
        <ele>210.9</ele>
        <time>2020-07-12T09:54:03Z</time>
      </trkpt>
      <trkpt lat="46.36801" lon="2.59634">
        <ele>210.9</ele>
        <time>2020-07-12T09:54:04Z</time>
      </trkpt>
      <trkpt lat="46.36796" lon="2.59632">
        <ele>210.9</ele>
        <time>2020-07-12T09:54:05Z</time>
      </trkpt>
      <trkpt lat="46.3679" lon="2.59629">
        <ele>210.9</ele>
        <time>2020-07-12T09:54:06Z</time>
      </trkpt>
      <trkpt lat="46.36785" lon="2.59627">
        <ele>211</ele>
        <time>2020-07-12T09:54:07Z</time>
      </trkpt>
      <trkpt lat="46.36779" lon="2.59624">
        <ele>211.1</ele>
        <time>2020-07-12T09:54:08Z</time>
      </trkpt>
      <trkpt lat="46.36774" lon="2.59622">
        <ele>211.1</ele>
        <time>2020-07-12T09:54:09Z</time>
      </trkpt>
      <trkpt lat="46.36768" lon="2.59619">
        <ele>211.2</ele>
        <time>2020-07-12T09:54:10Z</time>
      </trkpt>
      <trkpt lat="46.36762" lon="2.59616">
        <ele>211.3</ele>
        <time>2020-07-12T09:54:11Z</time>
      </trkpt>
      <trkpt lat="46.36757" lon="2.59614">
        <ele>211.5</ele>
        <time>2020-07-12T09:54:12Z</time>
      </trkpt>
      <trkpt lat="46.36751" lon="2.59611">
        <ele>211.7</ele>
        <time>2020-07-12T09:54:13Z</time>
      </trkpt>
      <trkpt lat="46.36745" lon="2.59608">
        <ele>211.9</ele>
        <time>2020-07-12T09:54:14Z</time>
      </trkpt>
      <trkpt lat="46.36739" lon="2.59605">
        <ele>211.9</ele>
        <time>2020-07-12T09:54:15Z</time>
      </trkpt>
      <trkpt lat="46.36734" lon="2.59603">
        <ele>211.9</ele>
        <time>2020-07-12T09:54:16Z</time>
      </trkpt>
      <trkpt lat="46.36728" lon="2.596">
        <ele>211.9</ele>
        <time>2020-07-12T09:54:17Z</time>
      </trkpt>
      <trkpt lat="46.36722" lon="2.59597">
        <ele>211.8</ele>
        <time>2020-07-12T09:54:18Z</time>
      </trkpt>
      <trkpt lat="46.36716" lon="2.59595">
        <ele>211.8</ele>
        <time>2020-07-12T09:54:19Z</time>
      </trkpt>
      <trkpt lat="46.3671" lon="2.59592">
        <ele>212</ele>
        <time>2020-07-12T09:54:20Z</time>
      </trkpt>
      <trkpt lat="46.36705" lon="2.59589">
        <ele>212.2</ele>
        <time>2020-07-12T09:54:21Z</time>
      </trkpt>
      <trkpt lat="46.36699" lon="2.59587">
        <ele>212.3</ele>
        <time>2020-07-12T09:54:22Z</time>
      </trkpt>
      <trkpt lat="46.36693" lon="2.59584">
        <ele>212.2</ele>
        <time>2020-07-12T09:54:23Z</time>
      </trkpt>
      <trkpt lat="46.36687" lon="2.59581">
        <ele>212.2</ele>
        <time>2020-07-12T09:54:24Z</time>
      </trkpt>
      <trkpt lat="46.36681" lon="2.59579">
        <ele>211.8</ele>
        <time>2020-07-12T09:54:25Z</time>
      </trkpt>
      <trkpt lat="46.36675" lon="2.59576">
        <ele>211.5</ele>
        <time>2020-07-12T09:54:26Z</time>
      </trkpt>
      <trkpt lat="46.3667" lon="2.59573">
        <ele>211.3</ele>
        <time>2020-07-12T09:54:27Z</time>
      </trkpt>
      <trkpt lat="46.36663" lon="2.5957">
        <ele>211.1</ele>
        <time>2020-07-12T09:54:28Z</time>
      </trkpt>
      <trkpt lat="46.36657" lon="2.59567">
        <ele>211</ele>
        <time>2020-07-12T09:54:29Z</time>
      </trkpt>
      <trkpt lat="46.36651" lon="2.59565">
        <ele>211.4</ele>
        <time>2020-07-12T09:54:30Z</time>
      </trkpt>
      <trkpt lat="46.36646" lon="2.59562">
        <ele>211.8</ele>
        <time>2020-07-12T09:54:31Z</time>
      </trkpt>
      <trkpt lat="46.3664" lon="2.59559">
        <ele>211.5</ele>
        <time>2020-07-12T09:54:32Z</time>
      </trkpt>
      <trkpt lat="46.36634" lon="2.59557">
        <ele>211.3</ele>
        <time>2020-07-12T09:54:33Z</time>
      </trkpt>
      <trkpt lat="46.36628" lon="2.59554">
        <ele>211.2</ele>
        <time>2020-07-12T09:54:34Z</time>
      </trkpt>
      <trkpt lat="46.36622" lon="2.59551">
        <ele>211.1</ele>
        <time>2020-07-12T09:54:35Z</time>
      </trkpt>
      <trkpt lat="46.36616" lon="2.59549">
        <ele>211.1</ele>
        <time>2020-07-12T09:54:36Z</time>
      </trkpt>
      <trkpt lat="46.36611" lon="2.59546">
        <ele>211</ele>
        <time>2020-07-12T09:54:37Z</time>
      </trkpt>
      <trkpt lat="46.36605" lon="2.59543">
        <ele>210.9</ele>
        <time>2020-07-12T09:54:38Z</time>
      </trkpt>
      <trkpt lat="46.366" lon="2.5954">
        <ele>210.7</ele>
        <time>2020-07-12T09:54:39Z</time>
      </trkpt>
      <trkpt lat="46.36594" lon="2.59537">
        <ele>210.6</ele>
        <time>2020-07-12T09:54:40Z</time>
      </trkpt>
      <trkpt lat="46.36589" lon="2.59534">
        <ele>210.5</ele>
        <time>2020-07-12T09:54:41Z</time>
      </trkpt>
      <trkpt lat="46.36583" lon="2.59531">
        <ele>210.4</ele>
        <time>2020-07-12T09:54:42Z</time>
      </trkpt>
      <trkpt lat="46.36578" lon="2.59527">
        <ele>210.4</ele>
        <time>2020-07-12T09:54:43Z</time>
      </trkpt>
      <trkpt lat="46.36573" lon="2.59523">
        <ele>211</ele>
        <time>2020-07-12T09:54:44Z</time>
      </trkpt>
      <trkpt lat="46.36568" lon="2.59518">
        <ele>211.5</ele>
        <time>2020-07-12T09:54:45Z</time>
      </trkpt>
      <trkpt lat="46.36564" lon="2.59512">
        <ele>211.3</ele>
        <time>2020-07-12T09:54:46Z</time>
      </trkpt>
      <trkpt lat="46.36559" lon="2.59507">
        <ele>211.2</ele>
        <time>2020-07-12T09:54:47Z</time>
      </trkpt>
      <trkpt lat="46.36553" lon="2.59501">
        <ele>211.1</ele>
        <time>2020-07-12T09:54:48Z</time>
      </trkpt>
      <trkpt lat="46.36547" lon="2.59495">
        <ele>211.3</ele>
        <time>2020-07-12T09:54:49Z</time>
      </trkpt>
      <trkpt lat="46.36542" lon="2.59489">
        <ele>211.5</ele>
        <time>2020-07-12T09:54:50Z</time>
      </trkpt>
      <trkpt lat="46.36536" lon="2.59483">
        <ele>211.5</ele>
        <time>2020-07-12T09:54:51Z</time>
      </trkpt>
      <trkpt lat="46.3653" lon="2.59477">
        <ele>211.5</ele>
        <time>2020-07-12T09:54:52Z</time>
      </trkpt>
      <trkpt lat="46.36523" lon="2.59473">
        <ele>211.9</ele>
        <time>2020-07-12T09:54:53Z</time>
      </trkpt>
      <trkpt lat="46.36517" lon="2.5947">
        <ele>212.3</ele>
        <time>2020-07-12T09:54:54Z</time>
      </trkpt>
      <trkpt lat="46.3651" lon="2.59467">
        <ele>212.6</ele>
        <time>2020-07-12T09:54:55Z</time>
      </trkpt>
      <trkpt lat="46.36504" lon="2.59464">
        <ele>212.6</ele>
        <time>2020-07-12T09:54:56Z</time>
      </trkpt>
      <trkpt lat="46.36497" lon="2.59461">
        <ele>212.6</ele>
        <time>2020-07-12T09:54:57Z</time>
      </trkpt>
      <trkpt lat="46.3649" lon="2.59458">
        <ele>212.8</ele>
        <time>2020-07-12T09:54:58Z</time>
      </trkpt>
      <trkpt lat="46.36484" lon="2.59455">
        <ele>213</ele>
        <time>2020-07-12T09:54:59Z</time>
      </trkpt>
      <trkpt lat="46.36477" lon="2.59452">
        <ele>213</ele>
        <time>2020-07-12T09:55:00Z</time>
      </trkpt>
      <trkpt lat="46.3647" lon="2.59449">
        <ele>213</ele>
        <time>2020-07-12T09:55:01Z</time>
      </trkpt>
      <trkpt lat="46.36463" lon="2.59446">
        <ele>213</ele>
        <time>2020-07-12T09:55:02Z</time>
      </trkpt>
      <trkpt lat="46.36456" lon="2.59444">
        <ele>212.5</ele>
        <time>2020-07-12T09:55:03Z</time>
      </trkpt>
      <trkpt lat="46.36448" lon="2.59442">
        <ele>212.1</ele>
        <time>2020-07-12T09:55:04Z</time>
      </trkpt>
      <trkpt lat="46.3644" lon="2.59441">
        <ele>212.6</ele>
        <time>2020-07-12T09:55:05Z</time>
      </trkpt>
      <trkpt lat="46.36433" lon="2.59439">
        <ele>212.9</ele>
        <time>2020-07-12T09:55:06Z</time>
      </trkpt>
      <trkpt lat="46.36425" lon="2.59438">
        <ele>213.2</ele>
        <time>2020-07-12T09:55:07Z</time>
      </trkpt>
      <trkpt lat="46.36417" lon="2.59437">
        <ele>213.2</ele>
        <time>2020-07-12T09:55:08Z</time>
      </trkpt>
      <trkpt lat="46.36408" lon="2.59437">
        <ele>213.3</ele>
        <time>2020-07-12T09:55:09Z</time>
      </trkpt>
      <trkpt lat="46.364" lon="2.59437">
        <ele>213.7</ele>
        <time>2020-07-12T09:55:10Z</time>
      </trkpt>
      <trkpt lat="46.36392" lon="2.59437">
        <ele>214</ele>
        <time>2020-07-12T09:55:11Z</time>
      </trkpt>
      <trkpt lat="46.36383" lon="2.59437">
        <ele>214</ele>
        <time>2020-07-12T09:55:12Z</time>
      </trkpt>
      <trkpt lat="46.36375" lon="2.59437">
        <ele>214</ele>
        <time>2020-07-12T09:55:13Z</time>
      </trkpt>
      <trkpt lat="46.36366" lon="2.59438">
        <ele>214</ele>
        <time>2020-07-12T09:55:14Z</time>
      </trkpt>
      <trkpt lat="46.36358" lon="2.5944">
        <ele>214</ele>
        <time>2020-07-12T09:55:15Z</time>
      </trkpt>
      <trkpt lat="46.36349" lon="2.59441">
        <ele>214</ele>
        <time>2020-07-12T09:55:16Z</time>
      </trkpt>
      <trkpt lat="46.36341" lon="2.59443">
        <ele>213.4</ele>
        <time>2020-07-12T09:55:17Z</time>
      </trkpt>
      <trkpt lat="46.36332" lon="2.59445">
        <ele>213</ele>
        <time>2020-07-12T09:55:18Z</time>
      </trkpt>
      <trkpt lat="46.36323" lon="2.59448">
        <ele>213.2</ele>
        <time>2020-07-12T09:55:19Z</time>
      </trkpt>
      <trkpt lat="46.36315" lon="2.5945">
        <ele>213.3</ele>
        <time>2020-07-12T09:55:20Z</time>
      </trkpt>
      <trkpt lat="46.36306" lon="2.59453">
        <ele>213.5</ele>
        <time>2020-07-12T09:55:21Z</time>
      </trkpt>
      <trkpt lat="46.36298" lon="2.59456">
        <ele>213.4</ele>
        <time>2020-07-12T09:55:22Z</time>
      </trkpt>
      <trkpt lat="46.36291" lon="2.59459">
        <ele>213.4</ele>
        <time>2020-07-12T09:55:23Z</time>
      </trkpt>
      <trkpt lat="46.36283" lon="2.59462">
        <ele>213.7</ele>
        <time>2020-07-12T09:55:24Z</time>
      </trkpt>
      <trkpt lat="46.36276" lon="2.59464">
        <ele>213.9</ele>
        <time>2020-07-12T09:55:25Z</time>
      </trkpt>
      <trkpt lat="46.36269" lon="2.59467">
        <ele>214.1</ele>
        <time>2020-07-12T09:55:26Z</time>
      </trkpt>
      <trkpt lat="46.36262" lon="2.5947">
        <ele>213.8</ele>
        <time>2020-07-12T09:55:27Z</time>
      </trkpt>
      <trkpt lat="46.36255" lon="2.59473">
        <ele>213.7</ele>
        <time>2020-07-12T09:55:28Z</time>
      </trkpt>
      <trkpt lat="46.36249" lon="2.59475">
        <ele>213.6</ele>
        <time>2020-07-12T09:55:29Z</time>
      </trkpt>
      <trkpt lat="46.36242" lon="2.59478">
        <ele>213.5</ele>
        <time>2020-07-12T09:55:30Z</time>
      </trkpt>
      <trkpt lat="46.36235" lon="2.59481">
        <ele>213.2</ele>
        <time>2020-07-12T09:55:31Z</time>
      </trkpt>
      <trkpt lat="46.36228" lon="2.59483">
        <ele>213.1</ele>
        <time>2020-07-12T09:55:32Z</time>
      </trkpt>
      <trkpt lat="46.36221" lon="2.59486">
        <ele>213</ele>
        <time>2020-07-12T09:55:33Z</time>
      </trkpt>
      <trkpt lat="46.36214" lon="2.59489">
        <ele>213.2</ele>
        <time>2020-07-12T09:55:34Z</time>
      </trkpt>
      <trkpt lat="46.36207" lon="2.59491">
        <ele>213.4</ele>
        <time>2020-07-12T09:55:35Z</time>
      </trkpt>
      <trkpt lat="46.362" lon="2.59494">
        <ele>213.4</ele>
        <time>2020-07-12T09:55:36Z</time>
      </trkpt>
      <trkpt lat="46.36193" lon="2.59497">
        <ele>213.4</ele>
        <time>2020-07-12T09:55:37Z</time>
      </trkpt>
      <trkpt lat="46.36186" lon="2.595">
        <ele>213.3</ele>
        <time>2020-07-12T09:55:38Z</time>
      </trkpt>
      <trkpt lat="46.36179" lon="2.59503">
        <ele>213</ele>
        <time>2020-07-12T09:55:39Z</time>
      </trkpt>
      <trkpt lat="46.36171" lon="2.59505">
        <ele>212.8</ele>
        <time>2020-07-12T09:55:40Z</time>
      </trkpt>
      <trkpt lat="46.36164" lon="2.59508">
        <ele>213</ele>
        <time>2020-07-12T09:55:41Z</time>
      </trkpt>
      <trkpt lat="46.36157" lon="2.59511">
        <ele>213.1</ele>
        <time>2020-07-12T09:55:42Z</time>
      </trkpt>
      <trkpt lat="46.3615" lon="2.59514">
        <ele>212.9</ele>
        <time>2020-07-12T09:55:43Z</time>
      </trkpt>
      <trkpt lat="46.36143" lon="2.59516">
        <ele>212.7</ele>
        <time>2020-07-12T09:55:44Z</time>
      </trkpt>
      <trkpt lat="46.36136" lon="2.59519">
        <ele>212.5</ele>
        <time>2020-07-12T09:55:45Z</time>
      </trkpt>
      <trkpt lat="46.3613" lon="2.59521">
        <ele>212.3</ele>
        <time>2020-07-12T09:55:46Z</time>
      </trkpt>
      <trkpt lat="46.36123" lon="2.59523">
        <ele>212.1</ele>
        <time>2020-07-12T09:55:47Z</time>
      </trkpt>
      <trkpt lat="46.36117" lon="2.59526">
        <ele>212</ele>
        <time>2020-07-12T09:55:48Z</time>
      </trkpt>
      <trkpt lat="46.36111" lon="2.59528">
        <ele>211.9</ele>
        <time>2020-07-12T09:55:49Z</time>
      </trkpt>
      <trkpt lat="46.36104" lon="2.59529">
        <ele>212</ele>
        <time>2020-07-12T09:55:50Z</time>
      </trkpt>
      <trkpt lat="46.36097" lon="2.59531">
        <ele>212</ele>
        <time>2020-07-12T09:55:51Z</time>
      </trkpt>
      <trkpt lat="46.3609" lon="2.59532">
        <ele>212.1</ele>
        <time>2020-07-12T09:55:52Z</time>
      </trkpt>
      <trkpt lat="46.36083" lon="2.59533">
        <ele>212.3</ele>
        <time>2020-07-12T09:55:53Z</time>
      </trkpt>
      <trkpt lat="46.36076" lon="2.59534">
        <ele>212.5</ele>
        <time>2020-07-12T09:55:54Z</time>
      </trkpt>
      <trkpt lat="46.3607" lon="2.59535">
        <ele>212.3</ele>
        <time>2020-07-12T09:55:55Z</time>
      </trkpt>
      <trkpt lat="46.36064" lon="2.59537">
        <ele>212.2</ele>
        <time>2020-07-12T09:55:56Z</time>
      </trkpt>
      <trkpt lat="46.36057" lon="2.5954">
        <ele>212.4</ele>
        <time>2020-07-12T09:55:57Z</time>
      </trkpt>
      <trkpt lat="46.36052" lon="2.59545">
        <ele>212.5</ele>
        <time>2020-07-12T09:55:58Z</time>
      </trkpt>
      <trkpt lat="46.36049" lon="2.59553">
        <ele>212.6</ele>
        <time>2020-07-12T09:55:59Z</time>
      </trkpt>
      <trkpt lat="46.36048" lon="2.59561">
        <ele>212.8</ele>
        <time>2020-07-12T09:56:00Z</time>
      </trkpt>
      <trkpt lat="46.36048" lon="2.59568">
        <ele>212.9</ele>
        <time>2020-07-12T09:56:01Z</time>
      </trkpt>
      <trkpt lat="46.36046" lon="2.59575">
        <ele>212.9</ele>
        <time>2020-07-12T09:56:02Z</time>
      </trkpt>
      <trkpt lat="46.36042" lon="2.59579">
        <ele>212.9</ele>
        <time>2020-07-12T09:56:03Z</time>
      </trkpt>
      <trkpt lat="46.36036" lon="2.5958">
        <ele>213</ele>
        <time>2020-07-12T09:56:04Z</time>
      </trkpt>
      <trkpt lat="46.3603" lon="2.5958">
        <ele>212.7</ele>
        <time>2020-07-12T09:56:05Z</time>
      </trkpt>
      <trkpt lat="46.36024" lon="2.5958">
        <ele>212.4</ele>
        <time>2020-07-12T09:56:06Z</time>
      </trkpt>
      <trkpt lat="46.36017" lon="2.5958">
        <ele>212.8</ele>
        <time>2020-07-12T09:56:07Z</time>
      </trkpt>
      <trkpt lat="46.36011" lon="2.59581">
        <ele>213</ele>
        <time>2020-07-12T09:56:08Z</time>
      </trkpt>
      <trkpt lat="46.36004" lon="2.59581">
        <ele>213.1</ele>
        <time>2020-07-12T09:56:09Z</time>
      </trkpt>
      <trkpt lat="46.35997" lon="2.59581">
        <ele>213.2</ele>
        <time>2020-07-12T09:56:10Z</time>
      </trkpt>
      <trkpt lat="46.35991" lon="2.59581">
        <ele>213.3</ele>
        <time>2020-07-12T09:56:11Z</time>
      </trkpt>
      <trkpt lat="46.35984" lon="2.59582">
        <ele>213.3</ele>
        <time>2020-07-12T09:56:12Z</time>
      </trkpt>
      <trkpt lat="46.35978" lon="2.59582">
        <ele>213.4</ele>
        <time>2020-07-12T09:56:13Z</time>
      </trkpt>
      <trkpt lat="46.35972" lon="2.59582">
        <ele>213.7</ele>
        <time>2020-07-12T09:56:14Z</time>
      </trkpt>
      <trkpt lat="46.35966" lon="2.59582">
        <ele>213.9</ele>
        <time>2020-07-12T09:56:15Z</time>
      </trkpt>
      <trkpt lat="46.35959" lon="2.59582">
        <ele>214</ele>
        <time>2020-07-12T09:56:16Z</time>
      </trkpt>
      <trkpt lat="46.35953" lon="2.59582">
        <ele>214.1</ele>
        <time>2020-07-12T09:56:17Z</time>
      </trkpt>
      <trkpt lat="46.35947" lon="2.59581">
        <ele>214.1</ele>
        <time>2020-07-12T09:56:18Z</time>
      </trkpt>
      <trkpt lat="46.35941" lon="2.59581">
        <ele>214.1</ele>
        <time>2020-07-12T09:56:19Z</time>
      </trkpt>
      <trkpt lat="46.35935" lon="2.59581">
        <ele>214.1</ele>
        <time>2020-07-12T09:56:20Z</time>
      </trkpt>
      <trkpt lat="46.35929" lon="2.5958">
        <ele>213.7</ele>
        <time>2020-07-12T09:56:21Z</time>
      </trkpt>
      <trkpt lat="46.35923" lon="2.5958">
        <ele>213.4</ele>
        <time>2020-07-12T09:56:22Z</time>
      </trkpt>
      <trkpt lat="46.35916" lon="2.59579">
        <ele>213.1</ele>
        <time>2020-07-12T09:56:23Z</time>
      </trkpt>
      <trkpt lat="46.3591" lon="2.59579">
        <ele>213.2</ele>
        <time>2020-07-12T09:56:24Z</time>
      </trkpt>
      <trkpt lat="46.35904" lon="2.59578">
        <ele>213.3</ele>
        <time>2020-07-12T09:56:25Z</time>
      </trkpt>
      <trkpt lat="46.35898" lon="2.59577">
        <ele>213.3</ele>
        <time>2020-07-12T09:56:26Z</time>
      </trkpt>
      <trkpt lat="46.35892" lon="2.59577">
        <ele>213.3</ele>
        <time>2020-07-12T09:56:27Z</time>
      </trkpt>
      <trkpt lat="46.35885" lon="2.59577">
        <ele>213</ele>
        <time>2020-07-12T09:56:28Z</time>
      </trkpt>
      <trkpt lat="46.35879" lon="2.59576">
        <ele>212.8</ele>
        <time>2020-07-12T09:56:29Z</time>
      </trkpt>
      <trkpt lat="46.35872" lon="2.59576">
        <ele>212.6</ele>
        <time>2020-07-12T09:56:30Z</time>
      </trkpt>
      <trkpt lat="46.35866" lon="2.59575">
        <ele>212.8</ele>
        <time>2020-07-12T09:56:31Z</time>
      </trkpt>
      <trkpt lat="46.35859" lon="2.59574">
        <ele>212.9</ele>
        <time>2020-07-12T09:56:32Z</time>
      </trkpt>
      <trkpt lat="46.35853" lon="2.59574">
        <ele>212.9</ele>
        <time>2020-07-12T09:56:33Z</time>
      </trkpt>
      <trkpt lat="46.35846" lon="2.59574">
        <ele>212.9</ele>
        <time>2020-07-12T09:56:34Z</time>
      </trkpt>
      <trkpt lat="46.3584" lon="2.59573">
        <ele>213.4</ele>
        <time>2020-07-12T09:56:35Z</time>
      </trkpt>
      <trkpt lat="46.35833" lon="2.59572">
        <ele>213.8</ele>
        <time>2020-07-12T09:56:36Z</time>
      </trkpt>
      <trkpt lat="46.35827" lon="2.59572">
        <ele>214</ele>
        <time>2020-07-12T09:56:37Z</time>
      </trkpt>
      <trkpt lat="46.3582" lon="2.59571">
        <ele>214</ele>
        <time>2020-07-12T09:56:38Z</time>
      </trkpt>
      <trkpt lat="46.35813" lon="2.59571">
        <ele>214</ele>
        <time>2020-07-12T09:56:39Z</time>
      </trkpt>
      <trkpt lat="46.35807" lon="2.5957">
        <ele>213.9</ele>
        <time>2020-07-12T09:56:40Z</time>
      </trkpt>
      <trkpt lat="46.358" lon="2.5957">
        <ele>213.9</ele>
        <time>2020-07-12T09:56:41Z</time>
      </trkpt>
      <trkpt lat="46.35793" lon="2.5957">
        <ele>213.8</ele>
        <time>2020-07-12T09:56:42Z</time>
      </trkpt>
      <trkpt lat="46.35787" lon="2.59571">
        <ele>213.5</ele>
        <time>2020-07-12T09:56:43Z</time>
      </trkpt>
      <trkpt lat="46.3578" lon="2.59573">
        <ele>213.3</ele>
        <time>2020-07-12T09:56:44Z</time>
      </trkpt>
      <trkpt lat="46.35774" lon="2.59576">
        <ele>213.5</ele>
        <time>2020-07-12T09:56:45Z</time>
      </trkpt>
      <trkpt lat="46.35768" lon="2.5958">
        <ele>213.6</ele>
        <time>2020-07-12T09:56:46Z</time>
      </trkpt>
      <trkpt lat="46.35762" lon="2.59584">
        <ele>214.1</ele>
        <time>2020-07-12T09:56:47Z</time>
      </trkpt>
      <trkpt lat="46.35756" lon="2.59588">
        <ele>214.4</ele>
        <time>2020-07-12T09:56:48Z</time>
      </trkpt>
      <trkpt lat="46.3575" lon="2.59592">
        <ele>214.6</ele>
        <time>2020-07-12T09:56:49Z</time>
      </trkpt>
      <trkpt lat="46.35744" lon="2.59595">
        <ele>214.1</ele>
        <time>2020-07-12T09:56:50Z</time>
      </trkpt>
      <trkpt lat="46.35738" lon="2.59599">
        <ele>213.8</ele>
        <time>2020-07-12T09:56:51Z</time>
      </trkpt>
      <trkpt lat="46.35732" lon="2.59603">
        <ele>213.6</ele>
        <time>2020-07-12T09:56:52Z</time>
      </trkpt>
      <trkpt lat="46.35726" lon="2.59607">
        <ele>213.4</ele>
        <time>2020-07-12T09:56:53Z</time>
      </trkpt>
      <trkpt lat="46.3572" lon="2.59611">
        <ele>213.3</ele>
        <time>2020-07-12T09:56:54Z</time>
      </trkpt>
      <trkpt lat="46.35714" lon="2.59615">
        <ele>213.3</ele>
        <time>2020-07-12T09:56:55Z</time>
      </trkpt>
      <trkpt lat="46.35708" lon="2.59619">
        <ele>213.2</ele>
        <time>2020-07-12T09:56:56Z</time>
      </trkpt>
      <trkpt lat="46.35702" lon="2.59623">
        <ele>213.2</ele>
        <time>2020-07-12T09:56:57Z</time>
      </trkpt>
      <trkpt lat="46.35696" lon="2.59627">
        <ele>213.2</ele>
        <time>2020-07-12T09:56:58Z</time>
      </trkpt>
      <trkpt lat="46.35691" lon="2.59631">
        <ele>213.1</ele>
        <time>2020-07-12T09:56:59Z</time>
      </trkpt>
      <trkpt lat="46.35685" lon="2.59635">
        <ele>213</ele>
        <time>2020-07-12T09:57:00Z</time>
      </trkpt>
      <trkpt lat="46.35679" lon="2.59639">
        <ele>213</ele>
        <time>2020-07-12T09:57:01Z</time>
      </trkpt>
      <trkpt lat="46.35673" lon="2.59643">
        <ele>213</ele>
        <time>2020-07-12T09:57:02Z</time>
      </trkpt>
      <trkpt lat="46.35668" lon="2.59647">
        <ele>213</ele>
        <time>2020-07-12T09:57:03Z</time>
      </trkpt>
      <trkpt lat="46.35662" lon="2.59651">
        <ele>213.1</ele>
        <time>2020-07-12T09:57:04Z</time>
      </trkpt>
      <trkpt lat="46.35657" lon="2.59655">
        <ele>213.1</ele>
        <time>2020-07-12T09:57:05Z</time>
      </trkpt>
      <trkpt lat="46.35651" lon="2.59658">
        <ele>213.3</ele>
        <time>2020-07-12T09:57:06Z</time>
      </trkpt>
      <trkpt lat="46.35645" lon="2.59662">
        <ele>213.5</ele>
        <time>2020-07-12T09:57:07Z</time>
      </trkpt>
      <trkpt lat="46.3564" lon="2.59666">
        <ele>213.6</ele>
        <time>2020-07-12T09:57:08Z</time>
      </trkpt>
      <trkpt lat="46.35635" lon="2.5967">
        <ele>213.9</ele>
        <time>2020-07-12T09:57:09Z</time>
      </trkpt>
      <trkpt lat="46.3563" lon="2.59673">
        <ele>214</ele>
        <time>2020-07-12T09:57:10Z</time>
      </trkpt>
      <trkpt lat="46.35625" lon="2.59676">
        <ele>214.1</ele>
        <time>2020-07-12T09:57:11Z</time>
      </trkpt>
      <trkpt lat="46.3562" lon="2.5968">
        <ele>214.2</ele>
        <time>2020-07-12T09:57:12Z</time>
      </trkpt>
      <trkpt lat="46.35615" lon="2.59683">
        <ele>213.2</ele>
        <time>2020-07-12T09:57:13Z</time>
      </trkpt>
      <trkpt lat="46.3561" lon="2.59685">
        <ele>212.4</ele>
        <time>2020-07-12T09:57:14Z</time>
      </trkpt>
      <trkpt lat="46.35605" lon="2.59688">
        <ele>211.9</ele>
        <time>2020-07-12T09:57:15Z</time>
      </trkpt>
      <trkpt lat="46.356" lon="2.59689">
        <ele>211.7</ele>
        <time>2020-07-12T09:57:16Z</time>
      </trkpt>
      <trkpt lat="46.35595" lon="2.5969">
        <ele>211.6</ele>
        <time>2020-07-12T09:57:17Z</time>
      </trkpt>
      <trkpt lat="46.3559" lon="2.59691">
        <ele>211.9</ele>
        <time>2020-07-12T09:57:18Z</time>
      </trkpt>
      <trkpt lat="46.35586" lon="2.59692">
        <ele>212.2</ele>
        <time>2020-07-12T09:57:19Z</time>
      </trkpt>
      <trkpt lat="46.35577" lon="2.59694">
        <ele>212.3</ele>
        <time>2020-07-12T09:57:21Z</time>
      </trkpt>
      <trkpt lat="46.35569" lon="2.59695">
        <ele>212.1</ele>
        <time>2020-07-12T09:57:23Z</time>
      </trkpt>
      <trkpt lat="46.35562" lon="2.59698">
        <ele>212</ele>
        <time>2020-07-12T09:57:25Z</time>
      </trkpt>
      <trkpt lat="46.35556" lon="2.59699">
        <ele>212.1</ele>
        <time>2020-07-12T09:57:27Z</time>
      </trkpt>
      <trkpt lat="46.35549" lon="2.59699">
        <ele>211.9</ele>
        <time>2020-07-12T09:57:29Z</time>
      </trkpt>
      <trkpt lat="46.3554" lon="2.59698">
        <ele>212.1</ele>
        <time>2020-07-12T09:57:31Z</time>
      </trkpt>
      <trkpt lat="46.35535" lon="2.59697">
        <ele>211.9</ele>
        <time>2020-07-12T09:57:32Z</time>
      </trkpt>
      <trkpt lat="46.35531" lon="2.59697">
        <ele>211.8</ele>
        <time>2020-07-12T09:57:33Z</time>
      </trkpt>
      <trkpt lat="46.35526" lon="2.59697">
        <ele>211.7</ele>
        <time>2020-07-12T09:57:34Z</time>
      </trkpt>
      <trkpt lat="46.35521" lon="2.59697">
        <ele>212.4</ele>
        <time>2020-07-12T09:57:35Z</time>
      </trkpt>
      <trkpt lat="46.35516" lon="2.59697">
        <ele>212.9</ele>
        <time>2020-07-12T09:57:36Z</time>
      </trkpt>
      <trkpt lat="46.35512" lon="2.59697">
        <ele>213.3</ele>
        <time>2020-07-12T09:57:37Z</time>
      </trkpt>
      <trkpt lat="46.35507" lon="2.59697">
        <ele>213.5</ele>
        <time>2020-07-12T09:57:38Z</time>
      </trkpt>
      <trkpt lat="46.35502" lon="2.59697">
        <ele>213.7</ele>
        <time>2020-07-12T09:57:39Z</time>
      </trkpt>
      <trkpt lat="46.35497" lon="2.59697">
        <ele>213.8</ele>
        <time>2020-07-12T09:57:40Z</time>
      </trkpt>
      <trkpt lat="46.35492" lon="2.59698">
        <ele>213.8</ele>
        <time>2020-07-12T09:57:41Z</time>
      </trkpt>
      <trkpt lat="46.35487" lon="2.59698">
        <ele>213.9</ele>
        <time>2020-07-12T09:57:42Z</time>
      </trkpt>
      <trkpt lat="46.35482" lon="2.59698">
        <ele>213.9</ele>
        <time>2020-07-12T09:57:43Z</time>
      </trkpt>
      <trkpt lat="46.35477" lon="2.59699">
        <ele>213.7</ele>
        <time>2020-07-12T09:57:44Z</time>
      </trkpt>
      <trkpt lat="46.35472" lon="2.597">
        <ele>213.5</ele>
        <time>2020-07-12T09:57:45Z</time>
      </trkpt>
      <trkpt lat="46.35467" lon="2.59701">
        <ele>213.4</ele>
        <time>2020-07-12T09:57:46Z</time>
      </trkpt>
      <trkpt lat="46.35463" lon="2.59705">
        <ele>213</ele>
        <time>2020-07-12T09:57:47Z</time>
      </trkpt>
      <trkpt lat="46.3546" lon="2.5971">
        <ele>212.7</ele>
        <time>2020-07-12T09:57:48Z</time>
      </trkpt>
      <trkpt lat="46.35458" lon="2.59717">
        <ele>213</ele>
        <time>2020-07-12T09:57:49Z</time>
      </trkpt>
      <trkpt lat="46.35457" lon="2.59724">
        <ele>213.2</ele>
        <time>2020-07-12T09:57:50Z</time>
      </trkpt>
      <trkpt lat="46.35456" lon="2.59732">
        <ele>213.6</ele>
        <time>2020-07-12T09:57:51Z</time>
      </trkpt>
      <trkpt lat="46.35455" lon="2.5974">
        <ele>213.9</ele>
        <time>2020-07-12T09:57:52Z</time>
      </trkpt>
      <trkpt lat="46.35455" lon="2.59748">
        <ele>214.1</ele>
        <time>2020-07-12T09:57:53Z</time>
      </trkpt>
      <trkpt lat="46.35454" lon="2.59756">
        <ele>214.3</ele>
        <time>2020-07-12T09:57:54Z</time>
      </trkpt>
      <trkpt lat="46.35454" lon="2.59765">
        <ele>214.4</ele>
        <time>2020-07-12T09:57:55Z</time>
      </trkpt>
      <trkpt lat="46.35453" lon="2.59773">
        <ele>214.3</ele>
        <time>2020-07-12T09:57:56Z</time>
      </trkpt>
      <trkpt lat="46.35452" lon="2.59781">
        <ele>214.1</ele>
        <time>2020-07-12T09:57:57Z</time>
      </trkpt>
      <trkpt lat="46.3545" lon="2.59789">
        <ele>214.4</ele>
        <time>2020-07-12T09:57:58Z</time>
      </trkpt>
      <trkpt lat="46.35447" lon="2.59796">
        <ele>214.6</ele>
        <time>2020-07-12T09:57:59Z</time>
      </trkpt>
      <trkpt lat="46.35443" lon="2.59801">
        <ele>214.7</ele>
        <time>2020-07-12T09:58:00Z</time>
      </trkpt>
      <trkpt lat="46.35439" lon="2.59804">
        <ele>214.7</ele>
        <time>2020-07-12T09:58:01Z</time>
      </trkpt>
      <trkpt lat="46.35434" lon="2.59806">
        <ele>214.6</ele>
        <time>2020-07-12T09:58:02Z</time>
      </trkpt>
      <trkpt lat="46.35429" lon="2.59808">
        <ele>214</ele>
        <time>2020-07-12T09:58:03Z</time>
      </trkpt>
      <trkpt lat="46.35423" lon="2.59809">
        <ele>213.5</ele>
        <time>2020-07-12T09:58:04Z</time>
      </trkpt>
      <trkpt lat="46.35418" lon="2.5981">
        <ele>213.2</ele>
        <time>2020-07-12T09:58:05Z</time>
      </trkpt>
      <trkpt lat="46.35412" lon="2.59811">
        <ele>213.4</ele>
        <time>2020-07-12T09:58:06Z</time>
      </trkpt>
      <trkpt lat="46.35407" lon="2.59812">
        <ele>213.5</ele>
        <time>2020-07-12T09:58:07Z</time>
      </trkpt>
      <trkpt lat="46.35401" lon="2.59813">
        <ele>213.5</ele>
        <time>2020-07-12T09:58:08Z</time>
      </trkpt>
      <trkpt lat="46.35396" lon="2.59814">
        <ele>213.4</ele>
        <time>2020-07-12T09:58:09Z</time>
      </trkpt>
      <trkpt lat="46.3539" lon="2.59814">
        <ele>213.6</ele>
        <time>2020-07-12T09:58:10Z</time>
      </trkpt>
      <trkpt lat="46.35385" lon="2.59816">
        <ele>213.8</ele>
        <time>2020-07-12T09:58:11Z</time>
      </trkpt>
      <trkpt lat="46.3538" lon="2.59817">
        <ele>213.9</ele>
        <time>2020-07-12T09:58:12Z</time>
      </trkpt>
      <trkpt lat="46.35375" lon="2.59818">
        <ele>214.2</ele>
        <time>2020-07-12T09:58:13Z</time>
      </trkpt>
      <trkpt lat="46.35369" lon="2.59819">
        <ele>214.4</ele>
        <time>2020-07-12T09:58:14Z</time>
      </trkpt>
      <trkpt lat="46.35364" lon="2.59821">
        <ele>214.4</ele>
        <time>2020-07-12T09:58:15Z</time>
      </trkpt>
      <trkpt lat="46.35359" lon="2.59824">
        <ele>214.4</ele>
        <time>2020-07-12T09:58:16Z</time>
      </trkpt>
      <trkpt lat="46.35355" lon="2.59829">
        <ele>214.4</ele>
        <time>2020-07-12T09:58:17Z</time>
      </trkpt>
      <trkpt lat="46.35352" lon="2.59835">
        <ele>214.6</ele>
        <time>2020-07-12T09:58:18Z</time>
      </trkpt>
      <trkpt lat="46.3535" lon="2.59842">
        <ele>214.8</ele>
        <time>2020-07-12T09:58:19Z</time>
      </trkpt>
      <trkpt lat="46.35348" lon="2.5985">
        <ele>215</ele>
        <time>2020-07-12T09:58:20Z</time>
      </trkpt>
      <trkpt lat="46.35347" lon="2.59858">
        <ele>215.2</ele>
        <time>2020-07-12T09:58:21Z</time>
      </trkpt>
      <trkpt lat="46.35345" lon="2.59866">
        <ele>214.7</ele>
        <time>2020-07-12T09:58:22Z</time>
      </trkpt>
      <trkpt lat="46.35343" lon="2.59873">
        <ele>214.4</ele>
        <time>2020-07-12T09:58:23Z</time>
      </trkpt>
      <trkpt lat="46.35339" lon="2.59878">
        <ele>214.2</ele>
        <time>2020-07-12T09:58:24Z</time>
      </trkpt>
      <trkpt lat="46.35334" lon="2.59882">
        <ele>213.8</ele>
        <time>2020-07-12T09:58:25Z</time>
      </trkpt>
      <trkpt lat="46.35329" lon="2.59886">
        <ele>213.6</ele>
        <time>2020-07-12T09:58:26Z</time>
      </trkpt>
      <trkpt lat="46.35324" lon="2.59889">
        <ele>213.6</ele>
        <time>2020-07-12T09:58:27Z</time>
      </trkpt>
      <trkpt lat="46.35319" lon="2.59893">
        <ele>213.7</ele>
        <time>2020-07-12T09:58:28Z</time>
      </trkpt>
      <trkpt lat="46.35314" lon="2.59896">
        <ele>214</ele>
        <time>2020-07-12T09:58:29Z</time>
      </trkpt>
      <trkpt lat="46.35309" lon="2.599">
        <ele>214.2</ele>
        <time>2020-07-12T09:58:30Z</time>
      </trkpt>
      <trkpt lat="46.35304" lon="2.59903">
        <ele>214.4</ele>
        <time>2020-07-12T09:58:31Z</time>
      </trkpt>
      <trkpt lat="46.35299" lon="2.59906">
        <ele>214.1</ele>
        <time>2020-07-12T09:58:32Z</time>
      </trkpt>
      <trkpt lat="46.35294" lon="2.5991">
        <ele>213.8</ele>
        <time>2020-07-12T09:58:33Z</time>
      </trkpt>
      <trkpt lat="46.35288" lon="2.59913">
        <ele>214</ele>
        <time>2020-07-12T09:58:34Z</time>
      </trkpt>
      <trkpt lat="46.35283" lon="2.59917">
        <ele>214.2</ele>
        <time>2020-07-12T09:58:35Z</time>
      </trkpt>
      <trkpt lat="46.35278" lon="2.5992">
        <ele>214.1</ele>
        <time>2020-07-12T09:58:36Z</time>
      </trkpt>
      <trkpt lat="46.35273" lon="2.59924">
        <ele>214</ele>
        <time>2020-07-12T09:58:37Z</time>
      </trkpt>
      <trkpt lat="46.35268" lon="2.59926">
        <ele>213.9</ele>
        <time>2020-07-12T09:58:38Z</time>
      </trkpt>
      <trkpt lat="46.35262" lon="2.59928">
        <ele>214.2</ele>
        <time>2020-07-12T09:58:39Z</time>
      </trkpt>
      <trkpt lat="46.35257" lon="2.5993">
        <ele>214.4</ele>
        <time>2020-07-12T09:58:40Z</time>
      </trkpt>
      <trkpt lat="46.35252" lon="2.59933">
        <ele>214.5</ele>
        <time>2020-07-12T09:58:41Z</time>
      </trkpt>
      <trkpt lat="46.35248" lon="2.59936">
        <ele>214.5</ele>
        <time>2020-07-12T09:58:42Z</time>
      </trkpt>
      <trkpt lat="46.35243" lon="2.59939">
        <ele>214.5</ele>
        <time>2020-07-12T09:58:43Z</time>
      </trkpt>
      <trkpt lat="46.35238" lon="2.59943">
        <ele>214.4</ele>
        <time>2020-07-12T09:58:44Z</time>
      </trkpt>
      <trkpt lat="46.35234" lon="2.59948">
        <ele>214.3</ele>
        <time>2020-07-12T09:58:45Z</time>
      </trkpt>
      <trkpt lat="46.35232" lon="2.59954">
        <ele>214.7</ele>
        <time>2020-07-12T09:58:46Z</time>
      </trkpt>
      <trkpt lat="46.35229" lon="2.59962">
        <ele>215</ele>
        <time>2020-07-12T09:58:47Z</time>
      </trkpt>
      <trkpt lat="46.35227" lon="2.59969">
        <ele>214.9</ele>
        <time>2020-07-12T09:58:48Z</time>
      </trkpt>
      <trkpt lat="46.35224" lon="2.59976">
        <ele>214.9</ele>
        <time>2020-07-12T09:58:49Z</time>
      </trkpt>
      <trkpt lat="46.35221" lon="2.59983">
        <ele>214.9</ele>
        <time>2020-07-12T09:58:50Z</time>
      </trkpt>
      <trkpt lat="46.35218" lon="2.5999">
        <ele>215.4</ele>
        <time>2020-07-12T09:58:51Z</time>
      </trkpt>
      <trkpt lat="46.35215" lon="2.59997">
        <ele>215.9</ele>
        <time>2020-07-12T09:58:52Z</time>
      </trkpt>
      <trkpt lat="46.35213" lon="2.60003">
        <ele>215.8</ele>
        <time>2020-07-12T09:58:53Z</time>
      </trkpt>
      <trkpt lat="46.3521" lon="2.6001">
        <ele>215.8</ele>
        <time>2020-07-12T09:58:54Z</time>
      </trkpt>
      <trkpt lat="46.35207" lon="2.60016">
        <ele>215.7</ele>
        <time>2020-07-12T09:58:55Z</time>
      </trkpt>
      <trkpt lat="46.35204" lon="2.60022">
        <ele>215.6</ele>
        <time>2020-07-12T09:58:56Z</time>
      </trkpt>
      <trkpt lat="46.35201" lon="2.60028">
        <ele>215.5</ele>
        <time>2020-07-12T09:58:57Z</time>
      </trkpt>
      <trkpt lat="46.35198" lon="2.60034">
        <ele>215.9</ele>
        <time>2020-07-12T09:58:58Z</time>
      </trkpt>
      <trkpt lat="46.35195" lon="2.6004">
        <ele>216.3</ele>
        <time>2020-07-12T09:58:59Z</time>
      </trkpt>
      <trkpt lat="46.35192" lon="2.60046">
        <ele>215.6</ele>
        <time>2020-07-12T09:59:00Z</time>
      </trkpt>
      <trkpt lat="46.35188" lon="2.60052">
        <ele>215.1</ele>
        <time>2020-07-12T09:59:01Z</time>
      </trkpt>
      <trkpt lat="46.35183" lon="2.60057">
        <ele>214.7</ele>
        <time>2020-07-12T09:59:02Z</time>
      </trkpt>
      <trkpt lat="46.3518" lon="2.60062">
        <ele>215</ele>
        <time>2020-07-12T09:59:03Z</time>
      </trkpt>
      <trkpt lat="46.35176" lon="2.60068">
        <ele>215.2</ele>
        <time>2020-07-12T09:59:04Z</time>
      </trkpt>
      <trkpt lat="46.35173" lon="2.60073">
        <ele>215.1</ele>
        <time>2020-07-12T09:59:05Z</time>
      </trkpt>
      <trkpt lat="46.35169" lon="2.60078">
        <ele>215</ele>
        <time>2020-07-12T09:59:06Z</time>
      </trkpt>
      <trkpt lat="46.35166" lon="2.60083">
        <ele>215.6</ele>
        <time>2020-07-12T09:59:07Z</time>
      </trkpt>
      <trkpt lat="46.3516" lon="2.60091">
        <ele>216.4</ele>
        <time>2020-07-12T09:59:09Z</time>
      </trkpt>
      <trkpt lat="46.35156" lon="2.60095">
        <ele>216.2</ele>
        <time>2020-07-12T09:59:10Z</time>
      </trkpt>
      <trkpt lat="46.35148" lon="2.60105">
        <ele>215.2</ele>
        <time>2020-07-12T09:59:13Z</time>
      </trkpt>
      <trkpt lat="46.35141" lon="2.60111">
        <ele>214.2</ele>
        <time>2020-07-12T09:59:16Z</time>
      </trkpt>
      <trkpt lat="46.35136" lon="2.60118">
        <ele>214.5</ele>
        <time>2020-07-12T09:59:18Z</time>
      </trkpt>
      <trkpt lat="46.35129" lon="2.60123">
        <ele>214.4</ele>
        <time>2020-07-12T09:59:20Z</time>
      </trkpt>
      <trkpt lat="46.35124" lon="2.60126">
        <ele>214.4</ele>
        <time>2020-07-12T09:59:21Z</time>
      </trkpt>
      <trkpt lat="46.3512" lon="2.60129">
        <ele>214.8</ele>
        <time>2020-07-12T09:59:22Z</time>
      </trkpt>
      <trkpt lat="46.35116" lon="2.60132">
        <ele>215</ele>
        <time>2020-07-12T09:59:23Z</time>
      </trkpt>
      <trkpt lat="46.35112" lon="2.60135">
        <ele>214.9</ele>
        <time>2020-07-12T09:59:24Z</time>
      </trkpt>
      <trkpt lat="46.35108" lon="2.60138">
        <ele>214.7</ele>
        <time>2020-07-12T09:59:25Z</time>
      </trkpt>
      <trkpt lat="46.35103" lon="2.60141">
        <ele>214.5</ele>
        <time>2020-07-12T09:59:26Z</time>
      </trkpt>
      <trkpt lat="46.35099" lon="2.60144">
        <ele>214.3</ele>
        <time>2020-07-12T09:59:27Z</time>
      </trkpt>
      <trkpt lat="46.35094" lon="2.60147">
        <ele>214.2</ele>
        <time>2020-07-12T09:59:28Z</time>
      </trkpt>
      <trkpt lat="46.3509" lon="2.6015">
        <ele>214.2</ele>
        <time>2020-07-12T09:59:29Z</time>
      </trkpt>
      <trkpt lat="46.35086" lon="2.60153">
        <ele>214.2</ele>
        <time>2020-07-12T09:59:30Z</time>
      </trkpt>
      <trkpt lat="46.35081" lon="2.60156">
        <ele>214.3</ele>
        <time>2020-07-12T09:59:31Z</time>
      </trkpt>
      <trkpt lat="46.35077" lon="2.60159">
        <ele>214.3</ele>
        <time>2020-07-12T09:59:32Z</time>
      </trkpt>
      <trkpt lat="46.35073" lon="2.60162">
        <ele>213.9</ele>
        <time>2020-07-12T09:59:33Z</time>
      </trkpt>
      <trkpt lat="46.35068" lon="2.60165">
        <ele>213.6</ele>
        <time>2020-07-12T09:59:34Z</time>
      </trkpt>
      <trkpt lat="46.35064" lon="2.60169">
        <ele>213.4</ele>
        <time>2020-07-12T09:59:35Z</time>
      </trkpt>
      <trkpt lat="46.3506" lon="2.60172">
        <ele>214.1</ele>
        <time>2020-07-12T09:59:36Z</time>
      </trkpt>
      <trkpt lat="46.35055" lon="2.60175">
        <ele>214.6</ele>
        <time>2020-07-12T09:59:37Z</time>
      </trkpt>
      <trkpt lat="46.35051" lon="2.60179">
        <ele>214.8</ele>
        <time>2020-07-12T09:59:38Z</time>
      </trkpt>
      <trkpt lat="46.35047" lon="2.60182">
        <ele>214.9</ele>
        <time>2020-07-12T09:59:39Z</time>
      </trkpt>
      <trkpt lat="46.35042" lon="2.60186">
        <ele>214.9</ele>
        <time>2020-07-12T09:59:40Z</time>
      </trkpt>
      <trkpt lat="46.35037" lon="2.60189">
        <ele>215</ele>
        <time>2020-07-12T09:59:41Z</time>
      </trkpt>
      <trkpt lat="46.35033" lon="2.60192">
        <ele>215.1</ele>
        <time>2020-07-12T09:59:42Z</time>
      </trkpt>
      <trkpt lat="46.35028" lon="2.60194">
        <ele>215</ele>
        <time>2020-07-12T09:59:43Z</time>
      </trkpt>
      <trkpt lat="46.35024" lon="2.60197">
        <ele>214.9</ele>
        <time>2020-07-12T09:59:44Z</time>
      </trkpt>
      <trkpt lat="46.35019" lon="2.60199">
        <ele>215</ele>
        <time>2020-07-12T09:59:45Z</time>
      </trkpt>
      <trkpt lat="46.35015" lon="2.60201">
        <ele>215.1</ele>
        <time>2020-07-12T09:59:46Z</time>
      </trkpt>
      <trkpt lat="46.3501" lon="2.60204">
        <ele>215.2</ele>
        <time>2020-07-12T09:59:47Z</time>
      </trkpt>
      <trkpt lat="46.35006" lon="2.60206">
        <ele>215.4</ele>
        <time>2020-07-12T09:59:48Z</time>
      </trkpt>
      <trkpt lat="46.34998" lon="2.60211">
        <ele>215.5</ele>
        <time>2020-07-12T09:59:50Z</time>
      </trkpt>
      <trkpt lat="46.34994" lon="2.60214">
        <ele>215.4</ele>
        <time>2020-07-12T09:59:51Z</time>
      </trkpt>
      <trkpt lat="46.34989" lon="2.60217">
        <ele>215.5</ele>
        <time>2020-07-12T09:59:52Z</time>
      </trkpt>
      <trkpt lat="46.34985" lon="2.6022">
        <ele>215.5</ele>
        <time>2020-07-12T09:59:53Z</time>
      </trkpt>
      <trkpt lat="46.3498" lon="2.60223">
        <ele>215.6</ele>
        <time>2020-07-12T09:59:54Z</time>
      </trkpt>
      <trkpt lat="46.34975" lon="2.60226">
        <ele>215.6</ele>
        <time>2020-07-12T09:59:55Z</time>
      </trkpt>
      <trkpt lat="46.34971" lon="2.60229">
        <ele>215.7</ele>
        <time>2020-07-12T09:59:56Z</time>
      </trkpt>
      <trkpt lat="46.34967" lon="2.60233">
        <ele>215.7</ele>
        <time>2020-07-12T09:59:57Z</time>
      </trkpt>
      <trkpt lat="46.34963" lon="2.60236">
        <ele>215.7</ele>
        <time>2020-07-12T09:59:58Z</time>
      </trkpt>
      <trkpt lat="46.34958" lon="2.6024">
        <ele>215.7</ele>
        <time>2020-07-12T09:59:59Z</time>
      </trkpt>
      <trkpt lat="46.34953" lon="2.60244">
        <ele>215.7</ele>
        <time>2020-07-12T10:00:00Z</time>
      </trkpt>
      <trkpt lat="46.34948" lon="2.60248">
        <ele>215.6</ele>
        <time>2020-07-12T10:00:01Z</time>
      </trkpt>
      <trkpt lat="46.34944" lon="2.60251">
        <ele>216.1</ele>
        <time>2020-07-12T10:00:02Z</time>
      </trkpt>
      <trkpt lat="46.34939" lon="2.60255">
        <ele>216.4</ele>
        <time>2020-07-12T10:00:03Z</time>
      </trkpt>
      <trkpt lat="46.34935" lon="2.60259">
        <ele>216.2</ele>
        <time>2020-07-12T10:00:04Z</time>
      </trkpt>
      <trkpt lat="46.3493" lon="2.60263">
        <ele>216</ele>
        <time>2020-07-12T10:00:05Z</time>
      </trkpt>
      <trkpt lat="46.34926" lon="2.60267">
        <ele>215.9</ele>
        <time>2020-07-12T10:00:06Z</time>
      </trkpt>
      <trkpt lat="46.34922" lon="2.60271">
        <ele>215.8</ele>
        <time>2020-07-12T10:00:07Z</time>
      </trkpt>
      <trkpt lat="46.34917" lon="2.60276">
        <ele>215.8</ele>
        <time>2020-07-12T10:00:08Z</time>
      </trkpt>
      <trkpt lat="46.34914" lon="2.60282">
        <ele>215.7</ele>
        <time>2020-07-12T10:00:09Z</time>
      </trkpt>
      <trkpt lat="46.34912" lon="2.60289">
        <ele>215.7</ele>
        <time>2020-07-12T10:00:10Z</time>
      </trkpt>
      <trkpt lat="46.34909" lon="2.60296">
        <ele>216</ele>
        <time>2020-07-12T10:00:11Z</time>
      </trkpt>
      <trkpt lat="46.34907" lon="2.60303">
        <ele>216.2</ele>
        <time>2020-07-12T10:00:12Z</time>
      </trkpt>
      <trkpt lat="46.34904" lon="2.6031">
        <ele>216.3</ele>
        <time>2020-07-12T10:00:13Z</time>
      </trkpt>
      <trkpt lat="46.34901" lon="2.60316">
        <ele>215.8</ele>
        <time>2020-07-12T10:00:14Z</time>
      </trkpt>
      <trkpt lat="46.34899" lon="2.60323">
        <ele>215.3</ele>
        <time>2020-07-12T10:00:15Z</time>
      </trkpt>
      <trkpt lat="46.34896" lon="2.60329">
        <ele>215.4</ele>
        <time>2020-07-12T10:00:16Z</time>
      </trkpt>
      <trkpt lat="46.34893" lon="2.60336">
        <ele>215.4</ele>
        <time>2020-07-12T10:00:17Z</time>
      </trkpt>
      <trkpt lat="46.34891" lon="2.60343">
        <ele>215.4</ele>
        <time>2020-07-12T10:00:18Z</time>
      </trkpt>
      <trkpt lat="46.34888" lon="2.6035">
        <ele>215.8</ele>
        <time>2020-07-12T10:00:19Z</time>
      </trkpt>
      <trkpt lat="46.34885" lon="2.60356">
        <ele>216.2</ele>
        <time>2020-07-12T10:00:20Z</time>
      </trkpt>
      <trkpt lat="46.34881" lon="2.60362">
        <ele>216.3</ele>
        <time>2020-07-12T10:00:21Z</time>
      </trkpt>
      <trkpt lat="46.34875" lon="2.60371">
        <ele>216.6</ele>
        <time>2020-07-12T10:00:23Z</time>
      </trkpt>
      <trkpt lat="46.3487" lon="2.60381">
        <ele>216.8</ele>
        <time>2020-07-12T10:00:25Z</time>
      </trkpt>
      <trkpt lat="46.34865" lon="2.60391">
        <ele>216.1</ele>
        <time>2020-07-12T10:00:27Z</time>
      </trkpt>
      <trkpt lat="46.34859" lon="2.60398">
        <ele>215.5</ele>
        <time>2020-07-12T10:00:29Z</time>
      </trkpt>
      <trkpt lat="46.34854" lon="2.60398">
        <ele>215.5</ele>
        <time>2020-07-12T10:00:30Z</time>
      </trkpt>
      <trkpt lat="46.34849" lon="2.60398">
        <ele>215.4</ele>
        <time>2020-07-12T10:00:31Z</time>
      </trkpt>
      <trkpt lat="46.34845" lon="2.60396">
        <ele>215.4</ele>
        <time>2020-07-12T10:00:32Z</time>
      </trkpt>
      <trkpt lat="46.3484" lon="2.60395">
        <ele>215.4</ele>
        <time>2020-07-12T10:00:33Z</time>
      </trkpt>
      <trkpt lat="46.34835" lon="2.60394">
        <ele>215.4</ele>
        <time>2020-07-12T10:00:34Z</time>
      </trkpt>
      <trkpt lat="46.3483" lon="2.60393">
        <ele>215.2</ele>
        <time>2020-07-12T10:00:35Z</time>
      </trkpt>
      <trkpt lat="46.34825" lon="2.60391">
        <ele>215.1</ele>
        <time>2020-07-12T10:00:36Z</time>
      </trkpt>
      <trkpt lat="46.3482" lon="2.6039">
        <ele>215</ele>
        <time>2020-07-12T10:00:37Z</time>
      </trkpt>
      <trkpt lat="46.34815" lon="2.6039">
        <ele>214.7</ele>
        <time>2020-07-12T10:00:38Z</time>
      </trkpt>
      <trkpt lat="46.34809" lon="2.60389">
        <ele>214.5</ele>
        <time>2020-07-12T10:00:39Z</time>
      </trkpt>
      <trkpt lat="46.34804" lon="2.60389">
        <ele>214.4</ele>
        <time>2020-07-12T10:00:40Z</time>
      </trkpt>
      <trkpt lat="46.34799" lon="2.60389">
        <ele>214.4</ele>
        <time>2020-07-12T10:00:41Z</time>
      </trkpt>
      <trkpt lat="46.34794" lon="2.60388">
        <ele>214.5</ele>
        <time>2020-07-12T10:00:42Z</time>
      </trkpt>
      <trkpt lat="46.34788" lon="2.60387">
        <ele>214.7</ele>
        <time>2020-07-12T10:00:43Z</time>
      </trkpt>
      <trkpt lat="46.34783" lon="2.60386">
        <ele>214.7</ele>
        <time>2020-07-12T10:00:44Z</time>
      </trkpt>
      <trkpt lat="46.34778" lon="2.60385">
        <ele>214.9</ele>
        <time>2020-07-12T10:00:45Z</time>
      </trkpt>
      <trkpt lat="46.34773" lon="2.60385">
        <ele>215</ele>
        <time>2020-07-12T10:00:46Z</time>
      </trkpt>
      <trkpt lat="46.34768" lon="2.60384">
        <ele>215</ele>
        <time>2020-07-12T10:00:47Z</time>
      </trkpt>
      <trkpt lat="46.34762" lon="2.60383">
        <ele>214.9</ele>
        <time>2020-07-12T10:00:48Z</time>
      </trkpt>
      <trkpt lat="46.34757" lon="2.60382">
        <ele>214.7</ele>
        <time>2020-07-12T10:00:49Z</time>
      </trkpt>
      <trkpt lat="46.34752" lon="2.60381">
        <ele>214.6</ele>
        <time>2020-07-12T10:00:50Z</time>
      </trkpt>
      <trkpt lat="46.34746" lon="2.60379">
        <ele>214.5</ele>
        <time>2020-07-12T10:00:51Z</time>
      </trkpt>
      <trkpt lat="46.34741" lon="2.60378">
        <ele>215</ele>
        <time>2020-07-12T10:00:52Z</time>
      </trkpt>
      <trkpt lat="46.34736" lon="2.60377">
        <ele>215.3</ele>
        <time>2020-07-12T10:00:53Z</time>
      </trkpt>
      <trkpt lat="46.34731" lon="2.60376">
        <ele>215.4</ele>
        <time>2020-07-12T10:00:54Z</time>
      </trkpt>
      <trkpt lat="46.34725" lon="2.60376">
        <ele>215.5</ele>
        <time>2020-07-12T10:00:55Z</time>
      </trkpt>
      <trkpt lat="46.3472" lon="2.60376">
        <ele>215.6</ele>
        <time>2020-07-12T10:00:56Z</time>
      </trkpt>
      <trkpt lat="46.34715" lon="2.60375">
        <ele>215.4</ele>
        <time>2020-07-12T10:00:57Z</time>
      </trkpt>
      <trkpt lat="46.3471" lon="2.60375">
        <ele>215.3</ele>
        <time>2020-07-12T10:00:58Z</time>
      </trkpt>
      <trkpt lat="46.34705" lon="2.60376">
        <ele>215.4</ele>
        <time>2020-07-12T10:00:59Z</time>
      </trkpt>
      <trkpt lat="46.34699" lon="2.60377">
        <ele>215.5</ele>
        <time>2020-07-12T10:01:00Z</time>
      </trkpt>
      <trkpt lat="46.34694" lon="2.60379">
        <ele>215.4</ele>
        <time>2020-07-12T10:01:01Z</time>
      </trkpt>
      <trkpt lat="46.34688" lon="2.60381">
        <ele>215.3</ele>
        <time>2020-07-12T10:01:02Z</time>
      </trkpt>
      <trkpt lat="46.34683" lon="2.60383">
        <ele>215.2</ele>
        <time>2020-07-12T10:01:03Z</time>
      </trkpt>
      <trkpt lat="46.34677" lon="2.60385">
        <ele>215.7</ele>
        <time>2020-07-12T10:01:04Z</time>
      </trkpt>
      <trkpt lat="46.34672" lon="2.60387">
        <ele>216.1</ele>
        <time>2020-07-12T10:01:05Z</time>
      </trkpt>
      <trkpt lat="46.34666" lon="2.6039">
        <ele>216.2</ele>
        <time>2020-07-12T10:01:06Z</time>
      </trkpt>
      <trkpt lat="46.34661" lon="2.60393">
        <ele>216.2</ele>
        <time>2020-07-12T10:01:07Z</time>
      </trkpt>
      <trkpt lat="46.34656" lon="2.60396">
        <ele>216.2</ele>
        <time>2020-07-12T10:01:08Z</time>
      </trkpt>
      <trkpt lat="46.34652" lon="2.60398">
        <ele>216.2</ele>
        <time>2020-07-12T10:01:09Z</time>
      </trkpt>
      <trkpt lat="46.34647" lon="2.60402">
        <ele>216.1</ele>
        <time>2020-07-12T10:01:10Z</time>
      </trkpt>
      <trkpt lat="46.34642" lon="2.60405">
        <ele>215.9</ele>
        <time>2020-07-12T10:01:11Z</time>
      </trkpt>
      <trkpt lat="46.34638" lon="2.60407">
        <ele>215.7</ele>
        <time>2020-07-12T10:01:12Z</time>
      </trkpt>
      <trkpt lat="46.34633" lon="2.6041">
        <ele>216</ele>
        <time>2020-07-12T10:01:13Z</time>
      </trkpt>
      <trkpt lat="46.34628" lon="2.60413">
        <ele>216.2</ele>
        <time>2020-07-12T10:01:14Z</time>
      </trkpt>
      <trkpt lat="46.34623" lon="2.60414">
        <ele>216.3</ele>
        <time>2020-07-12T10:01:15Z</time>
      </trkpt>
      <trkpt lat="46.34617" lon="2.60415">
        <ele>216.1</ele>
        <time>2020-07-12T10:01:16Z</time>
      </trkpt>
      <trkpt lat="46.34612" lon="2.60415">
        <ele>215.9</ele>
        <time>2020-07-12T10:01:17Z</time>
      </trkpt>
      <trkpt lat="46.34606" lon="2.60413">
        <ele>215.5</ele>
        <time>2020-07-12T10:01:18Z</time>
      </trkpt>
      <trkpt lat="46.34601" lon="2.6041">
        <ele>215.2</ele>
        <time>2020-07-12T10:01:19Z</time>
      </trkpt>
      <trkpt lat="46.34596" lon="2.60407">
        <ele>215.4</ele>
        <time>2020-07-12T10:01:20Z</time>
      </trkpt>
      <trkpt lat="46.34591" lon="2.60402">
        <ele>215.6</ele>
        <time>2020-07-12T10:01:21Z</time>
      </trkpt>
      <trkpt lat="46.34586" lon="2.60397">
        <ele>215.8</ele>
        <time>2020-07-12T10:01:22Z</time>
      </trkpt>
      <trkpt lat="46.34582" lon="2.60392">
        <ele>215.8</ele>
        <time>2020-07-12T10:01:23Z</time>
      </trkpt>
      <trkpt lat="46.34577" lon="2.60386">
        <ele>215.8</ele>
        <time>2020-07-12T10:01:24Z</time>
      </trkpt>
      <trkpt lat="46.34573" lon="2.60381">
        <ele>215.6</ele>
        <time>2020-07-12T10:01:25Z</time>
      </trkpt>
      <trkpt lat="46.3457" lon="2.60375">
        <ele>215.5</ele>
        <time>2020-07-12T10:01:26Z</time>
      </trkpt>
      <trkpt lat="46.34566" lon="2.6037">
        <ele>215.3</ele>
        <time>2020-07-12T10:01:27Z</time>
      </trkpt>
      <trkpt lat="46.34562" lon="2.60364">
        <ele>215.1</ele>
        <time>2020-07-12T10:01:28Z</time>
      </trkpt>
      <trkpt lat="46.34558" lon="2.60359">
        <ele>215</ele>
        <time>2020-07-12T10:01:29Z</time>
      </trkpt>
      <trkpt lat="46.34555" lon="2.60354">
        <ele>214.8</ele>
        <time>2020-07-12T10:01:30Z</time>
      </trkpt>
      <trkpt lat="46.34551" lon="2.60348">
        <ele>214.7</ele>
        <time>2020-07-12T10:01:31Z</time>
      </trkpt>
      <trkpt lat="46.34548" lon="2.60343">
        <ele>214.6</ele>
        <time>2020-07-12T10:01:32Z</time>
      </trkpt>
      <trkpt lat="46.34544" lon="2.60337">
        <ele>214.5</ele>
        <time>2020-07-12T10:01:33Z</time>
      </trkpt>
      <trkpt lat="46.34541" lon="2.60332">
        <ele>214.8</ele>
        <time>2020-07-12T10:01:34Z</time>
      </trkpt>
      <trkpt lat="46.34537" lon="2.60326">
        <ele>215</ele>
        <time>2020-07-12T10:01:35Z</time>
      </trkpt>
      <trkpt lat="46.34534" lon="2.60319">
        <ele>215.1</ele>
        <time>2020-07-12T10:01:36Z</time>
      </trkpt>
      <trkpt lat="46.34531" lon="2.60313">
        <ele>215.2</ele>
        <time>2020-07-12T10:01:37Z</time>
      </trkpt>
      <trkpt lat="46.34528" lon="2.60306">
        <ele>215.2</ele>
        <time>2020-07-12T10:01:38Z</time>
      </trkpt>
      <trkpt lat="46.34525" lon="2.60299">
        <ele>215.2</ele>
        <time>2020-07-12T10:01:39Z</time>
      </trkpt>
      <trkpt lat="46.34522" lon="2.60292">
        <ele>215.1</ele>
        <time>2020-07-12T10:01:40Z</time>
      </trkpt>
      <trkpt lat="46.3452" lon="2.60285">
        <ele>215.1</ele>
        <time>2020-07-12T10:01:41Z</time>
      </trkpt>
      <trkpt lat="46.34517" lon="2.60278">
        <ele>215.2</ele>
        <time>2020-07-12T10:01:42Z</time>
      </trkpt>
      <trkpt lat="46.34514" lon="2.60271">
        <ele>215.3</ele>
        <time>2020-07-12T10:01:43Z</time>
      </trkpt>
      <trkpt lat="46.34511" lon="2.60264">
        <ele>215.1</ele>
        <time>2020-07-12T10:01:44Z</time>
      </trkpt>
      <trkpt lat="46.34508" lon="2.60257">
        <ele>215</ele>
        <time>2020-07-12T10:01:45Z</time>
      </trkpt>
      <trkpt lat="46.34505" lon="2.60249">
        <ele>215.4</ele>
        <time>2020-07-12T10:01:46Z</time>
      </trkpt>
      <trkpt lat="46.34502" lon="2.60242">
        <ele>215.7</ele>
        <time>2020-07-12T10:01:47Z</time>
      </trkpt>
      <trkpt lat="46.345" lon="2.60235">
        <ele>215.9</ele>
        <time>2020-07-12T10:01:48Z</time>
      </trkpt>
      <trkpt lat="46.34498" lon="2.60227">
        <ele>215.7</ele>
        <time>2020-07-12T10:01:49Z</time>
      </trkpt>
      <trkpt lat="46.34497" lon="2.6022">
        <ele>215.5</ele>
        <time>2020-07-12T10:01:50Z</time>
      </trkpt>
      <trkpt lat="46.34496" lon="2.60212">
        <ele>215.5</ele>
        <time>2020-07-12T10:01:51Z</time>
      </trkpt>
      <trkpt lat="46.34496" lon="2.60204">
        <ele>215.5</ele>
        <time>2020-07-12T10:01:52Z</time>
      </trkpt>
      <trkpt lat="46.34495" lon="2.60197">
        <ele>215.3</ele>
        <time>2020-07-12T10:01:53Z</time>
      </trkpt>
      <trkpt lat="46.34493" lon="2.60184">
        <ele>215</ele>
        <time>2020-07-12T10:01:55Z</time>
      </trkpt>
      <trkpt lat="46.34491" lon="2.60173">
        <ele>215.8</ele>
        <time>2020-07-12T10:01:57Z</time>
      </trkpt>
      <trkpt lat="46.34485" lon="2.60166">
        <ele>217</ele>
        <time>2020-07-12T10:01:59Z</time>
      </trkpt>
      <trkpt lat="46.34477" lon="2.60166">
        <ele>217.6</ele>
        <time>2020-07-12T10:02:01Z</time>
      </trkpt>
      <trkpt lat="46.3447" lon="2.60172">
        <ele>218.3</ele>
        <time>2020-07-12T10:02:03Z</time>
      </trkpt>
      <trkpt lat="46.34463" lon="2.6018">
        <ele>218.6</ele>
        <time>2020-07-12T10:02:05Z</time>
      </trkpt>
      <trkpt lat="46.34456" lon="2.60188">
        <ele>218.5</ele>
        <time>2020-07-12T10:02:07Z</time>
      </trkpt>
      <trkpt lat="46.34452" lon="2.60191">
        <ele>218.9</ele>
        <time>2020-07-12T10:02:08Z</time>
      </trkpt>
      <trkpt lat="46.34449" lon="2.60195">
        <ele>219.2</ele>
        <time>2020-07-12T10:02:09Z</time>
      </trkpt>
      <trkpt lat="46.34445" lon="2.60199">
        <ele>219.2</ele>
        <time>2020-07-12T10:02:10Z</time>
      </trkpt>
      <trkpt lat="46.34441" lon="2.60204">
        <ele>219.3</ele>
        <time>2020-07-12T10:02:11Z</time>
      </trkpt>
      <trkpt lat="46.34437" lon="2.60208">
        <ele>219.2</ele>
        <time>2020-07-12T10:02:12Z</time>
      </trkpt>
      <trkpt lat="46.34433" lon="2.60212">
        <ele>219.2</ele>
        <time>2020-07-12T10:02:13Z</time>
      </trkpt>
      <trkpt lat="46.34429" lon="2.60216">
        <ele>219.1</ele>
        <time>2020-07-12T10:02:14Z</time>
      </trkpt>
      <trkpt lat="46.34425" lon="2.60221">
        <ele>219.4</ele>
        <time>2020-07-12T10:02:15Z</time>
      </trkpt>
      <trkpt lat="46.34421" lon="2.60225">
        <ele>219.6</ele>
        <time>2020-07-12T10:02:16Z</time>
      </trkpt>
      <trkpt lat="46.34418" lon="2.60229">
        <ele>219.5</ele>
        <time>2020-07-12T10:02:17Z</time>
      </trkpt>
      <trkpt lat="46.34411" lon="2.60237">
        <ele>219.4</ele>
        <time>2020-07-12T10:02:19Z</time>
      </trkpt>
      <trkpt lat="46.34404" lon="2.60245">
        <ele>218.8</ele>
        <time>2020-07-12T10:02:21Z</time>
      </trkpt>
      <trkpt lat="46.34397" lon="2.60253">
        <ele>218.5</ele>
        <time>2020-07-12T10:02:23Z</time>
      </trkpt>
      <trkpt lat="46.34392" lon="2.60262">
        <ele>218.1</ele>
        <time>2020-07-12T10:02:25Z</time>
      </trkpt>
      <trkpt lat="46.34388" lon="2.60272">
        <ele>218</ele>
        <time>2020-07-12T10:02:27Z</time>
      </trkpt>
      <trkpt lat="46.34388" lon="2.60284">
        <ele>218.1</ele>
        <time>2020-07-12T10:02:29Z</time>
      </trkpt>
      <trkpt lat="46.34389" lon="2.60295">
        <ele>218.4</ele>
        <time>2020-07-12T10:02:31Z</time>
      </trkpt>
      <trkpt lat="46.3439" lon="2.60306">
        <ele>218.9</ele>
        <time>2020-07-12T10:02:33Z</time>
      </trkpt>
      <trkpt lat="46.34394" lon="2.60316">
        <ele>218.5</ele>
        <time>2020-07-12T10:02:35Z</time>
      </trkpt>
      <trkpt lat="46.34401" lon="2.60321">
        <ele>218.4</ele>
        <time>2020-07-12T10:02:37Z</time>
      </trkpt>
      <trkpt lat="46.3441" lon="2.6032">
        <ele>217.9</ele>
        <time>2020-07-12T10:02:39Z</time>
      </trkpt>
      <trkpt lat="46.34419" lon="2.60322">
        <ele>217.4</ele>
        <time>2020-07-12T10:02:41Z</time>
      </trkpt>
      <trkpt lat="46.34425" lon="2.60329">
        <ele>217.1</ele>
        <time>2020-07-12T10:02:43Z</time>
      </trkpt>
      <trkpt lat="46.34429" lon="2.6034">
        <ele>216.9</ele>
        <time>2020-07-12T10:02:45Z</time>
      </trkpt>
      <trkpt lat="46.34434" lon="2.60349">
        <ele>216.2</ele>
        <time>2020-07-12T10:02:47Z</time>
      </trkpt>
      <trkpt lat="46.34439" lon="2.60359">
        <ele>216.2</ele>
        <time>2020-07-12T10:02:49Z</time>
      </trkpt>
      <trkpt lat="46.34444" lon="2.60368">
        <ele>216.1</ele>
        <time>2020-07-12T10:02:51Z</time>
      </trkpt>
      <trkpt lat="46.3445" lon="2.60377">
        <ele>216.2</ele>
        <time>2020-07-12T10:02:53Z</time>
      </trkpt>
      <trkpt lat="46.34455" lon="2.60387">
        <ele>216.5</ele>
        <time>2020-07-12T10:02:55Z</time>
      </trkpt>
      <trkpt lat="46.34461" lon="2.60396">
        <ele>216.7</ele>
        <time>2020-07-12T10:02:57Z</time>
      </trkpt>
      <trkpt lat="46.34467" lon="2.60405">
        <ele>216.2</ele>
        <time>2020-07-12T10:02:59Z</time>
      </trkpt>
      <trkpt lat="46.34471" lon="2.60415">
        <ele>216.1</ele>
        <time>2020-07-12T10:03:01Z</time>
      </trkpt>
      <trkpt lat="46.34468" lon="2.60426">
        <ele>216.1</ele>
        <time>2020-07-12T10:03:03Z</time>
      </trkpt>
      <trkpt lat="46.34462" lon="2.60434">
        <ele>216.1</ele>
        <time>2020-07-12T10:03:05Z</time>
      </trkpt>
      <trkpt lat="46.34456" lon="2.60443">
        <ele>215.8</ele>
        <time>2020-07-12T10:03:07Z</time>
      </trkpt>
      <trkpt lat="46.34452" lon="2.60451">
        <ele>215.6</ele>
        <time>2020-07-12T10:03:09Z</time>
      </trkpt>
      <trkpt lat="46.34451" lon="2.60462">
        <ele>216</ele>
        <time>2020-07-12T10:03:12Z</time>
      </trkpt>
      <trkpt lat="46.34455" lon="2.60471">
        <ele>216.2</ele>
        <time>2020-07-12T10:03:14Z</time>
      </trkpt>
      <trkpt lat="46.34457" lon="2.60475">
        <ele>216.2</ele>
        <time>2020-07-12T10:03:15Z</time>
      </trkpt>
      <trkpt lat="46.34464" lon="2.6049">
        <ele>216.6</ele>
        <time>2020-07-12T10:03:18Z</time>
      </trkpt>
      <trkpt lat="46.34468" lon="2.60499">
        <ele>217.2</ele>
        <time>2020-07-12T10:03:20Z</time>
      </trkpt>
      <trkpt lat="46.34473" lon="2.60508">
        <ele>217.3</ele>
        <time>2020-07-12T10:03:22Z</time>
      </trkpt>
      <trkpt lat="46.34478" lon="2.60518">
        <ele>217.5</ele>
        <time>2020-07-12T10:03:24Z</time>
      </trkpt>
      <trkpt lat="46.34482" lon="2.60527">
        <ele>217.3</ele>
        <time>2020-07-12T10:03:26Z</time>
      </trkpt>
      <trkpt lat="46.34487" lon="2.60537">
        <ele>217.4</ele>
        <time>2020-07-12T10:03:28Z</time>
      </trkpt>
      <trkpt lat="46.34491" lon="2.60546">
        <ele>217.8</ele>
        <time>2020-07-12T10:03:30Z</time>
      </trkpt>
      <trkpt lat="46.34496" lon="2.60556">
        <ele>217.8</ele>
        <time>2020-07-12T10:03:32Z</time>
      </trkpt>
      <trkpt lat="46.34501" lon="2.60566">
        <ele>218.4</ele>
        <time>2020-07-12T10:03:34Z</time>
      </trkpt>
      <trkpt lat="46.34505" lon="2.60576">
        <ele>218.1</ele>
        <time>2020-07-12T10:03:37Z</time>
      </trkpt>
      <trkpt lat="46.34507" lon="2.60588">
        <ele>217.7</ele>
        <time>2020-07-12T10:03:43Z</time>
      </trkpt>
      <trkpt lat="46.3451" lon="2.606">
        <ele>220.3</ele>
        <time>2020-07-12T10:03:51Z</time>
      </trkpt>
      <trkpt lat="46.34513" lon="2.60611">
        <ele>221.9</ele>
        <time>2020-07-12T10:03:59Z</time>
      </trkpt>
      <trkpt lat="46.34519" lon="2.60621">
        <ele>223.3</ele>
        <time>2020-07-12T10:04:08Z</time>
      </trkpt>
      <trkpt lat="46.34524" lon="2.60628">
        <ele>223.3</ele>
        <time>2020-07-12T10:04:11Z</time>
      </trkpt>
      <trkpt lat="46.34529" lon="2.60637">
        <ele>223.1</ele>
        <time>2020-07-12T10:04:14Z</time>
      </trkpt>
      <trkpt lat="46.34532" lon="2.60644">
        <ele>223.7</ele>
        <time>2020-07-12T10:04:16Z</time>
      </trkpt>
      <trkpt lat="46.34535" lon="2.60647">
        <ele>224</ele>
        <time>2020-07-12T10:04:17Z</time>
      </trkpt>
      <trkpt lat="46.34541" lon="2.60657">
        <ele>224.9</ele>
        <time>2020-07-12T10:04:20Z</time>
      </trkpt>
      <trkpt lat="46.34545" lon="2.60664">
        <ele>224.5</ele>
        <time>2020-07-12T10:04:22Z</time>
      </trkpt>
      <trkpt lat="46.3455" lon="2.60671">
        <ele>224.6</ele>
        <time>2020-07-12T10:04:24Z</time>
      </trkpt>
      <trkpt lat="46.34555" lon="2.6068">
        <ele>224.4</ele>
        <time>2020-07-12T10:04:26Z</time>
      </trkpt>
      <trkpt lat="46.3456" lon="2.60688">
        <ele>224.1</ele>
        <time>2020-07-12T10:04:28Z</time>
      </trkpt>
      <trkpt lat="46.34565" lon="2.60696">
        <ele>224.3</ele>
        <time>2020-07-12T10:04:30Z</time>
      </trkpt>
      <trkpt lat="46.34569" lon="2.60703">
        <ele>224.8</ele>
        <time>2020-07-12T10:04:32Z</time>
      </trkpt>
      <trkpt lat="46.34574" lon="2.60711">
        <ele>224.9</ele>
        <time>2020-07-12T10:04:35Z</time>
      </trkpt>
      <trkpt lat="46.34577" lon="2.60722">
        <ele>225.1</ele>
        <time>2020-07-12T10:04:40Z</time>
      </trkpt>
      <trkpt lat="46.3458" lon="2.60733">
        <ele>227</ele>
        <time>2020-07-12T10:04:47Z</time>
      </trkpt>
      <trkpt lat="46.34584" lon="2.60744">
        <ele>227.6</ele>
        <time>2020-07-12T10:04:55Z</time>
      </trkpt>
      <trkpt lat="46.34588" lon="2.60753">
        <ele>230.6</ele>
        <time>2020-07-12T10:05:05Z</time>
      </trkpt>
      <trkpt lat="46.34595" lon="2.60761">
        <ele>230.2</ele>
        <time>2020-07-12T10:05:09Z</time>
      </trkpt>
      <trkpt lat="46.34599" lon="2.60768">
        <ele>230.7</ele>
        <time>2020-07-12T10:05:11Z</time>
      </trkpt>
      <trkpt lat="46.34602" lon="2.60775">
        <ele>231</ele>
        <time>2020-07-12T10:05:13Z</time>
      </trkpt>
      <trkpt lat="46.34606" lon="2.60782">
        <ele>231.2</ele>
        <time>2020-07-12T10:05:15Z</time>
      </trkpt>
      <trkpt lat="46.34611" lon="2.60789">
        <ele>231.2</ele>
        <time>2020-07-12T10:05:17Z</time>
      </trkpt>
      <trkpt lat="46.34612" lon="2.60792">
        <ele>231.6</ele>
        <time>2020-07-12T10:05:18Z</time>
      </trkpt>
      <trkpt lat="46.34618" lon="2.60803">
        <ele>232.3</ele>
        <time>2020-07-12T10:05:21Z</time>
      </trkpt>
      <trkpt lat="46.34621" lon="2.60811">
        <ele>232.3</ele>
        <time>2020-07-12T10:05:23Z</time>
      </trkpt>
      <trkpt lat="46.34624" lon="2.60819">
        <ele>232.4</ele>
        <time>2020-07-12T10:05:25Z</time>
      </trkpt>
      <trkpt lat="46.34627" lon="2.60826">
        <ele>232.9</ele>
        <time>2020-07-12T10:05:27Z</time>
      </trkpt>
      <trkpt lat="46.34632" lon="2.60837">
        <ele>233.8</ele>
        <time>2020-07-12T10:05:30Z</time>
      </trkpt>
      <trkpt lat="46.34635" lon="2.60849">
        <ele>234.9</ele>
        <time>2020-07-12T10:05:33Z</time>
      </trkpt>
      <trkpt lat="46.34636" lon="2.60858">
        <ele>235.4</ele>
        <time>2020-07-12T10:05:35Z</time>
      </trkpt>
      <trkpt lat="46.34638" lon="2.60868">
        <ele>235.4</ele>
        <time>2020-07-12T10:05:37Z</time>
      </trkpt>
      <trkpt lat="46.34641" lon="2.60876">
        <ele>235.5</ele>
        <time>2020-07-12T10:05:39Z</time>
      </trkpt>
      <trkpt lat="46.34645" lon="2.60883">
        <ele>235.7</ele>
        <time>2020-07-12T10:05:41Z</time>
      </trkpt>
      <trkpt lat="46.34649" lon="2.6089">
        <ele>235.9</ele>
        <time>2020-07-12T10:05:43Z</time>
      </trkpt>
      <trkpt lat="46.34653" lon="2.60897">
        <ele>235.9</ele>
        <time>2020-07-12T10:05:45Z</time>
      </trkpt>
      <trkpt lat="46.34656" lon="2.60905">
        <ele>236.3</ele>
        <time>2020-07-12T10:05:47Z</time>
      </trkpt>
      <trkpt lat="46.34659" lon="2.60913">
        <ele>236.4</ele>
        <time>2020-07-12T10:05:49Z</time>
      </trkpt>
      <trkpt lat="46.34663" lon="2.60922">
        <ele>236.6</ele>
        <time>2020-07-12T10:05:52Z</time>
      </trkpt>
      <trkpt lat="46.34669" lon="2.60927">
        <ele>238</ele>
        <time>2020-07-12T10:05:55Z</time>
      </trkpt>
      <trkpt lat="46.34676" lon="2.60934">
        <ele>238.3</ele>
        <time>2020-07-12T10:05:58Z</time>
      </trkpt>
      <trkpt lat="46.34682" lon="2.60939">
        <ele>238.4</ele>
        <time>2020-07-12T10:06:00Z</time>
      </trkpt>
      <trkpt lat="46.34687" lon="2.60944">
        <ele>238.3</ele>
        <time>2020-07-12T10:06:02Z</time>
      </trkpt>
      <trkpt lat="46.34693" lon="2.60948">
        <ele>239.2</ele>
        <time>2020-07-12T10:06:04Z</time>
      </trkpt>
      <trkpt lat="46.34698" lon="2.60953">
        <ele>239</ele>
        <time>2020-07-12T10:06:06Z</time>
      </trkpt>
      <trkpt lat="46.34702" lon="2.60961">
        <ele>239.8</ele>
        <time>2020-07-12T10:06:08Z</time>
      </trkpt>
      <trkpt lat="46.34705" lon="2.60968">
        <ele>240.1</ele>
        <time>2020-07-12T10:06:10Z</time>
      </trkpt>
      <trkpt lat="46.34711" lon="2.60973">
        <ele>240.1</ele>
        <time>2020-07-12T10:06:12Z</time>
      </trkpt>
      <trkpt lat="46.34717" lon="2.60977">
        <ele>240.1</ele>
        <time>2020-07-12T10:06:14Z</time>
      </trkpt>
      <trkpt lat="46.34723" lon="2.60982">
        <ele>240.7</ele>
        <time>2020-07-12T10:06:16Z</time>
      </trkpt>
      <trkpt lat="46.34729" lon="2.60986">
        <ele>240.4</ele>
        <time>2020-07-12T10:06:18Z</time>
      </trkpt>
      <trkpt lat="46.34732" lon="2.60989">
        <ele>240.6</ele>
        <time>2020-07-12T10:06:19Z</time>
      </trkpt>
      <trkpt lat="46.34741" lon="2.60996">
        <ele>240.3</ele>
        <time>2020-07-12T10:06:22Z</time>
      </trkpt>
      <trkpt lat="46.34747" lon="2.61002">
        <ele>239.6</ele>
        <time>2020-07-12T10:06:24Z</time>
      </trkpt>
      <trkpt lat="46.34754" lon="2.61006">
        <ele>239.3</ele>
        <time>2020-07-12T10:06:26Z</time>
      </trkpt>
      <trkpt lat="46.3476" lon="2.61011">
        <ele>239.2</ele>
        <time>2020-07-12T10:06:28Z</time>
      </trkpt>
      <trkpt lat="46.34767" lon="2.61016">
        <ele>239.3</ele>
        <time>2020-07-12T10:06:30Z</time>
      </trkpt>
      <trkpt lat="46.34774" lon="2.6102">
        <ele>240.4</ele>
        <time>2020-07-12T10:06:32Z</time>
      </trkpt>
      <trkpt lat="46.3478" lon="2.61025">
        <ele>240.4</ele>
        <time>2020-07-12T10:06:34Z</time>
      </trkpt>
      <trkpt lat="46.34787" lon="2.6103">
        <ele>240.3</ele>
        <time>2020-07-12T10:06:36Z</time>
      </trkpt>
      <trkpt lat="46.34794" lon="2.61035">
        <ele>240.3</ele>
        <time>2020-07-12T10:06:38Z</time>
      </trkpt>
      <trkpt lat="46.348" lon="2.61039">
        <ele>240.1</ele>
        <time>2020-07-12T10:06:40Z</time>
      </trkpt>
      <trkpt lat="46.34808" lon="2.61044">
        <ele>240.2</ele>
        <time>2020-07-12T10:06:42Z</time>
      </trkpt>
      <trkpt lat="46.34815" lon="2.61049">
        <ele>240.2</ele>
        <time>2020-07-12T10:06:44Z</time>
      </trkpt>
      <trkpt lat="46.34822" lon="2.61054">
        <ele>240.4</ele>
        <time>2020-07-12T10:06:46Z</time>
      </trkpt>
      <trkpt lat="46.34829" lon="2.61059">
        <ele>240.8</ele>
        <time>2020-07-12T10:06:48Z</time>
      </trkpt>
      <trkpt lat="46.34837" lon="2.61064">
        <ele>240.9</ele>
        <time>2020-07-12T10:06:50Z</time>
      </trkpt>
      <trkpt lat="46.34845" lon="2.61069">
        <ele>240.6</ele>
        <time>2020-07-12T10:06:52Z</time>
      </trkpt>
      <trkpt lat="46.34849" lon="2.61072">
        <ele>240.5</ele>
        <time>2020-07-12T10:06:53Z</time>
      </trkpt>
      <trkpt lat="46.34853" lon="2.61075">
        <ele>240.4</ele>
        <time>2020-07-12T10:06:54Z</time>
      </trkpt>
      <trkpt lat="46.34861" lon="2.6108">
        <ele>240.4</ele>
        <time>2020-07-12T10:06:56Z</time>
      </trkpt>
      <trkpt lat="46.34869" lon="2.61086">
        <ele>239.7</ele>
        <time>2020-07-12T10:06:58Z</time>
      </trkpt>
      <trkpt lat="46.34873" lon="2.61089">
        <ele>239.5</ele>
        <time>2020-07-12T10:06:59Z</time>
      </trkpt>
      <trkpt lat="46.34877" lon="2.61091">
        <ele>239.6</ele>
        <time>2020-07-12T10:07:00Z</time>
      </trkpt>
      <trkpt lat="46.34882" lon="2.61094">
        <ele>239.7</ele>
        <time>2020-07-12T10:07:01Z</time>
      </trkpt>
      <trkpt lat="46.34886" lon="2.61097">
        <ele>239.7</ele>
        <time>2020-07-12T10:07:02Z</time>
      </trkpt>
      <trkpt lat="46.34891" lon="2.611">
        <ele>239.6</ele>
        <time>2020-07-12T10:07:03Z</time>
      </trkpt>
      <trkpt lat="46.34896" lon="2.61103">
        <ele>239.4</ele>
        <time>2020-07-12T10:07:04Z</time>
      </trkpt>
      <trkpt lat="46.34901" lon="2.61106">
        <ele>239.1</ele>
        <time>2020-07-12T10:07:05Z</time>
      </trkpt>
      <trkpt lat="46.34906" lon="2.6111">
        <ele>239</ele>
        <time>2020-07-12T10:07:06Z</time>
      </trkpt>
      <trkpt lat="46.34911" lon="2.61113">
        <ele>239.1</ele>
        <time>2020-07-12T10:07:07Z</time>
      </trkpt>
      <trkpt lat="46.34916" lon="2.61116">
        <ele>239.3</ele>
        <time>2020-07-12T10:07:08Z</time>
      </trkpt>
      <trkpt lat="46.34922" lon="2.6112">
        <ele>239.3</ele>
        <time>2020-07-12T10:07:09Z</time>
      </trkpt>
      <trkpt lat="46.34927" lon="2.61123">
        <ele>239.3</ele>
        <time>2020-07-12T10:07:10Z</time>
      </trkpt>
      <trkpt lat="46.34932" lon="2.61126">
        <ele>239.3</ele>
        <time>2020-07-12T10:07:11Z</time>
      </trkpt>
      <trkpt lat="46.34938" lon="2.61129">
        <ele>239.4</ele>
        <time>2020-07-12T10:07:12Z</time>
      </trkpt>
      <trkpt lat="46.34943" lon="2.61132">
        <ele>239.5</ele>
        <time>2020-07-12T10:07:13Z</time>
      </trkpt>
      <trkpt lat="46.34949" lon="2.61135">
        <ele>239</ele>
        <time>2020-07-12T10:07:14Z</time>
      </trkpt>
      <trkpt lat="46.34954" lon="2.61138">
        <ele>238.6</ele>
        <time>2020-07-12T10:07:15Z</time>
      </trkpt>
      <trkpt lat="46.34959" lon="2.61142">
        <ele>237.9</ele>
        <time>2020-07-12T10:07:16Z</time>
      </trkpt>
      <trkpt lat="46.34965" lon="2.61145">
        <ele>237.4</ele>
        <time>2020-07-12T10:07:17Z</time>
      </trkpt>
      <trkpt lat="46.3497" lon="2.61148">
        <ele>237</ele>
        <time>2020-07-12T10:07:18Z</time>
      </trkpt>
      <trkpt lat="46.34975" lon="2.61152">
        <ele>237.3</ele>
        <time>2020-07-12T10:07:19Z</time>
      </trkpt>
      <trkpt lat="46.3498" lon="2.61155">
        <ele>237.4</ele>
        <time>2020-07-12T10:07:20Z</time>
      </trkpt>
      <trkpt lat="46.34985" lon="2.61159">
        <ele>237.4</ele>
        <time>2020-07-12T10:07:21Z</time>
      </trkpt>
      <trkpt lat="46.3499" lon="2.61162">
        <ele>237.4</ele>
        <time>2020-07-12T10:07:22Z</time>
      </trkpt>
      <trkpt lat="46.34995" lon="2.61166">
        <ele>237.1</ele>
        <time>2020-07-12T10:07:23Z</time>
      </trkpt>
      <trkpt lat="46.35" lon="2.61169">
        <ele>236.9</ele>
        <time>2020-07-12T10:07:24Z</time>
      </trkpt>
      <trkpt lat="46.35005" lon="2.61173">
        <ele>236.7</ele>
        <time>2020-07-12T10:07:25Z</time>
      </trkpt>
      <trkpt lat="46.35011" lon="2.61177">
        <ele>236.1</ele>
        <time>2020-07-12T10:07:26Z</time>
      </trkpt>
      <trkpt lat="46.35016" lon="2.6118">
        <ele>235.6</ele>
        <time>2020-07-12T10:07:27Z</time>
      </trkpt>
      <trkpt lat="46.35021" lon="2.61184">
        <ele>234.9</ele>
        <time>2020-07-12T10:07:28Z</time>
      </trkpt>
      <trkpt lat="46.35027" lon="2.61188">
        <ele>234.4</ele>
        <time>2020-07-12T10:07:29Z</time>
      </trkpt>
      <trkpt lat="46.35033" lon="2.61191">
        <ele>234</ele>
        <time>2020-07-12T10:07:30Z</time>
      </trkpt>
      <trkpt lat="46.35038" lon="2.61195">
        <ele>233.8</ele>
        <time>2020-07-12T10:07:31Z</time>
      </trkpt>
      <trkpt lat="46.35044" lon="2.61198">
        <ele>233.5</ele>
        <time>2020-07-12T10:07:32Z</time>
      </trkpt>
      <trkpt lat="46.35049" lon="2.61202">
        <ele>233.9</ele>
        <time>2020-07-12T10:07:33Z</time>
      </trkpt>
      <trkpt lat="46.35054" lon="2.61205">
        <ele>234.1</ele>
        <time>2020-07-12T10:07:34Z</time>
      </trkpt>
      <trkpt lat="46.35059" lon="2.61208">
        <ele>233.7</ele>
        <time>2020-07-12T10:07:35Z</time>
      </trkpt>
      <trkpt lat="46.35064" lon="2.61212">
        <ele>233.4</ele>
        <time>2020-07-12T10:07:36Z</time>
      </trkpt>
      <trkpt lat="46.35069" lon="2.61215">
        <ele>233.2</ele>
        <time>2020-07-12T10:07:37Z</time>
      </trkpt>
      <trkpt lat="46.35073" lon="2.61218">
        <ele>232.4</ele>
        <time>2020-07-12T10:07:38Z</time>
      </trkpt>
      <trkpt lat="46.35078" lon="2.61221">
        <ele>231.9</ele>
        <time>2020-07-12T10:07:39Z</time>
      </trkpt>
      <trkpt lat="46.35082" lon="2.61223">
        <ele>232.3</ele>
        <time>2020-07-12T10:07:40Z</time>
      </trkpt>
      <trkpt lat="46.35087" lon="2.61226">
        <ele>232.7</ele>
        <time>2020-07-12T10:07:41Z</time>
      </trkpt>
      <trkpt lat="46.35095" lon="2.61231">
        <ele>232.9</ele>
        <time>2020-07-12T10:07:43Z</time>
      </trkpt>
      <trkpt lat="46.35103" lon="2.61236">
        <ele>232.8</ele>
        <time>2020-07-12T10:07:45Z</time>
      </trkpt>
      <trkpt lat="46.3511" lon="2.61241">
        <ele>232.5</ele>
        <time>2020-07-12T10:07:47Z</time>
      </trkpt>
      <trkpt lat="46.35117" lon="2.61246">
        <ele>232.5</ele>
        <time>2020-07-12T10:07:49Z</time>
      </trkpt>
      <trkpt lat="46.35124" lon="2.61251">
        <ele>232.7</ele>
        <time>2020-07-12T10:07:51Z</time>
      </trkpt>
      <trkpt lat="46.35132" lon="2.61256">
        <ele>232.5</ele>
        <time>2020-07-12T10:07:53Z</time>
      </trkpt>
      <trkpt lat="46.35139" lon="2.61261">
        <ele>233.1</ele>
        <time>2020-07-12T10:07:55Z</time>
      </trkpt>
      <trkpt lat="46.35146" lon="2.61265">
        <ele>233.6</ele>
        <time>2020-07-12T10:07:57Z</time>
      </trkpt>
      <trkpt lat="46.35154" lon="2.6127">
        <ele>234.1</ele>
        <time>2020-07-12T10:07:59Z</time>
      </trkpt>
      <trkpt lat="46.35161" lon="2.61275">
        <ele>234.4</ele>
        <time>2020-07-12T10:08:01Z</time>
      </trkpt>
      <trkpt lat="46.35167" lon="2.61279">
        <ele>234.6</ele>
        <time>2020-07-12T10:08:03Z</time>
      </trkpt>
      <trkpt lat="46.35174" lon="2.61284">
        <ele>234.6</ele>
        <time>2020-07-12T10:08:06Z</time>
      </trkpt>
      <trkpt lat="46.35181" lon="2.61289">
        <ele>234.6</ele>
        <time>2020-07-12T10:08:10Z</time>
      </trkpt>
      <trkpt lat="46.35189" lon="2.61295">
        <ele>234.4</ele>
        <time>2020-07-12T10:08:24Z</time>
      </trkpt>
      <trkpt lat="46.35192" lon="2.61297">
        <ele>234.5</ele>
        <time>2020-07-12T10:08:25Z</time>
      </trkpt>
      <trkpt lat="46.35201" lon="2.61302">
        <ele>234.9</ele>
        <time>2020-07-12T10:08:27Z</time>
      </trkpt>
      <trkpt lat="46.35205" lon="2.61306">
        <ele>235.1</ele>
        <time>2020-07-12T10:08:28Z</time>
      </trkpt>
      <trkpt lat="46.3521" lon="2.6131">
        <ele>235.3</ele>
        <time>2020-07-12T10:08:29Z</time>
      </trkpt>
      <trkpt lat="46.35214" lon="2.61314">
        <ele>235.4</ele>
        <time>2020-07-12T10:08:30Z</time>
      </trkpt>
      <trkpt lat="46.35222" lon="2.61319">
        <ele>235.5</ele>
        <time>2020-07-12T10:08:32Z</time>
      </trkpt>
      <trkpt lat="46.35229" lon="2.61324">
        <ele>235.7</ele>
        <time>2020-07-12T10:08:34Z</time>
      </trkpt>
      <trkpt lat="46.35237" lon="2.61329">
        <ele>235.3</ele>
        <time>2020-07-12T10:08:36Z</time>
      </trkpt>
      <trkpt lat="46.35244" lon="2.61333">
        <ele>235.3</ele>
        <time>2020-07-12T10:08:38Z</time>
      </trkpt>
      <trkpt lat="46.35251" lon="2.61337">
        <ele>235.3</ele>
        <time>2020-07-12T10:08:40Z</time>
      </trkpt>
      <trkpt lat="46.35258" lon="2.61342">
        <ele>235.2</ele>
        <time>2020-07-12T10:08:42Z</time>
      </trkpt>
      <trkpt lat="46.35265" lon="2.61346">
        <ele>235.1</ele>
        <time>2020-07-12T10:08:44Z</time>
      </trkpt>
      <trkpt lat="46.35272" lon="2.6135">
        <ele>235</ele>
        <time>2020-07-12T10:08:46Z</time>
      </trkpt>
      <trkpt lat="46.35279" lon="2.61355">
        <ele>234.9</ele>
        <time>2020-07-12T10:08:48Z</time>
      </trkpt>
      <trkpt lat="46.35281" lon="2.61364">
        <ele>234.5</ele>
        <time>2020-07-12T10:08:50Z</time>
      </trkpt>
      <trkpt lat="46.35277" lon="2.61374">
        <ele>234.3</ele>
        <time>2020-07-12T10:08:52Z</time>
      </trkpt>
      <trkpt lat="46.35274" lon="2.61385">
        <ele>234.2</ele>
        <time>2020-07-12T10:08:54Z</time>
      </trkpt>
      <trkpt lat="46.35272" lon="2.61396">
        <ele>234.4</ele>
        <time>2020-07-12T10:08:56Z</time>
      </trkpt>
      <trkpt lat="46.35269" lon="2.61407">
        <ele>234.8</ele>
        <time>2020-07-12T10:08:58Z</time>
      </trkpt>
      <trkpt lat="46.35266" lon="2.61417">
        <ele>235.1</ele>
        <time>2020-07-12T10:09:00Z</time>
      </trkpt>
      <trkpt lat="46.35262" lon="2.61428">
        <ele>235.9</ele>
        <time>2020-07-12T10:09:02Z</time>
      </trkpt>
      <trkpt lat="46.35259" lon="2.61438">
        <ele>236.3</ele>
        <time>2020-07-12T10:09:04Z</time>
      </trkpt>
      <trkpt lat="46.35256" lon="2.61449">
        <ele>236.2</ele>
        <time>2020-07-12T10:09:06Z</time>
      </trkpt>
      <trkpt lat="46.35253" lon="2.61458">
        <ele>236.3</ele>
        <time>2020-07-12T10:09:08Z</time>
      </trkpt>
      <trkpt lat="46.35249" lon="2.61468">
        <ele>236.6</ele>
        <time>2020-07-12T10:09:10Z</time>
      </trkpt>
      <trkpt lat="46.35247" lon="2.61478">
        <ele>236.9</ele>
        <time>2020-07-12T10:09:12Z</time>
      </trkpt>
      <trkpt lat="46.35244" lon="2.61488">
        <ele>237.4</ele>
        <time>2020-07-12T10:09:14Z</time>
      </trkpt>
      <trkpt lat="46.35241" lon="2.61498">
        <ele>237.4</ele>
        <time>2020-07-12T10:09:16Z</time>
      </trkpt>
      <trkpt lat="46.35238" lon="2.61508">
        <ele>237.2</ele>
        <time>2020-07-12T10:09:18Z</time>
      </trkpt>
      <trkpt lat="46.35235" lon="2.61518">
        <ele>236.9</ele>
        <time>2020-07-12T10:09:20Z</time>
      </trkpt>
      <trkpt lat="46.35231" lon="2.61529">
        <ele>236.7</ele>
        <time>2020-07-12T10:09:22Z</time>
      </trkpt>
      <trkpt lat="46.35227" lon="2.61539">
        <ele>236.6</ele>
        <time>2020-07-12T10:09:24Z</time>
      </trkpt>
      <trkpt lat="46.35224" lon="2.6155">
        <ele>236.5</ele>
        <time>2020-07-12T10:09:26Z</time>
      </trkpt>
      <trkpt lat="46.35223" lon="2.61555">
        <ele>236.5</ele>
        <time>2020-07-12T10:09:27Z</time>
      </trkpt>
      <trkpt lat="46.35218" lon="2.61571">
        <ele>236.5</ele>
        <time>2020-07-12T10:09:30Z</time>
      </trkpt>
      <trkpt lat="46.35215" lon="2.61581">
        <ele>236.6</ele>
        <time>2020-07-12T10:09:32Z</time>
      </trkpt>
      <trkpt lat="46.35212" lon="2.61592">
        <ele>237.1</ele>
        <time>2020-07-12T10:09:34Z</time>
      </trkpt>
      <trkpt lat="46.35209" lon="2.61603">
        <ele>237.4</ele>
        <time>2020-07-12T10:09:36Z</time>
      </trkpt>
      <trkpt lat="46.35206" lon="2.61613">
        <ele>237.5</ele>
        <time>2020-07-12T10:09:38Z</time>
      </trkpt>
      <trkpt lat="46.35202" lon="2.61623">
        <ele>237.7</ele>
        <time>2020-07-12T10:09:40Z</time>
      </trkpt>
      <trkpt lat="46.35199" lon="2.61633">
        <ele>238.1</ele>
        <time>2020-07-12T10:09:42Z</time>
      </trkpt>
      <trkpt lat="46.35196" lon="2.61643">
        <ele>238</ele>
        <time>2020-07-12T10:09:44Z</time>
      </trkpt>
      <trkpt lat="46.35195" lon="2.61653">
        <ele>238.2</ele>
        <time>2020-07-12T10:09:46Z</time>
      </trkpt>
      <trkpt lat="46.35196" lon="2.61663">
        <ele>238.6</ele>
        <time>2020-07-12T10:09:48Z</time>
      </trkpt>
      <trkpt lat="46.35197" lon="2.61674">
        <ele>239.1</ele>
        <time>2020-07-12T10:09:50Z</time>
      </trkpt>
      <trkpt lat="46.352" lon="2.61685">
        <ele>239.5</ele>
        <time>2020-07-12T10:09:52Z</time>
      </trkpt>
      <trkpt lat="46.35203" lon="2.61696">
        <ele>239.4</ele>
        <time>2020-07-12T10:09:54Z</time>
      </trkpt>
      <trkpt lat="46.35206" lon="2.61707">
        <ele>238.8</ele>
        <time>2020-07-12T10:09:56Z</time>
      </trkpt>
      <trkpt lat="46.35209" lon="2.61719">
        <ele>239</ele>
        <time>2020-07-12T10:09:58Z</time>
      </trkpt>
      <trkpt lat="46.35211" lon="2.61725">
        <ele>239.3</ele>
        <time>2020-07-12T10:09:59Z</time>
      </trkpt>
      <trkpt lat="46.35215" lon="2.61736">
        <ele>239.3</ele>
        <time>2020-07-12T10:10:01Z</time>
      </trkpt>
      <trkpt lat="46.3522" lon="2.61748">
        <ele>239</ele>
        <time>2020-07-12T10:10:03Z</time>
      </trkpt>
      <trkpt lat="46.35224" lon="2.61759">
        <ele>239.2</ele>
        <time>2020-07-12T10:10:05Z</time>
      </trkpt>
      <trkpt lat="46.35228" lon="2.6177">
        <ele>239.3</ele>
        <time>2020-07-12T10:10:07Z</time>
      </trkpt>
      <trkpt lat="46.35232" lon="2.6178">
        <ele>239.4</ele>
        <time>2020-07-12T10:10:09Z</time>
      </trkpt>
      <trkpt lat="46.35237" lon="2.6179">
        <ele>239.6</ele>
        <time>2020-07-12T10:10:11Z</time>
      </trkpt>
      <trkpt lat="46.35241" lon="2.618">
        <ele>239.4</ele>
        <time>2020-07-12T10:10:13Z</time>
      </trkpt>
      <trkpt lat="46.35246" lon="2.6181">
        <ele>239.7</ele>
        <time>2020-07-12T10:10:15Z</time>
      </trkpt>
      <trkpt lat="46.35248" lon="2.6182">
        <ele>239.8</ele>
        <time>2020-07-12T10:10:17Z</time>
      </trkpt>
      <trkpt lat="46.35252" lon="2.61829">
        <ele>240.2</ele>
        <time>2020-07-12T10:10:19Z</time>
      </trkpt>
      <trkpt lat="46.35258" lon="2.61838">
        <ele>240.4</ele>
        <time>2020-07-12T10:10:21Z</time>
      </trkpt>
      <trkpt lat="46.35264" lon="2.61846">
        <ele>240.2</ele>
        <time>2020-07-12T10:10:23Z</time>
      </trkpt>
      <trkpt lat="46.35271" lon="2.61854">
        <ele>240.4</ele>
        <time>2020-07-12T10:10:25Z</time>
      </trkpt>
      <trkpt lat="46.35277" lon="2.61862">
        <ele>241</ele>
        <time>2020-07-12T10:10:27Z</time>
      </trkpt>
      <trkpt lat="46.35281" lon="2.61865">
        <ele>240.7</ele>
        <time>2020-07-12T10:10:28Z</time>
      </trkpt>
      <trkpt lat="46.35383" lon="2.61948">
        <ele>251.8</ele>
        <time>2020-07-12T10:11:46Z</time>
      </trkpt>
      <trkpt lat="46.35392" lon="2.61949">
        <ele>258</ele>
        <time>2020-07-12T10:12:48Z</time>
      </trkpt>
      <trkpt lat="46.35394" lon="2.6195">
        <ele>257.9</ele>
        <time>2020-07-12T10:12:49Z</time>
      </trkpt>
      <trkpt lat="46.35406" lon="2.61956">
        <ele>257.3</ele>
        <time>2020-07-12T10:12:54Z</time>
      </trkpt>
      <trkpt lat="46.35414" lon="2.61951">
        <ele>256.5</ele>
        <time>2020-07-12T10:12:58Z</time>
      </trkpt>
      <trkpt lat="46.35417" lon="2.61941">
        <ele>255.8</ele>
        <time>2020-07-12T10:13:01Z</time>
      </trkpt>
      <trkpt lat="46.35421" lon="2.6193">
        <ele>255</ele>
        <time>2020-07-12T10:13:04Z</time>
      </trkpt>
      <trkpt lat="46.35424" lon="2.61922">
        <ele>254.4</ele>
        <time>2020-07-12T10:13:06Z</time>
      </trkpt>
      <trkpt lat="46.35428" lon="2.61911">
        <ele>253.8</ele>
        <time>2020-07-12T10:13:08Z</time>
      </trkpt>
      <trkpt lat="46.35431" lon="2.619">
        <ele>253.2</ele>
        <time>2020-07-12T10:13:10Z</time>
      </trkpt>
      <trkpt lat="46.35433" lon="2.61894">
        <ele>252.9</ele>
        <time>2020-07-12T10:13:11Z</time>
      </trkpt>
      <trkpt lat="46.35436" lon="2.61888">
        <ele>252.7</ele>
        <time>2020-07-12T10:13:12Z</time>
      </trkpt>
      <trkpt lat="46.35439" lon="2.61882">
        <ele>252.4</ele>
        <time>2020-07-12T10:13:13Z</time>
      </trkpt>
      <trkpt lat="46.35441" lon="2.61877">
        <ele>252.1</ele>
        <time>2020-07-12T10:13:14Z</time>
      </trkpt>
      <trkpt lat="46.35444" lon="2.6187">
        <ele>251.9</ele>
        <time>2020-07-12T10:13:15Z</time>
      </trkpt>
      <trkpt lat="46.35446" lon="2.61864">
        <ele>251.7</ele>
        <time>2020-07-12T10:13:16Z</time>
      </trkpt>
      <trkpt lat="46.35447" lon="2.61857">
        <ele>251.5</ele>
        <time>2020-07-12T10:13:17Z</time>
      </trkpt>
      <trkpt lat="46.3545" lon="2.61851">
        <ele>251.3</ele>
        <time>2020-07-12T10:13:18Z</time>
      </trkpt>
      <trkpt lat="46.35453" lon="2.61846">
        <ele>251.1</ele>
        <time>2020-07-12T10:13:19Z</time>
      </trkpt>
      <trkpt lat="46.35457" lon="2.61841">
        <ele>251</ele>
        <time>2020-07-12T10:13:20Z</time>
      </trkpt>
      <trkpt lat="46.35459" lon="2.61834">
        <ele>250.8</ele>
        <time>2020-07-12T10:13:21Z</time>
      </trkpt>
      <trkpt lat="46.35461" lon="2.61828">
        <ele>250.6</ele>
        <time>2020-07-12T10:13:22Z</time>
      </trkpt>
      <trkpt lat="46.35462" lon="2.61821">
        <ele>250.3</ele>
        <time>2020-07-12T10:13:23Z</time>
      </trkpt>
      <trkpt lat="46.35463" lon="2.61815">
        <ele>250.1</ele>
        <time>2020-07-12T10:13:24Z</time>
      </trkpt>
      <trkpt lat="46.35466" lon="2.61809">
        <ele>249.9</ele>
        <time>2020-07-12T10:13:25Z</time>
      </trkpt>
      <trkpt lat="46.35473" lon="2.61801">
        <ele>249.2</ele>
        <time>2020-07-12T10:13:27Z</time>
      </trkpt>
      <trkpt lat="46.35479" lon="2.61793">
        <ele>248.2</ele>
        <time>2020-07-12T10:13:29Z</time>
      </trkpt>
      <trkpt lat="46.35486" lon="2.61785">
        <ele>246.8</ele>
        <time>2020-07-12T10:13:31Z</time>
      </trkpt>
      <trkpt lat="46.35494" lon="2.61782">
        <ele>245.6</ele>
        <time>2020-07-12T10:13:33Z</time>
      </trkpt>
      <trkpt lat="46.35501" lon="2.61788">
        <ele>244.9</ele>
        <time>2020-07-12T10:13:35Z</time>
      </trkpt>
      <trkpt lat="46.35508" lon="2.61795">
        <ele>244.6</ele>
        <time>2020-07-12T10:13:37Z</time>
      </trkpt>
      <trkpt lat="46.35514" lon="2.61802">
        <ele>244.6</ele>
        <time>2020-07-12T10:13:39Z</time>
      </trkpt>
      <trkpt lat="46.3552" lon="2.61809">
        <ele>244.7</ele>
        <time>2020-07-12T10:13:41Z</time>
      </trkpt>
      <trkpt lat="46.35527" lon="2.61815">
        <ele>245</ele>
        <time>2020-07-12T10:13:43Z</time>
      </trkpt>
      <trkpt lat="46.35533" lon="2.61822">
        <ele>245.2</ele>
        <time>2020-07-12T10:13:45Z</time>
      </trkpt>
      <trkpt lat="46.3554" lon="2.61827">
        <ele>245.4</ele>
        <time>2020-07-12T10:13:47Z</time>
      </trkpt>
      <trkpt lat="46.35547" lon="2.61833">
        <ele>245.6</ele>
        <time>2020-07-12T10:13:49Z</time>
      </trkpt>
      <trkpt lat="46.35551" lon="2.61836">
        <ele>245.7</ele>
        <time>2020-07-12T10:13:50Z</time>
      </trkpt>
      <trkpt lat="46.35562" lon="2.61844">
        <ele>246</ele>
        <time>2020-07-12T10:13:53Z</time>
      </trkpt>
      <trkpt lat="46.35569" lon="2.61848">
        <ele>246.2</ele>
        <time>2020-07-12T10:13:55Z</time>
      </trkpt>
      <trkpt lat="46.35577" lon="2.61852">
        <ele>246.3</ele>
        <time>2020-07-12T10:13:57Z</time>
      </trkpt>
      <trkpt lat="46.35585" lon="2.61855">
        <ele>246.4</ele>
        <time>2020-07-12T10:13:59Z</time>
      </trkpt>
      <trkpt lat="46.35593" lon="2.61858">
        <ele>246.4</ele>
        <time>2020-07-12T10:14:01Z</time>
      </trkpt>
      <trkpt lat="46.356" lon="2.61866">
        <ele>246.1</ele>
        <time>2020-07-12T10:14:03Z</time>
      </trkpt>
      <trkpt lat="46.356" lon="2.61877">
        <ele>245.4</ele>
        <time>2020-07-12T10:14:05Z</time>
      </trkpt>
      <trkpt lat="46.35597" lon="2.61887">
        <ele>244.9</ele>
        <time>2020-07-12T10:14:07Z</time>
      </trkpt>
      <trkpt lat="46.35595" lon="2.61896">
        <ele>244.7</ele>
        <time>2020-07-12T10:14:09Z</time>
      </trkpt>
      <trkpt lat="46.35593" lon="2.61905">
        <ele>244.7</ele>
        <time>2020-07-12T10:14:11Z</time>
      </trkpt>
      <trkpt lat="46.35595" lon="2.61918">
        <ele>244.8</ele>
        <time>2020-07-12T10:14:14Z</time>
      </trkpt>
      <trkpt lat="46.35597" lon="2.61927">
        <ele>244.7</ele>
        <time>2020-07-12T10:14:16Z</time>
      </trkpt>
      <trkpt lat="46.35595" lon="2.61939">
        <ele>244.7</ele>
        <time>2020-07-12T10:14:18Z</time>
      </trkpt>
      <trkpt lat="46.35594" lon="2.61949">
        <ele>244.7</ele>
        <time>2020-07-12T10:14:20Z</time>
      </trkpt>
      <trkpt lat="46.35594" lon="2.61961">
        <ele>244.8</ele>
        <time>2020-07-12T10:14:22Z</time>
      </trkpt>
      <trkpt lat="46.35598" lon="2.61972">
        <ele>244.9</ele>
        <time>2020-07-12T10:14:24Z</time>
      </trkpt>
      <trkpt lat="46.35603" lon="2.61982">
        <ele>245.1</ele>
        <time>2020-07-12T10:14:26Z</time>
      </trkpt>
      <trkpt lat="46.35608" lon="2.61992">
        <ele>245.1</ele>
        <time>2020-07-12T10:14:28Z</time>
      </trkpt>
      <trkpt lat="46.35613" lon="2.62003">
        <ele>245.2</ele>
        <time>2020-07-12T10:14:30Z</time>
      </trkpt>
      <trkpt lat="46.35618" lon="2.62013">
        <ele>245.2</ele>
        <time>2020-07-12T10:14:32Z</time>
      </trkpt>
      <trkpt lat="46.35621" lon="2.62017">
        <ele>245.2</ele>
        <time>2020-07-12T10:14:33Z</time>
      </trkpt>
      <trkpt lat="46.35624" lon="2.62022">
        <ele>245.1</ele>
        <time>2020-07-12T10:14:34Z</time>
      </trkpt>
      <trkpt lat="46.35628" lon="2.62026">
        <ele>245</ele>
        <time>2020-07-12T10:14:35Z</time>
      </trkpt>
      <trkpt lat="46.35632" lon="2.6203">
        <ele>244.9</ele>
        <time>2020-07-12T10:14:36Z</time>
      </trkpt>
      <trkpt lat="46.35637" lon="2.62032">
        <ele>244.8</ele>
        <time>2020-07-12T10:14:37Z</time>
      </trkpt>
      <trkpt lat="46.35642" lon="2.62034">
        <ele>244.6</ele>
        <time>2020-07-12T10:14:38Z</time>
      </trkpt>
      <trkpt lat="46.35648" lon="2.62036">
        <ele>244.4</ele>
        <time>2020-07-12T10:14:39Z</time>
      </trkpt>
      <trkpt lat="46.35654" lon="2.62038">
        <ele>244.1</ele>
        <time>2020-07-12T10:14:40Z</time>
      </trkpt>
      <trkpt lat="46.3566" lon="2.62042">
        <ele>243.8</ele>
        <time>2020-07-12T10:14:41Z</time>
      </trkpt>
      <trkpt lat="46.35666" lon="2.62046">
        <ele>243.4</ele>
        <time>2020-07-12T10:14:42Z</time>
      </trkpt>
      <trkpt lat="46.35672" lon="2.62051">
        <ele>243</ele>
        <time>2020-07-12T10:14:43Z</time>
      </trkpt>
      <trkpt lat="46.35678" lon="2.62057">
        <ele>242.4</ele>
        <time>2020-07-12T10:14:44Z</time>
      </trkpt>
      <trkpt lat="46.35685" lon="2.62064">
        <ele>241.9</ele>
        <time>2020-07-12T10:14:45Z</time>
      </trkpt>
      <trkpt lat="46.35691" lon="2.62071">
        <ele>241.3</ele>
        <time>2020-07-12T10:14:46Z</time>
      </trkpt>
      <trkpt lat="46.35698" lon="2.62079">
        <ele>240.7</ele>
        <time>2020-07-12T10:14:47Z</time>
      </trkpt>
      <trkpt lat="46.35704" lon="2.62088">
        <ele>240.1</ele>
        <time>2020-07-12T10:14:48Z</time>
      </trkpt>
      <trkpt lat="46.35711" lon="2.62097">
        <ele>239.6</ele>
        <time>2020-07-12T10:14:49Z</time>
      </trkpt>
      <trkpt lat="46.35718" lon="2.62105">
        <ele>239.1</ele>
        <time>2020-07-12T10:14:50Z</time>
      </trkpt>
      <trkpt lat="46.35726" lon="2.62109">
        <ele>238.7</ele>
        <time>2020-07-12T10:14:51Z</time>
      </trkpt>
      <trkpt lat="46.35734" lon="2.6211">
        <ele>238.3</ele>
        <time>2020-07-12T10:14:52Z</time>
      </trkpt>
      <trkpt lat="46.35743" lon="2.62111">
        <ele>238</ele>
        <time>2020-07-12T10:14:53Z</time>
      </trkpt>
      <trkpt lat="46.35751" lon="2.62111">
        <ele>237.7</ele>
        <time>2020-07-12T10:14:54Z</time>
      </trkpt>
      <trkpt lat="46.35759" lon="2.62109">
        <ele>237.5</ele>
        <time>2020-07-12T10:14:55Z</time>
      </trkpt>
      <trkpt lat="46.35766" lon="2.62107">
        <ele>237.3</ele>
        <time>2020-07-12T10:14:56Z</time>
      </trkpt>
      <trkpt lat="46.35773" lon="2.62104">
        <ele>237.2</ele>
        <time>2020-07-12T10:14:57Z</time>
      </trkpt>
      <trkpt lat="46.35779" lon="2.621">
        <ele>237.1</ele>
        <time>2020-07-12T10:14:58Z</time>
      </trkpt>
      <trkpt lat="46.35785" lon="2.62095">
        <ele>237</ele>
        <time>2020-07-12T10:14:59Z</time>
      </trkpt>
      <trkpt lat="46.3579" lon="2.6209">
        <ele>237</ele>
        <time>2020-07-12T10:15:00Z</time>
      </trkpt>
      <trkpt lat="46.35794" lon="2.62084">
        <ele>236.9</ele>
        <time>2020-07-12T10:15:01Z</time>
      </trkpt>
      <trkpt lat="46.35797" lon="2.62077">
        <ele>236.9</ele>
        <time>2020-07-12T10:15:02Z</time>
      </trkpt>
      <trkpt lat="46.358" lon="2.6207">
        <ele>236.8</ele>
        <time>2020-07-12T10:15:03Z</time>
      </trkpt>
      <trkpt lat="46.35803" lon="2.62063">
        <ele>236.7</ele>
        <time>2020-07-12T10:15:04Z</time>
      </trkpt>
      <trkpt lat="46.35806" lon="2.62056">
        <ele>236.6</ele>
        <time>2020-07-12T10:15:05Z</time>
      </trkpt>
      <trkpt lat="46.35809" lon="2.62049">
        <ele>236.6</ele>
        <time>2020-07-12T10:15:06Z</time>
      </trkpt>
      <trkpt lat="46.35811" lon="2.62042">
        <ele>236.5</ele>
        <time>2020-07-12T10:15:07Z</time>
      </trkpt>
      <trkpt lat="46.35814" lon="2.62035">
        <ele>236.5</ele>
        <time>2020-07-12T10:15:08Z</time>
      </trkpt>
      <trkpt lat="46.35817" lon="2.62028">
        <ele>236.5</ele>
        <time>2020-07-12T10:15:09Z</time>
      </trkpt>
      <trkpt lat="46.3582" lon="2.62021">
        <ele>236.5</ele>
        <time>2020-07-12T10:15:10Z</time>
      </trkpt>
      <trkpt lat="46.35823" lon="2.62014">
        <ele>236.5</ele>
        <time>2020-07-12T10:15:11Z</time>
      </trkpt>
      <trkpt lat="46.35826" lon="2.62008">
        <ele>236.5</ele>
        <time>2020-07-12T10:15:12Z</time>
      </trkpt>
      <trkpt lat="46.35829" lon="2.62002">
        <ele>236.5</ele>
        <time>2020-07-12T10:15:13Z</time>
      </trkpt>
      <trkpt lat="46.35832" lon="2.61996">
        <ele>236.5</ele>
        <time>2020-07-12T10:15:14Z</time>
      </trkpt>
      <trkpt lat="46.35836" lon="2.61992">
        <ele>236.6</ele>
        <time>2020-07-12T10:15:15Z</time>
      </trkpt>
      <trkpt lat="46.3584" lon="2.61987">
        <ele>236.7</ele>
        <time>2020-07-12T10:15:16Z</time>
      </trkpt>
      <trkpt lat="46.35844" lon="2.61983">
        <ele>236.8</ele>
        <time>2020-07-12T10:15:17Z</time>
      </trkpt>
      <trkpt lat="46.35851" lon="2.61978">
        <ele>237</ele>
        <time>2020-07-12T10:15:19Z</time>
      </trkpt>
      <trkpt lat="46.35858" lon="2.61973">
        <ele>237.4</ele>
        <time>2020-07-12T10:15:21Z</time>
      </trkpt>
      <trkpt lat="46.35865" lon="2.61969">
        <ele>237.9</ele>
        <time>2020-07-12T10:15:23Z</time>
      </trkpt>
      <trkpt lat="46.35871" lon="2.61965">
        <ele>238.4</ele>
        <time>2020-07-12T10:15:25Z</time>
      </trkpt>
      <trkpt lat="46.35877" lon="2.61962">
        <ele>238.8</ele>
        <time>2020-07-12T10:15:27Z</time>
      </trkpt>
      <trkpt lat="46.35884" lon="2.6196">
        <ele>239.1</ele>
        <time>2020-07-12T10:15:29Z</time>
      </trkpt>
      <trkpt lat="46.3589" lon="2.61956">
        <ele>239.3</ele>
        <time>2020-07-12T10:15:31Z</time>
      </trkpt>
      <trkpt lat="46.35896" lon="2.61953">
        <ele>239.7</ele>
        <time>2020-07-12T10:15:33Z</time>
      </trkpt>
      <trkpt lat="46.35902" lon="2.61951">
        <ele>240.1</ele>
        <time>2020-07-12T10:15:35Z</time>
      </trkpt>
      <trkpt lat="46.35909" lon="2.61949">
        <ele>240.5</ele>
        <time>2020-07-12T10:15:37Z</time>
      </trkpt>
      <trkpt lat="46.35915" lon="2.61947">
        <ele>241</ele>
        <time>2020-07-12T10:15:39Z</time>
      </trkpt>
      <trkpt lat="46.35921" lon="2.61947">
        <ele>241.5</ele>
        <time>2020-07-12T10:15:41Z</time>
      </trkpt>
      <trkpt lat="46.35927" lon="2.61948">
        <ele>242</ele>
        <time>2020-07-12T10:15:43Z</time>
      </trkpt>
      <trkpt lat="46.35933" lon="2.61949">
        <ele>242.6</ele>
        <time>2020-07-12T10:15:45Z</time>
      </trkpt>
      <trkpt lat="46.35939" lon="2.61952">
        <ele>243.2</ele>
        <time>2020-07-12T10:15:47Z</time>
      </trkpt>
      <trkpt lat="46.35946" lon="2.61959">
        <ele>244</ele>
        <time>2020-07-12T10:15:50Z</time>
      </trkpt>
      <trkpt lat="46.35952" lon="2.61968">
        <ele>244.8</ele>
        <time>2020-07-12T10:15:53Z</time>
      </trkpt>
      <trkpt lat="46.35954" lon="2.61972">
        <ele>245</ele>
        <time>2020-07-12T10:15:54Z</time>
      </trkpt>
      <trkpt lat="46.35959" lon="2.61991">
        <ele>246.2</ele>
        <time>2020-07-12T10:15:59Z</time>
      </trkpt>
      <trkpt lat="46.35961" lon="2.62004">
        <ele>246.7</ele>
        <time>2020-07-12T10:16:02Z</time>
      </trkpt>
      <trkpt lat="46.35955" lon="2.61999">
        <ele>248.2</ele>
        <time>2020-07-12T10:16:08Z</time>
      </trkpt>
      <trkpt lat="46.35951" lon="2.61992">
        <ele>248.2</ele>
        <time>2020-07-12T10:16:10Z</time>
      </trkpt>
      <trkpt lat="46.35944" lon="2.61984">
        <ele>248.4</ele>
        <time>2020-07-12T10:16:13Z</time>
      </trkpt>
      <trkpt lat="46.35939" lon="2.61976">
        <ele>248.8</ele>
        <time>2020-07-12T10:16:15Z</time>
      </trkpt>
      <trkpt lat="46.35936" lon="2.61971">
        <ele>248.8</ele>
        <time>2020-07-12T10:16:16Z</time>
      </trkpt>
      <trkpt lat="46.35932" lon="2.61967">
        <ele>248.6</ele>
        <time>2020-07-12T10:16:17Z</time>
      </trkpt>
      <trkpt lat="46.35927" lon="2.61964">
        <ele>248.2</ele>
        <time>2020-07-12T10:16:18Z</time>
      </trkpt>
      <trkpt lat="46.35921" lon="2.61964">
        <ele>247.8</ele>
        <time>2020-07-12T10:16:19Z</time>
      </trkpt>
      <trkpt lat="46.35915" lon="2.61968">
        <ele>247.4</ele>
        <time>2020-07-12T10:16:20Z</time>
      </trkpt>
      <trkpt lat="46.3591" lon="2.61972">
        <ele>247.1</ele>
        <time>2020-07-12T10:16:21Z</time>
      </trkpt>
      <trkpt lat="46.35906" lon="2.61977">
        <ele>246.9</ele>
        <time>2020-07-12T10:16:22Z</time>
      </trkpt>
      <trkpt lat="46.35901" lon="2.61982">
        <ele>246.6</ele>
        <time>2020-07-12T10:16:23Z</time>
      </trkpt>
      <trkpt lat="46.35896" lon="2.61986">
        <ele>246.4</ele>
        <time>2020-07-12T10:16:24Z</time>
      </trkpt>
      <trkpt lat="46.35891" lon="2.6199">
        <ele>246</ele>
        <time>2020-07-12T10:16:25Z</time>
      </trkpt>
      <trkpt lat="46.35886" lon="2.61995">
        <ele>245.7</ele>
        <time>2020-07-12T10:16:26Z</time>
      </trkpt>
      <trkpt lat="46.35882" lon="2.62001">
        <ele>245.5</ele>
        <time>2020-07-12T10:16:27Z</time>
      </trkpt>
      <trkpt lat="46.35879" lon="2.62008">
        <ele>245.3</ele>
        <time>2020-07-12T10:16:28Z</time>
      </trkpt>
      <trkpt lat="46.35876" lon="2.62015">
        <ele>245.2</ele>
        <time>2020-07-12T10:16:29Z</time>
      </trkpt>
      <trkpt lat="46.35873" lon="2.62021">
        <ele>245.2</ele>
        <time>2020-07-12T10:16:30Z</time>
      </trkpt>
      <trkpt lat="46.3587" lon="2.62026">
        <ele>245.2</ele>
        <time>2020-07-12T10:16:31Z</time>
      </trkpt>
      <trkpt lat="46.35865" lon="2.62037">
        <ele>245.5</ele>
        <time>2020-07-12T10:16:33Z</time>
      </trkpt>
      <trkpt lat="46.35862" lon="2.62047">
        <ele>245.9</ele>
        <time>2020-07-12T10:16:35Z</time>
      </trkpt>
      <trkpt lat="46.35859" lon="2.62056">
        <ele>246.3</ele>
        <time>2020-07-12T10:16:37Z</time>
      </trkpt>
      <trkpt lat="46.35856" lon="2.62065">
        <ele>246.7</ele>
        <time>2020-07-12T10:16:39Z</time>
      </trkpt>
      <trkpt lat="46.35853" lon="2.62075">
        <ele>247.1</ele>
        <time>2020-07-12T10:16:41Z</time>
      </trkpt>
      <trkpt lat="46.3585" lon="2.62085">
        <ele>247.6</ele>
        <time>2020-07-12T10:16:44Z</time>
      </trkpt>
      <trkpt lat="46.35847" lon="2.62095">
        <ele>248.1</ele>
        <time>2020-07-12T10:16:47Z</time>
      </trkpt>
      <trkpt lat="46.35845" lon="2.62104">
        <ele>248.4</ele>
        <time>2020-07-12T10:16:49Z</time>
      </trkpt>
      <trkpt lat="46.35842" lon="2.62112">
        <ele>248.7</ele>
        <time>2020-07-12T10:16:51Z</time>
      </trkpt>
      <trkpt lat="46.35838" lon="2.6212">
        <ele>248.9</ele>
        <time>2020-07-12T10:16:53Z</time>
      </trkpt>
      <trkpt lat="46.35833" lon="2.62129">
        <ele>249.1</ele>
        <time>2020-07-12T10:16:55Z</time>
      </trkpt>
      <trkpt lat="46.35831" lon="2.62133">
        <ele>249.2</ele>
        <time>2020-07-12T10:16:56Z</time>
      </trkpt>
      <trkpt lat="46.35828" lon="2.6215">
        <ele>249.6</ele>
        <time>2020-07-12T10:17:00Z</time>
      </trkpt>
      <trkpt lat="46.35828" lon="2.62161">
        <ele>250.1</ele>
        <time>2020-07-12T10:17:05Z</time>
      </trkpt>
      <trkpt lat="46.35826" lon="2.62174">
        <ele>250.1</ele>
        <time>2020-07-12T10:17:09Z</time>
      </trkpt>
      <trkpt lat="46.35823" lon="2.62185">
        <ele>250.1</ele>
        <time>2020-07-12T10:17:12Z</time>
      </trkpt>
      <trkpt lat="46.3582" lon="2.62197">
        <ele>249.6</ele>
        <time>2020-07-12T10:17:15Z</time>
      </trkpt>
      <trkpt lat="46.35819" lon="2.62205">
        <ele>249.1</ele>
        <time>2020-07-12T10:17:17Z</time>
      </trkpt>
      <trkpt lat="46.35817" lon="2.62214">
        <ele>248.8</ele>
        <time>2020-07-12T10:17:19Z</time>
      </trkpt>
      <trkpt lat="46.35815" lon="2.62223">
        <ele>248.5</ele>
        <time>2020-07-12T10:17:21Z</time>
      </trkpt>
      <trkpt lat="46.35812" lon="2.62233">
        <ele>248.1</ele>
        <time>2020-07-12T10:17:23Z</time>
      </trkpt>
      <trkpt lat="46.3581" lon="2.62244">
        <ele>247.8</ele>
        <time>2020-07-12T10:17:25Z</time>
      </trkpt>
      <trkpt lat="46.35807" lon="2.62254">
        <ele>247.5</ele>
        <time>2020-07-12T10:17:27Z</time>
      </trkpt>
      <trkpt lat="46.35805" lon="2.62263">
        <ele>247.4</ele>
        <time>2020-07-12T10:17:29Z</time>
      </trkpt>
      <trkpt lat="46.35802" lon="2.62274">
        <ele>247.3</ele>
        <time>2020-07-12T10:17:32Z</time>
      </trkpt>
      <trkpt lat="46.35797" lon="2.62285">
        <ele>248.1</ele>
        <time>2020-07-12T10:17:36Z</time>
      </trkpt>
      <trkpt lat="46.35792" lon="2.62293">
        <ele>249.2</ele>
        <time>2020-07-12T10:17:40Z</time>
      </trkpt>
      <trkpt lat="46.35792" lon="2.62303">
        <ele>249.3</ele>
        <time>2020-07-12T10:17:42Z</time>
      </trkpt>
      <trkpt lat="46.35797" lon="2.62309">
        <ele>249.2</ele>
        <time>2020-07-12T10:17:44Z</time>
      </trkpt>
      <trkpt lat="46.35803" lon="2.62315">
        <ele>249.2</ele>
        <time>2020-07-12T10:17:47Z</time>
      </trkpt>
      <trkpt lat="46.35811" lon="2.62322">
        <ele>249.4</ele>
        <time>2020-07-12T10:17:51Z</time>
      </trkpt>
      <trkpt lat="46.35817" lon="2.62328">
        <ele>249.4</ele>
        <time>2020-07-12T10:17:54Z</time>
      </trkpt>
      <trkpt lat="46.35824" lon="2.62333">
        <ele>249.7</ele>
        <time>2020-07-12T10:17:57Z</time>
      </trkpt>
      <trkpt lat="46.35827" lon="2.62335">
        <ele>249.9</ele>
        <time>2020-07-12T10:17:58Z</time>
      </trkpt>
      <trkpt lat="46.35839" lon="2.62342">
        <ele>251.3</ele>
        <time>2020-07-12T10:18:03Z</time>
      </trkpt>
      <trkpt lat="46.35846" lon="2.62347">
        <ele>252.8</ele>
        <time>2020-07-12T10:18:06Z</time>
      </trkpt>
      <trkpt lat="46.35853" lon="2.62352">
        <ele>254.4</ele>
        <time>2020-07-12T10:18:09Z</time>
      </trkpt>
      <trkpt lat="46.35846" lon="2.62358">
        <ele>256.2</ele>
        <time>2020-07-12T10:18:18Z</time>
      </trkpt>
      <trkpt lat="46.35838" lon="2.62356">
        <ele>256.3</ele>
        <time>2020-07-12T10:18:22Z</time>
      </trkpt>
      <trkpt lat="46.3583" lon="2.6236">
        <ele>255.9</ele>
        <time>2020-07-12T10:18:29Z</time>
      </trkpt>
      <trkpt lat="46.35828" lon="2.62365">
        <ele>258.1</ele>
        <time>2020-07-12T10:18:42Z</time>
      </trkpt>
      <trkpt lat="46.35828" lon="2.62365">
        <ele>258.2</ele>
        <time>2020-07-12T10:18:43Z</time>
      </trkpt>
    </trkseg>
  </trk>
</gpx>